<?xml version="1.0" encoding="UTF-8" standalone="no" ?><gpx xmlns="http://www.topografix.com/GPX/1/1" xmlns:gpxx="http://www.garmin.com/xmlschemas/GpxExtensions/v3" xmlns:gpxtrkx="http://www.garmin.com/xmlschemas/TrackStatsExtension/v1" xmlns:wptx1="http://www.garmin.com/xmlschemas/WaypointExtension/v1" xmlns:gpxtpx="http://www.garmin.com/xmlschemas/TrackPointExtension/v1" creator="Alpha 300i" version="1.1" xmlns:xsi="http://www.w3.org/2001/XMLSchema-instance" xsi:schemaLocation="http://www.topografix.com/GPX/1/1 http://www.topografix.com/GPX/1/1/gpx.xsd http://www.garmin.com/xmlschemas/GpxExtensions/v3 http://www8.garmin.com/xmlschemas/GpxExtensionsv3.xsd http://www.garmin.com/xmlschemas/TrackStatsExtension/v1 http://www8.garmin.com/xmlschemas/TrackStatsExtension.xsd http://www.garmin.com/xmlschemas/WaypointExtension/v1 http://www8.garmin.com/xmlschemas/WaypointExtensionv1.xsd http://www.garmin.com/xmlschemas/TrackPointExtension/v1 http://www.garmin.com/xmlschemas/TrackPointExtensionv1.xsd"><metadata><link href="http://www.garmin.com"><text>Garmin International</text></link><time>2026-09-02T22:56:38Z</time></metadata><trk><name>Айс-2026-09-03 01:56:37</name><extensions><gpxx:TrackExtension><gpxx:DisplayColor>Red</gpxx:DisplayColor></gpxx:TrackExtension></extensions><trkseg><trkpt lat="59.5566701889" lon="31.2603092194"><ele>0.14</ele><time>2026-09-02T17:56:20Z</time></trkpt><trkpt lat="59.5567774773" lon="31.2605452538"><ele>0.14</ele><time>2026-09-02T17:56:23Z</time></trkpt><trkpt lat="59.5568203926" lon="31.2606096268"><ele>0.14</ele><time>2026-09-02T17:56:25Z</time></trkpt><trkpt lat="59.5567774773" lon="31.2605023384"><ele>0.14</ele><time>2026-09-02T17:56:28Z</time></trkpt><trkpt lat="59.5567560196" lon="31.2603735924"><ele>0.14</ele><time>2026-09-02T17:56:30Z</time></trkpt><trkpt lat="59.5567345619" lon="31.2603735924"><ele>0.14</ele><time>2026-09-02T17:56:33Z</time></trkpt><trkpt lat="59.5567345619" lon="31.2603735924"><ele>0.14</ele><time>2026-09-02T17:56:35Z</time></trkpt><trkpt lat="59.5567345619" lon="31.2603521347"><ele>0.14</ele><time>2026-09-02T17:56:38Z</time></trkpt><trkpt lat="59.5567345619" lon="31.2603521347"><ele>0.14</ele><time>2026-09-02T17:56:40Z</time></trkpt><trkpt lat="59.5566916466" lon="31.2602663040"><ele>0.14</ele><time>2026-09-02T17:56:43Z</time></trkpt><trkpt lat="59.5566272736" lon="31.2600946426"><ele>0.14</ele><time>2026-09-02T17:56:45Z</time></trkpt><trkpt lat="59.5566272736" lon="31.2600517273"><ele>0.14</ele><time>2026-09-02T17:56:48Z</time></trkpt><trkpt lat="59.5566487312" lon="31.2600731850"><ele>0.14</ele><time>2026-09-02T17:56:50Z</time></trkpt><trkpt lat="59.5566487312" lon="31.2601161003"><ele>0.14</ele><time>2026-09-02T17:56:53Z</time></trkpt><trkpt lat="59.5566487312" lon="31.2601590157"><ele>0.14</ele><time>2026-09-02T17:56:55Z</time></trkpt><trkpt lat="59.5566058159" lon="31.2602019310"><ele>0.14</ele><time>2026-09-02T17:56:58Z</time></trkpt><trkpt lat="59.5566058159" lon="31.2602019310"><ele>0.14</ele><time>2026-09-02T17:57:00Z</time></trkpt><trkpt lat="59.5566058159" lon="31.2602019310"><ele>0.14</ele><time>2026-09-02T17:57:03Z</time></trkpt><trkpt lat="59.5566058159" lon="31.2602019310"><ele>0.14</ele><time>2026-09-02T17:57:05Z</time></trkpt><trkpt lat="59.5566058159" lon="31.2602019310"><ele>0.14</ele><time>2026-09-02T17:57:08Z</time></trkpt><trkpt lat="59.5566058159" lon="31.2602019310"><ele>0.14</ele><time>2026-09-02T17:57:10Z</time></trkpt><trkpt lat="59.5566058159" lon="31.2601804733"><ele>0.14</ele><time>2026-09-02T17:57:13Z</time></trkpt><trkpt lat="59.5565843582" lon="31.2601375580"><ele>0.14</ele><time>2026-09-02T17:57:15Z</time></trkpt><trkpt lat="59.5565199852" lon="31.2600731850"><ele>0.14</ele><time>2026-09-02T17:57:18Z</time></trkpt><trkpt lat="59.5564770699" lon="31.2600088120"><ele>0.14</ele><time>2026-09-02T17:57:20Z</time></trkpt><trkpt lat="59.5565414429" lon="31.2600302696"><ele>0.14</ele><time>2026-09-02T17:57:23Z</time></trkpt><trkpt lat="59.5566487312" lon="31.2601590157"><ele>0.14</ele><time>2026-09-02T17:57:28Z</time></trkpt><trkpt lat="59.5566487312" lon="31.2601590157"><ele>0.14</ele><time>2026-09-02T17:57:30Z</time></trkpt><trkpt lat="59.5566272736" lon="31.2601804733"><ele>0.14</ele><time>2026-09-02T17:57:33Z</time></trkpt><trkpt lat="59.5566701889" lon="31.2602877617"><ele>0.14</ele><time>2026-09-02T17:57:35Z</time></trkpt><trkpt lat="59.5567560196" lon="31.2605023384"><ele>0.14</ele><time>2026-09-02T17:57:38Z</time></trkpt><trkpt lat="59.5567989349" lon="31.2607383728"><ele>0.14</ele><time>2026-09-02T17:57:40Z</time></trkpt><trkpt lat="59.5568633080" lon="31.2607812881"><ele>0.14</ele><time>2026-09-02T17:57:43Z</time></trkpt><trkpt lat="59.5568203926" lon="31.2606525421"><ele>0.14</ele><time>2026-09-02T17:57:45Z</time></trkpt><trkpt lat="59.5567345619" lon="31.2604594231"><ele>0.14</ele><time>2026-09-02T17:57:48Z</time></trkpt><trkpt lat="59.5567560196" lon="31.2605023384"><ele>0.14</ele><time>2026-09-02T17:57:50Z</time></trkpt><trkpt lat="59.5567989349" lon="31.2606954575"><ele>0.14</ele><time>2026-09-02T17:57:53Z</time></trkpt><trkpt lat="59.5568418503" lon="31.2608242035"><ele>0.14</ele><time>2026-09-02T17:57:55Z</time></trkpt><trkpt lat="59.5568847656" lon="31.2608671188"><ele>0.14</ele><time>2026-09-02T17:57:58Z</time></trkpt><trkpt lat="59.5568847656" lon="31.2608456612"><ele>0.14</ele><time>2026-09-02T17:58:00Z</time></trkpt><trkpt lat="59.5568418503" lon="31.2608242035"><ele>0.14</ele><time>2026-09-02T17:58:03Z</time></trkpt><trkpt lat="59.5567774773" lon="31.2608885765"><ele>0.14</ele><time>2026-09-02T17:58:05Z</time></trkpt><trkpt lat="59.5567560196" lon="31.2610173225"><ele>0.14</ele><time>2026-09-02T17:58:08Z</time></trkpt><trkpt lat="59.5567560196" lon="31.2611246109"><ele>0.14</ele><time>2026-09-02T17:58:10Z</time></trkpt><trkpt lat="59.5567345619" lon="31.2611246109"><ele>0.14</ele><time>2026-09-02T17:58:13Z</time></trkpt><trkpt lat="59.5567345619" lon="31.2611675262"><ele>0.14</ele><time>2026-09-02T17:58:15Z</time></trkpt><trkpt lat="59.5567131042" lon="31.2612962723"><ele>0.14</ele><time>2026-09-02T17:58:18Z</time></trkpt><trkpt lat="59.5566701889" lon="31.2614250183"><ele>0.14</ele><time>2026-09-02T17:58:20Z</time></trkpt><trkpt lat="59.5566701889" lon="31.2615323067"><ele>0.14</ele><time>2026-09-02T17:58:23Z</time></trkpt><trkpt lat="59.5566701889" lon="31.2616610527"><ele>0.14</ele><time>2026-09-02T17:58:25Z</time></trkpt><trkpt lat="59.5566701889" lon="31.2616825104"><ele>0.14</ele><time>2026-09-02T17:58:28Z</time></trkpt><trkpt lat="59.5566701889" lon="31.2616610527"><ele>0.14</ele><time>2026-09-02T17:58:30Z</time></trkpt><trkpt lat="59.5566701889" lon="31.2616825104"><ele>0.14</ele><time>2026-09-02T17:58:33Z</time></trkpt><trkpt lat="59.5566487312" lon="31.2617683411"><ele>0.14</ele><time>2026-09-02T17:58:35Z</time></trkpt><trkpt lat="59.5565843582" lon="31.2619185448"><ele>0.14</ele><time>2026-09-02T17:58:38Z</time></trkpt><trkpt lat="59.5565414429" lon="31.2620472908"><ele>0.14</ele><time>2026-09-02T17:58:40Z</time></trkpt><trkpt lat="59.5565414429" lon="31.2621331215"><ele>0.14</ele><time>2026-09-02T17:58:43Z</time></trkpt><trkpt lat="59.5565199852" lon="31.2621331215"><ele>0.14</ele><time>2026-09-02T17:58:45Z</time></trkpt><trkpt lat="59.5565414429" lon="31.2621331215"><ele>0.14</ele><time>2026-09-02T17:58:48Z</time></trkpt><trkpt lat="59.5565414429" lon="31.2621331215"><ele>0.14</ele><time>2026-09-02T17:58:50Z</time></trkpt><trkpt lat="59.5565414429" lon="31.2621331215"><ele>0.14</ele><time>2026-09-02T17:58:53Z</time></trkpt><trkpt lat="59.5565414429" lon="31.2621331215"><ele>0.14</ele><time>2026-09-02T17:58:55Z</time></trkpt><trkpt lat="59.5565414429" lon="31.2621331215"><ele>0.14</ele><time>2026-09-02T17:58:58Z</time></trkpt><trkpt lat="59.5565414429" lon="31.2621331215"><ele>0.14</ele><time>2026-09-02T17:59:00Z</time></trkpt><trkpt lat="59.5565414429" lon="31.2621331215"><ele>0.14</ele><time>2026-09-02T17:59:03Z</time></trkpt><trkpt lat="59.5565414429" lon="31.2621331215"><ele>0.14</ele><time>2026-09-02T17:59:05Z</time></trkpt><trkpt lat="59.5565414429" lon="31.2621331215"><ele>0.14</ele><time>2026-09-02T17:59:08Z</time></trkpt><trkpt lat="59.5565414429" lon="31.2621331215"><ele>0.14</ele><time>2026-09-02T17:59:10Z</time></trkpt><trkpt lat="59.5565414429" lon="31.2620902061"><ele>0.14</ele><time>2026-09-02T17:59:13Z</time></trkpt><trkpt lat="59.5566272736" lon="31.2617683411"><ele>0.14</ele><time>2026-09-02T17:59:15Z</time></trkpt><trkpt lat="59.5566916466" lon="31.2613391876"><ele>0.14</ele><time>2026-09-02T17:59:18Z</time></trkpt><trkpt lat="59.5567345619" lon="31.2611246109"><ele>0.14</ele><time>2026-09-02T17:59:20Z</time></trkpt><trkpt lat="59.5567345619" lon="31.2611460686"><ele>0.14</ele><time>2026-09-02T17:59:23Z</time></trkpt><trkpt lat="59.5567345619" lon="31.2611460686"><ele>0.14</ele><time>2026-09-02T17:59:25Z</time></trkpt><trkpt lat="59.5567345619" lon="31.2611460686"><ele>0.14</ele><time>2026-09-02T17:59:28Z</time></trkpt><trkpt lat="59.5567131042" lon="31.2612104416"><ele>0.14</ele><time>2026-09-02T17:59:30Z</time></trkpt><trkpt lat="59.5567131042" lon="31.2612962723"><ele>0.14</ele><time>2026-09-02T17:59:33Z</time></trkpt><trkpt lat="59.5567131042" lon="31.2613177299"><ele>0.14</ele><time>2026-09-02T17:59:35Z</time></trkpt><trkpt lat="59.5567131042" lon="31.2613177299"><ele>0.14</ele><time>2026-09-02T17:59:38Z</time></trkpt><trkpt lat="59.5567131042" lon="31.2613177299"><ele>0.14</ele><time>2026-09-02T17:59:40Z</time></trkpt><trkpt lat="59.5567131042" lon="31.2613391876"><ele>0.14</ele><time>2026-09-02T17:59:43Z</time></trkpt><trkpt lat="59.5567131042" lon="31.2613606453"><ele>0.14</ele><time>2026-09-02T17:59:45Z</time></trkpt><trkpt lat="59.5566916466" lon="31.2613821030"><ele>0.14</ele><time>2026-09-02T17:59:48Z</time></trkpt><trkpt lat="59.5566916466" lon="31.2613821030"><ele>0.14</ele><time>2026-09-02T17:59:50Z</time></trkpt><trkpt lat="59.5567131042" lon="31.2614035606"><ele>0.14</ele><time>2026-09-02T17:59:53Z</time></trkpt><trkpt lat="59.5566916466" lon="31.2614679337"><ele>0.14</ele><time>2026-09-02T17:59:55Z</time></trkpt><trkpt lat="59.5566701889" lon="31.2615966797"><ele>0.14</ele><time>2026-09-02T17:59:58Z</time></trkpt><trkpt lat="59.5566487312" lon="31.2617039680"><ele>0.14</ele><time>2026-09-02T18:00:00Z</time></trkpt><trkpt lat="59.5566487312" lon="31.2617683411"><ele>0.14</ele><time>2026-09-02T18:00:03Z</time></trkpt><trkpt lat="59.5566487312" lon="31.2618112564"><ele>0.14</ele><time>2026-09-02T18:00:05Z</time></trkpt><trkpt lat="59.5566487312" lon="31.2618327141"><ele>0.14</ele><time>2026-09-02T18:00:08Z</time></trkpt><trkpt lat="59.5566272736" lon="31.2618756294"><ele>0.14</ele><time>2026-09-02T18:00:10Z</time></trkpt><trkpt lat="59.5566058159" lon="31.2619614601"><ele>0.14</ele><time>2026-09-02T18:00:13Z</time></trkpt><trkpt lat="59.5566058159" lon="31.2621116638"><ele>0.14</ele><time>2026-09-02T18:00:15Z</time></trkpt><trkpt lat="59.5565843582" lon="31.2622618675"><ele>0.14</ele><time>2026-09-02T18:00:18Z</time></trkpt><trkpt lat="59.5565843582" lon="31.2623691559"><ele>0.14</ele><time>2026-09-02T18:00:20Z</time></trkpt><trkpt lat="59.5565414429" lon="31.2625193596"><ele>0.14</ele><time>2026-09-02T18:00:23Z</time></trkpt><trkpt lat="59.5565199852" lon="31.2626481056"><ele>0.14</ele><time>2026-09-02T18:00:25Z</time></trkpt><trkpt lat="59.5564985275" lon="31.2627339363"><ele>0.14</ele><time>2026-09-02T18:00:28Z</time></trkpt><trkpt lat="59.5564985275" lon="31.2627339363"><ele>0.14</ele><time>2026-09-02T18:00:30Z</time></trkpt><trkpt lat="59.5564770699" lon="31.2627768517"><ele>0.14</ele><time>2026-09-02T18:00:33Z</time></trkpt><trkpt lat="59.5564770699" lon="31.2627768517"><ele>0.14</ele><time>2026-09-02T18:00:35Z</time></trkpt><trkpt lat="59.5564770699" lon="31.2627983093"><ele>0.14</ele><time>2026-09-02T18:00:38Z</time></trkpt><trkpt lat="59.5564985275" lon="31.2627983093"><ele>0.14</ele><time>2026-09-02T18:00:40Z</time></trkpt><trkpt lat="59.5564985275" lon="31.2627768517"><ele>0.14</ele><time>2026-09-02T18:00:43Z</time></trkpt><trkpt lat="59.5564770699" lon="31.2627553940"><ele>0.14</ele><time>2026-09-02T18:00:45Z</time></trkpt><trkpt lat="59.5564770699" lon="31.2627553940"><ele>0.14</ele><time>2026-09-02T18:00:48Z</time></trkpt><trkpt lat="59.5564556122" lon="31.2627768517"><ele>0.14</ele><time>2026-09-02T18:00:50Z</time></trkpt><trkpt lat="59.5564556122" lon="31.2627768517"><ele>0.14</ele><time>2026-09-02T18:00:53Z</time></trkpt><trkpt lat="59.5564770699" lon="31.2627983093"><ele>0.14</ele><time>2026-09-02T18:00:55Z</time></trkpt><trkpt lat="59.5564770699" lon="31.2629055977"><ele>0.14</ele><time>2026-09-02T18:00:58Z</time></trkpt><trkpt lat="59.5564770699" lon="31.2630987167"><ele>0.14</ele><time>2026-09-02T18:01:00Z</time></trkpt><trkpt lat="59.5564341545" lon="31.2633347511"><ele>0.14</ele><time>2026-09-02T18:01:03Z</time></trkpt><trkpt lat="59.5564126968" lon="31.2635278702"><ele>0.14</ele><time>2026-09-02T18:01:05Z</time></trkpt><trkpt lat="59.5564126968" lon="31.2636995316"><ele>0.14</ele><time>2026-09-02T18:01:08Z</time></trkpt><trkpt lat="59.5564126968" lon="31.2638068199"><ele>0.14</ele><time>2026-09-02T18:01:10Z</time></trkpt><trkpt lat="59.5563912392" lon="31.2639141083"><ele>0.14</ele><time>2026-09-02T18:01:13Z</time></trkpt><trkpt lat="59.5563912392" lon="31.2639141083"><ele>0.14</ele><time>2026-09-02T18:01:15Z</time></trkpt><trkpt lat="59.5563912392" lon="31.2639570236"><ele>0.14</ele><time>2026-09-02T18:01:18Z</time></trkpt><trkpt lat="59.5563912392" lon="31.2640428543"><ele>0.14</ele><time>2026-09-02T18:01:20Z</time></trkpt><trkpt lat="59.5563912392" lon="31.2640857697"><ele>0.14</ele><time>2026-09-02T18:01:23Z</time></trkpt><trkpt lat="59.5563912392" lon="31.2641286850"><ele>0.14</ele><time>2026-09-02T18:01:25Z</time></trkpt><trkpt lat="59.5564126968" lon="31.2641286850"><ele>0.14</ele><time>2026-09-02T18:01:28Z</time></trkpt><trkpt lat="59.5564126968" lon="31.2641286850"><ele>0.14</ele><time>2026-09-02T18:01:30Z</time></trkpt><trkpt lat="59.5564126968" lon="31.2641286850"><ele>0.14</ele><time>2026-09-02T18:01:33Z</time></trkpt><trkpt lat="59.5563912392" lon="31.2641501427"><ele>0.14</ele><time>2026-09-02T18:01:35Z</time></trkpt><trkpt lat="59.5563912392" lon="31.2641930580"><ele>0.14</ele><time>2026-09-02T18:01:38Z</time></trkpt><trkpt lat="59.5563912392" lon="31.2642574310"><ele>0.14</ele><time>2026-09-02T18:01:40Z</time></trkpt><trkpt lat="59.5563912392" lon="31.2642788887"><ele>0.14</ele><time>2026-09-02T18:01:43Z</time></trkpt><trkpt lat="59.5563912392" lon="31.2642788887"><ele>0.14</ele><time>2026-09-02T18:01:45Z</time></trkpt><trkpt lat="59.5563912392" lon="31.2643003464"><ele>0.14</ele><time>2026-09-02T18:01:48Z</time></trkpt><trkpt lat="59.5563912392" lon="31.2643218040"><ele>0.14</ele><time>2026-09-02T18:01:50Z</time></trkpt><trkpt lat="59.5563697815" lon="31.2643647194"><ele>0.14</ele><time>2026-09-02T18:01:53Z</time></trkpt><trkpt lat="59.5563697815" lon="31.2644505501"><ele>0.14</ele><time>2026-09-02T18:01:55Z</time></trkpt><trkpt lat="59.5563483238" lon="31.2645578384"><ele>0.14</ele><time>2026-09-02T18:01:58Z</time></trkpt><trkpt lat="59.5563483238" lon="31.2646222115"><ele>0.14</ele><time>2026-09-02T18:02:00Z</time></trkpt><trkpt lat="59.5563912392" lon="31.2646436691"><ele>0.14</ele><time>2026-09-02T18:02:03Z</time></trkpt><trkpt lat="59.5563697815" lon="31.2646651268"><ele>0.14</ele><time>2026-09-02T18:02:05Z</time></trkpt><trkpt lat="59.5563697815" lon="31.2646651268"><ele>0.14</ele><time>2026-09-02T18:02:08Z</time></trkpt><trkpt lat="59.5563697815" lon="31.2646436691"><ele>0.14</ele><time>2026-09-02T18:02:10Z</time></trkpt><trkpt lat="59.5563697815" lon="31.2646222115"><ele>0.14</ele><time>2026-09-02T18:02:13Z</time></trkpt><trkpt lat="59.5563268661" lon="31.2645578384"><ele>0.14</ele><time>2026-09-02T18:02:15Z</time></trkpt><trkpt lat="59.5563268661" lon="31.2644505501"><ele>0.14</ele><time>2026-09-02T18:02:18Z</time></trkpt><trkpt lat="59.5563268661" lon="31.2644290924"><ele>0.14</ele><time>2026-09-02T18:02:20Z</time></trkpt><trkpt lat="59.5563268661" lon="31.2644290924"><ele>0.14</ele><time>2026-09-02T18:02:23Z</time></trkpt><trkpt lat="59.5563268661" lon="31.2644076347"><ele>0.14</ele><time>2026-09-02T18:02:25Z</time></trkpt><trkpt lat="59.5563268661" lon="31.2644290924"><ele>0.14</ele><time>2026-09-02T18:02:28Z</time></trkpt><trkpt lat="59.5563483238" lon="31.2644290924"><ele>0.14</ele><time>2026-09-02T18:02:30Z</time></trkpt><trkpt lat="59.5563483238" lon="31.2644076347"><ele>0.14</ele><time>2026-09-02T18:02:33Z</time></trkpt><trkpt lat="59.5563483238" lon="31.2644076347"><ele>0.14</ele><time>2026-09-02T18:02:35Z</time></trkpt><trkpt lat="59.5563697815" lon="31.2644076347"><ele>0.14</ele><time>2026-09-02T18:02:38Z</time></trkpt><trkpt lat="59.5563697815" lon="31.2644076347"><ele>0.14</ele><time>2026-09-02T18:02:40Z</time></trkpt><trkpt lat="59.5563697815" lon="31.2644076347"><ele>0.14</ele><time>2026-09-02T18:02:43Z</time></trkpt><trkpt lat="59.5563697815" lon="31.2644076347"><ele>0.14</ele><time>2026-09-02T18:02:45Z</time></trkpt><trkpt lat="59.5563697815" lon="31.2644076347"><ele>0.14</ele><time>2026-09-02T18:02:48Z</time></trkpt><trkpt lat="59.5563697815" lon="31.2644076347"><ele>0.14</ele><time>2026-09-02T18:02:50Z</time></trkpt><trkpt lat="59.5563697815" lon="31.2644076347"><ele>0.14</ele><time>2026-09-02T18:02:53Z</time></trkpt><trkpt lat="59.5563697815" lon="31.2644076347"><ele>0.14</ele><time>2026-09-02T18:02:55Z</time></trkpt><trkpt lat="59.5563697815" lon="31.2644076347"><ele>0.14</ele><time>2026-09-02T18:02:58Z</time></trkpt><trkpt lat="59.5563697815" lon="31.2644290924"><ele>0.14</ele><time>2026-09-02T18:03:00Z</time></trkpt><trkpt lat="59.5563912392" lon="31.2644934654"><ele>0.14</ele><time>2026-09-02T18:03:03Z</time></trkpt><trkpt lat="59.5563912392" lon="31.2645792961"><ele>0.14</ele><time>2026-09-02T18:03:05Z</time></trkpt><trkpt lat="59.5563912392" lon="31.2647080421"><ele>0.14</ele><time>2026-09-02T18:03:08Z</time></trkpt><trkpt lat="59.5563697815" lon="31.2648582458"><ele>0.14</ele><time>2026-09-02T18:03:10Z</time></trkpt><trkpt lat="59.5563483238" lon="31.2648582458"><ele>0.14</ele><time>2026-09-02T18:03:13Z</time></trkpt><trkpt lat="59.5563483238" lon="31.2648153305"><ele>0.14</ele><time>2026-09-02T18:03:15Z</time></trkpt><trkpt lat="59.5563483238" lon="31.2647938728"><ele>0.14</ele><time>2026-09-02T18:03:18Z</time></trkpt><trkpt lat="59.5563483238" lon="31.2647938728"><ele>0.14</ele><time>2026-09-02T18:03:20Z</time></trkpt><trkpt lat="59.5563697815" lon="31.2649011612"><ele>0.14</ele><time>2026-09-02T18:03:23Z</time></trkpt><trkpt lat="59.5563697815" lon="31.2650513649"><ele>0.14</ele><time>2026-09-02T18:03:25Z</time></trkpt><trkpt lat="59.5563912392" lon="31.2652444839"><ele>0.14</ele><time>2026-09-02T18:03:28Z</time></trkpt><trkpt lat="59.5563697815" lon="31.2653946877"><ele>0.14</ele><time>2026-09-02T18:03:30Z</time></trkpt><trkpt lat="59.5563697815" lon="31.2655019760"><ele>0.14</ele><time>2026-09-02T18:03:33Z</time></trkpt><trkpt lat="59.5563483238" lon="31.2655878067"><ele>0.14</ele><time>2026-09-02T18:03:35Z</time></trkpt><trkpt lat="59.5563268661" lon="31.2656950951"><ele>0.14</ele><time>2026-09-02T18:03:38Z</time></trkpt><trkpt lat="59.5563268661" lon="31.2657380104"><ele>0.14</ele><time>2026-09-02T18:03:40Z</time></trkpt><trkpt lat="59.5563268661" lon="31.2657594681"><ele>0.14</ele><time>2026-09-02T18:03:43Z</time></trkpt><trkpt lat="59.5563268661" lon="31.2657594681"><ele>0.14</ele><time>2026-09-02T18:03:45Z</time></trkpt><trkpt lat="59.5563268661" lon="31.2657809258"><ele>0.14</ele><time>2026-09-02T18:03:48Z</time></trkpt><trkpt lat="59.5563268661" lon="31.2658238411"><ele>0.14</ele><time>2026-09-02T18:03:50Z</time></trkpt><trkpt lat="59.5563483238" lon="31.2658882141"><ele>0.14</ele><time>2026-09-02T18:03:53Z</time></trkpt><trkpt lat="59.5563483238" lon="31.2659740448"><ele>0.14</ele><time>2026-09-02T18:03:55Z</time></trkpt><trkpt lat="59.5563483238" lon="31.2660598755"><ele>0.14</ele><time>2026-09-02T18:03:58Z</time></trkpt><trkpt lat="59.5563483238" lon="31.2661027908"><ele>0.14</ele><time>2026-09-02T18:04:00Z</time></trkpt><trkpt lat="59.5563697815" lon="31.2661671638"><ele>0.14</ele><time>2026-09-02T18:04:03Z</time></trkpt><trkpt lat="59.5563697815" lon="31.2661671638"><ele>0.14</ele><time>2026-09-02T18:04:05Z</time></trkpt><trkpt lat="59.5563697815" lon="31.2661671638"><ele>0.14</ele><time>2026-09-02T18:04:08Z</time></trkpt><trkpt lat="59.5563697815" lon="31.2661671638"><ele>0.14</ele><time>2026-09-02T18:04:10Z</time></trkpt><trkpt lat="59.5563912392" lon="31.2661671638"><ele>0.14</ele><time>2026-09-02T18:04:13Z</time></trkpt><trkpt lat="59.5563697815" lon="31.2661671638"><ele>0.14</ele><time>2026-09-02T18:04:15Z</time></trkpt><trkpt lat="59.5563697815" lon="31.2661671638"><ele>0.14</ele><time>2026-09-02T18:04:18Z</time></trkpt><trkpt lat="59.5563697815" lon="31.2661671638"><ele>0.14</ele><time>2026-09-02T18:04:20Z</time></trkpt><trkpt lat="59.5563697815" lon="31.2661671638"><ele>0.14</ele><time>2026-09-02T18:04:23Z</time></trkpt><trkpt lat="59.5563697815" lon="31.2661671638"><ele>0.14</ele><time>2026-09-02T18:04:25Z</time></trkpt><trkpt lat="59.5563483238" lon="31.2662100792"><ele>0.14</ele><time>2026-09-02T18:04:28Z</time></trkpt><trkpt lat="59.5563054085" lon="31.2662529945"><ele>0.14</ele><time>2026-09-02T18:04:30Z</time></trkpt><trkpt lat="59.5563054085" lon="31.2662959099"><ele>0.14</ele><time>2026-09-02T18:04:33Z</time></trkpt><trkpt lat="59.5562839508" lon="31.2663173676"><ele>0.14</ele><time>2026-09-02T18:04:35Z</time></trkpt><trkpt lat="59.5562624931" lon="31.2663817406"><ele>0.14</ele><time>2026-09-02T18:04:38Z</time></trkpt><trkpt lat="59.5562624931" lon="31.2664031982"><ele>0.14</ele><time>2026-09-02T18:04:40Z</time></trkpt><trkpt lat="59.5562624931" lon="31.2664031982"><ele>0.14</ele><time>2026-09-02T18:04:43Z</time></trkpt><trkpt lat="59.5562839508" lon="31.2663602829"><ele>0.14</ele><time>2026-09-02T18:04:45Z</time></trkpt><trkpt lat="59.5563268661" lon="31.2663602829"><ele>0.14</ele><time>2026-09-02T18:04:48Z</time></trkpt><trkpt lat="59.5563483238" lon="31.2663602829"><ele>0.14</ele><time>2026-09-02T18:04:50Z</time></trkpt><trkpt lat="59.5563483238" lon="31.2664031982"><ele>0.14</ele><time>2026-09-02T18:04:53Z</time></trkpt><trkpt lat="59.5563697815" lon="31.2664246559"><ele>0.14</ele><time>2026-09-02T18:04:55Z</time></trkpt><trkpt lat="59.5563697815" lon="31.2665104866"><ele>0.14</ele><time>2026-09-02T18:04:58Z</time></trkpt><trkpt lat="59.5564126968" lon="31.2665963173"><ele>0.14</ele><time>2026-09-02T18:05:00Z</time></trkpt><trkpt lat="59.5564126968" lon="31.2666177750"><ele>0.14</ele><time>2026-09-02T18:05:03Z</time></trkpt><trkpt lat="59.5564126968" lon="31.2666177750"><ele>0.14</ele><time>2026-09-02T18:05:05Z</time></trkpt><trkpt lat="59.5564126968" lon="31.2666177750"><ele>0.14</ele><time>2026-09-02T18:05:08Z</time></trkpt><trkpt lat="59.5564341545" lon="31.2666177750"><ele>0.14</ele><time>2026-09-02T18:05:10Z</time></trkpt><trkpt lat="59.5564126968" lon="31.2666177750"><ele>0.14</ele><time>2026-09-02T18:05:13Z</time></trkpt><trkpt lat="59.5563912392" lon="31.2666392326"><ele>0.14</ele><time>2026-09-02T18:05:15Z</time></trkpt><trkpt lat="59.5563912392" lon="31.2666392326"><ele>0.14</ele><time>2026-09-02T18:05:18Z</time></trkpt><trkpt lat="59.5563912392" lon="31.2666392326"><ele>0.14</ele><time>2026-09-02T18:05:20Z</time></trkpt><trkpt lat="59.5563912392" lon="31.2666392326"><ele>0.14</ele><time>2026-09-02T18:05:23Z</time></trkpt><trkpt lat="59.5563912392" lon="31.2666392326"><ele>0.14</ele><time>2026-09-02T18:05:25Z</time></trkpt><trkpt lat="59.5563912392" lon="31.2666606903"><ele>0.14</ele><time>2026-09-02T18:05:28Z</time></trkpt><trkpt lat="59.5564556122" lon="31.2668323517"><ele>0.14</ele><time>2026-09-02T18:05:30Z</time></trkpt><trkpt lat="59.5565199852" lon="31.2669610977"><ele>0.14</ele><time>2026-09-02T18:05:33Z</time></trkpt><trkpt lat="59.5565414429" lon="31.2670683861"><ele>0.14</ele><time>2026-09-02T18:05:35Z</time></trkpt><trkpt lat="59.5565629005" lon="31.2671327591"><ele>0.14</ele><time>2026-09-02T18:05:38Z</time></trkpt><trkpt lat="59.5565843582" lon="31.2671756744"><ele>0.14</ele><time>2026-09-02T18:05:40Z</time></trkpt><trkpt lat="59.5566272736" lon="31.2672185898"><ele>0.14</ele><time>2026-09-02T18:05:43Z</time></trkpt><trkpt lat="59.5566487312" lon="31.2672829628"><ele>0.14</ele><time>2026-09-02T18:05:45Z</time></trkpt><trkpt lat="59.5566487312" lon="31.2672829628"><ele>0.14</ele><time>2026-09-02T18:05:48Z</time></trkpt><trkpt lat="59.5566487312" lon="31.2672829628"><ele>0.14</ele><time>2026-09-02T18:05:50Z</time></trkpt><trkpt lat="59.5566487312" lon="31.2673044205"><ele>0.14</ele><time>2026-09-02T18:05:53Z</time></trkpt><trkpt lat="59.5566487312" lon="31.2673044205"><ele>0.14</ele><time>2026-09-02T18:05:55Z</time></trkpt><trkpt lat="59.5566487312" lon="31.2673044205"><ele>0.14</ele><time>2026-09-02T18:05:58Z</time></trkpt><trkpt lat="59.5566487312" lon="31.2673044205"><ele>0.14</ele><time>2026-09-02T18:06:00Z</time></trkpt><trkpt lat="59.5566487312" lon="31.2673044205"><ele>0.14</ele><time>2026-09-02T18:06:03Z</time></trkpt><trkpt lat="59.5566487312" lon="31.2673044205"><ele>0.14</ele><time>2026-09-02T18:06:05Z</time></trkpt><trkpt lat="59.5566487312" lon="31.2673044205"><ele>0.14</ele><time>2026-09-02T18:06:08Z</time></trkpt><trkpt lat="59.5566487312" lon="31.2673044205"><ele>0.14</ele><time>2026-09-02T18:06:10Z</time></trkpt><trkpt lat="59.5566487312" lon="31.2673044205"><ele>0.14</ele><time>2026-09-02T18:06:13Z</time></trkpt><trkpt lat="59.5566487312" lon="31.2673258781"><ele>0.14</ele><time>2026-09-02T18:06:15Z</time></trkpt><trkpt lat="59.5566916466" lon="31.2673687935"><ele>0.14</ele><time>2026-09-02T18:06:18Z</time></trkpt><trkpt lat="59.5567560196" lon="31.2674546242"><ele>0.14</ele><time>2026-09-02T18:06:20Z</time></trkpt><trkpt lat="59.5568633080" lon="31.2676048279"><ele>0.14</ele><time>2026-09-02T18:06:23Z</time></trkpt><trkpt lat="59.5569276810" lon="31.2677335739"><ele>0.14</ele><time>2026-09-02T18:06:25Z</time></trkpt><trkpt lat="59.5569920540" lon="31.2677979469"><ele>0.14</ele><time>2026-09-02T18:06:28Z</time></trkpt><trkpt lat="59.5569920540" lon="31.2677764893"><ele>0.14</ele><time>2026-09-02T18:06:30Z</time></trkpt><trkpt lat="59.5570135117" lon="31.2678408623"><ele>0.14</ele><time>2026-09-02T18:06:33Z</time></trkpt><trkpt lat="59.5570349693" lon="31.2678623199"><ele>0.14</ele><time>2026-09-02T18:06:35Z</time></trkpt><trkpt lat="59.5570349693" lon="31.2678623199"><ele>0.14</ele><time>2026-09-02T18:06:38Z</time></trkpt><trkpt lat="59.5570349693" lon="31.2678623199"><ele>0.14</ele><time>2026-09-02T18:06:40Z</time></trkpt><trkpt lat="59.5570778847" lon="31.2678837776"><ele>0.14</ele><time>2026-09-02T18:06:43Z</time></trkpt><trkpt lat="59.5570778847" lon="31.2679052353"><ele>0.14</ele><time>2026-09-02T18:06:45Z</time></trkpt><trkpt lat="59.5571208000" lon="31.2678837776"><ele>0.14</ele><time>2026-09-02T18:06:48Z</time></trkpt><trkpt lat="59.5571637154" lon="31.2678837776"><ele>0.14</ele><time>2026-09-02T18:06:50Z</time></trkpt><trkpt lat="59.5571851730" lon="31.2678837776"><ele>0.14</ele><time>2026-09-02T18:06:53Z</time></trkpt><trkpt lat="59.5572066307" lon="31.2679052353"><ele>0.14</ele><time>2026-09-02T18:06:55Z</time></trkpt><trkpt lat="59.5572495461" lon="31.2679266930"><ele>0.14</ele><time>2026-09-02T18:06:58Z</time></trkpt><trkpt lat="59.5572495461" lon="31.2679266930"><ele>0.14</ele><time>2026-09-02T18:07:00Z</time></trkpt><trkpt lat="59.5572495461" lon="31.2679696083"><ele>0.14</ele><time>2026-09-02T18:07:03Z</time></trkpt><trkpt lat="59.5571637154" lon="31.2679481506"><ele>0.14</ele><time>2026-09-02T18:07:05Z</time></trkpt><trkpt lat="59.5570349693" lon="31.2679266930"><ele>0.14</ele><time>2026-09-02T18:07:08Z</time></trkpt><trkpt lat="59.5569920540" lon="31.2678623199"><ele>0.14</ele><time>2026-09-02T18:07:10Z</time></trkpt><trkpt lat="59.5570135117" lon="31.2678837776"><ele>0.14</ele><time>2026-09-02T18:07:13Z</time></trkpt><trkpt lat="59.5570135117" lon="31.2679052353"><ele>0.14</ele><time>2026-09-02T18:07:15Z</time></trkpt><trkpt lat="59.5569920540" lon="31.2679266930"><ele>0.14</ele><time>2026-09-02T18:07:18Z</time></trkpt><trkpt lat="59.5569920540" lon="31.2679481506"><ele>0.14</ele><time>2026-09-02T18:07:20Z</time></trkpt><trkpt lat="59.5569705963" lon="31.2679481506"><ele>0.14</ele><time>2026-09-02T18:07:23Z</time></trkpt><trkpt lat="59.5569705963" lon="31.2679481506"><ele>0.14</ele><time>2026-09-02T18:07:25Z</time></trkpt><trkpt lat="59.5569920540" lon="31.2679481506"><ele>0.14</ele><time>2026-09-02T18:07:28Z</time></trkpt><trkpt lat="59.5569920540" lon="31.2679481506"><ele>0.14</ele><time>2026-09-02T18:07:30Z</time></trkpt><trkpt lat="59.5569920540" lon="31.2679481506"><ele>0.14</ele><time>2026-09-02T18:07:33Z</time></trkpt><trkpt lat="59.5569920540" lon="31.2679481506"><ele>0.14</ele><time>2026-09-02T18:07:35Z</time></trkpt><trkpt lat="59.5569920540" lon="31.2679481506"><ele>0.14</ele><time>2026-09-02T18:07:38Z</time></trkpt><trkpt lat="59.5569920540" lon="31.2679481506"><ele>0.14</ele><time>2026-09-02T18:07:40Z</time></trkpt><trkpt lat="59.5569920540" lon="31.2679481506"><ele>0.14</ele><time>2026-09-02T18:07:43Z</time></trkpt><trkpt lat="59.5569920540" lon="31.2679481506"><ele>0.14</ele><time>2026-09-02T18:07:45Z</time></trkpt><trkpt lat="59.5569920540" lon="31.2679481506"><ele>0.14</ele><time>2026-09-02T18:07:48Z</time></trkpt><trkpt lat="59.5569920540" lon="31.2679481506"><ele>0.14</ele><time>2026-09-02T18:07:50Z</time></trkpt><trkpt lat="59.5569920540" lon="31.2679266930"><ele>0.14</ele><time>2026-09-02T18:07:53Z</time></trkpt><trkpt lat="59.5569920540" lon="31.2679266930"><ele>0.14</ele><time>2026-09-02T18:07:55Z</time></trkpt><trkpt lat="59.5570135117" lon="31.2679052353"><ele>0.14</ele><time>2026-09-02T18:07:58Z</time></trkpt><trkpt lat="59.5570135117" lon="31.2679052353"><ele>0.14</ele><time>2026-09-02T18:08:00Z</time></trkpt><trkpt lat="59.5570135117" lon="31.2678837776"><ele>0.14</ele><time>2026-09-02T18:08:03Z</time></trkpt><trkpt lat="59.5570135117" lon="31.2678837776"><ele>0.14</ele><time>2026-09-02T18:08:05Z</time></trkpt><trkpt lat="59.5570135117" lon="31.2678837776"><ele>0.14</ele><time>2026-09-02T18:08:08Z</time></trkpt><trkpt lat="59.5570135117" lon="31.2678837776"><ele>0.14</ele><time>2026-09-02T18:08:10Z</time></trkpt><trkpt lat="59.5570135117" lon="31.2678837776"><ele>0.14</ele><time>2026-09-02T18:08:13Z</time></trkpt><trkpt lat="59.5570135117" lon="31.2678837776"><ele>0.14</ele><time>2026-09-02T18:08:15Z</time></trkpt><trkpt lat="59.5570135117" lon="31.2678837776"><ele>0.14</ele><time>2026-09-02T18:08:18Z</time></trkpt><trkpt lat="59.5570349693" lon="31.2679052353"><ele>0.14</ele><time>2026-09-02T18:08:20Z</time></trkpt><trkpt lat="59.5570349693" lon="31.2679052353"><ele>0.14</ele><time>2026-09-02T18:08:23Z</time></trkpt><trkpt lat="59.5570564270" lon="31.2679266930"><ele>0.14</ele><time>2026-09-02T18:08:25Z</time></trkpt><trkpt lat="59.5571208000" lon="31.2679266930"><ele>0.14</ele><time>2026-09-02T18:08:28Z</time></trkpt><trkpt lat="59.5571851730" lon="31.2679266930"><ele>0.14</ele><time>2026-09-02T18:08:30Z</time></trkpt><trkpt lat="59.5572280884" lon="31.2678837776"><ele>0.14</ele><time>2026-09-02T18:08:33Z</time></trkpt><trkpt lat="59.5572495461" lon="31.2678194046"><ele>0.14</ele><time>2026-09-02T18:08:35Z</time></trkpt><trkpt lat="59.5572495461" lon="31.2678194046"><ele>0.14</ele><time>2026-09-02T18:08:38Z</time></trkpt><trkpt lat="59.5572710037" lon="31.2678623199"><ele>0.14</ele><time>2026-09-02T18:08:40Z</time></trkpt><trkpt lat="59.5572924614" lon="31.2678194046"><ele>0.14</ele><time>2026-09-02T18:08:43Z</time></trkpt><trkpt lat="59.5572924614" lon="31.2678194046"><ele>0.14</ele><time>2026-09-02T18:08:45Z</time></trkpt><trkpt lat="59.5572924614" lon="31.2678194046"><ele>0.14</ele><time>2026-09-02T18:08:48Z</time></trkpt><trkpt lat="59.5573139191" lon="31.2678408623"><ele>0.14</ele><time>2026-09-02T18:08:50Z</time></trkpt><trkpt lat="59.5573568344" lon="31.2678408623"><ele>0.14</ele><time>2026-09-02T18:08:53Z</time></trkpt><trkpt lat="59.5573782921" lon="31.2678837776"><ele>0.14</ele><time>2026-09-02T18:08:55Z</time></trkpt><trkpt lat="59.5574426651" lon="31.2679052353"><ele>0.14</ele><time>2026-09-02T18:08:58Z</time></trkpt><trkpt lat="59.5575284958" lon="31.2679052353"><ele>0.14</ele><time>2026-09-02T18:09:00Z</time></trkpt><trkpt lat="59.5576143265" lon="31.2678837776"><ele>0.14</ele><time>2026-09-02T18:09:03Z</time></trkpt><trkpt lat="59.5577001572" lon="31.2678623199"><ele>0.14</ele><time>2026-09-02T18:09:05Z</time></trkpt><trkpt lat="59.5577430725" lon="31.2678623199"><ele>0.14</ele><time>2026-09-02T18:09:08Z</time></trkpt><trkpt lat="59.5577859879" lon="31.2678623199"><ele>0.14</ele><time>2026-09-02T18:09:10Z</time></trkpt><trkpt lat="59.5578289032" lon="31.2678837776"><ele>0.14</ele><time>2026-09-02T18:09:13Z</time></trkpt><trkpt lat="59.5578932762" lon="31.2679052353"><ele>0.14</ele><time>2026-09-02T18:09:15Z</time></trkpt><trkpt lat="59.5578932762" lon="31.2679481506"><ele>0.14</ele><time>2026-09-02T18:09:18Z</time></trkpt><trkpt lat="59.5578932762" lon="31.2679481506"><ele>0.14</ele><time>2026-09-02T18:09:20Z</time></trkpt><trkpt lat="59.5579147339" lon="31.2679481506"><ele>0.14</ele><time>2026-09-02T18:09:23Z</time></trkpt><trkpt lat="59.5579147339" lon="31.2679481506"><ele>0.14</ele><time>2026-09-02T18:09:25Z</time></trkpt><trkpt lat="59.5579361916" lon="31.2679481506"><ele>0.14</ele><time>2026-09-02T18:09:28Z</time></trkpt><trkpt lat="59.5579576492" lon="31.2679481506"><ele>0.14</ele><time>2026-09-02T18:09:30Z</time></trkpt><trkpt lat="59.5579791069" lon="31.2679696083"><ele>0.14</ele><time>2026-09-02T18:09:33Z</time></trkpt><trkpt lat="59.5580220222" lon="31.2679696083"><ele>0.14</ele><time>2026-09-02T18:09:35Z</time></trkpt><trkpt lat="59.5580220222" lon="31.2679266930"><ele>0.14</ele><time>2026-09-02T18:09:38Z</time></trkpt><trkpt lat="59.5580220222" lon="31.2679481506"><ele>0.14</ele><time>2026-09-02T18:09:40Z</time></trkpt><trkpt lat="59.5580434799" lon="31.2679481506"><ele>0.14</ele><time>2026-09-02T18:09:43Z</time></trkpt><trkpt lat="59.5580649376" lon="31.2679481506"><ele>0.14</ele><time>2026-09-02T18:09:45Z</time></trkpt><trkpt lat="59.5580649376" lon="31.2679481506"><ele>0.14</ele><time>2026-09-02T18:09:48Z</time></trkpt><trkpt lat="59.5580649376" lon="31.2679481506"><ele>0.14</ele><time>2026-09-02T18:09:50Z</time></trkpt><trkpt lat="59.5580649376" lon="31.2679481506"><ele>0.14</ele><time>2026-09-02T18:09:53Z</time></trkpt><trkpt lat="59.5580649376" lon="31.2679481506"><ele>0.14</ele><time>2026-09-02T18:09:55Z</time></trkpt><trkpt lat="59.5580649376" lon="31.2679481506"><ele>0.14</ele><time>2026-09-02T18:09:58Z</time></trkpt><trkpt lat="59.5580649376" lon="31.2679481506"><ele>0.14</ele><time>2026-09-02T18:10:00Z</time></trkpt><trkpt lat="59.5580649376" lon="31.2679481506"><ele>0.14</ele><time>2026-09-02T18:10:03Z</time></trkpt><trkpt lat="59.5581078529" lon="31.2679052353"><ele>0.14</ele><time>2026-09-02T18:10:05Z</time></trkpt><trkpt lat="59.5581507683" lon="31.2678837776"><ele>0.14</ele><time>2026-09-02T18:10:08Z</time></trkpt><trkpt lat="59.5581722260" lon="31.2678623199"><ele>0.14</ele><time>2026-09-02T18:10:10Z</time></trkpt><trkpt lat="59.5582151413" lon="31.2678623199"><ele>0.14</ele><time>2026-09-02T18:10:13Z</time></trkpt><trkpt lat="59.5582580566" lon="31.2678623199"><ele>0.14</ele><time>2026-09-02T18:10:15Z</time></trkpt><trkpt lat="59.5582795143" lon="31.2678837776"><ele>0.14</ele><time>2026-09-02T18:10:18Z</time></trkpt><trkpt lat="59.5582795143" lon="31.2678837776"><ele>0.14</ele><time>2026-09-02T18:10:20Z</time></trkpt><trkpt lat="59.5583224297" lon="31.2678623199"><ele>0.14</ele><time>2026-09-02T18:10:23Z</time></trkpt><trkpt lat="59.5583653450" lon="31.2678623199"><ele>0.14</ele><time>2026-09-02T18:10:25Z</time></trkpt><trkpt lat="59.5583868027" lon="31.2678837776"><ele>0.14</ele><time>2026-09-02T18:10:28Z</time></trkpt><trkpt lat="59.5584297180" lon="31.2679052353"><ele>0.14</ele><time>2026-09-02T18:10:30Z</time></trkpt><trkpt lat="59.5584726334" lon="31.2679266930"><ele>0.14</ele><time>2026-09-02T18:10:33Z</time></trkpt><trkpt lat="59.5585370064" lon="31.2679481506"><ele>0.14</ele><time>2026-09-02T18:10:35Z</time></trkpt><trkpt lat="59.5585584641" lon="31.2679910660"><ele>0.14</ele><time>2026-09-02T18:10:38Z</time></trkpt><trkpt lat="59.5585799217" lon="31.2680339813"><ele>0.14</ele><time>2026-09-02T18:10:40Z</time></trkpt><trkpt lat="59.5586228371" lon="31.2680768967"><ele>0.14</ele><time>2026-09-02T18:10:43Z</time></trkpt><trkpt lat="59.5586228371" lon="31.2680768967"><ele>0.14</ele><time>2026-09-02T18:10:45Z</time></trkpt><trkpt lat="59.5586228371" lon="31.2681412697"><ele>0.14</ele><time>2026-09-02T18:10:48Z</time></trkpt><trkpt lat="59.5586228371" lon="31.2681841850"><ele>0.14</ele><time>2026-09-02T18:10:50Z</time></trkpt><trkpt lat="59.5586228371" lon="31.2681841850"><ele>0.14</ele><time>2026-09-02T18:10:53Z</time></trkpt><trkpt lat="59.5586228371" lon="31.2682056427"><ele>0.14</ele><time>2026-09-02T18:10:55Z</time></trkpt><trkpt lat="59.5586228371" lon="31.2683129311"><ele>0.14</ele><time>2026-09-02T18:10:58Z</time></trkpt><trkpt lat="59.5586442947" lon="31.2683558464"><ele>0.14</ele><time>2026-09-02T18:11:00Z</time></trkpt><trkpt lat="59.5586657524" lon="31.2684202194"><ele>0.14</ele><time>2026-09-02T18:11:03Z</time></trkpt><trkpt lat="59.5586872101" lon="31.2684631348"><ele>0.14</ele><time>2026-09-02T18:11:05Z</time></trkpt><trkpt lat="59.5586872101" lon="31.2684631348"><ele>0.14</ele><time>2026-09-02T18:11:08Z</time></trkpt><trkpt lat="59.5587086678" lon="31.2684631348"><ele>0.14</ele><time>2026-09-02T18:11:10Z</time></trkpt><trkpt lat="59.5587301254" lon="31.2684845924"><ele>0.14</ele><time>2026-09-02T18:11:13Z</time></trkpt><trkpt lat="59.5587515831" lon="31.2685275078"><ele>0.14</ele><time>2026-09-02T18:11:15Z</time></trkpt><trkpt lat="59.5587301254" lon="31.2685275078"><ele>0.14</ele><time>2026-09-02T18:11:18Z</time></trkpt><trkpt lat="59.5587301254" lon="31.2685275078"><ele>0.14</ele><time>2026-09-02T18:11:20Z</time></trkpt><trkpt lat="59.5587301254" lon="31.2685275078"><ele>0.14</ele><time>2026-09-02T18:11:23Z</time></trkpt><trkpt lat="59.5587515831" lon="31.2685060501"><ele>0.14</ele><time>2026-09-02T18:11:25Z</time></trkpt><trkpt lat="59.5587730408" lon="31.2685060501"><ele>0.14</ele><time>2026-09-02T18:11:28Z</time></trkpt><trkpt lat="59.5588159561" lon="31.2685060501"><ele>0.14</ele><time>2026-09-02T18:11:30Z</time></trkpt><trkpt lat="59.5588374138" lon="31.2685060501"><ele>0.14</ele><time>2026-09-02T18:11:33Z</time></trkpt><trkpt lat="59.5588588715" lon="31.2685060501"><ele>0.14</ele><time>2026-09-02T18:11:35Z</time></trkpt><trkpt lat="59.5588803291" lon="31.2685060501"><ele>0.14</ele><time>2026-09-02T18:11:38Z</time></trkpt><trkpt lat="59.5588803291" lon="31.2685060501"><ele>0.14</ele><time>2026-09-02T18:11:40Z</time></trkpt><trkpt lat="59.5589017868" lon="31.2685060501"><ele>0.14</ele><time>2026-09-02T18:11:43Z</time></trkpt><trkpt lat="59.5589232445" lon="31.2685275078"><ele>0.14</ele><time>2026-09-02T18:11:45Z</time></trkpt><trkpt lat="59.5590090752" lon="31.2685489655"><ele>0.14</ele><time>2026-09-02T18:11:48Z</time></trkpt><trkpt lat="59.5590949059" lon="31.2685489655"><ele>0.14</ele><time>2026-09-02T18:11:50Z</time></trkpt><trkpt lat="59.5591378212" lon="31.2685918808"><ele>0.14</ele><time>2026-09-02T18:11:53Z</time></trkpt><trkpt lat="59.5592021942" lon="31.2686347961"><ele>0.14</ele><time>2026-09-02T18:11:55Z</time></trkpt><trkpt lat="59.5592451096" lon="31.2686562538"><ele>0.14</ele><time>2026-09-02T18:11:58Z</time></trkpt><trkpt lat="59.5592665672" lon="31.2686562538"><ele>0.14</ele><time>2026-09-02T18:12:00Z</time></trkpt><trkpt lat="59.5592665672" lon="31.2686562538"><ele>0.14</ele><time>2026-09-02T18:12:03Z</time></trkpt><trkpt lat="59.5592665672" lon="31.2686562538"><ele>0.14</ele><time>2026-09-02T18:12:05Z</time></trkpt><trkpt lat="59.5592665672" lon="31.2686777115"><ele>0.14</ele><time>2026-09-02T18:12:08Z</time></trkpt><trkpt lat="59.5593094826" lon="31.2687206268"><ele>0.14</ele><time>2026-09-02T18:12:10Z</time></trkpt><trkpt lat="59.5593523979" lon="31.2687849998"><ele>0.14</ele><time>2026-09-02T18:12:13Z</time></trkpt><trkpt lat="59.5593738556" lon="31.2688493729"><ele>0.14</ele><time>2026-09-02T18:12:15Z</time></trkpt><trkpt lat="59.5593523979" lon="31.2688708305"><ele>0.14</ele><time>2026-09-02T18:12:18Z</time></trkpt><trkpt lat="59.5593523979" lon="31.2688708305"><ele>0.14</ele><time>2026-09-02T18:12:20Z</time></trkpt><trkpt lat="59.5593523979" lon="31.2688708305"><ele>0.14</ele><time>2026-09-02T18:12:23Z</time></trkpt><trkpt lat="59.5593738556" lon="31.2688708305"><ele>0.14</ele><time>2026-09-02T18:12:25Z</time></trkpt><trkpt lat="59.5594382286" lon="31.2690210342"><ele>0.14</ele><time>2026-09-02T18:12:28Z</time></trkpt><trkpt lat="59.5595240593" lon="31.2691926956"><ele>0.14</ele><time>2026-09-02T18:12:30Z</time></trkpt><trkpt lat="59.5595884323" lon="31.2692999840"><ele>0.14</ele><time>2026-09-02T18:12:33Z</time></trkpt><trkpt lat="59.5596098900" lon="31.2693428993"><ele>0.14</ele><time>2026-09-02T18:12:35Z</time></trkpt><trkpt lat="59.5596098900" lon="31.2693214417"><ele>0.14</ele><time>2026-09-02T18:12:38Z</time></trkpt><trkpt lat="59.5595884323" lon="31.2692785263"><ele>0.14</ele><time>2026-09-02T18:12:40Z</time></trkpt><trkpt lat="59.5594596863" lon="31.2690210342"><ele>0.14</ele><time>2026-09-02T18:12:43Z</time></trkpt><trkpt lat="59.5593523979" lon="31.2687635422"><ele>0.14</ele><time>2026-09-02T18:12:45Z</time></trkpt><trkpt lat="59.5593094826" lon="31.2685918808"><ele>0.14</ele><time>2026-09-02T18:12:48Z</time></trkpt><trkpt lat="59.5592880249" lon="31.2685489655"><ele>0.14</ele><time>2026-09-02T18:12:50Z</time></trkpt><trkpt lat="59.5592880249" lon="31.2685704231"><ele>0.14</ele><time>2026-09-02T18:12:53Z</time></trkpt><trkpt lat="59.5592880249" lon="31.2685704231"><ele>0.14</ele><time>2026-09-02T18:12:55Z</time></trkpt><trkpt lat="59.5593094826" lon="31.2685704231"><ele>0.14</ele><time>2026-09-02T18:12:58Z</time></trkpt><trkpt lat="59.5593094826" lon="31.2685704231"><ele>0.14</ele><time>2026-09-02T18:13:00Z</time></trkpt><trkpt lat="59.5593094826" lon="31.2685704231"><ele>0.14</ele><time>2026-09-02T18:13:03Z</time></trkpt><trkpt lat="59.5593094826" lon="31.2685918808"><ele>0.14</ele><time>2026-09-02T18:13:05Z</time></trkpt><trkpt lat="59.5592880249" lon="31.2685918808"><ele>0.14</ele><time>2026-09-02T18:13:08Z</time></trkpt><trkpt lat="59.5593094826" lon="31.2685704231"><ele>0.14</ele><time>2026-09-02T18:13:10Z</time></trkpt><trkpt lat="59.5593094826" lon="31.2685704231"><ele>0.14</ele><time>2026-09-02T18:13:13Z</time></trkpt><trkpt lat="59.5593094826" lon="31.2685704231"><ele>0.14</ele><time>2026-09-02T18:13:15Z</time></trkpt><trkpt lat="59.5593094826" lon="31.2685704231"><ele>0.14</ele><time>2026-09-02T18:13:18Z</time></trkpt><trkpt lat="59.5593094826" lon="31.2685704231"><ele>0.14</ele><time>2026-09-02T18:13:20Z</time></trkpt><trkpt lat="59.5593094826" lon="31.2685704231"><ele>0.14</ele><time>2026-09-02T18:13:23Z</time></trkpt><trkpt lat="59.5593094826" lon="31.2685704231"><ele>0.14</ele><time>2026-09-02T18:13:25Z</time></trkpt><trkpt lat="59.5593094826" lon="31.2685704231"><ele>0.14</ele><time>2026-09-02T18:13:28Z</time></trkpt><trkpt lat="59.5592880249" lon="31.2685704231"><ele>0.14</ele><time>2026-09-02T18:13:30Z</time></trkpt><trkpt lat="59.5592880249" lon="31.2685704231"><ele>0.14</ele><time>2026-09-02T18:13:33Z</time></trkpt><trkpt lat="59.5592880249" lon="31.2685704231"><ele>0.14</ele><time>2026-09-02T18:13:35Z</time></trkpt><trkpt lat="59.5592880249" lon="31.2685704231"><ele>0.14</ele><time>2026-09-02T18:13:38Z</time></trkpt><trkpt lat="59.5592880249" lon="31.2685704231"><ele>0.14</ele><time>2026-09-02T18:13:40Z</time></trkpt><trkpt lat="59.5592880249" lon="31.2685704231"><ele>0.14</ele><time>2026-09-02T18:13:43Z</time></trkpt><trkpt lat="59.5592880249" lon="31.2685704231"><ele>0.14</ele><time>2026-09-02T18:13:45Z</time></trkpt><trkpt lat="59.5592665672" lon="31.2685704231"><ele>0.14</ele><time>2026-09-02T18:13:48Z</time></trkpt><trkpt lat="59.5592665672" lon="31.2685704231"><ele>0.14</ele><time>2026-09-02T18:13:50Z</time></trkpt><trkpt lat="59.5592665672" lon="31.2685704231"><ele>0.14</ele><time>2026-09-02T18:13:53Z</time></trkpt><trkpt lat="59.5592665672" lon="31.2685704231"><ele>0.14</ele><time>2026-09-02T18:13:55Z</time></trkpt><trkpt lat="59.5592665672" lon="31.2685704231"><ele>0.14</ele><time>2026-09-02T18:13:58Z</time></trkpt><trkpt lat="59.5592665672" lon="31.2685704231"><ele>0.14</ele><time>2026-09-02T18:14:00Z</time></trkpt><trkpt lat="59.5593094826" lon="31.2685918808"><ele>0.14</ele><time>2026-09-02T18:14:03Z</time></trkpt><trkpt lat="59.5593309402" lon="31.2685918808"><ele>0.14</ele><time>2026-09-02T18:14:05Z</time></trkpt><trkpt lat="59.5593738556" lon="31.2685918808"><ele>0.14</ele><time>2026-09-02T18:14:08Z</time></trkpt><trkpt lat="59.5593953133" lon="31.2685918808"><ele>0.14</ele><time>2026-09-02T18:14:10Z</time></trkpt><trkpt lat="59.5593953133" lon="31.2685704231"><ele>0.14</ele><time>2026-09-02T18:14:13Z</time></trkpt><trkpt lat="59.5593953133" lon="31.2685704231"><ele>0.14</ele><time>2026-09-02T18:14:15Z</time></trkpt><trkpt lat="59.5594382286" lon="31.2685918808"><ele>0.14</ele><time>2026-09-02T18:14:18Z</time></trkpt><trkpt lat="59.5594596863" lon="31.2686777115"><ele>0.14</ele><time>2026-09-02T18:14:20Z</time></trkpt><trkpt lat="59.5595026016" lon="31.2687206268"><ele>0.14</ele><time>2026-09-02T18:14:23Z</time></trkpt><trkpt lat="59.5595026016" lon="31.2687635422"><ele>0.14</ele><time>2026-09-02T18:14:25Z</time></trkpt><trkpt lat="59.5595026016" lon="31.2688493729"><ele>0.14</ele><time>2026-09-02T18:14:28Z</time></trkpt><trkpt lat="59.5595240593" lon="31.2689137459"><ele>0.14</ele><time>2026-09-02T18:14:30Z</time></trkpt><trkpt lat="59.5595240593" lon="31.2689566612"><ele>0.14</ele><time>2026-09-02T18:14:33Z</time></trkpt><trkpt lat="59.5595455170" lon="31.2689781189"><ele>0.14</ele><time>2026-09-02T18:14:35Z</time></trkpt><trkpt lat="59.5595455170" lon="31.2689995766"><ele>0.14</ele><time>2026-09-02T18:14:38Z</time></trkpt><trkpt lat="59.5595455170" lon="31.2690424919"><ele>0.14</ele><time>2026-09-02T18:14:40Z</time></trkpt><trkpt lat="59.5595669746" lon="31.2691068649"><ele>0.14</ele><time>2026-09-02T18:14:43Z</time></trkpt><trkpt lat="59.5595884323" lon="31.2691712379"><ele>0.14</ele><time>2026-09-02T18:14:45Z</time></trkpt><trkpt lat="59.5596742630" lon="31.2693214417"><ele>0.14</ele><time>2026-09-02T18:14:48Z</time></trkpt><trkpt lat="59.5597600937" lon="31.2694716454"><ele>0.14</ele><time>2026-09-02T18:14:50Z</time></trkpt><trkpt lat="59.5598244667" lon="31.2696218491"><ele>0.14</ele><time>2026-09-02T18:14:53Z</time></trkpt><trkpt lat="59.5598888397" lon="31.2697505951"><ele>0.14</ele><time>2026-09-02T18:14:55Z</time></trkpt><trkpt lat="59.5599317551" lon="31.2698149681"><ele>0.14</ele><time>2026-09-02T18:14:58Z</time></trkpt><trkpt lat="59.5599746704" lon="31.2698149681"><ele>0.14</ele><time>2026-09-02T18:15:00Z</time></trkpt><trkpt lat="59.5599532127" lon="31.2697935104"><ele>0.14</ele><time>2026-09-02T18:15:03Z</time></trkpt><trkpt lat="59.5599532127" lon="31.2697720528"><ele>0.14</ele><time>2026-09-02T18:15:05Z</time></trkpt><trkpt lat="59.5599746704" lon="31.2697720528"><ele>0.14</ele><time>2026-09-02T18:15:08Z</time></trkpt><trkpt lat="59.5599746704" lon="31.2697935104"><ele>0.14</ele><time>2026-09-02T18:15:10Z</time></trkpt><trkpt lat="59.5599532127" lon="31.2698364258"><ele>0.14</ele><time>2026-09-02T18:15:13Z</time></trkpt><trkpt lat="59.5599102974" lon="31.2699007988"><ele>0.14</ele><time>2026-09-02T18:15:15Z</time></trkpt><trkpt lat="59.5599102974" lon="31.2699007988"><ele>0.14</ele><time>2026-09-02T18:15:18Z</time></trkpt><trkpt lat="59.5598888397" lon="31.2699222565"><ele>0.14</ele><time>2026-09-02T18:15:20Z</time></trkpt><trkpt lat="59.5598888397" lon="31.2699651718"><ele>0.14</ele><time>2026-09-02T18:15:23Z</time></trkpt><trkpt lat="59.5599102974" lon="31.2700080872"><ele>0.14</ele><time>2026-09-02T18:15:25Z</time></trkpt><trkpt lat="59.5599532127" lon="31.2700080872"><ele>0.14</ele><time>2026-09-02T18:15:28Z</time></trkpt><trkpt lat="59.5599961281" lon="31.2700295448"><ele>0.14</ele><time>2026-09-02T18:15:30Z</time></trkpt><trkpt lat="59.5600390434" lon="31.2700510025"><ele>0.14</ele><time>2026-09-02T18:15:33Z</time></trkpt><trkpt lat="59.5600605011" lon="31.2700295448"><ele>0.14</ele><time>2026-09-02T18:15:35Z</time></trkpt><trkpt lat="59.5600819588" lon="31.2700080872"><ele>0.14</ele><time>2026-09-02T18:15:38Z</time></trkpt><trkpt lat="59.5601034164" lon="31.2700295448"><ele>0.14</ele><time>2026-09-02T18:15:40Z</time></trkpt><trkpt lat="59.5601248741" lon="31.2700510025"><ele>0.14</ele><time>2026-09-02T18:15:43Z</time></trkpt><trkpt lat="59.5601248741" lon="31.2700510025"><ele>0.14</ele><time>2026-09-02T18:15:45Z</time></trkpt><trkpt lat="59.5601248741" lon="31.2700510025"><ele>0.14</ele><time>2026-09-02T18:15:48Z</time></trkpt><trkpt lat="59.5601248741" lon="31.2700510025"><ele>0.14</ele><time>2026-09-02T18:15:50Z</time></trkpt><trkpt lat="59.5601463318" lon="31.2700510025"><ele>0.14</ele><time>2026-09-02T18:15:53Z</time></trkpt><trkpt lat="59.5601463318" lon="31.2700295448"><ele>0.14</ele><time>2026-09-02T18:15:55Z</time></trkpt><trkpt lat="59.5601463318" lon="31.2700295448"><ele>0.14</ele><time>2026-09-02T18:15:58Z</time></trkpt><trkpt lat="59.5601463318" lon="31.2700080872"><ele>0.14</ele><time>2026-09-02T18:16:00Z</time></trkpt><trkpt lat="59.5601463318" lon="31.2700080872"><ele>0.14</ele><time>2026-09-02T18:16:03Z</time></trkpt><trkpt lat="59.5601463318" lon="31.2700080872"><ele>0.14</ele><time>2026-09-02T18:16:05Z</time></trkpt><trkpt lat="59.5601463318" lon="31.2700080872"><ele>0.14</ele><time>2026-09-02T18:16:08Z</time></trkpt><trkpt lat="59.5601463318" lon="31.2700080872"><ele>0.14</ele><time>2026-09-02T18:16:10Z</time></trkpt><trkpt lat="59.5601463318" lon="31.2700080872"><ele>0.14</ele><time>2026-09-02T18:16:13Z</time></trkpt><trkpt lat="59.5601463318" lon="31.2700080872"><ele>0.14</ele><time>2026-09-02T18:16:15Z</time></trkpt><trkpt lat="59.5601463318" lon="31.2700080872"><ele>0.14</ele><time>2026-09-02T18:16:18Z</time></trkpt><trkpt lat="59.5601463318" lon="31.2700080872"><ele>0.14</ele><time>2026-09-02T18:16:20Z</time></trkpt><trkpt lat="59.5601463318" lon="31.2700080872"><ele>0.14</ele><time>2026-09-02T18:16:23Z</time></trkpt><trkpt lat="59.5601034164" lon="31.2699866295"><ele>0.14</ele><time>2026-09-02T18:16:25Z</time></trkpt><trkpt lat="59.5600819588" lon="31.2699437141"><ele>0.14</ele><time>2026-09-02T18:16:28Z</time></trkpt><trkpt lat="59.5600605011" lon="31.2699437141"><ele>0.14</ele><time>2026-09-02T18:16:30Z</time></trkpt><trkpt lat="59.5600175858" lon="31.2699651718"><ele>0.14</ele><time>2026-09-02T18:16:33Z</time></trkpt><trkpt lat="59.5600175858" lon="31.2699651718"><ele>0.14</ele><time>2026-09-02T18:16:35Z</time></trkpt><trkpt lat="59.5600175858" lon="31.2699651718"><ele>0.14</ele><time>2026-09-02T18:16:38Z</time></trkpt><trkpt lat="59.5600390434" lon="31.2699866295"><ele>0.14</ele><time>2026-09-02T18:16:40Z</time></trkpt><trkpt lat="59.5600390434" lon="31.2699866295"><ele>0.14</ele><time>2026-09-02T18:16:43Z</time></trkpt><trkpt lat="59.5600390434" lon="31.2699866295"><ele>0.14</ele><time>2026-09-02T18:16:45Z</time></trkpt><trkpt lat="59.5600605011" lon="31.2699651718"><ele>0.14</ele><time>2026-09-02T18:16:48Z</time></trkpt><trkpt lat="59.5600605011" lon="31.2699651718"><ele>0.14</ele><time>2026-09-02T18:16:50Z</time></trkpt><trkpt lat="59.5600605011" lon="31.2699651718"><ele>0.14</ele><time>2026-09-02T18:16:53Z</time></trkpt><trkpt lat="59.5600605011" lon="31.2699651718"><ele>0.14</ele><time>2026-09-02T18:16:55Z</time></trkpt><trkpt lat="59.5600605011" lon="31.2699651718"><ele>0.14</ele><time>2026-09-02T18:16:58Z</time></trkpt><trkpt lat="59.5600605011" lon="31.2699651718"><ele>0.14</ele><time>2026-09-02T18:17:00Z</time></trkpt><trkpt lat="59.5600605011" lon="31.2699651718"><ele>0.14</ele><time>2026-09-02T18:17:03Z</time></trkpt><trkpt lat="59.5600605011" lon="31.2699651718"><ele>0.14</ele><time>2026-09-02T18:17:05Z</time></trkpt><trkpt lat="59.5600605011" lon="31.2699651718"><ele>0.14</ele><time>2026-09-02T18:17:08Z</time></trkpt><trkpt lat="59.5600605011" lon="31.2699651718"><ele>0.14</ele><time>2026-09-02T18:17:10Z</time></trkpt><trkpt lat="59.5600605011" lon="31.2699866295"><ele>0.14</ele><time>2026-09-02T18:17:13Z</time></trkpt><trkpt lat="59.5600605011" lon="31.2699866295"><ele>0.14</ele><time>2026-09-02T18:17:15Z</time></trkpt><trkpt lat="59.5600605011" lon="31.2699866295"><ele>0.14</ele><time>2026-09-02T18:17:18Z</time></trkpt><trkpt lat="59.5600390434" lon="31.2700080872"><ele>0.14</ele><time>2026-09-02T18:17:20Z</time></trkpt><trkpt lat="59.5600390434" lon="31.2700724602"><ele>0.14</ele><time>2026-09-02T18:17:23Z</time></trkpt><trkpt lat="59.5600175858" lon="31.2701368332"><ele>0.14</ele><time>2026-09-02T18:17:25Z</time></trkpt><trkpt lat="59.5600175858" lon="31.2701582909"><ele>0.14</ele><time>2026-09-02T18:17:28Z</time></trkpt><trkpt lat="59.5600390434" lon="31.2702226639"><ele>0.14</ele><time>2026-09-02T18:17:30Z</time></trkpt><trkpt lat="59.5600390434" lon="31.2702655792"><ele>0.14</ele><time>2026-09-02T18:17:33Z</time></trkpt><trkpt lat="59.5600390434" lon="31.2703084946"><ele>0.14</ele><time>2026-09-02T18:17:35Z</time></trkpt><trkpt lat="59.5600605011" lon="31.2703084946"><ele>0.14</ele><time>2026-09-02T18:17:38Z</time></trkpt><trkpt lat="59.5600605011" lon="31.2702870369"><ele>0.14</ele><time>2026-09-02T18:17:40Z</time></trkpt><trkpt lat="59.5600605011" lon="31.2702870369"><ele>0.14</ele><time>2026-09-02T18:17:43Z</time></trkpt><trkpt lat="59.5600819588" lon="31.2703299522"><ele>0.14</ele><time>2026-09-02T18:17:45Z</time></trkpt><trkpt lat="59.5600605011" lon="31.2704157829"><ele>0.14</ele><time>2026-09-02T18:17:48Z</time></trkpt><trkpt lat="59.5600605011" lon="31.2705016136"><ele>0.14</ele><time>2026-09-02T18:17:50Z</time></trkpt><trkpt lat="59.5600819588" lon="31.2706518173"><ele>0.14</ele><time>2026-09-02T18:17:53Z</time></trkpt><trkpt lat="59.5600819588" lon="31.2708234787"><ele>0.14</ele><time>2026-09-02T18:17:55Z</time></trkpt><trkpt lat="59.5600605011" lon="31.2708878517"><ele>0.14</ele><time>2026-09-02T18:17:58Z</time></trkpt><trkpt lat="59.5600605011" lon="31.2709307671"><ele>0.14</ele><time>2026-09-02T18:18:00Z</time></trkpt><trkpt lat="59.5600819588" lon="31.2709736824"><ele>0.14</ele><time>2026-09-02T18:18:03Z</time></trkpt><trkpt lat="59.5600819588" lon="31.2709951401"><ele>0.14</ele><time>2026-09-02T18:18:05Z</time></trkpt><trkpt lat="59.5600605011" lon="31.2709951401"><ele>0.14</ele><time>2026-09-02T18:18:08Z</time></trkpt><trkpt lat="59.5600605011" lon="31.2709736824"><ele>0.14</ele><time>2026-09-02T18:18:10Z</time></trkpt><trkpt lat="59.5600390434" lon="31.2709307671"><ele>0.14</ele><time>2026-09-02T18:18:13Z</time></trkpt><trkpt lat="59.5599961281" lon="31.2709093094"><ele>0.14</ele><time>2026-09-02T18:18:15Z</time></trkpt><trkpt lat="59.5599961281" lon="31.2709522247"><ele>0.14</ele><time>2026-09-02T18:18:18Z</time></trkpt><trkpt lat="59.5599746704" lon="31.2709951401"><ele>0.14</ele><time>2026-09-02T18:18:20Z</time></trkpt><trkpt lat="59.5599746704" lon="31.2709951401"><ele>0.14</ele><time>2026-09-02T18:18:23Z</time></trkpt><trkpt lat="59.5599532127" lon="31.2710165977"><ele>0.14</ele><time>2026-09-02T18:18:25Z</time></trkpt><trkpt lat="59.5599317551" lon="31.2709951401"><ele>0.14</ele><time>2026-09-02T18:18:28Z</time></trkpt><trkpt lat="59.5598888397" lon="31.2709522247"><ele>0.14</ele><time>2026-09-02T18:18:30Z</time></trkpt><trkpt lat="59.5598244667" lon="31.2709093094"><ele>0.14</ele><time>2026-09-02T18:18:33Z</time></trkpt><trkpt lat="59.5598030090" lon="31.2709307671"><ele>0.14</ele><time>2026-09-02T18:18:35Z</time></trkpt><trkpt lat="59.5597815514" lon="31.2709522247"><ele>0.14</ele><time>2026-09-02T18:18:38Z</time></trkpt><trkpt lat="59.5597815514" lon="31.2709522247"><ele>0.14</ele><time>2026-09-02T18:18:40Z</time></trkpt><trkpt lat="59.5597600937" lon="31.2709736824"><ele>0.14</ele><time>2026-09-02T18:18:43Z</time></trkpt><trkpt lat="59.5597600937" lon="31.2709736824"><ele>0.14</ele><time>2026-09-02T18:18:45Z</time></trkpt><trkpt lat="59.5597600937" lon="31.2710165977"><ele>0.14</ele><time>2026-09-02T18:18:48Z</time></trkpt><trkpt lat="59.5597600937" lon="31.2710380554"><ele>0.14</ele><time>2026-09-02T18:18:50Z</time></trkpt><trkpt lat="59.5597815514" lon="31.2710595131"><ele>0.14</ele><time>2026-09-02T18:18:53Z</time></trkpt><trkpt lat="59.5597600937" lon="31.2710380554"><ele>0.14</ele><time>2026-09-02T18:18:55Z</time></trkpt><trkpt lat="59.5597600937" lon="31.2710165977"><ele>0.14</ele><time>2026-09-02T18:18:58Z</time></trkpt><trkpt lat="59.5597386360" lon="31.2709093094"><ele>0.14</ele><time>2026-09-02T18:19:00Z</time></trkpt><trkpt lat="59.5597386360" lon="31.2708234787"><ele>0.14</ele><time>2026-09-02T18:19:03Z</time></trkpt><trkpt lat="59.5597171783" lon="31.2708449364"><ele>0.14</ele><time>2026-09-02T18:19:05Z</time></trkpt><trkpt lat="59.5596957207" lon="31.2708449364"><ele>0.14</ele><time>2026-09-02T18:19:08Z</time></trkpt><trkpt lat="59.5596957207" lon="31.2708449364"><ele>0.14</ele><time>2026-09-02T18:19:10Z</time></trkpt><trkpt lat="59.5596957207" lon="31.2708449364"><ele>0.14</ele><time>2026-09-02T18:19:13Z</time></trkpt><trkpt lat="59.5596957207" lon="31.2708449364"><ele>0.14</ele><time>2026-09-02T18:19:15Z</time></trkpt><trkpt lat="59.5596957207" lon="31.2708234787"><ele>0.14</ele><time>2026-09-02T18:19:18Z</time></trkpt><trkpt lat="59.5597171783" lon="31.2708234787"><ele>0.14</ele><time>2026-09-02T18:19:20Z</time></trkpt><trkpt lat="59.5597386360" lon="31.2708234787"><ele>0.14</ele><time>2026-09-02T18:19:23Z</time></trkpt><trkpt lat="59.5597386360" lon="31.2708020210"><ele>0.14</ele><time>2026-09-02T18:19:25Z</time></trkpt><trkpt lat="59.5597386360" lon="31.2708020210"><ele>0.14</ele><time>2026-09-02T18:19:28Z</time></trkpt><trkpt lat="59.5597386360" lon="31.2708020210"><ele>0.14</ele><time>2026-09-02T18:19:30Z</time></trkpt><trkpt lat="59.5597386360" lon="31.2708234787"><ele>0.14</ele><time>2026-09-02T18:19:33Z</time></trkpt><trkpt lat="59.5597171783" lon="31.2708449364"><ele>0.14</ele><time>2026-09-02T18:19:35Z</time></trkpt><trkpt lat="59.5597171783" lon="31.2708234787"><ele>0.14</ele><time>2026-09-02T18:19:38Z</time></trkpt><trkpt lat="59.5597171783" lon="31.2708234787"><ele>0.14</ele><time>2026-09-02T18:19:40Z</time></trkpt><trkpt lat="59.5597171783" lon="31.2708234787"><ele>0.14</ele><time>2026-09-02T18:19:43Z</time></trkpt><trkpt lat="59.5597171783" lon="31.2708234787"><ele>0.14</ele><time>2026-09-02T18:19:45Z</time></trkpt><trkpt lat="59.5597171783" lon="31.2708234787"><ele>0.14</ele><time>2026-09-02T18:19:48Z</time></trkpt><trkpt lat="59.5597171783" lon="31.2708234787"><ele>0.14</ele><time>2026-09-02T18:19:50Z</time></trkpt><trkpt lat="59.5597171783" lon="31.2708234787"><ele>0.14</ele><time>2026-09-02T18:19:53Z</time></trkpt><trkpt lat="59.5597171783" lon="31.2708234787"><ele>0.14</ele><time>2026-09-02T18:19:55Z</time></trkpt><trkpt lat="59.5597171783" lon="31.2708234787"><ele>0.14</ele><time>2026-09-02T18:19:58Z</time></trkpt><trkpt lat="59.5597171783" lon="31.2708234787"><ele>0.14</ele><time>2026-09-02T18:20:00Z</time></trkpt><trkpt lat="59.5597171783" lon="31.2708234787"><ele>0.14</ele><time>2026-09-02T18:20:03Z</time></trkpt><trkpt lat="59.5597171783" lon="31.2708234787"><ele>0.14</ele><time>2026-09-02T18:20:05Z</time></trkpt><trkpt lat="59.5597171783" lon="31.2708234787"><ele>0.14</ele><time>2026-09-02T18:20:08Z</time></trkpt><trkpt lat="59.5597171783" lon="31.2708234787"><ele>0.14</ele><time>2026-09-02T18:20:10Z</time></trkpt><trkpt lat="59.5597171783" lon="31.2708234787"><ele>0.14</ele><time>2026-09-02T18:20:13Z</time></trkpt><trkpt lat="59.5597171783" lon="31.2708234787"><ele>0.14</ele><time>2026-09-02T18:20:15Z</time></trkpt><trkpt lat="59.5597171783" lon="31.2708234787"><ele>0.14</ele><time>2026-09-02T18:20:18Z</time></trkpt><trkpt lat="59.5597171783" lon="31.2708234787"><ele>0.14</ele><time>2026-09-02T18:20:20Z</time></trkpt><trkpt lat="59.5597171783" lon="31.2708234787"><ele>0.14</ele><time>2026-09-02T18:20:23Z</time></trkpt><trkpt lat="59.5597171783" lon="31.2708234787"><ele>0.14</ele><time>2026-09-02T18:20:25Z</time></trkpt><trkpt lat="59.5597171783" lon="31.2708234787"><ele>0.14</ele><time>2026-09-02T18:20:28Z</time></trkpt><trkpt lat="59.5597171783" lon="31.2708234787"><ele>0.14</ele><time>2026-09-02T18:20:30Z</time></trkpt><trkpt lat="59.5597171783" lon="31.2708234787"><ele>0.14</ele><time>2026-09-02T18:20:33Z</time></trkpt><trkpt lat="59.5597171783" lon="31.2708234787"><ele>0.14</ele><time>2026-09-02T18:20:35Z</time></trkpt><trkpt lat="59.5597171783" lon="31.2708234787"><ele>0.14</ele><time>2026-09-02T18:20:38Z</time></trkpt><trkpt lat="59.5597171783" lon="31.2708234787"><ele>0.14</ele><time>2026-09-02T18:20:40Z</time></trkpt><trkpt lat="59.5597171783" lon="31.2708234787"><ele>0.14</ele><time>2026-09-02T18:20:43Z</time></trkpt><trkpt lat="59.5597171783" lon="31.2708234787"><ele>0.14</ele><time>2026-09-02T18:20:45Z</time></trkpt><trkpt lat="59.5597171783" lon="31.2708234787"><ele>0.14</ele><time>2026-09-02T18:20:48Z</time></trkpt><trkpt lat="59.5597171783" lon="31.2708234787"><ele>0.14</ele><time>2026-09-02T18:20:50Z</time></trkpt><trkpt lat="59.5597171783" lon="31.2708234787"><ele>0.14</ele><time>2026-09-02T18:20:53Z</time></trkpt><trkpt lat="59.5597171783" lon="31.2708234787"><ele>0.14</ele><time>2026-09-02T18:20:55Z</time></trkpt><trkpt lat="59.5597171783" lon="31.2708234787"><ele>0.14</ele><time>2026-09-02T18:20:58Z</time></trkpt><trkpt lat="59.5597171783" lon="31.2708234787"><ele>0.14</ele><time>2026-09-02T18:21:00Z</time></trkpt><trkpt lat="59.5597171783" lon="31.2708234787"><ele>0.14</ele><time>2026-09-02T18:21:03Z</time></trkpt><trkpt lat="59.5597171783" lon="31.2708234787"><ele>0.14</ele><time>2026-09-02T18:21:05Z</time></trkpt><trkpt lat="59.5597171783" lon="31.2708234787"><ele>0.14</ele><time>2026-09-02T18:21:08Z</time></trkpt><trkpt lat="59.5597171783" lon="31.2708234787"><ele>0.14</ele><time>2026-09-02T18:21:10Z</time></trkpt><trkpt lat="59.5597171783" lon="31.2708234787"><ele>0.14</ele><time>2026-09-02T18:21:13Z</time></trkpt><trkpt lat="59.5597171783" lon="31.2708234787"><ele>0.14</ele><time>2026-09-02T18:21:15Z</time></trkpt><trkpt lat="59.5597171783" lon="31.2708234787"><ele>0.14</ele><time>2026-09-02T18:21:18Z</time></trkpt><trkpt lat="59.5597171783" lon="31.2708234787"><ele>0.14</ele><time>2026-09-02T18:21:20Z</time></trkpt><trkpt lat="59.5597171783" lon="31.2708234787"><ele>0.14</ele><time>2026-09-02T18:21:23Z</time></trkpt><trkpt lat="59.5597171783" lon="31.2708234787"><ele>0.14</ele><time>2026-09-02T18:21:25Z</time></trkpt><trkpt lat="59.5597171783" lon="31.2708234787"><ele>0.14</ele><time>2026-09-02T18:21:28Z</time></trkpt><trkpt lat="59.5597171783" lon="31.2708234787"><ele>0.14</ele><time>2026-09-02T18:21:30Z</time></trkpt><trkpt lat="59.5597171783" lon="31.2708234787"><ele>0.14</ele><time>2026-09-02T18:21:33Z</time></trkpt><trkpt lat="59.5597171783" lon="31.2708234787"><ele>0.14</ele><time>2026-09-02T18:21:35Z</time></trkpt><trkpt lat="59.5597171783" lon="31.2708234787"><ele>0.14</ele><time>2026-09-02T18:21:38Z</time></trkpt><trkpt lat="59.5597171783" lon="31.2708234787"><ele>0.14</ele><time>2026-09-02T18:21:40Z</time></trkpt><trkpt lat="59.5597171783" lon="31.2708234787"><ele>0.14</ele><time>2026-09-02T18:21:43Z</time></trkpt><trkpt lat="59.5597171783" lon="31.2708234787"><ele>0.14</ele><time>2026-09-02T18:21:45Z</time></trkpt><trkpt lat="59.5597171783" lon="31.2708234787"><ele>0.14</ele><time>2026-09-02T18:21:48Z</time></trkpt><trkpt lat="59.5597171783" lon="31.2708234787"><ele>0.14</ele><time>2026-09-02T18:21:50Z</time></trkpt><trkpt lat="59.5597171783" lon="31.2708234787"><ele>0.14</ele><time>2026-09-02T18:21:53Z</time></trkpt><trkpt lat="59.5596957207" lon="31.2708234787"><ele>0.14</ele><time>2026-09-02T18:21:55Z</time></trkpt><trkpt lat="59.5596957207" lon="31.2708234787"><ele>0.14</ele><time>2026-09-02T18:21:58Z</time></trkpt><trkpt lat="59.5596957207" lon="31.2708234787"><ele>0.14</ele><time>2026-09-02T18:22:00Z</time></trkpt><trkpt lat="59.5596957207" lon="31.2708234787"><ele>0.14</ele><time>2026-09-02T18:22:03Z</time></trkpt><trkpt lat="59.5596957207" lon="31.2708234787"><ele>0.14</ele><time>2026-09-02T18:22:05Z</time></trkpt><trkpt lat="59.5596957207" lon="31.2708234787"><ele>0.14</ele><time>2026-09-02T18:22:08Z</time></trkpt><trkpt lat="59.5596957207" lon="31.2708234787"><ele>0.14</ele><time>2026-09-02T18:22:10Z</time></trkpt><trkpt lat="59.5596957207" lon="31.2708234787"><ele>0.14</ele><time>2026-09-02T18:22:13Z</time></trkpt><trkpt lat="59.5596957207" lon="31.2708234787"><ele>0.14</ele><time>2026-09-02T18:22:15Z</time></trkpt><trkpt lat="59.5596957207" lon="31.2708234787"><ele>0.14</ele><time>2026-09-02T18:22:18Z</time></trkpt><trkpt lat="59.5596957207" lon="31.2708234787"><ele>0.14</ele><time>2026-09-02T18:22:20Z</time></trkpt><trkpt lat="59.5596957207" lon="31.2708234787"><ele>0.14</ele><time>2026-09-02T18:22:23Z</time></trkpt><trkpt lat="59.5596957207" lon="31.2708234787"><ele>0.14</ele><time>2026-09-02T18:22:25Z</time></trkpt><trkpt lat="59.5596957207" lon="31.2708234787"><ele>0.14</ele><time>2026-09-02T18:22:28Z</time></trkpt><trkpt lat="59.5596957207" lon="31.2708234787"><ele>0.14</ele><time>2026-09-02T18:22:30Z</time></trkpt><trkpt lat="59.5596957207" lon="31.2708234787"><ele>0.14</ele><time>2026-09-02T18:22:33Z</time></trkpt><trkpt lat="59.5596957207" lon="31.2708234787"><ele>0.14</ele><time>2026-09-02T18:22:35Z</time></trkpt><trkpt lat="59.5596957207" lon="31.2708234787"><ele>0.14</ele><time>2026-09-02T18:22:38Z</time></trkpt><trkpt lat="59.5596957207" lon="31.2708234787"><ele>0.14</ele><time>2026-09-02T18:22:40Z</time></trkpt><trkpt lat="59.5596957207" lon="31.2708234787"><ele>0.14</ele><time>2026-09-02T18:22:43Z</time></trkpt><trkpt lat="59.5596957207" lon="31.2708234787"><ele>0.14</ele><time>2026-09-02T18:22:45Z</time></trkpt><trkpt lat="59.5596957207" lon="31.2708234787"><ele>0.14</ele><time>2026-09-02T18:22:48Z</time></trkpt><trkpt lat="59.5596957207" lon="31.2708449364"><ele>0.14</ele><time>2026-09-02T18:22:50Z</time></trkpt><trkpt lat="59.5596957207" lon="31.2708449364"><ele>0.14</ele><time>2026-09-02T18:22:53Z</time></trkpt><trkpt lat="59.5596957207" lon="31.2708449364"><ele>0.14</ele><time>2026-09-02T18:22:55Z</time></trkpt><trkpt lat="59.5596957207" lon="31.2708449364"><ele>0.14</ele><time>2026-09-02T18:22:58Z</time></trkpt><trkpt lat="59.5596957207" lon="31.2708449364"><ele>0.14</ele><time>2026-09-02T18:23:00Z</time></trkpt><trkpt lat="59.5596957207" lon="31.2708449364"><ele>0.14</ele><time>2026-09-02T18:23:03Z</time></trkpt><trkpt lat="59.5596957207" lon="31.2708449364"><ele>0.14</ele><time>2026-09-02T18:23:05Z</time></trkpt><trkpt lat="59.5596957207" lon="31.2708449364"><ele>0.14</ele><time>2026-09-02T18:23:08Z</time></trkpt><trkpt lat="59.5596957207" lon="31.2708449364"><ele>0.14</ele><time>2026-09-02T18:23:10Z</time></trkpt><trkpt lat="59.5596957207" lon="31.2708449364"><ele>0.14</ele><time>2026-09-02T18:23:13Z</time></trkpt><trkpt lat="59.5596957207" lon="31.2708449364"><ele>0.14</ele><time>2026-09-02T18:23:15Z</time></trkpt><trkpt lat="59.5596957207" lon="31.2708449364"><ele>0.14</ele><time>2026-09-02T18:23:18Z</time></trkpt><trkpt lat="59.5596957207" lon="31.2708449364"><ele>0.14</ele><time>2026-09-02T18:23:20Z</time></trkpt><trkpt lat="59.5596957207" lon="31.2708449364"><ele>0.14</ele><time>2026-09-02T18:23:23Z</time></trkpt><trkpt lat="59.5596957207" lon="31.2708449364"><ele>0.14</ele><time>2026-09-02T18:23:25Z</time></trkpt><trkpt lat="59.5597171783" lon="31.2708449364"><ele>0.14</ele><time>2026-09-02T18:23:28Z</time></trkpt><trkpt lat="59.5597171783" lon="31.2708449364"><ele>0.14</ele><time>2026-09-02T18:23:30Z</time></trkpt><trkpt lat="59.5597171783" lon="31.2708449364"><ele>0.14</ele><time>2026-09-02T18:23:33Z</time></trkpt><trkpt lat="59.5597171783" lon="31.2708449364"><ele>0.14</ele><time>2026-09-02T18:23:35Z</time></trkpt><trkpt lat="59.5597171783" lon="31.2708449364"><ele>0.14</ele><time>2026-09-02T18:23:38Z</time></trkpt><trkpt lat="59.5597171783" lon="31.2708449364"><ele>0.14</ele><time>2026-09-02T18:23:40Z</time></trkpt><trkpt lat="59.5597171783" lon="31.2708449364"><ele>0.14</ele><time>2026-09-02T18:23:43Z</time></trkpt><trkpt lat="59.5597171783" lon="31.2708449364"><ele>0.14</ele><time>2026-09-02T18:23:45Z</time></trkpt><trkpt lat="59.5597171783" lon="31.2708449364"><ele>0.14</ele><time>2026-09-02T18:23:48Z</time></trkpt><trkpt lat="59.5597171783" lon="31.2708449364"><ele>0.14</ele><time>2026-09-02T18:23:50Z</time></trkpt><trkpt lat="59.5597171783" lon="31.2708449364"><ele>0.14</ele><time>2026-09-02T18:23:53Z</time></trkpt><trkpt lat="59.5597171783" lon="31.2708449364"><ele>0.14</ele><time>2026-09-02T18:23:55Z</time></trkpt><trkpt lat="59.5597171783" lon="31.2708449364"><ele>0.14</ele><time>2026-09-02T18:23:58Z</time></trkpt><trkpt lat="59.5597171783" lon="31.2708449364"><ele>0.14</ele><time>2026-09-02T18:24:00Z</time></trkpt><trkpt lat="59.5597171783" lon="31.2708449364"><ele>0.14</ele><time>2026-09-02T18:24:03Z</time></trkpt><trkpt lat="59.5597171783" lon="31.2708449364"><ele>0.14</ele><time>2026-09-02T18:24:05Z</time></trkpt><trkpt lat="59.5597171783" lon="31.2708449364"><ele>0.14</ele><time>2026-09-02T18:24:08Z</time></trkpt><trkpt lat="59.5597171783" lon="31.2708449364"><ele>0.14</ele><time>2026-09-02T18:24:10Z</time></trkpt><trkpt lat="59.5597171783" lon="31.2708449364"><ele>0.14</ele><time>2026-09-02T18:24:13Z</time></trkpt><trkpt lat="59.5597171783" lon="31.2708449364"><ele>0.14</ele><time>2026-09-02T18:24:15Z</time></trkpt><trkpt lat="59.5597171783" lon="31.2708449364"><ele>0.14</ele><time>2026-09-02T18:24:18Z</time></trkpt><trkpt lat="59.5597171783" lon="31.2708449364"><ele>0.14</ele><time>2026-09-02T18:24:20Z</time></trkpt><trkpt lat="59.5597171783" lon="31.2708449364"><ele>0.14</ele><time>2026-09-02T18:24:23Z</time></trkpt><trkpt lat="59.5597171783" lon="31.2708449364"><ele>0.14</ele><time>2026-09-02T18:24:25Z</time></trkpt><trkpt lat="59.5597171783" lon="31.2708449364"><ele>0.14</ele><time>2026-09-02T18:24:28Z</time></trkpt><trkpt lat="59.5597171783" lon="31.2708449364"><ele>0.14</ele><time>2026-09-02T18:24:30Z</time></trkpt><trkpt lat="59.5597171783" lon="31.2708449364"><ele>0.14</ele><time>2026-09-02T18:24:33Z</time></trkpt><trkpt lat="59.5597171783" lon="31.2708449364"><ele>0.14</ele><time>2026-09-02T18:24:35Z</time></trkpt><trkpt lat="59.5597171783" lon="31.2708449364"><ele>0.14</ele><time>2026-09-02T18:24:38Z</time></trkpt><trkpt lat="59.5597171783" lon="31.2708449364"><ele>0.14</ele><time>2026-09-02T18:24:40Z</time></trkpt><trkpt lat="59.5597171783" lon="31.2708449364"><ele>0.14</ele><time>2026-09-02T18:24:43Z</time></trkpt><trkpt lat="59.5597171783" lon="31.2708449364"><ele>0.14</ele><time>2026-09-02T18:24:45Z</time></trkpt><trkpt lat="59.5597171783" lon="31.2708449364"><ele>0.14</ele><time>2026-09-02T18:24:48Z</time></trkpt><trkpt lat="59.5597171783" lon="31.2708449364"><ele>0.14</ele><time>2026-09-02T18:24:50Z</time></trkpt><trkpt lat="59.5597386360" lon="31.2708020210"><ele>0.14</ele><time>2026-09-02T18:24:53Z</time></trkpt><trkpt lat="59.5597600937" lon="31.2707805634"><ele>0.14</ele><time>2026-09-02T18:24:55Z</time></trkpt><trkpt lat="59.5598030090" lon="31.2707161903"><ele>0.14</ele><time>2026-09-02T18:24:58Z</time></trkpt><trkpt lat="59.5598244667" lon="31.2706518173"><ele>0.14</ele><time>2026-09-02T18:25:00Z</time></trkpt><trkpt lat="59.5598030090" lon="31.2706303596"><ele>0.14</ele><time>2026-09-02T18:25:03Z</time></trkpt><trkpt lat="59.5598030090" lon="31.2706089020"><ele>0.14</ele><time>2026-09-02T18:25:05Z</time></trkpt><trkpt lat="59.5598459244" lon="31.2705659866"><ele>0.14</ele><time>2026-09-02T18:25:08Z</time></trkpt><trkpt lat="59.5598459244" lon="31.2705445290"><ele>0.14</ele><time>2026-09-02T18:25:10Z</time></trkpt><trkpt lat="59.5598459244" lon="31.2705016136"><ele>0.14</ele><time>2026-09-02T18:25:13Z</time></trkpt><trkpt lat="59.5598673820" lon="31.2704801559"><ele>0.14</ele><time>2026-09-02T18:25:15Z</time></trkpt><trkpt lat="59.5598673820" lon="31.2704586983"><ele>0.14</ele><time>2026-09-02T18:25:18Z</time></trkpt><trkpt lat="59.5598673820" lon="31.2704372406"><ele>0.14</ele><time>2026-09-02T18:25:20Z</time></trkpt><trkpt lat="59.5598888397" lon="31.2704157829"><ele>0.14</ele><time>2026-09-02T18:25:23Z</time></trkpt><trkpt lat="59.5598888397" lon="31.2703728676"><ele>0.14</ele><time>2026-09-02T18:25:25Z</time></trkpt><trkpt lat="59.5598888397" lon="31.2703728676"><ele>0.14</ele><time>2026-09-02T18:25:28Z</time></trkpt><trkpt lat="59.5598888397" lon="31.2703728676"><ele>0.14</ele><time>2026-09-02T18:25:30Z</time></trkpt><trkpt lat="59.5599102974" lon="31.2703514099"><ele>0.14</ele><time>2026-09-02T18:25:33Z</time></trkpt><trkpt lat="59.5599317551" lon="31.2703084946"><ele>0.14</ele><time>2026-09-02T18:25:35Z</time></trkpt><trkpt lat="59.5599317551" lon="31.2702655792"><ele>0.14</ele><time>2026-09-02T18:25:38Z</time></trkpt><trkpt lat="59.5599532127" lon="31.2702226639"><ele>0.14</ele><time>2026-09-02T18:25:40Z</time></trkpt><trkpt lat="59.5599746704" lon="31.2701797485"><ele>0.14</ele><time>2026-09-02T18:25:43Z</time></trkpt><trkpt lat="59.5599746704" lon="31.2701368332"><ele>0.14</ele><time>2026-09-02T18:25:45Z</time></trkpt><trkpt lat="59.5599102974" lon="31.2700724602"><ele>0.14</ele><time>2026-09-02T18:25:48Z</time></trkpt><trkpt lat="59.5598888397" lon="31.2700295448"><ele>0.14</ele><time>2026-09-02T18:25:50Z</time></trkpt><trkpt lat="59.5599102974" lon="31.2700510025"><ele>0.14</ele><time>2026-09-02T18:25:53Z</time></trkpt><trkpt lat="59.5599961281" lon="31.2700724602"><ele>0.14</ele><time>2026-09-02T18:25:55Z</time></trkpt><trkpt lat="59.5600605011" lon="31.2700510025"><ele>0.14</ele><time>2026-09-02T18:25:58Z</time></trkpt><trkpt lat="59.5600819588" lon="31.2700080872"><ele>0.14</ele><time>2026-09-02T18:26:00Z</time></trkpt><trkpt lat="59.5600605011" lon="31.2699866295"><ele>0.14</ele><time>2026-09-02T18:26:03Z</time></trkpt><trkpt lat="59.5600605011" lon="31.2699651718"><ele>0.14</ele><time>2026-09-02T18:26:05Z</time></trkpt><trkpt lat="59.5600605011" lon="31.2699651718"><ele>0.14</ele><time>2026-09-02T18:26:08Z</time></trkpt><trkpt lat="59.5600819588" lon="31.2699651718"><ele>0.14</ele><time>2026-09-02T18:26:10Z</time></trkpt><trkpt lat="59.5601034164" lon="31.2699651718"><ele>0.14</ele><time>2026-09-02T18:26:13Z</time></trkpt><trkpt lat="59.5601677895" lon="31.2699437141"><ele>0.14</ele><time>2026-09-02T18:26:15Z</time></trkpt><trkpt lat="59.5602107048" lon="31.2699222565"><ele>0.14</ele><time>2026-09-02T18:26:18Z</time></trkpt><trkpt lat="59.5602107048" lon="31.2698793411"><ele>0.14</ele><time>2026-09-02T18:26:20Z</time></trkpt><trkpt lat="59.5602321625" lon="31.2698578835"><ele>0.14</ele><time>2026-09-02T18:26:23Z</time></trkpt><trkpt lat="59.5602750778" lon="31.2698149681"><ele>0.14</ele><time>2026-09-02T18:26:25Z</time></trkpt><trkpt lat="59.5602965355" lon="31.2698578835"><ele>0.14</ele><time>2026-09-02T18:26:28Z</time></trkpt><trkpt lat="59.5603179932" lon="31.2699007988"><ele>0.14</ele><time>2026-09-02T18:26:30Z</time></trkpt><trkpt lat="59.5603609085" lon="31.2699007988"><ele>0.14</ele><time>2026-09-02T18:26:33Z</time></trkpt><trkpt lat="59.5604038239" lon="31.2698578835"><ele>0.14</ele><time>2026-09-02T18:26:35Z</time></trkpt><trkpt lat="59.5604252815" lon="31.2697720528"><ele>0.14</ele><time>2026-09-02T18:26:38Z</time></trkpt><trkpt lat="59.5604252815" lon="31.2697505951"><ele>0.14</ele><time>2026-09-02T18:26:40Z</time></trkpt><trkpt lat="59.5604681969" lon="31.2696862221"><ele>0.14</ele><time>2026-09-02T18:26:43Z</time></trkpt><trkpt lat="59.5604896545" lon="31.2696433067"><ele>0.14</ele><time>2026-09-02T18:26:45Z</time></trkpt><trkpt lat="59.5604681969" lon="31.2696218491"><ele>0.14</ele><time>2026-09-02T18:26:48Z</time></trkpt><trkpt lat="59.5604681969" lon="31.2696218491"><ele>0.14</ele><time>2026-09-02T18:26:50Z</time></trkpt><trkpt lat="59.5604896545" lon="31.2695789337"><ele>0.14</ele><time>2026-09-02T18:26:53Z</time></trkpt><trkpt lat="59.5604681969" lon="31.2695574760"><ele>0.14</ele><time>2026-09-02T18:26:55Z</time></trkpt><trkpt lat="59.5604681969" lon="31.2694501877"><ele>0.14</ele><time>2026-09-02T18:26:58Z</time></trkpt><trkpt lat="59.5604467392" lon="31.2693643570"><ele>0.14</ele><time>2026-09-02T18:27:00Z</time></trkpt><trkpt lat="59.5604252815" lon="31.2692570686"><ele>0.14</ele><time>2026-09-02T18:27:03Z</time></trkpt><trkpt lat="59.5604681969" lon="31.2692141533"><ele>0.14</ele><time>2026-09-02T18:27:05Z</time></trkpt><trkpt lat="59.5605111122" lon="31.2692570686"><ele>0.14</ele><time>2026-09-02T18:27:08Z</time></trkpt><trkpt lat="59.5605111122" lon="31.2693214417"><ele>0.14</ele><time>2026-09-02T18:27:10Z</time></trkpt><trkpt lat="59.5605111122" lon="31.2693643570"><ele>0.14</ele><time>2026-09-02T18:27:13Z</time></trkpt><trkpt lat="59.5604896545" lon="31.2693643570"><ele>0.14</ele><time>2026-09-02T18:27:15Z</time></trkpt><trkpt lat="59.5604896545" lon="31.2693643570"><ele>0.14</ele><time>2026-09-02T18:27:18Z</time></trkpt><trkpt lat="59.5604681969" lon="31.2693858147"><ele>0.14</ele><time>2026-09-02T18:27:20Z</time></trkpt><trkpt lat="59.5604681969" lon="31.2694072723"><ele>0.14</ele><time>2026-09-02T18:27:23Z</time></trkpt><trkpt lat="59.5604681969" lon="31.2694072723"><ele>0.14</ele><time>2026-09-02T18:27:25Z</time></trkpt><trkpt lat="59.5604467392" lon="31.2694072723"><ele>0.14</ele><time>2026-09-02T18:27:28Z</time></trkpt><trkpt lat="59.5604467392" lon="31.2694072723"><ele>0.14</ele><time>2026-09-02T18:27:30Z</time></trkpt><trkpt lat="59.5604467392" lon="31.2693858147"><ele>0.14</ele><time>2026-09-02T18:27:33Z</time></trkpt><trkpt lat="59.5604467392" lon="31.2693858147"><ele>0.14</ele><time>2026-09-02T18:27:35Z</time></trkpt><trkpt lat="59.5604467392" lon="31.2693858147"><ele>0.14</ele><time>2026-09-02T18:27:38Z</time></trkpt><trkpt lat="59.5604467392" lon="31.2694072723"><ele>0.14</ele><time>2026-09-02T18:27:40Z</time></trkpt><trkpt lat="59.5604681969" lon="31.2693858147"><ele>0.14</ele><time>2026-09-02T18:27:43Z</time></trkpt><trkpt lat="59.5604681969" lon="31.2693858147"><ele>0.14</ele><time>2026-09-02T18:27:45Z</time></trkpt><trkpt lat="59.5604681969" lon="31.2693858147"><ele>0.14</ele><time>2026-09-02T18:27:48Z</time></trkpt><trkpt lat="59.5604467392" lon="31.2693858147"><ele>0.14</ele><time>2026-09-02T18:27:50Z</time></trkpt><trkpt lat="59.5604467392" lon="31.2693858147"><ele>0.14</ele><time>2026-09-02T18:27:53Z</time></trkpt><trkpt lat="59.5604467392" lon="31.2693858147"><ele>0.14</ele><time>2026-09-02T18:27:55Z</time></trkpt><trkpt lat="59.5604467392" lon="31.2693858147"><ele>0.14</ele><time>2026-09-02T18:27:58Z</time></trkpt><trkpt lat="59.5604467392" lon="31.2693858147"><ele>0.14</ele><time>2026-09-02T18:28:00Z</time></trkpt><trkpt lat="59.5604467392" lon="31.2693858147"><ele>0.14</ele><time>2026-09-02T18:28:03Z</time></trkpt><trkpt lat="59.5604467392" lon="31.2693858147"><ele>0.14</ele><time>2026-09-02T18:28:05Z</time></trkpt><trkpt lat="59.5604467392" lon="31.2693858147"><ele>0.14</ele><time>2026-09-02T18:28:08Z</time></trkpt><trkpt lat="59.5604467392" lon="31.2693858147"><ele>0.14</ele><time>2026-09-02T18:28:10Z</time></trkpt><trkpt lat="59.5604467392" lon="31.2693858147"><ele>0.14</ele><time>2026-09-02T18:28:13Z</time></trkpt><trkpt lat="59.5604467392" lon="31.2693858147"><ele>0.14</ele><time>2026-09-02T18:28:15Z</time></trkpt><trkpt lat="59.5604467392" lon="31.2693858147"><ele>0.14</ele><time>2026-09-02T18:28:18Z</time></trkpt><trkpt lat="59.5604467392" lon="31.2693858147"><ele>0.14</ele><time>2026-09-02T18:28:20Z</time></trkpt><trkpt lat="59.5604467392" lon="31.2693858147"><ele>0.14</ele><time>2026-09-02T18:28:23Z</time></trkpt><trkpt lat="59.5604467392" lon="31.2693858147"><ele>0.14</ele><time>2026-09-02T18:28:25Z</time></trkpt><trkpt lat="59.5604467392" lon="31.2693858147"><ele>0.14</ele><time>2026-09-02T18:28:28Z</time></trkpt><trkpt lat="59.5604467392" lon="31.2693858147"><ele>0.14</ele><time>2026-09-02T18:28:30Z</time></trkpt><trkpt lat="59.5604467392" lon="31.2693858147"><ele>0.14</ele><time>2026-09-02T18:28:33Z</time></trkpt><trkpt lat="59.5604467392" lon="31.2693858147"><ele>0.14</ele><time>2026-09-02T18:28:35Z</time></trkpt><trkpt lat="59.5604252815" lon="31.2693643570"><ele>0.14</ele><time>2026-09-02T18:28:38Z</time></trkpt><trkpt lat="59.5604252815" lon="31.2693428993"><ele>0.14</ele><time>2026-09-02T18:28:40Z</time></trkpt><trkpt lat="59.5604252815" lon="31.2693428993"><ele>0.14</ele><time>2026-09-02T18:28:43Z</time></trkpt><trkpt lat="59.5604038239" lon="31.2693428993"><ele>0.14</ele><time>2026-09-02T18:28:45Z</time></trkpt><trkpt lat="59.5604038239" lon="31.2692999840"><ele>0.14</ele><time>2026-09-02T18:28:48Z</time></trkpt><trkpt lat="59.5603823662" lon="31.2692570686"><ele>0.14</ele><time>2026-09-02T18:28:50Z</time></trkpt><trkpt lat="59.5604038239" lon="31.2691926956"><ele>0.14</ele><time>2026-09-02T18:28:53Z</time></trkpt><trkpt lat="59.5604038239" lon="31.2691497803"><ele>0.14</ele><time>2026-09-02T18:28:55Z</time></trkpt><trkpt lat="59.5604252815" lon="31.2690854073"><ele>0.14</ele><time>2026-09-02T18:28:58Z</time></trkpt><trkpt lat="59.5604681969" lon="31.2690424919"><ele>0.14</ele><time>2026-09-02T18:29:00Z</time></trkpt><trkpt lat="59.5605111122" lon="31.2690424919"><ele>0.14</ele><time>2026-09-02T18:29:03Z</time></trkpt><trkpt lat="59.5605111122" lon="31.2689995766"><ele>0.14</ele><time>2026-09-02T18:29:05Z</time></trkpt><trkpt lat="59.5605325699" lon="31.2689781189"><ele>0.14</ele><time>2026-09-02T18:29:08Z</time></trkpt><trkpt lat="59.5605754852" lon="31.2689566612"><ele>0.14</ele><time>2026-09-02T18:29:10Z</time></trkpt><trkpt lat="59.5605969429" lon="31.2689352036"><ele>0.14</ele><time>2026-09-02T18:29:13Z</time></trkpt><trkpt lat="59.5606184006" lon="31.2689781189"><ele>0.14</ele><time>2026-09-02T18:29:15Z</time></trkpt><trkpt lat="59.5606613159" lon="31.2690424919"><ele>0.14</ele><time>2026-09-02T18:29:18Z</time></trkpt><trkpt lat="59.5606827736" lon="31.2690424919"><ele>0.14</ele><time>2026-09-02T18:29:20Z</time></trkpt><trkpt lat="59.5607042313" lon="31.2690210342"><ele>0.14</ele><time>2026-09-02T18:29:23Z</time></trkpt><trkpt lat="59.5607256889" lon="31.2689995766"><ele>0.14</ele><time>2026-09-02T18:29:25Z</time></trkpt><trkpt lat="59.5607686043" lon="31.2689995766"><ele>0.14</ele><time>2026-09-02T18:29:28Z</time></trkpt><trkpt lat="59.5607900620" lon="31.2689781189"><ele>0.14</ele><time>2026-09-02T18:29:30Z</time></trkpt><trkpt lat="59.5607686043" lon="31.2689352036"><ele>0.14</ele><time>2026-09-02T18:29:33Z</time></trkpt><trkpt lat="59.5607686043" lon="31.2688708305"><ele>0.14</ele><time>2026-09-02T18:29:35Z</time></trkpt><trkpt lat="59.5607686043" lon="31.2688279152"><ele>0.14</ele><time>2026-09-02T18:29:38Z</time></trkpt><trkpt lat="59.5607686043" lon="31.2688279152"><ele>0.14</ele><time>2026-09-02T18:29:40Z</time></trkpt><trkpt lat="59.5607900620" lon="31.2688064575"><ele>0.14</ele><time>2026-09-02T18:29:43Z</time></trkpt><trkpt lat="59.5607900620" lon="31.2688493729"><ele>0.14</ele><time>2026-09-02T18:29:45Z</time></trkpt><trkpt lat="59.5608115196" lon="31.2688708305"><ele>0.14</ele><time>2026-09-02T18:29:48Z</time></trkpt><trkpt lat="59.5608329773" lon="31.2688493729"><ele>0.14</ele><time>2026-09-02T18:29:50Z</time></trkpt><trkpt lat="59.5608544350" lon="31.2688279152"><ele>0.14</ele><time>2026-09-02T18:29:53Z</time></trkpt><trkpt lat="59.5608544350" lon="31.2688064575"><ele>0.14</ele><time>2026-09-02T18:29:55Z</time></trkpt><trkpt lat="59.5608544350" lon="31.2687849998"><ele>0.14</ele><time>2026-09-02T18:29:58Z</time></trkpt><trkpt lat="59.5608329773" lon="31.2687635422"><ele>0.14</ele><time>2026-09-02T18:30:00Z</time></trkpt><trkpt lat="59.5608329773" lon="31.2687206268"><ele>0.14</ele><time>2026-09-02T18:30:03Z</time></trkpt><trkpt lat="59.5608115196" lon="31.2687206268"><ele>0.14</ele><time>2026-09-02T18:30:05Z</time></trkpt><trkpt lat="59.5608329773" lon="31.2687206268"><ele>0.14</ele><time>2026-09-02T18:30:08Z</time></trkpt><trkpt lat="59.5608329773" lon="31.2687420845"><ele>0.14</ele><time>2026-09-02T18:30:10Z</time></trkpt><trkpt lat="59.5608329773" lon="31.2687420845"><ele>0.14</ele><time>2026-09-02T18:30:13Z</time></trkpt><trkpt lat="59.5608544350" lon="31.2687635422"><ele>0.14</ele><time>2026-09-02T18:30:15Z</time></trkpt><trkpt lat="59.5608544350" lon="31.2687635422"><ele>0.14</ele><time>2026-09-02T18:30:18Z</time></trkpt><trkpt lat="59.5608544350" lon="31.2687420845"><ele>0.14</ele><time>2026-09-02T18:30:20Z</time></trkpt><trkpt lat="59.5608758926" lon="31.2687206268"><ele>0.14</ele><time>2026-09-02T18:30:23Z</time></trkpt><trkpt lat="59.5608758926" lon="31.2687206268"><ele>0.14</ele><time>2026-09-02T18:30:25Z</time></trkpt><trkpt lat="59.5608973503" lon="31.2686777115"><ele>0.14</ele><time>2026-09-02T18:30:28Z</time></trkpt><trkpt lat="59.5609188080" lon="31.2686777115"><ele>0.14</ele><time>2026-09-02T18:30:30Z</time></trkpt><trkpt lat="59.5609402657" lon="31.2686347961"><ele>0.14</ele><time>2026-09-02T18:30:33Z</time></trkpt><trkpt lat="59.5609617233" lon="31.2686347961"><ele>0.14</ele><time>2026-09-02T18:30:35Z</time></trkpt><trkpt lat="59.5609617233" lon="31.2686562538"><ele>0.14</ele><time>2026-09-02T18:30:38Z</time></trkpt><trkpt lat="59.5609831810" lon="31.2686777115"><ele>0.14</ele><time>2026-09-02T18:30:40Z</time></trkpt><trkpt lat="59.5609831810" lon="31.2686991692"><ele>0.14</ele><time>2026-09-02T18:30:43Z</time></trkpt><trkpt lat="59.5609617233" lon="31.2686991692"><ele>0.14</ele><time>2026-09-02T18:30:45Z</time></trkpt><trkpt lat="59.5609402657" lon="31.2686991692"><ele>0.14</ele><time>2026-09-02T18:30:48Z</time></trkpt><trkpt lat="59.5609402657" lon="31.2686991692"><ele>0.14</ele><time>2026-09-02T18:30:50Z</time></trkpt><trkpt lat="59.5608973503" lon="31.2686562538"><ele>0.14</ele><time>2026-09-02T18:30:53Z</time></trkpt><trkpt lat="59.5608758926" lon="31.2686133385"><ele>0.14</ele><time>2026-09-02T18:30:55Z</time></trkpt><trkpt lat="59.5608758926" lon="31.2685918808"><ele>0.14</ele><time>2026-09-02T18:30:58Z</time></trkpt><trkpt lat="59.5608544350" lon="31.2685704231"><ele>0.14</ele><time>2026-09-02T18:31:00Z</time></trkpt><trkpt lat="59.5608544350" lon="31.2685275078"><ele>0.14</ele><time>2026-09-02T18:31:03Z</time></trkpt><trkpt lat="59.5608544350" lon="31.2684845924"><ele>0.14</ele><time>2026-09-02T18:31:05Z</time></trkpt><trkpt lat="59.5608329773" lon="31.2684631348"><ele>0.14</ele><time>2026-09-02T18:31:08Z</time></trkpt><trkpt lat="59.5608329773" lon="31.2684202194"><ele>0.14</ele><time>2026-09-02T18:31:10Z</time></trkpt><trkpt lat="59.5608329773" lon="31.2683773041"><ele>0.14</ele><time>2026-09-02T18:31:13Z</time></trkpt><trkpt lat="59.5608544350" lon="31.2683773041"><ele>0.14</ele><time>2026-09-02T18:31:15Z</time></trkpt><trkpt lat="59.5608758926" lon="31.2683129311"><ele>0.14</ele><time>2026-09-02T18:31:18Z</time></trkpt><trkpt lat="59.5608758926" lon="31.2682700157"><ele>0.14</ele><time>2026-09-02T18:31:20Z</time></trkpt><trkpt lat="59.5608973503" lon="31.2682271004"><ele>0.14</ele><time>2026-09-02T18:31:23Z</time></trkpt><trkpt lat="59.5608758926" lon="31.2682056427"><ele>0.14</ele><time>2026-09-02T18:31:25Z</time></trkpt><trkpt lat="59.5608758926" lon="31.2681841850"><ele>0.14</ele><time>2026-09-02T18:31:28Z</time></trkpt><trkpt lat="59.5608758926" lon="31.2681198120"><ele>0.14</ele><time>2026-09-02T18:31:30Z</time></trkpt><trkpt lat="59.5608973503" lon="31.2680983543"><ele>0.14</ele><time>2026-09-02T18:31:33Z</time></trkpt><trkpt lat="59.5609188080" lon="31.2680983543"><ele>0.14</ele><time>2026-09-02T18:31:35Z</time></trkpt><trkpt lat="59.5609402657" lon="31.2681198120"><ele>0.14</ele><time>2026-09-02T18:31:38Z</time></trkpt><trkpt lat="59.5609402657" lon="31.2681198120"><ele>0.14</ele><time>2026-09-02T18:31:40Z</time></trkpt><trkpt lat="59.5609402657" lon="31.2681412697"><ele>0.14</ele><time>2026-09-02T18:31:43Z</time></trkpt><trkpt lat="59.5609617233" lon="31.2681412697"><ele>0.14</ele><time>2026-09-02T18:31:45Z</time></trkpt><trkpt lat="59.5609831810" lon="31.2680983543"><ele>0.14</ele><time>2026-09-02T18:31:48Z</time></trkpt><trkpt lat="59.5610260963" lon="31.2681198120"><ele>0.14</ele><time>2026-09-02T18:31:50Z</time></trkpt><trkpt lat="59.5610260963" lon="31.2680983543"><ele>0.14</ele><time>2026-09-02T18:31:53Z</time></trkpt><trkpt lat="59.5610260963" lon="31.2680983543"><ele>0.14</ele><time>2026-09-02T18:31:55Z</time></trkpt><trkpt lat="59.5610475540" lon="31.2680983543"><ele>0.14</ele><time>2026-09-02T18:31:58Z</time></trkpt><trkpt lat="59.5610690117" lon="31.2680983543"><ele>0.14</ele><time>2026-09-02T18:32:00Z</time></trkpt><trkpt lat="59.5610904694" lon="31.2681412697"><ele>0.14</ele><time>2026-09-02T18:32:03Z</time></trkpt><trkpt lat="59.5610690117" lon="31.2682056427"><ele>0.14</ele><time>2026-09-02T18:32:05Z</time></trkpt><trkpt lat="59.5610690117" lon="31.2682271004"><ele>0.14</ele><time>2026-09-02T18:32:08Z</time></trkpt><trkpt lat="59.5610475540" lon="31.2682700157"><ele>0.14</ele><time>2026-09-02T18:32:10Z</time></trkpt><trkpt lat="59.5610475540" lon="31.2682914734"><ele>0.14</ele><time>2026-09-02T18:32:13Z</time></trkpt><trkpt lat="59.5610475540" lon="31.2682914734"><ele>0.14</ele><time>2026-09-02T18:32:15Z</time></trkpt><trkpt lat="59.5610690117" lon="31.2682914734"><ele>0.14</ele><time>2026-09-02T18:32:18Z</time></trkpt><trkpt lat="59.5610475540" lon="31.2683129311"><ele>0.14</ele><time>2026-09-02T18:32:20Z</time></trkpt><trkpt lat="59.5610475540" lon="31.2683129311"><ele>0.14</ele><time>2026-09-02T18:32:23Z</time></trkpt><trkpt lat="59.5610475540" lon="31.2683129311"><ele>0.14</ele><time>2026-09-02T18:32:25Z</time></trkpt><trkpt lat="59.5610475540" lon="31.2683129311"><ele>0.14</ele><time>2026-09-02T18:32:28Z</time></trkpt><trkpt lat="59.5610475540" lon="31.2683129311"><ele>0.14</ele><time>2026-09-02T18:32:30Z</time></trkpt><trkpt lat="59.5610475540" lon="31.2683129311"><ele>0.14</ele><time>2026-09-02T18:32:33Z</time></trkpt><trkpt lat="59.5610475540" lon="31.2683129311"><ele>0.14</ele><time>2026-09-02T18:32:35Z</time></trkpt><trkpt lat="59.5610475540" lon="31.2683129311"><ele>0.14</ele><time>2026-09-02T18:32:38Z</time></trkpt><trkpt lat="59.5610475540" lon="31.2683129311"><ele>0.14</ele><time>2026-09-02T18:32:40Z</time></trkpt><trkpt lat="59.5610475540" lon="31.2683129311"><ele>0.14</ele><time>2026-09-02T18:32:43Z</time></trkpt><trkpt lat="59.5610475540" lon="31.2683129311"><ele>0.14</ele><time>2026-09-02T18:32:45Z</time></trkpt><trkpt lat="59.5610475540" lon="31.2683129311"><ele>0.14</ele><time>2026-09-02T18:32:48Z</time></trkpt><trkpt lat="59.5610475540" lon="31.2683129311"><ele>0.14</ele><time>2026-09-02T18:32:50Z</time></trkpt><trkpt lat="59.5610475540" lon="31.2683129311"><ele>0.14</ele><time>2026-09-02T18:32:53Z</time></trkpt><trkpt lat="59.5610475540" lon="31.2683129311"><ele>0.14</ele><time>2026-09-02T18:32:55Z</time></trkpt><trkpt lat="59.5610475540" lon="31.2683129311"><ele>0.14</ele><time>2026-09-02T18:32:58Z</time></trkpt><trkpt lat="59.5610475540" lon="31.2683129311"><ele>0.14</ele><time>2026-09-02T18:33:00Z</time></trkpt><trkpt lat="59.5610475540" lon="31.2683129311"><ele>0.14</ele><time>2026-09-02T18:33:03Z</time></trkpt><trkpt lat="59.5610475540" lon="31.2683129311"><ele>0.14</ele><time>2026-09-02T18:33:05Z</time></trkpt><trkpt lat="59.5610475540" lon="31.2683129311"><ele>0.14</ele><time>2026-09-02T18:33:08Z</time></trkpt><trkpt lat="59.5610475540" lon="31.2683129311"><ele>0.14</ele><time>2026-09-02T18:33:10Z</time></trkpt><trkpt lat="59.5610475540" lon="31.2683129311"><ele>0.14</ele><time>2026-09-02T18:33:13Z</time></trkpt><trkpt lat="59.5610475540" lon="31.2683129311"><ele>0.14</ele><time>2026-09-02T18:33:15Z</time></trkpt><trkpt lat="59.5610475540" lon="31.2683343887"><ele>0.14</ele><time>2026-09-02T18:33:18Z</time></trkpt><trkpt lat="59.5610475540" lon="31.2683343887"><ele>0.14</ele><time>2026-09-02T18:33:20Z</time></trkpt><trkpt lat="59.5610475540" lon="31.2683343887"><ele>0.14</ele><time>2026-09-02T18:33:23Z</time></trkpt><trkpt lat="59.5610475540" lon="31.2683343887"><ele>0.14</ele><time>2026-09-02T18:33:25Z</time></trkpt><trkpt lat="59.5610475540" lon="31.2683343887"><ele>0.14</ele><time>2026-09-02T18:33:28Z</time></trkpt><trkpt lat="59.5610475540" lon="31.2683343887"><ele>0.14</ele><time>2026-09-02T18:33:30Z</time></trkpt><trkpt lat="59.5610475540" lon="31.2683343887"><ele>0.14</ele><time>2026-09-02T18:33:33Z</time></trkpt><trkpt lat="59.5610475540" lon="31.2683343887"><ele>0.14</ele><time>2026-09-02T18:33:35Z</time></trkpt><trkpt lat="59.5610475540" lon="31.2683343887"><ele>0.14</ele><time>2026-09-02T18:33:38Z</time></trkpt><trkpt lat="59.5610475540" lon="31.2683343887"><ele>0.14</ele><time>2026-09-02T18:33:40Z</time></trkpt><trkpt lat="59.5610475540" lon="31.2683343887"><ele>0.14</ele><time>2026-09-02T18:33:43Z</time></trkpt><trkpt lat="59.5610475540" lon="31.2683343887"><ele>0.14</ele><time>2026-09-02T18:33:45Z</time></trkpt><trkpt lat="59.5610475540" lon="31.2683343887"><ele>0.14</ele><time>2026-09-02T18:33:48Z</time></trkpt><trkpt lat="59.5610475540" lon="31.2683343887"><ele>0.14</ele><time>2026-09-02T18:33:50Z</time></trkpt><trkpt lat="59.5610475540" lon="31.2683343887"><ele>0.14</ele><time>2026-09-02T18:33:53Z</time></trkpt><trkpt lat="59.5610475540" lon="31.2683343887"><ele>0.14</ele><time>2026-09-02T18:33:55Z</time></trkpt><trkpt lat="59.5610475540" lon="31.2683343887"><ele>0.14</ele><time>2026-09-02T18:33:58Z</time></trkpt><trkpt lat="59.5610475540" lon="31.2683343887"><ele>0.14</ele><time>2026-09-02T18:34:00Z</time></trkpt><trkpt lat="59.5610475540" lon="31.2683129311"><ele>0.14</ele><time>2026-09-02T18:34:03Z</time></trkpt><trkpt lat="59.5610475540" lon="31.2682914734"><ele>0.14</ele><time>2026-09-02T18:34:05Z</time></trkpt><trkpt lat="59.5610690117" lon="31.2682700157"><ele>0.14</ele><time>2026-09-02T18:34:08Z</time></trkpt><trkpt lat="59.5610690117" lon="31.2682700157"><ele>0.14</ele><time>2026-09-02T18:34:10Z</time></trkpt><trkpt lat="59.5610690117" lon="31.2682700157"><ele>0.14</ele><time>2026-09-02T18:34:13Z</time></trkpt><trkpt lat="59.5610690117" lon="31.2682700157"><ele>0.14</ele><time>2026-09-02T18:34:15Z</time></trkpt><trkpt lat="59.5610690117" lon="31.2682700157"><ele>0.14</ele><time>2026-09-02T18:34:18Z</time></trkpt><trkpt lat="59.5610690117" lon="31.2682700157"><ele>0.14</ele><time>2026-09-02T18:34:20Z</time></trkpt><trkpt lat="59.5610690117" lon="31.2682700157"><ele>0.14</ele><time>2026-09-02T18:34:23Z</time></trkpt><trkpt lat="59.5610690117" lon="31.2682700157"><ele>0.14</ele><time>2026-09-02T18:34:25Z</time></trkpt><trkpt lat="59.5610690117" lon="31.2682485580"><ele>0.14</ele><time>2026-09-02T18:34:28Z</time></trkpt><trkpt lat="59.5610690117" lon="31.2682271004"><ele>0.14</ele><time>2026-09-02T18:34:30Z</time></trkpt><trkpt lat="59.5610475540" lon="31.2681841850"><ele>0.14</ele><time>2026-09-02T18:34:33Z</time></trkpt><trkpt lat="59.5610690117" lon="31.2680983543"><ele>0.14</ele><time>2026-09-02T18:34:35Z</time></trkpt><trkpt lat="59.5610690117" lon="31.2680125237"><ele>0.14</ele><time>2026-09-02T18:34:38Z</time></trkpt><trkpt lat="59.5610904694" lon="31.2679696083"><ele>0.14</ele><time>2026-09-02T18:34:40Z</time></trkpt><trkpt lat="59.5610904694" lon="31.2679481506"><ele>0.14</ele><time>2026-09-02T18:34:43Z</time></trkpt><trkpt lat="59.5610904694" lon="31.2679052353"><ele>0.14</ele><time>2026-09-02T18:34:45Z</time></trkpt><trkpt lat="59.5611119270" lon="31.2678837776"><ele>0.14</ele><time>2026-09-02T18:34:48Z</time></trkpt><trkpt lat="59.5611333847" lon="31.2678837776"><ele>0.14</ele><time>2026-09-02T18:34:50Z</time></trkpt><trkpt lat="59.5611548424" lon="31.2678408623"><ele>0.14</ele><time>2026-09-02T18:34:53Z</time></trkpt><trkpt lat="59.5611548424" lon="31.2678408623"><ele>0.14</ele><time>2026-09-02T18:34:55Z</time></trkpt><trkpt lat="59.5611548424" lon="31.2678408623"><ele>0.14</ele><time>2026-09-02T18:34:58Z</time></trkpt><trkpt lat="59.5611333847" lon="31.2678408623"><ele>0.14</ele><time>2026-09-02T18:35:00Z</time></trkpt><trkpt lat="59.5611119270" lon="31.2677550316"><ele>0.14</ele><time>2026-09-02T18:35:03Z</time></trkpt><trkpt lat="59.5610690117" lon="31.2676906586"><ele>0.14</ele><time>2026-09-02T18:35:05Z</time></trkpt><trkpt lat="59.5610260963" lon="31.2676692009"><ele>0.14</ele><time>2026-09-02T18:35:08Z</time></trkpt><trkpt lat="59.5610046387" lon="31.2676692009"><ele>0.14</ele><time>2026-09-02T18:35:10Z</time></trkpt><trkpt lat="59.5609831810" lon="31.2675833702"><ele>0.14</ele><time>2026-09-02T18:35:13Z</time></trkpt><trkpt lat="59.5609831810" lon="31.2675833702"><ele>0.14</ele><time>2026-09-02T18:35:15Z</time></trkpt><trkpt lat="59.5609831810" lon="31.2675833702"><ele>0.14</ele><time>2026-09-02T18:35:18Z</time></trkpt><trkpt lat="59.5609831810" lon="31.2675833702"><ele>0.14</ele><time>2026-09-02T18:35:20Z</time></trkpt><trkpt lat="59.5609831810" lon="31.2675833702"><ele>0.14</ele><time>2026-09-02T18:35:23Z</time></trkpt><trkpt lat="59.5609617233" lon="31.2675619125"><ele>0.14</ele><time>2026-09-02T18:35:25Z</time></trkpt><trkpt lat="59.5609188080" lon="31.2674975395"><ele>0.14</ele><time>2026-09-02T18:35:28Z</time></trkpt><trkpt lat="59.5609188080" lon="31.2674331665"><ele>0.14</ele><time>2026-09-02T18:35:30Z</time></trkpt><trkpt lat="59.5608973503" lon="31.2673258781"><ele>0.14</ele><time>2026-09-02T18:35:33Z</time></trkpt><trkpt lat="59.5608758926" lon="31.2672829628"><ele>0.14</ele><time>2026-09-02T18:35:35Z</time></trkpt><trkpt lat="59.5608758926" lon="31.2672829628"><ele>0.14</ele><time>2026-09-02T18:35:38Z</time></trkpt><trkpt lat="59.5608544350" lon="31.2672615051"><ele>0.14</ele><time>2026-09-02T18:35:40Z</time></trkpt><trkpt lat="59.5608329773" lon="31.2672615051"><ele>0.14</ele><time>2026-09-02T18:35:43Z</time></trkpt><trkpt lat="59.5608329773" lon="31.2672615051"><ele>0.14</ele><time>2026-09-02T18:35:45Z</time></trkpt><trkpt lat="59.5608329773" lon="31.2672615051"><ele>0.14</ele><time>2026-09-02T18:35:48Z</time></trkpt><trkpt lat="59.5608115196" lon="31.2672829628"><ele>0.14</ele><time>2026-09-02T18:35:50Z</time></trkpt><trkpt lat="59.5607900620" lon="31.2673044205"><ele>0.14</ele><time>2026-09-02T18:35:53Z</time></trkpt><trkpt lat="59.5607686043" lon="31.2673044205"><ele>0.14</ele><time>2026-09-02T18:35:55Z</time></trkpt><trkpt lat="59.5607686043" lon="31.2673258781"><ele>0.14</ele><time>2026-09-02T18:35:58Z</time></trkpt><trkpt lat="59.5607686043" lon="31.2673258781"><ele>0.14</ele><time>2026-09-02T18:36:00Z</time></trkpt><trkpt lat="59.5607686043" lon="31.2673258781"><ele>0.14</ele><time>2026-09-02T18:36:03Z</time></trkpt><trkpt lat="59.5607686043" lon="31.2673258781"><ele>0.14</ele><time>2026-09-02T18:36:05Z</time></trkpt><trkpt lat="59.5607686043" lon="31.2673258781"><ele>0.14</ele><time>2026-09-02T18:36:08Z</time></trkpt><trkpt lat="59.5607471466" lon="31.2673044205"><ele>0.14</ele><time>2026-09-02T18:36:10Z</time></trkpt><trkpt lat="59.5607471466" lon="31.2672615051"><ele>0.14</ele><time>2026-09-02T18:36:13Z</time></trkpt><trkpt lat="59.5607256889" lon="31.2672185898"><ele>0.14</ele><time>2026-09-02T18:36:15Z</time></trkpt><trkpt lat="59.5607256889" lon="31.2671756744"><ele>0.14</ele><time>2026-09-02T18:36:18Z</time></trkpt><trkpt lat="59.5607042313" lon="31.2671542168"><ele>0.14</ele><time>2026-09-02T18:36:20Z</time></trkpt><trkpt lat="59.5607042313" lon="31.2671113014"><ele>0.14</ele><time>2026-09-02T18:36:23Z</time></trkpt><trkpt lat="59.5606827736" lon="31.2670898438"><ele>0.14</ele><time>2026-09-02T18:36:25Z</time></trkpt><trkpt lat="59.5606827736" lon="31.2670898438"><ele>0.14</ele><time>2026-09-02T18:36:28Z</time></trkpt><trkpt lat="59.5606827736" lon="31.2670040131"><ele>0.14</ele><time>2026-09-02T18:36:30Z</time></trkpt><trkpt lat="59.5607256889" lon="31.2669610977"><ele>0.14</ele><time>2026-09-02T18:36:33Z</time></trkpt><trkpt lat="59.5607686043" lon="31.2670254707"><ele>0.14</ele><time>2026-09-02T18:36:35Z</time></trkpt><trkpt lat="59.5608115196" lon="31.2671327591"><ele>0.14</ele><time>2026-09-02T18:36:38Z</time></trkpt><trkpt lat="59.5608329773" lon="31.2672400475"><ele>0.14</ele><time>2026-09-02T18:36:40Z</time></trkpt><trkpt lat="59.5608329773" lon="31.2673473358"><ele>0.14</ele><time>2026-09-02T18:36:43Z</time></trkpt><trkpt lat="59.5608329773" lon="31.2673902512"><ele>0.14</ele><time>2026-09-02T18:36:45Z</time></trkpt><trkpt lat="59.5608329773" lon="31.2674331665"><ele>0.14</ele><time>2026-09-02T18:36:48Z</time></trkpt><trkpt lat="59.5608329773" lon="31.2674331665"><ele>0.14</ele><time>2026-09-02T18:36:50Z</time></trkpt><trkpt lat="59.5608329773" lon="31.2674331665"><ele>0.14</ele><time>2026-09-02T18:36:53Z</time></trkpt><trkpt lat="59.5608329773" lon="31.2674331665"><ele>0.14</ele><time>2026-09-02T18:36:55Z</time></trkpt><trkpt lat="59.5608329773" lon="31.2674546242"><ele>0.14</ele><time>2026-09-02T18:36:58Z</time></trkpt><trkpt lat="59.5608329773" lon="31.2674546242"><ele>0.14</ele><time>2026-09-02T18:37:00Z</time></trkpt><trkpt lat="59.5608329773" lon="31.2674546242"><ele>0.14</ele><time>2026-09-02T18:37:03Z</time></trkpt><trkpt lat="59.5608329773" lon="31.2674546242"><ele>0.14</ele><time>2026-09-02T18:37:05Z</time></trkpt><trkpt lat="59.5608329773" lon="31.2674546242"><ele>0.14</ele><time>2026-09-02T18:37:08Z</time></trkpt><trkpt lat="59.5608329773" lon="31.2674546242"><ele>0.14</ele><time>2026-09-02T18:37:10Z</time></trkpt><trkpt lat="59.5608329773" lon="31.2674546242"><ele>0.14</ele><time>2026-09-02T18:37:13Z</time></trkpt><trkpt lat="59.5608329773" lon="31.2674546242"><ele>0.14</ele><time>2026-09-02T18:37:15Z</time></trkpt><trkpt lat="59.5608329773" lon="31.2674546242"><ele>0.14</ele><time>2026-09-02T18:37:18Z</time></trkpt><trkpt lat="59.5608329773" lon="31.2674546242"><ele>0.14</ele><time>2026-09-02T18:37:20Z</time></trkpt><trkpt lat="59.5608329773" lon="31.2674546242"><ele>0.14</ele><time>2026-09-02T18:37:23Z</time></trkpt><trkpt lat="59.5608329773" lon="31.2674546242"><ele>0.14</ele><time>2026-09-02T18:37:25Z</time></trkpt><trkpt lat="59.5608329773" lon="31.2674546242"><ele>0.14</ele><time>2026-09-02T18:37:28Z</time></trkpt><trkpt lat="59.5608329773" lon="31.2674546242"><ele>0.14</ele><time>2026-09-02T18:37:30Z</time></trkpt><trkpt lat="59.5608329773" lon="31.2674546242"><ele>0.14</ele><time>2026-09-02T18:37:33Z</time></trkpt><trkpt lat="59.5608329773" lon="31.2674546242"><ele>0.14</ele><time>2026-09-02T18:37:35Z</time></trkpt><trkpt lat="59.5608329773" lon="31.2674546242"><ele>0.14</ele><time>2026-09-02T18:37:38Z</time></trkpt><trkpt lat="59.5608329773" lon="31.2674546242"><ele>0.14</ele><time>2026-09-02T18:37:40Z</time></trkpt><trkpt lat="59.5608329773" lon="31.2674546242"><ele>0.14</ele><time>2026-09-02T18:37:43Z</time></trkpt><trkpt lat="59.5608329773" lon="31.2674546242"><ele>0.14</ele><time>2026-09-02T18:37:45Z</time></trkpt><trkpt lat="59.5608329773" lon="31.2674546242"><ele>0.14</ele><time>2026-09-02T18:37:48Z</time></trkpt><trkpt lat="59.5608329773" lon="31.2674546242"><ele>0.14</ele><time>2026-09-02T18:37:50Z</time></trkpt><trkpt lat="59.5608329773" lon="31.2674546242"><ele>0.14</ele><time>2026-09-02T18:37:53Z</time></trkpt><trkpt lat="59.5608329773" lon="31.2674546242"><ele>0.14</ele><time>2026-09-02T18:37:55Z</time></trkpt><trkpt lat="59.5608329773" lon="31.2674546242"><ele>0.14</ele><time>2026-09-02T18:37:58Z</time></trkpt><trkpt lat="59.5608329773" lon="31.2674546242"><ele>0.14</ele><time>2026-09-02T18:38:00Z</time></trkpt><trkpt lat="59.5608329773" lon="31.2674546242"><ele>0.14</ele><time>2026-09-02T18:38:03Z</time></trkpt><trkpt lat="59.5608329773" lon="31.2674546242"><ele>0.14</ele><time>2026-09-02T18:38:05Z</time></trkpt><trkpt lat="59.5608329773" lon="31.2674546242"><ele>0.14</ele><time>2026-09-02T18:38:08Z</time></trkpt><trkpt lat="59.5608329773" lon="31.2674546242"><ele>0.14</ele><time>2026-09-02T18:38:10Z</time></trkpt><trkpt lat="59.5608329773" lon="31.2674546242"><ele>0.14</ele><time>2026-09-02T18:38:13Z</time></trkpt><trkpt lat="59.5608329773" lon="31.2674546242"><ele>0.14</ele><time>2026-09-02T18:38:15Z</time></trkpt><trkpt lat="59.5608329773" lon="31.2674546242"><ele>0.14</ele><time>2026-09-02T18:38:18Z</time></trkpt><trkpt lat="59.5608329773" lon="31.2674546242"><ele>0.14</ele><time>2026-09-02T18:38:20Z</time></trkpt><trkpt lat="59.5608329773" lon="31.2674546242"><ele>0.14</ele><time>2026-09-02T18:38:23Z</time></trkpt><trkpt lat="59.5608329773" lon="31.2674546242"><ele>0.14</ele><time>2026-09-02T18:38:25Z</time></trkpt><trkpt lat="59.5608329773" lon="31.2674546242"><ele>0.14</ele><time>2026-09-02T18:38:28Z</time></trkpt><trkpt lat="59.5608329773" lon="31.2674546242"><ele>0.14</ele><time>2026-09-02T18:38:30Z</time></trkpt><trkpt lat="59.5608329773" lon="31.2674546242"><ele>0.14</ele><time>2026-09-02T18:38:33Z</time></trkpt><trkpt lat="59.5608329773" lon="31.2674546242"><ele>0.14</ele><time>2026-09-02T18:38:35Z</time></trkpt><trkpt lat="59.5608329773" lon="31.2674546242"><ele>0.14</ele><time>2026-09-02T18:38:38Z</time></trkpt><trkpt lat="59.5608329773" lon="31.2674546242"><ele>0.14</ele><time>2026-09-02T18:38:40Z</time></trkpt><trkpt lat="59.5608329773" lon="31.2674760818"><ele>0.14</ele><time>2026-09-02T18:38:43Z</time></trkpt><trkpt lat="59.5608329773" lon="31.2674760818"><ele>0.14</ele><time>2026-09-02T18:38:45Z</time></trkpt><trkpt lat="59.5608329773" lon="31.2674760818"><ele>0.14</ele><time>2026-09-02T18:38:48Z</time></trkpt><trkpt lat="59.5608329773" lon="31.2674760818"><ele>0.14</ele><time>2026-09-02T18:38:50Z</time></trkpt><trkpt lat="59.5608329773" lon="31.2674760818"><ele>0.14</ele><time>2026-09-02T18:38:53Z</time></trkpt><trkpt lat="59.5608329773" lon="31.2674760818"><ele>0.14</ele><time>2026-09-02T18:38:55Z</time></trkpt><trkpt lat="59.5608329773" lon="31.2674760818"><ele>0.14</ele><time>2026-09-02T18:38:58Z</time></trkpt><trkpt lat="59.5608329773" lon="31.2674760818"><ele>0.14</ele><time>2026-09-02T18:39:00Z</time></trkpt><trkpt lat="59.5608329773" lon="31.2674760818"><ele>0.14</ele><time>2026-09-02T18:39:03Z</time></trkpt><trkpt lat="59.5608329773" lon="31.2674760818"><ele>0.14</ele><time>2026-09-02T18:39:05Z</time></trkpt><trkpt lat="59.5608329773" lon="31.2674760818"><ele>0.14</ele><time>2026-09-02T18:39:08Z</time></trkpt><trkpt lat="59.5608329773" lon="31.2674760818"><ele>0.14</ele><time>2026-09-02T18:39:10Z</time></trkpt><trkpt lat="59.5608329773" lon="31.2674760818"><ele>0.14</ele><time>2026-09-02T18:39:13Z</time></trkpt><trkpt lat="59.5608329773" lon="31.2674760818"><ele>0.14</ele><time>2026-09-02T18:39:15Z</time></trkpt><trkpt lat="59.5608329773" lon="31.2674760818"><ele>0.14</ele><time>2026-09-02T18:39:18Z</time></trkpt><trkpt lat="59.5608329773" lon="31.2674760818"><ele>0.14</ele><time>2026-09-02T18:39:20Z</time></trkpt><trkpt lat="59.5608329773" lon="31.2674760818"><ele>0.14</ele><time>2026-09-02T18:39:23Z</time></trkpt><trkpt lat="59.5608329773" lon="31.2674760818"><ele>0.14</ele><time>2026-09-02T18:39:25Z</time></trkpt><trkpt lat="59.5608329773" lon="31.2674760818"><ele>0.14</ele><time>2026-09-02T18:39:28Z</time></trkpt><trkpt lat="59.5608329773" lon="31.2674760818"><ele>0.14</ele><time>2026-09-02T18:39:30Z</time></trkpt><trkpt lat="59.5608329773" lon="31.2674760818"><ele>0.14</ele><time>2026-09-02T18:39:33Z</time></trkpt><trkpt lat="59.5608329773" lon="31.2674760818"><ele>0.14</ele><time>2026-09-02T18:39:35Z</time></trkpt><trkpt lat="59.5608329773" lon="31.2674760818"><ele>0.14</ele><time>2026-09-02T18:39:38Z</time></trkpt><trkpt lat="59.5608329773" lon="31.2674760818"><ele>0.14</ele><time>2026-09-02T18:39:40Z</time></trkpt><trkpt lat="59.5608329773" lon="31.2674760818"><ele>0.14</ele><time>2026-09-02T18:39:43Z</time></trkpt><trkpt lat="59.5608329773" lon="31.2674760818"><ele>0.14</ele><time>2026-09-02T18:39:45Z</time></trkpt><trkpt lat="59.5608329773" lon="31.2674760818"><ele>0.14</ele><time>2026-09-02T18:39:48Z</time></trkpt><trkpt lat="59.5608329773" lon="31.2674760818"><ele>0.14</ele><time>2026-09-02T18:39:50Z</time></trkpt><trkpt lat="59.5608329773" lon="31.2674760818"><ele>0.14</ele><time>2026-09-02T18:39:53Z</time></trkpt><trkpt lat="59.5608329773" lon="31.2674760818"><ele>0.14</ele><time>2026-09-02T18:39:55Z</time></trkpt><trkpt lat="59.5608329773" lon="31.2674760818"><ele>0.14</ele><time>2026-09-02T18:39:58Z</time></trkpt><trkpt lat="59.5608329773" lon="31.2674760818"><ele>0.14</ele><time>2026-09-02T18:40:00Z</time></trkpt><trkpt lat="59.5608329773" lon="31.2674760818"><ele>0.14</ele><time>2026-09-02T18:40:03Z</time></trkpt><trkpt lat="59.5608329773" lon="31.2674760818"><ele>0.14</ele><time>2026-09-02T18:40:05Z</time></trkpt><trkpt lat="59.5608115196" lon="31.2674760818"><ele>0.14</ele><time>2026-09-02T18:40:08Z</time></trkpt><trkpt lat="59.5608115196" lon="31.2674760818"><ele>0.14</ele><time>2026-09-02T18:40:10Z</time></trkpt><trkpt lat="59.5608115196" lon="31.2674760818"><ele>0.14</ele><time>2026-09-02T18:40:13Z</time></trkpt><trkpt lat="59.5608115196" lon="31.2674760818"><ele>0.14</ele><time>2026-09-02T18:40:15Z</time></trkpt><trkpt lat="59.5608115196" lon="31.2674760818"><ele>0.14</ele><time>2026-09-02T18:40:18Z</time></trkpt><trkpt lat="59.5608115196" lon="31.2674760818"><ele>0.14</ele><time>2026-09-02T18:40:20Z</time></trkpt><trkpt lat="59.5608115196" lon="31.2674760818"><ele>0.14</ele><time>2026-09-02T18:40:23Z</time></trkpt><trkpt lat="59.5608115196" lon="31.2674760818"><ele>0.14</ele><time>2026-09-02T18:40:25Z</time></trkpt><trkpt lat="59.5608115196" lon="31.2674975395"><ele>0.14</ele><time>2026-09-02T18:40:28Z</time></trkpt><trkpt lat="59.5607900620" lon="31.2675404549"><ele>0.14</ele><time>2026-09-02T18:40:30Z</time></trkpt><trkpt lat="59.5607900620" lon="31.2675619125"><ele>0.14</ele><time>2026-09-02T18:40:33Z</time></trkpt><trkpt lat="59.5607900620" lon="31.2675619125"><ele>0.14</ele><time>2026-09-02T18:40:35Z</time></trkpt><trkpt lat="59.5607900620" lon="31.2675619125"><ele>0.14</ele><time>2026-09-02T18:40:38Z</time></trkpt><trkpt lat="59.5607900620" lon="31.2675619125"><ele>0.14</ele><time>2026-09-02T18:40:40Z</time></trkpt><trkpt lat="59.5608115196" lon="31.2675619125"><ele>0.14</ele><time>2026-09-02T18:40:43Z</time></trkpt><trkpt lat="59.5608115196" lon="31.2675404549"><ele>0.14</ele><time>2026-09-02T18:40:45Z</time></trkpt><trkpt lat="59.5608115196" lon="31.2675404549"><ele>0.14</ele><time>2026-09-02T18:40:48Z</time></trkpt><trkpt lat="59.5608115196" lon="31.2675404549"><ele>0.14</ele><time>2026-09-02T18:40:50Z</time></trkpt><trkpt lat="59.5608115196" lon="31.2675404549"><ele>0.14</ele><time>2026-09-02T18:40:53Z</time></trkpt><trkpt lat="59.5608115196" lon="31.2675404549"><ele>0.14</ele><time>2026-09-02T18:40:55Z</time></trkpt><trkpt lat="59.5608115196" lon="31.2675404549"><ele>0.14</ele><time>2026-09-02T18:40:58Z</time></trkpt><trkpt lat="59.5608115196" lon="31.2675404549"><ele>0.14</ele><time>2026-09-02T18:41:00Z</time></trkpt><trkpt lat="59.5608115196" lon="31.2675404549"><ele>0.14</ele><time>2026-09-02T18:41:03Z</time></trkpt><trkpt lat="59.5608115196" lon="31.2675404549"><ele>0.14</ele><time>2026-09-02T18:41:05Z</time></trkpt><trkpt lat="59.5608115196" lon="31.2675404549"><ele>0.14</ele><time>2026-09-02T18:41:08Z</time></trkpt><trkpt lat="59.5608115196" lon="31.2675404549"><ele>0.14</ele><time>2026-09-02T18:41:10Z</time></trkpt><trkpt lat="59.5607900620" lon="31.2675619125"><ele>0.14</ele><time>2026-09-02T18:41:13Z</time></trkpt><trkpt lat="59.5607686043" lon="31.2675833702"><ele>0.14</ele><time>2026-09-02T18:41:15Z</time></trkpt><trkpt lat="59.5607471466" lon="31.2676048279"><ele>0.14</ele><time>2026-09-02T18:41:18Z</time></trkpt><trkpt lat="59.5607256889" lon="31.2676262856"><ele>0.14</ele><time>2026-09-02T18:41:20Z</time></trkpt><trkpt lat="59.5607256889" lon="31.2676477432"><ele>0.14</ele><time>2026-09-02T18:41:23Z</time></trkpt><trkpt lat="59.5607042313" lon="31.2676477432"><ele>0.14</ele><time>2026-09-02T18:41:25Z</time></trkpt><trkpt lat="59.5607042313" lon="31.2676692009"><ele>0.14</ele><time>2026-09-02T18:41:28Z</time></trkpt><trkpt lat="59.5606827736" lon="31.2676906586"><ele>0.14</ele><time>2026-09-02T18:41:30Z</time></trkpt><trkpt lat="59.5606827736" lon="31.2677335739"><ele>0.14</ele><time>2026-09-02T18:41:33Z</time></trkpt><trkpt lat="59.5606613159" lon="31.2677550316"><ele>0.14</ele><time>2026-09-02T18:41:35Z</time></trkpt><trkpt lat="59.5606398582" lon="31.2677764893"><ele>0.14</ele><time>2026-09-02T18:41:38Z</time></trkpt><trkpt lat="59.5606398582" lon="31.2677764893"><ele>0.14</ele><time>2026-09-02T18:41:40Z</time></trkpt><trkpt lat="59.5606184006" lon="31.2678194046"><ele>0.14</ele><time>2026-09-02T18:41:45Z</time></trkpt><trkpt lat="59.5605969429" lon="31.2678408623"><ele>0.14</ele><time>2026-09-02T18:41:48Z</time></trkpt><trkpt lat="59.5605754852" lon="31.2678408623"><ele>0.14</ele><time>2026-09-02T18:41:50Z</time></trkpt><trkpt lat="59.5605754852" lon="31.2678408623"><ele>0.14</ele><time>2026-09-02T18:41:53Z</time></trkpt><trkpt lat="59.5605754852" lon="31.2678194046"><ele>0.14</ele><time>2026-09-02T18:41:55Z</time></trkpt><trkpt lat="59.5605754852" lon="31.2678194046"><ele>0.14</ele><time>2026-09-02T18:41:58Z</time></trkpt><trkpt lat="59.5605754852" lon="31.2678194046"><ele>0.14</ele><time>2026-09-02T18:42:00Z</time></trkpt><trkpt lat="59.5605754852" lon="31.2678194046"><ele>0.14</ele><time>2026-09-02T18:42:03Z</time></trkpt><trkpt lat="59.5605754852" lon="31.2678194046"><ele>0.14</ele><time>2026-09-02T18:42:05Z</time></trkpt><trkpt lat="59.5605754852" lon="31.2678194046"><ele>0.14</ele><time>2026-09-02T18:42:08Z</time></trkpt><trkpt lat="59.5605754852" lon="31.2678194046"><ele>0.14</ele><time>2026-09-02T18:42:10Z</time></trkpt><trkpt lat="59.5605754852" lon="31.2678194046"><ele>0.14</ele><time>2026-09-02T18:42:13Z</time></trkpt><trkpt lat="59.5605754852" lon="31.2678194046"><ele>0.14</ele><time>2026-09-02T18:42:15Z</time></trkpt><trkpt lat="59.5605754852" lon="31.2678194046"><ele>0.14</ele><time>2026-09-02T18:42:18Z</time></trkpt><trkpt lat="59.5605540276" lon="31.2678408623"><ele>0.14</ele><time>2026-09-02T18:42:20Z</time></trkpt><trkpt lat="59.5605325699" lon="31.2679052353"><ele>0.14</ele><time>2026-09-02T18:42:23Z</time></trkpt><trkpt lat="59.5605111122" lon="31.2679481506"><ele>0.14</ele><time>2026-09-02T18:42:25Z</time></trkpt><trkpt lat="59.5604681969" lon="31.2679910660"><ele>0.14</ele><time>2026-09-02T18:42:28Z</time></trkpt><trkpt lat="59.5604252815" lon="31.2680125237"><ele>0.14</ele><time>2026-09-02T18:42:30Z</time></trkpt><trkpt lat="59.5604252815" lon="31.2680554390"><ele>0.14</ele><time>2026-09-02T18:42:33Z</time></trkpt><trkpt lat="59.5603823662" lon="31.2681198120"><ele>0.14</ele><time>2026-09-02T18:42:35Z</time></trkpt><trkpt lat="59.5604038239" lon="31.2681841850"><ele>0.14</ele><time>2026-09-02T18:42:38Z</time></trkpt><trkpt lat="59.5604038239" lon="31.2682271004"><ele>0.14</ele><time>2026-09-02T18:42:40Z</time></trkpt><trkpt lat="59.5604252815" lon="31.2682914734"><ele>0.14</ele><time>2026-09-02T18:42:43Z</time></trkpt><trkpt lat="59.5604252815" lon="31.2683773041"><ele>0.14</ele><time>2026-09-02T18:42:45Z</time></trkpt><trkpt lat="59.5604467392" lon="31.2684416771"><ele>0.14</ele><time>2026-09-02T18:42:48Z</time></trkpt><trkpt lat="59.5604467392" lon="31.2684631348"><ele>0.14</ele><time>2026-09-02T18:42:50Z</time></trkpt><trkpt lat="59.5604681969" lon="31.2685489655"><ele>0.14</ele><time>2026-09-02T18:42:53Z</time></trkpt><trkpt lat="59.5604681969" lon="31.2686777115"><ele>0.14</ele><time>2026-09-02T18:42:55Z</time></trkpt><trkpt lat="59.5604681969" lon="31.2688279152"><ele>0.14</ele><time>2026-09-02T18:42:58Z</time></trkpt><trkpt lat="59.5604681969" lon="31.2688922882"><ele>0.14</ele><time>2026-09-02T18:43:00Z</time></trkpt><trkpt lat="59.5604681969" lon="31.2689137459"><ele>0.14</ele><time>2026-09-02T18:43:03Z</time></trkpt><trkpt lat="59.5604681969" lon="31.2689137459"><ele>0.14</ele><time>2026-09-02T18:43:05Z</time></trkpt><trkpt lat="59.5604681969" lon="31.2689352036"><ele>0.14</ele><time>2026-09-02T18:43:08Z</time></trkpt><trkpt lat="59.5604681969" lon="31.2689352036"><ele>0.14</ele><time>2026-09-02T18:43:10Z</time></trkpt><trkpt lat="59.5604467392" lon="31.2689137459"><ele>0.14</ele><time>2026-09-02T18:43:13Z</time></trkpt><trkpt lat="59.5604252815" lon="31.2688493729"><ele>0.14</ele><time>2026-09-02T18:43:15Z</time></trkpt><trkpt lat="59.5604252815" lon="31.2687635422"><ele>0.14</ele><time>2026-09-02T18:43:18Z</time></trkpt><trkpt lat="59.5604038239" lon="31.2686991692"><ele>0.14</ele><time>2026-09-02T18:43:20Z</time></trkpt><trkpt lat="59.5604252815" lon="31.2686133385"><ele>0.14</ele><time>2026-09-02T18:43:23Z</time></trkpt><trkpt lat="59.5604038239" lon="31.2685489655"><ele>0.14</ele><time>2026-09-02T18:43:25Z</time></trkpt><trkpt lat="59.5603394508" lon="31.2685489655"><ele>0.14</ele><time>2026-09-02T18:43:28Z</time></trkpt><trkpt lat="59.5603179932" lon="31.2685060501"><ele>0.14</ele><time>2026-09-02T18:43:30Z</time></trkpt><trkpt lat="59.5602965355" lon="31.2684845924"><ele>0.14</ele><time>2026-09-02T18:43:33Z</time></trkpt><trkpt lat="59.5602750778" lon="31.2684631348"><ele>0.14</ele><time>2026-09-02T18:43:35Z</time></trkpt><trkpt lat="59.5602750778" lon="31.2684416771"><ele>0.14</ele><time>2026-09-02T18:43:38Z</time></trkpt><trkpt lat="59.5602750778" lon="31.2684416771"><ele>0.14</ele><time>2026-09-02T18:43:40Z</time></trkpt><trkpt lat="59.5602107048" lon="31.2685275078"><ele>0.14</ele><time>2026-09-02T18:43:43Z</time></trkpt><trkpt lat="59.5602107048" lon="31.2685489655"><ele>0.14</ele><time>2026-09-02T18:43:45Z</time></trkpt><trkpt lat="59.5602321625" lon="31.2685918808"><ele>0.14</ele><time>2026-09-02T18:43:48Z</time></trkpt><trkpt lat="59.5602107048" lon="31.2686133385"><ele>0.14</ele><time>2026-09-02T18:43:50Z</time></trkpt><trkpt lat="59.5602107048" lon="31.2686347961"><ele>0.14</ele><time>2026-09-02T18:43:53Z</time></trkpt><trkpt lat="59.5602321625" lon="31.2686562538"><ele>0.14</ele><time>2026-09-02T18:43:55Z</time></trkpt><trkpt lat="59.5602321625" lon="31.2686562538"><ele>0.14</ele><time>2026-09-02T18:43:58Z</time></trkpt><trkpt lat="59.5602321625" lon="31.2686133385"><ele>0.14</ele><time>2026-09-02T18:44:00Z</time></trkpt><trkpt lat="59.5602536201" lon="31.2686133385"><ele>0.14</ele><time>2026-09-02T18:44:03Z</time></trkpt><trkpt lat="59.5602750778" lon="31.2686562538"><ele>0.14</ele><time>2026-09-02T18:44:05Z</time></trkpt><trkpt lat="59.5602536201" lon="31.2686562538"><ele>0.14</ele><time>2026-09-02T18:44:08Z</time></trkpt><trkpt lat="59.5602536201" lon="31.2686133385"><ele>0.14</ele><time>2026-09-02T18:44:10Z</time></trkpt><trkpt lat="59.5602536201" lon="31.2686133385"><ele>0.14</ele><time>2026-09-02T18:44:13Z</time></trkpt><trkpt lat="59.5602536201" lon="31.2685918808"><ele>0.14</ele><time>2026-09-02T18:44:15Z</time></trkpt><trkpt lat="59.5602321625" lon="31.2685918808"><ele>0.14</ele><time>2026-09-02T18:44:18Z</time></trkpt><trkpt lat="59.5602321625" lon="31.2685918808"><ele>0.14</ele><time>2026-09-02T18:44:20Z</time></trkpt><trkpt lat="59.5602321625" lon="31.2685918808"><ele>0.14</ele><time>2026-09-02T18:44:23Z</time></trkpt><trkpt lat="59.5602321625" lon="31.2685918808"><ele>0.14</ele><time>2026-09-02T18:44:25Z</time></trkpt><trkpt lat="59.5602321625" lon="31.2685918808"><ele>0.14</ele><time>2026-09-02T18:44:28Z</time></trkpt><trkpt lat="59.5602321625" lon="31.2685918808"><ele>0.14</ele><time>2026-09-02T18:44:30Z</time></trkpt><trkpt lat="59.5602321625" lon="31.2685918808"><ele>0.14</ele><time>2026-09-02T18:44:33Z</time></trkpt><trkpt lat="59.5602321625" lon="31.2685918808"><ele>0.14</ele><time>2026-09-02T18:44:35Z</time></trkpt><trkpt lat="59.5602321625" lon="31.2685918808"><ele>0.14</ele><time>2026-09-02T18:44:38Z</time></trkpt><trkpt lat="59.5602321625" lon="31.2685918808"><ele>0.14</ele><time>2026-09-02T18:44:40Z</time></trkpt><trkpt lat="59.5602321625" lon="31.2685918808"><ele>0.14</ele><time>2026-09-02T18:44:43Z</time></trkpt><trkpt lat="59.5602321625" lon="31.2685918808"><ele>0.14</ele><time>2026-09-02T18:44:45Z</time></trkpt><trkpt lat="59.5602321625" lon="31.2685918808"><ele>0.14</ele><time>2026-09-02T18:44:48Z</time></trkpt><trkpt lat="59.5602321625" lon="31.2685918808"><ele>0.14</ele><time>2026-09-02T18:44:50Z</time></trkpt><trkpt lat="59.5602321625" lon="31.2685918808"><ele>0.14</ele><time>2026-09-02T18:44:53Z</time></trkpt><trkpt lat="59.5602321625" lon="31.2685918808"><ele>0.14</ele><time>2026-09-02T18:44:55Z</time></trkpt><trkpt lat="59.5602321625" lon="31.2685918808"><ele>0.14</ele><time>2026-09-02T18:44:58Z</time></trkpt><trkpt lat="59.5602321625" lon="31.2685918808"><ele>0.14</ele><time>2026-09-02T18:45:00Z</time></trkpt><trkpt lat="59.5602321625" lon="31.2685918808"><ele>0.14</ele><time>2026-09-02T18:45:03Z</time></trkpt><trkpt lat="59.5602321625" lon="31.2685918808"><ele>0.14</ele><time>2026-09-02T18:45:05Z</time></trkpt><trkpt lat="59.5602321625" lon="31.2685704231"><ele>0.14</ele><time>2026-09-02T18:45:08Z</time></trkpt><trkpt lat="59.5602321625" lon="31.2685704231"><ele>0.14</ele><time>2026-09-02T18:45:10Z</time></trkpt><trkpt lat="59.5602321625" lon="31.2685704231"><ele>0.14</ele><time>2026-09-02T18:45:13Z</time></trkpt><trkpt lat="59.5602321625" lon="31.2685704231"><ele>0.14</ele><time>2026-09-02T18:45:15Z</time></trkpt><trkpt lat="59.5602321625" lon="31.2685704231"><ele>0.14</ele><time>2026-09-02T18:45:18Z</time></trkpt><trkpt lat="59.5602321625" lon="31.2685704231"><ele>0.14</ele><time>2026-09-02T18:45:20Z</time></trkpt><trkpt lat="59.5602536201" lon="31.2686347961"><ele>0.14</ele><time>2026-09-02T18:45:23Z</time></trkpt><trkpt lat="59.5602536201" lon="31.2686777115"><ele>0.14</ele><time>2026-09-02T18:45:25Z</time></trkpt><trkpt lat="59.5602536201" lon="31.2686991692"><ele>0.14</ele><time>2026-09-02T18:45:28Z</time></trkpt><trkpt lat="59.5602536201" lon="31.2687206268"><ele>0.14</ele><time>2026-09-02T18:45:30Z</time></trkpt><trkpt lat="59.5602750778" lon="31.2687420845"><ele>0.14</ele><time>2026-09-02T18:45:33Z</time></trkpt><trkpt lat="59.5602750778" lon="31.2687849998"><ele>0.14</ele><time>2026-09-02T18:45:35Z</time></trkpt><trkpt lat="59.5602750778" lon="31.2688064575"><ele>0.14</ele><time>2026-09-02T18:45:38Z</time></trkpt><trkpt lat="59.5602750778" lon="31.2688064575"><ele>0.14</ele><time>2026-09-02T18:45:40Z</time></trkpt><trkpt lat="59.5602536201" lon="31.2688064575"><ele>0.14</ele><time>2026-09-02T18:45:43Z</time></trkpt><trkpt lat="59.5602536201" lon="31.2687849998"><ele>0.14</ele><time>2026-09-02T18:45:45Z</time></trkpt><trkpt lat="59.5602536201" lon="31.2688279152"><ele>0.14</ele><time>2026-09-02T18:45:48Z</time></trkpt><trkpt lat="59.5602321625" lon="31.2688493729"><ele>0.14</ele><time>2026-09-02T18:45:50Z</time></trkpt><trkpt lat="59.5602321625" lon="31.2688493729"><ele>0.14</ele><time>2026-09-02T18:45:53Z</time></trkpt><trkpt lat="59.5602321625" lon="31.2688708305"><ele>0.14</ele><time>2026-09-02T18:45:55Z</time></trkpt><trkpt lat="59.5602536201" lon="31.2689137459"><ele>0.14</ele><time>2026-09-02T18:45:58Z</time></trkpt><trkpt lat="59.5602536201" lon="31.2689566612"><ele>0.14</ele><time>2026-09-02T18:46:00Z</time></trkpt><trkpt lat="59.5602536201" lon="31.2689995766"><ele>0.14</ele><time>2026-09-02T18:46:03Z</time></trkpt><trkpt lat="59.5602536201" lon="31.2690210342"><ele>0.14</ele><time>2026-09-02T18:46:05Z</time></trkpt><trkpt lat="59.5602321625" lon="31.2690424919"><ele>0.14</ele><time>2026-09-02T18:46:08Z</time></trkpt><trkpt lat="59.5602321625" lon="31.2690854073"><ele>0.14</ele><time>2026-09-02T18:46:10Z</time></trkpt><trkpt lat="59.5602321625" lon="31.2691068649"><ele>0.14</ele><time>2026-09-02T18:46:13Z</time></trkpt><trkpt lat="59.5602321625" lon="31.2691497803"><ele>0.14</ele><time>2026-09-02T18:46:15Z</time></trkpt><trkpt lat="59.5602107048" lon="31.2691712379"><ele>0.14</ele><time>2026-09-02T18:46:18Z</time></trkpt><trkpt lat="59.5602107048" lon="31.2691712379"><ele>0.14</ele><time>2026-09-02T18:46:20Z</time></trkpt><trkpt lat="59.5602107048" lon="31.2691497803"><ele>0.14</ele><time>2026-09-02T18:46:23Z</time></trkpt><trkpt lat="59.5602107048" lon="31.2691283226"><ele>0.14</ele><time>2026-09-02T18:46:25Z</time></trkpt><trkpt lat="59.5602107048" lon="31.2691283226"><ele>0.14</ele><time>2026-09-02T18:46:28Z</time></trkpt><trkpt lat="59.5602107048" lon="31.2691283226"><ele>0.14</ele><time>2026-09-02T18:46:30Z</time></trkpt><trkpt lat="59.5602107048" lon="31.2690854073"><ele>0.14</ele><time>2026-09-02T18:46:33Z</time></trkpt><trkpt lat="59.5601892471" lon="31.2690854073"><ele>0.14</ele><time>2026-09-02T18:46:35Z</time></trkpt><trkpt lat="59.5601677895" lon="31.2690854073"><ele>0.14</ele><time>2026-09-02T18:46:38Z</time></trkpt><trkpt lat="59.5601463318" lon="31.2690639496"><ele>0.14</ele><time>2026-09-02T18:46:40Z</time></trkpt><trkpt lat="59.5601034164" lon="31.2690854073"><ele>0.14</ele><time>2026-09-02T18:46:43Z</time></trkpt><trkpt lat="59.5601034164" lon="31.2691497803"><ele>0.14</ele><time>2026-09-02T18:46:45Z</time></trkpt><trkpt lat="59.5600819588" lon="31.2691926956"><ele>0.14</ele><time>2026-09-02T18:46:48Z</time></trkpt><trkpt lat="59.5601034164" lon="31.2692141533"><ele>0.14</ele><time>2026-09-02T18:46:50Z</time></trkpt><trkpt lat="59.5600605011" lon="31.2692141533"><ele>0.14</ele><time>2026-09-02T18:46:53Z</time></trkpt><trkpt lat="59.5600390434" lon="31.2691926956"><ele>0.14</ele><time>2026-09-02T18:46:55Z</time></trkpt><trkpt lat="59.5600175858" lon="31.2692141533"><ele>0.14</ele><time>2026-09-02T18:46:58Z</time></trkpt><trkpt lat="59.5599961281" lon="31.2692141533"><ele>0.14</ele><time>2026-09-02T18:47:00Z</time></trkpt><trkpt lat="59.5599961281" lon="31.2692141533"><ele>0.14</ele><time>2026-09-02T18:47:03Z</time></trkpt><trkpt lat="59.5599746704" lon="31.2692141533"><ele>0.14</ele><time>2026-09-02T18:47:05Z</time></trkpt><trkpt lat="59.5599532127" lon="31.2691926956"><ele>0.14</ele><time>2026-09-02T18:47:08Z</time></trkpt><trkpt lat="59.5599317551" lon="31.2691926956"><ele>0.14</ele><time>2026-09-02T18:47:10Z</time></trkpt><trkpt lat="59.5599317551" lon="31.2692141533"><ele>0.14</ele><time>2026-09-02T18:47:13Z</time></trkpt><trkpt lat="59.5599102974" lon="31.2692141533"><ele>0.14</ele><time>2026-09-02T18:47:15Z</time></trkpt><trkpt lat="59.5598888397" lon="31.2692141533"><ele>0.14</ele><time>2026-09-02T18:47:18Z</time></trkpt><trkpt lat="59.5598888397" lon="31.2691926956"><ele>0.14</ele><time>2026-09-02T18:47:20Z</time></trkpt><trkpt lat="59.5598888397" lon="31.2692141533"><ele>0.14</ele><time>2026-09-02T18:47:23Z</time></trkpt><trkpt lat="59.5598888397" lon="31.2692141533"><ele>0.14</ele><time>2026-09-02T18:47:25Z</time></trkpt><trkpt lat="59.5598888397" lon="31.2692356110"><ele>0.14</ele><time>2026-09-02T18:47:28Z</time></trkpt><trkpt lat="59.5598888397" lon="31.2692356110"><ele>0.14</ele><time>2026-09-02T18:47:30Z</time></trkpt><trkpt lat="59.5598888397" lon="31.2692356110"><ele>0.14</ele><time>2026-09-02T18:47:33Z</time></trkpt><trkpt lat="59.5598888397" lon="31.2692356110"><ele>0.14</ele><time>2026-09-02T18:47:35Z</time></trkpt><trkpt lat="59.5598888397" lon="31.2692356110"><ele>0.14</ele><time>2026-09-02T18:47:38Z</time></trkpt><trkpt lat="59.5598888397" lon="31.2692356110"><ele>0.14</ele><time>2026-09-02T18:47:40Z</time></trkpt><trkpt lat="59.5598888397" lon="31.2692356110"><ele>0.14</ele><time>2026-09-02T18:47:43Z</time></trkpt><trkpt lat="59.5598888397" lon="31.2692356110"><ele>0.14</ele><time>2026-09-02T18:47:45Z</time></trkpt><trkpt lat="59.5598888397" lon="31.2692356110"><ele>0.14</ele><time>2026-09-02T18:47:48Z</time></trkpt><trkpt lat="59.5598888397" lon="31.2692356110"><ele>0.14</ele><time>2026-09-02T18:47:50Z</time></trkpt><trkpt lat="59.5598888397" lon="31.2692356110"><ele>0.14</ele><time>2026-09-02T18:47:53Z</time></trkpt><trkpt lat="59.5598673820" lon="31.2692356110"><ele>0.14</ele><time>2026-09-02T18:47:55Z</time></trkpt><trkpt lat="59.5598673820" lon="31.2692356110"><ele>0.14</ele><time>2026-09-02T18:47:58Z</time></trkpt><trkpt lat="59.5598673820" lon="31.2692141533"><ele>0.14</ele><time>2026-09-02T18:48:00Z</time></trkpt><trkpt lat="59.5598459244" lon="31.2692141533"><ele>0.14</ele><time>2026-09-02T18:48:03Z</time></trkpt><trkpt lat="59.5598459244" lon="31.2691926956"><ele>0.14</ele><time>2026-09-02T18:48:05Z</time></trkpt><trkpt lat="59.5598244667" lon="31.2691712379"><ele>0.14</ele><time>2026-09-02T18:48:08Z</time></trkpt><trkpt lat="59.5598244667" lon="31.2691712379"><ele>0.14</ele><time>2026-09-02T18:48:10Z</time></trkpt><trkpt lat="59.5598244667" lon="31.2691497803"><ele>0.14</ele><time>2026-09-02T18:48:13Z</time></trkpt><trkpt lat="59.5598030090" lon="31.2691497803"><ele>0.14</ele><time>2026-09-02T18:48:15Z</time></trkpt><trkpt lat="59.5598030090" lon="31.2691497803"><ele>0.14</ele><time>2026-09-02T18:48:18Z</time></trkpt><trkpt lat="59.5598030090" lon="31.2691497803"><ele>0.14</ele><time>2026-09-02T18:48:20Z</time></trkpt><trkpt lat="59.5597815514" lon="31.2691283226"><ele>0.14</ele><time>2026-09-02T18:48:23Z</time></trkpt><trkpt lat="59.5597815514" lon="31.2691283226"><ele>0.14</ele><time>2026-09-02T18:48:25Z</time></trkpt><trkpt lat="59.5597815514" lon="31.2691283226"><ele>0.14</ele><time>2026-09-02T18:48:28Z</time></trkpt><trkpt lat="59.5597815514" lon="31.2691283226"><ele>0.14</ele><time>2026-09-02T18:48:30Z</time></trkpt><trkpt lat="59.5597815514" lon="31.2691283226"><ele>0.14</ele><time>2026-09-02T18:48:33Z</time></trkpt><trkpt lat="59.5597600937" lon="31.2691283226"><ele>0.14</ele><time>2026-09-02T18:48:35Z</time></trkpt><trkpt lat="59.5597600937" lon="31.2691283226"><ele>0.14</ele><time>2026-09-02T18:48:38Z</time></trkpt><trkpt lat="59.5597600937" lon="31.2691283226"><ele>0.14</ele><time>2026-09-02T18:48:40Z</time></trkpt><trkpt lat="59.5597600937" lon="31.2691283226"><ele>0.14</ele><time>2026-09-02T18:48:43Z</time></trkpt><trkpt lat="59.5597600937" lon="31.2691283226"><ele>0.14</ele><time>2026-09-02T18:48:45Z</time></trkpt><trkpt lat="59.5597600937" lon="31.2691283226"><ele>0.14</ele><time>2026-09-02T18:48:48Z</time></trkpt><trkpt lat="59.5597600937" lon="31.2691283226"><ele>0.14</ele><time>2026-09-02T18:48:50Z</time></trkpt><trkpt lat="59.5597600937" lon="31.2691497803"><ele>0.14</ele><time>2026-09-02T18:48:53Z</time></trkpt><trkpt lat="59.5597600937" lon="31.2691497803"><ele>0.14</ele><time>2026-09-02T18:48:55Z</time></trkpt><trkpt lat="59.5597600937" lon="31.2691497803"><ele>0.14</ele><time>2026-09-02T18:48:58Z</time></trkpt><trkpt lat="59.5597600937" lon="31.2691497803"><ele>0.14</ele><time>2026-09-02T18:49:00Z</time></trkpt><trkpt lat="59.5597600937" lon="31.2691497803"><ele>0.14</ele><time>2026-09-02T18:49:03Z</time></trkpt><trkpt lat="59.5597386360" lon="31.2691497803"><ele>0.14</ele><time>2026-09-02T18:49:05Z</time></trkpt><trkpt lat="59.5597386360" lon="31.2691068649"><ele>0.14</ele><time>2026-09-02T18:49:08Z</time></trkpt><trkpt lat="59.5597386360" lon="31.2690639496"><ele>0.14</ele><time>2026-09-02T18:49:10Z</time></trkpt><trkpt lat="59.5597386360" lon="31.2690424919"><ele>0.14</ele><time>2026-09-02T18:49:13Z</time></trkpt><trkpt lat="59.5597386360" lon="31.2690210342"><ele>0.14</ele><time>2026-09-02T18:49:15Z</time></trkpt><trkpt lat="59.5597386360" lon="31.2689995766"><ele>0.14</ele><time>2026-09-02T18:49:18Z</time></trkpt><trkpt lat="59.5597386360" lon="31.2689995766"><ele>0.14</ele><time>2026-09-02T18:49:20Z</time></trkpt><trkpt lat="59.5597171783" lon="31.2689566612"><ele>0.14</ele><time>2026-09-02T18:49:23Z</time></trkpt><trkpt lat="59.5597171783" lon="31.2689352036"><ele>0.14</ele><time>2026-09-02T18:49:25Z</time></trkpt><trkpt lat="59.5597171783" lon="31.2689352036"><ele>0.14</ele><time>2026-09-02T18:49:28Z</time></trkpt><trkpt lat="59.5597386360" lon="31.2689137459"><ele>0.14</ele><time>2026-09-02T18:49:30Z</time></trkpt><trkpt lat="59.5597171783" lon="31.2689137459"><ele>0.14</ele><time>2026-09-02T18:49:33Z</time></trkpt><trkpt lat="59.5597171783" lon="31.2689137459"><ele>0.14</ele><time>2026-09-02T18:49:35Z</time></trkpt><trkpt lat="59.5596957207" lon="31.2689137459"><ele>0.14</ele><time>2026-09-02T18:49:38Z</time></trkpt><trkpt lat="59.5597171783" lon="31.2689137459"><ele>0.14</ele><time>2026-09-02T18:49:40Z</time></trkpt><trkpt lat="59.5597171783" lon="31.2689137459"><ele>0.14</ele><time>2026-09-02T18:49:43Z</time></trkpt><trkpt lat="59.5597171783" lon="31.2689137459"><ele>0.14</ele><time>2026-09-02T18:49:45Z</time></trkpt><trkpt lat="59.5597171783" lon="31.2689352036"><ele>0.14</ele><time>2026-09-02T18:49:48Z</time></trkpt><trkpt lat="59.5597386360" lon="31.2689352036"><ele>0.14</ele><time>2026-09-02T18:49:50Z</time></trkpt><trkpt lat="59.5597386360" lon="31.2689352036"><ele>0.14</ele><time>2026-09-02T18:49:53Z</time></trkpt><trkpt lat="59.5597171783" lon="31.2690210342"><ele>0.14</ele><time>2026-09-02T18:49:55Z</time></trkpt><trkpt lat="59.5597171783" lon="31.2690639496"><ele>0.14</ele><time>2026-09-02T18:49:58Z</time></trkpt><trkpt lat="59.5596957207" lon="31.2690639496"><ele>0.14</ele><time>2026-09-02T18:50:00Z</time></trkpt><trkpt lat="59.5597171783" lon="31.2690854073"><ele>0.14</ele><time>2026-09-02T18:50:03Z</time></trkpt><trkpt lat="59.5597171783" lon="31.2690854073"><ele>0.14</ele><time>2026-09-02T18:50:05Z</time></trkpt><trkpt lat="59.5597171783" lon="31.2691068649"><ele>0.14</ele><time>2026-09-02T18:50:08Z</time></trkpt><trkpt lat="59.5597171783" lon="31.2691283226"><ele>0.14</ele><time>2026-09-02T18:50:10Z</time></trkpt><trkpt lat="59.5597386360" lon="31.2691283226"><ele>0.14</ele><time>2026-09-02T18:50:13Z</time></trkpt><trkpt lat="59.5597386360" lon="31.2691283226"><ele>0.14</ele><time>2026-09-02T18:50:15Z</time></trkpt><trkpt lat="59.5597171783" lon="31.2691497803"><ele>0.14</ele><time>2026-09-02T18:50:18Z</time></trkpt><trkpt lat="59.5597171783" lon="31.2691497803"><ele>0.14</ele><time>2026-09-02T18:50:20Z</time></trkpt><trkpt lat="59.5596957207" lon="31.2691926956"><ele>0.14</ele><time>2026-09-02T18:50:23Z</time></trkpt><trkpt lat="59.5597171783" lon="31.2692356110"><ele>0.14</ele><time>2026-09-02T18:50:25Z</time></trkpt><trkpt lat="59.5597386360" lon="31.2692785263"><ele>0.14</ele><time>2026-09-02T18:50:28Z</time></trkpt><trkpt lat="59.5597815514" lon="31.2693214417"><ele>0.14</ele><time>2026-09-02T18:50:30Z</time></trkpt><trkpt lat="59.5598030090" lon="31.2693214417"><ele>0.14</ele><time>2026-09-02T18:50:33Z</time></trkpt><trkpt lat="59.5597815514" lon="31.2693428993"><ele>0.14</ele><time>2026-09-02T18:50:35Z</time></trkpt><trkpt lat="59.5597815514" lon="31.2693643570"><ele>0.14</ele><time>2026-09-02T18:50:38Z</time></trkpt><trkpt lat="59.5597600937" lon="31.2693858147"><ele>0.14</ele><time>2026-09-02T18:50:40Z</time></trkpt><trkpt lat="59.5597600937" lon="31.2693858147"><ele>0.14</ele><time>2026-09-02T18:50:43Z</time></trkpt><trkpt lat="59.5597600937" lon="31.2693643570"><ele>0.14</ele><time>2026-09-02T18:50:45Z</time></trkpt><trkpt lat="59.5597600937" lon="31.2693643570"><ele>0.14</ele><time>2026-09-02T18:50:48Z</time></trkpt><trkpt lat="59.5597815514" lon="31.2693643570"><ele>0.14</ele><time>2026-09-02T18:50:50Z</time></trkpt><trkpt lat="59.5598030090" lon="31.2693643570"><ele>0.14</ele><time>2026-09-02T18:50:53Z</time></trkpt><trkpt lat="59.5598030090" lon="31.2693643570"><ele>0.14</ele><time>2026-09-02T18:50:55Z</time></trkpt><trkpt lat="59.5598244667" lon="31.2694072723"><ele>0.14</ele><time>2026-09-02T18:50:58Z</time></trkpt><trkpt lat="59.5598244667" lon="31.2694501877"><ele>0.14</ele><time>2026-09-02T18:51:00Z</time></trkpt><trkpt lat="59.5598244667" lon="31.2695145607"><ele>0.14</ele><time>2026-09-02T18:51:03Z</time></trkpt><trkpt lat="59.5598459244" lon="31.2695574760"><ele>0.14</ele><time>2026-09-02T18:51:05Z</time></trkpt><trkpt lat="59.5598244667" lon="31.2695574760"><ele>0.14</ele><time>2026-09-02T18:51:08Z</time></trkpt><trkpt lat="59.5598244667" lon="31.2695789337"><ele>0.14</ele><time>2026-09-02T18:51:10Z</time></trkpt><trkpt lat="59.5598244667" lon="31.2696003914"><ele>0.14</ele><time>2026-09-02T18:51:13Z</time></trkpt><trkpt lat="59.5598244667" lon="31.2696433067"><ele>0.14</ele><time>2026-09-02T18:51:15Z</time></trkpt><trkpt lat="59.5598459244" lon="31.2696862221"><ele>0.14</ele><time>2026-09-02T18:51:18Z</time></trkpt><trkpt lat="59.5598459244" lon="31.2697076797"><ele>0.14</ele><time>2026-09-02T18:51:20Z</time></trkpt><trkpt lat="59.5598673820" lon="31.2697291374"><ele>0.14</ele><time>2026-09-02T18:51:23Z</time></trkpt><trkpt lat="59.5598888397" lon="31.2697505951"><ele>0.14</ele><time>2026-09-02T18:51:25Z</time></trkpt><trkpt lat="59.5599102974" lon="31.2697505951"><ele>0.14</ele><time>2026-09-02T18:51:28Z</time></trkpt><trkpt lat="59.5599102974" lon="31.2697505951"><ele>0.14</ele><time>2026-09-02T18:51:30Z</time></trkpt><trkpt lat="59.5599317551" lon="31.2697720528"><ele>0.14</ele><time>2026-09-02T18:51:33Z</time></trkpt><trkpt lat="59.5599532127" lon="31.2697935104"><ele>0.14</ele><time>2026-09-02T18:51:35Z</time></trkpt><trkpt lat="59.5599746704" lon="31.2698578835"><ele>0.14</ele><time>2026-09-02T18:51:38Z</time></trkpt><trkpt lat="59.5599961281" lon="31.2698578835"><ele>0.14</ele><time>2026-09-02T18:51:40Z</time></trkpt><trkpt lat="59.5600175858" lon="31.2698793411"><ele>0.14</ele><time>2026-09-02T18:51:43Z</time></trkpt><trkpt lat="59.5600175858" lon="31.2698793411"><ele>0.14</ele><time>2026-09-02T18:51:45Z</time></trkpt><trkpt lat="59.5600175858" lon="31.2698793411"><ele>0.14</ele><time>2026-09-02T18:51:48Z</time></trkpt><trkpt lat="59.5600175858" lon="31.2699222565"><ele>0.14</ele><time>2026-09-02T18:51:50Z</time></trkpt><trkpt lat="59.5600175858" lon="31.2699222565"><ele>0.14</ele><time>2026-09-02T18:51:53Z</time></trkpt><trkpt lat="59.5599961281" lon="31.2699007988"><ele>0.14</ele><time>2026-09-02T18:51:55Z</time></trkpt><trkpt lat="59.5599102974" lon="31.2698149681"><ele>0.14</ele><time>2026-09-02T18:51:58Z</time></trkpt><trkpt lat="59.5598459244" lon="31.2697076797"><ele>0.14</ele><time>2026-09-02T18:52:00Z</time></trkpt><trkpt lat="59.5598244667" lon="31.2697076797"><ele>0.14</ele><time>2026-09-02T18:52:03Z</time></trkpt><trkpt lat="59.5598244667" lon="31.2697720528"><ele>0.14</ele><time>2026-09-02T18:52:05Z</time></trkpt><trkpt lat="59.5597815514" lon="31.2698149681"><ele>0.14</ele><time>2026-09-02T18:52:08Z</time></trkpt><trkpt lat="59.5597386360" lon="31.2698578835"><ele>0.14</ele><time>2026-09-02T18:52:10Z</time></trkpt><trkpt lat="59.5596957207" lon="31.2699222565"><ele>0.14</ele><time>2026-09-02T18:52:13Z</time></trkpt><trkpt lat="59.5596742630" lon="31.2699651718"><ele>0.14</ele><time>2026-09-02T18:52:15Z</time></trkpt><trkpt lat="59.5596528053" lon="31.2700080872"><ele>0.14</ele><time>2026-09-02T18:52:18Z</time></trkpt><trkpt lat="59.5596098900" lon="31.2700080872"><ele>0.14</ele><time>2026-09-02T18:52:20Z</time></trkpt><trkpt lat="59.5595884323" lon="31.2700080872"><ele>0.14</ele><time>2026-09-02T18:52:23Z</time></trkpt><trkpt lat="59.5595884323" lon="31.2700295448"><ele>0.14</ele><time>2026-09-02T18:52:25Z</time></trkpt><trkpt lat="59.5595884323" lon="31.2700295448"><ele>0.14</ele><time>2026-09-02T18:52:28Z</time></trkpt><trkpt lat="59.5595884323" lon="31.2700295448"><ele>0.14</ele><time>2026-09-02T18:52:30Z</time></trkpt><trkpt lat="59.5595884323" lon="31.2700295448"><ele>0.14</ele><time>2026-09-02T18:52:33Z</time></trkpt><trkpt lat="59.5595884323" lon="31.2700295448"><ele>0.14</ele><time>2026-09-02T18:52:35Z</time></trkpt><trkpt lat="59.5595884323" lon="31.2700295448"><ele>0.14</ele><time>2026-09-02T18:52:38Z</time></trkpt><trkpt lat="59.5595884323" lon="31.2700295448"><ele>0.14</ele><time>2026-09-02T18:52:40Z</time></trkpt><trkpt lat="59.5595884323" lon="31.2700295448"><ele>0.14</ele><time>2026-09-02T18:52:43Z</time></trkpt><trkpt lat="59.5595884323" lon="31.2700295448"><ele>0.14</ele><time>2026-09-02T18:52:45Z</time></trkpt><trkpt lat="59.5595884323" lon="31.2700080872"><ele>0.14</ele><time>2026-09-02T18:52:48Z</time></trkpt><trkpt lat="59.5595884323" lon="31.2699866295"><ele>0.14</ele><time>2026-09-02T18:52:50Z</time></trkpt><trkpt lat="59.5596098900" lon="31.2700080872"><ele>0.14</ele><time>2026-09-02T18:52:53Z</time></trkpt><trkpt lat="59.5596098900" lon="31.2700080872"><ele>0.14</ele><time>2026-09-02T18:52:55Z</time></trkpt><trkpt lat="59.5596098900" lon="31.2700080872"><ele>0.14</ele><time>2026-09-02T18:52:58Z</time></trkpt><trkpt lat="59.5596098900" lon="31.2700080872"><ele>0.14</ele><time>2026-09-02T18:53:00Z</time></trkpt><trkpt lat="59.5596098900" lon="31.2700080872"><ele>0.14</ele><time>2026-09-02T18:53:03Z</time></trkpt><trkpt lat="59.5596098900" lon="31.2700080872"><ele>0.14</ele><time>2026-09-02T18:53:05Z</time></trkpt><trkpt lat="59.5596098900" lon="31.2700080872"><ele>0.14</ele><time>2026-09-02T18:53:08Z</time></trkpt><trkpt lat="59.5596098900" lon="31.2700080872"><ele>0.14</ele><time>2026-09-02T18:53:10Z</time></trkpt><trkpt lat="59.5596098900" lon="31.2699866295"><ele>0.14</ele><time>2026-09-02T18:53:13Z</time></trkpt><trkpt lat="59.5596098900" lon="31.2699866295"><ele>0.14</ele><time>2026-09-02T18:53:15Z</time></trkpt><trkpt lat="59.5595884323" lon="31.2699866295"><ele>0.14</ele><time>2026-09-02T18:53:18Z</time></trkpt><trkpt lat="59.5596098900" lon="31.2699866295"><ele>0.14</ele><time>2026-09-02T18:53:20Z</time></trkpt><trkpt lat="59.5596098900" lon="31.2699866295"><ele>0.14</ele><time>2026-09-02T18:53:23Z</time></trkpt><trkpt lat="59.5596098900" lon="31.2699866295"><ele>0.14</ele><time>2026-09-02T18:53:25Z</time></trkpt><trkpt lat="59.5596098900" lon="31.2699866295"><ele>0.14</ele><time>2026-09-02T18:53:28Z</time></trkpt><trkpt lat="59.5596098900" lon="31.2699866295"><ele>0.14</ele><time>2026-09-02T18:53:30Z</time></trkpt><trkpt lat="59.5596098900" lon="31.2699866295"><ele>0.14</ele><time>2026-09-02T18:53:33Z</time></trkpt><trkpt lat="59.5596098900" lon="31.2699866295"><ele>0.14</ele><time>2026-09-02T18:53:35Z</time></trkpt><trkpt lat="59.5596098900" lon="31.2699866295"><ele>0.14</ele><time>2026-09-02T18:53:38Z</time></trkpt><trkpt lat="59.5596098900" lon="31.2699866295"><ele>0.14</ele><time>2026-09-02T18:53:40Z</time></trkpt><trkpt lat="59.5596098900" lon="31.2699866295"><ele>0.14</ele><time>2026-09-02T18:53:43Z</time></trkpt><trkpt lat="59.5596098900" lon="31.2699866295"><ele>0.14</ele><time>2026-09-02T18:53:45Z</time></trkpt><trkpt lat="59.5596098900" lon="31.2699866295"><ele>0.14</ele><time>2026-09-02T18:53:48Z</time></trkpt><trkpt lat="59.5595884323" lon="31.2699866295"><ele>0.14</ele><time>2026-09-02T18:53:50Z</time></trkpt><trkpt lat="59.5595240593" lon="31.2700295448"><ele>0.14</ele><time>2026-09-02T18:53:53Z</time></trkpt><trkpt lat="59.5595026016" lon="31.2700295448"><ele>0.14</ele><time>2026-09-02T18:53:55Z</time></trkpt><trkpt lat="59.5594811440" lon="31.2700724602"><ele>0.14</ele><time>2026-09-02T18:53:58Z</time></trkpt><trkpt lat="59.5595026016" lon="31.2701582909"><ele>0.14</ele><time>2026-09-02T18:54:00Z</time></trkpt><trkpt lat="59.5595026016" lon="31.2703084946"><ele>0.14</ele><time>2026-09-02T18:54:03Z</time></trkpt><trkpt lat="59.5594811440" lon="31.2703943253"><ele>0.14</ele><time>2026-09-02T18:54:05Z</time></trkpt><trkpt lat="59.5594382286" lon="31.2704372406"><ele>0.14</ele><time>2026-09-02T18:54:08Z</time></trkpt><trkpt lat="59.5594382286" lon="31.2704801559"><ele>0.14</ele><time>2026-09-02T18:54:10Z</time></trkpt><trkpt lat="59.5594596863" lon="31.2705016136"><ele>0.14</ele><time>2026-09-02T18:54:13Z</time></trkpt><trkpt lat="59.5594596863" lon="31.2705230713"><ele>0.14</ele><time>2026-09-02T18:54:15Z</time></trkpt><trkpt lat="59.5594596863" lon="31.2705230713"><ele>0.14</ele><time>2026-09-02T18:54:18Z</time></trkpt><trkpt lat="59.5594596863" lon="31.2705230713"><ele>0.14</ele><time>2026-09-02T18:54:20Z</time></trkpt><trkpt lat="59.5594382286" lon="31.2705230713"><ele>0.14</ele><time>2026-09-02T18:54:23Z</time></trkpt><trkpt lat="59.5594382286" lon="31.2705445290"><ele>0.14</ele><time>2026-09-02T18:54:25Z</time></trkpt><trkpt lat="59.5594382286" lon="31.2705659866"><ele>0.14</ele><time>2026-09-02T18:54:28Z</time></trkpt><trkpt lat="59.5594167709" lon="31.2706089020"><ele>0.14</ele><time>2026-09-02T18:54:30Z</time></trkpt><trkpt lat="59.5593953133" lon="31.2706518173"><ele>0.14</ele><time>2026-09-02T18:54:33Z</time></trkpt><trkpt lat="59.5593523979" lon="31.2706732750"><ele>0.14</ele><time>2026-09-02T18:54:35Z</time></trkpt><trkpt lat="59.5593309402" lon="31.2706732750"><ele>0.14</ele><time>2026-09-02T18:54:38Z</time></trkpt><trkpt lat="59.5593094826" lon="31.2706732750"><ele>0.14</ele><time>2026-09-02T18:54:40Z</time></trkpt><trkpt lat="59.5592880249" lon="31.2706732750"><ele>0.14</ele><time>2026-09-02T18:54:43Z</time></trkpt><trkpt lat="59.5592665672" lon="31.2706303596"><ele>0.14</ele><time>2026-09-02T18:54:45Z</time></trkpt><trkpt lat="59.5592451096" lon="31.2705874443"><ele>0.14</ele><time>2026-09-02T18:54:48Z</time></trkpt><trkpt lat="59.5592451096" lon="31.2705659866"><ele>0.14</ele><time>2026-09-02T18:54:50Z</time></trkpt><trkpt lat="59.5592236519" lon="31.2706089020"><ele>0.14</ele><time>2026-09-02T18:54:53Z</time></trkpt><trkpt lat="59.5592236519" lon="31.2706518173"><ele>0.14</ele><time>2026-09-02T18:54:55Z</time></trkpt><trkpt lat="59.5592236519" lon="31.2706732750"><ele>0.14</ele><time>2026-09-02T18:54:58Z</time></trkpt><trkpt lat="59.5592236519" lon="31.2706732750"><ele>0.14</ele><time>2026-09-02T18:55:00Z</time></trkpt><trkpt lat="59.5592236519" lon="31.2706732750"><ele>0.14</ele><time>2026-09-02T18:55:03Z</time></trkpt><trkpt lat="59.5592236519" lon="31.2706732750"><ele>0.14</ele><time>2026-09-02T18:55:05Z</time></trkpt><trkpt lat="59.5592021942" lon="31.2706947327"><ele>0.14</ele><time>2026-09-02T18:55:08Z</time></trkpt><trkpt lat="59.5591807365" lon="31.2707161903"><ele>0.14</ele><time>2026-09-02T18:55:10Z</time></trkpt><trkpt lat="59.5591807365" lon="31.2707161903"><ele>0.14</ele><time>2026-09-02T18:55:13Z</time></trkpt><trkpt lat="59.5591592789" lon="31.2707161903"><ele>0.14</ele><time>2026-09-02T18:55:15Z</time></trkpt><trkpt lat="59.5591592789" lon="31.2706947327"><ele>0.14</ele><time>2026-09-02T18:55:18Z</time></trkpt><trkpt lat="59.5591378212" lon="31.2706947327"><ele>0.14</ele><time>2026-09-02T18:55:20Z</time></trkpt><trkpt lat="59.5591378212" lon="31.2706947327"><ele>0.14</ele><time>2026-09-02T18:55:23Z</time></trkpt><trkpt lat="59.5591163635" lon="31.2706947327"><ele>0.14</ele><time>2026-09-02T18:55:25Z</time></trkpt><trkpt lat="59.5591163635" lon="31.2706947327"><ele>0.14</ele><time>2026-09-02T18:55:28Z</time></trkpt><trkpt lat="59.5590949059" lon="31.2706732750"><ele>0.14</ele><time>2026-09-02T18:55:30Z</time></trkpt><trkpt lat="59.5590949059" lon="31.2706732750"><ele>0.14</ele><time>2026-09-02T18:55:33Z</time></trkpt><trkpt lat="59.5590949059" lon="31.2706732750"><ele>0.14</ele><time>2026-09-02T18:55:35Z</time></trkpt><trkpt lat="59.5590949059" lon="31.2706732750"><ele>0.14</ele><time>2026-09-02T18:55:38Z</time></trkpt><trkpt lat="59.5590949059" lon="31.2706732750"><ele>0.14</ele><time>2026-09-02T18:55:40Z</time></trkpt><trkpt lat="59.5590949059" lon="31.2706518173"><ele>0.14</ele><time>2026-09-02T18:55:43Z</time></trkpt><trkpt lat="59.5590949059" lon="31.2706303596"><ele>0.14</ele><time>2026-09-02T18:55:45Z</time></trkpt><trkpt lat="59.5590734482" lon="31.2705874443"><ele>0.14</ele><time>2026-09-02T18:55:48Z</time></trkpt><trkpt lat="59.5590734482" lon="31.2705659866"><ele>0.14</ele><time>2026-09-02T18:55:50Z</time></trkpt><trkpt lat="59.5590734482" lon="31.2705445290"><ele>0.14</ele><time>2026-09-02T18:55:53Z</time></trkpt><trkpt lat="59.5590949059" lon="31.2705230713"><ele>0.14</ele><time>2026-09-02T18:55:55Z</time></trkpt><trkpt lat="59.5590949059" lon="31.2705230713"><ele>0.14</ele><time>2026-09-02T18:55:58Z</time></trkpt><trkpt lat="59.5590949059" lon="31.2705445290"><ele>0.14</ele><time>2026-09-02T18:56:00Z</time></trkpt><trkpt lat="59.5591163635" lon="31.2705445290"><ele>0.14</ele><time>2026-09-02T18:56:03Z</time></trkpt><trkpt lat="59.5591378212" lon="31.2705874443"><ele>0.14</ele><time>2026-09-02T18:56:05Z</time></trkpt><trkpt lat="59.5591163635" lon="31.2706089020"><ele>0.14</ele><time>2026-09-02T18:56:08Z</time></trkpt><trkpt lat="59.5590949059" lon="31.2706303596"><ele>0.14</ele><time>2026-09-02T18:56:10Z</time></trkpt><trkpt lat="59.5590734482" lon="31.2706518173"><ele>0.14</ele><time>2026-09-02T18:56:13Z</time></trkpt><trkpt lat="59.5590734482" lon="31.2706518173"><ele>0.14</ele><time>2026-09-02T18:56:15Z</time></trkpt><trkpt lat="59.5590519905" lon="31.2706518173"><ele>0.14</ele><time>2026-09-02T18:56:18Z</time></trkpt><trkpt lat="59.5590519905" lon="31.2706518173"><ele>0.14</ele><time>2026-09-02T18:56:20Z</time></trkpt><trkpt lat="59.5590519905" lon="31.2706518173"><ele>0.14</ele><time>2026-09-02T18:56:23Z</time></trkpt><trkpt lat="59.5590519905" lon="31.2706518173"><ele>0.14</ele><time>2026-09-02T18:56:25Z</time></trkpt><trkpt lat="59.5590519905" lon="31.2706518173"><ele>0.14</ele><time>2026-09-02T18:56:28Z</time></trkpt><trkpt lat="59.5590519905" lon="31.2706518173"><ele>0.14</ele><time>2026-09-02T18:56:30Z</time></trkpt><trkpt lat="59.5590519905" lon="31.2706518173"><ele>0.14</ele><time>2026-09-02T18:56:33Z</time></trkpt><trkpt lat="59.5590519905" lon="31.2706518173"><ele>0.14</ele><time>2026-09-02T18:56:35Z</time></trkpt><trkpt lat="59.5590519905" lon="31.2706518173"><ele>0.14</ele><time>2026-09-02T18:56:38Z</time></trkpt><trkpt lat="59.5590519905" lon="31.2706518173"><ele>0.14</ele><time>2026-09-02T18:56:40Z</time></trkpt><trkpt lat="59.5590519905" lon="31.2706732750"><ele>0.14</ele><time>2026-09-02T18:56:43Z</time></trkpt><trkpt lat="59.5590519905" lon="31.2706732750"><ele>0.14</ele><time>2026-09-02T18:56:45Z</time></trkpt><trkpt lat="59.5590519905" lon="31.2706947327"><ele>0.14</ele><time>2026-09-02T18:56:48Z</time></trkpt><trkpt lat="59.5590519905" lon="31.2706947327"><ele>0.14</ele><time>2026-09-02T18:56:50Z</time></trkpt><trkpt lat="59.5590519905" lon="31.2707161903"><ele>0.14</ele><time>2026-09-02T18:56:53Z</time></trkpt><trkpt lat="59.5590519905" lon="31.2707591057"><ele>0.14</ele><time>2026-09-02T18:56:55Z</time></trkpt><trkpt lat="59.5590519905" lon="31.2707805634"><ele>0.14</ele><time>2026-09-02T18:56:58Z</time></trkpt><trkpt lat="59.5590734482" lon="31.2708020210"><ele>0.14</ele><time>2026-09-02T18:57:00Z</time></trkpt><trkpt lat="59.5590734482" lon="31.2708449364"><ele>0.14</ele><time>2026-09-02T18:57:03Z</time></trkpt><trkpt lat="59.5590734482" lon="31.2708663940"><ele>0.14</ele><time>2026-09-02T18:57:05Z</time></trkpt><trkpt lat="59.5590734482" lon="31.2709093094"><ele>0.14</ele><time>2026-09-02T18:57:08Z</time></trkpt><trkpt lat="59.5590734482" lon="31.2709093094"><ele>0.14</ele><time>2026-09-02T18:57:10Z</time></trkpt><trkpt lat="59.5590734482" lon="31.2709307671"><ele>0.14</ele><time>2026-09-02T18:57:13Z</time></trkpt><trkpt lat="59.5590734482" lon="31.2709093094"><ele>0.14</ele><time>2026-09-02T18:57:15Z</time></trkpt><trkpt lat="59.5590519905" lon="31.2708020210"><ele>0.14</ele><time>2026-09-02T18:57:18Z</time></trkpt><trkpt lat="59.5590734482" lon="31.2707376480"><ele>0.14</ele><time>2026-09-02T18:57:20Z</time></trkpt><trkpt lat="59.5590734482" lon="31.2707376480"><ele>0.14</ele><time>2026-09-02T18:57:23Z</time></trkpt><trkpt lat="59.5590734482" lon="31.2707376480"><ele>0.14</ele><time>2026-09-02T18:57:25Z</time></trkpt><trkpt lat="59.5590734482" lon="31.2707376480"><ele>0.14</ele><time>2026-09-02T18:57:28Z</time></trkpt><trkpt lat="59.5590734482" lon="31.2707161903"><ele>0.14</ele><time>2026-09-02T18:57:30Z</time></trkpt><trkpt lat="59.5590519905" lon="31.2706089020"><ele>0.14</ele><time>2026-09-02T18:57:33Z</time></trkpt><trkpt lat="59.5590305328" lon="31.2706089020"><ele>0.14</ele><time>2026-09-02T18:57:35Z</time></trkpt><trkpt lat="59.5590305328" lon="31.2705659866"><ele>0.14</ele><time>2026-09-02T18:57:38Z</time></trkpt><trkpt lat="59.5590519905" lon="31.2705659866"><ele>0.14</ele><time>2026-09-02T18:57:40Z</time></trkpt><trkpt lat="59.5590305328" lon="31.2705659866"><ele>0.14</ele><time>2026-09-02T18:57:43Z</time></trkpt><trkpt lat="59.5590090752" lon="31.2705445290"><ele>0.14</ele><time>2026-09-02T18:57:45Z</time></trkpt><trkpt lat="59.5590090752" lon="31.2705445290"><ele>0.14</ele><time>2026-09-02T18:57:48Z</time></trkpt><trkpt lat="59.5590090752" lon="31.2705445290"><ele>0.14</ele><time>2026-09-02T18:57:50Z</time></trkpt><trkpt lat="59.5590090752" lon="31.2705016136"><ele>0.14</ele><time>2026-09-02T18:57:53Z</time></trkpt><trkpt lat="59.5590090752" lon="31.2704586983"><ele>0.14</ele><time>2026-09-02T18:57:55Z</time></trkpt><trkpt lat="59.5589876175" lon="31.2704372406"><ele>0.14</ele><time>2026-09-02T18:57:58Z</time></trkpt><trkpt lat="59.5589661598" lon="31.2704586983"><ele>0.14</ele><time>2026-09-02T18:58:00Z</time></trkpt><trkpt lat="59.5589661598" lon="31.2704801559"><ele>0.14</ele><time>2026-09-02T18:58:03Z</time></trkpt><trkpt lat="59.5589661598" lon="31.2704801559"><ele>0.14</ele><time>2026-09-02T18:58:05Z</time></trkpt><trkpt lat="59.5589447021" lon="31.2704801559"><ele>0.14</ele><time>2026-09-02T18:58:08Z</time></trkpt><trkpt lat="59.5589232445" lon="31.2704586983"><ele>0.14</ele><time>2026-09-02T18:58:10Z</time></trkpt><trkpt lat="59.5589232445" lon="31.2704372406"><ele>0.14</ele><time>2026-09-02T18:58:13Z</time></trkpt><trkpt lat="59.5589232445" lon="31.2704157829"><ele>0.14</ele><time>2026-09-02T18:58:15Z</time></trkpt><trkpt lat="59.5589232445" lon="31.2704157829"><ele>0.14</ele><time>2026-09-02T18:58:18Z</time></trkpt><trkpt lat="59.5589017868" lon="31.2703943253"><ele>0.14</ele><time>2026-09-02T18:58:20Z</time></trkpt><trkpt lat="59.5589017868" lon="31.2704157829"><ele>0.14</ele><time>2026-09-02T18:58:23Z</time></trkpt><trkpt lat="59.5589017868" lon="31.2704157829"><ele>0.14</ele><time>2026-09-02T18:58:25Z</time></trkpt><trkpt lat="59.5588803291" lon="31.2704157829"><ele>0.14</ele><time>2026-09-02T18:58:28Z</time></trkpt><trkpt lat="59.5588803291" lon="31.2704157829"><ele>0.14</ele><time>2026-09-02T18:58:30Z</time></trkpt><trkpt lat="59.5589017868" lon="31.2704372406"><ele>0.14</ele><time>2026-09-02T18:58:33Z</time></trkpt><trkpt lat="59.5589017868" lon="31.2704157829"><ele>0.14</ele><time>2026-09-02T18:58:35Z</time></trkpt><trkpt lat="59.5588803291" lon="31.2703943253"><ele>0.14</ele><time>2026-09-02T18:58:38Z</time></trkpt><trkpt lat="59.5588803291" lon="31.2703728676"><ele>0.14</ele><time>2026-09-02T18:58:40Z</time></trkpt><trkpt lat="59.5588803291" lon="31.2703514099"><ele>0.14</ele><time>2026-09-02T18:58:43Z</time></trkpt><trkpt lat="59.5588803291" lon="31.2703514099"><ele>0.14</ele><time>2026-09-02T18:58:45Z</time></trkpt><trkpt lat="59.5588803291" lon="31.2703084946"><ele>0.14</ele><time>2026-09-02T18:58:48Z</time></trkpt><trkpt lat="59.5588803291" lon="31.2703084946"><ele>0.14</ele><time>2026-09-02T18:58:50Z</time></trkpt><trkpt lat="59.5588588715" lon="31.2703299522"><ele>0.14</ele><time>2026-09-02T18:58:53Z</time></trkpt><trkpt lat="59.5588588715" lon="31.2703728676"><ele>0.14</ele><time>2026-09-02T18:58:55Z</time></trkpt><trkpt lat="59.5588374138" lon="31.2703728676"><ele>0.14</ele><time>2026-09-02T18:58:58Z</time></trkpt><trkpt lat="59.5588374138" lon="31.2703514099"><ele>0.14</ele><time>2026-09-02T18:59:00Z</time></trkpt><trkpt lat="59.5588159561" lon="31.2703299522"><ele>0.14</ele><time>2026-09-02T18:59:03Z</time></trkpt><trkpt lat="59.5588374138" lon="31.2702870369"><ele>0.14</ele><time>2026-09-02T18:59:05Z</time></trkpt><trkpt lat="59.5588159561" lon="31.2702655792"><ele>0.14</ele><time>2026-09-02T18:59:08Z</time></trkpt><trkpt lat="59.5588159561" lon="31.2702441216"><ele>0.14</ele><time>2026-09-02T18:59:10Z</time></trkpt><trkpt lat="59.5587944984" lon="31.2702441216"><ele>0.14</ele><time>2026-09-02T18:59:13Z</time></trkpt><trkpt lat="59.5587944984" lon="31.2702655792"><ele>0.14</ele><time>2026-09-02T18:59:15Z</time></trkpt><trkpt lat="59.5587730408" lon="31.2702441216"><ele>0.14</ele><time>2026-09-02T18:59:18Z</time></trkpt><trkpt lat="59.5587730408" lon="31.2702441216"><ele>0.14</ele><time>2026-09-02T18:59:20Z</time></trkpt><trkpt lat="59.5587730408" lon="31.2702441216"><ele>0.14</ele><time>2026-09-02T18:59:23Z</time></trkpt><trkpt lat="59.5587515831" lon="31.2702655792"><ele>0.14</ele><time>2026-09-02T18:59:25Z</time></trkpt><trkpt lat="59.5587515831" lon="31.2703084946"><ele>0.14</ele><time>2026-09-02T18:59:28Z</time></trkpt><trkpt lat="59.5587301254" lon="31.2703299522"><ele>0.14</ele><time>2026-09-02T18:59:30Z</time></trkpt><trkpt lat="59.5587086678" lon="31.2703299522"><ele>0.14</ele><time>2026-09-02T18:59:33Z</time></trkpt><trkpt lat="59.5586872101" lon="31.2703514099"><ele>0.14</ele><time>2026-09-02T18:59:35Z</time></trkpt><trkpt lat="59.5586442947" lon="31.2703084946"><ele>0.14</ele><time>2026-09-02T18:59:38Z</time></trkpt><trkpt lat="59.5586228371" lon="31.2702441216"><ele>0.14</ele><time>2026-09-02T18:59:40Z</time></trkpt><trkpt lat="59.5586228371" lon="31.2702012062"><ele>0.14</ele><time>2026-09-02T18:59:43Z</time></trkpt><trkpt lat="59.5586228371" lon="31.2701582909"><ele>0.14</ele><time>2026-09-02T18:59:45Z</time></trkpt><trkpt lat="59.5586228371" lon="31.2701582909"><ele>0.14</ele><time>2026-09-02T18:59:48Z</time></trkpt><trkpt lat="59.5586228371" lon="31.2701153755"><ele>0.14</ele><time>2026-09-02T18:59:50Z</time></trkpt><trkpt lat="59.5586228371" lon="31.2700939178"><ele>0.14</ele><time>2026-09-02T18:59:53Z</time></trkpt><trkpt lat="59.5586013794" lon="31.2700724602"><ele>0.14</ele><time>2026-09-02T18:59:55Z</time></trkpt><trkpt lat="59.5585584641" lon="31.2700295448"><ele>0.14</ele><time>2026-09-02T18:59:58Z</time></trkpt><trkpt lat="59.5585370064" lon="31.2700295448"><ele>0.14</ele><time>2026-09-02T19:00:00Z</time></trkpt><trkpt lat="59.5585370064" lon="31.2700295448"><ele>0.14</ele><time>2026-09-02T19:00:03Z</time></trkpt><trkpt lat="59.5585799217" lon="31.2700080872"><ele>0.14</ele><time>2026-09-02T19:00:05Z</time></trkpt><trkpt lat="59.5586013794" lon="31.2700080872"><ele>0.14</ele><time>2026-09-02T19:00:08Z</time></trkpt><trkpt lat="59.5586228371" lon="31.2699651718"><ele>0.14</ele><time>2026-09-02T19:00:10Z</time></trkpt><trkpt lat="59.5586442947" lon="31.2699866295"><ele>0.14</ele><time>2026-09-02T19:00:13Z</time></trkpt><trkpt lat="59.5586442947" lon="31.2699866295"><ele>0.14</ele><time>2026-09-02T19:00:15Z</time></trkpt><trkpt lat="59.5586442947" lon="31.2699651718"><ele>0.14</ele><time>2026-09-02T19:00:18Z</time></trkpt><trkpt lat="59.5586442947" lon="31.2699651718"><ele>0.14</ele><time>2026-09-02T19:00:20Z</time></trkpt><trkpt lat="59.5586442947" lon="31.2699651718"><ele>0.14</ele><time>2026-09-02T19:00:23Z</time></trkpt><trkpt lat="59.5586442947" lon="31.2699866295"><ele>0.14</ele><time>2026-09-02T19:00:25Z</time></trkpt><trkpt lat="59.5586442947" lon="31.2699866295"><ele>0.14</ele><time>2026-09-02T19:00:28Z</time></trkpt><trkpt lat="59.5586442947" lon="31.2699866295"><ele>0.14</ele><time>2026-09-02T19:00:30Z</time></trkpt><trkpt lat="59.5586442947" lon="31.2699866295"><ele>0.14</ele><time>2026-09-02T19:00:33Z</time></trkpt><trkpt lat="59.5586442947" lon="31.2699866295"><ele>0.14</ele><time>2026-09-02T19:00:35Z</time></trkpt><trkpt lat="59.5586442947" lon="31.2699866295"><ele>0.14</ele><time>2026-09-02T19:00:38Z</time></trkpt><trkpt lat="59.5586442947" lon="31.2699651718"><ele>0.14</ele><time>2026-09-02T19:00:40Z</time></trkpt><trkpt lat="59.5586013794" lon="31.2699437141"><ele>0.14</ele><time>2026-09-02T19:00:43Z</time></trkpt><trkpt lat="59.5586013794" lon="31.2699437141"><ele>0.14</ele><time>2026-09-02T19:00:45Z</time></trkpt><trkpt lat="59.5586013794" lon="31.2699437141"><ele>0.14</ele><time>2026-09-02T19:00:48Z</time></trkpt><trkpt lat="59.5585799217" lon="31.2700080872"><ele>0.14</ele><time>2026-09-02T19:00:50Z</time></trkpt><trkpt lat="59.5586013794" lon="31.2701368332"><ele>0.14</ele><time>2026-09-02T19:00:53Z</time></trkpt><trkpt lat="59.5586228371" lon="31.2702226639"><ele>0.14</ele><time>2026-09-02T19:00:55Z</time></trkpt><trkpt lat="59.5586228371" lon="31.2702226639"><ele>0.14</ele><time>2026-09-02T19:00:58Z</time></trkpt><trkpt lat="59.5586228371" lon="31.2702226639"><ele>0.14</ele><time>2026-09-02T19:01:00Z</time></trkpt><trkpt lat="59.5586228371" lon="31.2702226639"><ele>0.14</ele><time>2026-09-02T19:01:03Z</time></trkpt><trkpt lat="59.5586228371" lon="31.2702226639"><ele>0.14</ele><time>2026-09-02T19:01:05Z</time></trkpt><trkpt lat="59.5586228371" lon="31.2702226639"><ele>0.14</ele><time>2026-09-02T19:01:08Z</time></trkpt><trkpt lat="59.5586228371" lon="31.2702226639"><ele>0.14</ele><time>2026-09-02T19:01:10Z</time></trkpt><trkpt lat="59.5586228371" lon="31.2702226639"><ele>0.14</ele><time>2026-09-02T19:01:13Z</time></trkpt><trkpt lat="59.5586228371" lon="31.2702226639"><ele>0.14</ele><time>2026-09-02T19:01:15Z</time></trkpt><trkpt lat="59.5586228371" lon="31.2702226639"><ele>0.14</ele><time>2026-09-02T19:01:18Z</time></trkpt><trkpt lat="59.5586228371" lon="31.2702226639"><ele>0.14</ele><time>2026-09-02T19:01:20Z</time></trkpt><trkpt lat="59.5586228371" lon="31.2702226639"><ele>0.14</ele><time>2026-09-02T19:01:23Z</time></trkpt><trkpt lat="59.5586228371" lon="31.2702226639"><ele>0.14</ele><time>2026-09-02T19:01:25Z</time></trkpt><trkpt lat="59.5586228371" lon="31.2702226639"><ele>0.14</ele><time>2026-09-02T19:01:28Z</time></trkpt><trkpt lat="59.5586228371" lon="31.2702226639"><ele>0.14</ele><time>2026-09-02T19:01:30Z</time></trkpt><trkpt lat="59.5586228371" lon="31.2702226639"><ele>0.14</ele><time>2026-09-02T19:01:33Z</time></trkpt><trkpt lat="59.5586228371" lon="31.2702226639"><ele>0.14</ele><time>2026-09-02T19:01:35Z</time></trkpt><trkpt lat="59.5586228371" lon="31.2702226639"><ele>0.14</ele><time>2026-09-02T19:01:38Z</time></trkpt><trkpt lat="59.5586228371" lon="31.2702226639"><ele>0.14</ele><time>2026-09-02T19:01:40Z</time></trkpt><trkpt lat="59.5586013794" lon="31.2702226639"><ele>0.14</ele><time>2026-09-02T19:01:43Z</time></trkpt><trkpt lat="59.5585799217" lon="31.2702226639"><ele>0.14</ele><time>2026-09-02T19:01:45Z</time></trkpt><trkpt lat="59.5585584641" lon="31.2701582909"><ele>0.14</ele><time>2026-09-02T19:01:48Z</time></trkpt><trkpt lat="59.5585370064" lon="31.2701153755"><ele>0.14</ele><time>2026-09-02T19:01:50Z</time></trkpt><trkpt lat="59.5585155487" lon="31.2700939178"><ele>0.14</ele><time>2026-09-02T19:01:53Z</time></trkpt><trkpt lat="59.5585155487" lon="31.2700724602"><ele>0.14</ele><time>2026-09-02T19:01:55Z</time></trkpt><trkpt lat="59.5584940910" lon="31.2700510025"><ele>0.14</ele><time>2026-09-02T19:01:58Z</time></trkpt><trkpt lat="59.5585155487" lon="31.2700724602"><ele>0.14</ele><time>2026-09-02T19:02:00Z</time></trkpt><trkpt lat="59.5585155487" lon="31.2700724602"><ele>0.14</ele><time>2026-09-02T19:02:03Z</time></trkpt><trkpt lat="59.5585155487" lon="31.2700939178"><ele>0.14</ele><time>2026-09-02T19:02:05Z</time></trkpt><trkpt lat="59.5585155487" lon="31.2701153755"><ele>0.14</ele><time>2026-09-02T19:02:08Z</time></trkpt><trkpt lat="59.5585155487" lon="31.2701153755"><ele>0.14</ele><time>2026-09-02T19:02:10Z</time></trkpt><trkpt lat="59.5585155487" lon="31.2701368332"><ele>0.14</ele><time>2026-09-02T19:02:13Z</time></trkpt><trkpt lat="59.5584940910" lon="31.2701153755"><ele>0.14</ele><time>2026-09-02T19:02:15Z</time></trkpt><trkpt lat="59.5584940910" lon="31.2701368332"><ele>0.14</ele><time>2026-09-02T19:02:18Z</time></trkpt><trkpt lat="59.5584940910" lon="31.2701368332"><ele>0.14</ele><time>2026-09-02T19:02:20Z</time></trkpt><trkpt lat="59.5584940910" lon="31.2701582909"><ele>0.14</ele><time>2026-09-02T19:02:23Z</time></trkpt><trkpt lat="59.5584940910" lon="31.2701582909"><ele>0.14</ele><time>2026-09-02T19:02:25Z</time></trkpt><trkpt lat="59.5584940910" lon="31.2701582909"><ele>0.14</ele><time>2026-09-02T19:02:28Z</time></trkpt><trkpt lat="59.5584940910" lon="31.2701582909"><ele>0.14</ele><time>2026-09-02T19:02:30Z</time></trkpt><trkpt lat="59.5584940910" lon="31.2701582909"><ele>0.14</ele><time>2026-09-02T19:02:33Z</time></trkpt><trkpt lat="59.5584940910" lon="31.2701582909"><ele>0.14</ele><time>2026-09-02T19:02:35Z</time></trkpt><trkpt lat="59.5584940910" lon="31.2701582909"><ele>0.14</ele><time>2026-09-02T19:02:38Z</time></trkpt><trkpt lat="59.5584940910" lon="31.2701582909"><ele>0.14</ele><time>2026-09-02T19:02:40Z</time></trkpt><trkpt lat="59.5584940910" lon="31.2701582909"><ele>0.14</ele><time>2026-09-02T19:02:43Z</time></trkpt><trkpt lat="59.5584940910" lon="31.2701582909"><ele>0.14</ele><time>2026-09-02T19:02:45Z</time></trkpt><trkpt lat="59.5584940910" lon="31.2701582909"><ele>0.14</ele><time>2026-09-02T19:02:48Z</time></trkpt><trkpt lat="59.5584940910" lon="31.2701582909"><ele>0.14</ele><time>2026-09-02T19:02:50Z</time></trkpt><trkpt lat="59.5585370064" lon="31.2701368332"><ele>0.14</ele><time>2026-09-02T19:02:53Z</time></trkpt><trkpt lat="59.5585584641" lon="31.2700939178"><ele>0.14</ele><time>2026-09-02T19:02:55Z</time></trkpt><trkpt lat="59.5585584641" lon="31.2700724602"><ele>0.14</ele><time>2026-09-02T19:02:58Z</time></trkpt><trkpt lat="59.5585799217" lon="31.2700724602"><ele>0.14</ele><time>2026-09-02T19:03:00Z</time></trkpt><trkpt lat="59.5586013794" lon="31.2700724602"><ele>0.14</ele><time>2026-09-02T19:03:03Z</time></trkpt><trkpt lat="59.5586013794" lon="31.2700939178"><ele>0.14</ele><time>2026-09-02T19:03:05Z</time></trkpt><trkpt lat="59.5586013794" lon="31.2701368332"><ele>0.14</ele><time>2026-09-02T19:03:08Z</time></trkpt><trkpt lat="59.5586228371" lon="31.2701582909"><ele>0.14</ele><time>2026-09-02T19:03:10Z</time></trkpt><trkpt lat="59.5586228371" lon="31.2701582909"><ele>0.14</ele><time>2026-09-02T19:03:13Z</time></trkpt><trkpt lat="59.5586442947" lon="31.2701368332"><ele>0.14</ele><time>2026-09-02T19:03:15Z</time></trkpt><trkpt lat="59.5586442947" lon="31.2700939178"><ele>0.14</ele><time>2026-09-02T19:03:18Z</time></trkpt><trkpt lat="59.5586657524" lon="31.2700724602"><ele>0.14</ele><time>2026-09-02T19:03:20Z</time></trkpt><trkpt lat="59.5586442947" lon="31.2700724602"><ele>0.14</ele><time>2026-09-02T19:03:23Z</time></trkpt><trkpt lat="59.5586442947" lon="31.2700939178"><ele>0.14</ele><time>2026-09-02T19:03:25Z</time></trkpt><trkpt lat="59.5586442947" lon="31.2700295448"><ele>0.14</ele><time>2026-09-02T19:03:28Z</time></trkpt><trkpt lat="59.5586442947" lon="31.2699437141"><ele>0.14</ele><time>2026-09-02T19:03:30Z</time></trkpt><trkpt lat="59.5586442947" lon="31.2698793411"><ele>0.14</ele><time>2026-09-02T19:03:33Z</time></trkpt><trkpt lat="59.5586657524" lon="31.2698149681"><ele>0.14</ele><time>2026-09-02T19:03:35Z</time></trkpt><trkpt lat="59.5586657524" lon="31.2697935104"><ele>0.14</ele><time>2026-09-02T19:03:38Z</time></trkpt><trkpt lat="59.5586657524" lon="31.2697720528"><ele>0.14</ele><time>2026-09-02T19:03:40Z</time></trkpt><trkpt lat="59.5586657524" lon="31.2697720528"><ele>0.14</ele><time>2026-09-02T19:03:43Z</time></trkpt><trkpt lat="59.5586442947" lon="31.2697720528"><ele>0.14</ele><time>2026-09-02T19:03:45Z</time></trkpt><trkpt lat="59.5586442947" lon="31.2697291374"><ele>0.14</ele><time>2026-09-02T19:03:48Z</time></trkpt><trkpt lat="59.5586228371" lon="31.2697076797"><ele>0.14</ele><time>2026-09-02T19:03:50Z</time></trkpt><trkpt lat="59.5586228371" lon="31.2697076797"><ele>0.14</ele><time>2026-09-02T19:03:53Z</time></trkpt><trkpt lat="59.5586228371" lon="31.2697076797"><ele>0.14</ele><time>2026-09-02T19:03:55Z</time></trkpt><trkpt lat="59.5586228371" lon="31.2697076797"><ele>0.14</ele><time>2026-09-02T19:03:58Z</time></trkpt><trkpt lat="59.5586228371" lon="31.2697076797"><ele>0.14</ele><time>2026-09-02T19:04:00Z</time></trkpt><trkpt lat="59.5586228371" lon="31.2697076797"><ele>0.14</ele><time>2026-09-02T19:04:03Z</time></trkpt><trkpt lat="59.5586228371" lon="31.2697076797"><ele>0.14</ele><time>2026-09-02T19:04:05Z</time></trkpt><trkpt lat="59.5586228371" lon="31.2697076797"><ele>0.14</ele><time>2026-09-02T19:04:08Z</time></trkpt><trkpt lat="59.5586228371" lon="31.2697076797"><ele>0.14</ele><time>2026-09-02T19:04:10Z</time></trkpt><trkpt lat="59.5586228371" lon="31.2697076797"><ele>0.14</ele><time>2026-09-02T19:04:13Z</time></trkpt><trkpt lat="59.5586228371" lon="31.2697076797"><ele>0.14</ele><time>2026-09-02T19:04:15Z</time></trkpt><trkpt lat="59.5586228371" lon="31.2697076797"><ele>0.14</ele><time>2026-09-02T19:04:18Z</time></trkpt><trkpt lat="59.5586228371" lon="31.2697076797"><ele>0.14</ele><time>2026-09-02T19:04:20Z</time></trkpt><trkpt lat="59.5586228371" lon="31.2697076797"><ele>0.14</ele><time>2026-09-02T19:04:23Z</time></trkpt><trkpt lat="59.5586228371" lon="31.2697076797"><ele>0.14</ele><time>2026-09-02T19:04:25Z</time></trkpt><trkpt lat="59.5586228371" lon="31.2696862221"><ele>0.14</ele><time>2026-09-02T19:04:28Z</time></trkpt><trkpt lat="59.5586228371" lon="31.2696862221"><ele>0.14</ele><time>2026-09-02T19:04:30Z</time></trkpt><trkpt lat="59.5586228371" lon="31.2696862221"><ele>0.14</ele><time>2026-09-02T19:04:33Z</time></trkpt><trkpt lat="59.5586228371" lon="31.2696862221"><ele>0.14</ele><time>2026-09-02T19:04:35Z</time></trkpt><trkpt lat="59.5586657524" lon="31.2696433067"><ele>0.14</ele><time>2026-09-02T19:04:38Z</time></trkpt><trkpt lat="59.5587086678" lon="31.2696218491"><ele>0.14</ele><time>2026-09-02T19:04:40Z</time></trkpt><trkpt lat="59.5586872101" lon="31.2695360184"><ele>0.14</ele><time>2026-09-02T19:04:43Z</time></trkpt><trkpt lat="59.5586657524" lon="31.2694716454"><ele>0.14</ele><time>2026-09-02T19:04:45Z</time></trkpt><trkpt lat="59.5586872101" lon="31.2694072723"><ele>0.14</ele><time>2026-09-02T19:04:48Z</time></trkpt><trkpt lat="59.5587301254" lon="31.2693858147"><ele>0.14</ele><time>2026-09-02T19:04:50Z</time></trkpt><trkpt lat="59.5587515831" lon="31.2693858147"><ele>0.14</ele><time>2026-09-02T19:04:53Z</time></trkpt><trkpt lat="59.5587944984" lon="31.2694501877"><ele>0.14</ele><time>2026-09-02T19:04:55Z</time></trkpt><trkpt lat="59.5588803291" lon="31.2694501877"><ele>0.14</ele><time>2026-09-02T19:04:58Z</time></trkpt><trkpt lat="59.5589661598" lon="31.2694716454"><ele>0.14</ele><time>2026-09-02T19:05:00Z</time></trkpt><trkpt lat="59.5589661598" lon="31.2694501877"><ele>0.14</ele><time>2026-09-02T19:05:03Z</time></trkpt><trkpt lat="59.5589661598" lon="31.2694287300"><ele>0.14</ele><time>2026-09-02T19:05:05Z</time></trkpt><trkpt lat="59.5589661598" lon="31.2694287300"><ele>0.14</ele><time>2026-09-02T19:05:08Z</time></trkpt><trkpt lat="59.5589661598" lon="31.2694287300"><ele>0.14</ele><time>2026-09-02T19:05:10Z</time></trkpt><trkpt lat="59.5590090752" lon="31.2693643570"><ele>0.14</ele><time>2026-09-02T19:05:13Z</time></trkpt><trkpt lat="59.5590734482" lon="31.2692999840"><ele>0.14</ele><time>2026-09-02T19:05:15Z</time></trkpt><trkpt lat="59.5591163635" lon="31.2692141533"><ele>0.14</ele><time>2026-09-02T19:05:18Z</time></trkpt><trkpt lat="59.5591807365" lon="31.2691497803"><ele>0.14</ele><time>2026-09-02T19:05:20Z</time></trkpt><trkpt lat="59.5592236519" lon="31.2690854073"><ele>0.14</ele><time>2026-09-02T19:05:23Z</time></trkpt><trkpt lat="59.5592451096" lon="31.2690854073"><ele>0.14</ele><time>2026-09-02T19:05:25Z</time></trkpt><trkpt lat="59.5592880249" lon="31.2690210342"><ele>0.14</ele><time>2026-09-02T19:05:28Z</time></trkpt><trkpt lat="59.5593094826" lon="31.2689781189"><ele>0.14</ele><time>2026-09-02T19:05:30Z</time></trkpt><trkpt lat="59.5593523979" lon="31.2689566612"><ele>0.14</ele><time>2026-09-02T19:05:33Z</time></trkpt><trkpt lat="59.5593738556" lon="31.2689137459"><ele>0.14</ele><time>2026-09-02T19:05:35Z</time></trkpt><trkpt lat="59.5593523979" lon="31.2688922882"><ele>0.14</ele><time>2026-09-02T19:05:38Z</time></trkpt><trkpt lat="59.5593309402" lon="31.2688279152"><ele>0.14</ele><time>2026-09-02T19:05:40Z</time></trkpt><trkpt lat="59.5593309402" lon="31.2688064575"><ele>0.14</ele><time>2026-09-02T19:05:43Z</time></trkpt><trkpt lat="59.5593094826" lon="31.2688064575"><ele>0.14</ele><time>2026-09-02T19:05:45Z</time></trkpt><trkpt lat="59.5593094826" lon="31.2687849998"><ele>0.14</ele><time>2026-09-02T19:05:48Z</time></trkpt><trkpt lat="59.5592880249" lon="31.2687635422"><ele>0.14</ele><time>2026-09-02T19:05:50Z</time></trkpt><trkpt lat="59.5592880249" lon="31.2687420845"><ele>0.14</ele><time>2026-09-02T19:05:53Z</time></trkpt><trkpt lat="59.5593094826" lon="31.2687206268"><ele>0.14</ele><time>2026-09-02T19:05:55Z</time></trkpt><trkpt lat="59.5593094826" lon="31.2687206268"><ele>0.14</ele><time>2026-09-02T19:05:58Z</time></trkpt><trkpt lat="59.5593094826" lon="31.2686991692"><ele>0.14</ele><time>2026-09-02T19:06:00Z</time></trkpt><trkpt lat="59.5593523979" lon="31.2687420845"><ele>0.14</ele><time>2026-09-02T19:06:03Z</time></trkpt><trkpt lat="59.5593738556" lon="31.2687635422"><ele>0.14</ele><time>2026-09-02T19:06:05Z</time></trkpt><trkpt lat="59.5594382286" lon="31.2688064575"><ele>0.14</ele><time>2026-09-02T19:06:08Z</time></trkpt><trkpt lat="59.5594811440" lon="31.2687635422"><ele>0.14</ele><time>2026-09-02T19:06:10Z</time></trkpt><trkpt lat="59.5594811440" lon="31.2686991692"><ele>0.14</ele><time>2026-09-02T19:06:13Z</time></trkpt><trkpt lat="59.5595240593" lon="31.2686777115"><ele>0.14</ele><time>2026-09-02T19:06:15Z</time></trkpt><trkpt lat="59.5595455170" lon="31.2686562538"><ele>0.14</ele><time>2026-09-02T19:06:18Z</time></trkpt><trkpt lat="59.5595455170" lon="31.2686991692"><ele>0.14</ele><time>2026-09-02T19:06:20Z</time></trkpt><trkpt lat="59.5595455170" lon="31.2687206268"><ele>0.14</ele><time>2026-09-02T19:06:23Z</time></trkpt><trkpt lat="59.5595455170" lon="31.2687206268"><ele>0.14</ele><time>2026-09-02T19:06:25Z</time></trkpt><trkpt lat="59.5595240593" lon="31.2686991692"><ele>0.14</ele><time>2026-09-02T19:06:28Z</time></trkpt><trkpt lat="59.5595455170" lon="31.2686777115"><ele>0.14</ele><time>2026-09-02T19:06:30Z</time></trkpt><trkpt lat="59.5595669746" lon="31.2686562538"><ele>0.14</ele><time>2026-09-02T19:06:33Z</time></trkpt><trkpt lat="59.5595884323" lon="31.2686133385"><ele>0.14</ele><time>2026-09-02T19:06:35Z</time></trkpt><trkpt lat="59.5595884323" lon="31.2686133385"><ele>0.14</ele><time>2026-09-02T19:06:38Z</time></trkpt><trkpt lat="59.5595884323" lon="31.2686133385"><ele>0.14</ele><time>2026-09-02T19:06:40Z</time></trkpt><trkpt lat="59.5595884323" lon="31.2685918808"><ele>0.14</ele><time>2026-09-02T19:06:43Z</time></trkpt><trkpt lat="59.5596098900" lon="31.2685704231"><ele>0.14</ele><time>2026-09-02T19:06:45Z</time></trkpt><trkpt lat="59.5596098900" lon="31.2685704231"><ele>0.14</ele><time>2026-09-02T19:06:48Z</time></trkpt><trkpt lat="59.5596098900" lon="31.2685704231"><ele>0.14</ele><time>2026-09-02T19:06:50Z</time></trkpt><trkpt lat="59.5596098900" lon="31.2685704231"><ele>0.14</ele><time>2026-09-02T19:06:53Z</time></trkpt><trkpt lat="59.5596098900" lon="31.2685704231"><ele>0.14</ele><time>2026-09-02T19:06:55Z</time></trkpt><trkpt lat="59.5596098900" lon="31.2685704231"><ele>0.14</ele><time>2026-09-02T19:06:58Z</time></trkpt><trkpt lat="59.5596098900" lon="31.2685704231"><ele>0.14</ele><time>2026-09-02T19:07:00Z</time></trkpt><trkpt lat="59.5596098900" lon="31.2685704231"><ele>0.14</ele><time>2026-09-02T19:07:03Z</time></trkpt><trkpt lat="59.5596098900" lon="31.2685704231"><ele>0.14</ele><time>2026-09-02T19:07:05Z</time></trkpt><trkpt lat="59.5596098900" lon="31.2685704231"><ele>0.14</ele><time>2026-09-02T19:07:08Z</time></trkpt><trkpt lat="59.5596098900" lon="31.2685704231"><ele>0.14</ele><time>2026-09-02T19:07:10Z</time></trkpt><trkpt lat="59.5596098900" lon="31.2685704231"><ele>0.14</ele><time>2026-09-02T19:07:13Z</time></trkpt><trkpt lat="59.5596098900" lon="31.2685704231"><ele>0.14</ele><time>2026-09-02T19:07:15Z</time></trkpt><trkpt lat="59.5596313477" lon="31.2685704231"><ele>0.14</ele><time>2026-09-02T19:07:18Z</time></trkpt><trkpt lat="59.5596313477" lon="31.2685704231"><ele>0.14</ele><time>2026-09-02T19:07:20Z</time></trkpt><trkpt lat="59.5596313477" lon="31.2685704231"><ele>0.14</ele><time>2026-09-02T19:07:23Z</time></trkpt><trkpt lat="59.5596313477" lon="31.2685704231"><ele>0.14</ele><time>2026-09-02T19:07:25Z</time></trkpt><trkpt lat="59.5596528053" lon="31.2685704231"><ele>0.14</ele><time>2026-09-02T19:07:28Z</time></trkpt><trkpt lat="59.5596528053" lon="31.2685704231"><ele>0.14</ele><time>2026-09-02T19:07:30Z</time></trkpt><trkpt lat="59.5596528053" lon="31.2685704231"><ele>0.14</ele><time>2026-09-02T19:07:33Z</time></trkpt><trkpt lat="59.5596528053" lon="31.2685489655"><ele>0.14</ele><time>2026-09-02T19:07:35Z</time></trkpt><trkpt lat="59.5596528053" lon="31.2685489655"><ele>0.14</ele><time>2026-09-02T19:07:38Z</time></trkpt><trkpt lat="59.5596528053" lon="31.2685275078"><ele>0.14</ele><time>2026-09-02T19:07:40Z</time></trkpt><trkpt lat="59.5596528053" lon="31.2685275078"><ele>0.14</ele><time>2026-09-02T19:07:43Z</time></trkpt><trkpt lat="59.5596528053" lon="31.2685275078"><ele>0.14</ele><time>2026-09-02T19:07:45Z</time></trkpt><trkpt lat="59.5596742630" lon="31.2685275078"><ele>0.14</ele><time>2026-09-02T19:07:48Z</time></trkpt><trkpt lat="59.5596742630" lon="31.2685060501"><ele>0.14</ele><time>2026-09-02T19:07:50Z</time></trkpt><trkpt lat="59.5596742630" lon="31.2684631348"><ele>0.14</ele><time>2026-09-02T19:07:53Z</time></trkpt><trkpt lat="59.5596742630" lon="31.2684416771"><ele>0.14</ele><time>2026-09-02T19:07:55Z</time></trkpt><trkpt lat="59.5596742630" lon="31.2684416771"><ele>0.14</ele><time>2026-09-02T19:07:58Z</time></trkpt><trkpt lat="59.5596957207" lon="31.2684416771"><ele>0.14</ele><time>2026-09-02T19:08:00Z</time></trkpt><trkpt lat="59.5596957207" lon="31.2684416771"><ele>0.14</ele><time>2026-09-02T19:08:03Z</time></trkpt><trkpt lat="59.5596957207" lon="31.2684416771"><ele>0.14</ele><time>2026-09-02T19:08:05Z</time></trkpt><trkpt lat="59.5596957207" lon="31.2684416771"><ele>0.14</ele><time>2026-09-02T19:08:08Z</time></trkpt><trkpt lat="59.5597171783" lon="31.2684416771"><ele>0.14</ele><time>2026-09-02T19:08:10Z</time></trkpt><trkpt lat="59.5597815514" lon="31.2683987617"><ele>0.14</ele><time>2026-09-02T19:08:13Z</time></trkpt><trkpt lat="59.5598244667" lon="31.2683773041"><ele>0.14</ele><time>2026-09-02T19:08:15Z</time></trkpt><trkpt lat="59.5598888397" lon="31.2683343887"><ele>0.14</ele><time>2026-09-02T19:08:18Z</time></trkpt><trkpt lat="59.5599532127" lon="31.2682485580"><ele>0.14</ele><time>2026-09-02T19:08:20Z</time></trkpt><trkpt lat="59.5599746704" lon="31.2682056427"><ele>0.14</ele><time>2026-09-02T19:08:23Z</time></trkpt><trkpt lat="59.5600175858" lon="31.2682056427"><ele>0.14</ele><time>2026-09-02T19:08:25Z</time></trkpt><trkpt lat="59.5600390434" lon="31.2682056427"><ele>0.14</ele><time>2026-09-02T19:08:28Z</time></trkpt><trkpt lat="59.5600605011" lon="31.2682056427"><ele>0.14</ele><time>2026-09-02T19:08:30Z</time></trkpt><trkpt lat="59.5600605011" lon="31.2682271004"><ele>0.14</ele><time>2026-09-02T19:08:33Z</time></trkpt><trkpt lat="59.5600605011" lon="31.2682056427"><ele>0.14</ele><time>2026-09-02T19:08:35Z</time></trkpt><trkpt lat="59.5600605011" lon="31.2682056427"><ele>0.14</ele><time>2026-09-02T19:08:38Z</time></trkpt><trkpt lat="59.5600390434" lon="31.2682271004"><ele>0.14</ele><time>2026-09-02T19:08:40Z</time></trkpt><trkpt lat="59.5600175858" lon="31.2682485580"><ele>0.14</ele><time>2026-09-02T19:08:43Z</time></trkpt><trkpt lat="59.5600175858" lon="31.2682485580"><ele>0.14</ele><time>2026-09-02T19:08:45Z</time></trkpt><trkpt lat="59.5599961281" lon="31.2682485580"><ele>0.14</ele><time>2026-09-02T19:08:48Z</time></trkpt><trkpt lat="59.5599746704" lon="31.2682271004"><ele>0.14</ele><time>2026-09-02T19:08:50Z</time></trkpt><trkpt lat="59.5599317551" lon="31.2682485580"><ele>0.14</ele><time>2026-09-02T19:08:53Z</time></trkpt><trkpt lat="59.5599317551" lon="31.2682485580"><ele>0.14</ele><time>2026-09-02T19:08:55Z</time></trkpt><trkpt lat="59.5599317551" lon="31.2682271004"><ele>0.14</ele><time>2026-09-02T19:08:58Z</time></trkpt><trkpt lat="59.5599317551" lon="31.2682271004"><ele>0.14</ele><time>2026-09-02T19:09:00Z</time></trkpt><trkpt lat="59.5599317551" lon="31.2682271004"><ele>0.14</ele><time>2026-09-02T19:09:03Z</time></trkpt><trkpt lat="59.5599317551" lon="31.2682271004"><ele>0.14</ele><time>2026-09-02T19:09:05Z</time></trkpt><trkpt lat="59.5599317551" lon="31.2682271004"><ele>0.14</ele><time>2026-09-02T19:09:08Z</time></trkpt><trkpt lat="59.5599317551" lon="31.2682271004"><ele>0.14</ele><time>2026-09-02T19:09:10Z</time></trkpt><trkpt lat="59.5599317551" lon="31.2682271004"><ele>0.14</ele><time>2026-09-02T19:09:13Z</time></trkpt><trkpt lat="59.5599317551" lon="31.2682271004"><ele>0.14</ele><time>2026-09-02T19:09:15Z</time></trkpt><trkpt lat="59.5599317551" lon="31.2682271004"><ele>0.14</ele><time>2026-09-02T19:09:18Z</time></trkpt><trkpt lat="59.5599317551" lon="31.2682271004"><ele>0.14</ele><time>2026-09-02T19:09:20Z</time></trkpt><trkpt lat="59.5599317551" lon="31.2682485580"><ele>0.14</ele><time>2026-09-02T19:09:23Z</time></trkpt><trkpt lat="59.5599317551" lon="31.2682485580"><ele>0.14</ele><time>2026-09-02T19:09:25Z</time></trkpt><trkpt lat="59.5599317551" lon="31.2682485580"><ele>0.14</ele><time>2026-09-02T19:09:28Z</time></trkpt><trkpt lat="59.5599317551" lon="31.2682485580"><ele>0.14</ele><time>2026-09-02T19:09:30Z</time></trkpt><trkpt lat="59.5599317551" lon="31.2682485580"><ele>0.14</ele><time>2026-09-02T19:09:33Z</time></trkpt><trkpt lat="59.5599317551" lon="31.2682485580"><ele>0.14</ele><time>2026-09-02T19:09:35Z</time></trkpt><trkpt lat="59.5599317551" lon="31.2682485580"><ele>0.14</ele><time>2026-09-02T19:09:38Z</time></trkpt><trkpt lat="59.5599317551" lon="31.2682485580"><ele>0.14</ele><time>2026-09-02T19:09:40Z</time></trkpt><trkpt lat="59.5599317551" lon="31.2682271004"><ele>0.14</ele><time>2026-09-02T19:09:43Z</time></trkpt><trkpt lat="59.5599317551" lon="31.2682271004"><ele>0.14</ele><time>2026-09-02T19:09:45Z</time></trkpt><trkpt lat="59.5599317551" lon="31.2682271004"><ele>0.14</ele><time>2026-09-02T19:09:48Z</time></trkpt><trkpt lat="59.5599532127" lon="31.2681841850"><ele>0.14</ele><time>2026-09-02T19:09:50Z</time></trkpt><trkpt lat="59.5599746704" lon="31.2681198120"><ele>0.14</ele><time>2026-09-02T19:09:53Z</time></trkpt><trkpt lat="59.5599961281" lon="31.2680768967"><ele>0.14</ele><time>2026-09-02T19:09:55Z</time></trkpt><trkpt lat="59.5599961281" lon="31.2680339813"><ele>0.14</ele><time>2026-09-02T19:09:58Z</time></trkpt><trkpt lat="59.5600175858" lon="31.2680125237"><ele>0.14</ele><time>2026-09-02T19:10:00Z</time></trkpt><trkpt lat="59.5600175858" lon="31.2679696083"><ele>0.14</ele><time>2026-09-02T19:10:03Z</time></trkpt><trkpt lat="59.5600175858" lon="31.2679266930"><ele>0.14</ele><time>2026-09-02T19:10:05Z</time></trkpt><trkpt lat="59.5600175858" lon="31.2678837776"><ele>0.14</ele><time>2026-09-02T19:10:08Z</time></trkpt><trkpt lat="59.5600390434" lon="31.2678837776"><ele>0.14</ele><time>2026-09-02T19:10:10Z</time></trkpt><trkpt lat="59.5600175858" lon="31.2678194046"><ele>0.14</ele><time>2026-09-02T19:10:13Z</time></trkpt><trkpt lat="59.5600175858" lon="31.2677764893"><ele>0.14</ele><time>2026-09-02T19:10:15Z</time></trkpt><trkpt lat="59.5600605011" lon="31.2677335739"><ele>0.14</ele><time>2026-09-02T19:10:18Z</time></trkpt><trkpt lat="59.5600605011" lon="31.2677121162"><ele>0.14</ele><time>2026-09-02T19:10:20Z</time></trkpt><trkpt lat="59.5600605011" lon="31.2677121162"><ele>0.14</ele><time>2026-09-02T19:10:23Z</time></trkpt><trkpt lat="59.5600605011" lon="31.2676906586"><ele>0.14</ele><time>2026-09-02T19:10:25Z</time></trkpt><trkpt lat="59.5600605011" lon="31.2676692009"><ele>0.14</ele><time>2026-09-02T19:10:28Z</time></trkpt><trkpt lat="59.5600390434" lon="31.2676692009"><ele>0.14</ele><time>2026-09-02T19:10:30Z</time></trkpt><trkpt lat="59.5600390434" lon="31.2676048279"><ele>0.14</ele><time>2026-09-02T19:10:33Z</time></trkpt><trkpt lat="59.5600390434" lon="31.2676262856"><ele>0.14</ele><time>2026-09-02T19:10:35Z</time></trkpt><trkpt lat="59.5600175858" lon="31.2676048279"><ele>0.14</ele><time>2026-09-02T19:10:38Z</time></trkpt><trkpt lat="59.5600175858" lon="31.2676048279"><ele>0.14</ele><time>2026-09-02T19:10:40Z</time></trkpt><trkpt lat="59.5599961281" lon="31.2676048279"><ele>0.14</ele><time>2026-09-02T19:10:43Z</time></trkpt><trkpt lat="59.5599961281" lon="31.2675833702"><ele>0.14</ele><time>2026-09-02T19:10:45Z</time></trkpt><trkpt lat="59.5599746704" lon="31.2675619125"><ele>0.14</ele><time>2026-09-02T19:10:48Z</time></trkpt><trkpt lat="59.5599532127" lon="31.2675404549"><ele>0.14</ele><time>2026-09-02T19:10:50Z</time></trkpt><trkpt lat="59.5599317551" lon="31.2675189972"><ele>0.14</ele><time>2026-09-02T19:10:53Z</time></trkpt><trkpt lat="59.5599317551" lon="31.2675189972"><ele>0.14</ele><time>2026-09-02T19:10:55Z</time></trkpt><trkpt lat="59.5599532127" lon="31.2674760818"><ele>0.14</ele><time>2026-09-02T19:10:58Z</time></trkpt><trkpt lat="59.5599532127" lon="31.2674117088"><ele>0.14</ele><time>2026-09-02T19:11:00Z</time></trkpt><trkpt lat="59.5599532127" lon="31.2673473358"><ele>0.14</ele><time>2026-09-02T19:11:03Z</time></trkpt><trkpt lat="59.5599532127" lon="31.2673044205"><ele>0.14</ele><time>2026-09-02T19:11:05Z</time></trkpt><trkpt lat="59.5599532127" lon="31.2673044205"><ele>0.14</ele><time>2026-09-02T19:11:08Z</time></trkpt><trkpt lat="59.5599532127" lon="31.2673044205"><ele>0.14</ele><time>2026-09-02T19:11:10Z</time></trkpt><trkpt lat="59.5599317551" lon="31.2672829628"><ele>0.14</ele><time>2026-09-02T19:11:13Z</time></trkpt><trkpt lat="59.5599102974" lon="31.2672400475"><ele>0.14</ele><time>2026-09-02T19:11:15Z</time></trkpt><trkpt lat="59.5598888397" lon="31.2671971321"><ele>0.14</ele><time>2026-09-02T19:11:18Z</time></trkpt><trkpt lat="59.5598888397" lon="31.2671542168"><ele>0.14</ele><time>2026-09-02T19:11:20Z</time></trkpt><trkpt lat="59.5598888397" lon="31.2671327591"><ele>0.14</ele><time>2026-09-02T19:11:23Z</time></trkpt><trkpt lat="59.5599317551" lon="31.2671542168"><ele>0.14</ele><time>2026-09-02T19:11:25Z</time></trkpt><trkpt lat="59.5599746704" lon="31.2672185898"><ele>0.14</ele><time>2026-09-02T19:11:28Z</time></trkpt><trkpt lat="59.5600175858" lon="31.2672400475"><ele>0.14</ele><time>2026-09-02T19:11:30Z</time></trkpt><trkpt lat="59.5600605011" lon="31.2672829628"><ele>0.14</ele><time>2026-09-02T19:11:33Z</time></trkpt><trkpt lat="59.5601034164" lon="31.2672829628"><ele>0.14</ele><time>2026-09-02T19:11:35Z</time></trkpt><trkpt lat="59.5601677895" lon="31.2672400475"><ele>0.14</ele><time>2026-09-02T19:11:38Z</time></trkpt><trkpt lat="59.5602107048" lon="31.2672615051"><ele>0.14</ele><time>2026-09-02T19:11:40Z</time></trkpt><trkpt lat="59.5602750778" lon="31.2672829628"><ele>0.14</ele><time>2026-09-02T19:11:43Z</time></trkpt><trkpt lat="59.5603179932" lon="31.2672615051"><ele>0.14</ele><time>2026-09-02T19:11:45Z</time></trkpt><trkpt lat="59.5603394508" lon="31.2672185898"><ele>0.14</ele><time>2026-09-02T19:11:48Z</time></trkpt><trkpt lat="59.5603179932" lon="31.2671971321"><ele>0.14</ele><time>2026-09-02T19:11:50Z</time></trkpt><trkpt lat="59.5603179932" lon="31.2671756744"><ele>0.14</ele><time>2026-09-02T19:11:53Z</time></trkpt><trkpt lat="59.5603179932" lon="31.2671542168"><ele>0.14</ele><time>2026-09-02T19:11:55Z</time></trkpt><trkpt lat="59.5602965355" lon="31.2671542168"><ele>0.14</ele><time>2026-09-02T19:11:58Z</time></trkpt><trkpt lat="59.5602965355" lon="31.2671327591"><ele>0.14</ele><time>2026-09-02T19:12:00Z</time></trkpt><trkpt lat="59.5602965355" lon="31.2671327591"><ele>0.14</ele><time>2026-09-02T19:12:03Z</time></trkpt><trkpt lat="59.5603179932" lon="31.2671327591"><ele>0.14</ele><time>2026-09-02T19:12:05Z</time></trkpt><trkpt lat="59.5603179932" lon="31.2671327591"><ele>0.14</ele><time>2026-09-02T19:12:08Z</time></trkpt><trkpt lat="59.5602965355" lon="31.2671113014"><ele>0.14</ele><time>2026-09-02T19:12:10Z</time></trkpt><trkpt lat="59.5603179932" lon="31.2670898438"><ele>0.14</ele><time>2026-09-02T19:12:13Z</time></trkpt><trkpt lat="59.5603179932" lon="31.2670898438"><ele>0.14</ele><time>2026-09-02T19:12:15Z</time></trkpt><trkpt lat="59.5603179932" lon="31.2670898438"><ele>0.14</ele><time>2026-09-02T19:12:18Z</time></trkpt><trkpt lat="59.5603394508" lon="31.2670898438"><ele>0.14</ele><time>2026-09-02T19:12:20Z</time></trkpt><trkpt lat="59.5603394508" lon="31.2670683861"><ele>0.14</ele><time>2026-09-02T19:12:23Z</time></trkpt><trkpt lat="59.5603394508" lon="31.2670683861"><ele>0.14</ele><time>2026-09-02T19:12:25Z</time></trkpt><trkpt lat="59.5603609085" lon="31.2670469284"><ele>0.14</ele><time>2026-09-02T19:12:28Z</time></trkpt><trkpt lat="59.5603609085" lon="31.2670254707"><ele>0.14</ele><time>2026-09-02T19:12:30Z</time></trkpt><trkpt lat="59.5603609085" lon="31.2670254707"><ele>0.14</ele><time>2026-09-02T19:12:33Z</time></trkpt><trkpt lat="59.5603609085" lon="31.2670040131"><ele>0.14</ele><time>2026-09-02T19:12:35Z</time></trkpt><trkpt lat="59.5603609085" lon="31.2670040131"><ele>0.14</ele><time>2026-09-02T19:12:38Z</time></trkpt><trkpt lat="59.5603823662" lon="31.2670040131"><ele>0.14</ele><time>2026-09-02T19:12:40Z</time></trkpt><trkpt lat="59.5604038239" lon="31.2669825554"><ele>0.14</ele><time>2026-09-02T19:12:43Z</time></trkpt><trkpt lat="59.5604038239" lon="31.2669825554"><ele>0.14</ele><time>2026-09-02T19:12:45Z</time></trkpt><trkpt lat="59.5604038239" lon="31.2669610977"><ele>0.14</ele><time>2026-09-02T19:12:48Z</time></trkpt><trkpt lat="59.5604038239" lon="31.2669396400"><ele>0.14</ele><time>2026-09-02T19:12:50Z</time></trkpt><trkpt lat="59.5604038239" lon="31.2669181824"><ele>0.14</ele><time>2026-09-02T19:12:53Z</time></trkpt><trkpt lat="59.5604038239" lon="31.2668752670"><ele>0.14</ele><time>2026-09-02T19:12:55Z</time></trkpt><trkpt lat="59.5603823662" lon="31.2668752670"><ele>0.14</ele><time>2026-09-02T19:12:58Z</time></trkpt><trkpt lat="59.5603823662" lon="31.2668752670"><ele>0.14</ele><time>2026-09-02T19:13:00Z</time></trkpt><trkpt lat="59.5604467392" lon="31.2668538094"><ele>0.14</ele><time>2026-09-02T19:13:03Z</time></trkpt><trkpt lat="59.5605111122" lon="31.2668967247"><ele>0.14</ele><time>2026-09-02T19:13:05Z</time></trkpt><trkpt lat="59.5605754852" lon="31.2668323517"><ele>0.14</ele><time>2026-09-02T19:13:08Z</time></trkpt><trkpt lat="59.5605969429" lon="31.2667465210"><ele>0.14</ele><time>2026-09-02T19:13:10Z</time></trkpt><trkpt lat="59.5605969429" lon="31.2666821480"><ele>0.14</ele><time>2026-09-02T19:13:13Z</time></trkpt><trkpt lat="59.5606184006" lon="31.2666606903"><ele>0.14</ele><time>2026-09-02T19:13:15Z</time></trkpt><trkpt lat="59.5606398582" lon="31.2666392326"><ele>0.14</ele><time>2026-09-02T19:13:18Z</time></trkpt><trkpt lat="59.5606613159" lon="31.2666392326"><ele>0.14</ele><time>2026-09-02T19:13:20Z</time></trkpt><trkpt lat="59.5607042313" lon="31.2666606903"><ele>0.14</ele><time>2026-09-02T19:13:23Z</time></trkpt><trkpt lat="59.5607471466" lon="31.2666821480"><ele>0.14</ele><time>2026-09-02T19:13:25Z</time></trkpt><trkpt lat="59.5607686043" lon="31.2666821480"><ele>0.14</ele><time>2026-09-02T19:13:28Z</time></trkpt><trkpt lat="59.5607686043" lon="31.2666606903"><ele>0.14</ele><time>2026-09-02T19:13:30Z</time></trkpt><trkpt lat="59.5607686043" lon="31.2666392326"><ele>0.14</ele><time>2026-09-02T19:13:33Z</time></trkpt><trkpt lat="59.5607686043" lon="31.2665963173"><ele>0.14</ele><time>2026-09-02T19:13:35Z</time></trkpt><trkpt lat="59.5607471466" lon="31.2665748596"><ele>0.14</ele><time>2026-09-02T19:13:38Z</time></trkpt><trkpt lat="59.5607471466" lon="31.2665319443"><ele>0.14</ele><time>2026-09-02T19:13:40Z</time></trkpt><trkpt lat="59.5607256889" lon="31.2665319443"><ele>0.14</ele><time>2026-09-02T19:13:43Z</time></trkpt><trkpt lat="59.5607042313" lon="31.2665104866"><ele>0.14</ele><time>2026-09-02T19:13:45Z</time></trkpt><trkpt lat="59.5606827736" lon="31.2664890289"><ele>0.14</ele><time>2026-09-02T19:13:48Z</time></trkpt><trkpt lat="59.5606827736" lon="31.2664461136"><ele>0.14</ele><time>2026-09-02T19:13:50Z</time></trkpt><trkpt lat="59.5606613159" lon="31.2664461136"><ele>0.14</ele><time>2026-09-02T19:13:53Z</time></trkpt><trkpt lat="59.5606398582" lon="31.2664246559"><ele>0.14</ele><time>2026-09-02T19:13:55Z</time></trkpt><trkpt lat="59.5606398582" lon="31.2664031982"><ele>0.14</ele><time>2026-09-02T19:13:58Z</time></trkpt><trkpt lat="59.5606184006" lon="31.2663817406"><ele>0.14</ele><time>2026-09-02T19:14:00Z</time></trkpt><trkpt lat="59.5605969429" lon="31.2663388252"><ele>0.14</ele><time>2026-09-02T19:14:03Z</time></trkpt><trkpt lat="59.5605969429" lon="31.2662959099"><ele>0.14</ele><time>2026-09-02T19:14:05Z</time></trkpt><trkpt lat="59.5605754852" lon="31.2662744522"><ele>0.14</ele><time>2026-09-02T19:14:08Z</time></trkpt><trkpt lat="59.5605540276" lon="31.2662315369"><ele>0.14</ele><time>2026-09-02T19:14:10Z</time></trkpt><trkpt lat="59.5605540276" lon="31.2662100792"><ele>0.14</ele><time>2026-09-02T19:14:13Z</time></trkpt><trkpt lat="59.5605540276" lon="31.2661671638"><ele>0.14</ele><time>2026-09-02T19:14:15Z</time></trkpt><trkpt lat="59.5605325699" lon="31.2661457062"><ele>0.14</ele><time>2026-09-02T19:14:18Z</time></trkpt><trkpt lat="59.5605325699" lon="31.2661242485"><ele>0.14</ele><time>2026-09-02T19:14:20Z</time></trkpt><trkpt lat="59.5605325699" lon="31.2660813332"><ele>0.14</ele><time>2026-09-02T19:14:23Z</time></trkpt><trkpt lat="59.5605325699" lon="31.2660598755"><ele>0.14</ele><time>2026-09-02T19:14:25Z</time></trkpt><trkpt lat="59.5605325699" lon="31.2660384178"><ele>0.14</ele><time>2026-09-02T19:14:28Z</time></trkpt><trkpt lat="59.5605969429" lon="31.2660384178"><ele>0.14</ele><time>2026-09-02T19:14:30Z</time></trkpt><trkpt lat="59.5606184006" lon="31.2661027908"><ele>0.14</ele><time>2026-09-02T19:14:33Z</time></trkpt><trkpt lat="59.5606398582" lon="31.2661671638"><ele>0.14</ele><time>2026-09-02T19:14:35Z</time></trkpt><trkpt lat="59.5606613159" lon="31.2661671638"><ele>0.14</ele><time>2026-09-02T19:14:38Z</time></trkpt><trkpt lat="59.5606827736" lon="31.2661886215"><ele>0.14</ele><time>2026-09-02T19:14:40Z</time></trkpt><trkpt lat="59.5606827736" lon="31.2662315369"><ele>0.14</ele><time>2026-09-02T19:14:43Z</time></trkpt><trkpt lat="59.5606827736" lon="31.2662529945"><ele>0.14</ele><time>2026-09-02T19:14:45Z</time></trkpt><trkpt lat="59.5606827736" lon="31.2662529945"><ele>0.14</ele><time>2026-09-02T19:14:48Z</time></trkpt><trkpt lat="59.5606827736" lon="31.2662744522"><ele>0.14</ele><time>2026-09-02T19:14:50Z</time></trkpt><trkpt lat="59.5606827736" lon="31.2663173676"><ele>0.14</ele><time>2026-09-02T19:14:53Z</time></trkpt><trkpt lat="59.5606613159" lon="31.2663602829"><ele>0.14</ele><time>2026-09-02T19:14:55Z</time></trkpt><trkpt lat="59.5606398582" lon="31.2663602829"><ele>0.14</ele><time>2026-09-02T19:14:58Z</time></trkpt><trkpt lat="59.5606398582" lon="31.2663602829"><ele>0.14</ele><time>2026-09-02T19:15:00Z</time></trkpt><trkpt lat="59.5606184006" lon="31.2663602829"><ele>0.14</ele><time>2026-09-02T19:15:03Z</time></trkpt><trkpt lat="59.5605969429" lon="31.2663602829"><ele>0.14</ele><time>2026-09-02T19:15:05Z</time></trkpt><trkpt lat="59.5605754852" lon="31.2663602829"><ele>0.14</ele><time>2026-09-02T19:15:08Z</time></trkpt><trkpt lat="59.5605540276" lon="31.2663173676"><ele>0.14</ele><time>2026-09-02T19:15:10Z</time></trkpt><trkpt lat="59.5605325699" lon="31.2663173676"><ele>0.14</ele><time>2026-09-02T19:15:13Z</time></trkpt><trkpt lat="59.5605111122" lon="31.2663173676"><ele>0.14</ele><time>2026-09-02T19:15:15Z</time></trkpt><trkpt lat="59.5604896545" lon="31.2662315369"><ele>0.14</ele><time>2026-09-02T19:15:18Z</time></trkpt><trkpt lat="59.5604467392" lon="31.2661886215"><ele>0.14</ele><time>2026-09-02T19:15:20Z</time></trkpt><trkpt lat="59.5604467392" lon="31.2661027908"><ele>0.14</ele><time>2026-09-02T19:15:23Z</time></trkpt><trkpt lat="59.5604252815" lon="31.2660169601"><ele>0.14</ele><time>2026-09-02T19:15:25Z</time></trkpt><trkpt lat="59.5604038239" lon="31.2660169601"><ele>0.14</ele><time>2026-09-02T19:15:28Z</time></trkpt><trkpt lat="59.5604038239" lon="31.2659955025"><ele>0.14</ele><time>2026-09-02T19:15:30Z</time></trkpt><trkpt lat="59.5604038239" lon="31.2659740448"><ele>0.14</ele><time>2026-09-02T19:15:33Z</time></trkpt><trkpt lat="59.5604252815" lon="31.2659740448"><ele>0.14</ele><time>2026-09-02T19:15:35Z</time></trkpt><trkpt lat="59.5604467392" lon="31.2659525871"><ele>0.14</ele><time>2026-09-02T19:15:38Z</time></trkpt><trkpt lat="59.5604467392" lon="31.2659311295"><ele>0.14</ele><time>2026-09-02T19:15:40Z</time></trkpt><trkpt lat="59.5604252815" lon="31.2658882141"><ele>0.14</ele><time>2026-09-02T19:15:43Z</time></trkpt><trkpt lat="59.5604252815" lon="31.2658667564"><ele>0.14</ele><time>2026-09-02T19:15:45Z</time></trkpt><trkpt lat="59.5604038239" lon="31.2658667564"><ele>0.14</ele><time>2026-09-02T19:15:48Z</time></trkpt><trkpt lat="59.5603823662" lon="31.2658882141"><ele>0.14</ele><time>2026-09-02T19:15:50Z</time></trkpt><trkpt lat="59.5603823662" lon="31.2658882141"><ele>0.14</ele><time>2026-09-02T19:15:53Z</time></trkpt><trkpt lat="59.5603823662" lon="31.2659096718"><ele>0.14</ele><time>2026-09-02T19:15:55Z</time></trkpt><trkpt lat="59.5603609085" lon="31.2659096718"><ele>0.14</ele><time>2026-09-02T19:15:58Z</time></trkpt><trkpt lat="59.5603823662" lon="31.2659311295"><ele>0.14</ele><time>2026-09-02T19:16:00Z</time></trkpt><trkpt lat="59.5604038239" lon="31.2659525871"><ele>0.14</ele><time>2026-09-02T19:16:03Z</time></trkpt><trkpt lat="59.5604252815" lon="31.2659740448"><ele>0.14</ele><time>2026-09-02T19:16:05Z</time></trkpt><trkpt lat="59.5604252815" lon="31.2659740448"><ele>0.14</ele><time>2026-09-02T19:16:08Z</time></trkpt><trkpt lat="59.5604252815" lon="31.2659955025"><ele>0.14</ele><time>2026-09-02T19:16:10Z</time></trkpt><trkpt lat="59.5604252815" lon="31.2659955025"><ele>0.14</ele><time>2026-09-02T19:16:13Z</time></trkpt><trkpt lat="59.5604252815" lon="31.2659955025"><ele>0.14</ele><time>2026-09-02T19:16:15Z</time></trkpt><trkpt lat="59.5604252815" lon="31.2659955025"><ele>0.14</ele><time>2026-09-02T19:16:18Z</time></trkpt><trkpt lat="59.5604252815" lon="31.2659955025"><ele>0.14</ele><time>2026-09-02T19:16:20Z</time></trkpt><trkpt lat="59.5604252815" lon="31.2659955025"><ele>0.14</ele><time>2026-09-02T19:16:23Z</time></trkpt><trkpt lat="59.5604252815" lon="31.2659955025"><ele>0.14</ele><time>2026-09-02T19:16:25Z</time></trkpt><trkpt lat="59.5604252815" lon="31.2659955025"><ele>0.14</ele><time>2026-09-02T19:16:28Z</time></trkpt><trkpt lat="59.5604252815" lon="31.2659955025"><ele>0.14</ele><time>2026-09-02T19:16:30Z</time></trkpt><trkpt lat="59.5604252815" lon="31.2659955025"><ele>0.14</ele><time>2026-09-02T19:16:33Z</time></trkpt><trkpt lat="59.5604252815" lon="31.2659955025"><ele>0.14</ele><time>2026-09-02T19:16:35Z</time></trkpt><trkpt lat="59.5604252815" lon="31.2659955025"><ele>0.14</ele><time>2026-09-02T19:16:38Z</time></trkpt><trkpt lat="59.5604252815" lon="31.2659955025"><ele>0.14</ele><time>2026-09-02T19:16:40Z</time></trkpt><trkpt lat="59.5604252815" lon="31.2659955025"><ele>0.14</ele><time>2026-09-02T19:16:43Z</time></trkpt><trkpt lat="59.5604252815" lon="31.2659955025"><ele>0.14</ele><time>2026-09-02T19:16:45Z</time></trkpt><trkpt lat="59.5604252815" lon="31.2659955025"><ele>0.14</ele><time>2026-09-02T19:16:48Z</time></trkpt><trkpt lat="59.5604252815" lon="31.2659955025"><ele>0.14</ele><time>2026-09-02T19:16:50Z</time></trkpt><trkpt lat="59.5604252815" lon="31.2659955025"><ele>0.14</ele><time>2026-09-02T19:16:53Z</time></trkpt><trkpt lat="59.5604252815" lon="31.2659955025"><ele>0.14</ele><time>2026-09-02T19:16:55Z</time></trkpt><trkpt lat="59.5604252815" lon="31.2659955025"><ele>0.14</ele><time>2026-09-02T19:16:58Z</time></trkpt><trkpt lat="59.5604252815" lon="31.2659955025"><ele>0.14</ele><time>2026-09-02T19:17:00Z</time></trkpt><trkpt lat="59.5604252815" lon="31.2659955025"><ele>0.14</ele><time>2026-09-02T19:17:03Z</time></trkpt><trkpt lat="59.5604252815" lon="31.2659955025"><ele>0.14</ele><time>2026-09-02T19:17:05Z</time></trkpt><trkpt lat="59.5603823662" lon="31.2660169601"><ele>0.14</ele><time>2026-09-02T19:17:08Z</time></trkpt><trkpt lat="59.5603394508" lon="31.2660384178"><ele>0.14</ele><time>2026-09-02T19:17:10Z</time></trkpt><trkpt lat="59.5603179932" lon="31.2660598755"><ele>0.14</ele><time>2026-09-02T19:17:13Z</time></trkpt><trkpt lat="59.5602750778" lon="31.2660598755"><ele>0.14</ele><time>2026-09-02T19:17:15Z</time></trkpt><trkpt lat="59.5602750778" lon="31.2660384178"><ele>0.14</ele><time>2026-09-02T19:17:18Z</time></trkpt><trkpt lat="59.5602536201" lon="31.2660598755"><ele>0.14</ele><time>2026-09-02T19:17:20Z</time></trkpt><trkpt lat="59.5602536201" lon="31.2660598755"><ele>0.14</ele><time>2026-09-02T19:17:23Z</time></trkpt><trkpt lat="59.5602536201" lon="31.2660598755"><ele>0.14</ele><time>2026-09-02T19:17:25Z</time></trkpt><trkpt lat="59.5602536201" lon="31.2660598755"><ele>0.14</ele><time>2026-09-02T19:17:28Z</time></trkpt><trkpt lat="59.5602536201" lon="31.2660384178"><ele>0.14</ele><time>2026-09-02T19:17:30Z</time></trkpt><trkpt lat="59.5602536201" lon="31.2660384178"><ele>0.14</ele><time>2026-09-02T19:17:33Z</time></trkpt><trkpt lat="59.5602536201" lon="31.2660384178"><ele>0.14</ele><time>2026-09-02T19:17:35Z</time></trkpt><trkpt lat="59.5602536201" lon="31.2660384178"><ele>0.14</ele><time>2026-09-02T19:17:38Z</time></trkpt><trkpt lat="59.5602536201" lon="31.2660384178"><ele>0.14</ele><time>2026-09-02T19:17:40Z</time></trkpt><trkpt lat="59.5602536201" lon="31.2660384178"><ele>0.14</ele><time>2026-09-02T19:17:43Z</time></trkpt><trkpt lat="59.5602536201" lon="31.2660598755"><ele>0.14</ele><time>2026-09-02T19:17:45Z</time></trkpt><trkpt lat="59.5602536201" lon="31.2660598755"><ele>0.14</ele><time>2026-09-02T19:17:48Z</time></trkpt><trkpt lat="59.5602321625" lon="31.2660598755"><ele>0.14</ele><time>2026-09-02T19:17:50Z</time></trkpt><trkpt lat="59.5602321625" lon="31.2660813332"><ele>0.14</ele><time>2026-09-02T19:17:53Z</time></trkpt><trkpt lat="59.5601892471" lon="31.2661457062"><ele>0.14</ele><time>2026-09-02T19:17:55Z</time></trkpt><trkpt lat="59.5601463318" lon="31.2662529945"><ele>0.14</ele><time>2026-09-02T19:17:58Z</time></trkpt><trkpt lat="59.5601034164" lon="31.2663388252"><ele>0.14</ele><time>2026-09-02T19:18:00Z</time></trkpt><trkpt lat="59.5600605011" lon="31.2663817406"><ele>0.14</ele><time>2026-09-02T19:18:03Z</time></trkpt><trkpt lat="59.5600390434" lon="31.2663817406"><ele>0.14</ele><time>2026-09-02T19:18:05Z</time></trkpt><trkpt lat="59.5600175858" lon="31.2663388252"><ele>0.14</ele><time>2026-09-02T19:18:08Z</time></trkpt><trkpt lat="59.5599961281" lon="31.2662959099"><ele>0.14</ele><time>2026-09-02T19:18:10Z</time></trkpt><trkpt lat="59.5599746704" lon="31.2662959099"><ele>0.14</ele><time>2026-09-02T19:18:13Z</time></trkpt><trkpt lat="59.5599532127" lon="31.2662959099"><ele>0.14</ele><time>2026-09-02T19:18:15Z</time></trkpt><trkpt lat="59.5599102974" lon="31.2662959099"><ele>0.14</ele><time>2026-09-02T19:18:18Z</time></trkpt><trkpt lat="59.5598888397" lon="31.2662744522"><ele>0.14</ele><time>2026-09-02T19:18:20Z</time></trkpt><trkpt lat="59.5598888397" lon="31.2662744522"><ele>0.14</ele><time>2026-09-02T19:18:23Z</time></trkpt><trkpt lat="59.5598888397" lon="31.2662529945"><ele>0.14</ele><time>2026-09-02T19:18:25Z</time></trkpt><trkpt lat="59.5598888397" lon="31.2662529945"><ele>0.14</ele><time>2026-09-02T19:18:28Z</time></trkpt><trkpt lat="59.5598673820" lon="31.2662529945"><ele>0.14</ele><time>2026-09-02T19:18:30Z</time></trkpt><trkpt lat="59.5598244667" lon="31.2662100792"><ele>0.14</ele><time>2026-09-02T19:18:33Z</time></trkpt><trkpt lat="59.5597600937" lon="31.2661886215"><ele>0.14</ele><time>2026-09-02T19:18:35Z</time></trkpt><trkpt lat="59.5597386360" lon="31.2661671638"><ele>0.14</ele><time>2026-09-02T19:18:38Z</time></trkpt><trkpt lat="59.5596957207" lon="31.2661671638"><ele>0.14</ele><time>2026-09-02T19:18:40Z</time></trkpt><trkpt lat="59.5596528053" lon="31.2661671638"><ele>0.14</ele><time>2026-09-02T19:18:43Z</time></trkpt><trkpt lat="59.5596528053" lon="31.2661671638"><ele>0.14</ele><time>2026-09-02T19:18:45Z</time></trkpt><trkpt lat="59.5596313477" lon="31.2661671638"><ele>0.14</ele><time>2026-09-02T19:18:48Z</time></trkpt><trkpt lat="59.5596528053" lon="31.2661671638"><ele>0.14</ele><time>2026-09-02T19:18:50Z</time></trkpt><trkpt lat="59.5596528053" lon="31.2661242485"><ele>0.14</ele><time>2026-09-02T19:18:53Z</time></trkpt><trkpt lat="59.5596528053" lon="31.2661242485"><ele>0.14</ele><time>2026-09-02T19:18:55Z</time></trkpt><trkpt lat="59.5596742630" lon="31.2661671638"><ele>0.14</ele><time>2026-09-02T19:18:58Z</time></trkpt><trkpt lat="59.5597171783" lon="31.2662100792"><ele>0.14</ele><time>2026-09-02T19:19:00Z</time></trkpt><trkpt lat="59.5597600937" lon="31.2662744522"><ele>0.14</ele><time>2026-09-02T19:19:03Z</time></trkpt><trkpt lat="59.5598244667" lon="31.2663388252"><ele>0.14</ele><time>2026-09-02T19:19:05Z</time></trkpt><trkpt lat="59.5598673820" lon="31.2664461136"><ele>0.14</ele><time>2026-09-02T19:19:08Z</time></trkpt><trkpt lat="59.5598673820" lon="31.2664675713"><ele>0.14</ele><time>2026-09-02T19:19:10Z</time></trkpt><trkpt lat="59.5598673820" lon="31.2664675713"><ele>0.14</ele><time>2026-09-02T19:19:13Z</time></trkpt><trkpt lat="59.5598673820" lon="31.2664461136"><ele>0.14</ele><time>2026-09-02T19:19:15Z</time></trkpt><trkpt lat="59.5599102974" lon="31.2665104866"><ele>0.14</ele><time>2026-09-02T19:19:18Z</time></trkpt><trkpt lat="59.5599317551" lon="31.2665748596"><ele>0.14</ele><time>2026-09-02T19:19:20Z</time></trkpt><trkpt lat="59.5599317551" lon="31.2667036057"><ele>0.14</ele><time>2026-09-02T19:19:23Z</time></trkpt><trkpt lat="59.5598888397" lon="31.2667465210"><ele>0.14</ele><time>2026-09-02T19:19:25Z</time></trkpt><trkpt lat="59.5598888397" lon="31.2668108940"><ele>0.14</ele><time>2026-09-02T19:19:28Z</time></trkpt><trkpt lat="59.5598673820" lon="31.2668108940"><ele>0.14</ele><time>2026-09-02T19:19:30Z</time></trkpt><trkpt lat="59.5598673820" lon="31.2668323517"><ele>0.14</ele><time>2026-09-02T19:19:33Z</time></trkpt><trkpt lat="59.5598459244" lon="31.2668323517"><ele>0.14</ele><time>2026-09-02T19:19:35Z</time></trkpt><trkpt lat="59.5598673820" lon="31.2668538094"><ele>0.14</ele><time>2026-09-02T19:19:38Z</time></trkpt><trkpt lat="59.5598673820" lon="31.2668538094"><ele>0.14</ele><time>2026-09-02T19:19:40Z</time></trkpt><trkpt lat="59.5598673820" lon="31.2668752670"><ele>0.14</ele><time>2026-09-02T19:19:43Z</time></trkpt><trkpt lat="59.5598888397" lon="31.2668323517"><ele>0.14</ele><time>2026-09-02T19:19:45Z</time></trkpt><trkpt lat="59.5598888397" lon="31.2667894363"><ele>0.14</ele><time>2026-09-02T19:19:48Z</time></trkpt><trkpt lat="59.5599102974" lon="31.2667679787"><ele>0.14</ele><time>2026-09-02T19:19:50Z</time></trkpt><trkpt lat="59.5599102974" lon="31.2667894363"><ele>0.14</ele><time>2026-09-02T19:19:53Z</time></trkpt><trkpt lat="59.5598888397" lon="31.2668108940"><ele>0.14</ele><time>2026-09-02T19:19:55Z</time></trkpt><trkpt lat="59.5598888397" lon="31.2667894363"><ele>0.14</ele><time>2026-09-02T19:19:58Z</time></trkpt><trkpt lat="59.5598673820" lon="31.2667894363"><ele>0.14</ele><time>2026-09-02T19:20:00Z</time></trkpt><trkpt lat="59.5598673820" lon="31.2667894363"><ele>0.14</ele><time>2026-09-02T19:20:03Z</time></trkpt><trkpt lat="59.5598673820" lon="31.2667894363"><ele>0.14</ele><time>2026-09-02T19:20:05Z</time></trkpt><trkpt lat="59.5598459244" lon="31.2667894363"><ele>0.14</ele><time>2026-09-02T19:20:08Z</time></trkpt><trkpt lat="59.5598459244" lon="31.2667894363"><ele>0.14</ele><time>2026-09-02T19:20:10Z</time></trkpt><trkpt lat="59.5598459244" lon="31.2667894363"><ele>0.14</ele><time>2026-09-02T19:20:13Z</time></trkpt><trkpt lat="59.5598459244" lon="31.2667894363"><ele>0.14</ele><time>2026-09-02T19:20:15Z</time></trkpt><trkpt lat="59.5598459244" lon="31.2667894363"><ele>0.14</ele><time>2026-09-02T19:20:18Z</time></trkpt><trkpt lat="59.5598459244" lon="31.2667894363"><ele>0.14</ele><time>2026-09-02T19:20:20Z</time></trkpt><trkpt lat="59.5598459244" lon="31.2667894363"><ele>0.14</ele><time>2026-09-02T19:20:23Z</time></trkpt><trkpt lat="59.5598459244" lon="31.2667894363"><ele>0.14</ele><time>2026-09-02T19:20:25Z</time></trkpt><trkpt lat="59.5598459244" lon="31.2668108940"><ele>0.14</ele><time>2026-09-02T19:20:28Z</time></trkpt><trkpt lat="59.5598459244" lon="31.2668108940"><ele>0.14</ele><time>2026-09-02T19:20:30Z</time></trkpt><trkpt lat="59.5598459244" lon="31.2668108940"><ele>0.14</ele><time>2026-09-02T19:20:33Z</time></trkpt><trkpt lat="59.5598459244" lon="31.2668108940"><ele>0.14</ele><time>2026-09-02T19:20:35Z</time></trkpt><trkpt lat="59.5598459244" lon="31.2668108940"><ele>0.14</ele><time>2026-09-02T19:20:38Z</time></trkpt><trkpt lat="59.5598459244" lon="31.2668323517"><ele>0.14</ele><time>2026-09-02T19:20:40Z</time></trkpt><trkpt lat="59.5598673820" lon="31.2668538094"><ele>0.14</ele><time>2026-09-02T19:20:43Z</time></trkpt><trkpt lat="59.5598673820" lon="31.2668538094"><ele>0.14</ele><time>2026-09-02T19:20:45Z</time></trkpt><trkpt lat="59.5598673820" lon="31.2668538094"><ele>0.14</ele><time>2026-09-02T19:20:48Z</time></trkpt><trkpt lat="59.5598673820" lon="31.2668538094"><ele>0.14</ele><time>2026-09-02T19:20:50Z</time></trkpt><trkpt lat="59.5598673820" lon="31.2668538094"><ele>0.14</ele><time>2026-09-02T19:20:53Z</time></trkpt><trkpt lat="59.5598673820" lon="31.2668752670"><ele>0.14</ele><time>2026-09-02T19:20:55Z</time></trkpt><trkpt lat="59.5598673820" lon="31.2668752670"><ele>0.14</ele><time>2026-09-02T19:20:58Z</time></trkpt><trkpt lat="59.5598673820" lon="31.2668752670"><ele>0.14</ele><time>2026-09-02T19:21:00Z</time></trkpt><trkpt lat="59.5598673820" lon="31.2669181824"><ele>0.14</ele><time>2026-09-02T19:21:03Z</time></trkpt><trkpt lat="59.5598673820" lon="31.2669181824"><ele>0.14</ele><time>2026-09-02T19:21:05Z</time></trkpt><trkpt lat="59.5598673820" lon="31.2669181824"><ele>0.14</ele><time>2026-09-02T19:21:08Z</time></trkpt><trkpt lat="59.5598673820" lon="31.2669181824"><ele>0.14</ele><time>2026-09-02T19:21:10Z</time></trkpt><trkpt lat="59.5598673820" lon="31.2669181824"><ele>0.14</ele><time>2026-09-02T19:21:13Z</time></trkpt><trkpt lat="59.5598673820" lon="31.2669396400"><ele>0.14</ele><time>2026-09-02T19:21:15Z</time></trkpt><trkpt lat="59.5598673820" lon="31.2669396400"><ele>0.14</ele><time>2026-09-02T19:21:18Z</time></trkpt><trkpt lat="59.5598673820" lon="31.2669396400"><ele>0.14</ele><time>2026-09-02T19:21:20Z</time></trkpt><trkpt lat="59.5598673820" lon="31.2669396400"><ele>0.14</ele><time>2026-09-02T19:21:23Z</time></trkpt><trkpt lat="59.5598673820" lon="31.2669610977"><ele>0.14</ele><time>2026-09-02T19:21:25Z</time></trkpt><trkpt lat="59.5598459244" lon="31.2670040131"><ele>0.14</ele><time>2026-09-02T19:21:28Z</time></trkpt><trkpt lat="59.5598459244" lon="31.2670040131"><ele>0.14</ele><time>2026-09-02T19:21:30Z</time></trkpt><trkpt lat="59.5598459244" lon="31.2670040131"><ele>0.14</ele><time>2026-09-02T19:21:33Z</time></trkpt><trkpt lat="59.5598459244" lon="31.2670040131"><ele>0.14</ele><time>2026-09-02T19:21:35Z</time></trkpt><trkpt lat="59.5598459244" lon="31.2670040131"><ele>0.14</ele><time>2026-09-02T19:21:38Z</time></trkpt><trkpt lat="59.5598459244" lon="31.2670254707"><ele>0.14</ele><time>2026-09-02T19:21:40Z</time></trkpt><trkpt lat="59.5598459244" lon="31.2670254707"><ele>0.14</ele><time>2026-09-02T19:21:43Z</time></trkpt><trkpt lat="59.5598459244" lon="31.2670683861"><ele>0.14</ele><time>2026-09-02T19:21:45Z</time></trkpt><trkpt lat="59.5598459244" lon="31.2670898438"><ele>0.14</ele><time>2026-09-02T19:21:48Z</time></trkpt><trkpt lat="59.5598459244" lon="31.2671327591"><ele>0.14</ele><time>2026-09-02T19:21:50Z</time></trkpt><trkpt lat="59.5598459244" lon="31.2671542168"><ele>0.14</ele><time>2026-09-02T19:21:53Z</time></trkpt><trkpt lat="59.5598244667" lon="31.2671542168"><ele>0.14</ele><time>2026-09-02T19:21:55Z</time></trkpt><trkpt lat="59.5598244667" lon="31.2671542168"><ele>0.14</ele><time>2026-09-02T19:21:58Z</time></trkpt><trkpt lat="59.5598244667" lon="31.2671542168"><ele>0.14</ele><time>2026-09-02T19:22:00Z</time></trkpt><trkpt lat="59.5598244667" lon="31.2671542168"><ele>0.14</ele><time>2026-09-02T19:22:03Z</time></trkpt><trkpt lat="59.5598244667" lon="31.2671542168"><ele>0.14</ele><time>2026-09-02T19:22:05Z</time></trkpt><trkpt lat="59.5598244667" lon="31.2671542168"><ele>0.14</ele><time>2026-09-02T19:22:08Z</time></trkpt><trkpt lat="59.5598244667" lon="31.2671542168"><ele>0.14</ele><time>2026-09-02T19:22:10Z</time></trkpt><trkpt lat="59.5598244667" lon="31.2671542168"><ele>0.14</ele><time>2026-09-02T19:22:13Z</time></trkpt><trkpt lat="59.5598244667" lon="31.2671542168"><ele>0.14</ele><time>2026-09-02T19:22:15Z</time></trkpt><trkpt lat="59.5598459244" lon="31.2671542168"><ele>0.14</ele><time>2026-09-02T19:22:18Z</time></trkpt><trkpt lat="59.5598459244" lon="31.2671542168"><ele>0.14</ele><time>2026-09-02T19:22:20Z</time></trkpt><trkpt lat="59.5598459244" lon="31.2671542168"><ele>0.14</ele><time>2026-09-02T19:22:23Z</time></trkpt><trkpt lat="59.5598459244" lon="31.2671542168"><ele>0.14</ele><time>2026-09-02T19:22:25Z</time></trkpt><trkpt lat="59.5598459244" lon="31.2671542168"><ele>0.14</ele><time>2026-09-02T19:22:28Z</time></trkpt><trkpt lat="59.5598459244" lon="31.2671542168"><ele>0.14</ele><time>2026-09-02T19:22:30Z</time></trkpt><trkpt lat="59.5598459244" lon="31.2671542168"><ele>0.14</ele><time>2026-09-02T19:22:33Z</time></trkpt><trkpt lat="59.5598459244" lon="31.2671542168"><ele>0.14</ele><time>2026-09-02T19:22:35Z</time></trkpt><trkpt lat="59.5598459244" lon="31.2671542168"><ele>0.14</ele><time>2026-09-02T19:22:38Z</time></trkpt><trkpt lat="59.5598459244" lon="31.2671542168"><ele>0.14</ele><time>2026-09-02T19:22:40Z</time></trkpt><trkpt lat="59.5598459244" lon="31.2671542168"><ele>0.14</ele><time>2026-09-02T19:22:43Z</time></trkpt><trkpt lat="59.5598459244" lon="31.2671542168"><ele>0.14</ele><time>2026-09-02T19:22:45Z</time></trkpt><trkpt lat="59.5598459244" lon="31.2671542168"><ele>0.14</ele><time>2026-09-02T19:22:48Z</time></trkpt><trkpt lat="59.5598459244" lon="31.2671542168"><ele>0.14</ele><time>2026-09-02T19:22:50Z</time></trkpt><trkpt lat="59.5598459244" lon="31.2671542168"><ele>0.14</ele><time>2026-09-02T19:22:53Z</time></trkpt><trkpt lat="59.5598459244" lon="31.2671542168"><ele>0.14</ele><time>2026-09-02T19:22:55Z</time></trkpt><trkpt lat="59.5598459244" lon="31.2671542168"><ele>0.14</ele><time>2026-09-02T19:22:58Z</time></trkpt><trkpt lat="59.5598459244" lon="31.2671542168"><ele>0.14</ele><time>2026-09-02T19:23:00Z</time></trkpt><trkpt lat="59.5598459244" lon="31.2671542168"><ele>0.14</ele><time>2026-09-02T19:23:03Z</time></trkpt><trkpt lat="59.5598459244" lon="31.2671756744"><ele>0.14</ele><time>2026-09-02T19:23:05Z</time></trkpt><trkpt lat="59.5598244667" lon="31.2671756744"><ele>0.14</ele><time>2026-09-02T19:23:08Z</time></trkpt><trkpt lat="59.5598244667" lon="31.2671971321"><ele>0.14</ele><time>2026-09-02T19:23:10Z</time></trkpt><trkpt lat="59.5598244667" lon="31.2671971321"><ele>0.14</ele><time>2026-09-02T19:23:13Z</time></trkpt><trkpt lat="59.5598244667" lon="31.2671971321"><ele>0.14</ele><time>2026-09-02T19:23:15Z</time></trkpt><trkpt lat="59.5598244667" lon="31.2672185898"><ele>0.14</ele><time>2026-09-02T19:23:18Z</time></trkpt><trkpt lat="59.5598244667" lon="31.2672185898"><ele>0.14</ele><time>2026-09-02T19:23:20Z</time></trkpt><trkpt lat="59.5598030090" lon="31.2672185898"><ele>0.14</ele><time>2026-09-02T19:23:23Z</time></trkpt><trkpt lat="59.5598030090" lon="31.2672185898"><ele>0.14</ele><time>2026-09-02T19:23:25Z</time></trkpt><trkpt lat="59.5597815514" lon="31.2672185898"><ele>0.14</ele><time>2026-09-02T19:23:28Z</time></trkpt><trkpt lat="59.5597815514" lon="31.2672185898"><ele>0.14</ele><time>2026-09-02T19:23:30Z</time></trkpt><trkpt lat="59.5597815514" lon="31.2672185898"><ele>0.14</ele><time>2026-09-02T19:23:33Z</time></trkpt><trkpt lat="59.5597600937" lon="31.2671971321"><ele>0.14</ele><time>2026-09-02T19:23:35Z</time></trkpt><trkpt lat="59.5597386360" lon="31.2671971321"><ele>0.14</ele><time>2026-09-02T19:23:38Z</time></trkpt><trkpt lat="59.5597171783" lon="31.2671756744"><ele>0.14</ele><time>2026-09-02T19:23:40Z</time></trkpt><trkpt lat="59.5597171783" lon="31.2671756744"><ele>0.14</ele><time>2026-09-02T19:23:43Z</time></trkpt><trkpt lat="59.5597171783" lon="31.2671971321"><ele>0.14</ele><time>2026-09-02T19:23:45Z</time></trkpt><trkpt lat="59.5597171783" lon="31.2672185898"><ele>0.14</ele><time>2026-09-02T19:23:48Z</time></trkpt><trkpt lat="59.5597171783" lon="31.2672185898"><ele>0.14</ele><time>2026-09-02T19:23:50Z</time></trkpt><trkpt lat="59.5597171783" lon="31.2672400475"><ele>0.14</ele><time>2026-09-02T19:23:53Z</time></trkpt><trkpt lat="59.5597386360" lon="31.2672400475"><ele>0.14</ele><time>2026-09-02T19:23:55Z</time></trkpt><trkpt lat="59.5597386360" lon="31.2672400475"><ele>0.14</ele><time>2026-09-02T19:23:58Z</time></trkpt><trkpt lat="59.5597386360" lon="31.2672400475"><ele>0.14</ele><time>2026-09-02T19:24:00Z</time></trkpt><trkpt lat="59.5597386360" lon="31.2672400475"><ele>0.14</ele><time>2026-09-02T19:24:03Z</time></trkpt><trkpt lat="59.5597386360" lon="31.2672400475"><ele>0.14</ele><time>2026-09-02T19:24:05Z</time></trkpt><trkpt lat="59.5597386360" lon="31.2672400475"><ele>0.14</ele><time>2026-09-02T19:24:08Z</time></trkpt><trkpt lat="59.5597171783" lon="31.2672400475"><ele>0.14</ele><time>2026-09-02T19:24:10Z</time></trkpt><trkpt lat="59.5596957207" lon="31.2672185898"><ele>0.14</ele><time>2026-09-02T19:24:13Z</time></trkpt><trkpt lat="59.5596742630" lon="31.2671971321"><ele>0.14</ele><time>2026-09-02T19:24:15Z</time></trkpt><trkpt lat="59.5596528053" lon="31.2672185898"><ele>0.14</ele><time>2026-09-02T19:24:18Z</time></trkpt><trkpt lat="59.5596742630" lon="31.2672400475"><ele>0.14</ele><time>2026-09-02T19:24:20Z</time></trkpt><trkpt lat="59.5596742630" lon="31.2672400475"><ele>0.14</ele><time>2026-09-02T19:24:23Z</time></trkpt><trkpt lat="59.5596528053" lon="31.2672615051"><ele>0.14</ele><time>2026-09-02T19:24:25Z</time></trkpt><trkpt lat="59.5596528053" lon="31.2672829628"><ele>0.14</ele><time>2026-09-02T19:24:28Z</time></trkpt><trkpt lat="59.5596313477" lon="31.2672829628"><ele>0.14</ele><time>2026-09-02T19:24:30Z</time></trkpt><trkpt lat="59.5596313477" lon="31.2673044205"><ele>0.14</ele><time>2026-09-02T19:24:33Z</time></trkpt><trkpt lat="59.5596098900" lon="31.2673258781"><ele>0.14</ele><time>2026-09-02T19:24:35Z</time></trkpt><trkpt lat="59.5595884323" lon="31.2673258781"><ele>0.14</ele><time>2026-09-02T19:24:38Z</time></trkpt><trkpt lat="59.5595884323" lon="31.2673258781"><ele>0.14</ele><time>2026-09-02T19:24:40Z</time></trkpt><trkpt lat="59.5595669746" lon="31.2673687935"><ele>0.14</ele><time>2026-09-02T19:24:43Z</time></trkpt><trkpt lat="59.5595240593" lon="31.2673687935"><ele>0.14</ele><time>2026-09-02T19:24:45Z</time></trkpt><trkpt lat="59.5595026016" lon="31.2673687935"><ele>0.14</ele><time>2026-09-02T19:24:48Z</time></trkpt><trkpt lat="59.5594811440" lon="31.2673687935"><ele>0.14</ele><time>2026-09-02T19:24:50Z</time></trkpt><trkpt lat="59.5594811440" lon="31.2673473358"><ele>0.14</ele><time>2026-09-02T19:24:53Z</time></trkpt><trkpt lat="59.5594811440" lon="31.2673473358"><ele>0.14</ele><time>2026-09-02T19:24:55Z</time></trkpt><trkpt lat="59.5594811440" lon="31.2673473358"><ele>0.14</ele><time>2026-09-02T19:24:58Z</time></trkpt><trkpt lat="59.5594811440" lon="31.2673473358"><ele>0.14</ele><time>2026-09-02T19:25:00Z</time></trkpt><trkpt lat="59.5594811440" lon="31.2673258781"><ele>0.14</ele><time>2026-09-02T19:25:03Z</time></trkpt><trkpt lat="59.5594811440" lon="31.2673044205"><ele>0.14</ele><time>2026-09-02T19:25:05Z</time></trkpt><trkpt lat="59.5594596863" lon="31.2673044205"><ele>0.14</ele><time>2026-09-02T19:25:08Z</time></trkpt><trkpt lat="59.5594596863" lon="31.2673258781"><ele>0.14</ele><time>2026-09-02T19:25:10Z</time></trkpt><trkpt lat="59.5594811440" lon="31.2673044205"><ele>0.14</ele><time>2026-09-02T19:25:13Z</time></trkpt><trkpt lat="59.5594811440" lon="31.2673044205"><ele>0.14</ele><time>2026-09-02T19:25:15Z</time></trkpt><trkpt lat="59.5595026016" lon="31.2672829628"><ele>0.14</ele><time>2026-09-02T19:25:18Z</time></trkpt><trkpt lat="59.5595026016" lon="31.2672615051"><ele>0.14</ele><time>2026-09-02T19:25:20Z</time></trkpt><trkpt lat="59.5594811440" lon="31.2672185898"><ele>0.14</ele><time>2026-09-02T19:25:23Z</time></trkpt><trkpt lat="59.5594811440" lon="31.2671971321"><ele>0.14</ele><time>2026-09-02T19:25:25Z</time></trkpt><trkpt lat="59.5594811440" lon="31.2671971321"><ele>0.14</ele><time>2026-09-02T19:25:28Z</time></trkpt><trkpt lat="59.5594811440" lon="31.2671542168"><ele>0.14</ele><time>2026-09-02T19:25:30Z</time></trkpt><trkpt lat="59.5594811440" lon="31.2671542168"><ele>0.14</ele><time>2026-09-02T19:25:33Z</time></trkpt><trkpt lat="59.5594596863" lon="31.2671542168"><ele>0.14</ele><time>2026-09-02T19:25:35Z</time></trkpt><trkpt lat="59.5594596863" lon="31.2671327591"><ele>0.14</ele><time>2026-09-02T19:25:38Z</time></trkpt><trkpt lat="59.5594596863" lon="31.2671542168"><ele>0.14</ele><time>2026-09-02T19:25:40Z</time></trkpt><trkpt lat="59.5594382286" lon="31.2671756744"><ele>0.14</ele><time>2026-09-02T19:25:43Z</time></trkpt><trkpt lat="59.5594382286" lon="31.2671756744"><ele>0.14</ele><time>2026-09-02T19:25:45Z</time></trkpt><trkpt lat="59.5594382286" lon="31.2671971321"><ele>0.14</ele><time>2026-09-02T19:25:48Z</time></trkpt><trkpt lat="59.5594382286" lon="31.2671971321"><ele>0.14</ele><time>2026-09-02T19:25:50Z</time></trkpt><trkpt lat="59.5594167709" lon="31.2672185898"><ele>0.14</ele><time>2026-09-02T19:25:53Z</time></trkpt><trkpt lat="59.5594167709" lon="31.2671971321"><ele>0.14</ele><time>2026-09-02T19:25:55Z</time></trkpt><trkpt lat="59.5593953133" lon="31.2672185898"><ele>0.14</ele><time>2026-09-02T19:25:58Z</time></trkpt><trkpt lat="59.5593738556" lon="31.2672185898"><ele>0.14</ele><time>2026-09-02T19:26:00Z</time></trkpt><trkpt lat="59.5593523979" lon="31.2672400475"><ele>0.14</ele><time>2026-09-02T19:26:03Z</time></trkpt><trkpt lat="59.5593309402" lon="31.2672400475"><ele>0.14</ele><time>2026-09-02T19:26:05Z</time></trkpt><trkpt lat="59.5593094826" lon="31.2672400475"><ele>0.14</ele><time>2026-09-02T19:26:08Z</time></trkpt><trkpt lat="59.5592880249" lon="31.2672400475"><ele>0.14</ele><time>2026-09-02T19:26:10Z</time></trkpt><trkpt lat="59.5592880249" lon="31.2672400475"><ele>0.14</ele><time>2026-09-02T19:26:13Z</time></trkpt><trkpt lat="59.5592880249" lon="31.2672829628"><ele>0.14</ele><time>2026-09-02T19:26:15Z</time></trkpt><trkpt lat="59.5592880249" lon="31.2672829628"><ele>0.14</ele><time>2026-09-02T19:26:18Z</time></trkpt><trkpt lat="59.5592665672" lon="31.2673044205"><ele>0.14</ele><time>2026-09-02T19:26:20Z</time></trkpt><trkpt lat="59.5592665672" lon="31.2673258781"><ele>0.14</ele><time>2026-09-02T19:26:23Z</time></trkpt><trkpt lat="59.5592451096" lon="31.2673258781"><ele>0.14</ele><time>2026-09-02T19:26:25Z</time></trkpt><trkpt lat="59.5592665672" lon="31.2673687935"><ele>0.14</ele><time>2026-09-02T19:26:28Z</time></trkpt><trkpt lat="59.5592665672" lon="31.2673902512"><ele>0.14</ele><time>2026-09-02T19:26:30Z</time></trkpt><trkpt lat="59.5592451096" lon="31.2673902512"><ele>0.14</ele><time>2026-09-02T19:26:33Z</time></trkpt><trkpt lat="59.5592236519" lon="31.2674117088"><ele>0.14</ele><time>2026-09-02T19:26:35Z</time></trkpt><trkpt lat="59.5592236519" lon="31.2674331665"><ele>0.14</ele><time>2026-09-02T19:26:38Z</time></trkpt><trkpt lat="59.5592236519" lon="31.2674546242"><ele>0.14</ele><time>2026-09-02T19:26:40Z</time></trkpt><trkpt lat="59.5591807365" lon="31.2674760818"><ele>0.14</ele><time>2026-09-02T19:26:43Z</time></trkpt><trkpt lat="59.5591807365" lon="31.2674760818"><ele>0.14</ele><time>2026-09-02T19:26:45Z</time></trkpt><trkpt lat="59.5591807365" lon="31.2674760818"><ele>0.14</ele><time>2026-09-02T19:26:48Z</time></trkpt><trkpt lat="59.5591807365" lon="31.2674760818"><ele>0.14</ele><time>2026-09-02T19:26:50Z</time></trkpt><trkpt lat="59.5592021942" lon="31.2674760818"><ele>0.14</ele><time>2026-09-02T19:26:53Z</time></trkpt><trkpt lat="59.5592021942" lon="31.2674760818"><ele>0.14</ele><time>2026-09-02T19:26:55Z</time></trkpt><trkpt lat="59.5592021942" lon="31.2674760818"><ele>0.14</ele><time>2026-09-02T19:26:58Z</time></trkpt><trkpt lat="59.5592021942" lon="31.2674760818"><ele>0.14</ele><time>2026-09-02T19:27:00Z</time></trkpt><trkpt lat="59.5592021942" lon="31.2674760818"><ele>0.14</ele><time>2026-09-02T19:27:03Z</time></trkpt><trkpt lat="59.5592021942" lon="31.2674760818"><ele>0.14</ele><time>2026-09-02T19:27:05Z</time></trkpt><trkpt lat="59.5592021942" lon="31.2674760818"><ele>0.14</ele><time>2026-09-02T19:27:08Z</time></trkpt><trkpt lat="59.5592021942" lon="31.2674760818"><ele>0.14</ele><time>2026-09-02T19:27:10Z</time></trkpt><trkpt lat="59.5592021942" lon="31.2674760818"><ele>0.14</ele><time>2026-09-02T19:27:13Z</time></trkpt><trkpt lat="59.5592021942" lon="31.2675189972"><ele>0.14</ele><time>2026-09-02T19:27:15Z</time></trkpt><trkpt lat="59.5591807365" lon="31.2675404549"><ele>0.14</ele><time>2026-09-02T19:27:18Z</time></trkpt><trkpt lat="59.5592021942" lon="31.2675833702"><ele>0.14</ele><time>2026-09-02T19:27:20Z</time></trkpt><trkpt lat="59.5592021942" lon="31.2676262856"><ele>0.14</ele><time>2026-09-02T19:27:23Z</time></trkpt><trkpt lat="59.5592021942" lon="31.2676692009"><ele>0.14</ele><time>2026-09-02T19:27:25Z</time></trkpt><trkpt lat="59.5592236519" lon="31.2677121162"><ele>0.14</ele><time>2026-09-02T19:27:28Z</time></trkpt><trkpt lat="59.5592451096" lon="31.2677335739"><ele>0.14</ele><time>2026-09-02T19:27:30Z</time></trkpt><trkpt lat="59.5592665672" lon="31.2677550316"><ele>0.14</ele><time>2026-09-02T19:27:33Z</time></trkpt><trkpt lat="59.5592880249" lon="31.2677550316"><ele>0.14</ele><time>2026-09-02T19:27:35Z</time></trkpt><trkpt lat="59.5592880249" lon="31.2677550316"><ele>0.14</ele><time>2026-09-02T19:27:38Z</time></trkpt><trkpt lat="59.5593094826" lon="31.2677979469"><ele>0.14</ele><time>2026-09-02T19:27:40Z</time></trkpt><trkpt lat="59.5593094826" lon="31.2678194046"><ele>0.14</ele><time>2026-09-02T19:27:43Z</time></trkpt><trkpt lat="59.5593094826" lon="31.2678408623"><ele>0.14</ele><time>2026-09-02T19:27:45Z</time></trkpt><trkpt lat="59.5593094826" lon="31.2678408623"><ele>0.14</ele><time>2026-09-02T19:27:48Z</time></trkpt><trkpt lat="59.5593094826" lon="31.2678623199"><ele>0.14</ele><time>2026-09-02T19:27:50Z</time></trkpt><trkpt lat="59.5593309402" lon="31.2678837776"><ele>0.14</ele><time>2026-09-02T19:27:53Z</time></trkpt><trkpt lat="59.5593309402" lon="31.2679052353"><ele>0.14</ele><time>2026-09-02T19:27:55Z</time></trkpt><trkpt lat="59.5593094826" lon="31.2679052353"><ele>0.14</ele><time>2026-09-02T19:27:58Z</time></trkpt><trkpt lat="59.5593094826" lon="31.2679052353"><ele>0.14</ele><time>2026-09-02T19:28:00Z</time></trkpt><trkpt lat="59.5592880249" lon="31.2679696083"><ele>0.14</ele><time>2026-09-02T19:28:03Z</time></trkpt><trkpt lat="59.5592880249" lon="31.2679696083"><ele>0.14</ele><time>2026-09-02T19:28:05Z</time></trkpt><trkpt lat="59.5592451096" lon="31.2679910660"><ele>0.14</ele><time>2026-09-02T19:28:08Z</time></trkpt><trkpt lat="59.5592236519" lon="31.2680125237"><ele>0.14</ele><time>2026-09-02T19:28:10Z</time></trkpt><trkpt lat="59.5592236519" lon="31.2680554390"><ele>0.14</ele><time>2026-09-02T19:28:13Z</time></trkpt><trkpt lat="59.5592021942" lon="31.2680768967"><ele>0.14</ele><time>2026-09-02T19:28:15Z</time></trkpt><trkpt lat="59.5591807365" lon="31.2680554390"><ele>0.14</ele><time>2026-09-02T19:28:18Z</time></trkpt><trkpt lat="59.5591807365" lon="31.2680768967"><ele>0.14</ele><time>2026-09-02T19:28:20Z</time></trkpt><trkpt lat="59.5592021942" lon="31.2680983543"><ele>0.14</ele><time>2026-09-02T19:28:23Z</time></trkpt><trkpt lat="59.5591807365" lon="31.2680983543"><ele>0.14</ele><time>2026-09-02T19:28:25Z</time></trkpt><trkpt lat="59.5591807365" lon="31.2680768967"><ele>0.14</ele><time>2026-09-02T19:28:28Z</time></trkpt><trkpt lat="59.5592021942" lon="31.2680768967"><ele>0.14</ele><time>2026-09-02T19:28:30Z</time></trkpt><trkpt lat="59.5592021942" lon="31.2680983543"><ele>0.14</ele><time>2026-09-02T19:28:33Z</time></trkpt><trkpt lat="59.5592236519" lon="31.2680983543"><ele>0.14</ele><time>2026-09-02T19:28:35Z</time></trkpt><trkpt lat="59.5592021942" lon="31.2681198120"><ele>0.14</ele><time>2026-09-02T19:28:38Z</time></trkpt><trkpt lat="59.5591807365" lon="31.2681412697"><ele>0.14</ele><time>2026-09-02T19:28:40Z</time></trkpt><trkpt lat="59.5591807365" lon="31.2681412697"><ele>0.14</ele><time>2026-09-02T19:28:43Z</time></trkpt><trkpt lat="59.5591592789" lon="31.2681198120"><ele>0.14</ele><time>2026-09-02T19:28:45Z</time></trkpt><trkpt lat="59.5591378212" lon="31.2681627274"><ele>0.14</ele><time>2026-09-02T19:28:48Z</time></trkpt><trkpt lat="59.5591163635" lon="31.2682056427"><ele>0.14</ele><time>2026-09-02T19:28:50Z</time></trkpt><trkpt lat="59.5591163635" lon="31.2682271004"><ele>0.14</ele><time>2026-09-02T19:28:53Z</time></trkpt><trkpt lat="59.5590949059" lon="31.2682700157"><ele>0.14</ele><time>2026-09-02T19:28:55Z</time></trkpt><trkpt lat="59.5590949059" lon="31.2683129311"><ele>0.14</ele><time>2026-09-02T19:28:58Z</time></trkpt><trkpt lat="59.5590949059" lon="31.2683343887"><ele>0.14</ele><time>2026-09-02T19:29:00Z</time></trkpt><trkpt lat="59.5590949059" lon="31.2683558464"><ele>0.14</ele><time>2026-09-02T19:29:03Z</time></trkpt><trkpt lat="59.5590949059" lon="31.2683558464"><ele>0.14</ele><time>2026-09-02T19:29:05Z</time></trkpt><trkpt lat="59.5590949059" lon="31.2683343887"><ele>0.14</ele><time>2026-09-02T19:29:08Z</time></trkpt><trkpt lat="59.5590949059" lon="31.2683558464"><ele>0.14</ele><time>2026-09-02T19:29:10Z</time></trkpt><trkpt lat="59.5590949059" lon="31.2683773041"><ele>0.14</ele><time>2026-09-02T19:29:13Z</time></trkpt><trkpt lat="59.5590949059" lon="31.2683773041"><ele>0.14</ele><time>2026-09-02T19:29:15Z</time></trkpt><trkpt lat="59.5590949059" lon="31.2683987617"><ele>0.14</ele><time>2026-09-02T19:29:18Z</time></trkpt><trkpt lat="59.5591163635" lon="31.2684416771"><ele>0.14</ele><time>2026-09-02T19:29:20Z</time></trkpt><trkpt lat="59.5591163635" lon="31.2684631348"><ele>0.14</ele><time>2026-09-02T19:29:23Z</time></trkpt><trkpt lat="59.5590949059" lon="31.2684631348"><ele>0.14</ele><time>2026-09-02T19:29:25Z</time></trkpt><trkpt lat="59.5590734482" lon="31.2684845924"><ele>0.14</ele><time>2026-09-02T19:29:28Z</time></trkpt><trkpt lat="59.5590519905" lon="31.2684631348"><ele>0.14</ele><time>2026-09-02T19:29:30Z</time></trkpt><trkpt lat="59.5590519905" lon="31.2684845924"><ele>0.14</ele><time>2026-09-02T19:29:33Z</time></trkpt><trkpt lat="59.5590305328" lon="31.2684631348"><ele>0.14</ele><time>2026-09-02T19:29:35Z</time></trkpt><trkpt lat="59.5590305328" lon="31.2684416771"><ele>0.14</ele><time>2026-09-02T19:29:38Z</time></trkpt><trkpt lat="59.5590090752" lon="31.2684202194"><ele>0.14</ele><time>2026-09-02T19:29:40Z</time></trkpt><trkpt lat="59.5589876175" lon="31.2684202194"><ele>0.14</ele><time>2026-09-02T19:29:43Z</time></trkpt><trkpt lat="59.5589876175" lon="31.2684202194"><ele>0.14</ele><time>2026-09-02T19:29:45Z</time></trkpt><trkpt lat="59.5589876175" lon="31.2683987617"><ele>0.14</ele><time>2026-09-02T19:29:48Z</time></trkpt><trkpt lat="59.5589661598" lon="31.2683773041"><ele>0.14</ele><time>2026-09-02T19:29:50Z</time></trkpt><trkpt lat="59.5589661598" lon="31.2683343887"><ele>0.14</ele><time>2026-09-02T19:29:53Z</time></trkpt><trkpt lat="59.5589661598" lon="31.2683558464"><ele>0.14</ele><time>2026-09-02T19:29:55Z</time></trkpt><trkpt lat="59.5589661598" lon="31.2683558464"><ele>0.14</ele><time>2026-09-02T19:29:58Z</time></trkpt><trkpt lat="59.5589661598" lon="31.2683558464"><ele>0.14</ele><time>2026-09-02T19:30:00Z</time></trkpt><trkpt lat="59.5589661598" lon="31.2683558464"><ele>0.14</ele><time>2026-09-02T19:30:03Z</time></trkpt><trkpt lat="59.5589661598" lon="31.2683558464"><ele>0.14</ele><time>2026-09-02T19:30:05Z</time></trkpt><trkpt lat="59.5589661598" lon="31.2683558464"><ele>0.14</ele><time>2026-09-02T19:30:08Z</time></trkpt><trkpt lat="59.5589661598" lon="31.2683558464"><ele>0.14</ele><time>2026-09-02T19:30:10Z</time></trkpt><trkpt lat="59.5589447021" lon="31.2683558464"><ele>0.14</ele><time>2026-09-02T19:30:13Z</time></trkpt><trkpt lat="59.5589447021" lon="31.2683773041"><ele>0.14</ele><time>2026-09-02T19:30:15Z</time></trkpt><trkpt lat="59.5589447021" lon="31.2683558464"><ele>0.14</ele><time>2026-09-02T19:30:18Z</time></trkpt><trkpt lat="59.5589447021" lon="31.2683558464"><ele>0.14</ele><time>2026-09-02T19:30:20Z</time></trkpt><trkpt lat="59.5589447021" lon="31.2683558464"><ele>0.14</ele><time>2026-09-02T19:30:23Z</time></trkpt><trkpt lat="59.5589447021" lon="31.2683558464"><ele>0.14</ele><time>2026-09-02T19:30:25Z</time></trkpt><trkpt lat="59.5589447021" lon="31.2683558464"><ele>0.14</ele><time>2026-09-02T19:30:28Z</time></trkpt><trkpt lat="59.5589447021" lon="31.2683558464"><ele>0.14</ele><time>2026-09-02T19:30:30Z</time></trkpt><trkpt lat="59.5589447021" lon="31.2683558464"><ele>0.14</ele><time>2026-09-02T19:30:33Z</time></trkpt><trkpt lat="59.5589447021" lon="31.2683558464"><ele>0.14</ele><time>2026-09-02T19:30:35Z</time></trkpt><trkpt lat="59.5589447021" lon="31.2683558464"><ele>0.14</ele><time>2026-09-02T19:30:38Z</time></trkpt><trkpt lat="59.5589447021" lon="31.2683558464"><ele>0.14</ele><time>2026-09-02T19:30:40Z</time></trkpt><trkpt lat="59.5589447021" lon="31.2683558464"><ele>0.14</ele><time>2026-09-02T19:30:43Z</time></trkpt><trkpt lat="59.5589447021" lon="31.2683558464"><ele>0.14</ele><time>2026-09-02T19:30:45Z</time></trkpt><trkpt lat="59.5589447021" lon="31.2683558464"><ele>0.14</ele><time>2026-09-02T19:30:48Z</time></trkpt><trkpt lat="59.5589447021" lon="31.2683558464"><ele>0.14</ele><time>2026-09-02T19:30:50Z</time></trkpt><trkpt lat="59.5589447021" lon="31.2683558464"><ele>0.14</ele><time>2026-09-02T19:30:53Z</time></trkpt><trkpt lat="59.5589447021" lon="31.2683558464"><ele>0.14</ele><time>2026-09-02T19:30:55Z</time></trkpt><trkpt lat="59.5589447021" lon="31.2683558464"><ele>0.14</ele><time>2026-09-02T19:30:58Z</time></trkpt><trkpt lat="59.5589447021" lon="31.2683558464"><ele>0.14</ele><time>2026-09-02T19:31:00Z</time></trkpt><trkpt lat="59.5589447021" lon="31.2683558464"><ele>0.14</ele><time>2026-09-02T19:31:03Z</time></trkpt><trkpt lat="59.5589447021" lon="31.2683558464"><ele>0.14</ele><time>2026-09-02T19:31:05Z</time></trkpt><trkpt lat="59.5589447021" lon="31.2683558464"><ele>0.14</ele><time>2026-09-02T19:31:08Z</time></trkpt><trkpt lat="59.5589447021" lon="31.2683558464"><ele>0.14</ele><time>2026-09-02T19:31:10Z</time></trkpt><trkpt lat="59.5589447021" lon="31.2683558464"><ele>0.14</ele><time>2026-09-02T19:31:13Z</time></trkpt><trkpt lat="59.5589447021" lon="31.2683558464"><ele>0.14</ele><time>2026-09-02T19:31:15Z</time></trkpt><trkpt lat="59.5589447021" lon="31.2683343887"><ele>0.14</ele><time>2026-09-02T19:31:18Z</time></trkpt><trkpt lat="59.5589447021" lon="31.2683343887"><ele>0.14</ele><time>2026-09-02T19:31:20Z</time></trkpt><trkpt lat="59.5589447021" lon="31.2683343887"><ele>0.14</ele><time>2026-09-02T19:31:23Z</time></trkpt><trkpt lat="59.5589447021" lon="31.2683343887"><ele>0.14</ele><time>2026-09-02T19:31:25Z</time></trkpt><trkpt lat="59.5589447021" lon="31.2683343887"><ele>0.14</ele><time>2026-09-02T19:31:28Z</time></trkpt><trkpt lat="59.5589447021" lon="31.2683343887"><ele>0.14</ele><time>2026-09-02T19:31:30Z</time></trkpt><trkpt lat="59.5589447021" lon="31.2683343887"><ele>0.14</ele><time>2026-09-02T19:31:33Z</time></trkpt><trkpt lat="59.5589447021" lon="31.2683343887"><ele>0.14</ele><time>2026-09-02T19:31:35Z</time></trkpt><trkpt lat="59.5589232445" lon="31.2683343887"><ele>0.14</ele><time>2026-09-02T19:31:38Z</time></trkpt><trkpt lat="59.5589232445" lon="31.2683558464"><ele>0.14</ele><time>2026-09-02T19:31:40Z</time></trkpt><trkpt lat="59.5589232445" lon="31.2683558464"><ele>0.14</ele><time>2026-09-02T19:31:43Z</time></trkpt><trkpt lat="59.5589232445" lon="31.2683558464"><ele>0.14</ele><time>2026-09-02T19:31:45Z</time></trkpt><trkpt lat="59.5589232445" lon="31.2683558464"><ele>0.14</ele><time>2026-09-02T19:31:48Z</time></trkpt><trkpt lat="59.5589232445" lon="31.2683773041"><ele>0.14</ele><time>2026-09-02T19:31:50Z</time></trkpt><trkpt lat="59.5589232445" lon="31.2683773041"><ele>0.14</ele><time>2026-09-02T19:31:53Z</time></trkpt><trkpt lat="59.5589232445" lon="31.2683773041"><ele>0.14</ele><time>2026-09-02T19:31:55Z</time></trkpt><trkpt lat="59.5589232445" lon="31.2683987617"><ele>0.14</ele><time>2026-09-02T19:31:58Z</time></trkpt><trkpt lat="59.5589232445" lon="31.2683987617"><ele>0.14</ele><time>2026-09-02T19:32:00Z</time></trkpt><trkpt lat="59.5589017868" lon="31.2684202194"><ele>0.14</ele><time>2026-09-02T19:32:03Z</time></trkpt><trkpt lat="59.5589017868" lon="31.2684202194"><ele>0.14</ele><time>2026-09-02T19:32:05Z</time></trkpt><trkpt lat="59.5589017868" lon="31.2684416771"><ele>0.14</ele><time>2026-09-02T19:32:08Z</time></trkpt><trkpt lat="59.5589017868" lon="31.2684631348"><ele>0.14</ele><time>2026-09-02T19:32:10Z</time></trkpt><trkpt lat="59.5589017868" lon="31.2684631348"><ele>0.14</ele><time>2026-09-02T19:32:13Z</time></trkpt><trkpt lat="59.5589017868" lon="31.2684631348"><ele>0.14</ele><time>2026-09-02T19:32:15Z</time></trkpt><trkpt lat="59.5588803291" lon="31.2684845924"><ele>0.14</ele><time>2026-09-02T19:32:18Z</time></trkpt><trkpt lat="59.5588374138" lon="31.2685275078"><ele>0.14</ele><time>2026-09-02T19:32:20Z</time></trkpt><trkpt lat="59.5588159561" lon="31.2685275078"><ele>0.14</ele><time>2026-09-02T19:32:23Z</time></trkpt><trkpt lat="59.5588159561" lon="31.2685704231"><ele>0.14</ele><time>2026-09-02T19:32:25Z</time></trkpt><trkpt lat="59.5588159561" lon="31.2685704231"><ele>0.14</ele><time>2026-09-02T19:32:28Z</time></trkpt><trkpt lat="59.5588159561" lon="31.2685704231"><ele>0.14</ele><time>2026-09-02T19:32:30Z</time></trkpt><trkpt lat="59.5588374138" lon="31.2685918808"><ele>0.14</ele><time>2026-09-02T19:32:33Z</time></trkpt><trkpt lat="59.5587944984" lon="31.2685918808"><ele>0.14</ele><time>2026-09-02T19:32:35Z</time></trkpt><trkpt lat="59.5587730408" lon="31.2685918808"><ele>0.14</ele><time>2026-09-02T19:32:38Z</time></trkpt><trkpt lat="59.5587730408" lon="31.2686347961"><ele>0.14</ele><time>2026-09-02T19:32:40Z</time></trkpt><trkpt lat="59.5588159561" lon="31.2686991692"><ele>0.14</ele><time>2026-09-02T19:32:43Z</time></trkpt><trkpt lat="59.5588159561" lon="31.2688064575"><ele>0.14</ele><time>2026-09-02T19:32:45Z</time></trkpt><trkpt lat="59.5587944984" lon="31.2688708305"><ele>0.14</ele><time>2026-09-02T19:32:48Z</time></trkpt><trkpt lat="59.5587944984" lon="31.2688708305"><ele>0.14</ele><time>2026-09-02T19:32:50Z</time></trkpt><trkpt lat="59.5587944984" lon="31.2688279152"><ele>0.14</ele><time>2026-09-02T19:32:53Z</time></trkpt><trkpt lat="59.5587944984" lon="31.2688279152"><ele>0.14</ele><time>2026-09-02T19:32:55Z</time></trkpt><trkpt lat="59.5587730408" lon="31.2688493729"><ele>0.14</ele><time>2026-09-02T19:32:58Z</time></trkpt><trkpt lat="59.5587730408" lon="31.2688493729"><ele>0.14</ele><time>2026-09-02T19:33:00Z</time></trkpt><trkpt lat="59.5587730408" lon="31.2688922882"><ele>0.14</ele><time>2026-09-02T19:33:03Z</time></trkpt><trkpt lat="59.5587730408" lon="31.2688922882"><ele>0.14</ele><time>2026-09-02T19:33:05Z</time></trkpt><trkpt lat="59.5587730408" lon="31.2688922882"><ele>0.14</ele><time>2026-09-02T19:33:08Z</time></trkpt><trkpt lat="59.5587515831" lon="31.2688493729"><ele>0.14</ele><time>2026-09-02T19:33:10Z</time></trkpt><trkpt lat="59.5587301254" lon="31.2688493729"><ele>0.14</ele><time>2026-09-02T19:33:13Z</time></trkpt><trkpt lat="59.5587301254" lon="31.2688708305"><ele>0.14</ele><time>2026-09-02T19:33:15Z</time></trkpt><trkpt lat="59.5587301254" lon="31.2688493729"><ele>0.14</ele><time>2026-09-02T19:33:18Z</time></trkpt><trkpt lat="59.5587301254" lon="31.2688708305"><ele>0.14</ele><time>2026-09-02T19:33:20Z</time></trkpt><trkpt lat="59.5587086678" lon="31.2688922882"><ele>0.14</ele><time>2026-09-02T19:33:23Z</time></trkpt><trkpt lat="59.5586872101" lon="31.2689352036"><ele>0.14</ele><time>2026-09-02T19:33:25Z</time></trkpt><trkpt lat="59.5586872101" lon="31.2689566612"><ele>0.14</ele><time>2026-09-02T19:33:28Z</time></trkpt><trkpt lat="59.5586657524" lon="31.2689566612"><ele>0.14</ele><time>2026-09-02T19:33:30Z</time></trkpt><trkpt lat="59.5586657524" lon="31.2689781189"><ele>0.14</ele><time>2026-09-02T19:33:33Z</time></trkpt><trkpt lat="59.5586657524" lon="31.2689995766"><ele>0.14</ele><time>2026-09-02T19:33:35Z</time></trkpt><trkpt lat="59.5586872101" lon="31.2690424919"><ele>0.14</ele><time>2026-09-02T19:33:38Z</time></trkpt><trkpt lat="59.5586872101" lon="31.2690639496"><ele>0.14</ele><time>2026-09-02T19:33:40Z</time></trkpt><trkpt lat="59.5586872101" lon="31.2690639496"><ele>0.14</ele><time>2026-09-02T19:33:43Z</time></trkpt><trkpt lat="59.5587086678" lon="31.2690639496"><ele>0.14</ele><time>2026-09-02T19:33:45Z</time></trkpt><trkpt lat="59.5586872101" lon="31.2691497803"><ele>0.14</ele><time>2026-09-02T19:33:48Z</time></trkpt><trkpt lat="59.5586657524" lon="31.2692141533"><ele>0.14</ele><time>2026-09-02T19:33:50Z</time></trkpt><trkpt lat="59.5586657524" lon="31.2692570686"><ele>0.14</ele><time>2026-09-02T19:33:53Z</time></trkpt><trkpt lat="59.5586657524" lon="31.2692570686"><ele>0.14</ele><time>2026-09-02T19:33:55Z</time></trkpt><trkpt lat="59.5586657524" lon="31.2692999840"><ele>0.14</ele><time>2026-09-02T19:33:58Z</time></trkpt><trkpt lat="59.5586872101" lon="31.2693428993"><ele>0.14</ele><time>2026-09-02T19:34:00Z</time></trkpt><trkpt lat="59.5586872101" lon="31.2693428993"><ele>0.14</ele><time>2026-09-02T19:34:03Z</time></trkpt><trkpt lat="59.5586872101" lon="31.2693643570"><ele>0.14</ele><time>2026-09-02T19:34:05Z</time></trkpt><trkpt lat="59.5586657524" lon="31.2693643570"><ele>0.14</ele><time>2026-09-02T19:34:08Z</time></trkpt><trkpt lat="59.5586657524" lon="31.2693643570"><ele>0.14</ele><time>2026-09-02T19:34:10Z</time></trkpt><trkpt lat="59.5586228371" lon="31.2693428993"><ele>0.14</ele><time>2026-09-02T19:34:13Z</time></trkpt><trkpt lat="59.5586013794" lon="31.2693214417"><ele>0.14</ele><time>2026-09-02T19:34:15Z</time></trkpt><trkpt lat="59.5585584641" lon="31.2692785263"><ele>0.14</ele><time>2026-09-02T19:34:18Z</time></trkpt><trkpt lat="59.5585584641" lon="31.2692785263"><ele>0.14</ele><time>2026-09-02T19:34:20Z</time></trkpt><trkpt lat="59.5585584641" lon="31.2693214417"><ele>0.14</ele><time>2026-09-02T19:34:23Z</time></trkpt><trkpt lat="59.5585584641" lon="31.2693428993"><ele>0.14</ele><time>2026-09-02T19:34:25Z</time></trkpt><trkpt lat="59.5585584641" lon="31.2693858147"><ele>0.14</ele><time>2026-09-02T19:34:28Z</time></trkpt><trkpt lat="59.5585799217" lon="31.2694072723"><ele>0.14</ele><time>2026-09-02T19:34:30Z</time></trkpt><trkpt lat="59.5585799217" lon="31.2694287300"><ele>0.14</ele><time>2026-09-02T19:34:33Z</time></trkpt><trkpt lat="59.5585799217" lon="31.2694287300"><ele>0.14</ele><time>2026-09-02T19:34:35Z</time></trkpt><trkpt lat="59.5585799217" lon="31.2694501877"><ele>0.14</ele><time>2026-09-02T19:34:38Z</time></trkpt><trkpt lat="59.5585799217" lon="31.2694501877"><ele>0.14</ele><time>2026-09-02T19:34:40Z</time></trkpt><trkpt lat="59.5585799217" lon="31.2694501877"><ele>0.14</ele><time>2026-09-02T19:34:43Z</time></trkpt><trkpt lat="59.5585799217" lon="31.2694501877"><ele>0.14</ele><time>2026-09-02T19:34:45Z</time></trkpt><trkpt lat="59.5585799217" lon="31.2694501877"><ele>0.14</ele><time>2026-09-02T19:34:48Z</time></trkpt><trkpt lat="59.5585799217" lon="31.2694501877"><ele>0.14</ele><time>2026-09-02T19:34:50Z</time></trkpt><trkpt lat="59.5585370064" lon="31.2694287300"><ele>0.14</ele><time>2026-09-02T19:34:53Z</time></trkpt><trkpt lat="59.5584940910" lon="31.2693858147"><ele>0.14</ele><time>2026-09-02T19:34:55Z</time></trkpt><trkpt lat="59.5584511757" lon="31.2693858147"><ele>0.14</ele><time>2026-09-02T19:34:58Z</time></trkpt><trkpt lat="59.5584297180" lon="31.2694072723"><ele>0.14</ele><time>2026-09-02T19:35:00Z</time></trkpt><trkpt lat="59.5584082603" lon="31.2694287300"><ele>0.14</ele><time>2026-09-02T19:35:03Z</time></trkpt><trkpt lat="59.5584297180" lon="31.2694501877"><ele>0.14</ele><time>2026-09-02T19:35:05Z</time></trkpt><trkpt lat="59.5584297180" lon="31.2694287300"><ele>0.14</ele><time>2026-09-02T19:35:08Z</time></trkpt><trkpt lat="59.5584297180" lon="31.2694501877"><ele>0.14</ele><time>2026-09-02T19:35:10Z</time></trkpt><trkpt lat="59.5584082603" lon="31.2695145607"><ele>0.14</ele><time>2026-09-02T19:35:13Z</time></trkpt><trkpt lat="59.5583868027" lon="31.2695145607"><ele>0.14</ele><time>2026-09-02T19:35:15Z</time></trkpt><trkpt lat="59.5583653450" lon="31.2695360184"><ele>0.14</ele><time>2026-09-02T19:35:18Z</time></trkpt><trkpt lat="59.5583438873" lon="31.2695574760"><ele>0.14</ele><time>2026-09-02T19:35:20Z</time></trkpt><trkpt lat="59.5583224297" lon="31.2695574760"><ele>0.14</ele><time>2026-09-02T19:35:23Z</time></trkpt><trkpt lat="59.5583224297" lon="31.2695574760"><ele>0.14</ele><time>2026-09-02T19:35:25Z</time></trkpt><trkpt lat="59.5583009720" lon="31.2695360184"><ele>0.14</ele><time>2026-09-02T19:35:28Z</time></trkpt><trkpt lat="59.5582795143" lon="31.2695574760"><ele>0.14</ele><time>2026-09-02T19:35:30Z</time></trkpt><trkpt lat="59.5582580566" lon="31.2695789337"><ele>0.14</ele><time>2026-09-02T19:35:33Z</time></trkpt><trkpt lat="59.5582365990" lon="31.2696003914"><ele>0.14</ele><time>2026-09-02T19:35:35Z</time></trkpt><trkpt lat="59.5582365990" lon="31.2696433067"><ele>0.14</ele><time>2026-09-02T19:35:38Z</time></trkpt><trkpt lat="59.5582365990" lon="31.2696647644"><ele>0.14</ele><time>2026-09-02T19:35:40Z</time></trkpt><trkpt lat="59.5582151413" lon="31.2696647644"><ele>0.14</ele><time>2026-09-02T19:35:43Z</time></trkpt><trkpt lat="59.5582151413" lon="31.2696647644"><ele>0.14</ele><time>2026-09-02T19:35:45Z</time></trkpt><trkpt lat="59.5582151413" lon="31.2696433067"><ele>0.14</ele><time>2026-09-02T19:35:48Z</time></trkpt><trkpt lat="59.5582151413" lon="31.2696433067"><ele>0.14</ele><time>2026-09-02T19:35:50Z</time></trkpt><trkpt lat="59.5582151413" lon="31.2696862221"><ele>0.14</ele><time>2026-09-02T19:35:53Z</time></trkpt><trkpt lat="59.5582151413" lon="31.2697076797"><ele>0.14</ele><time>2026-09-02T19:35:55Z</time></trkpt><trkpt lat="59.5582151413" lon="31.2697076797"><ele>0.14</ele><time>2026-09-02T19:35:58Z</time></trkpt><trkpt lat="59.5582151413" lon="31.2697076797"><ele>0.14</ele><time>2026-09-02T19:36:00Z</time></trkpt><trkpt lat="59.5582151413" lon="31.2697076797"><ele>0.14</ele><time>2026-09-02T19:36:03Z</time></trkpt><trkpt lat="59.5582151413" lon="31.2697076797"><ele>0.14</ele><time>2026-09-02T19:36:05Z</time></trkpt><trkpt lat="59.5582151413" lon="31.2697076797"><ele>0.14</ele><time>2026-09-02T19:36:08Z</time></trkpt><trkpt lat="59.5582151413" lon="31.2697076797"><ele>0.14</ele><time>2026-09-02T19:36:10Z</time></trkpt><trkpt lat="59.5582151413" lon="31.2697076797"><ele>0.14</ele><time>2026-09-02T19:36:13Z</time></trkpt><trkpt lat="59.5582151413" lon="31.2697076797"><ele>0.14</ele><time>2026-09-02T19:36:15Z</time></trkpt><trkpt lat="59.5582151413" lon="31.2697076797"><ele>0.14</ele><time>2026-09-02T19:36:18Z</time></trkpt><trkpt lat="59.5582151413" lon="31.2697076797"><ele>0.14</ele><time>2026-09-02T19:36:20Z</time></trkpt><trkpt lat="59.5582151413" lon="31.2697076797"><ele>0.14</ele><time>2026-09-02T19:36:23Z</time></trkpt><trkpt lat="59.5582151413" lon="31.2697076797"><ele>0.14</ele><time>2026-09-02T19:36:25Z</time></trkpt><trkpt lat="59.5582151413" lon="31.2697291374"><ele>0.14</ele><time>2026-09-02T19:36:28Z</time></trkpt><trkpt lat="59.5581936836" lon="31.2697935104"><ele>0.14</ele><time>2026-09-02T19:36:30Z</time></trkpt><trkpt lat="59.5581722260" lon="31.2698149681"><ele>0.14</ele><time>2026-09-02T19:36:33Z</time></trkpt><trkpt lat="59.5581722260" lon="31.2698578835"><ele>0.14</ele><time>2026-09-02T19:36:35Z</time></trkpt><trkpt lat="59.5581722260" lon="31.2698793411"><ele>0.14</ele><time>2026-09-02T19:36:38Z</time></trkpt><trkpt lat="59.5581722260" lon="31.2699007988"><ele>0.14</ele><time>2026-09-02T19:36:40Z</time></trkpt><trkpt lat="59.5581722260" lon="31.2699007988"><ele>0.14</ele><time>2026-09-02T19:36:43Z</time></trkpt><trkpt lat="59.5581722260" lon="31.2699222565"><ele>0.14</ele><time>2026-09-02T19:36:45Z</time></trkpt><trkpt lat="59.5581507683" lon="31.2699222565"><ele>0.14</ele><time>2026-09-02T19:36:48Z</time></trkpt><trkpt lat="59.5581507683" lon="31.2699222565"><ele>0.14</ele><time>2026-09-02T19:36:50Z</time></trkpt><trkpt lat="59.5581293106" lon="31.2699007988"><ele>0.14</ele><time>2026-09-02T19:36:53Z</time></trkpt><trkpt lat="59.5581293106" lon="31.2699222565"><ele>0.14</ele><time>2026-09-02T19:36:55Z</time></trkpt><trkpt lat="59.5581078529" lon="31.2699651718"><ele>0.14</ele><time>2026-09-02T19:36:58Z</time></trkpt><trkpt lat="59.5581078529" lon="31.2699866295"><ele>0.14</ele><time>2026-09-02T19:37:00Z</time></trkpt><trkpt lat="59.5581293106" lon="31.2700295448"><ele>0.14</ele><time>2026-09-02T19:37:03Z</time></trkpt><trkpt lat="59.5581293106" lon="31.2700080872"><ele>0.14</ele><time>2026-09-02T19:37:05Z</time></trkpt><trkpt lat="59.5581507683" lon="31.2700295448"><ele>0.14</ele><time>2026-09-02T19:37:08Z</time></trkpt><trkpt lat="59.5581507683" lon="31.2700295448"><ele>0.14</ele><time>2026-09-02T19:37:10Z</time></trkpt><trkpt lat="59.5581507683" lon="31.2700295448"><ele>0.14</ele><time>2026-09-02T19:37:13Z</time></trkpt><trkpt lat="59.5581507683" lon="31.2700724602"><ele>0.14</ele><time>2026-09-02T19:37:15Z</time></trkpt><trkpt lat="59.5581507683" lon="31.2700724602"><ele>0.14</ele><time>2026-09-02T19:37:18Z</time></trkpt><trkpt lat="59.5581507683" lon="31.2701368332"><ele>0.14</ele><time>2026-09-02T19:37:20Z</time></trkpt><trkpt lat="59.5581293106" lon="31.2701797485"><ele>0.14</ele><time>2026-09-02T19:37:23Z</time></trkpt><trkpt lat="59.5581293106" lon="31.2702012062"><ele>0.14</ele><time>2026-09-02T19:37:25Z</time></trkpt><trkpt lat="59.5581507683" lon="31.2702012062"><ele>0.14</ele><time>2026-09-02T19:37:28Z</time></trkpt><trkpt lat="59.5581507683" lon="31.2702012062"><ele>0.14</ele><time>2026-09-02T19:37:30Z</time></trkpt><trkpt lat="59.5581293106" lon="31.2701797485"><ele>0.14</ele><time>2026-09-02T19:37:33Z</time></trkpt><trkpt lat="59.5581078529" lon="31.2701582909"><ele>0.14</ele><time>2026-09-02T19:37:35Z</time></trkpt><trkpt lat="59.5580863953" lon="31.2701582909"><ele>0.14</ele><time>2026-09-02T19:37:38Z</time></trkpt><trkpt lat="59.5580649376" lon="31.2701582909"><ele>0.14</ele><time>2026-09-02T19:37:40Z</time></trkpt><trkpt lat="59.5580649376" lon="31.2701368332"><ele>0.14</ele><time>2026-09-02T19:37:43Z</time></trkpt><trkpt lat="59.5580649376" lon="31.2701368332"><ele>0.14</ele><time>2026-09-02T19:37:45Z</time></trkpt><trkpt lat="59.5580649376" lon="31.2701368332"><ele>0.14</ele><time>2026-09-02T19:37:48Z</time></trkpt><trkpt lat="59.5580649376" lon="31.2701368332"><ele>0.14</ele><time>2026-09-02T19:37:50Z</time></trkpt><trkpt lat="59.5580434799" lon="31.2701153755"><ele>0.14</ele><time>2026-09-02T19:37:53Z</time></trkpt><trkpt lat="59.5580434799" lon="31.2701153755"><ele>0.14</ele><time>2026-09-02T19:37:55Z</time></trkpt><trkpt lat="59.5580649376" lon="31.2701153755"><ele>0.14</ele><time>2026-09-02T19:37:58Z</time></trkpt><trkpt lat="59.5580434799" lon="31.2701153755"><ele>0.14</ele><time>2026-09-02T19:38:00Z</time></trkpt><trkpt lat="59.5580434799" lon="31.2701153755"><ele>0.14</ele><time>2026-09-02T19:38:03Z</time></trkpt><trkpt lat="59.5580434799" lon="31.2701153755"><ele>0.14</ele><time>2026-09-02T19:38:05Z</time></trkpt><trkpt lat="59.5580434799" lon="31.2700939178"><ele>0.14</ele><time>2026-09-02T19:38:08Z</time></trkpt><trkpt lat="59.5580220222" lon="31.2700510025"><ele>0.14</ele><time>2026-09-02T19:38:10Z</time></trkpt><trkpt lat="59.5579791069" lon="31.2699866295"><ele>0.14</ele><time>2026-09-02T19:38:13Z</time></trkpt><trkpt lat="59.5579576492" lon="31.2699651718"><ele>0.14</ele><time>2026-09-02T19:38:15Z</time></trkpt><trkpt lat="59.5579576492" lon="31.2699437141"><ele>0.14</ele><time>2026-09-02T19:38:18Z</time></trkpt><trkpt lat="59.5579361916" lon="31.2699651718"><ele>0.14</ele><time>2026-09-02T19:38:20Z</time></trkpt><trkpt lat="59.5579361916" lon="31.2699651718"><ele>0.14</ele><time>2026-09-02T19:38:23Z</time></trkpt><trkpt lat="59.5578932762" lon="31.2699222565"><ele>0.14</ele><time>2026-09-02T19:38:25Z</time></trkpt><trkpt lat="59.5578718185" lon="31.2698578835"><ele>0.14</ele><time>2026-09-02T19:38:28Z</time></trkpt><trkpt lat="59.5578503609" lon="31.2697720528"><ele>0.14</ele><time>2026-09-02T19:38:30Z</time></trkpt><trkpt lat="59.5578289032" lon="31.2697291374"><ele>0.14</ele><time>2026-09-02T19:38:33Z</time></trkpt><trkpt lat="59.5578289032" lon="31.2697291374"><ele>0.14</ele><time>2026-09-02T19:38:35Z</time></trkpt><trkpt lat="59.5578289032" lon="31.2697291374"><ele>0.14</ele><time>2026-09-02T19:38:38Z</time></trkpt><trkpt lat="59.5578289032" lon="31.2697291374"><ele>0.14</ele><time>2026-09-02T19:38:40Z</time></trkpt><trkpt lat="59.5578289032" lon="31.2697291374"><ele>0.14</ele><time>2026-09-02T19:38:43Z</time></trkpt><trkpt lat="59.5578289032" lon="31.2697291374"><ele>0.14</ele><time>2026-09-02T19:38:45Z</time></trkpt><trkpt lat="59.5578074455" lon="31.2697291374"><ele>0.14</ele><time>2026-09-02T19:38:48Z</time></trkpt><trkpt lat="59.5578074455" lon="31.2697291374"><ele>0.14</ele><time>2026-09-02T19:38:50Z</time></trkpt><trkpt lat="59.5578074455" lon="31.2697291374"><ele>0.14</ele><time>2026-09-02T19:38:53Z</time></trkpt><trkpt lat="59.5578074455" lon="31.2697291374"><ele>0.14</ele><time>2026-09-02T19:38:55Z</time></trkpt><trkpt lat="59.5578503609" lon="31.2698364258"><ele>0.14</ele><time>2026-09-02T19:38:58Z</time></trkpt><trkpt lat="59.5578932762" lon="31.2699651718"><ele>0.14</ele><time>2026-09-02T19:39:00Z</time></trkpt><trkpt lat="59.5579361916" lon="31.2701582909"><ele>0.14</ele><time>2026-09-02T19:39:03Z</time></trkpt><trkpt lat="59.5579361916" lon="31.2703084946"><ele>0.14</ele><time>2026-09-02T19:39:05Z</time></trkpt><trkpt lat="59.5579361916" lon="31.2703084946"><ele>0.14</ele><time>2026-09-02T19:39:08Z</time></trkpt><trkpt lat="59.5579576492" lon="31.2703299522"><ele>0.14</ele><time>2026-09-02T19:39:10Z</time></trkpt><trkpt lat="59.5579576492" lon="31.2703299522"><ele>0.14</ele><time>2026-09-02T19:39:13Z</time></trkpt><trkpt lat="59.5579576492" lon="31.2703084946"><ele>0.14</ele><time>2026-09-02T19:39:15Z</time></trkpt><trkpt lat="59.5579576492" lon="31.2703299522"><ele>0.14</ele><time>2026-09-02T19:39:18Z</time></trkpt><trkpt lat="59.5579361916" lon="31.2703514099"><ele>0.14</ele><time>2026-09-02T19:39:20Z</time></trkpt><trkpt lat="59.5578718185" lon="31.2703299522"><ele>0.14</ele><time>2026-09-02T19:39:23Z</time></trkpt><trkpt lat="59.5578503609" lon="31.2703299522"><ele>0.14</ele><time>2026-09-02T19:39:25Z</time></trkpt><trkpt lat="59.5578289032" lon="31.2703299522"><ele>0.14</ele><time>2026-09-02T19:39:28Z</time></trkpt><trkpt lat="59.5578289032" lon="31.2703514099"><ele>0.14</ele><time>2026-09-02T19:39:30Z</time></trkpt><trkpt lat="59.5578074455" lon="31.2703728676"><ele>0.14</ele><time>2026-09-02T19:39:33Z</time></trkpt><trkpt lat="59.5578074455" lon="31.2703943253"><ele>0.14</ele><time>2026-09-02T19:39:35Z</time></trkpt><trkpt lat="59.5577430725" lon="31.2704157829"><ele>0.14</ele><time>2026-09-02T19:39:38Z</time></trkpt><trkpt lat="59.5577216148" lon="31.2703943253"><ele>0.14</ele><time>2026-09-02T19:39:40Z</time></trkpt><trkpt lat="59.5577216148" lon="31.2703514099"><ele>0.14</ele><time>2026-09-02T19:39:43Z</time></trkpt><trkpt lat="59.5577216148" lon="31.2703299522"><ele>0.14</ele><time>2026-09-02T19:39:45Z</time></trkpt><trkpt lat="59.5577216148" lon="31.2703299522"><ele>0.14</ele><time>2026-09-02T19:39:48Z</time></trkpt><trkpt lat="59.5577216148" lon="31.2703299522"><ele>0.14</ele><time>2026-09-02T19:39:50Z</time></trkpt><trkpt lat="59.5577216148" lon="31.2703084946"><ele>0.14</ele><time>2026-09-02T19:39:53Z</time></trkpt><trkpt lat="59.5577216148" lon="31.2702870369"><ele>0.14</ele><time>2026-09-02T19:39:55Z</time></trkpt><trkpt lat="59.5577216148" lon="31.2702655792"><ele>0.14</ele><time>2026-09-02T19:39:58Z</time></trkpt><trkpt lat="59.5577216148" lon="31.2702655792"><ele>0.14</ele><time>2026-09-02T19:40:00Z</time></trkpt><trkpt lat="59.5577216148" lon="31.2702226639"><ele>0.14</ele><time>2026-09-02T19:40:03Z</time></trkpt><trkpt lat="59.5577216148" lon="31.2702012062"><ele>0.14</ele><time>2026-09-02T19:40:05Z</time></trkpt><trkpt lat="59.5577216148" lon="31.2702012062"><ele>0.14</ele><time>2026-09-02T19:40:08Z</time></trkpt><trkpt lat="59.5577216148" lon="31.2702012062"><ele>0.14</ele><time>2026-09-02T19:40:10Z</time></trkpt><trkpt lat="59.5577216148" lon="31.2702012062"><ele>0.14</ele><time>2026-09-02T19:40:13Z</time></trkpt><trkpt lat="59.5577216148" lon="31.2702012062"><ele>0.14</ele><time>2026-09-02T19:40:15Z</time></trkpt><trkpt lat="59.5577001572" lon="31.2702226639"><ele>0.14</ele><time>2026-09-02T19:40:18Z</time></trkpt><trkpt lat="59.5576786995" lon="31.2702441216"><ele>0.14</ele><time>2026-09-02T19:40:20Z</time></trkpt><trkpt lat="59.5576786995" lon="31.2702441216"><ele>0.14</ele><time>2026-09-02T19:40:23Z</time></trkpt><trkpt lat="59.5576786995" lon="31.2702441216"><ele>0.14</ele><time>2026-09-02T19:40:25Z</time></trkpt><trkpt lat="59.5576786995" lon="31.2702441216"><ele>0.14</ele><time>2026-09-02T19:40:28Z</time></trkpt><trkpt lat="59.5576786995" lon="31.2702226639"><ele>0.14</ele><time>2026-09-02T19:40:30Z</time></trkpt><trkpt lat="59.5576786995" lon="31.2702012062"><ele>0.14</ele><time>2026-09-02T19:40:33Z</time></trkpt><trkpt lat="59.5576786995" lon="31.2701582909"><ele>0.14</ele><time>2026-09-02T19:40:35Z</time></trkpt><trkpt lat="59.5576786995" lon="31.2701582909"><ele>0.14</ele><time>2026-09-02T19:40:38Z</time></trkpt><trkpt lat="59.5577001572" lon="31.2701368332"><ele>0.14</ele><time>2026-09-02T19:40:40Z</time></trkpt><trkpt lat="59.5577001572" lon="31.2701582909"><ele>0.14</ele><time>2026-09-02T19:40:43Z</time></trkpt><trkpt lat="59.5577001572" lon="31.2701582909"><ele>0.14</ele><time>2026-09-02T19:40:45Z</time></trkpt><trkpt lat="59.5577216148" lon="31.2701582909"><ele>0.14</ele><time>2026-09-02T19:40:48Z</time></trkpt><trkpt lat="59.5577216148" lon="31.2701797485"><ele>0.14</ele><time>2026-09-02T19:40:50Z</time></trkpt><trkpt lat="59.5577216148" lon="31.2701797485"><ele>0.14</ele><time>2026-09-02T19:40:53Z</time></trkpt><trkpt lat="59.5577216148" lon="31.2701582909"><ele>0.14</ele><time>2026-09-02T19:40:55Z</time></trkpt><trkpt lat="59.5577216148" lon="31.2701797485"><ele>0.14</ele><time>2026-09-02T19:40:58Z</time></trkpt><trkpt lat="59.5577001572" lon="31.2701797485"><ele>0.14</ele><time>2026-09-02T19:41:00Z</time></trkpt><trkpt lat="59.5576572418" lon="31.2702012062"><ele>0.14</ele><time>2026-09-02T19:41:03Z</time></trkpt><trkpt lat="59.5576357841" lon="31.2702441216"><ele>0.14</ele><time>2026-09-02T19:41:05Z</time></trkpt><trkpt lat="59.5576357841" lon="31.2702441216"><ele>0.14</ele><time>2026-09-02T19:41:08Z</time></trkpt><trkpt lat="59.5576143265" lon="31.2702655792"><ele>0.14</ele><time>2026-09-02T19:41:10Z</time></trkpt><trkpt lat="59.5575714111" lon="31.2703084946"><ele>0.14</ele><time>2026-09-02T19:41:13Z</time></trkpt><trkpt lat="59.5575499535" lon="31.2703514099"><ele>0.14</ele><time>2026-09-02T19:41:15Z</time></trkpt><trkpt lat="59.5575499535" lon="31.2704157829"><ele>0.14</ele><time>2026-09-02T19:41:18Z</time></trkpt><trkpt lat="59.5575284958" lon="31.2704157829"><ele>0.14</ele><time>2026-09-02T19:41:20Z</time></trkpt><trkpt lat="59.5575499535" lon="31.2704372406"><ele>0.14</ele><time>2026-09-02T19:41:23Z</time></trkpt><trkpt lat="59.5575499535" lon="31.2705016136"><ele>0.14</ele><time>2026-09-02T19:41:25Z</time></trkpt><trkpt lat="59.5575284958" lon="31.2705230713"><ele>0.14</ele><time>2026-09-02T19:41:28Z</time></trkpt><trkpt lat="59.5575284958" lon="31.2705445290"><ele>0.14</ele><time>2026-09-02T19:41:30Z</time></trkpt><trkpt lat="59.5575714111" lon="31.2706089020"><ele>0.14</ele><time>2026-09-02T19:41:33Z</time></trkpt><trkpt lat="59.5576143265" lon="31.2706732750"><ele>0.14</ele><time>2026-09-02T19:41:35Z</time></trkpt><trkpt lat="59.5577216148" lon="31.2707805634"><ele>0.14</ele><time>2026-09-02T19:41:38Z</time></trkpt><trkpt lat="59.5577645302" lon="31.2709522247"><ele>0.14</ele><time>2026-09-02T19:41:40Z</time></trkpt><trkpt lat="59.5577216148" lon="31.2710380554"><ele>0.14</ele><time>2026-09-02T19:41:43Z</time></trkpt><trkpt lat="59.5576572418" lon="31.2709522247"><ele>0.14</ele><time>2026-09-02T19:41:45Z</time></trkpt><trkpt lat="59.5575714111" lon="31.2708234787"><ele>0.14</ele><time>2026-09-02T19:41:48Z</time></trkpt><trkpt lat="59.5574855804" lon="31.2706947327"><ele>0.14</ele><time>2026-09-02T19:41:50Z</time></trkpt><trkpt lat="59.5573997498" lon="31.2706089020"><ele>0.14</ele><time>2026-09-02T19:41:53Z</time></trkpt><trkpt lat="59.5573997498" lon="31.2704586983"><ele>0.14</ele><time>2026-09-02T19:41:55Z</time></trkpt><trkpt lat="59.5573997498" lon="31.2703299522"><ele>0.14</ele><time>2026-09-02T19:41:58Z</time></trkpt><trkpt lat="59.5574426651" lon="31.2702655792"><ele>0.14</ele><time>2026-09-02T19:42:00Z</time></trkpt><trkpt lat="59.5575070381" lon="31.2702441216"><ele>0.14</ele><time>2026-09-02T19:42:03Z</time></trkpt><trkpt lat="59.5575714111" lon="31.2702655792"><ele>0.14</ele><time>2026-09-02T19:42:05Z</time></trkpt><trkpt lat="59.5576143265" lon="31.2702870369"><ele>0.14</ele><time>2026-09-02T19:42:08Z</time></trkpt><trkpt lat="59.5575928688" lon="31.2703084946"><ele>0.14</ele><time>2026-09-02T19:42:10Z</time></trkpt><trkpt lat="59.5575714111" lon="31.2703728676"><ele>0.14</ele><time>2026-09-02T19:42:13Z</time></trkpt><trkpt lat="59.5575928688" lon="31.2704157829"><ele>0.14</ele><time>2026-09-02T19:42:15Z</time></trkpt><trkpt lat="59.5575928688" lon="31.2704372406"><ele>0.14</ele><time>2026-09-02T19:42:18Z</time></trkpt><trkpt lat="59.5576143265" lon="31.2704586983"><ele>0.14</ele><time>2026-09-02T19:42:20Z</time></trkpt><trkpt lat="59.5575928688" lon="31.2705230713"><ele>0.14</ele><time>2026-09-02T19:42:23Z</time></trkpt><trkpt lat="59.5575284958" lon="31.2705874443"><ele>0.14</ele><time>2026-09-02T19:42:25Z</time></trkpt><trkpt lat="59.5575284958" lon="31.2706089020"><ele>0.14</ele><time>2026-09-02T19:42:28Z</time></trkpt><trkpt lat="59.5575499535" lon="31.2706518173"><ele>0.14</ele><time>2026-09-02T19:42:30Z</time></trkpt><trkpt lat="59.5575714111" lon="31.2706947327"><ele>0.14</ele><time>2026-09-02T19:42:33Z</time></trkpt><trkpt lat="59.5575284958" lon="31.2707376480"><ele>0.14</ele><time>2026-09-02T19:42:35Z</time></trkpt><trkpt lat="59.5574855804" lon="31.2707376480"><ele>0.14</ele><time>2026-09-02T19:42:38Z</time></trkpt><trkpt lat="59.5574426651" lon="31.2707161903"><ele>0.14</ele><time>2026-09-02T19:42:40Z</time></trkpt><trkpt lat="59.5574426651" lon="31.2706732750"><ele>0.14</ele><time>2026-09-02T19:42:43Z</time></trkpt><trkpt lat="59.5574426651" lon="31.2706732750"><ele>0.14</ele><time>2026-09-02T19:42:45Z</time></trkpt><trkpt lat="59.5574426651" lon="31.2706732750"><ele>0.14</ele><time>2026-09-02T19:42:48Z</time></trkpt><trkpt lat="59.5574641228" lon="31.2706518173"><ele>0.14</ele><time>2026-09-02T19:42:50Z</time></trkpt><trkpt lat="59.5574641228" lon="31.2706732750"><ele>0.14</ele><time>2026-09-02T19:42:53Z</time></trkpt><trkpt lat="59.5574855804" lon="31.2706732750"><ele>0.14</ele><time>2026-09-02T19:42:55Z</time></trkpt><trkpt lat="59.5574855804" lon="31.2707161903"><ele>0.14</ele><time>2026-09-02T19:42:58Z</time></trkpt><trkpt lat="59.5574855804" lon="31.2707591057"><ele>0.14</ele><time>2026-09-02T19:43:00Z</time></trkpt><trkpt lat="59.5575070381" lon="31.2707376480"><ele>0.14</ele><time>2026-09-02T19:43:03Z</time></trkpt><trkpt lat="59.5575284958" lon="31.2707591057"><ele>0.14</ele><time>2026-09-02T19:43:05Z</time></trkpt><trkpt lat="59.5575499535" lon="31.2708020210"><ele>0.14</ele><time>2026-09-02T19:43:08Z</time></trkpt><trkpt lat="59.5575714111" lon="31.2708663940"><ele>0.14</ele><time>2026-09-02T19:43:10Z</time></trkpt><trkpt lat="59.5575499535" lon="31.2708663940"><ele>0.14</ele><time>2026-09-02T19:43:13Z</time></trkpt><trkpt lat="59.5575070381" lon="31.2707376480"><ele>0.14</ele><time>2026-09-02T19:43:15Z</time></trkpt><trkpt lat="59.5574855804" lon="31.2707161903"><ele>0.14</ele><time>2026-09-02T19:43:18Z</time></trkpt><trkpt lat="59.5574855804" lon="31.2706947327"><ele>0.14</ele><time>2026-09-02T19:43:20Z</time></trkpt><trkpt lat="59.5574641228" lon="31.2706732750"><ele>0.14</ele><time>2026-09-02T19:43:23Z</time></trkpt><trkpt lat="59.5574641228" lon="31.2706732750"><ele>0.14</ele><time>2026-09-02T19:43:25Z</time></trkpt><trkpt lat="59.5574641228" lon="31.2706732750"><ele>0.14</ele><time>2026-09-02T19:43:28Z</time></trkpt><trkpt lat="59.5574641228" lon="31.2706732750"><ele>0.14</ele><time>2026-09-02T19:43:30Z</time></trkpt><trkpt lat="59.5574641228" lon="31.2706732750"><ele>0.14</ele><time>2026-09-02T19:43:33Z</time></trkpt><trkpt lat="59.5574641228" lon="31.2706732750"><ele>0.14</ele><time>2026-09-02T19:43:35Z</time></trkpt><trkpt lat="59.5574855804" lon="31.2706732750"><ele>0.14</ele><time>2026-09-02T19:43:38Z</time></trkpt><trkpt lat="59.5574855804" lon="31.2706732750"><ele>0.14</ele><time>2026-09-02T19:43:40Z</time></trkpt><trkpt lat="59.5575070381" lon="31.2706732750"><ele>0.14</ele><time>2026-09-02T19:43:43Z</time></trkpt><trkpt lat="59.5575284958" lon="31.2706947327"><ele>0.14</ele><time>2026-09-02T19:43:45Z</time></trkpt><trkpt lat="59.5575714111" lon="31.2706732750"><ele>0.14</ele><time>2026-09-02T19:43:48Z</time></trkpt><trkpt lat="59.5575714111" lon="31.2706518173"><ele>0.14</ele><time>2026-09-02T19:43:50Z</time></trkpt><trkpt lat="59.5575714111" lon="31.2706303596"><ele>0.14</ele><time>2026-09-02T19:43:53Z</time></trkpt><trkpt lat="59.5575284958" lon="31.2706089020"><ele>0.14</ele><time>2026-09-02T19:43:55Z</time></trkpt><trkpt lat="59.5575070381" lon="31.2705659866"><ele>0.14</ele><time>2026-09-02T19:43:58Z</time></trkpt><trkpt lat="59.5575070381" lon="31.2705874443"><ele>0.14</ele><time>2026-09-02T19:44:00Z</time></trkpt><trkpt lat="59.5575070381" lon="31.2705874443"><ele>0.14</ele><time>2026-09-02T19:44:03Z</time></trkpt><trkpt lat="59.5575070381" lon="31.2705874443"><ele>0.14</ele><time>2026-09-02T19:44:05Z</time></trkpt><trkpt lat="59.5575070381" lon="31.2705874443"><ele>0.14</ele><time>2026-09-02T19:44:08Z</time></trkpt><trkpt lat="59.5575070381" lon="31.2705874443"><ele>0.14</ele><time>2026-09-02T19:44:10Z</time></trkpt><trkpt lat="59.5575070381" lon="31.2705874443"><ele>0.14</ele><time>2026-09-02T19:44:13Z</time></trkpt><trkpt lat="59.5575070381" lon="31.2705874443"><ele>0.14</ele><time>2026-09-02T19:44:15Z</time></trkpt><trkpt lat="59.5575070381" lon="31.2705874443"><ele>0.14</ele><time>2026-09-02T19:44:18Z</time></trkpt><trkpt lat="59.5575070381" lon="31.2705659866"><ele>0.14</ele><time>2026-09-02T19:44:20Z</time></trkpt><trkpt lat="59.5575070381" lon="31.2705659866"><ele>0.14</ele><time>2026-09-02T19:44:23Z</time></trkpt><trkpt lat="59.5575070381" lon="31.2705659866"><ele>0.14</ele><time>2026-09-02T19:44:25Z</time></trkpt><trkpt lat="59.5575070381" lon="31.2705659866"><ele>0.14</ele><time>2026-09-02T19:44:28Z</time></trkpt><trkpt lat="59.5575070381" lon="31.2705659866"><ele>0.14</ele><time>2026-09-02T19:44:30Z</time></trkpt><trkpt lat="59.5575070381" lon="31.2705659866"><ele>0.14</ele><time>2026-09-02T19:44:33Z</time></trkpt><trkpt lat="59.5575070381" lon="31.2705659866"><ele>0.14</ele><time>2026-09-02T19:44:35Z</time></trkpt><trkpt lat="59.5575070381" lon="31.2705659866"><ele>0.14</ele><time>2026-09-02T19:44:38Z</time></trkpt><trkpt lat="59.5575070381" lon="31.2705659866"><ele>0.14</ele><time>2026-09-02T19:44:40Z</time></trkpt><trkpt lat="59.5575070381" lon="31.2705659866"><ele>0.14</ele><time>2026-09-02T19:44:43Z</time></trkpt><trkpt lat="59.5575070381" lon="31.2705659866"><ele>0.14</ele><time>2026-09-02T19:44:45Z</time></trkpt><trkpt lat="59.5575284958" lon="31.2706089020"><ele>0.14</ele><time>2026-09-02T19:44:48Z</time></trkpt><trkpt lat="59.5575284958" lon="31.2706303596"><ele>0.14</ele><time>2026-09-02T19:44:50Z</time></trkpt><trkpt lat="59.5575499535" lon="31.2706303596"><ele>0.14</ele><time>2026-09-02T19:44:53Z</time></trkpt><trkpt lat="59.5575284958" lon="31.2706518173"><ele>0.14</ele><time>2026-09-02T19:44:55Z</time></trkpt><trkpt lat="59.5575070381" lon="31.2706518173"><ele>0.14</ele><time>2026-09-02T19:44:58Z</time></trkpt><trkpt lat="59.5575070381" lon="31.2706732750"><ele>0.14</ele><time>2026-09-02T19:45:00Z</time></trkpt><trkpt lat="59.5575070381" lon="31.2706947327"><ele>0.14</ele><time>2026-09-02T19:45:03Z</time></trkpt><trkpt lat="59.5575284958" lon="31.2707161903"><ele>0.14</ele><time>2026-09-02T19:45:05Z</time></trkpt><trkpt lat="59.5575499535" lon="31.2707376480"><ele>0.14</ele><time>2026-09-02T19:45:08Z</time></trkpt><trkpt lat="59.5575499535" lon="31.2707376480"><ele>0.14</ele><time>2026-09-02T19:45:10Z</time></trkpt><trkpt lat="59.5575499535" lon="31.2707591057"><ele>0.14</ele><time>2026-09-02T19:45:13Z</time></trkpt><trkpt lat="59.5575499535" lon="31.2707376480"><ele>0.14</ele><time>2026-09-02T19:45:15Z</time></trkpt><trkpt lat="59.5575714111" lon="31.2707376480"><ele>0.14</ele><time>2026-09-02T19:45:18Z</time></trkpt><trkpt lat="59.5575714111" lon="31.2707161903"><ele>0.14</ele><time>2026-09-02T19:45:20Z</time></trkpt><trkpt lat="59.5575714111" lon="31.2707591057"><ele>0.14</ele><time>2026-09-02T19:45:23Z</time></trkpt><trkpt lat="59.5575714111" lon="31.2707805634"><ele>0.14</ele><time>2026-09-02T19:45:25Z</time></trkpt><trkpt lat="59.5575714111" lon="31.2707805634"><ele>0.14</ele><time>2026-09-02T19:45:28Z</time></trkpt><trkpt lat="59.5575714111" lon="31.2707805634"><ele>0.14</ele><time>2026-09-02T19:45:30Z</time></trkpt><trkpt lat="59.5575714111" lon="31.2707805634"><ele>0.14</ele><time>2026-09-02T19:45:33Z</time></trkpt><trkpt lat="59.5575714111" lon="31.2707805634"><ele>0.14</ele><time>2026-09-02T19:45:35Z</time></trkpt><trkpt lat="59.5575714111" lon="31.2707805634"><ele>0.14</ele><time>2026-09-02T19:45:38Z</time></trkpt><trkpt lat="59.5575714111" lon="31.2707805634"><ele>0.14</ele><time>2026-09-02T19:45:40Z</time></trkpt><trkpt lat="59.5575714111" lon="31.2707805634"><ele>0.14</ele><time>2026-09-02T19:45:43Z</time></trkpt><trkpt lat="59.5575714111" lon="31.2707805634"><ele>0.14</ele><time>2026-09-02T19:45:45Z</time></trkpt><trkpt lat="59.5575928688" lon="31.2707805634"><ele>0.14</ele><time>2026-09-02T19:45:48Z</time></trkpt><trkpt lat="59.5576143265" lon="31.2708234787"><ele>0.14</ele><time>2026-09-02T19:45:50Z</time></trkpt><trkpt lat="59.5576357841" lon="31.2709307671"><ele>0.14</ele><time>2026-09-02T19:45:53Z</time></trkpt><trkpt lat="59.5576572418" lon="31.2710809708"><ele>0.14</ele><time>2026-09-02T19:45:55Z</time></trkpt><trkpt lat="59.5577216148" lon="31.2712311745"><ele>0.14</ele><time>2026-09-02T19:45:58Z</time></trkpt><trkpt lat="59.5578074455" lon="31.2712526321"><ele>0.14</ele><time>2026-09-02T19:46:00Z</time></trkpt><trkpt lat="59.5578932762" lon="31.2712955475"><ele>0.14</ele><time>2026-09-02T19:46:03Z</time></trkpt><trkpt lat="59.5579576492" lon="31.2713170052"><ele>0.14</ele><time>2026-09-02T19:46:05Z</time></trkpt><trkpt lat="59.5580220222" lon="31.2712097168"><ele>0.14</ele><time>2026-09-02T19:46:08Z</time></trkpt><trkpt lat="59.5580434799" lon="31.2710809708"><ele>0.14</ele><time>2026-09-02T19:46:10Z</time></trkpt><trkpt lat="59.5580005646" lon="31.2709307671"><ele>0.14</ele><time>2026-09-02T19:46:13Z</time></trkpt><trkpt lat="59.5579361916" lon="31.2708663940"><ele>0.14</ele><time>2026-09-02T19:46:15Z</time></trkpt><trkpt lat="59.5578503609" lon="31.2708020210"><ele>0.14</ele><time>2026-09-02T19:46:18Z</time></trkpt><trkpt lat="59.5577859879" lon="31.2707376480"><ele>0.14</ele><time>2026-09-02T19:46:20Z</time></trkpt><trkpt lat="59.5577216148" lon="31.2707805634"><ele>0.14</ele><time>2026-09-02T19:46:23Z</time></trkpt><trkpt lat="59.5576786995" lon="31.2708449364"><ele>0.14</ele><time>2026-09-02T19:46:25Z</time></trkpt><trkpt lat="59.5576786995" lon="31.2708663940"><ele>0.14</ele><time>2026-09-02T19:46:28Z</time></trkpt><trkpt lat="59.5576786995" lon="31.2708878517"><ele>0.14</ele><time>2026-09-02T19:46:30Z</time></trkpt><trkpt lat="59.5576572418" lon="31.2709307671"><ele>0.14</ele><time>2026-09-02T19:46:33Z</time></trkpt><trkpt lat="59.5576357841" lon="31.2709522247"><ele>0.14</ele><time>2026-09-02T19:46:35Z</time></trkpt><trkpt lat="59.5576143265" lon="31.2709522247"><ele>0.14</ele><time>2026-09-02T19:46:38Z</time></trkpt><trkpt lat="59.5576572418" lon="31.2709522247"><ele>0.14</ele><time>2026-09-02T19:46:40Z</time></trkpt><trkpt lat="59.5576572418" lon="31.2709736824"><ele>0.14</ele><time>2026-09-02T19:46:43Z</time></trkpt><trkpt lat="59.5576786995" lon="31.2709951401"><ele>0.14</ele><time>2026-09-02T19:46:45Z</time></trkpt><trkpt lat="59.5576786995" lon="31.2710595131"><ele>0.14</ele><time>2026-09-02T19:46:48Z</time></trkpt><trkpt lat="59.5576786995" lon="31.2710809708"><ele>0.14</ele><time>2026-09-02T19:46:50Z</time></trkpt><trkpt lat="59.5576786995" lon="31.2710809708"><ele>0.14</ele><time>2026-09-02T19:46:53Z</time></trkpt><trkpt lat="59.5576357841" lon="31.2711024284"><ele>0.14</ele><time>2026-09-02T19:46:55Z</time></trkpt><trkpt lat="59.5576357841" lon="31.2710809708"><ele>0.14</ele><time>2026-09-02T19:46:58Z</time></trkpt><trkpt lat="59.5576143265" lon="31.2710595131"><ele>0.14</ele><time>2026-09-02T19:47:00Z</time></trkpt><trkpt lat="59.5576143265" lon="31.2710380554"><ele>0.14</ele><time>2026-09-02T19:47:03Z</time></trkpt><trkpt lat="59.5576357841" lon="31.2709951401"><ele>0.14</ele><time>2026-09-02T19:47:05Z</time></trkpt><trkpt lat="59.5576143265" lon="31.2709951401"><ele>0.14</ele><time>2026-09-02T19:47:08Z</time></trkpt><trkpt lat="59.5576357841" lon="31.2710380554"><ele>0.14</ele><time>2026-09-02T19:47:10Z</time></trkpt><trkpt lat="59.5576143265" lon="31.2711668015"><ele>0.14</ele><time>2026-09-02T19:47:13Z</time></trkpt><trkpt lat="59.5576143265" lon="31.2712526321"><ele>0.14</ele><time>2026-09-02T19:47:15Z</time></trkpt><trkpt lat="59.5576572418" lon="31.2712955475"><ele>0.14</ele><time>2026-09-02T19:47:18Z</time></trkpt><trkpt lat="59.5576572418" lon="31.2713599205"><ele>0.14</ele><time>2026-09-02T19:47:20Z</time></trkpt><trkpt lat="59.5575928688" lon="31.2713384628"><ele>0.14</ele><time>2026-09-02T19:47:23Z</time></trkpt><trkpt lat="59.5575928688" lon="31.2713599205"><ele>0.14</ele><time>2026-09-02T19:47:25Z</time></trkpt><trkpt lat="59.5575928688" lon="31.2713813782"><ele>0.14</ele><time>2026-09-02T19:47:28Z</time></trkpt><trkpt lat="59.5575714111" lon="31.2714028358"><ele>0.14</ele><time>2026-09-02T19:47:30Z</time></trkpt><trkpt lat="59.5575714111" lon="31.2714242935"><ele>0.14</ele><time>2026-09-02T19:47:33Z</time></trkpt><trkpt lat="59.5575499535" lon="31.2714457512"><ele>0.14</ele><time>2026-09-02T19:47:35Z</time></trkpt><trkpt lat="59.5575284958" lon="31.2714028358"><ele>0.14</ele><time>2026-09-02T19:47:38Z</time></trkpt><trkpt lat="59.5575070381" lon="31.2714028358"><ele>0.14</ele><time>2026-09-02T19:47:40Z</time></trkpt><trkpt lat="59.5574426651" lon="31.2714672089"><ele>0.14</ele><time>2026-09-02T19:47:43Z</time></trkpt><trkpt lat="59.5573782921" lon="31.2715744972"><ele>0.14</ele><time>2026-09-02T19:47:45Z</time></trkpt><trkpt lat="59.5573139191" lon="31.2717247009"><ele>0.14</ele><time>2026-09-02T19:47:48Z</time></trkpt><trkpt lat="59.5572710037" lon="31.2718534470"><ele>0.14</ele><time>2026-09-02T19:47:50Z</time></trkpt><trkpt lat="59.5571851730" lon="31.2719392776"><ele>0.14</ele><time>2026-09-02T19:47:53Z</time></trkpt><trkpt lat="59.5571208000" lon="31.2720036507"><ele>0.14</ele><time>2026-09-02T19:47:55Z</time></trkpt><trkpt lat="59.5570993423" lon="31.2718963623"><ele>0.14</ele><time>2026-09-02T19:47:58Z</time></trkpt><trkpt lat="59.5570778847" lon="31.2717676163"><ele>0.14</ele><time>2026-09-02T19:48:00Z</time></trkpt><trkpt lat="59.5570564270" lon="31.2716817856"><ele>0.14</ele><time>2026-09-02T19:48:03Z</time></trkpt><trkpt lat="59.5570564270" lon="31.2716388702"><ele>0.14</ele><time>2026-09-02T19:48:05Z</time></trkpt><trkpt lat="59.5570564270" lon="31.2716174126"><ele>0.14</ele><time>2026-09-02T19:48:08Z</time></trkpt><trkpt lat="59.5570564270" lon="31.2716174126"><ele>0.14</ele><time>2026-09-02T19:48:10Z</time></trkpt><trkpt lat="59.5570135117" lon="31.2716388702"><ele>0.14</ele><time>2026-09-02T19:48:13Z</time></trkpt><trkpt lat="59.5569920540" lon="31.2716817856"><ele>0.14</ele><time>2026-09-02T19:48:15Z</time></trkpt><trkpt lat="59.5569920540" lon="31.2717032433"><ele>0.14</ele><time>2026-09-02T19:48:18Z</time></trkpt><trkpt lat="59.5569705963" lon="31.2717461586"><ele>0.14</ele><time>2026-09-02T19:48:20Z</time></trkpt><trkpt lat="59.5569705963" lon="31.2717461586"><ele>0.14</ele><time>2026-09-02T19:48:23Z</time></trkpt><trkpt lat="59.5569705963" lon="31.2717461586"><ele>0.14</ele><time>2026-09-02T19:48:25Z</time></trkpt><trkpt lat="59.5569705963" lon="31.2717247009"><ele>0.14</ele><time>2026-09-02T19:48:28Z</time></trkpt><trkpt lat="59.5569920540" lon="31.2716817856"><ele>0.14</ele><time>2026-09-02T19:48:30Z</time></trkpt><trkpt lat="59.5570349693" lon="31.2715315819"><ele>0.14</ele><time>2026-09-02T19:48:33Z</time></trkpt><trkpt lat="59.5570993423" lon="31.2714028358"><ele>0.14</ele><time>2026-09-02T19:48:35Z</time></trkpt><trkpt lat="59.5571422577" lon="31.2713384628"><ele>0.14</ele><time>2026-09-02T19:48:38Z</time></trkpt><trkpt lat="59.5572066307" lon="31.2712097168"><ele>0.14</ele><time>2026-09-02T19:48:40Z</time></trkpt><trkpt lat="59.5572495461" lon="31.2710595131"><ele>0.14</ele><time>2026-09-02T19:48:43Z</time></trkpt><trkpt lat="59.5572924614" lon="31.2709093094"><ele>0.14</ele><time>2026-09-02T19:48:45Z</time></trkpt><trkpt lat="59.5573568344" lon="31.2707591057"><ele>0.14</ele><time>2026-09-02T19:48:48Z</time></trkpt><trkpt lat="59.5574212074" lon="31.2706732750"><ele>0.14</ele><time>2026-09-02T19:48:50Z</time></trkpt><trkpt lat="59.5574641228" lon="31.2705445290"><ele>0.14</ele><time>2026-09-02T19:48:53Z</time></trkpt><trkpt lat="59.5574855804" lon="31.2703943253"><ele>0.14</ele><time>2026-09-02T19:48:55Z</time></trkpt><trkpt lat="59.5575070381" lon="31.2702870369"><ele>0.14</ele><time>2026-09-02T19:48:58Z</time></trkpt><trkpt lat="59.5575714111" lon="31.2702655792"><ele>0.14</ele><time>2026-09-02T19:49:00Z</time></trkpt><trkpt lat="59.5575928688" lon="31.2702226639"><ele>0.14</ele><time>2026-09-02T19:49:03Z</time></trkpt><trkpt lat="59.5575928688" lon="31.2701582909"><ele>0.14</ele><time>2026-09-02T19:49:05Z</time></trkpt><trkpt lat="59.5575928688" lon="31.2701153755"><ele>0.14</ele><time>2026-09-02T19:49:08Z</time></trkpt><trkpt lat="59.5575928688" lon="31.2700939178"><ele>0.14</ele><time>2026-09-02T19:49:10Z</time></trkpt><trkpt lat="59.5576143265" lon="31.2700724602"><ele>0.14</ele><time>2026-09-02T19:49:13Z</time></trkpt><trkpt lat="59.5576143265" lon="31.2700724602"><ele>0.14</ele><time>2026-09-02T19:49:15Z</time></trkpt><trkpt lat="59.5575928688" lon="31.2700724602"><ele>0.14</ele><time>2026-09-02T19:49:18Z</time></trkpt><trkpt lat="59.5575928688" lon="31.2700724602"><ele>0.14</ele><time>2026-09-02T19:49:20Z</time></trkpt><trkpt lat="59.5575928688" lon="31.2700724602"><ele>0.14</ele><time>2026-09-02T19:49:23Z</time></trkpt><trkpt lat="59.5575928688" lon="31.2700724602"><ele>0.14</ele><time>2026-09-02T19:49:25Z</time></trkpt><trkpt lat="59.5575928688" lon="31.2700724602"><ele>0.14</ele><time>2026-09-02T19:49:28Z</time></trkpt><trkpt lat="59.5575928688" lon="31.2700724602"><ele>0.14</ele><time>2026-09-02T19:49:30Z</time></trkpt><trkpt lat="59.5575928688" lon="31.2700724602"><ele>0.14</ele><time>2026-09-02T19:49:33Z</time></trkpt><trkpt lat="59.5575928688" lon="31.2700724602"><ele>0.14</ele><time>2026-09-02T19:49:35Z</time></trkpt><trkpt lat="59.5575928688" lon="31.2700724602"><ele>0.14</ele><time>2026-09-02T19:49:38Z</time></trkpt><trkpt lat="59.5575928688" lon="31.2700724602"><ele>0.14</ele><time>2026-09-02T19:49:40Z</time></trkpt><trkpt lat="59.5575928688" lon="31.2700510025"><ele>0.14</ele><time>2026-09-02T19:49:43Z</time></trkpt><trkpt lat="59.5575928688" lon="31.2699866295"><ele>0.14</ele><time>2026-09-02T19:49:45Z</time></trkpt><trkpt lat="59.5576143265" lon="31.2699007988"><ele>0.14</ele><time>2026-09-02T19:49:48Z</time></trkpt><trkpt lat="59.5575928688" lon="31.2698149681"><ele>0.14</ele><time>2026-09-02T19:49:50Z</time></trkpt><trkpt lat="59.5576143265" lon="31.2697505951"><ele>0.14</ele><time>2026-09-02T19:49:53Z</time></trkpt><trkpt lat="59.5575928688" lon="31.2697076797"><ele>0.14</ele><time>2026-09-02T19:49:55Z</time></trkpt><trkpt lat="59.5575928688" lon="31.2696647644"><ele>0.14</ele><time>2026-09-02T19:49:58Z</time></trkpt><trkpt lat="59.5575928688" lon="31.2696862221"><ele>0.14</ele><time>2026-09-02T19:50:00Z</time></trkpt><trkpt lat="59.5575714111" lon="31.2696647644"><ele>0.14</ele><time>2026-09-02T19:50:03Z</time></trkpt><trkpt lat="59.5576143265" lon="31.2696433067"><ele>0.14</ele><time>2026-09-02T19:50:05Z</time></trkpt><trkpt lat="59.5576572418" lon="31.2696003914"><ele>0.14</ele><time>2026-09-02T19:50:08Z</time></trkpt><trkpt lat="59.5577216148" lon="31.2696003914"><ele>0.14</ele><time>2026-09-02T19:50:10Z</time></trkpt><trkpt lat="59.5577645302" lon="31.2695574760"><ele>0.14</ele><time>2026-09-02T19:50:13Z</time></trkpt><trkpt lat="59.5578074455" lon="31.2695789337"><ele>0.14</ele><time>2026-09-02T19:50:15Z</time></trkpt><trkpt lat="59.5577859879" lon="31.2695789337"><ele>0.14</ele><time>2026-09-02T19:50:18Z</time></trkpt><trkpt lat="59.5577859879" lon="31.2695789337"><ele>0.14</ele><time>2026-09-02T19:50:20Z</time></trkpt><trkpt lat="59.5578074455" lon="31.2695789337"><ele>0.14</ele><time>2026-09-02T19:50:23Z</time></trkpt><trkpt lat="59.5578074455" lon="31.2696003914"><ele>0.14</ele><time>2026-09-02T19:50:25Z</time></trkpt><trkpt lat="59.5578074455" lon="31.2695789337"><ele>0.14</ele><time>2026-09-02T19:50:28Z</time></trkpt><trkpt lat="59.5578074455" lon="31.2695789337"><ele>0.14</ele><time>2026-09-02T19:50:30Z</time></trkpt><trkpt lat="59.5578289032" lon="31.2695789337"><ele>0.14</ele><time>2026-09-02T19:50:33Z</time></trkpt><trkpt lat="59.5578074455" lon="31.2696003914"><ele>0.14</ele><time>2026-09-02T19:50:35Z</time></trkpt><trkpt lat="59.5578074455" lon="31.2696003914"><ele>0.14</ele><time>2026-09-02T19:50:38Z</time></trkpt><trkpt lat="59.5578074455" lon="31.2696003914"><ele>0.14</ele><time>2026-09-02T19:50:40Z</time></trkpt><trkpt lat="59.5578074455" lon="31.2696003914"><ele>0.14</ele><time>2026-09-02T19:50:43Z</time></trkpt><trkpt lat="59.5578289032" lon="31.2695789337"><ele>0.14</ele><time>2026-09-02T19:50:45Z</time></trkpt><trkpt lat="59.5578503609" lon="31.2695360184"><ele>0.14</ele><time>2026-09-02T19:50:48Z</time></trkpt><trkpt lat="59.5578503609" lon="31.2694931030"><ele>0.14</ele><time>2026-09-02T19:50:50Z</time></trkpt><trkpt lat="59.5578718185" lon="31.2694931030"><ele>0.14</ele><time>2026-09-02T19:50:53Z</time></trkpt><trkpt lat="59.5578503609" lon="31.2694931030"><ele>0.14</ele><time>2026-09-02T19:50:55Z</time></trkpt><trkpt lat="59.5578289032" lon="31.2694931030"><ele>0.14</ele><time>2026-09-02T19:50:58Z</time></trkpt><trkpt lat="59.5578503609" lon="31.2694716454"><ele>0.14</ele><time>2026-09-02T19:51:00Z</time></trkpt><trkpt lat="59.5578503609" lon="31.2694931030"><ele>0.14</ele><time>2026-09-02T19:51:03Z</time></trkpt><trkpt lat="59.5578503609" lon="31.2694931030"><ele>0.14</ele><time>2026-09-02T19:51:05Z</time></trkpt><trkpt lat="59.5578718185" lon="31.2694931030"><ele>0.14</ele><time>2026-09-02T19:51:08Z</time></trkpt><trkpt lat="59.5578718185" lon="31.2694716454"><ele>0.14</ele><time>2026-09-02T19:51:10Z</time></trkpt><trkpt lat="59.5578718185" lon="31.2694501877"><ele>0.14</ele><time>2026-09-02T19:51:13Z</time></trkpt><trkpt lat="59.5578718185" lon="31.2694287300"><ele>0.14</ele><time>2026-09-02T19:51:15Z</time></trkpt><trkpt lat="59.5578718185" lon="31.2693858147"><ele>0.14</ele><time>2026-09-02T19:51:18Z</time></trkpt><trkpt lat="59.5578718185" lon="31.2693214417"><ele>0.14</ele><time>2026-09-02T19:51:20Z</time></trkpt><trkpt lat="59.5578932762" lon="31.2693214417"><ele>0.14</ele><time>2026-09-02T19:51:23Z</time></trkpt><trkpt lat="59.5579147339" lon="31.2692785263"><ele>0.14</ele><time>2026-09-02T19:51:25Z</time></trkpt><trkpt lat="59.5579147339" lon="31.2692141533"><ele>0.14</ele><time>2026-09-02T19:51:28Z</time></trkpt><trkpt lat="59.5579147339" lon="31.2691497803"><ele>0.14</ele><time>2026-09-02T19:51:30Z</time></trkpt><trkpt lat="59.5578718185" lon="31.2691712379"><ele>0.14</ele><time>2026-09-02T19:51:33Z</time></trkpt><trkpt lat="59.5578503609" lon="31.2691926956"><ele>0.14</ele><time>2026-09-02T19:51:35Z</time></trkpt><trkpt lat="59.5578718185" lon="31.2692356110"><ele>0.14</ele><time>2026-09-02T19:51:38Z</time></trkpt><trkpt lat="59.5578503609" lon="31.2692999840"><ele>0.14</ele><time>2026-09-02T19:51:40Z</time></trkpt><trkpt lat="59.5578718185" lon="31.2692785263"><ele>0.14</ele><time>2026-09-02T19:51:43Z</time></trkpt><trkpt lat="59.5579147339" lon="31.2692570686"><ele>0.14</ele><time>2026-09-02T19:51:45Z</time></trkpt><trkpt lat="59.5579361916" lon="31.2692570686"><ele>0.14</ele><time>2026-09-02T19:51:48Z</time></trkpt><trkpt lat="59.5579361916" lon="31.2692356110"><ele>0.14</ele><time>2026-09-02T19:51:50Z</time></trkpt><trkpt lat="59.5579576492" lon="31.2691712379"><ele>0.14</ele><time>2026-09-02T19:51:53Z</time></trkpt><trkpt lat="59.5579791069" lon="31.2692141533"><ele>0.14</ele><time>2026-09-02T19:51:55Z</time></trkpt><trkpt lat="59.5580220222" lon="31.2692141533"><ele>0.14</ele><time>2026-09-02T19:51:58Z</time></trkpt><trkpt lat="59.5580220222" lon="31.2691283226"><ele>0.14</ele><time>2026-09-02T19:52:00Z</time></trkpt><trkpt lat="59.5580434799" lon="31.2690639496"><ele>0.14</ele><time>2026-09-02T19:52:03Z</time></trkpt><trkpt lat="59.5580434799" lon="31.2690424919"><ele>0.14</ele><time>2026-09-02T19:52:05Z</time></trkpt><trkpt lat="59.5580863953" lon="31.2690210342"><ele>0.14</ele><time>2026-09-02T19:52:08Z</time></trkpt><trkpt lat="59.5580863953" lon="31.2689995766"><ele>0.14</ele><time>2026-09-02T19:52:10Z</time></trkpt><trkpt lat="59.5581078529" lon="31.2689566612"><ele>0.14</ele><time>2026-09-02T19:52:13Z</time></trkpt><trkpt lat="59.5581293106" lon="31.2688922882"><ele>0.14</ele><time>2026-09-02T19:52:15Z</time></trkpt><trkpt lat="59.5581293106" lon="31.2689137459"><ele>0.14</ele><time>2026-09-02T19:52:18Z</time></trkpt><trkpt lat="59.5581507683" lon="31.2688708305"><ele>0.14</ele><time>2026-09-02T19:52:20Z</time></trkpt><trkpt lat="59.5581507683" lon="31.2688708305"><ele>0.14</ele><time>2026-09-02T19:52:23Z</time></trkpt><trkpt lat="59.5581293106" lon="31.2688493729"><ele>0.14</ele><time>2026-09-02T19:52:25Z</time></trkpt><trkpt lat="59.5581293106" lon="31.2688279152"><ele>0.14</ele><time>2026-09-02T19:52:28Z</time></trkpt><trkpt lat="59.5581507683" lon="31.2688279152"><ele>0.14</ele><time>2026-09-02T19:52:30Z</time></trkpt><trkpt lat="59.5581722260" lon="31.2688064575"><ele>0.14</ele><time>2026-09-02T19:52:33Z</time></trkpt><trkpt lat="59.5581936836" lon="31.2688064575"><ele>0.14</ele><time>2026-09-02T19:52:35Z</time></trkpt><trkpt lat="59.5582151413" lon="31.2688064575"><ele>0.14</ele><time>2026-09-02T19:52:38Z</time></trkpt><trkpt lat="59.5582365990" lon="31.2688279152"><ele>0.14</ele><time>2026-09-02T19:52:40Z</time></trkpt><trkpt lat="59.5582580566" lon="31.2688708305"><ele>0.14</ele><time>2026-09-02T19:52:43Z</time></trkpt><trkpt lat="59.5582580566" lon="31.2688708305"><ele>0.14</ele><time>2026-09-02T19:52:45Z</time></trkpt><trkpt lat="59.5582365990" lon="31.2689137459"><ele>0.14</ele><time>2026-09-02T19:52:48Z</time></trkpt><trkpt lat="59.5582151413" lon="31.2689352036"><ele>0.14</ele><time>2026-09-02T19:52:50Z</time></trkpt><trkpt lat="59.5582365990" lon="31.2689566612"><ele>0.14</ele><time>2026-09-02T19:52:53Z</time></trkpt><trkpt lat="59.5582365990" lon="31.2689995766"><ele>0.14</ele><time>2026-09-02T19:52:55Z</time></trkpt><trkpt lat="59.5582365990" lon="31.2689995766"><ele>0.14</ele><time>2026-09-02T19:52:58Z</time></trkpt><trkpt lat="59.5582151413" lon="31.2689995766"><ele>0.14</ele><time>2026-09-02T19:53:00Z</time></trkpt><trkpt lat="59.5581936836" lon="31.2690210342"><ele>0.14</ele><time>2026-09-02T19:53:03Z</time></trkpt><trkpt lat="59.5581936836" lon="31.2689781189"><ele>0.14</ele><time>2026-09-02T19:53:05Z</time></trkpt><trkpt lat="59.5581722260" lon="31.2688922882"><ele>0.14</ele><time>2026-09-02T19:53:08Z</time></trkpt><trkpt lat="59.5581507683" lon="31.2688708305"><ele>0.14</ele><time>2026-09-02T19:53:10Z</time></trkpt><trkpt lat="59.5581722260" lon="31.2688708305"><ele>0.14</ele><time>2026-09-02T19:53:13Z</time></trkpt><trkpt lat="59.5581507683" lon="31.2688493729"><ele>0.14</ele><time>2026-09-02T19:53:15Z</time></trkpt><trkpt lat="59.5581293106" lon="31.2688279152"><ele>0.14</ele><time>2026-09-02T19:53:18Z</time></trkpt><trkpt lat="59.5581293106" lon="31.2688279152"><ele>0.14</ele><time>2026-09-02T19:53:20Z</time></trkpt><trkpt lat="59.5581293106" lon="31.2688064575"><ele>0.14</ele><time>2026-09-02T19:53:23Z</time></trkpt><trkpt lat="59.5581293106" lon="31.2687849998"><ele>0.14</ele><time>2026-09-02T19:53:25Z</time></trkpt><trkpt lat="59.5581293106" lon="31.2688064575"><ele>0.14</ele><time>2026-09-02T19:53:28Z</time></trkpt><trkpt lat="59.5581293106" lon="31.2687849998"><ele>0.14</ele><time>2026-09-02T19:53:30Z</time></trkpt><trkpt lat="59.5581293106" lon="31.2687635422"><ele>0.14</ele><time>2026-09-02T19:53:33Z</time></trkpt><trkpt lat="59.5581507683" lon="31.2687635422"><ele>0.14</ele><time>2026-09-02T19:53:35Z</time></trkpt><trkpt lat="59.5581293106" lon="31.2687635422"><ele>0.14</ele><time>2026-09-02T19:53:38Z</time></trkpt><trkpt lat="59.5581293106" lon="31.2687420845"><ele>0.14</ele><time>2026-09-02T19:53:40Z</time></trkpt><trkpt lat="59.5581293106" lon="31.2687206268"><ele>0.14</ele><time>2026-09-02T19:53:43Z</time></trkpt><trkpt lat="59.5581293106" lon="31.2687420845"><ele>0.14</ele><time>2026-09-02T19:53:45Z</time></trkpt><trkpt lat="59.5581722260" lon="31.2687849998"><ele>0.14</ele><time>2026-09-02T19:53:48Z</time></trkpt><trkpt lat="59.5581936836" lon="31.2688064575"><ele>0.14</ele><time>2026-09-02T19:53:50Z</time></trkpt><trkpt lat="59.5582151413" lon="31.2688708305"><ele>0.14</ele><time>2026-09-02T19:53:53Z</time></trkpt><trkpt lat="59.5582365990" lon="31.2688922882"><ele>0.14</ele><time>2026-09-02T19:53:55Z</time></trkpt><trkpt lat="59.5582580566" lon="31.2688922882"><ele>0.14</ele><time>2026-09-02T19:53:58Z</time></trkpt><trkpt lat="59.5583009720" lon="31.2689137459"><ele>0.14</ele><time>2026-09-02T19:54:00Z</time></trkpt><trkpt lat="59.5583009720" lon="31.2688922882"><ele>0.14</ele><time>2026-09-02T19:54:03Z</time></trkpt><trkpt lat="59.5583224297" lon="31.2688708305"><ele>0.14</ele><time>2026-09-02T19:54:05Z</time></trkpt><trkpt lat="59.5583224297" lon="31.2688708305"><ele>0.14</ele><time>2026-09-02T19:54:08Z</time></trkpt><trkpt lat="59.5583224297" lon="31.2688708305"><ele>0.14</ele><time>2026-09-02T19:54:10Z</time></trkpt><trkpt lat="59.5583438873" lon="31.2688279152"><ele>0.14</ele><time>2026-09-02T19:54:13Z</time></trkpt><trkpt lat="59.5583438873" lon="31.2688064575"><ele>0.14</ele><time>2026-09-02T19:54:15Z</time></trkpt><trkpt lat="59.5583653450" lon="31.2687635422"><ele>0.14</ele><time>2026-09-02T19:54:18Z</time></trkpt><trkpt lat="59.5583653450" lon="31.2687635422"><ele>0.14</ele><time>2026-09-02T19:54:20Z</time></trkpt><trkpt lat="59.5583868027" lon="31.2687420845"><ele>0.14</ele><time>2026-09-02T19:54:23Z</time></trkpt><trkpt lat="59.5583868027" lon="31.2687635422"><ele>0.14</ele><time>2026-09-02T19:54:25Z</time></trkpt><trkpt lat="59.5584082603" lon="31.2687420845"><ele>0.14</ele><time>2026-09-02T19:54:28Z</time></trkpt><trkpt lat="59.5584082603" lon="31.2687635422"><ele>0.14</ele><time>2026-09-02T19:54:30Z</time></trkpt><trkpt lat="59.5584082603" lon="31.2687849998"><ele>0.14</ele><time>2026-09-02T19:54:33Z</time></trkpt><trkpt lat="59.5584082603" lon="31.2687849998"><ele>0.14</ele><time>2026-09-02T19:54:35Z</time></trkpt><trkpt lat="59.5584082603" lon="31.2688064575"><ele>0.14</ele><time>2026-09-02T19:54:38Z</time></trkpt><trkpt lat="59.5584082603" lon="31.2688064575"><ele>0.14</ele><time>2026-09-02T19:54:40Z</time></trkpt><trkpt lat="59.5584082603" lon="31.2688064575"><ele>0.14</ele><time>2026-09-02T19:54:43Z</time></trkpt><trkpt lat="59.5583868027" lon="31.2688279152"><ele>0.14</ele><time>2026-09-02T19:54:45Z</time></trkpt><trkpt lat="59.5583868027" lon="31.2688279152"><ele>0.14</ele><time>2026-09-02T19:54:48Z</time></trkpt><trkpt lat="59.5583868027" lon="31.2688279152"><ele>0.14</ele><time>2026-09-02T19:54:50Z</time></trkpt><trkpt lat="59.5583653450" lon="31.2688279152"><ele>0.14</ele><time>2026-09-02T19:54:53Z</time></trkpt><trkpt lat="59.5583653450" lon="31.2688064575"><ele>0.14</ele><time>2026-09-02T19:54:55Z</time></trkpt><trkpt lat="59.5583438873" lon="31.2688064575"><ele>0.14</ele><time>2026-09-02T19:54:58Z</time></trkpt><trkpt lat="59.5583224297" lon="31.2688064575"><ele>0.14</ele><time>2026-09-02T19:55:00Z</time></trkpt><trkpt lat="59.5583438873" lon="31.2687635422"><ele>0.14</ele><time>2026-09-02T19:55:03Z</time></trkpt><trkpt lat="59.5583438873" lon="31.2687420845"><ele>0.14</ele><time>2026-09-02T19:55:05Z</time></trkpt><trkpt lat="59.5583438873" lon="31.2687206268"><ele>0.14</ele><time>2026-09-02T19:55:08Z</time></trkpt><trkpt lat="59.5583653450" lon="31.2686777115"><ele>0.14</ele><time>2026-09-02T19:55:10Z</time></trkpt><trkpt lat="59.5583653450" lon="31.2686777115"><ele>0.14</ele><time>2026-09-02T19:55:13Z</time></trkpt><trkpt lat="59.5583653450" lon="31.2686777115"><ele>0.14</ele><time>2026-09-02T19:55:15Z</time></trkpt><trkpt lat="59.5583653450" lon="31.2686777115"><ele>0.14</ele><time>2026-09-02T19:55:18Z</time></trkpt><trkpt lat="59.5583868027" lon="31.2686777115"><ele>0.14</ele><time>2026-09-02T19:55:20Z</time></trkpt><trkpt lat="59.5583868027" lon="31.2686562538"><ele>0.14</ele><time>2026-09-02T19:55:23Z</time></trkpt><trkpt lat="59.5583868027" lon="31.2686777115"><ele>0.14</ele><time>2026-09-02T19:55:25Z</time></trkpt><trkpt lat="59.5583868027" lon="31.2686777115"><ele>0.14</ele><time>2026-09-02T19:55:28Z</time></trkpt><trkpt lat="59.5584082603" lon="31.2686562538"><ele>0.14</ele><time>2026-09-02T19:55:30Z</time></trkpt><trkpt lat="59.5584082603" lon="31.2686562538"><ele>0.14</ele><time>2026-09-02T19:55:33Z</time></trkpt><trkpt lat="59.5584082603" lon="31.2686347961"><ele>0.14</ele><time>2026-09-02T19:55:35Z</time></trkpt><trkpt lat="59.5584297180" lon="31.2686133385"><ele>0.14</ele><time>2026-09-02T19:55:38Z</time></trkpt><trkpt lat="59.5584297180" lon="31.2686133385"><ele>0.14</ele><time>2026-09-02T19:55:40Z</time></trkpt><trkpt lat="59.5584297180" lon="31.2685918808"><ele>0.14</ele><time>2026-09-02T19:55:43Z</time></trkpt><trkpt lat="59.5584511757" lon="31.2686133385"><ele>0.14</ele><time>2026-09-02T19:55:45Z</time></trkpt><trkpt lat="59.5584726334" lon="31.2686133385"><ele>0.14</ele><time>2026-09-02T19:55:48Z</time></trkpt><trkpt lat="59.5584726334" lon="31.2686133385"><ele>0.14</ele><time>2026-09-02T19:55:50Z</time></trkpt><trkpt lat="59.5584940910" lon="31.2686347961"><ele>0.14</ele><time>2026-09-02T19:55:53Z</time></trkpt><trkpt lat="59.5584940910" lon="31.2686347961"><ele>0.14</ele><time>2026-09-02T19:55:55Z</time></trkpt><trkpt lat="59.5584940910" lon="31.2686777115"><ele>0.14</ele><time>2026-09-02T19:55:58Z</time></trkpt><trkpt lat="59.5584940910" lon="31.2686777115"><ele>0.14</ele><time>2026-09-02T19:56:00Z</time></trkpt><trkpt lat="59.5584726334" lon="31.2686777115"><ele>0.14</ele><time>2026-09-02T19:56:03Z</time></trkpt><trkpt lat="59.5584940910" lon="31.2686777115"><ele>0.14</ele><time>2026-09-02T19:56:05Z</time></trkpt><trkpt lat="59.5584726334" lon="31.2686777115"><ele>0.14</ele><time>2026-09-02T19:56:08Z</time></trkpt><trkpt lat="59.5584726334" lon="31.2686347961"><ele>0.14</ele><time>2026-09-02T19:56:10Z</time></trkpt><trkpt lat="59.5584726334" lon="31.2685704231"><ele>0.14</ele><time>2026-09-02T19:56:13Z</time></trkpt><trkpt lat="59.5584726334" lon="31.2685275078"><ele>0.14</ele><time>2026-09-02T19:56:15Z</time></trkpt><trkpt lat="59.5584940910" lon="31.2684845924"><ele>0.14</ele><time>2026-09-02T19:56:18Z</time></trkpt><trkpt lat="59.5584940910" lon="31.2684631348"><ele>0.14</ele><time>2026-09-02T19:56:20Z</time></trkpt><trkpt lat="59.5585155487" lon="31.2684631348"><ele>0.14</ele><time>2026-09-02T19:56:23Z</time></trkpt><trkpt lat="59.5585155487" lon="31.2684202194"><ele>0.14</ele><time>2026-09-02T19:56:25Z</time></trkpt><trkpt lat="59.5585155487" lon="31.2684202194"><ele>0.14</ele><time>2026-09-02T19:56:28Z</time></trkpt><trkpt lat="59.5585155487" lon="31.2684202194"><ele>0.14</ele><time>2026-09-02T19:56:30Z</time></trkpt><trkpt lat="59.5585155487" lon="31.2684202194"><ele>0.14</ele><time>2026-09-02T19:56:33Z</time></trkpt><trkpt lat="59.5585155487" lon="31.2684202194"><ele>0.14</ele><time>2026-09-02T19:56:35Z</time></trkpt><trkpt lat="59.5585370064" lon="31.2684202194"><ele>0.14</ele><time>2026-09-02T19:56:38Z</time></trkpt><trkpt lat="59.5585370064" lon="31.2684202194"><ele>0.14</ele><time>2026-09-02T19:56:40Z</time></trkpt><trkpt lat="59.5585370064" lon="31.2684416771"><ele>0.14</ele><time>2026-09-02T19:56:43Z</time></trkpt><trkpt lat="59.5585584641" lon="31.2684631348"><ele>0.14</ele><time>2026-09-02T19:56:45Z</time></trkpt><trkpt lat="59.5585584641" lon="31.2684631348"><ele>0.14</ele><time>2026-09-02T19:56:48Z</time></trkpt><trkpt lat="59.5585584641" lon="31.2684631348"><ele>0.14</ele><time>2026-09-02T19:56:50Z</time></trkpt><trkpt lat="59.5585584641" lon="31.2684631348"><ele>0.14</ele><time>2026-09-02T19:56:53Z</time></trkpt><trkpt lat="59.5585370064" lon="31.2683987617"><ele>0.14</ele><time>2026-09-02T19:56:55Z</time></trkpt><trkpt lat="59.5585370064" lon="31.2683343887"><ele>0.14</ele><time>2026-09-02T19:56:58Z</time></trkpt><trkpt lat="59.5585370064" lon="31.2682914734"><ele>0.14</ele><time>2026-09-02T19:57:00Z</time></trkpt><trkpt lat="59.5585370064" lon="31.2682485580"><ele>0.14</ele><time>2026-09-02T19:57:03Z</time></trkpt><trkpt lat="59.5585155487" lon="31.2682056427"><ele>0.14</ele><time>2026-09-02T19:57:05Z</time></trkpt><trkpt lat="59.5585155487" lon="31.2682056427"><ele>0.14</ele><time>2026-09-02T19:57:08Z</time></trkpt><trkpt lat="59.5585155487" lon="31.2681841850"><ele>0.14</ele><time>2026-09-02T19:57:10Z</time></trkpt><trkpt lat="59.5584940910" lon="31.2681627274"><ele>0.14</ele><time>2026-09-02T19:57:13Z</time></trkpt><trkpt lat="59.5584726334" lon="31.2681412697"><ele>0.14</ele><time>2026-09-02T19:57:15Z</time></trkpt><trkpt lat="59.5584511757" lon="31.2680768967"><ele>0.14</ele><time>2026-09-02T19:57:18Z</time></trkpt><trkpt lat="59.5584082603" lon="31.2680554390"><ele>0.14</ele><time>2026-09-02T19:57:20Z</time></trkpt><trkpt lat="59.5584082603" lon="31.2680339813"><ele>0.14</ele><time>2026-09-02T19:57:23Z</time></trkpt><trkpt lat="59.5583868027" lon="31.2680339813"><ele>0.14</ele><time>2026-09-02T19:57:25Z</time></trkpt><trkpt lat="59.5583438873" lon="31.2679910660"><ele>0.14</ele><time>2026-09-02T19:57:28Z</time></trkpt><trkpt lat="59.5583224297" lon="31.2679910660"><ele>0.14</ele><time>2026-09-02T19:57:30Z</time></trkpt><trkpt lat="59.5583224297" lon="31.2679696083"><ele>0.14</ele><time>2026-09-02T19:57:33Z</time></trkpt><trkpt lat="59.5583009720" lon="31.2679696083"><ele>0.14</ele><time>2026-09-02T19:57:35Z</time></trkpt><trkpt lat="59.5583009720" lon="31.2679696083"><ele>0.14</ele><time>2026-09-02T19:57:38Z</time></trkpt><trkpt lat="59.5583224297" lon="31.2679481506"><ele>0.14</ele><time>2026-09-02T19:57:40Z</time></trkpt><trkpt lat="59.5583868027" lon="31.2679481506"><ele>0.14</ele><time>2026-09-02T19:57:43Z</time></trkpt><trkpt lat="59.5584726334" lon="31.2679910660"><ele>0.14</ele><time>2026-09-02T19:57:45Z</time></trkpt><trkpt lat="59.5585370064" lon="31.2680983543"><ele>0.14</ele><time>2026-09-02T19:57:48Z</time></trkpt><trkpt lat="59.5585799217" lon="31.2681198120"><ele>0.14</ele><time>2026-09-02T19:57:50Z</time></trkpt><trkpt lat="59.5586013794" lon="31.2680983543"><ele>0.14</ele><time>2026-09-02T19:57:53Z</time></trkpt><trkpt lat="59.5586228371" lon="31.2681198120"><ele>0.14</ele><time>2026-09-02T19:57:55Z</time></trkpt><trkpt lat="59.5586228371" lon="31.2681412697"><ele>0.14</ele><time>2026-09-02T19:57:58Z</time></trkpt><trkpt lat="59.5586228371" lon="31.2681412697"><ele>0.14</ele><time>2026-09-02T19:58:00Z</time></trkpt><trkpt lat="59.5586228371" lon="31.2681412697"><ele>0.14</ele><time>2026-09-02T19:58:03Z</time></trkpt><trkpt lat="59.5586442947" lon="31.2681412697"><ele>0.14</ele><time>2026-09-02T19:58:05Z</time></trkpt><trkpt lat="59.5586442947" lon="31.2681412697"><ele>0.14</ele><time>2026-09-02T19:58:08Z</time></trkpt><trkpt lat="59.5586657524" lon="31.2681627274"><ele>0.14</ele><time>2026-09-02T19:58:10Z</time></trkpt><trkpt lat="59.5586657524" lon="31.2681627274"><ele>0.14</ele><time>2026-09-02T19:58:13Z</time></trkpt><trkpt lat="59.5586442947" lon="31.2681627274"><ele>0.14</ele><time>2026-09-02T19:58:15Z</time></trkpt><trkpt lat="59.5586657524" lon="31.2681627274"><ele>0.14</ele><time>2026-09-02T19:58:18Z</time></trkpt><trkpt lat="59.5586442947" lon="31.2681627274"><ele>0.14</ele><time>2026-09-02T19:58:20Z</time></trkpt><trkpt lat="59.5586442947" lon="31.2681627274"><ele>0.14</ele><time>2026-09-02T19:58:23Z</time></trkpt><trkpt lat="59.5586442947" lon="31.2681627274"><ele>0.14</ele><time>2026-09-02T19:58:25Z</time></trkpt><trkpt lat="59.5586442947" lon="31.2681627274"><ele>0.14</ele><time>2026-09-02T19:58:28Z</time></trkpt><trkpt lat="59.5586442947" lon="31.2681627274"><ele>0.14</ele><time>2026-09-02T19:58:30Z</time></trkpt><trkpt lat="59.5586657524" lon="31.2681627274"><ele>0.14</ele><time>2026-09-02T19:58:33Z</time></trkpt><trkpt lat="59.5586657524" lon="31.2681627274"><ele>0.14</ele><time>2026-09-02T19:58:38Z</time></trkpt><trkpt lat="59.5586657524" lon="31.2681627274"><ele>0.14</ele><time>2026-09-02T19:58:40Z</time></trkpt><trkpt lat="59.5586657524" lon="31.2681627274"><ele>0.14</ele><time>2026-09-02T19:58:43Z</time></trkpt><trkpt lat="59.5586657524" lon="31.2681627274"><ele>0.14</ele><time>2026-09-02T19:58:45Z</time></trkpt><trkpt lat="59.5586657524" lon="31.2681627274"><ele>0.14</ele><time>2026-09-02T19:58:48Z</time></trkpt><trkpt lat="59.5586657524" lon="31.2681627274"><ele>0.14</ele><time>2026-09-02T19:58:50Z</time></trkpt><trkpt lat="59.5586657524" lon="31.2681627274"><ele>0.14</ele><time>2026-09-02T19:58:53Z</time></trkpt><trkpt lat="59.5586872101" lon="31.2681627274"><ele>0.14</ele><time>2026-09-02T19:58:55Z</time></trkpt><trkpt lat="59.5586872101" lon="31.2681627274"><ele>0.14</ele><time>2026-09-02T19:58:58Z</time></trkpt><trkpt lat="59.5586872101" lon="31.2681627274"><ele>0.14</ele><time>2026-09-02T19:59:00Z</time></trkpt><trkpt lat="59.5586872101" lon="31.2681627274"><ele>0.14</ele><time>2026-09-02T19:59:03Z</time></trkpt><trkpt lat="59.5586872101" lon="31.2681627274"><ele>0.14</ele><time>2026-09-02T19:59:05Z</time></trkpt><trkpt lat="59.5586872101" lon="31.2681627274"><ele>0.14</ele><time>2026-09-02T19:59:08Z</time></trkpt><trkpt lat="59.5586872101" lon="31.2681841850"><ele>0.14</ele><time>2026-09-02T19:59:10Z</time></trkpt><trkpt lat="59.5586872101" lon="31.2681841850"><ele>0.14</ele><time>2026-09-02T19:59:13Z</time></trkpt><trkpt lat="59.5586872101" lon="31.2681841850"><ele>0.14</ele><time>2026-09-02T19:59:15Z</time></trkpt><trkpt lat="59.5586872101" lon="31.2681841850"><ele>0.14</ele><time>2026-09-02T19:59:18Z</time></trkpt><trkpt lat="59.5586872101" lon="31.2681841850"><ele>0.14</ele><time>2026-09-02T19:59:20Z</time></trkpt><trkpt lat="59.5586657524" lon="31.2681841850"><ele>0.14</ele><time>2026-09-02T19:59:23Z</time></trkpt><trkpt lat="59.5586657524" lon="31.2681841850"><ele>0.14</ele><time>2026-09-02T19:59:25Z</time></trkpt><trkpt lat="59.5586657524" lon="31.2682056427"><ele>0.14</ele><time>2026-09-02T19:59:28Z</time></trkpt><trkpt lat="59.5586442947" lon="31.2681841850"><ele>0.14</ele><time>2026-09-02T19:59:30Z</time></trkpt><trkpt lat="59.5586228371" lon="31.2681627274"><ele>0.14</ele><time>2026-09-02T19:59:33Z</time></trkpt><trkpt lat="59.5586013794" lon="31.2681627274"><ele>0.14</ele><time>2026-09-02T19:59:35Z</time></trkpt><trkpt lat="59.5585799217" lon="31.2681841850"><ele>0.14</ele><time>2026-09-02T19:59:38Z</time></trkpt><trkpt lat="59.5586013794" lon="31.2682271004"><ele>0.14</ele><time>2026-09-02T19:59:40Z</time></trkpt><trkpt lat="59.5586228371" lon="31.2682914734"><ele>0.14</ele><time>2026-09-02T19:59:43Z</time></trkpt><trkpt lat="59.5586442947" lon="31.2683558464"><ele>0.14</ele><time>2026-09-02T19:59:45Z</time></trkpt><trkpt lat="59.5586657524" lon="31.2683987617"><ele>0.14</ele><time>2026-09-02T19:59:48Z</time></trkpt><trkpt lat="59.5586657524" lon="31.2684416771"><ele>0.14</ele><time>2026-09-02T19:59:50Z</time></trkpt><trkpt lat="59.5586657524" lon="31.2684416771"><ele>0.14</ele><time>2026-09-02T19:59:53Z</time></trkpt><trkpt lat="59.5586442947" lon="31.2684416771"><ele>0.14</ele><time>2026-09-02T19:59:55Z</time></trkpt><trkpt lat="59.5586442947" lon="31.2684202194"><ele>0.14</ele><time>2026-09-02T19:59:58Z</time></trkpt><trkpt lat="59.5586228371" lon="31.2684202194"><ele>0.14</ele><time>2026-09-02T20:00:00Z</time></trkpt><trkpt lat="59.5586228371" lon="31.2683773041"><ele>0.14</ele><time>2026-09-02T20:00:03Z</time></trkpt><trkpt lat="59.5586228371" lon="31.2683558464"><ele>0.14</ele><time>2026-09-02T20:00:05Z</time></trkpt><trkpt lat="59.5586228371" lon="31.2683558464"><ele>0.14</ele><time>2026-09-02T20:00:08Z</time></trkpt><trkpt lat="59.5586228371" lon="31.2683558464"><ele>0.14</ele><time>2026-09-02T20:00:10Z</time></trkpt><trkpt lat="59.5586228371" lon="31.2683129311"><ele>0.14</ele><time>2026-09-02T20:00:13Z</time></trkpt><trkpt lat="59.5586657524" lon="31.2682700157"><ele>0.14</ele><time>2026-09-02T20:00:15Z</time></trkpt><trkpt lat="59.5586442947" lon="31.2681841850"><ele>0.14</ele><time>2026-09-02T20:00:18Z</time></trkpt><trkpt lat="59.5586657524" lon="31.2680983543"><ele>0.14</ele><time>2026-09-02T20:00:20Z</time></trkpt><trkpt lat="59.5586872101" lon="31.2680554390"><ele>0.14</ele><time>2026-09-02T20:00:23Z</time></trkpt><trkpt lat="59.5586872101" lon="31.2680125237"><ele>0.14</ele><time>2026-09-02T20:00:25Z</time></trkpt><trkpt lat="59.5587086678" lon="31.2679481506"><ele>0.14</ele><time>2026-09-02T20:00:28Z</time></trkpt><trkpt lat="59.5587086678" lon="31.2679052353"><ele>0.14</ele><time>2026-09-02T20:00:30Z</time></trkpt><trkpt lat="59.5587086678" lon="31.2679266930"><ele>0.14</ele><time>2026-09-02T20:00:33Z</time></trkpt><trkpt lat="59.5587086678" lon="31.2679266930"><ele>0.14</ele><time>2026-09-02T20:00:35Z</time></trkpt><trkpt lat="59.5587515831" lon="31.2678837776"><ele>0.14</ele><time>2026-09-02T20:00:38Z</time></trkpt><trkpt lat="59.5587515831" lon="31.2678408623"><ele>0.14</ele><time>2026-09-02T20:00:40Z</time></trkpt><trkpt lat="59.5587515831" lon="31.2678408623"><ele>0.14</ele><time>2026-09-02T20:00:43Z</time></trkpt><trkpt lat="59.5587515831" lon="31.2677979469"><ele>0.14</ele><time>2026-09-02T20:00:45Z</time></trkpt><trkpt lat="59.5587515831" lon="31.2677764893"><ele>0.14</ele><time>2026-09-02T20:00:48Z</time></trkpt><trkpt lat="59.5587515831" lon="31.2677335739"><ele>0.14</ele><time>2026-09-02T20:00:50Z</time></trkpt><trkpt lat="59.5587730408" lon="31.2677550316"><ele>0.14</ele><time>2026-09-02T20:00:53Z</time></trkpt><trkpt lat="59.5587730408" lon="31.2677550316"><ele>0.14</ele><time>2026-09-02T20:00:55Z</time></trkpt><trkpt lat="59.5587730408" lon="31.2677335739"><ele>0.14</ele><time>2026-09-02T20:00:58Z</time></trkpt><trkpt lat="59.5587730408" lon="31.2677121162"><ele>0.14</ele><time>2026-09-02T20:01:00Z</time></trkpt><trkpt lat="59.5587944984" lon="31.2676477432"><ele>0.14</ele><time>2026-09-02T20:01:03Z</time></trkpt><trkpt lat="59.5588159561" lon="31.2676048279"><ele>0.14</ele><time>2026-09-02T20:01:05Z</time></trkpt><trkpt lat="59.5588374138" lon="31.2676048279"><ele>0.14</ele><time>2026-09-02T20:01:08Z</time></trkpt><trkpt lat="59.5588588715" lon="31.2676048279"><ele>0.14</ele><time>2026-09-02T20:01:10Z</time></trkpt><trkpt lat="59.5588803291" lon="31.2676262856"><ele>0.14</ele><time>2026-09-02T20:01:13Z</time></trkpt><trkpt lat="59.5588803291" lon="31.2676262856"><ele>0.14</ele><time>2026-09-02T20:01:15Z</time></trkpt><trkpt lat="59.5588803291" lon="31.2676048279"><ele>0.14</ele><time>2026-09-02T20:01:18Z</time></trkpt><trkpt lat="59.5588803291" lon="31.2676048279"><ele>0.14</ele><time>2026-09-02T20:01:20Z</time></trkpt><trkpt lat="59.5588803291" lon="31.2676048279"><ele>0.14</ele><time>2026-09-02T20:01:23Z</time></trkpt><trkpt lat="59.5588803291" lon="31.2676262856"><ele>0.14</ele><time>2026-09-02T20:01:25Z</time></trkpt><trkpt lat="59.5588803291" lon="31.2676477432"><ele>0.14</ele><time>2026-09-02T20:01:28Z</time></trkpt><trkpt lat="59.5588803291" lon="31.2676692009"><ele>0.14</ele><time>2026-09-02T20:01:30Z</time></trkpt><trkpt lat="59.5588803291" lon="31.2677121162"><ele>0.14</ele><time>2026-09-02T20:01:33Z</time></trkpt><trkpt lat="59.5589017868" lon="31.2677335739"><ele>0.14</ele><time>2026-09-02T20:01:35Z</time></trkpt><trkpt lat="59.5588803291" lon="31.2677550316"><ele>0.14</ele><time>2026-09-02T20:01:38Z</time></trkpt><trkpt lat="59.5588803291" lon="31.2677550316"><ele>0.14</ele><time>2026-09-02T20:01:40Z</time></trkpt><trkpt lat="59.5588803291" lon="31.2677550316"><ele>0.14</ele><time>2026-09-02T20:01:43Z</time></trkpt><trkpt lat="59.5589017868" lon="31.2677550316"><ele>0.14</ele><time>2026-09-02T20:01:45Z</time></trkpt><trkpt lat="59.5589017868" lon="31.2677335739"><ele>0.14</ele><time>2026-09-02T20:01:48Z</time></trkpt><trkpt lat="59.5589017868" lon="31.2677335739"><ele>0.14</ele><time>2026-09-02T20:01:50Z</time></trkpt><trkpt lat="59.5589017868" lon="31.2677335739"><ele>0.14</ele><time>2026-09-02T20:01:53Z</time></trkpt><trkpt lat="59.5589232445" lon="31.2677121162"><ele>0.14</ele><time>2026-09-02T20:01:55Z</time></trkpt><trkpt lat="59.5589232445" lon="31.2677121162"><ele>0.14</ele><time>2026-09-02T20:01:58Z</time></trkpt><trkpt lat="59.5589447021" lon="31.2677121162"><ele>0.14</ele><time>2026-09-02T20:02:00Z</time></trkpt><trkpt lat="59.5589447021" lon="31.2677121162"><ele>0.14</ele><time>2026-09-02T20:02:03Z</time></trkpt><trkpt lat="59.5589447021" lon="31.2677121162"><ele>0.14</ele><time>2026-09-02T20:02:05Z</time></trkpt><trkpt lat="59.5589447021" lon="31.2677121162"><ele>0.14</ele><time>2026-09-02T20:02:08Z</time></trkpt><trkpt lat="59.5589447021" lon="31.2677121162"><ele>0.14</ele><time>2026-09-02T20:02:10Z</time></trkpt><trkpt lat="59.5589447021" lon="31.2677121162"><ele>0.14</ele><time>2026-09-02T20:02:13Z</time></trkpt><trkpt lat="59.5589447021" lon="31.2677121162"><ele>0.14</ele><time>2026-09-02T20:02:15Z</time></trkpt><trkpt lat="59.5589447021" lon="31.2677121162"><ele>0.14</ele><time>2026-09-02T20:02:18Z</time></trkpt><trkpt lat="59.5589447021" lon="31.2677121162"><ele>0.14</ele><time>2026-09-02T20:02:20Z</time></trkpt><trkpt lat="59.5589661598" lon="31.2677121162"><ele>0.14</ele><time>2026-09-02T20:02:23Z</time></trkpt><trkpt lat="59.5589661598" lon="31.2677121162"><ele>0.14</ele><time>2026-09-02T20:02:25Z</time></trkpt><trkpt lat="59.5589661598" lon="31.2677121162"><ele>0.14</ele><time>2026-09-02T20:02:28Z</time></trkpt><trkpt lat="59.5589876175" lon="31.2676906586"><ele>0.14</ele><time>2026-09-02T20:02:30Z</time></trkpt><trkpt lat="59.5590090752" lon="31.2677121162"><ele>0.14</ele><time>2026-09-02T20:02:33Z</time></trkpt><trkpt lat="59.5590090752" lon="31.2677121162"><ele>0.14</ele><time>2026-09-02T20:02:35Z</time></trkpt><trkpt lat="59.5590090752" lon="31.2677121162"><ele>0.14</ele><time>2026-09-02T20:02:38Z</time></trkpt><trkpt lat="59.5590090752" lon="31.2677121162"><ele>0.14</ele><time>2026-09-02T20:02:40Z</time></trkpt><trkpt lat="59.5590090752" lon="31.2677121162"><ele>0.14</ele><time>2026-09-02T20:02:43Z</time></trkpt><trkpt lat="59.5590090752" lon="31.2677121162"><ele>0.14</ele><time>2026-09-02T20:02:45Z</time></trkpt><trkpt lat="59.5590305328" lon="31.2677550316"><ele>0.14</ele><time>2026-09-02T20:02:48Z</time></trkpt><trkpt lat="59.5590305328" lon="31.2677764893"><ele>0.14</ele><time>2026-09-02T20:02:50Z</time></trkpt><trkpt lat="59.5590305328" lon="31.2678194046"><ele>0.14</ele><time>2026-09-02T20:02:53Z</time></trkpt><trkpt lat="59.5590305328" lon="31.2678408623"><ele>0.14</ele><time>2026-09-02T20:02:55Z</time></trkpt><trkpt lat="59.5590519905" lon="31.2678408623"><ele>0.14</ele><time>2026-09-02T20:02:58Z</time></trkpt><trkpt lat="59.5590519905" lon="31.2678623199"><ele>0.14</ele><time>2026-09-02T20:03:00Z</time></trkpt><trkpt lat="59.5590519905" lon="31.2678837776"><ele>0.14</ele><time>2026-09-02T20:03:03Z</time></trkpt><trkpt lat="59.5590519905" lon="31.2678837776"><ele>0.14</ele><time>2026-09-02T20:03:05Z</time></trkpt><trkpt lat="59.5590734482" lon="31.2678837776"><ele>0.14</ele><time>2026-09-02T20:03:08Z</time></trkpt><trkpt lat="59.5590734482" lon="31.2678837776"><ele>0.14</ele><time>2026-09-02T20:03:10Z</time></trkpt><trkpt lat="59.5590734482" lon="31.2678837776"><ele>0.14</ele><time>2026-09-02T20:03:13Z</time></trkpt><trkpt lat="59.5590734482" lon="31.2678837776"><ele>0.14</ele><time>2026-09-02T20:03:15Z</time></trkpt><trkpt lat="59.5590734482" lon="31.2678837776"><ele>0.14</ele><time>2026-09-02T20:03:18Z</time></trkpt><trkpt lat="59.5590519905" lon="31.2678837776"><ele>0.14</ele><time>2026-09-02T20:03:20Z</time></trkpt><trkpt lat="59.5590519905" lon="31.2678837776"><ele>0.14</ele><time>2026-09-02T20:03:23Z</time></trkpt><trkpt lat="59.5590519905" lon="31.2678837776"><ele>0.14</ele><time>2026-09-02T20:03:25Z</time></trkpt><trkpt lat="59.5590519905" lon="31.2678837776"><ele>0.14</ele><time>2026-09-02T20:03:28Z</time></trkpt><trkpt lat="59.5590519905" lon="31.2678837776"><ele>0.14</ele><time>2026-09-02T20:03:30Z</time></trkpt><trkpt lat="59.5590519905" lon="31.2677979469"><ele>0.14</ele><time>2026-09-02T20:03:33Z</time></trkpt><trkpt lat="59.5590519905" lon="31.2677550316"><ele>0.14</ele><time>2026-09-02T20:03:35Z</time></trkpt><trkpt lat="59.5590305328" lon="31.2676906586"><ele>0.14</ele><time>2026-09-02T20:03:38Z</time></trkpt><trkpt lat="59.5590305328" lon="31.2676477432"><ele>0.14</ele><time>2026-09-02T20:03:40Z</time></trkpt><trkpt lat="59.5590305328" lon="31.2676262856"><ele>0.14</ele><time>2026-09-02T20:03:43Z</time></trkpt><trkpt lat="59.5590519905" lon="31.2676262856"><ele>0.14</ele><time>2026-09-02T20:03:45Z</time></trkpt><trkpt lat="59.5590519905" lon="31.2676048279"><ele>0.14</ele><time>2026-09-02T20:03:48Z</time></trkpt><trkpt lat="59.5590519905" lon="31.2676048279"><ele>0.14</ele><time>2026-09-02T20:03:50Z</time></trkpt><trkpt lat="59.5590734482" lon="31.2675833702"><ele>0.14</ele><time>2026-09-02T20:03:53Z</time></trkpt><trkpt lat="59.5590734482" lon="31.2675833702"><ele>0.14</ele><time>2026-09-02T20:03:55Z</time></trkpt><trkpt lat="59.5590734482" lon="31.2675619125"><ele>0.14</ele><time>2026-09-02T20:03:58Z</time></trkpt><trkpt lat="59.5590949059" lon="31.2675619125"><ele>0.14</ele><time>2026-09-02T20:04:00Z</time></trkpt><trkpt lat="59.5590949059" lon="31.2675619125"><ele>0.14</ele><time>2026-09-02T20:04:03Z</time></trkpt><trkpt lat="59.5590949059" lon="31.2675619125"><ele>0.14</ele><time>2026-09-02T20:04:05Z</time></trkpt><trkpt lat="59.5590949059" lon="31.2675619125"><ele>0.14</ele><time>2026-09-02T20:04:08Z</time></trkpt><trkpt lat="59.5590949059" lon="31.2675404549"><ele>0.14</ele><time>2026-09-02T20:04:10Z</time></trkpt><trkpt lat="59.5590949059" lon="31.2675404549"><ele>0.14</ele><time>2026-09-02T20:04:13Z</time></trkpt><trkpt lat="59.5590734482" lon="31.2675189972"><ele>0.14</ele><time>2026-09-02T20:04:15Z</time></trkpt><trkpt lat="59.5590949059" lon="31.2675189972"><ele>0.14</ele><time>2026-09-02T20:04:18Z</time></trkpt><trkpt lat="59.5590734482" lon="31.2675189972"><ele>0.14</ele><time>2026-09-02T20:04:20Z</time></trkpt><trkpt lat="59.5590734482" lon="31.2675189972"><ele>0.14</ele><time>2026-09-02T20:04:23Z</time></trkpt><trkpt lat="59.5590734482" lon="31.2675189972"><ele>0.14</ele><time>2026-09-02T20:04:25Z</time></trkpt><trkpt lat="59.5590734482" lon="31.2675189972"><ele>0.14</ele><time>2026-09-02T20:04:28Z</time></trkpt><trkpt lat="59.5590734482" lon="31.2675189972"><ele>0.14</ele><time>2026-09-02T20:04:30Z</time></trkpt><trkpt lat="59.5590734482" lon="31.2675189972"><ele>0.14</ele><time>2026-09-02T20:04:33Z</time></trkpt><trkpt lat="59.5590734482" lon="31.2675189972"><ele>0.14</ele><time>2026-09-02T20:04:35Z</time></trkpt><trkpt lat="59.5590734482" lon="31.2675189972"><ele>0.14</ele><time>2026-09-02T20:04:38Z</time></trkpt><trkpt lat="59.5590734482" lon="31.2675189972"><ele>0.14</ele><time>2026-09-02T20:04:40Z</time></trkpt><trkpt lat="59.5590734482" lon="31.2675189972"><ele>0.14</ele><time>2026-09-02T20:04:43Z</time></trkpt><trkpt lat="59.5590734482" lon="31.2675189972"><ele>0.14</ele><time>2026-09-02T20:04:45Z</time></trkpt><trkpt lat="59.5590734482" lon="31.2675189972"><ele>0.14</ele><time>2026-09-02T20:04:48Z</time></trkpt><trkpt lat="59.5590734482" lon="31.2675189972"><ele>0.14</ele><time>2026-09-02T20:04:50Z</time></trkpt><trkpt lat="59.5590734482" lon="31.2675189972"><ele>0.14</ele><time>2026-09-02T20:04:53Z</time></trkpt><trkpt lat="59.5590734482" lon="31.2675189972"><ele>0.14</ele><time>2026-09-02T20:04:55Z</time></trkpt><trkpt lat="59.5590734482" lon="31.2675189972"><ele>0.14</ele><time>2026-09-02T20:04:58Z</time></trkpt><trkpt lat="59.5590949059" lon="31.2675189972"><ele>0.14</ele><time>2026-09-02T20:05:00Z</time></trkpt><trkpt lat="59.5590949059" lon="31.2675189972"><ele>0.14</ele><time>2026-09-02T20:05:03Z</time></trkpt><trkpt lat="59.5590949059" lon="31.2675189972"><ele>0.14</ele><time>2026-09-02T20:05:05Z</time></trkpt><trkpt lat="59.5590949059" lon="31.2675189972"><ele>0.14</ele><time>2026-09-02T20:05:08Z</time></trkpt><trkpt lat="59.5590949059" lon="31.2675189972"><ele>0.14</ele><time>2026-09-02T20:05:10Z</time></trkpt><trkpt lat="59.5590949059" lon="31.2675189972"><ele>0.14</ele><time>2026-09-02T20:05:13Z</time></trkpt><trkpt lat="59.5590949059" lon="31.2675189972"><ele>0.14</ele><time>2026-09-02T20:05:15Z</time></trkpt><trkpt lat="59.5590949059" lon="31.2675189972"><ele>0.14</ele><time>2026-09-02T20:05:18Z</time></trkpt><trkpt lat="59.5590949059" lon="31.2675189972"><ele>0.14</ele><time>2026-09-02T20:05:20Z</time></trkpt><trkpt lat="59.5590949059" lon="31.2675189972"><ele>0.14</ele><time>2026-09-02T20:05:23Z</time></trkpt><trkpt lat="59.5590949059" lon="31.2675189972"><ele>0.14</ele><time>2026-09-02T20:05:25Z</time></trkpt><trkpt lat="59.5590949059" lon="31.2675189972"><ele>0.14</ele><time>2026-09-02T20:05:28Z</time></trkpt><trkpt lat="59.5590949059" lon="31.2675189972"><ele>0.14</ele><time>2026-09-02T20:05:30Z</time></trkpt><trkpt lat="59.5590949059" lon="31.2674975395"><ele>0.14</ele><time>2026-09-02T20:05:33Z</time></trkpt><trkpt lat="59.5591163635" lon="31.2674975395"><ele>0.14</ele><time>2026-09-02T20:05:35Z</time></trkpt><trkpt lat="59.5591378212" lon="31.2674760818"><ele>0.14</ele><time>2026-09-02T20:05:38Z</time></trkpt><trkpt lat="59.5591592789" lon="31.2674546242"><ele>0.14</ele><time>2026-09-02T20:05:40Z</time></trkpt><trkpt lat="59.5591592789" lon="31.2674117088"><ele>0.14</ele><time>2026-09-02T20:05:43Z</time></trkpt><trkpt lat="59.5591378212" lon="31.2674117088"><ele>0.14</ele><time>2026-09-02T20:05:45Z</time></trkpt><trkpt lat="59.5591378212" lon="31.2673902512"><ele>0.14</ele><time>2026-09-02T20:05:48Z</time></trkpt><trkpt lat="59.5591163635" lon="31.2673902512"><ele>0.14</ele><time>2026-09-02T20:05:50Z</time></trkpt><trkpt lat="59.5591163635" lon="31.2673902512"><ele>0.14</ele><time>2026-09-02T20:05:53Z</time></trkpt><trkpt lat="59.5591378212" lon="31.2673902512"><ele>0.14</ele><time>2026-09-02T20:05:55Z</time></trkpt><trkpt lat="59.5591378212" lon="31.2673902512"><ele>0.14</ele><time>2026-09-02T20:05:58Z</time></trkpt><trkpt lat="59.5591378212" lon="31.2673902512"><ele>0.14</ele><time>2026-09-02T20:06:00Z</time></trkpt><trkpt lat="59.5591378212" lon="31.2673902512"><ele>0.14</ele><time>2026-09-02T20:06:03Z</time></trkpt><trkpt lat="59.5591378212" lon="31.2673902512"><ele>0.14</ele><time>2026-09-02T20:06:05Z</time></trkpt><trkpt lat="59.5591378212" lon="31.2673902512"><ele>0.14</ele><time>2026-09-02T20:06:08Z</time></trkpt><trkpt lat="59.5591378212" lon="31.2673902512"><ele>0.14</ele><time>2026-09-02T20:06:10Z</time></trkpt><trkpt lat="59.5591378212" lon="31.2673902512"><ele>0.14</ele><time>2026-09-02T20:06:13Z</time></trkpt><trkpt lat="59.5591378212" lon="31.2673902512"><ele>0.14</ele><time>2026-09-02T20:06:15Z</time></trkpt><trkpt lat="59.5591378212" lon="31.2673902512"><ele>0.14</ele><time>2026-09-02T20:06:18Z</time></trkpt><trkpt lat="59.5591378212" lon="31.2673902512"><ele>0.14</ele><time>2026-09-02T20:06:20Z</time></trkpt><trkpt lat="59.5591378212" lon="31.2673902512"><ele>0.14</ele><time>2026-09-02T20:06:23Z</time></trkpt><trkpt lat="59.5591378212" lon="31.2673902512"><ele>0.14</ele><time>2026-09-02T20:06:25Z</time></trkpt><trkpt lat="59.5591592789" lon="31.2673902512"><ele>0.14</ele><time>2026-09-02T20:06:28Z</time></trkpt><trkpt lat="59.5591592789" lon="31.2673902512"><ele>0.14</ele><time>2026-09-02T20:06:30Z</time></trkpt><trkpt lat="59.5591592789" lon="31.2673902512"><ele>0.14</ele><time>2026-09-02T20:06:33Z</time></trkpt><trkpt lat="59.5591592789" lon="31.2673902512"><ele>0.14</ele><time>2026-09-02T20:06:35Z</time></trkpt><trkpt lat="59.5591592789" lon="31.2673902512"><ele>0.14</ele><time>2026-09-02T20:06:38Z</time></trkpt><trkpt lat="59.5591592789" lon="31.2673902512"><ele>0.14</ele><time>2026-09-02T20:06:40Z</time></trkpt><trkpt lat="59.5591592789" lon="31.2673902512"><ele>0.14</ele><time>2026-09-02T20:06:43Z</time></trkpt><trkpt lat="59.5591592789" lon="31.2673902512"><ele>0.14</ele><time>2026-09-02T20:06:45Z</time></trkpt><trkpt lat="59.5591592789" lon="31.2673902512"><ele>0.14</ele><time>2026-09-02T20:06:48Z</time></trkpt><trkpt lat="59.5591592789" lon="31.2673902512"><ele>0.14</ele><time>2026-09-02T20:06:50Z</time></trkpt><trkpt lat="59.5591592789" lon="31.2673902512"><ele>0.14</ele><time>2026-09-02T20:06:53Z</time></trkpt><trkpt lat="59.5591592789" lon="31.2673902512"><ele>0.14</ele><time>2026-09-02T20:06:55Z</time></trkpt><trkpt lat="59.5591592789" lon="31.2673902512"><ele>0.14</ele><time>2026-09-02T20:06:58Z</time></trkpt><trkpt lat="59.5591378212" lon="31.2673687935"><ele>0.14</ele><time>2026-09-02T20:07:00Z</time></trkpt><trkpt lat="59.5591163635" lon="31.2673473358"><ele>0.14</ele><time>2026-09-02T20:07:03Z</time></trkpt><trkpt lat="59.5591378212" lon="31.2673258781"><ele>0.14</ele><time>2026-09-02T20:07:05Z</time></trkpt><trkpt lat="59.5591378212" lon="31.2673258781"><ele>0.14</ele><time>2026-09-02T20:07:08Z</time></trkpt><trkpt lat="59.5591378212" lon="31.2673044205"><ele>0.14</ele><time>2026-09-02T20:07:10Z</time></trkpt><trkpt lat="59.5591378212" lon="31.2672400475"><ele>0.14</ele><time>2026-09-02T20:07:13Z</time></trkpt><trkpt lat="59.5591378212" lon="31.2672185898"><ele>0.14</ele><time>2026-09-02T20:07:15Z</time></trkpt><trkpt lat="59.5591378212" lon="31.2672185898"><ele>0.14</ele><time>2026-09-02T20:07:18Z</time></trkpt><trkpt lat="59.5591378212" lon="31.2672185898"><ele>0.14</ele><time>2026-09-02T20:07:20Z</time></trkpt><trkpt lat="59.5591592789" lon="31.2671971321"><ele>0.14</ele><time>2026-09-02T20:07:23Z</time></trkpt><trkpt lat="59.5591592789" lon="31.2671971321"><ele>0.14</ele><time>2026-09-02T20:07:25Z</time></trkpt><trkpt lat="59.5591592789" lon="31.2671542168"><ele>0.14</ele><time>2026-09-02T20:07:28Z</time></trkpt><trkpt lat="59.5591592789" lon="31.2671542168"><ele>0.14</ele><time>2026-09-02T20:07:30Z</time></trkpt><trkpt lat="59.5591592789" lon="31.2671542168"><ele>0.14</ele><time>2026-09-02T20:07:33Z</time></trkpt><trkpt lat="59.5591378212" lon="31.2671542168"><ele>0.14</ele><time>2026-09-02T20:07:35Z</time></trkpt><trkpt lat="59.5591592789" lon="31.2671113014"><ele>0.14</ele><time>2026-09-02T20:07:38Z</time></trkpt><trkpt lat="59.5591592789" lon="31.2670898438"><ele>0.14</ele><time>2026-09-02T20:07:40Z</time></trkpt><trkpt lat="59.5591592789" lon="31.2670898438"><ele>0.14</ele><time>2026-09-02T20:07:43Z</time></trkpt><trkpt lat="59.5591592789" lon="31.2671113014"><ele>0.14</ele><time>2026-09-02T20:07:45Z</time></trkpt><trkpt lat="59.5591592789" lon="31.2671113014"><ele>0.14</ele><time>2026-09-02T20:07:48Z</time></trkpt><trkpt lat="59.5591592789" lon="31.2671113014"><ele>0.14</ele><time>2026-09-02T20:07:50Z</time></trkpt><trkpt lat="59.5591592789" lon="31.2670898438"><ele>0.14</ele><time>2026-09-02T20:07:53Z</time></trkpt><trkpt lat="59.5591592789" lon="31.2671113014"><ele>0.14</ele><time>2026-09-02T20:07:55Z</time></trkpt><trkpt lat="59.5591592789" lon="31.2671113014"><ele>0.14</ele><time>2026-09-02T20:07:58Z</time></trkpt><trkpt lat="59.5591592789" lon="31.2671113014"><ele>0.14</ele><time>2026-09-02T20:08:00Z</time></trkpt><trkpt lat="59.5591592789" lon="31.2671113014"><ele>0.14</ele><time>2026-09-02T20:08:03Z</time></trkpt><trkpt lat="59.5591592789" lon="31.2670683861"><ele>0.14</ele><time>2026-09-02T20:08:05Z</time></trkpt><trkpt lat="59.5591592789" lon="31.2670898438"><ele>0.14</ele><time>2026-09-02T20:08:08Z</time></trkpt><trkpt lat="59.5591592789" lon="31.2670898438"><ele>0.14</ele><time>2026-09-02T20:08:10Z</time></trkpt><trkpt lat="59.5591592789" lon="31.2670898438"><ele>0.14</ele><time>2026-09-02T20:08:13Z</time></trkpt><trkpt lat="59.5591592789" lon="31.2670898438"><ele>0.14</ele><time>2026-09-02T20:08:15Z</time></trkpt><trkpt lat="59.5591592789" lon="31.2670898438"><ele>0.14</ele><time>2026-09-02T20:08:18Z</time></trkpt><trkpt lat="59.5591592789" lon="31.2670898438"><ele>0.14</ele><time>2026-09-02T20:08:20Z</time></trkpt><trkpt lat="59.5591592789" lon="31.2670683861"><ele>0.14</ele><time>2026-09-02T20:08:23Z</time></trkpt><trkpt lat="59.5591592789" lon="31.2670683861"><ele>0.14</ele><time>2026-09-02T20:08:25Z</time></trkpt><trkpt lat="59.5591807365" lon="31.2670683861"><ele>0.14</ele><time>2026-09-02T20:08:28Z</time></trkpt><trkpt lat="59.5591807365" lon="31.2670683861"><ele>0.14</ele><time>2026-09-02T20:08:30Z</time></trkpt><trkpt lat="59.5592021942" lon="31.2670683861"><ele>0.14</ele><time>2026-09-02T20:08:33Z</time></trkpt><trkpt lat="59.5592236519" lon="31.2670898438"><ele>0.14</ele><time>2026-09-02T20:08:35Z</time></trkpt><trkpt lat="59.5592236519" lon="31.2671113014"><ele>0.14</ele><time>2026-09-02T20:08:38Z</time></trkpt><trkpt lat="59.5592451096" lon="31.2671113014"><ele>0.14</ele><time>2026-09-02T20:08:40Z</time></trkpt><trkpt lat="59.5592665672" lon="31.2671327591"><ele>0.14</ele><time>2026-09-02T20:08:43Z</time></trkpt><trkpt lat="59.5592880249" lon="31.2671542168"><ele>0.14</ele><time>2026-09-02T20:08:45Z</time></trkpt><trkpt lat="59.5592880249" lon="31.2671756744"><ele>0.14</ele><time>2026-09-02T20:08:48Z</time></trkpt><trkpt lat="59.5592880249" lon="31.2671756744"><ele>0.14</ele><time>2026-09-02T20:08:50Z</time></trkpt><trkpt lat="59.5592665672" lon="31.2671971321"><ele>0.14</ele><time>2026-09-02T20:08:53Z</time></trkpt><trkpt lat="59.5592665672" lon="31.2671756744"><ele>0.14</ele><time>2026-09-02T20:08:55Z</time></trkpt><trkpt lat="59.5592451096" lon="31.2671542168"><ele>0.14</ele><time>2026-09-02T20:08:58Z</time></trkpt><trkpt lat="59.5592451096" lon="31.2671756744"><ele>0.14</ele><time>2026-09-02T20:09:00Z</time></trkpt><trkpt lat="59.5592451096" lon="31.2671542168"><ele>0.14</ele><time>2026-09-02T20:09:03Z</time></trkpt><trkpt lat="59.5592451096" lon="31.2671542168"><ele>0.14</ele><time>2026-09-02T20:09:05Z</time></trkpt><trkpt lat="59.5592451096" lon="31.2671542168"><ele>0.14</ele><time>2026-09-02T20:09:08Z</time></trkpt><trkpt lat="59.5592451096" lon="31.2671327591"><ele>0.14</ele><time>2026-09-02T20:09:10Z</time></trkpt><trkpt lat="59.5592665672" lon="31.2670683861"><ele>0.14</ele><time>2026-09-02T20:09:13Z</time></trkpt><trkpt lat="59.5592665672" lon="31.2670469284"><ele>0.14</ele><time>2026-09-02T20:09:15Z</time></trkpt><trkpt lat="59.5592880249" lon="31.2670040131"><ele>0.14</ele><time>2026-09-02T20:09:18Z</time></trkpt><trkpt lat="59.5592880249" lon="31.2670040131"><ele>0.14</ele><time>2026-09-02T20:09:20Z</time></trkpt><trkpt lat="59.5592880249" lon="31.2670040131"><ele>0.14</ele><time>2026-09-02T20:09:23Z</time></trkpt><trkpt lat="59.5592665672" lon="31.2669825554"><ele>0.14</ele><time>2026-09-02T20:09:25Z</time></trkpt><trkpt lat="59.5592451096" lon="31.2669610977"><ele>0.14</ele><time>2026-09-02T20:09:28Z</time></trkpt><trkpt lat="59.5592451096" lon="31.2669396400"><ele>0.14</ele><time>2026-09-02T20:09:30Z</time></trkpt><trkpt lat="59.5592665672" lon="31.2669181824"><ele>0.14</ele><time>2026-09-02T20:09:33Z</time></trkpt><trkpt lat="59.5592451096" lon="31.2669181824"><ele>0.14</ele><time>2026-09-02T20:09:35Z</time></trkpt><trkpt lat="59.5592451096" lon="31.2669181824"><ele>0.14</ele><time>2026-09-02T20:09:38Z</time></trkpt><trkpt lat="59.5592236519" lon="31.2669396400"><ele>0.14</ele><time>2026-09-02T20:09:40Z</time></trkpt><trkpt lat="59.5592021942" lon="31.2669610977"><ele>0.14</ele><time>2026-09-02T20:09:43Z</time></trkpt><trkpt lat="59.5592021942" lon="31.2670254707"><ele>0.14</ele><time>2026-09-02T20:09:45Z</time></trkpt><trkpt lat="59.5591807365" lon="31.2670683861"><ele>0.14</ele><time>2026-09-02T20:09:48Z</time></trkpt><trkpt lat="59.5591807365" lon="31.2670683861"><ele>0.14</ele><time>2026-09-02T20:09:50Z</time></trkpt><trkpt lat="59.5591807365" lon="31.2670683861"><ele>0.14</ele><time>2026-09-02T20:09:53Z</time></trkpt><trkpt lat="59.5591592789" lon="31.2670469284"><ele>0.14</ele><time>2026-09-02T20:09:55Z</time></trkpt><trkpt lat="59.5591378212" lon="31.2670469284"><ele>0.14</ele><time>2026-09-02T20:09:58Z</time></trkpt><trkpt lat="59.5591378212" lon="31.2670469284"><ele>0.14</ele><time>2026-09-02T20:10:00Z</time></trkpt><trkpt lat="59.5591163635" lon="31.2670683861"><ele>0.14</ele><time>2026-09-02T20:10:03Z</time></trkpt><trkpt lat="59.5590949059" lon="31.2670683861"><ele>0.14</ele><time>2026-09-02T20:10:05Z</time></trkpt><trkpt lat="59.5590734482" lon="31.2670898438"><ele>0.14</ele><time>2026-09-02T20:10:08Z</time></trkpt><trkpt lat="59.5590734482" lon="31.2671113014"><ele>0.14</ele><time>2026-09-02T20:10:10Z</time></trkpt><trkpt lat="59.5590949059" lon="31.2670898438"><ele>0.14</ele><time>2026-09-02T20:10:13Z</time></trkpt><trkpt lat="59.5590949059" lon="31.2670683861"><ele>0.14</ele><time>2026-09-02T20:10:15Z</time></trkpt><trkpt lat="59.5591163635" lon="31.2670683861"><ele>0.14</ele><time>2026-09-02T20:10:18Z</time></trkpt><trkpt lat="59.5591378212" lon="31.2670898438"><ele>0.14</ele><time>2026-09-02T20:10:20Z</time></trkpt><trkpt lat="59.5591592789" lon="31.2670898438"><ele>0.14</ele><time>2026-09-02T20:10:23Z</time></trkpt><trkpt lat="59.5591378212" lon="31.2670898438"><ele>0.14</ele><time>2026-09-02T20:10:25Z</time></trkpt><trkpt lat="59.5591163635" lon="31.2671113014"><ele>0.14</ele><time>2026-09-02T20:10:28Z</time></trkpt><trkpt lat="59.5591163635" lon="31.2670898438"><ele>0.14</ele><time>2026-09-02T20:10:33Z</time></trkpt><trkpt lat="59.5591378212" lon="31.2670898438"><ele>0.14</ele><time>2026-09-02T20:10:35Z</time></trkpt><trkpt lat="59.5591378212" lon="31.2670898438"><ele>0.14</ele><time>2026-09-02T20:10:38Z</time></trkpt><trkpt lat="59.5591163635" lon="31.2670683861"><ele>0.14</ele><time>2026-09-02T20:10:40Z</time></trkpt><trkpt lat="59.5591378212" lon="31.2670469284"><ele>0.14</ele><time>2026-09-02T20:10:43Z</time></trkpt><trkpt lat="59.5591378212" lon="31.2670254707"><ele>0.14</ele><time>2026-09-02T20:10:45Z</time></trkpt><trkpt lat="59.5591163635" lon="31.2670254707"><ele>0.14</ele><time>2026-09-02T20:10:48Z</time></trkpt><trkpt lat="59.5590949059" lon="31.2670254707"><ele>0.14</ele><time>2026-09-02T20:10:50Z</time></trkpt><trkpt lat="59.5591163635" lon="31.2670254707"><ele>0.14</ele><time>2026-09-02T20:10:53Z</time></trkpt><trkpt lat="59.5591163635" lon="31.2670254707"><ele>0.14</ele><time>2026-09-02T20:10:55Z</time></trkpt><trkpt lat="59.5591163635" lon="31.2670469284"><ele>0.14</ele><time>2026-09-02T20:10:58Z</time></trkpt><trkpt lat="59.5591163635" lon="31.2670683861"><ele>0.14</ele><time>2026-09-02T20:11:00Z</time></trkpt><trkpt lat="59.5591163635" lon="31.2670898438"><ele>0.14</ele><time>2026-09-02T20:11:03Z</time></trkpt><trkpt lat="59.5591163635" lon="31.2670898438"><ele>0.14</ele><time>2026-09-02T20:11:05Z</time></trkpt><trkpt lat="59.5591163635" lon="31.2671113014"><ele>0.14</ele><time>2026-09-02T20:11:08Z</time></trkpt><trkpt lat="59.5591163635" lon="31.2671113014"><ele>0.14</ele><time>2026-09-02T20:11:10Z</time></trkpt><trkpt lat="59.5591163635" lon="31.2671113014"><ele>0.14</ele><time>2026-09-02T20:11:13Z</time></trkpt><trkpt lat="59.5591163635" lon="31.2671113014"><ele>0.14</ele><time>2026-09-02T20:11:15Z</time></trkpt><trkpt lat="59.5591378212" lon="31.2671113014"><ele>0.14</ele><time>2026-09-02T20:11:18Z</time></trkpt><trkpt lat="59.5591378212" lon="31.2671113014"><ele>0.14</ele><time>2026-09-02T20:11:20Z</time></trkpt><trkpt lat="59.5591592789" lon="31.2671113014"><ele>0.14</ele><time>2026-09-02T20:11:23Z</time></trkpt><trkpt lat="59.5591592789" lon="31.2671113014"><ele>0.14</ele><time>2026-09-02T20:11:25Z</time></trkpt><trkpt lat="59.5591807365" lon="31.2670898438"><ele>0.14</ele><time>2026-09-02T20:11:28Z</time></trkpt><trkpt lat="59.5592021942" lon="31.2670898438"><ele>0.14</ele><time>2026-09-02T20:11:30Z</time></trkpt><trkpt lat="59.5592021942" lon="31.2670683861"><ele>0.14</ele><time>2026-09-02T20:11:33Z</time></trkpt><trkpt lat="59.5592021942" lon="31.2670469284"><ele>0.14</ele><time>2026-09-02T20:11:35Z</time></trkpt><trkpt lat="59.5592021942" lon="31.2670469284"><ele>0.14</ele><time>2026-09-02T20:11:38Z</time></trkpt><trkpt lat="59.5592021942" lon="31.2670040131"><ele>0.14</ele><time>2026-09-02T20:11:40Z</time></trkpt><trkpt lat="59.5592021942" lon="31.2669825554"><ele>0.14</ele><time>2026-09-02T20:11:43Z</time></trkpt><trkpt lat="59.5592021942" lon="31.2669825554"><ele>0.14</ele><time>2026-09-02T20:11:45Z</time></trkpt><trkpt lat="59.5592021942" lon="31.2669825554"><ele>0.14</ele><time>2026-09-02T20:11:48Z</time></trkpt><trkpt lat="59.5592021942" lon="31.2670040131"><ele>0.14</ele><time>2026-09-02T20:11:50Z</time></trkpt><trkpt lat="59.5592021942" lon="31.2670469284"><ele>0.14</ele><time>2026-09-02T20:11:53Z</time></trkpt><trkpt lat="59.5592236519" lon="31.2670254707"><ele>0.14</ele><time>2026-09-02T20:11:55Z</time></trkpt><trkpt lat="59.5592236519" lon="31.2670254707"><ele>0.14</ele><time>2026-09-02T20:11:58Z</time></trkpt><trkpt lat="59.5592236519" lon="31.2670469284"><ele>0.14</ele><time>2026-09-02T20:12:00Z</time></trkpt><trkpt lat="59.5592236519" lon="31.2670254707"><ele>0.14</ele><time>2026-09-02T20:12:03Z</time></trkpt><trkpt lat="59.5592236519" lon="31.2670254707"><ele>0.14</ele><time>2026-09-02T20:12:05Z</time></trkpt><trkpt lat="59.5592451096" lon="31.2670040131"><ele>0.14</ele><time>2026-09-02T20:12:08Z</time></trkpt><trkpt lat="59.5592451096" lon="31.2669825554"><ele>0.14</ele><time>2026-09-02T20:12:10Z</time></trkpt><trkpt lat="59.5592451096" lon="31.2669825554"><ele>0.14</ele><time>2026-09-02T20:12:13Z</time></trkpt><trkpt lat="59.5592665672" lon="31.2669610977"><ele>0.14</ele><time>2026-09-02T20:12:15Z</time></trkpt><trkpt lat="59.5592665672" lon="31.2669610977"><ele>0.14</ele><time>2026-09-02T20:12:18Z</time></trkpt><trkpt lat="59.5592665672" lon="31.2669396400"><ele>0.14</ele><time>2026-09-02T20:12:20Z</time></trkpt><trkpt lat="59.5592880249" lon="31.2669181824"><ele>0.14</ele><time>2026-09-02T20:12:23Z</time></trkpt><trkpt lat="59.5592665672" lon="31.2669181824"><ele>0.14</ele><time>2026-09-02T20:12:25Z</time></trkpt><trkpt lat="59.5592880249" lon="31.2668752670"><ele>0.14</ele><time>2026-09-02T20:12:28Z</time></trkpt><trkpt lat="59.5592880249" lon="31.2668752670"><ele>0.14</ele><time>2026-09-02T20:12:30Z</time></trkpt><trkpt lat="59.5593094826" lon="31.2668323517"><ele>0.14</ele><time>2026-09-02T20:12:33Z</time></trkpt><trkpt lat="59.5593094826" lon="31.2668108940"><ele>0.14</ele><time>2026-09-02T20:12:35Z</time></trkpt><trkpt lat="59.5593094826" lon="31.2668323517"><ele>0.14</ele><time>2026-09-02T20:12:38Z</time></trkpt><trkpt lat="59.5593523979" lon="31.2668323517"><ele>0.14</ele><time>2026-09-02T20:12:40Z</time></trkpt><trkpt lat="59.5593523979" lon="31.2668323517"><ele>0.14</ele><time>2026-09-02T20:12:43Z</time></trkpt><trkpt lat="59.5593523979" lon="31.2668538094"><ele>0.14</ele><time>2026-09-02T20:12:45Z</time></trkpt><trkpt lat="59.5593523979" lon="31.2668752670"><ele>0.14</ele><time>2026-09-02T20:12:48Z</time></trkpt><trkpt lat="59.5593738556" lon="31.2669181824"><ele>0.14</ele><time>2026-09-02T20:12:50Z</time></trkpt><trkpt lat="59.5593738556" lon="31.2669396400"><ele>0.14</ele><time>2026-09-02T20:12:53Z</time></trkpt><trkpt lat="59.5593738556" lon="31.2669825554"><ele>0.14</ele><time>2026-09-02T20:12:55Z</time></trkpt><trkpt lat="59.5593738556" lon="31.2670040131"><ele>0.14</ele><time>2026-09-02T20:12:58Z</time></trkpt><trkpt lat="59.5593738556" lon="31.2670040131"><ele>0.14</ele><time>2026-09-02T20:13:00Z</time></trkpt><trkpt lat="59.5593738556" lon="31.2670040131"><ele>0.14</ele><time>2026-09-02T20:13:03Z</time></trkpt><trkpt lat="59.5593953133" lon="31.2670040131"><ele>0.14</ele><time>2026-09-02T20:13:05Z</time></trkpt><trkpt lat="59.5593738556" lon="31.2670040131"><ele>0.14</ele><time>2026-09-02T20:13:08Z</time></trkpt><trkpt lat="59.5593738556" lon="31.2670254707"><ele>0.14</ele><time>2026-09-02T20:13:10Z</time></trkpt><trkpt lat="59.5593738556" lon="31.2670254707"><ele>0.14</ele><time>2026-09-02T20:13:13Z</time></trkpt><trkpt lat="59.5593523979" lon="31.2670254707"><ele>0.14</ele><time>2026-09-02T20:13:15Z</time></trkpt><trkpt lat="59.5593523979" lon="31.2670469284"><ele>0.14</ele><time>2026-09-02T20:13:18Z</time></trkpt><trkpt lat="59.5593523979" lon="31.2670469284"><ele>0.14</ele><time>2026-09-02T20:13:20Z</time></trkpt><trkpt lat="59.5593523979" lon="31.2670683861"><ele>0.14</ele><time>2026-09-02T20:13:23Z</time></trkpt><trkpt lat="59.5593309402" lon="31.2670683861"><ele>0.14</ele><time>2026-09-02T20:13:25Z</time></trkpt><trkpt lat="59.5593309402" lon="31.2670683861"><ele>0.14</ele><time>2026-09-02T20:13:28Z</time></trkpt><trkpt lat="59.5593523979" lon="31.2670898438"><ele>0.14</ele><time>2026-09-02T20:13:30Z</time></trkpt><trkpt lat="59.5593738556" lon="31.2670898438"><ele>0.14</ele><time>2026-09-02T20:13:33Z</time></trkpt><trkpt lat="59.5593523979" lon="31.2670898438"><ele>0.14</ele><time>2026-09-02T20:13:35Z</time></trkpt><trkpt lat="59.5593523979" lon="31.2670898438"><ele>0.14</ele><time>2026-09-02T20:13:38Z</time></trkpt><trkpt lat="59.5593523979" lon="31.2670898438"><ele>0.14</ele><time>2026-09-02T20:13:40Z</time></trkpt><trkpt lat="59.5593523979" lon="31.2670898438"><ele>0.14</ele><time>2026-09-02T20:13:43Z</time></trkpt><trkpt lat="59.5593523979" lon="31.2670898438"><ele>0.14</ele><time>2026-09-02T20:13:45Z</time></trkpt><trkpt lat="59.5593523979" lon="31.2670898438"><ele>0.14</ele><time>2026-09-02T20:13:48Z</time></trkpt><trkpt lat="59.5593953133" lon="31.2670683861"><ele>0.14</ele><time>2026-09-02T20:13:50Z</time></trkpt><trkpt lat="59.5593953133" lon="31.2670898438"><ele>0.14</ele><time>2026-09-02T20:13:53Z</time></trkpt><trkpt lat="59.5594167709" lon="31.2671113014"><ele>0.14</ele><time>2026-09-02T20:13:55Z</time></trkpt><trkpt lat="59.5593953133" lon="31.2671113014"><ele>0.14</ele><time>2026-09-02T20:13:58Z</time></trkpt><trkpt lat="59.5594167709" lon="31.2670898438"><ele>0.14</ele><time>2026-09-02T20:14:00Z</time></trkpt><trkpt lat="59.5594167709" lon="31.2670898438"><ele>0.14</ele><time>2026-09-02T20:14:03Z</time></trkpt><trkpt lat="59.5594167709" lon="31.2670683861"><ele>0.14</ele><time>2026-09-02T20:14:05Z</time></trkpt><trkpt lat="59.5594382286" lon="31.2670469284"><ele>0.14</ele><time>2026-09-02T20:14:08Z</time></trkpt><trkpt lat="59.5594382286" lon="31.2670254707"><ele>0.14</ele><time>2026-09-02T20:14:10Z</time></trkpt><trkpt lat="59.5594167709" lon="31.2670040131"><ele>0.14</ele><time>2026-09-02T20:14:13Z</time></trkpt><trkpt lat="59.5594167709" lon="31.2670040131"><ele>0.14</ele><time>2026-09-02T20:14:15Z</time></trkpt><trkpt lat="59.5594167709" lon="31.2669825554"><ele>0.14</ele><time>2026-09-02T20:14:18Z</time></trkpt><trkpt lat="59.5594167709" lon="31.2669825554"><ele>0.14</ele><time>2026-09-02T20:14:20Z</time></trkpt><trkpt lat="59.5594167709" lon="31.2670040131"><ele>0.14</ele><time>2026-09-02T20:14:23Z</time></trkpt><trkpt lat="59.5593953133" lon="31.2670040131"><ele>0.14</ele><time>2026-09-02T20:14:25Z</time></trkpt><trkpt lat="59.5593953133" lon="31.2670040131"><ele>0.14</ele><time>2026-09-02T20:14:28Z</time></trkpt><trkpt lat="59.5593953133" lon="31.2670254707"><ele>0.14</ele><time>2026-09-02T20:14:30Z</time></trkpt><trkpt lat="59.5593953133" lon="31.2670254707"><ele>0.14</ele><time>2026-09-02T20:14:33Z</time></trkpt><trkpt lat="59.5593953133" lon="31.2670469284"><ele>0.14</ele><time>2026-09-02T20:14:35Z</time></trkpt><trkpt lat="59.5594167709" lon="31.2670683861"><ele>0.14</ele><time>2026-09-02T20:14:38Z</time></trkpt><trkpt lat="59.5594167709" lon="31.2670898438"><ele>0.14</ele><time>2026-09-02T20:14:40Z</time></trkpt><trkpt lat="59.5594382286" lon="31.2670898438"><ele>0.14</ele><time>2026-09-02T20:14:43Z</time></trkpt><trkpt lat="59.5594382286" lon="31.2670683861"><ele>0.14</ele><time>2026-09-02T20:14:45Z</time></trkpt><trkpt lat="59.5594382286" lon="31.2670898438"><ele>0.14</ele><time>2026-09-02T20:14:48Z</time></trkpt><trkpt lat="59.5594382286" lon="31.2670898438"><ele>0.14</ele><time>2026-09-02T20:14:50Z</time></trkpt><trkpt lat="59.5594382286" lon="31.2670898438"><ele>0.14</ele><time>2026-09-02T20:14:53Z</time></trkpt><trkpt lat="59.5594382286" lon="31.2670683861"><ele>0.14</ele><time>2026-09-02T20:14:55Z</time></trkpt><trkpt lat="59.5594382286" lon="31.2670683861"><ele>0.14</ele><time>2026-09-02T20:14:58Z</time></trkpt><trkpt lat="59.5594382286" lon="31.2670683861"><ele>0.14</ele><time>2026-09-02T20:15:00Z</time></trkpt><trkpt lat="59.5594382286" lon="31.2670683861"><ele>0.14</ele><time>2026-09-02T20:15:03Z</time></trkpt><trkpt lat="59.5594382286" lon="31.2670683861"><ele>0.14</ele><time>2026-09-02T20:15:05Z</time></trkpt><trkpt lat="59.5594382286" lon="31.2670683861"><ele>0.14</ele><time>2026-09-02T20:15:08Z</time></trkpt><trkpt lat="59.5594382286" lon="31.2670683861"><ele>0.14</ele><time>2026-09-02T20:15:10Z</time></trkpt><trkpt lat="59.5594382286" lon="31.2670683861"><ele>0.14</ele><time>2026-09-02T20:15:13Z</time></trkpt><trkpt lat="59.5594382286" lon="31.2670683861"><ele>0.14</ele><time>2026-09-02T20:15:15Z</time></trkpt><trkpt lat="59.5594382286" lon="31.2670683861"><ele>0.14</ele><time>2026-09-02T20:15:18Z</time></trkpt><trkpt lat="59.5594382286" lon="31.2670683861"><ele>0.14</ele><time>2026-09-02T20:15:20Z</time></trkpt><trkpt lat="59.5594382286" lon="31.2670683861"><ele>0.14</ele><time>2026-09-02T20:15:23Z</time></trkpt><trkpt lat="59.5594382286" lon="31.2670683861"><ele>0.14</ele><time>2026-09-02T20:15:25Z</time></trkpt><trkpt lat="59.5594382286" lon="31.2670683861"><ele>0.14</ele><time>2026-09-02T20:15:28Z</time></trkpt><trkpt lat="59.5594382286" lon="31.2670683861"><ele>0.14</ele><time>2026-09-02T20:15:30Z</time></trkpt><trkpt lat="59.5594382286" lon="31.2670469284"><ele>0.14</ele><time>2026-09-02T20:15:33Z</time></trkpt><trkpt lat="59.5594382286" lon="31.2670469284"><ele>0.14</ele><time>2026-09-02T20:15:35Z</time></trkpt><trkpt lat="59.5594596863" lon="31.2670469284"><ele>0.14</ele><time>2026-09-02T20:15:38Z</time></trkpt><trkpt lat="59.5594596863" lon="31.2670469284"><ele>0.14</ele><time>2026-09-02T20:15:40Z</time></trkpt><trkpt lat="59.5594596863" lon="31.2670469284"><ele>0.14</ele><time>2026-09-02T20:15:43Z</time></trkpt><trkpt lat="59.5594811440" lon="31.2670469284"><ele>0.14</ele><time>2026-09-02T20:15:45Z</time></trkpt><trkpt lat="59.5594811440" lon="31.2670469284"><ele>0.14</ele><time>2026-09-02T20:15:48Z</time></trkpt><trkpt lat="59.5594811440" lon="31.2670469284"><ele>0.14</ele><time>2026-09-02T20:15:50Z</time></trkpt><trkpt lat="59.5594811440" lon="31.2670469284"><ele>0.14</ele><time>2026-09-02T20:15:53Z</time></trkpt><trkpt lat="59.5594596863" lon="31.2670469284"><ele>0.14</ele><time>2026-09-02T20:15:55Z</time></trkpt><trkpt lat="59.5594596863" lon="31.2670469284"><ele>0.14</ele><time>2026-09-02T20:15:58Z</time></trkpt><trkpt lat="59.5594596863" lon="31.2670469284"><ele>0.14</ele><time>2026-09-02T20:16:00Z</time></trkpt><trkpt lat="59.5594596863" lon="31.2670469284"><ele>0.14</ele><time>2026-09-02T20:16:03Z</time></trkpt><trkpt lat="59.5594596863" lon="31.2670469284"><ele>0.14</ele><time>2026-09-02T20:16:05Z</time></trkpt><trkpt lat="59.5594596863" lon="31.2670469284"><ele>0.14</ele><time>2026-09-02T20:16:08Z</time></trkpt><trkpt lat="59.5594596863" lon="31.2670469284"><ele>0.14</ele><time>2026-09-02T20:16:10Z</time></trkpt><trkpt lat="59.5594596863" lon="31.2670469284"><ele>0.14</ele><time>2026-09-02T20:16:13Z</time></trkpt><trkpt lat="59.5594596863" lon="31.2670469284"><ele>0.14</ele><time>2026-09-02T20:16:15Z</time></trkpt><trkpt lat="59.5594596863" lon="31.2670469284"><ele>0.14</ele><time>2026-09-02T20:16:18Z</time></trkpt><trkpt lat="59.5594596863" lon="31.2670469284"><ele>0.14</ele><time>2026-09-02T20:16:20Z</time></trkpt><trkpt lat="59.5594382286" lon="31.2670469284"><ele>0.14</ele><time>2026-09-02T20:16:23Z</time></trkpt><trkpt lat="59.5594167709" lon="31.2670040131"><ele>0.14</ele><time>2026-09-02T20:16:25Z</time></trkpt><trkpt lat="59.5594167709" lon="31.2670040131"><ele>0.14</ele><time>2026-09-02T20:16:28Z</time></trkpt><trkpt lat="59.5593953133" lon="31.2670040131"><ele>0.14</ele><time>2026-09-02T20:16:30Z</time></trkpt><trkpt lat="59.5594167709" lon="31.2670254707"><ele>0.14</ele><time>2026-09-02T20:16:33Z</time></trkpt><trkpt lat="59.5593953133" lon="31.2670469284"><ele>0.14</ele><time>2026-09-02T20:16:35Z</time></trkpt><trkpt lat="59.5593953133" lon="31.2670469284"><ele>0.14</ele><time>2026-09-02T20:16:38Z</time></trkpt><trkpt lat="59.5594167709" lon="31.2670469284"><ele>0.14</ele><time>2026-09-02T20:16:40Z</time></trkpt><trkpt lat="59.5594167709" lon="31.2670469284"><ele>0.14</ele><time>2026-09-02T20:16:43Z</time></trkpt><trkpt lat="59.5593953133" lon="31.2670683861"><ele>0.14</ele><time>2026-09-02T20:16:45Z</time></trkpt><trkpt lat="59.5593738556" lon="31.2670898438"><ele>0.14</ele><time>2026-09-02T20:16:48Z</time></trkpt><trkpt lat="59.5593523979" lon="31.2671113014"><ele>0.14</ele><time>2026-09-02T20:16:50Z</time></trkpt><trkpt lat="59.5593738556" lon="31.2671113014"><ele>0.14</ele><time>2026-09-02T20:16:53Z</time></trkpt><trkpt lat="59.5593738556" lon="31.2671113014"><ele>0.14</ele><time>2026-09-02T20:16:55Z</time></trkpt><trkpt lat="59.5593953133" lon="31.2671327591"><ele>0.14</ele><time>2026-09-02T20:16:58Z</time></trkpt><trkpt lat="59.5593953133" lon="31.2671327591"><ele>0.14</ele><time>2026-09-02T20:17:00Z</time></trkpt><trkpt lat="59.5593738556" lon="31.2671113014"><ele>0.14</ele><time>2026-09-02T20:17:03Z</time></trkpt><trkpt lat="59.5593523979" lon="31.2670898438"><ele>0.14</ele><time>2026-09-02T20:17:05Z</time></trkpt><trkpt lat="59.5593523979" lon="31.2670254707"><ele>0.14</ele><time>2026-09-02T20:17:08Z</time></trkpt><trkpt lat="59.5593309402" lon="31.2669825554"><ele>0.14</ele><time>2026-09-02T20:17:10Z</time></trkpt><trkpt lat="59.5593094826" lon="31.2669610977"><ele>0.14</ele><time>2026-09-02T20:17:13Z</time></trkpt><trkpt lat="59.5593094826" lon="31.2669396400"><ele>0.14</ele><time>2026-09-02T20:17:15Z</time></trkpt><trkpt lat="59.5593094826" lon="31.2669181824"><ele>0.14</ele><time>2026-09-02T20:17:18Z</time></trkpt><trkpt lat="59.5592880249" lon="31.2668967247"><ele>0.14</ele><time>2026-09-02T20:17:20Z</time></trkpt><trkpt lat="59.5592665672" lon="31.2668967247"><ele>0.14</ele><time>2026-09-02T20:17:23Z</time></trkpt><trkpt lat="59.5592665672" lon="31.2668967247"><ele>0.14</ele><time>2026-09-02T20:17:25Z</time></trkpt><trkpt lat="59.5592451096" lon="31.2668967247"><ele>0.14</ele><time>2026-09-02T20:17:28Z</time></trkpt><trkpt lat="59.5592451096" lon="31.2668752670"><ele>0.14</ele><time>2026-09-02T20:17:30Z</time></trkpt><trkpt lat="59.5592451096" lon="31.2668538094"><ele>0.14</ele><time>2026-09-02T20:17:33Z</time></trkpt><trkpt lat="59.5592236519" lon="31.2668538094"><ele>0.14</ele><time>2026-09-02T20:17:35Z</time></trkpt><trkpt lat="59.5592236519" lon="31.2668538094"><ele>0.14</ele><time>2026-09-02T20:17:38Z</time></trkpt><trkpt lat="59.5592236519" lon="31.2668538094"><ele>0.14</ele><time>2026-09-02T20:17:40Z</time></trkpt><trkpt lat="59.5592236519" lon="31.2668538094"><ele>0.14</ele><time>2026-09-02T20:17:43Z</time></trkpt><trkpt lat="59.5592236519" lon="31.2668538094"><ele>0.14</ele><time>2026-09-02T20:17:45Z</time></trkpt><trkpt lat="59.5592236519" lon="31.2668538094"><ele>0.14</ele><time>2026-09-02T20:17:48Z</time></trkpt><trkpt lat="59.5592236519" lon="31.2668752670"><ele>0.14</ele><time>2026-09-02T20:17:50Z</time></trkpt><trkpt lat="59.5592236519" lon="31.2668752670"><ele>0.14</ele><time>2026-09-02T20:17:53Z</time></trkpt><trkpt lat="59.5592236519" lon="31.2668967247"><ele>0.14</ele><time>2026-09-02T20:17:55Z</time></trkpt><trkpt lat="59.5592236519" lon="31.2668967247"><ele>0.14</ele><time>2026-09-02T20:17:58Z</time></trkpt><trkpt lat="59.5592236519" lon="31.2668967247"><ele>0.14</ele><time>2026-09-02T20:18:00Z</time></trkpt><trkpt lat="59.5592236519" lon="31.2668967247"><ele>0.14</ele><time>2026-09-02T20:18:03Z</time></trkpt><trkpt lat="59.5592236519" lon="31.2668967247"><ele>0.14</ele><time>2026-09-02T20:18:05Z</time></trkpt><trkpt lat="59.5592236519" lon="31.2668967247"><ele>0.14</ele><time>2026-09-02T20:18:08Z</time></trkpt><trkpt lat="59.5592236519" lon="31.2668967247"><ele>0.14</ele><time>2026-09-02T20:18:10Z</time></trkpt><trkpt lat="59.5592236519" lon="31.2668967247"><ele>0.14</ele><time>2026-09-02T20:18:13Z</time></trkpt><trkpt lat="59.5592236519" lon="31.2668752670"><ele>0.14</ele><time>2026-09-02T20:18:15Z</time></trkpt><trkpt lat="59.5592236519" lon="31.2668752670"><ele>0.14</ele><time>2026-09-02T20:18:18Z</time></trkpt><trkpt lat="59.5592236519" lon="31.2668752670"><ele>0.14</ele><time>2026-09-02T20:18:20Z</time></trkpt><trkpt lat="59.5592236519" lon="31.2668752670"><ele>0.14</ele><time>2026-09-02T20:18:23Z</time></trkpt><trkpt lat="59.5592236519" lon="31.2668752670"><ele>0.14</ele><time>2026-09-02T20:18:25Z</time></trkpt><trkpt lat="59.5592236519" lon="31.2668323517"><ele>0.14</ele><time>2026-09-02T20:18:28Z</time></trkpt><trkpt lat="59.5592021942" lon="31.2667894363"><ele>0.14</ele><time>2026-09-02T20:18:30Z</time></trkpt><trkpt lat="59.5592021942" lon="31.2667679787"><ele>0.14</ele><time>2026-09-02T20:18:33Z</time></trkpt><trkpt lat="59.5591807365" lon="31.2667250633"><ele>0.14</ele><time>2026-09-02T20:18:35Z</time></trkpt><trkpt lat="59.5591807365" lon="31.2666821480"><ele>0.14</ele><time>2026-09-02T20:18:38Z</time></trkpt><trkpt lat="59.5591807365" lon="31.2666821480"><ele>0.14</ele><time>2026-09-02T20:18:40Z</time></trkpt><trkpt lat="59.5591592789" lon="31.2666821480"><ele>0.14</ele><time>2026-09-02T20:18:43Z</time></trkpt><trkpt lat="59.5591592789" lon="31.2666821480"><ele>0.14</ele><time>2026-09-02T20:18:45Z</time></trkpt><trkpt lat="59.5591378212" lon="31.2667036057"><ele>0.14</ele><time>2026-09-02T20:18:48Z</time></trkpt><trkpt lat="59.5591592789" lon="31.2667250633"><ele>0.14</ele><time>2026-09-02T20:18:50Z</time></trkpt><trkpt lat="59.5591378212" lon="31.2667250633"><ele>0.14</ele><time>2026-09-02T20:18:53Z</time></trkpt><trkpt lat="59.5591163635" lon="31.2667465210"><ele>0.14</ele><time>2026-09-02T20:18:55Z</time></trkpt><trkpt lat="59.5591378212" lon="31.2667465210"><ele>0.14</ele><time>2026-09-02T20:18:58Z</time></trkpt><trkpt lat="59.5591163635" lon="31.2667894363"><ele>0.14</ele><time>2026-09-02T20:19:00Z</time></trkpt><trkpt lat="59.5591163635" lon="31.2668108940"><ele>0.14</ele><time>2026-09-02T20:19:03Z</time></trkpt><trkpt lat="59.5591163635" lon="31.2668108940"><ele>0.14</ele><time>2026-09-02T20:19:05Z</time></trkpt><trkpt lat="59.5591163635" lon="31.2668108940"><ele>0.14</ele><time>2026-09-02T20:19:08Z</time></trkpt><trkpt lat="59.5591163635" lon="31.2667894363"><ele>0.14</ele><time>2026-09-02T20:19:10Z</time></trkpt><trkpt lat="59.5590949059" lon="31.2667894363"><ele>0.14</ele><time>2026-09-02T20:19:13Z</time></trkpt><trkpt lat="59.5590949059" lon="31.2667679787"><ele>0.14</ele><time>2026-09-02T20:19:15Z</time></trkpt><trkpt lat="59.5590734482" lon="31.2667250633"><ele>0.14</ele><time>2026-09-02T20:19:18Z</time></trkpt><trkpt lat="59.5590949059" lon="31.2667250633"><ele>0.14</ele><time>2026-09-02T20:19:20Z</time></trkpt><trkpt lat="59.5590519905" lon="31.2667036057"><ele>0.14</ele><time>2026-09-02T20:19:23Z</time></trkpt><trkpt lat="59.5590519905" lon="31.2666821480"><ele>0.14</ele><time>2026-09-02T20:19:25Z</time></trkpt><trkpt lat="59.5590305328" lon="31.2666821480"><ele>0.14</ele><time>2026-09-02T20:19:28Z</time></trkpt><trkpt lat="59.5590305328" lon="31.2666606903"><ele>0.14</ele><time>2026-09-02T20:19:30Z</time></trkpt><trkpt lat="59.5590305328" lon="31.2666606903"><ele>0.14</ele><time>2026-09-02T20:19:33Z</time></trkpt><trkpt lat="59.5590305328" lon="31.2666392326"><ele>0.14</ele><time>2026-09-02T20:19:35Z</time></trkpt><trkpt lat="59.5590519905" lon="31.2666177750"><ele>0.14</ele><time>2026-09-02T20:19:38Z</time></trkpt><trkpt lat="59.5590734482" lon="31.2666606903"><ele>0.14</ele><time>2026-09-02T20:19:40Z</time></trkpt><trkpt lat="59.5590734482" lon="31.2666392326"><ele>0.14</ele><time>2026-09-02T20:19:43Z</time></trkpt><trkpt lat="59.5590949059" lon="31.2666392326"><ele>0.14</ele><time>2026-09-02T20:19:45Z</time></trkpt><trkpt lat="59.5590734482" lon="31.2666392326"><ele>0.14</ele><time>2026-09-02T20:19:48Z</time></trkpt><trkpt lat="59.5591163635" lon="31.2666606903"><ele>0.14</ele><time>2026-09-02T20:19:50Z</time></trkpt><trkpt lat="59.5591163635" lon="31.2666392326"><ele>0.14</ele><time>2026-09-02T20:19:53Z</time></trkpt><trkpt lat="59.5591378212" lon="31.2666392326"><ele>0.14</ele><time>2026-09-02T20:19:55Z</time></trkpt><trkpt lat="59.5591807365" lon="31.2666177750"><ele>0.14</ele><time>2026-09-02T20:19:58Z</time></trkpt><trkpt lat="59.5592236519" lon="31.2666177750"><ele>0.14</ele><time>2026-09-02T20:20:00Z</time></trkpt><trkpt lat="59.5592451096" lon="31.2665748596"><ele>0.14</ele><time>2026-09-02T20:20:03Z</time></trkpt><trkpt lat="59.5592451096" lon="31.2665534019"><ele>0.14</ele><time>2026-09-02T20:20:05Z</time></trkpt><trkpt lat="59.5592451096" lon="31.2665748596"><ele>0.14</ele><time>2026-09-02T20:20:08Z</time></trkpt><trkpt lat="59.5592665672" lon="31.2665748596"><ele>0.14</ele><time>2026-09-02T20:20:10Z</time></trkpt><trkpt lat="59.5592665672" lon="31.2665534019"><ele>0.14</ele><time>2026-09-02T20:20:13Z</time></trkpt><trkpt lat="59.5592665672" lon="31.2665534019"><ele>0.14</ele><time>2026-09-02T20:20:15Z</time></trkpt><trkpt lat="59.5592665672" lon="31.2665319443"><ele>0.14</ele><time>2026-09-02T20:20:18Z</time></trkpt><trkpt lat="59.5592665672" lon="31.2665319443"><ele>0.14</ele><time>2026-09-02T20:20:20Z</time></trkpt><trkpt lat="59.5592880249" lon="31.2665104866"><ele>0.14</ele><time>2026-09-02T20:20:23Z</time></trkpt><trkpt lat="59.5592880249" lon="31.2664890289"><ele>0.14</ele><time>2026-09-02T20:20:25Z</time></trkpt><trkpt lat="59.5592665672" lon="31.2664675713"><ele>0.14</ele><time>2026-09-02T20:20:28Z</time></trkpt><trkpt lat="59.5592665672" lon="31.2664675713"><ele>0.14</ele><time>2026-09-02T20:20:30Z</time></trkpt><trkpt lat="59.5592880249" lon="31.2664246559"><ele>0.14</ele><time>2026-09-02T20:20:33Z</time></trkpt><trkpt lat="59.5593094826" lon="31.2664031982"><ele>0.14</ele><time>2026-09-02T20:20:35Z</time></trkpt><trkpt lat="59.5593309402" lon="31.2663817406"><ele>0.14</ele><time>2026-09-02T20:20:38Z</time></trkpt><trkpt lat="59.5593309402" lon="31.2663388252"><ele>0.14</ele><time>2026-09-02T20:20:40Z</time></trkpt><trkpt lat="59.5593523979" lon="31.2663388252"><ele>0.14</ele><time>2026-09-02T20:20:43Z</time></trkpt><trkpt lat="59.5593953133" lon="31.2663388252"><ele>0.14</ele><time>2026-09-02T20:20:45Z</time></trkpt><trkpt lat="59.5594167709" lon="31.2663173676"><ele>0.14</ele><time>2026-09-02T20:20:48Z</time></trkpt><trkpt lat="59.5594167709" lon="31.2663173676"><ele>0.14</ele><time>2026-09-02T20:20:50Z</time></trkpt><trkpt lat="59.5594167709" lon="31.2662744522"><ele>0.14</ele><time>2026-09-02T20:20:53Z</time></trkpt><trkpt lat="59.5594382286" lon="31.2662315369"><ele>0.14</ele><time>2026-09-02T20:20:55Z</time></trkpt><trkpt lat="59.5594382286" lon="31.2662315369"><ele>0.14</ele><time>2026-09-02T20:20:58Z</time></trkpt><trkpt lat="59.5594167709" lon="31.2662315369"><ele>0.14</ele><time>2026-09-02T20:21:00Z</time></trkpt><trkpt lat="59.5594167709" lon="31.2662315369"><ele>0.14</ele><time>2026-09-02T20:21:03Z</time></trkpt><trkpt lat="59.5594382286" lon="31.2662315369"><ele>0.14</ele><time>2026-09-02T20:21:05Z</time></trkpt><trkpt lat="59.5594382286" lon="31.2661886215"><ele>0.14</ele><time>2026-09-02T20:21:08Z</time></trkpt><trkpt lat="59.5594596863" lon="31.2661671638"><ele>0.14</ele><time>2026-09-02T20:21:10Z</time></trkpt><trkpt lat="59.5594596863" lon="31.2661457062"><ele>0.14</ele><time>2026-09-02T20:21:13Z</time></trkpt><trkpt lat="59.5594811440" lon="31.2661027908"><ele>0.14</ele><time>2026-09-02T20:21:15Z</time></trkpt><trkpt lat="59.5594811440" lon="31.2660598755"><ele>0.14</ele><time>2026-09-02T20:21:18Z</time></trkpt><trkpt lat="59.5595026016" lon="31.2660813332"><ele>0.14</ele><time>2026-09-02T20:21:20Z</time></trkpt><trkpt lat="59.5594811440" lon="31.2660813332"><ele>0.14</ele><time>2026-09-02T20:21:23Z</time></trkpt><trkpt lat="59.5594596863" lon="31.2660598755"><ele>0.14</ele><time>2026-09-02T20:21:25Z</time></trkpt><trkpt lat="59.5594596863" lon="31.2660169601"><ele>0.14</ele><time>2026-09-02T20:21:28Z</time></trkpt><trkpt lat="59.5594811440" lon="31.2659955025"><ele>0.14</ele><time>2026-09-02T20:21:30Z</time></trkpt><trkpt lat="59.5595026016" lon="31.2659740448"><ele>0.14</ele><time>2026-09-02T20:21:33Z</time></trkpt><trkpt lat="59.5595240593" lon="31.2659525871"><ele>0.14</ele><time>2026-09-02T20:21:35Z</time></trkpt><trkpt lat="59.5595240593" lon="31.2659311295"><ele>0.14</ele><time>2026-09-02T20:21:38Z</time></trkpt><trkpt lat="59.5595455170" lon="31.2659311295"><ele>0.14</ele><time>2026-09-02T20:21:40Z</time></trkpt><trkpt lat="59.5595455170" lon="31.2659311295"><ele>0.14</ele><time>2026-09-02T20:21:43Z</time></trkpt><trkpt lat="59.5595669746" lon="31.2659525871"><ele>0.14</ele><time>2026-09-02T20:21:45Z</time></trkpt><trkpt lat="59.5595669746" lon="31.2659740448"><ele>0.14</ele><time>2026-09-02T20:21:48Z</time></trkpt><trkpt lat="59.5595884323" lon="31.2659955025"><ele>0.14</ele><time>2026-09-02T20:21:50Z</time></trkpt><trkpt lat="59.5595884323" lon="31.2659955025"><ele>0.14</ele><time>2026-09-02T20:21:53Z</time></trkpt><trkpt lat="59.5596098900" lon="31.2659740448"><ele>0.14</ele><time>2026-09-02T20:21:55Z</time></trkpt><trkpt lat="59.5596098900" lon="31.2659740448"><ele>0.14</ele><time>2026-09-02T20:21:58Z</time></trkpt><trkpt lat="59.5596313477" lon="31.2659740448"><ele>0.14</ele><time>2026-09-02T20:22:00Z</time></trkpt><trkpt lat="59.5596313477" lon="31.2659525871"><ele>0.14</ele><time>2026-09-02T20:22:03Z</time></trkpt><trkpt lat="59.5596313477" lon="31.2659525871"><ele>0.14</ele><time>2026-09-02T20:22:05Z</time></trkpt><trkpt lat="59.5596528053" lon="31.2659311295"><ele>0.14</ele><time>2026-09-02T20:22:08Z</time></trkpt><trkpt lat="59.5596528053" lon="31.2659096718"><ele>0.14</ele><time>2026-09-02T20:22:10Z</time></trkpt><trkpt lat="59.5596528053" lon="31.2659096718"><ele>0.14</ele><time>2026-09-02T20:22:13Z</time></trkpt><trkpt lat="59.5596742630" lon="31.2658882141"><ele>0.14</ele><time>2026-09-02T20:22:15Z</time></trkpt><trkpt lat="59.5597171783" lon="31.2659096718"><ele>0.14</ele><time>2026-09-02T20:22:18Z</time></trkpt><trkpt lat="59.5597386360" lon="31.2659311295"><ele>0.14</ele><time>2026-09-02T20:22:20Z</time></trkpt><trkpt lat="59.5597600937" lon="31.2659740448"><ele>0.14</ele><time>2026-09-02T20:22:23Z</time></trkpt><trkpt lat="59.5597600937" lon="31.2659740448"><ele>0.14</ele><time>2026-09-02T20:22:25Z</time></trkpt><trkpt lat="59.5597600937" lon="31.2659955025"><ele>0.14</ele><time>2026-09-02T20:22:28Z</time></trkpt><trkpt lat="59.5597600937" lon="31.2660384178"><ele>0.14</ele><time>2026-09-02T20:22:30Z</time></trkpt><trkpt lat="59.5597386360" lon="31.2660813332"><ele>0.14</ele><time>2026-09-02T20:22:33Z</time></trkpt><trkpt lat="59.5597171783" lon="31.2660813332"><ele>0.14</ele><time>2026-09-02T20:22:35Z</time></trkpt><trkpt lat="59.5596957207" lon="31.2660813332"><ele>0.14</ele><time>2026-09-02T20:22:38Z</time></trkpt><trkpt lat="59.5596957207" lon="31.2660813332"><ele>0.14</ele><time>2026-09-02T20:22:40Z</time></trkpt><trkpt lat="59.5596742630" lon="31.2660813332"><ele>0.14</ele><time>2026-09-02T20:22:43Z</time></trkpt><trkpt lat="59.5596742630" lon="31.2660813332"><ele>0.14</ele><time>2026-09-02T20:22:45Z</time></trkpt><trkpt lat="59.5596957207" lon="31.2660813332"><ele>0.14</ele><time>2026-09-02T20:22:48Z</time></trkpt><trkpt lat="59.5596957207" lon="31.2660813332"><ele>0.14</ele><time>2026-09-02T20:22:50Z</time></trkpt><trkpt lat="59.5596957207" lon="31.2660813332"><ele>0.14</ele><time>2026-09-02T20:22:53Z</time></trkpt><trkpt lat="59.5596957207" lon="31.2660813332"><ele>0.14</ele><time>2026-09-02T20:22:55Z</time></trkpt><trkpt lat="59.5596957207" lon="31.2660813332"><ele>0.14</ele><time>2026-09-02T20:22:58Z</time></trkpt><trkpt lat="59.5596957207" lon="31.2660813332"><ele>0.14</ele><time>2026-09-02T20:23:00Z</time></trkpt><trkpt lat="59.5596957207" lon="31.2660813332"><ele>0.14</ele><time>2026-09-02T20:23:03Z</time></trkpt><trkpt lat="59.5596957207" lon="31.2660813332"><ele>0.14</ele><time>2026-09-02T20:23:05Z</time></trkpt><trkpt lat="59.5596742630" lon="31.2661671638"><ele>0.14</ele><time>2026-09-02T20:23:08Z</time></trkpt><trkpt lat="59.5596742630" lon="31.2662100792"><ele>0.14</ele><time>2026-09-02T20:23:10Z</time></trkpt><trkpt lat="59.5596313477" lon="31.2662959099"><ele>0.14</ele><time>2026-09-02T20:23:13Z</time></trkpt><trkpt lat="59.5596098900" lon="31.2663173676"><ele>0.14</ele><time>2026-09-02T20:23:15Z</time></trkpt><trkpt lat="59.5596098900" lon="31.2663173676"><ele>0.14</ele><time>2026-09-02T20:23:18Z</time></trkpt><trkpt lat="59.5595884323" lon="31.2663173676"><ele>0.14</ele><time>2026-09-02T20:23:20Z</time></trkpt><trkpt lat="59.5595884323" lon="31.2663388252"><ele>0.14</ele><time>2026-09-02T20:23:23Z</time></trkpt><trkpt lat="59.5595884323" lon="31.2663602829"><ele>0.14</ele><time>2026-09-02T20:23:25Z</time></trkpt><trkpt lat="59.5595884323" lon="31.2663817406"><ele>0.14</ele><time>2026-09-02T20:23:28Z</time></trkpt><trkpt lat="59.5595884323" lon="31.2663602829"><ele>0.14</ele><time>2026-09-02T20:23:30Z</time></trkpt><trkpt lat="59.5595884323" lon="31.2663388252"><ele>0.14</ele><time>2026-09-02T20:23:33Z</time></trkpt><trkpt lat="59.5595669746" lon="31.2663388252"><ele>0.14</ele><time>2026-09-02T20:23:35Z</time></trkpt><trkpt lat="59.5595884323" lon="31.2663388252"><ele>0.14</ele><time>2026-09-02T20:23:38Z</time></trkpt><trkpt lat="59.5595884323" lon="31.2663388252"><ele>0.14</ele><time>2026-09-02T20:23:40Z</time></trkpt><trkpt lat="59.5595884323" lon="31.2663388252"><ele>0.14</ele><time>2026-09-02T20:23:43Z</time></trkpt><trkpt lat="59.5595884323" lon="31.2663388252"><ele>0.14</ele><time>2026-09-02T20:23:45Z</time></trkpt><trkpt lat="59.5595884323" lon="31.2663388252"><ele>0.14</ele><time>2026-09-02T20:23:48Z</time></trkpt><trkpt lat="59.5595884323" lon="31.2663388252"><ele>0.14</ele><time>2026-09-02T20:23:50Z</time></trkpt><trkpt lat="59.5595884323" lon="31.2663388252"><ele>0.14</ele><time>2026-09-02T20:23:53Z</time></trkpt><trkpt lat="59.5595884323" lon="31.2663602829"><ele>0.14</ele><time>2026-09-02T20:23:55Z</time></trkpt><trkpt lat="59.5595884323" lon="31.2663602829"><ele>0.14</ele><time>2026-09-02T20:23:58Z</time></trkpt><trkpt lat="59.5595884323" lon="31.2663602829"><ele>0.14</ele><time>2026-09-02T20:24:00Z</time></trkpt><trkpt lat="59.5595884323" lon="31.2663602829"><ele>0.14</ele><time>2026-09-02T20:24:03Z</time></trkpt><trkpt lat="59.5595884323" lon="31.2663602829"><ele>0.14</ele><time>2026-09-02T20:24:05Z</time></trkpt><trkpt lat="59.5595884323" lon="31.2663602829"><ele>0.14</ele><time>2026-09-02T20:24:08Z</time></trkpt><trkpt lat="59.5595884323" lon="31.2663602829"><ele>0.14</ele><time>2026-09-02T20:24:10Z</time></trkpt><trkpt lat="59.5595669746" lon="31.2663602829"><ele>0.14</ele><time>2026-09-02T20:24:13Z</time></trkpt><trkpt lat="59.5595669746" lon="31.2663602829"><ele>0.14</ele><time>2026-09-02T20:24:15Z</time></trkpt><trkpt lat="59.5595669746" lon="31.2663602829"><ele>0.14</ele><time>2026-09-02T20:24:18Z</time></trkpt><trkpt lat="59.5595669746" lon="31.2663602829"><ele>0.14</ele><time>2026-09-02T20:24:20Z</time></trkpt><trkpt lat="59.5595669746" lon="31.2663602829"><ele>0.14</ele><time>2026-09-02T20:24:23Z</time></trkpt><trkpt lat="59.5595884323" lon="31.2663602829"><ele>0.14</ele><time>2026-09-02T20:24:25Z</time></trkpt><trkpt lat="59.5595884323" lon="31.2663602829"><ele>0.14</ele><time>2026-09-02T20:24:28Z</time></trkpt><trkpt lat="59.5595884323" lon="31.2663602829"><ele>0.14</ele><time>2026-09-02T20:24:30Z</time></trkpt><trkpt lat="59.5595884323" lon="31.2663602829"><ele>0.14</ele><time>2026-09-02T20:24:33Z</time></trkpt><trkpt lat="59.5595884323" lon="31.2663602829"><ele>0.14</ele><time>2026-09-02T20:24:35Z</time></trkpt><trkpt lat="59.5595884323" lon="31.2663602829"><ele>0.14</ele><time>2026-09-02T20:24:38Z</time></trkpt><trkpt lat="59.5595884323" lon="31.2663602829"><ele>0.14</ele><time>2026-09-02T20:24:40Z</time></trkpt><trkpt lat="59.5595884323" lon="31.2663602829"><ele>0.14</ele><time>2026-09-02T20:24:43Z</time></trkpt><trkpt lat="59.5595884323" lon="31.2663602829"><ele>0.14</ele><time>2026-09-02T20:24:45Z</time></trkpt><trkpt lat="59.5595884323" lon="31.2663602829"><ele>0.14</ele><time>2026-09-02T20:24:48Z</time></trkpt><trkpt lat="59.5595884323" lon="31.2663602829"><ele>0.14</ele><time>2026-09-02T20:24:50Z</time></trkpt><trkpt lat="59.5595884323" lon="31.2663602829"><ele>0.14</ele><time>2026-09-02T20:24:53Z</time></trkpt><trkpt lat="59.5595884323" lon="31.2663602829"><ele>0.14</ele><time>2026-09-02T20:24:55Z</time></trkpt><trkpt lat="59.5596098900" lon="31.2663602829"><ele>0.14</ele><time>2026-09-02T20:24:58Z</time></trkpt><trkpt lat="59.5596098900" lon="31.2663602829"><ele>0.14</ele><time>2026-09-02T20:25:00Z</time></trkpt><trkpt lat="59.5596098900" lon="31.2663602829"><ele>0.14</ele><time>2026-09-02T20:25:03Z</time></trkpt><trkpt lat="59.5596098900" lon="31.2663602829"><ele>0.14</ele><time>2026-09-02T20:25:05Z</time></trkpt><trkpt lat="59.5596098900" lon="31.2663388252"><ele>0.14</ele><time>2026-09-02T20:25:08Z</time></trkpt><trkpt lat="59.5596313477" lon="31.2662959099"><ele>0.14</ele><time>2026-09-02T20:25:10Z</time></trkpt><trkpt lat="59.5596313477" lon="31.2662959099"><ele>0.14</ele><time>2026-09-02T20:25:13Z</time></trkpt><trkpt lat="59.5596742630" lon="31.2662744522"><ele>0.14</ele><time>2026-09-02T20:25:15Z</time></trkpt><trkpt lat="59.5596957207" lon="31.2662529945"><ele>0.14</ele><time>2026-09-02T20:25:18Z</time></trkpt><trkpt lat="59.5597386360" lon="31.2662744522"><ele>0.14</ele><time>2026-09-02T20:25:20Z</time></trkpt><trkpt lat="59.5597386360" lon="31.2662744522"><ele>0.14</ele><time>2026-09-02T20:25:23Z</time></trkpt><trkpt lat="59.5597600937" lon="31.2662959099"><ele>0.14</ele><time>2026-09-02T20:25:25Z</time></trkpt><trkpt lat="59.5597600937" lon="31.2662529945"><ele>0.14</ele><time>2026-09-02T20:25:28Z</time></trkpt><trkpt lat="59.5597600937" lon="31.2662315369"><ele>0.14</ele><time>2026-09-02T20:25:30Z</time></trkpt><trkpt lat="59.5597600937" lon="31.2662100792"><ele>0.14</ele><time>2026-09-02T20:25:33Z</time></trkpt><trkpt lat="59.5597386360" lon="31.2662100792"><ele>0.14</ele><time>2026-09-02T20:25:35Z</time></trkpt><trkpt lat="59.5597386360" lon="31.2661671638"><ele>0.14</ele><time>2026-09-02T20:25:38Z</time></trkpt><trkpt lat="59.5597386360" lon="31.2661457062"><ele>0.14</ele><time>2026-09-02T20:25:40Z</time></trkpt><trkpt lat="59.5597386360" lon="31.2661671638"><ele>0.14</ele><time>2026-09-02T20:25:43Z</time></trkpt><trkpt lat="59.5597171783" lon="31.2661457062"><ele>0.14</ele><time>2026-09-02T20:25:45Z</time></trkpt><trkpt lat="59.5597171783" lon="31.2661457062"><ele>0.14</ele><time>2026-09-02T20:25:48Z</time></trkpt><trkpt lat="59.5597171783" lon="31.2661242485"><ele>0.14</ele><time>2026-09-02T20:25:50Z</time></trkpt><trkpt lat="59.5597386360" lon="31.2660384178"><ele>0.14</ele><time>2026-09-02T20:25:53Z</time></trkpt><trkpt lat="59.5597815514" lon="31.2659740448"><ele>0.14</ele><time>2026-09-02T20:25:55Z</time></trkpt><trkpt lat="59.5598030090" lon="31.2659311295"><ele>0.14</ele><time>2026-09-02T20:25:58Z</time></trkpt><trkpt lat="59.5598244667" lon="31.2658882141"><ele>0.14</ele><time>2026-09-02T20:26:00Z</time></trkpt><trkpt lat="59.5598459244" lon="31.2658238411"><ele>0.14</ele><time>2026-09-02T20:26:03Z</time></trkpt><trkpt lat="59.5598459244" lon="31.2657809258"><ele>0.14</ele><time>2026-09-02T20:26:05Z</time></trkpt><trkpt lat="59.5598673820" lon="31.2657380104"><ele>0.14</ele><time>2026-09-02T20:26:08Z</time></trkpt><trkpt lat="59.5598888397" lon="31.2657380104"><ele>0.14</ele><time>2026-09-02T20:26:10Z</time></trkpt><trkpt lat="59.5598888397" lon="31.2656950951"><ele>0.14</ele><time>2026-09-02T20:26:13Z</time></trkpt><trkpt lat="59.5599102974" lon="31.2656950951"><ele>0.14</ele><time>2026-09-02T20:26:15Z</time></trkpt><trkpt lat="59.5599102974" lon="31.2656736374"><ele>0.14</ele><time>2026-09-02T20:26:18Z</time></trkpt><trkpt lat="59.5599102974" lon="31.2656736374"><ele>0.14</ele><time>2026-09-02T20:26:20Z</time></trkpt><trkpt lat="59.5599102974" lon="31.2656736374"><ele>0.14</ele><time>2026-09-02T20:26:23Z</time></trkpt><trkpt lat="59.5599102974" lon="31.2656736374"><ele>0.14</ele><time>2026-09-02T20:26:25Z</time></trkpt><trkpt lat="59.5599317551" lon="31.2656736374"><ele>0.14</ele><time>2026-09-02T20:26:28Z</time></trkpt><trkpt lat="59.5599317551" lon="31.2656307220"><ele>0.14</ele><time>2026-09-02T20:26:30Z</time></trkpt><trkpt lat="59.5599317551" lon="31.2655878067"><ele>0.14</ele><time>2026-09-02T20:26:33Z</time></trkpt><trkpt lat="59.5599317551" lon="31.2655663490"><ele>0.14</ele><time>2026-09-02T20:26:35Z</time></trkpt><trkpt lat="59.5599532127" lon="31.2655448914"><ele>0.14</ele><time>2026-09-02T20:26:38Z</time></trkpt><trkpt lat="59.5599532127" lon="31.2655234337"><ele>0.14</ele><time>2026-09-02T20:26:40Z</time></trkpt><trkpt lat="59.5599746704" lon="31.2655019760"><ele>0.14</ele><time>2026-09-02T20:26:43Z</time></trkpt><trkpt lat="59.5599961281" lon="31.2655019760"><ele>0.14</ele><time>2026-09-02T20:26:45Z</time></trkpt><trkpt lat="59.5600175858" lon="31.2655019760"><ele>0.14</ele><time>2026-09-02T20:26:48Z</time></trkpt><trkpt lat="59.5600390434" lon="31.2655019760"><ele>0.14</ele><time>2026-09-02T20:26:50Z</time></trkpt><trkpt lat="59.5600605011" lon="31.2654805183"><ele>0.14</ele><time>2026-09-02T20:26:53Z</time></trkpt><trkpt lat="59.5601034164" lon="31.2654590607"><ele>0.14</ele><time>2026-09-02T20:26:55Z</time></trkpt><trkpt lat="59.5601034164" lon="31.2654590607"><ele>0.14</ele><time>2026-09-02T20:26:58Z</time></trkpt><trkpt lat="59.5601248741" lon="31.2654161453"><ele>0.14</ele><time>2026-09-02T20:27:00Z</time></trkpt><trkpt lat="59.5601248741" lon="31.2653732300"><ele>0.14</ele><time>2026-09-02T20:27:03Z</time></trkpt><trkpt lat="59.5601034164" lon="31.2653517723"><ele>0.14</ele><time>2026-09-02T20:27:05Z</time></trkpt><trkpt lat="59.5601248741" lon="31.2653303146"><ele>0.14</ele><time>2026-09-02T20:27:08Z</time></trkpt><trkpt lat="59.5601248741" lon="31.2653088570"><ele>0.14</ele><time>2026-09-02T20:27:10Z</time></trkpt><trkpt lat="59.5601463318" lon="31.2652873993"><ele>0.14</ele><time>2026-09-02T20:27:13Z</time></trkpt><trkpt lat="59.5601677895" lon="31.2652659416"><ele>0.14</ele><time>2026-09-02T20:27:15Z</time></trkpt><trkpt lat="59.5601892471" lon="31.2652444839"><ele>0.14</ele><time>2026-09-02T20:27:18Z</time></trkpt><trkpt lat="59.5602107048" lon="31.2652230263"><ele>0.14</ele><time>2026-09-02T20:27:20Z</time></trkpt><trkpt lat="59.5602107048" lon="31.2652015686"><ele>0.14</ele><time>2026-09-02T20:27:23Z</time></trkpt><trkpt lat="59.5602107048" lon="31.2651586533"><ele>0.14</ele><time>2026-09-02T20:27:25Z</time></trkpt><trkpt lat="59.5602107048" lon="31.2651371956"><ele>0.14</ele><time>2026-09-02T20:27:28Z</time></trkpt><trkpt lat="59.5602107048" lon="31.2650942802"><ele>0.14</ele><time>2026-09-02T20:27:30Z</time></trkpt><trkpt lat="59.5602321625" lon="31.2650728226"><ele>0.14</ele><time>2026-09-02T20:27:33Z</time></trkpt><trkpt lat="59.5602536201" lon="31.2650513649"><ele>0.14</ele><time>2026-09-02T20:27:35Z</time></trkpt><trkpt lat="59.5602750778" lon="31.2650299072"><ele>0.14</ele><time>2026-09-02T20:27:38Z</time></trkpt><trkpt lat="59.5602965355" lon="31.2650084496"><ele>0.14</ele><time>2026-09-02T20:27:40Z</time></trkpt><trkpt lat="59.5602965355" lon="31.2649869919"><ele>0.14</ele><time>2026-09-02T20:27:43Z</time></trkpt><trkpt lat="59.5602965355" lon="31.2649440765"><ele>0.14</ele><time>2026-09-02T20:27:45Z</time></trkpt><trkpt lat="59.5602965355" lon="31.2649011612"><ele>0.14</ele><time>2026-09-02T20:27:48Z</time></trkpt><trkpt lat="59.5602750778" lon="31.2649011612"><ele>0.14</ele><time>2026-09-02T20:27:50Z</time></trkpt><trkpt lat="59.5602750778" lon="31.2648797035"><ele>0.14</ele><time>2026-09-02T20:27:53Z</time></trkpt><trkpt lat="59.5602965355" lon="31.2648582458"><ele>0.14</ele><time>2026-09-02T20:27:55Z</time></trkpt><trkpt lat="59.5602965355" lon="31.2648367882"><ele>0.14</ele><time>2026-09-02T20:27:58Z</time></trkpt><trkpt lat="59.5603179932" lon="31.2648367882"><ele>0.14</ele><time>2026-09-02T20:28:00Z</time></trkpt><trkpt lat="59.5603394508" lon="31.2648367882"><ele>0.14</ele><time>2026-09-02T20:28:03Z</time></trkpt><trkpt lat="59.5603609085" lon="31.2648582458"><ele>0.14</ele><time>2026-09-02T20:28:05Z</time></trkpt><trkpt lat="59.5603609085" lon="31.2648797035"><ele>0.14</ele><time>2026-09-02T20:28:08Z</time></trkpt><trkpt lat="59.5603823662" lon="31.2648582458"><ele>0.14</ele><time>2026-09-02T20:28:10Z</time></trkpt><trkpt lat="59.5604038239" lon="31.2648367882"><ele>0.14</ele><time>2026-09-02T20:28:13Z</time></trkpt><trkpt lat="59.5604038239" lon="31.2648153305"><ele>0.14</ele><time>2026-09-02T20:28:15Z</time></trkpt><trkpt lat="59.5604252815" lon="31.2648153305"><ele>0.14</ele><time>2026-09-02T20:28:18Z</time></trkpt><trkpt lat="59.5604252815" lon="31.2647724152"><ele>0.14</ele><time>2026-09-02T20:28:20Z</time></trkpt><trkpt lat="59.5604038239" lon="31.2647509575"><ele>0.14</ele><time>2026-09-02T20:28:23Z</time></trkpt><trkpt lat="59.5603823662" lon="31.2647294998"><ele>0.14</ele><time>2026-09-02T20:28:25Z</time></trkpt><trkpt lat="59.5603823662" lon="31.2647080421"><ele>0.14</ele><time>2026-09-02T20:28:28Z</time></trkpt><trkpt lat="59.5603609085" lon="31.2647080421"><ele>0.14</ele><time>2026-09-02T20:28:30Z</time></trkpt><trkpt lat="59.5603394508" lon="31.2646865845"><ele>0.14</ele><time>2026-09-02T20:28:33Z</time></trkpt><trkpt lat="59.5603394508" lon="31.2646436691"><ele>0.14</ele><time>2026-09-02T20:28:35Z</time></trkpt><trkpt lat="59.5603179932" lon="31.2646007538"><ele>0.14</ele><time>2026-09-02T20:28:38Z</time></trkpt><trkpt lat="59.5603179932" lon="31.2645578384"><ele>0.14</ele><time>2026-09-02T20:28:40Z</time></trkpt><trkpt lat="59.5602750778" lon="31.2645363808"><ele>0.14</ele><time>2026-09-02T20:28:43Z</time></trkpt><trkpt lat="59.5602750778" lon="31.2645363808"><ele>0.14</ele><time>2026-09-02T20:28:45Z</time></trkpt><trkpt lat="59.5602536201" lon="31.2645363808"><ele>0.14</ele><time>2026-09-02T20:28:48Z</time></trkpt><trkpt lat="59.5602321625" lon="31.2645792961"><ele>0.14</ele><time>2026-09-02T20:28:50Z</time></trkpt><trkpt lat="59.5602107048" lon="31.2645578384"><ele>0.14</ele><time>2026-09-02T20:28:53Z</time></trkpt><trkpt lat="59.5602107048" lon="31.2645363808"><ele>0.14</ele><time>2026-09-02T20:28:55Z</time></trkpt><trkpt lat="59.5602107048" lon="31.2645149231"><ele>0.14</ele><time>2026-09-02T20:28:58Z</time></trkpt><trkpt lat="59.5601892471" lon="31.2644934654"><ele>0.14</ele><time>2026-09-02T20:29:00Z</time></trkpt><trkpt lat="59.5601677895" lon="31.2644505501"><ele>0.14</ele><time>2026-09-02T20:29:14Z</time></trkpt><trkpt lat="59.5601463318" lon="31.2644076347"><ele>0.14</ele><time>2026-09-02T20:29:17Z</time></trkpt><trkpt lat="59.5601248741" lon="31.2643861771"><ele>0.14</ele><time>2026-09-02T20:29:19Z</time></trkpt><trkpt lat="59.5601248741" lon="31.2643861771"><ele>0.14</ele><time>2026-09-02T20:29:11Z</time></trkpt><trkpt lat="59.5601248741" lon="31.2643647194"><ele>0.14</ele><time>2026-09-02T20:29:13Z</time></trkpt><trkpt lat="59.5601463318" lon="31.2643861771"><ele>0.14</ele><time>2026-09-02T20:29:15Z</time></trkpt><trkpt lat="59.5601677895" lon="31.2644290924"><ele>0.14</ele><time>2026-09-02T20:29:18Z</time></trkpt><trkpt lat="59.5601677895" lon="31.2644290924"><ele>0.14</ele><time>2026-09-02T20:29:20Z</time></trkpt><trkpt lat="59.5601677895" lon="31.2644290924"><ele>0.14</ele><time>2026-09-02T20:29:23Z</time></trkpt><trkpt lat="59.5601677895" lon="31.2644290924"><ele>0.14</ele><time>2026-09-02T20:29:25Z</time></trkpt><trkpt lat="59.5601677895" lon="31.2644290924"><ele>0.14</ele><time>2026-09-02T20:29:28Z</time></trkpt><trkpt lat="59.5601677895" lon="31.2644290924"><ele>0.14</ele><time>2026-09-02T20:29:30Z</time></trkpt><trkpt lat="59.5601677895" lon="31.2644290924"><ele>0.14</ele><time>2026-09-02T20:29:33Z</time></trkpt><trkpt lat="59.5601677895" lon="31.2644290924"><ele>0.14</ele><time>2026-09-02T20:29:35Z</time></trkpt><trkpt lat="59.5601677895" lon="31.2644290924"><ele>0.14</ele><time>2026-09-02T20:29:38Z</time></trkpt><trkpt lat="59.5601677895" lon="31.2644290924"><ele>0.14</ele><time>2026-09-02T20:29:40Z</time></trkpt><trkpt lat="59.5601677895" lon="31.2644290924"><ele>0.14</ele><time>2026-09-02T20:29:43Z</time></trkpt><trkpt lat="59.5601677895" lon="31.2644290924"><ele>0.14</ele><time>2026-09-02T20:29:45Z</time></trkpt><trkpt lat="59.5601677895" lon="31.2644290924"><ele>0.14</ele><time>2026-09-02T20:29:48Z</time></trkpt><trkpt lat="59.5601677895" lon="31.2644290924"><ele>0.14</ele><time>2026-09-02T20:29:50Z</time></trkpt><trkpt lat="59.5601677895" lon="31.2644290924"><ele>0.14</ele><time>2026-09-02T20:29:53Z</time></trkpt><trkpt lat="59.5601677895" lon="31.2644290924"><ele>0.14</ele><time>2026-09-02T20:29:55Z</time></trkpt><trkpt lat="59.5601677895" lon="31.2644076347"><ele>0.14</ele><time>2026-09-02T20:29:58Z</time></trkpt><trkpt lat="59.5601677895" lon="31.2644076347"><ele>0.14</ele><time>2026-09-02T20:30:00Z</time></trkpt><trkpt lat="59.5601463318" lon="31.2644076347"><ele>0.14</ele><time>2026-09-02T20:30:03Z</time></trkpt><trkpt lat="59.5601463318" lon="31.2644076347"><ele>0.14</ele><time>2026-09-02T20:30:05Z</time></trkpt><trkpt lat="59.5601463318" lon="31.2644076347"><ele>0.14</ele><time>2026-09-02T20:30:08Z</time></trkpt><trkpt lat="59.5601463318" lon="31.2644076347"><ele>0.14</ele><time>2026-09-02T20:30:10Z</time></trkpt><trkpt lat="59.5601463318" lon="31.2643861771"><ele>0.14</ele><time>2026-09-02T20:30:13Z</time></trkpt><trkpt lat="59.5601463318" lon="31.2643861771"><ele>0.14</ele><time>2026-09-02T20:30:15Z</time></trkpt><trkpt lat="59.5601463318" lon="31.2643861771"><ele>0.14</ele><time>2026-09-02T20:30:18Z</time></trkpt><trkpt lat="59.5601463318" lon="31.2643861771"><ele>0.14</ele><time>2026-09-02T20:30:20Z</time></trkpt><trkpt lat="59.5601463318" lon="31.2643861771"><ele>0.14</ele><time>2026-09-02T20:30:23Z</time></trkpt><trkpt lat="59.5601463318" lon="31.2643861771"><ele>0.14</ele><time>2026-09-02T20:30:25Z</time></trkpt><trkpt lat="59.5601463318" lon="31.2643861771"><ele>0.14</ele><time>2026-09-02T20:30:28Z</time></trkpt><trkpt lat="59.5601463318" lon="31.2643647194"><ele>0.14</ele><time>2026-09-02T20:30:30Z</time></trkpt><trkpt lat="59.5601463318" lon="31.2643432617"><ele>0.14</ele><time>2026-09-02T20:30:33Z</time></trkpt><trkpt lat="59.5601463318" lon="31.2643432617"><ele>0.14</ele><time>2026-09-02T20:30:35Z</time></trkpt><trkpt lat="59.5601463318" lon="31.2643432617"><ele>0.14</ele><time>2026-09-02T20:30:38Z</time></trkpt><trkpt lat="59.5601248741" lon="31.2643432617"><ele>0.14</ele><time>2026-09-02T20:30:40Z</time></trkpt><trkpt lat="59.5600819588" lon="31.2643647194"><ele>0.14</ele><time>2026-09-02T20:30:43Z</time></trkpt><trkpt lat="59.5600605011" lon="31.2643861771"><ele>0.14</ele><time>2026-09-02T20:30:45Z</time></trkpt><trkpt lat="59.5600175858" lon="31.2643861771"><ele>0.14</ele><time>2026-09-02T20:30:48Z</time></trkpt><trkpt lat="59.5600175858" lon="31.2644076347"><ele>0.14</ele><time>2026-09-02T20:30:50Z</time></trkpt><trkpt lat="59.5599961281" lon="31.2644076347"><ele>0.14</ele><time>2026-09-02T20:30:53Z</time></trkpt><trkpt lat="59.5599961281" lon="31.2644290924"><ele>0.14</ele><time>2026-09-02T20:30:55Z</time></trkpt><trkpt lat="59.5599746704" lon="31.2644290924"><ele>0.14</ele><time>2026-09-02T20:30:58Z</time></trkpt><trkpt lat="59.5599532127" lon="31.2644290924"><ele>0.14</ele><time>2026-09-02T20:31:00Z</time></trkpt><trkpt lat="59.5599532127" lon="31.2644505501"><ele>0.14</ele><time>2026-09-02T20:31:03Z</time></trkpt><trkpt lat="59.5599532127" lon="31.2644720078"><ele>0.14</ele><time>2026-09-02T20:31:05Z</time></trkpt><trkpt lat="59.5599317551" lon="31.2644934654"><ele>0.14</ele><time>2026-09-02T20:31:08Z</time></trkpt><trkpt lat="59.5599317551" lon="31.2645363808"><ele>0.14</ele><time>2026-09-02T20:31:10Z</time></trkpt><trkpt lat="59.5599317551" lon="31.2645578384"><ele>0.14</ele><time>2026-09-02T20:31:13Z</time></trkpt><trkpt lat="59.5599317551" lon="31.2645792961"><ele>0.14</ele><time>2026-09-02T20:31:15Z</time></trkpt><trkpt lat="59.5599317551" lon="31.2646007538"><ele>0.14</ele><time>2026-09-02T20:31:18Z</time></trkpt><trkpt lat="59.5599317551" lon="31.2646222115"><ele>0.14</ele><time>2026-09-02T20:31:20Z</time></trkpt><trkpt lat="59.5599102974" lon="31.2646436691"><ele>0.14</ele><time>2026-09-02T20:31:23Z</time></trkpt><trkpt lat="59.5599102974" lon="31.2646651268"><ele>0.14</ele><time>2026-09-02T20:31:25Z</time></trkpt><trkpt lat="59.5598888397" lon="31.2646865845"><ele>0.14</ele><time>2026-09-02T20:31:28Z</time></trkpt><trkpt lat="59.5598888397" lon="31.2647080421"><ele>0.14</ele><time>2026-09-02T20:31:30Z</time></trkpt><trkpt lat="59.5598673820" lon="31.2647509575"><ele>0.14</ele><time>2026-09-02T20:31:33Z</time></trkpt><trkpt lat="59.5598459244" lon="31.2647724152"><ele>0.14</ele><time>2026-09-02T20:31:35Z</time></trkpt><trkpt lat="59.5598459244" lon="31.2648153305"><ele>0.14</ele><time>2026-09-02T20:31:38Z</time></trkpt><trkpt lat="59.5598244667" lon="31.2648367882"><ele>0.14</ele><time>2026-09-02T20:31:40Z</time></trkpt><trkpt lat="59.5598244667" lon="31.2648797035"><ele>0.14</ele><time>2026-09-02T20:31:43Z</time></trkpt><trkpt lat="59.5598244667" lon="31.2649226189"><ele>0.14</ele><time>2026-09-02T20:31:45Z</time></trkpt><trkpt lat="59.5598244667" lon="31.2649440765"><ele>0.14</ele><time>2026-09-02T20:31:48Z</time></trkpt><trkpt lat="59.5598244667" lon="31.2649011612"><ele>0.14</ele><time>2026-09-02T20:31:50Z</time></trkpt><trkpt lat="59.5598030090" lon="31.2649011612"><ele>0.14</ele><time>2026-09-02T20:31:53Z</time></trkpt><trkpt lat="59.5598030090" lon="31.2649226189"><ele>0.14</ele><time>2026-09-02T20:31:55Z</time></trkpt><trkpt lat="59.5597815514" lon="31.2649655342"><ele>0.14</ele><time>2026-09-02T20:31:58Z</time></trkpt><trkpt lat="59.5597815514" lon="31.2649655342"><ele>0.14</ele><time>2026-09-02T20:32:00Z</time></trkpt><trkpt lat="59.5597600937" lon="31.2649655342"><ele>0.14</ele><time>2026-09-02T20:32:03Z</time></trkpt><trkpt lat="59.5597600937" lon="31.2649869919"><ele>0.14</ele><time>2026-09-02T20:32:05Z</time></trkpt><trkpt lat="59.5597386360" lon="31.2649869919"><ele>0.14</ele><time>2026-09-02T20:32:08Z</time></trkpt><trkpt lat="59.5597386360" lon="31.2649869919"><ele>0.14</ele><time>2026-09-02T20:32:10Z</time></trkpt><trkpt lat="59.5597386360" lon="31.2649869919"><ele>0.14</ele><time>2026-09-02T20:32:13Z</time></trkpt><trkpt lat="59.5597171783" lon="31.2649869919"><ele>0.14</ele><time>2026-09-02T20:32:15Z</time></trkpt><trkpt lat="59.5597171783" lon="31.2649869919"><ele>0.14</ele><time>2026-09-02T20:32:18Z</time></trkpt><trkpt lat="59.5597171783" lon="31.2650084496"><ele>0.14</ele><time>2026-09-02T20:32:20Z</time></trkpt><trkpt lat="59.5596957207" lon="31.2650084496"><ele>0.14</ele><time>2026-09-02T20:32:23Z</time></trkpt><trkpt lat="59.5596742630" lon="31.2650513649"><ele>0.14</ele><time>2026-09-02T20:32:25Z</time></trkpt><trkpt lat="59.5596742630" lon="31.2650942802"><ele>0.14</ele><time>2026-09-02T20:32:28Z</time></trkpt><trkpt lat="59.5596528053" lon="31.2650942802"><ele>0.14</ele><time>2026-09-02T20:32:30Z</time></trkpt><trkpt lat="59.5596313477" lon="31.2651157379"><ele>0.14</ele><time>2026-09-02T20:32:33Z</time></trkpt><trkpt lat="59.5596098900" lon="31.2651371956"><ele>0.14</ele><time>2026-09-02T20:32:35Z</time></trkpt><trkpt lat="59.5595884323" lon="31.2651586533"><ele>0.14</ele><time>2026-09-02T20:32:38Z</time></trkpt><trkpt lat="59.5595884323" lon="31.2651586533"><ele>0.14</ele><time>2026-09-02T20:32:40Z</time></trkpt><trkpt lat="59.5595669746" lon="31.2651371956"><ele>0.14</ele><time>2026-09-02T20:32:43Z</time></trkpt><trkpt lat="59.5595455170" lon="31.2651157379"><ele>0.14</ele><time>2026-09-02T20:32:45Z</time></trkpt><trkpt lat="59.5595455170" lon="31.2651371956"><ele>0.14</ele><time>2026-09-02T20:32:48Z</time></trkpt><trkpt lat="59.5595455170" lon="31.2651801109"><ele>0.14</ele><time>2026-09-02T20:32:50Z</time></trkpt><trkpt lat="59.5595240593" lon="31.2652444839"><ele>0.14</ele><time>2026-09-02T20:32:53Z</time></trkpt><trkpt lat="59.5595240593" lon="31.2652873993"><ele>0.14</ele><time>2026-09-02T20:32:55Z</time></trkpt><trkpt lat="59.5595240593" lon="31.2652873993"><ele>0.14</ele><time>2026-09-02T20:32:58Z</time></trkpt><trkpt lat="59.5595240593" lon="31.2652873993"><ele>0.14</ele><time>2026-09-02T20:33:00Z</time></trkpt><trkpt lat="59.5595240593" lon="31.2653088570"><ele>0.14</ele><time>2026-09-02T20:33:03Z</time></trkpt><trkpt lat="59.5595240593" lon="31.2653088570"><ele>0.14</ele><time>2026-09-02T20:33:05Z</time></trkpt><trkpt lat="59.5595240593" lon="31.2653732300"><ele>0.14</ele><time>2026-09-02T20:33:08Z</time></trkpt><trkpt lat="59.5595240593" lon="31.2654161453"><ele>0.14</ele><time>2026-09-02T20:33:10Z</time></trkpt><trkpt lat="59.5595455170" lon="31.2654376030"><ele>0.14</ele><time>2026-09-02T20:33:13Z</time></trkpt><trkpt lat="59.5595455170" lon="31.2654376030"><ele>0.14</ele><time>2026-09-02T20:33:15Z</time></trkpt><trkpt lat="59.5595455170" lon="31.2654376030"><ele>0.14</ele><time>2026-09-02T20:33:18Z</time></trkpt><trkpt lat="59.5595455170" lon="31.2654590607"><ele>0.14</ele><time>2026-09-02T20:33:20Z</time></trkpt><trkpt lat="59.5595240593" lon="31.2655019760"><ele>0.14</ele><time>2026-09-02T20:33:23Z</time></trkpt><trkpt lat="59.5595240593" lon="31.2655448914"><ele>0.14</ele><time>2026-09-02T20:33:25Z</time></trkpt><trkpt lat="59.5595240593" lon="31.2655663490"><ele>0.14</ele><time>2026-09-02T20:33:28Z</time></trkpt><trkpt lat="59.5595240593" lon="31.2655663490"><ele>0.14</ele><time>2026-09-02T20:33:30Z</time></trkpt><trkpt lat="59.5595240593" lon="31.2656092644"><ele>0.14</ele><time>2026-09-02T20:33:33Z</time></trkpt><trkpt lat="59.5595026016" lon="31.2656736374"><ele>0.14</ele><time>2026-09-02T20:33:35Z</time></trkpt><trkpt lat="59.5594811440" lon="31.2656950951"><ele>0.14</ele><time>2026-09-02T20:33:38Z</time></trkpt><trkpt lat="59.5594811440" lon="31.2657165527"><ele>0.14</ele><time>2026-09-02T20:33:40Z</time></trkpt><trkpt lat="59.5594811440" lon="31.2657165527"><ele>0.14</ele><time>2026-09-02T20:33:43Z</time></trkpt><trkpt lat="59.5594596863" lon="31.2657165527"><ele>0.14</ele><time>2026-09-02T20:33:45Z</time></trkpt><trkpt lat="59.5594596863" lon="31.2657380104"><ele>0.14</ele><time>2026-09-02T20:33:48Z</time></trkpt><trkpt lat="59.5594596863" lon="31.2657380104"><ele>0.14</ele><time>2026-09-02T20:33:50Z</time></trkpt><trkpt lat="59.5594382286" lon="31.2657380104"><ele>0.14</ele><time>2026-09-02T20:33:53Z</time></trkpt><trkpt lat="59.5594382286" lon="31.2657165527"><ele>0.14</ele><time>2026-09-02T20:33:55Z</time></trkpt><trkpt lat="59.5594382286" lon="31.2657165527"><ele>0.14</ele><time>2026-09-02T20:33:58Z</time></trkpt><trkpt lat="59.5594596863" lon="31.2657165527"><ele>0.14</ele><time>2026-09-02T20:34:00Z</time></trkpt><trkpt lat="59.5594596863" lon="31.2657380104"><ele>0.14</ele><time>2026-09-02T20:34:03Z</time></trkpt><trkpt lat="59.5594596863" lon="31.2657380104"><ele>0.14</ele><time>2026-09-02T20:34:05Z</time></trkpt><trkpt lat="59.5594811440" lon="31.2657380104"><ele>0.14</ele><time>2026-09-02T20:34:08Z</time></trkpt><trkpt lat="59.5594596863" lon="31.2657594681"><ele>0.14</ele><time>2026-09-02T20:34:10Z</time></trkpt><trkpt lat="59.5594382286" lon="31.2657380104"><ele>0.14</ele><time>2026-09-02T20:34:13Z</time></trkpt><trkpt lat="59.5594167709" lon="31.2657165527"><ele>0.14</ele><time>2026-09-02T20:34:15Z</time></trkpt><trkpt lat="59.5593953133" lon="31.2657380104"><ele>0.14</ele><time>2026-09-02T20:34:18Z</time></trkpt><trkpt lat="59.5593953133" lon="31.2657165527"><ele>0.14</ele><time>2026-09-02T20:34:20Z</time></trkpt><trkpt lat="59.5593953133" lon="31.2657165527"><ele>0.14</ele><time>2026-09-02T20:34:23Z</time></trkpt><trkpt lat="59.5593953133" lon="31.2657165527"><ele>0.14</ele><time>2026-09-02T20:34:25Z</time></trkpt><trkpt lat="59.5593738556" lon="31.2657165527"><ele>0.14</ele><time>2026-09-02T20:34:28Z</time></trkpt><trkpt lat="59.5593738556" lon="31.2657380104"><ele>0.14</ele><time>2026-09-02T20:34:30Z</time></trkpt><trkpt lat="59.5593523979" lon="31.2657380104"><ele>0.14</ele><time>2026-09-02T20:34:33Z</time></trkpt><trkpt lat="59.5593523979" lon="31.2657380104"><ele>0.14</ele><time>2026-09-02T20:34:35Z</time></trkpt><trkpt lat="59.5593523979" lon="31.2657594681"><ele>0.14</ele><time>2026-09-02T20:34:38Z</time></trkpt><trkpt lat="59.5593523979" lon="31.2657809258"><ele>0.14</ele><time>2026-09-02T20:34:40Z</time></trkpt><trkpt lat="59.5593523979" lon="31.2658238411"><ele>0.14</ele><time>2026-09-02T20:34:43Z</time></trkpt><trkpt lat="59.5593523979" lon="31.2658238411"><ele>0.14</ele><time>2026-09-02T20:34:45Z</time></trkpt><trkpt lat="59.5593523979" lon="31.2658238411"><ele>0.14</ele><time>2026-09-02T20:34:48Z</time></trkpt><trkpt lat="59.5593523979" lon="31.2658238411"><ele>0.14</ele><time>2026-09-02T20:34:50Z</time></trkpt><trkpt lat="59.5593523979" lon="31.2658238411"><ele>0.14</ele><time>2026-09-02T20:34:53Z</time></trkpt><trkpt lat="59.5593523979" lon="31.2658238411"><ele>0.14</ele><time>2026-09-02T20:34:55Z</time></trkpt><trkpt lat="59.5593523979" lon="31.2658238411"><ele>0.14</ele><time>2026-09-02T20:34:58Z</time></trkpt><trkpt lat="59.5593523979" lon="31.2658238411"><ele>0.14</ele><time>2026-09-02T20:35:00Z</time></trkpt><trkpt lat="59.5593523979" lon="31.2658452988"><ele>0.14</ele><time>2026-09-02T20:35:05Z</time></trkpt><trkpt lat="59.5593523979" lon="31.2658667564"><ele>0.14</ele><time>2026-09-02T20:35:08Z</time></trkpt><trkpt lat="59.5593309402" lon="31.2659096718"><ele>0.14</ele><time>2026-09-02T20:35:10Z</time></trkpt><trkpt lat="59.5593309402" lon="31.2659525871"><ele>0.14</ele><time>2026-09-02T20:35:13Z</time></trkpt><trkpt lat="59.5593523979" lon="31.2659955025"><ele>0.14</ele><time>2026-09-02T20:35:15Z</time></trkpt><trkpt lat="59.5593309402" lon="31.2660384178"><ele>0.14</ele><time>2026-09-02T20:35:18Z</time></trkpt><trkpt lat="59.5593094826" lon="31.2660598755"><ele>0.14</ele><time>2026-09-02T20:35:20Z</time></trkpt><trkpt lat="59.5593094826" lon="31.2660598755"><ele>0.14</ele><time>2026-09-02T20:35:23Z</time></trkpt><trkpt lat="59.5593094826" lon="31.2660598755"><ele>0.14</ele><time>2026-09-02T20:35:25Z</time></trkpt><trkpt lat="59.5592880249" lon="31.2661027908"><ele>0.14</ele><time>2026-09-02T20:35:28Z</time></trkpt><trkpt lat="59.5593094826" lon="31.2661027908"><ele>0.14</ele><time>2026-09-02T20:35:30Z</time></trkpt><trkpt lat="59.5592880249" lon="31.2661027908"><ele>0.14</ele><time>2026-09-02T20:35:33Z</time></trkpt><trkpt lat="59.5592880249" lon="31.2661027908"><ele>0.14</ele><time>2026-09-02T20:35:35Z</time></trkpt><trkpt lat="59.5592665672" lon="31.2661027908"><ele>0.14</ele><time>2026-09-02T20:35:38Z</time></trkpt><trkpt lat="59.5592665672" lon="31.2661242485"><ele>0.14</ele><time>2026-09-02T20:35:40Z</time></trkpt><trkpt lat="59.5592451096" lon="31.2661027908"><ele>0.14</ele><time>2026-09-02T20:35:43Z</time></trkpt><trkpt lat="59.5592236519" lon="31.2661027908"><ele>0.14</ele><time>2026-09-02T20:35:45Z</time></trkpt><trkpt lat="59.5592236519" lon="31.2661027908"><ele>0.14</ele><time>2026-09-02T20:35:48Z</time></trkpt><trkpt lat="59.5592451096" lon="31.2660813332"><ele>0.14</ele><time>2026-09-02T20:35:50Z</time></trkpt><trkpt lat="59.5592451096" lon="31.2660384178"><ele>0.14</ele><time>2026-09-02T20:35:53Z</time></trkpt><trkpt lat="59.5592451096" lon="31.2660384178"><ele>0.14</ele><time>2026-09-02T20:35:55Z</time></trkpt><trkpt lat="59.5592451096" lon="31.2660598755"><ele>0.14</ele><time>2026-09-02T20:35:58Z</time></trkpt><trkpt lat="59.5592451096" lon="31.2661027908"><ele>0.14</ele><time>2026-09-02T20:36:00Z</time></trkpt><trkpt lat="59.5592451096" lon="31.2661242485"><ele>0.14</ele><time>2026-09-02T20:36:03Z</time></trkpt><trkpt lat="59.5592451096" lon="31.2661242485"><ele>0.14</ele><time>2026-09-02T20:36:05Z</time></trkpt><trkpt lat="59.5592451096" lon="31.2661242485"><ele>0.14</ele><time>2026-09-02T20:36:08Z</time></trkpt><trkpt lat="59.5592451096" lon="31.2661242485"><ele>0.14</ele><time>2026-09-02T20:36:10Z</time></trkpt><trkpt lat="59.5592451096" lon="31.2661242485"><ele>0.14</ele><time>2026-09-02T20:36:13Z</time></trkpt><trkpt lat="59.5592451096" lon="31.2661242485"><ele>0.14</ele><time>2026-09-02T20:36:15Z</time></trkpt><trkpt lat="59.5592451096" lon="31.2661242485"><ele>0.14</ele><time>2026-09-02T20:36:18Z</time></trkpt><trkpt lat="59.5592451096" lon="31.2661242485"><ele>0.14</ele><time>2026-09-02T20:36:20Z</time></trkpt><trkpt lat="59.5592451096" lon="31.2661242485"><ele>0.14</ele><time>2026-09-02T20:36:23Z</time></trkpt><trkpt lat="59.5592451096" lon="31.2661242485"><ele>0.14</ele><time>2026-09-02T20:36:25Z</time></trkpt><trkpt lat="59.5592451096" lon="31.2661242485"><ele>0.14</ele><time>2026-09-02T20:36:28Z</time></trkpt><trkpt lat="59.5592451096" lon="31.2661242485"><ele>0.14</ele><time>2026-09-02T20:36:30Z</time></trkpt><trkpt lat="59.5592451096" lon="31.2661242485"><ele>0.14</ele><time>2026-09-02T20:36:33Z</time></trkpt><trkpt lat="59.5592451096" lon="31.2661242485"><ele>0.14</ele><time>2026-09-02T20:36:35Z</time></trkpt><trkpt lat="59.5592451096" lon="31.2661242485"><ele>0.14</ele><time>2026-09-02T20:36:38Z</time></trkpt><trkpt lat="59.5592451096" lon="31.2661242485"><ele>0.14</ele><time>2026-09-02T20:36:40Z</time></trkpt><trkpt lat="59.5592451096" lon="31.2661242485"><ele>0.14</ele><time>2026-09-02T20:36:43Z</time></trkpt><trkpt lat="59.5592451096" lon="31.2661242485"><ele>0.14</ele><time>2026-09-02T20:36:45Z</time></trkpt><trkpt lat="59.5592451096" lon="31.2661242485"><ele>0.14</ele><time>2026-09-02T20:36:48Z</time></trkpt><trkpt lat="59.5592451096" lon="31.2661242485"><ele>0.14</ele><time>2026-09-02T20:36:50Z</time></trkpt><trkpt lat="59.5592451096" lon="31.2661242485"><ele>0.14</ele><time>2026-09-02T20:36:53Z</time></trkpt><trkpt lat="59.5592451096" lon="31.2661242485"><ele>0.14</ele><time>2026-09-02T20:36:55Z</time></trkpt><trkpt lat="59.5592451096" lon="31.2661242485"><ele>0.14</ele><time>2026-09-02T20:36:58Z</time></trkpt><trkpt lat="59.5592451096" lon="31.2661242485"><ele>0.14</ele><time>2026-09-02T20:37:00Z</time></trkpt><trkpt lat="59.5592451096" lon="31.2661242485"><ele>0.14</ele><time>2026-09-02T20:37:03Z</time></trkpt><trkpt lat="59.5592451096" lon="31.2661242485"><ele>0.14</ele><time>2026-09-02T20:37:05Z</time></trkpt><trkpt lat="59.5592451096" lon="31.2661242485"><ele>0.14</ele><time>2026-09-02T20:37:08Z</time></trkpt><trkpt lat="59.5592451096" lon="31.2661242485"><ele>0.14</ele><time>2026-09-02T20:37:10Z</time></trkpt><trkpt lat="59.5592451096" lon="31.2661242485"><ele>0.14</ele><time>2026-09-02T20:37:13Z</time></trkpt><trkpt lat="59.5592451096" lon="31.2661242485"><ele>0.14</ele><time>2026-09-02T20:37:15Z</time></trkpt><trkpt lat="59.5592451096" lon="31.2661242485"><ele>0.14</ele><time>2026-09-02T20:37:18Z</time></trkpt><trkpt lat="59.5592451096" lon="31.2661242485"><ele>0.14</ele><time>2026-09-02T20:37:20Z</time></trkpt><trkpt lat="59.5592451096" lon="31.2661242485"><ele>0.14</ele><time>2026-09-02T20:37:23Z</time></trkpt><trkpt lat="59.5592451096" lon="31.2661242485"><ele>0.14</ele><time>2026-09-02T20:37:25Z</time></trkpt><trkpt lat="59.5592451096" lon="31.2661242485"><ele>0.14</ele><time>2026-09-02T20:37:28Z</time></trkpt><trkpt lat="59.5592451096" lon="31.2661242485"><ele>0.14</ele><time>2026-09-02T20:37:30Z</time></trkpt><trkpt lat="59.5592451096" lon="31.2661242485"><ele>0.14</ele><time>2026-09-02T20:37:33Z</time></trkpt><trkpt lat="59.5592451096" lon="31.2661457062"><ele>0.14</ele><time>2026-09-02T20:37:35Z</time></trkpt><trkpt lat="59.5592236519" lon="31.2661457062"><ele>0.14</ele><time>2026-09-02T20:37:38Z</time></trkpt><trkpt lat="59.5592236519" lon="31.2661671638"><ele>0.14</ele><time>2026-09-02T20:37:40Z</time></trkpt><trkpt lat="59.5592236519" lon="31.2661671638"><ele>0.14</ele><time>2026-09-02T20:37:43Z</time></trkpt><trkpt lat="59.5592236519" lon="31.2661671638"><ele>0.14</ele><time>2026-09-02T20:37:45Z</time></trkpt><trkpt lat="59.5592021942" lon="31.2661886215"><ele>0.14</ele><time>2026-09-02T20:37:48Z</time></trkpt><trkpt lat="59.5592021942" lon="31.2661886215"><ele>0.14</ele><time>2026-09-02T20:37:50Z</time></trkpt><trkpt lat="59.5592021942" lon="31.2661886215"><ele>0.14</ele><time>2026-09-02T20:37:53Z</time></trkpt><trkpt lat="59.5592021942" lon="31.2661886215"><ele>0.14</ele><time>2026-09-02T20:37:55Z</time></trkpt><trkpt lat="59.5591807365" lon="31.2661886215"><ele>0.14</ele><time>2026-09-02T20:37:58Z</time></trkpt><trkpt lat="59.5591592789" lon="31.2661457062"><ele>0.14</ele><time>2026-09-02T20:38:00Z</time></trkpt><trkpt lat="59.5591378212" lon="31.2661886215"><ele>0.14</ele><time>2026-09-02T20:38:03Z</time></trkpt><trkpt lat="59.5591378212" lon="31.2662100792"><ele>0.14</ele><time>2026-09-02T20:38:05Z</time></trkpt><trkpt lat="59.5591163635" lon="31.2662315369"><ele>0.14</ele><time>2026-09-02T20:38:08Z</time></trkpt><trkpt lat="59.5591378212" lon="31.2662100792"><ele>0.14</ele><time>2026-09-02T20:38:10Z</time></trkpt><trkpt lat="59.5591378212" lon="31.2662315369"><ele>0.14</ele><time>2026-09-02T20:38:13Z</time></trkpt><trkpt lat="59.5591378212" lon="31.2662100792"><ele>0.14</ele><time>2026-09-02T20:38:15Z</time></trkpt><trkpt lat="59.5591592789" lon="31.2662100792"><ele>0.14</ele><time>2026-09-02T20:38:18Z</time></trkpt><trkpt lat="59.5591378212" lon="31.2662100792"><ele>0.14</ele><time>2026-09-02T20:38:20Z</time></trkpt><trkpt lat="59.5591378212" lon="31.2662100792"><ele>0.14</ele><time>2026-09-02T20:38:23Z</time></trkpt><trkpt lat="59.5591378212" lon="31.2662100792"><ele>0.14</ele><time>2026-09-02T20:38:25Z</time></trkpt><trkpt lat="59.5591378212" lon="31.2662100792"><ele>0.14</ele><time>2026-09-02T20:38:28Z</time></trkpt><trkpt lat="59.5591378212" lon="31.2662100792"><ele>0.14</ele><time>2026-09-02T20:38:30Z</time></trkpt><trkpt lat="59.5591378212" lon="31.2662100792"><ele>0.14</ele><time>2026-09-02T20:38:33Z</time></trkpt><trkpt lat="59.5591378212" lon="31.2661886215"><ele>0.14</ele><time>2026-09-02T20:38:35Z</time></trkpt><trkpt lat="59.5591378212" lon="31.2661886215"><ele>0.14</ele><time>2026-09-02T20:38:38Z</time></trkpt><trkpt lat="59.5591378212" lon="31.2661886215"><ele>0.14</ele><time>2026-09-02T20:38:40Z</time></trkpt><trkpt lat="59.5591378212" lon="31.2661886215"><ele>0.14</ele><time>2026-09-02T20:38:43Z</time></trkpt><trkpt lat="59.5591378212" lon="31.2661886215"><ele>0.14</ele><time>2026-09-02T20:38:45Z</time></trkpt><trkpt lat="59.5591378212" lon="31.2661886215"><ele>0.14</ele><time>2026-09-02T20:38:48Z</time></trkpt><trkpt lat="59.5591378212" lon="31.2661886215"><ele>0.14</ele><time>2026-09-02T20:38:50Z</time></trkpt><trkpt lat="59.5591378212" lon="31.2661886215"><ele>0.14</ele><time>2026-09-02T20:38:53Z</time></trkpt><trkpt lat="59.5591378212" lon="31.2661886215"><ele>0.14</ele><time>2026-09-02T20:38:55Z</time></trkpt><trkpt lat="59.5591378212" lon="31.2661886215"><ele>0.14</ele><time>2026-09-02T20:38:58Z</time></trkpt><trkpt lat="59.5591378212" lon="31.2661886215"><ele>0.14</ele><time>2026-09-02T20:39:00Z</time></trkpt><trkpt lat="59.5591378212" lon="31.2661886215"><ele>0.14</ele><time>2026-09-02T20:39:03Z</time></trkpt><trkpt lat="59.5591378212" lon="31.2661886215"><ele>0.14</ele><time>2026-09-02T20:39:05Z</time></trkpt><trkpt lat="59.5591378212" lon="31.2661671638"><ele>0.14</ele><time>2026-09-02T20:39:08Z</time></trkpt><trkpt lat="59.5591378212" lon="31.2661671638"><ele>0.14</ele><time>2026-09-02T20:39:10Z</time></trkpt><trkpt lat="59.5591378212" lon="31.2661671638"><ele>0.14</ele><time>2026-09-02T20:39:13Z</time></trkpt><trkpt lat="59.5591378212" lon="31.2661671638"><ele>0.14</ele><time>2026-09-02T20:39:15Z</time></trkpt><trkpt lat="59.5591378212" lon="31.2661457062"><ele>0.14</ele><time>2026-09-02T20:39:18Z</time></trkpt><trkpt lat="59.5591378212" lon="31.2661457062"><ele>0.14</ele><time>2026-09-02T20:39:20Z</time></trkpt><trkpt lat="59.5591378212" lon="31.2661457062"><ele>0.14</ele><time>2026-09-02T20:39:23Z</time></trkpt><trkpt lat="59.5591378212" lon="31.2661671638"><ele>0.14</ele><time>2026-09-02T20:39:25Z</time></trkpt><trkpt lat="59.5591378212" lon="31.2661671638"><ele>0.14</ele><time>2026-09-02T20:39:28Z</time></trkpt><trkpt lat="59.5591378212" lon="31.2661671638"><ele>0.14</ele><time>2026-09-02T20:39:30Z</time></trkpt><trkpt lat="59.5591378212" lon="31.2661671638"><ele>0.14</ele><time>2026-09-02T20:39:33Z</time></trkpt><trkpt lat="59.5591378212" lon="31.2661671638"><ele>0.14</ele><time>2026-09-02T20:39:35Z</time></trkpt><trkpt lat="59.5591378212" lon="31.2661671638"><ele>0.14</ele><time>2026-09-02T20:39:38Z</time></trkpt><trkpt lat="59.5591378212" lon="31.2661671638"><ele>0.14</ele><time>2026-09-02T20:39:40Z</time></trkpt><trkpt lat="59.5591378212" lon="31.2661671638"><ele>0.14</ele><time>2026-09-02T20:39:43Z</time></trkpt><trkpt lat="59.5591378212" lon="31.2661886215"><ele>0.14</ele><time>2026-09-02T20:39:45Z</time></trkpt><trkpt lat="59.5591378212" lon="31.2661886215"><ele>0.14</ele><time>2026-09-02T20:39:48Z</time></trkpt><trkpt lat="59.5591378212" lon="31.2661886215"><ele>0.14</ele><time>2026-09-02T20:39:50Z</time></trkpt><trkpt lat="59.5591163635" lon="31.2662100792"><ele>0.14</ele><time>2026-09-02T20:39:53Z</time></trkpt><trkpt lat="59.5591163635" lon="31.2662100792"><ele>0.14</ele><time>2026-09-02T20:39:55Z</time></trkpt><trkpt lat="59.5591163635" lon="31.2662315369"><ele>0.14</ele><time>2026-09-02T20:39:58Z</time></trkpt><trkpt lat="59.5591163635" lon="31.2662315369"><ele>0.14</ele><time>2026-09-02T20:40:00Z</time></trkpt><trkpt lat="59.5591163635" lon="31.2662315369"><ele>0.14</ele><time>2026-09-02T20:40:03Z</time></trkpt><trkpt lat="59.5591163635" lon="31.2662315369"><ele>0.14</ele><time>2026-09-02T20:40:05Z</time></trkpt><trkpt lat="59.5591163635" lon="31.2662315369"><ele>0.14</ele><time>2026-09-02T20:40:08Z</time></trkpt><trkpt lat="59.5591163635" lon="31.2662315369"><ele>0.14</ele><time>2026-09-02T20:40:10Z</time></trkpt><trkpt lat="59.5591163635" lon="31.2662315369"><ele>0.14</ele><time>2026-09-02T20:40:13Z</time></trkpt><trkpt lat="59.5591163635" lon="31.2662315369"><ele>0.14</ele><time>2026-09-02T20:40:15Z</time></trkpt><trkpt lat="59.5591163635" lon="31.2662315369"><ele>0.14</ele><time>2026-09-02T20:40:18Z</time></trkpt><trkpt lat="59.5591163635" lon="31.2662529945"><ele>0.14</ele><time>2026-09-02T20:40:20Z</time></trkpt><trkpt lat="59.5591163635" lon="31.2662315369"><ele>0.14</ele><time>2026-09-02T20:40:23Z</time></trkpt><trkpt lat="59.5590949059" lon="31.2661671638"><ele>0.14</ele><time>2026-09-02T20:40:25Z</time></trkpt><trkpt lat="59.5590734482" lon="31.2661242485"><ele>0.14</ele><time>2026-09-02T20:40:28Z</time></trkpt><trkpt lat="59.5590519905" lon="31.2661027908"><ele>0.14</ele><time>2026-09-02T20:40:30Z</time></trkpt><trkpt lat="59.5590519905" lon="31.2661242485"><ele>0.14</ele><time>2026-09-02T20:40:33Z</time></trkpt><trkpt lat="59.5590305328" lon="31.2661242485"><ele>0.14</ele><time>2026-09-02T20:40:35Z</time></trkpt><trkpt lat="59.5590090752" lon="31.2661242485"><ele>0.14</ele><time>2026-09-02T20:40:38Z</time></trkpt><trkpt lat="59.5590090752" lon="31.2661457062"><ele>0.14</ele><time>2026-09-02T20:40:40Z</time></trkpt><trkpt lat="59.5589876175" lon="31.2661457062"><ele>0.14</ele><time>2026-09-02T20:40:43Z</time></trkpt><trkpt lat="59.5589661598" lon="31.2661671638"><ele>0.14</ele><time>2026-09-02T20:40:45Z</time></trkpt><trkpt lat="59.5589447021" lon="31.2661886215"><ele>0.14</ele><time>2026-09-02T20:40:48Z</time></trkpt><trkpt lat="59.5589447021" lon="31.2661671638"><ele>0.14</ele><time>2026-09-02T20:40:50Z</time></trkpt><trkpt lat="59.5589447021" lon="31.2661671638"><ele>0.14</ele><time>2026-09-02T20:40:53Z</time></trkpt><trkpt lat="59.5589447021" lon="31.2661671638"><ele>0.14</ele><time>2026-09-02T20:40:55Z</time></trkpt><trkpt lat="59.5589232445" lon="31.2661886215"><ele>0.14</ele><time>2026-09-02T20:40:58Z</time></trkpt><trkpt lat="59.5589017868" lon="31.2662100792"><ele>0.14</ele><time>2026-09-02T20:41:00Z</time></trkpt><trkpt lat="59.5589017868" lon="31.2662100792"><ele>0.14</ele><time>2026-09-02T20:41:03Z</time></trkpt><trkpt lat="59.5589232445" lon="31.2662315369"><ele>0.14</ele><time>2026-09-02T20:41:05Z</time></trkpt><trkpt lat="59.5589232445" lon="31.2662959099"><ele>0.14</ele><time>2026-09-02T20:41:08Z</time></trkpt><trkpt lat="59.5589232445" lon="31.2663173676"><ele>0.14</ele><time>2026-09-02T20:41:10Z</time></trkpt><trkpt lat="59.5589447021" lon="31.2663602829"><ele>0.14</ele><time>2026-09-02T20:41:13Z</time></trkpt><trkpt lat="59.5589447021" lon="31.2663817406"><ele>0.14</ele><time>2026-09-02T20:41:15Z</time></trkpt><trkpt lat="59.5589447021" lon="31.2664031982"><ele>0.14</ele><time>2026-09-02T20:41:18Z</time></trkpt><trkpt lat="59.5589447021" lon="31.2664031982"><ele>0.14</ele><time>2026-09-02T20:41:20Z</time></trkpt><trkpt lat="59.5589447021" lon="31.2664246559"><ele>0.14</ele><time>2026-09-02T20:41:23Z</time></trkpt><trkpt lat="59.5589232445" lon="31.2664246559"><ele>0.14</ele><time>2026-09-02T20:41:25Z</time></trkpt><trkpt lat="59.5589232445" lon="31.2664031982"><ele>0.14</ele><time>2026-09-02T20:41:28Z</time></trkpt><trkpt lat="59.5589232445" lon="31.2664246559"><ele>0.14</ele><time>2026-09-02T20:41:30Z</time></trkpt><trkpt lat="59.5589017868" lon="31.2664461136"><ele>0.14</ele><time>2026-09-02T20:41:33Z</time></trkpt><trkpt lat="59.5589017868" lon="31.2664461136"><ele>0.14</ele><time>2026-09-02T20:41:35Z</time></trkpt><trkpt lat="59.5589017868" lon="31.2664461136"><ele>0.14</ele><time>2026-09-02T20:41:38Z</time></trkpt><trkpt lat="59.5589017868" lon="31.2664461136"><ele>0.14</ele><time>2026-09-02T20:41:40Z</time></trkpt><trkpt lat="59.5589017868" lon="31.2664461136"><ele>0.14</ele><time>2026-09-02T20:41:43Z</time></trkpt><trkpt lat="59.5589017868" lon="31.2664461136"><ele>0.14</ele><time>2026-09-02T20:41:45Z</time></trkpt><trkpt lat="59.5589017868" lon="31.2664461136"><ele>0.14</ele><time>2026-09-02T20:41:48Z</time></trkpt><trkpt lat="59.5589017868" lon="31.2664461136"><ele>0.14</ele><time>2026-09-02T20:41:50Z</time></trkpt><trkpt lat="59.5589017868" lon="31.2664461136"><ele>0.14</ele><time>2026-09-02T20:41:53Z</time></trkpt><trkpt lat="59.5589017868" lon="31.2664461136"><ele>0.14</ele><time>2026-09-02T20:41:55Z</time></trkpt><trkpt lat="59.5588803291" lon="31.2664890289"><ele>0.14</ele><time>2026-09-02T20:41:58Z</time></trkpt><trkpt lat="59.5588803291" lon="31.2665104866"><ele>0.14</ele><time>2026-09-02T20:42:00Z</time></trkpt><trkpt lat="59.5588588715" lon="31.2665319443"><ele>0.14</ele><time>2026-09-02T20:42:03Z</time></trkpt><trkpt lat="59.5588588715" lon="31.2665534019"><ele>0.14</ele><time>2026-09-02T20:42:05Z</time></trkpt><trkpt lat="59.5588374138" lon="31.2665748596"><ele>0.14</ele><time>2026-09-02T20:42:08Z</time></trkpt><trkpt lat="59.5588374138" lon="31.2665748596"><ele>0.14</ele><time>2026-09-02T20:42:10Z</time></trkpt><trkpt lat="59.5588374138" lon="31.2666177750"><ele>0.14</ele><time>2026-09-02T20:42:13Z</time></trkpt><trkpt lat="59.5587944984" lon="31.2666392326"><ele>0.14</ele><time>2026-09-02T20:42:15Z</time></trkpt><trkpt lat="59.5588159561" lon="31.2666606903"><ele>0.14</ele><time>2026-09-02T20:42:18Z</time></trkpt><trkpt lat="59.5587944984" lon="31.2667036057"><ele>0.14</ele><time>2026-09-02T20:42:20Z</time></trkpt><trkpt lat="59.5587944984" lon="31.2667465210"><ele>0.14</ele><time>2026-09-02T20:42:23Z</time></trkpt><trkpt lat="59.5587944984" lon="31.2667679787"><ele>0.14</ele><time>2026-09-02T20:42:25Z</time></trkpt><trkpt lat="59.5587944984" lon="31.2667679787"><ele>0.14</ele><time>2026-09-02T20:42:28Z</time></trkpt><trkpt lat="59.5587944984" lon="31.2667679787"><ele>0.14</ele><time>2026-09-02T20:42:30Z</time></trkpt><trkpt lat="59.5587944984" lon="31.2667894363"><ele>0.14</ele><time>2026-09-02T20:42:33Z</time></trkpt><trkpt lat="59.5587944984" lon="31.2668108940"><ele>0.14</ele><time>2026-09-02T20:42:35Z</time></trkpt><trkpt lat="59.5587730408" lon="31.2668323517"><ele>0.14</ele><time>2026-09-02T20:42:38Z</time></trkpt><trkpt lat="59.5587515831" lon="31.2668538094"><ele>0.14</ele><time>2026-09-02T20:42:40Z</time></trkpt><trkpt lat="59.5587515831" lon="31.2668752670"><ele>0.14</ele><time>2026-09-02T20:42:43Z</time></trkpt><trkpt lat="59.5587301254" lon="31.2669181824"><ele>0.14</ele><time>2026-09-02T20:42:45Z</time></trkpt><trkpt lat="59.5587086678" lon="31.2669396400"><ele>0.14</ele><time>2026-09-02T20:42:48Z</time></trkpt><trkpt lat="59.5586872101" lon="31.2669396400"><ele>0.14</ele><time>2026-09-02T20:42:50Z</time></trkpt><trkpt lat="59.5586872101" lon="31.2669610977"><ele>0.14</ele><time>2026-09-02T20:42:53Z</time></trkpt><trkpt lat="59.5586657524" lon="31.2669825554"><ele>0.14</ele><time>2026-09-02T20:42:55Z</time></trkpt><trkpt lat="59.5586657524" lon="31.2669825554"><ele>0.14</ele><time>2026-09-02T20:42:58Z</time></trkpt><trkpt lat="59.5586657524" lon="31.2670254707"><ele>0.14</ele><time>2026-09-02T20:43:00Z</time></trkpt><trkpt lat="59.5586442947" lon="31.2670898438"><ele>0.14</ele><time>2026-09-02T20:43:03Z</time></trkpt><trkpt lat="59.5586228371" lon="31.2671113014"><ele>0.14</ele><time>2026-09-02T20:43:05Z</time></trkpt><trkpt lat="59.5586013794" lon="31.2671542168"><ele>0.14</ele><time>2026-09-02T20:43:08Z</time></trkpt><trkpt lat="59.5585799217" lon="31.2671756744"><ele>0.14</ele><time>2026-09-02T20:43:10Z</time></trkpt><trkpt lat="59.5585799217" lon="31.2671756744"><ele>0.14</ele><time>2026-09-02T20:43:13Z</time></trkpt><trkpt lat="59.5585799217" lon="31.2671756744"><ele>0.14</ele><time>2026-09-02T20:43:15Z</time></trkpt><trkpt lat="59.5585584641" lon="31.2671542168"><ele>0.14</ele><time>2026-09-02T20:43:18Z</time></trkpt><trkpt lat="59.5585584641" lon="31.2671756744"><ele>0.14</ele><time>2026-09-02T20:43:20Z</time></trkpt><trkpt lat="59.5585370064" lon="31.2671756744"><ele>0.14</ele><time>2026-09-02T20:43:23Z</time></trkpt><trkpt lat="59.5585370064" lon="31.2671971321"><ele>0.14</ele><time>2026-09-02T20:43:25Z</time></trkpt><trkpt lat="59.5585155487" lon="31.2672185898"><ele>0.14</ele><time>2026-09-02T20:43:28Z</time></trkpt><trkpt lat="59.5585155487" lon="31.2672185898"><ele>0.14</ele><time>2026-09-02T20:43:30Z</time></trkpt><trkpt lat="59.5585155487" lon="31.2672400475"><ele>0.14</ele><time>2026-09-02T20:43:33Z</time></trkpt><trkpt lat="59.5585155487" lon="31.2672615051"><ele>0.14</ele><time>2026-09-02T20:43:35Z</time></trkpt><trkpt lat="59.5584940910" lon="31.2673044205"><ele>0.14</ele><time>2026-09-02T20:43:38Z</time></trkpt><trkpt lat="59.5584940910" lon="31.2673258781"><ele>0.14</ele><time>2026-09-02T20:43:40Z</time></trkpt><trkpt lat="59.5584940910" lon="31.2673687935"><ele>0.14</ele><time>2026-09-02T20:43:43Z</time></trkpt><trkpt lat="59.5584940910" lon="31.2673902512"><ele>0.14</ele><time>2026-09-02T20:43:45Z</time></trkpt><trkpt lat="59.5584726334" lon="31.2674331665"><ele>0.14</ele><time>2026-09-02T20:43:48Z</time></trkpt><trkpt lat="59.5584511757" lon="31.2674760818"><ele>0.14</ele><time>2026-09-02T20:43:50Z</time></trkpt><trkpt lat="59.5584511757" lon="31.2674975395"><ele>0.14</ele><time>2026-09-02T20:43:53Z</time></trkpt><trkpt lat="59.5584297180" lon="31.2675189972"><ele>0.14</ele><time>2026-09-02T20:43:55Z</time></trkpt><trkpt lat="59.5584082603" lon="31.2675404549"><ele>0.14</ele><time>2026-09-02T20:43:58Z</time></trkpt><trkpt lat="59.5584082603" lon="31.2675619125"><ele>0.14</ele><time>2026-09-02T20:44:00Z</time></trkpt><trkpt lat="59.5583868027" lon="31.2675619125"><ele>0.14</ele><time>2026-09-02T20:44:03Z</time></trkpt><trkpt lat="59.5583868027" lon="31.2675619125"><ele>0.14</ele><time>2026-09-02T20:44:05Z</time></trkpt><trkpt lat="59.5583868027" lon="31.2675404549"><ele>0.14</ele><time>2026-09-02T20:44:08Z</time></trkpt><trkpt lat="59.5583868027" lon="31.2675619125"><ele>0.14</ele><time>2026-09-02T20:44:10Z</time></trkpt><trkpt lat="59.5583653450" lon="31.2675619125"><ele>0.14</ele><time>2026-09-02T20:44:13Z</time></trkpt><trkpt lat="59.5583438873" lon="31.2676048279"><ele>0.14</ele><time>2026-09-02T20:44:15Z</time></trkpt><trkpt lat="59.5583224297" lon="31.2676262856"><ele>0.14</ele><time>2026-09-02T20:44:18Z</time></trkpt><trkpt lat="59.5583009720" lon="31.2676262856"><ele>0.14</ele><time>2026-09-02T20:44:20Z</time></trkpt><trkpt lat="59.5582795143" lon="31.2676262856"><ele>0.14</ele><time>2026-09-02T20:44:23Z</time></trkpt><trkpt lat="59.5582795143" lon="31.2676477432"><ele>0.14</ele><time>2026-09-02T20:44:25Z</time></trkpt><trkpt lat="59.5582795143" lon="31.2676692009"><ele>0.14</ele><time>2026-09-02T20:44:28Z</time></trkpt><trkpt lat="59.5582795143" lon="31.2677121162"><ele>0.14</ele><time>2026-09-02T20:44:30Z</time></trkpt><trkpt lat="59.5582795143" lon="31.2677335739"><ele>0.14</ele><time>2026-09-02T20:44:33Z</time></trkpt><trkpt lat="59.5582795143" lon="31.2677121162"><ele>0.14</ele><time>2026-09-02T20:44:35Z</time></trkpt><trkpt lat="59.5583009720" lon="31.2677764893"><ele>0.14</ele><time>2026-09-02T20:44:38Z</time></trkpt><trkpt lat="59.5582795143" lon="31.2677979469"><ele>0.14</ele><time>2026-09-02T20:44:40Z</time></trkpt><trkpt lat="59.5582365990" lon="31.2678194046"><ele>0.14</ele><time>2026-09-02T20:44:43Z</time></trkpt><trkpt lat="59.5581936836" lon="31.2678623199"><ele>0.14</ele><time>2026-09-02T20:44:45Z</time></trkpt><trkpt lat="59.5581722260" lon="31.2678837776"><ele>0.14</ele><time>2026-09-02T20:44:48Z</time></trkpt><trkpt lat="59.5581722260" lon="31.2679052353"><ele>0.14</ele><time>2026-09-02T20:44:50Z</time></trkpt><trkpt lat="59.5581507683" lon="31.2679266930"><ele>0.14</ele><time>2026-09-02T20:44:53Z</time></trkpt><trkpt lat="59.5581293106" lon="31.2679481506"><ele>0.14</ele><time>2026-09-02T20:44:55Z</time></trkpt><trkpt lat="59.5581293106" lon="31.2679910660"><ele>0.14</ele><time>2026-09-02T20:44:58Z</time></trkpt><trkpt lat="59.5581078529" lon="31.2680125237"><ele>0.14</ele><time>2026-09-02T20:45:00Z</time></trkpt><trkpt lat="59.5580863953" lon="31.2680125237"><ele>0.14</ele><time>2026-09-02T20:45:03Z</time></trkpt><trkpt lat="59.5580863953" lon="31.2680125237"><ele>0.14</ele><time>2026-09-02T20:45:05Z</time></trkpt><trkpt lat="59.5580649376" lon="31.2680125237"><ele>0.14</ele><time>2026-09-02T20:45:08Z</time></trkpt><trkpt lat="59.5580649376" lon="31.2680125237"><ele>0.14</ele><time>2026-09-02T20:45:10Z</time></trkpt><trkpt lat="59.5580434799" lon="31.2679910660"><ele>0.14</ele><time>2026-09-02T20:45:13Z</time></trkpt><trkpt lat="59.5580649376" lon="31.2680339813"><ele>0.14</ele><time>2026-09-02T20:45:15Z</time></trkpt><trkpt lat="59.5580649376" lon="31.2680339813"><ele>0.14</ele><time>2026-09-02T20:45:18Z</time></trkpt><trkpt lat="59.5580863953" lon="31.2680125237"><ele>0.14</ele><time>2026-09-02T20:45:20Z</time></trkpt><trkpt lat="59.5581507683" lon="31.2679910660"><ele>0.14</ele><time>2026-09-02T20:45:23Z</time></trkpt><trkpt lat="59.5582365990" lon="31.2679696083"><ele>0.14</ele><time>2026-09-02T20:45:25Z</time></trkpt><trkpt lat="59.5582365990" lon="31.2679696083"><ele>0.14</ele><time>2026-09-02T20:45:28Z</time></trkpt><trkpt lat="59.5582365990" lon="31.2679696083"><ele>0.14</ele><time>2026-09-02T20:45:30Z</time></trkpt><trkpt lat="59.5582365990" lon="31.2679696083"><ele>0.14</ele><time>2026-09-02T20:45:33Z</time></trkpt><trkpt lat="59.5582151413" lon="31.2679696083"><ele>0.14</ele><time>2026-09-02T20:45:35Z</time></trkpt><trkpt lat="59.5582151413" lon="31.2679910660"><ele>0.14</ele><time>2026-09-02T20:45:38Z</time></trkpt><trkpt lat="59.5582151413" lon="31.2679910660"><ele>0.14</ele><time>2026-09-02T20:45:40Z</time></trkpt><trkpt lat="59.5582151413" lon="31.2680125237"><ele>0.14</ele><time>2026-09-02T20:45:43Z</time></trkpt><trkpt lat="59.5582151413" lon="31.2680768967"><ele>0.14</ele><time>2026-09-02T20:45:45Z</time></trkpt><trkpt lat="59.5582151413" lon="31.2680768967"><ele>0.14</ele><time>2026-09-02T20:45:48Z</time></trkpt><trkpt lat="59.5582365990" lon="31.2680768967"><ele>0.14</ele><time>2026-09-02T20:45:50Z</time></trkpt><trkpt lat="59.5582365990" lon="31.2680768967"><ele>0.14</ele><time>2026-09-02T20:45:53Z</time></trkpt><trkpt lat="59.5582365990" lon="31.2681198120"><ele>0.14</ele><time>2026-09-02T20:45:55Z</time></trkpt><trkpt lat="59.5582365990" lon="31.2681198120"><ele>0.14</ele><time>2026-09-02T20:45:58Z</time></trkpt><trkpt lat="59.5582365990" lon="31.2681412697"><ele>0.14</ele><time>2026-09-02T20:46:00Z</time></trkpt><trkpt lat="59.5582151413" lon="31.2681412697"><ele>0.14</ele><time>2026-09-02T20:46:03Z</time></trkpt><trkpt lat="59.5582151413" lon="31.2681412697"><ele>0.14</ele><time>2026-09-02T20:46:05Z</time></trkpt><trkpt lat="59.5582151413" lon="31.2681412697"><ele>0.14</ele><time>2026-09-02T20:46:08Z</time></trkpt><trkpt lat="59.5582151413" lon="31.2681412697"><ele>0.14</ele><time>2026-09-02T20:46:10Z</time></trkpt><trkpt lat="59.5582151413" lon="31.2681412697"><ele>0.14</ele><time>2026-09-02T20:46:13Z</time></trkpt><trkpt lat="59.5582151413" lon="31.2681412697"><ele>0.14</ele><time>2026-09-02T20:46:15Z</time></trkpt><trkpt lat="59.5582151413" lon="31.2681412697"><ele>0.14</ele><time>2026-09-02T20:46:18Z</time></trkpt><trkpt lat="59.5582151413" lon="31.2681412697"><ele>0.14</ele><time>2026-09-02T20:46:20Z</time></trkpt><trkpt lat="59.5582151413" lon="31.2681841850"><ele>0.14</ele><time>2026-09-02T20:46:23Z</time></trkpt><trkpt lat="59.5581936836" lon="31.2682271004"><ele>0.14</ele><time>2026-09-02T20:46:25Z</time></trkpt><trkpt lat="59.5581722260" lon="31.2682485580"><ele>0.14</ele><time>2026-09-02T20:46:28Z</time></trkpt><trkpt lat="59.5581936836" lon="31.2682700157"><ele>0.14</ele><time>2026-09-02T20:46:30Z</time></trkpt><trkpt lat="59.5581936836" lon="31.2683558464"><ele>0.14</ele><time>2026-09-02T20:46:33Z</time></trkpt><trkpt lat="59.5581936836" lon="31.2683773041"><ele>0.14</ele><time>2026-09-02T20:46:35Z</time></trkpt><trkpt lat="59.5582151413" lon="31.2683987617"><ele>0.14</ele><time>2026-09-02T20:46:38Z</time></trkpt><trkpt lat="59.5582151413" lon="31.2683987617"><ele>0.14</ele><time>2026-09-02T20:46:40Z</time></trkpt><trkpt lat="59.5582365990" lon="31.2683987617"><ele>0.14</ele><time>2026-09-02T20:46:43Z</time></trkpt><trkpt lat="59.5582365990" lon="31.2683773041"><ele>0.14</ele><time>2026-09-02T20:46:45Z</time></trkpt><trkpt lat="59.5582580566" lon="31.2683987617"><ele>0.14</ele><time>2026-09-02T20:46:48Z</time></trkpt><trkpt lat="59.5582580566" lon="31.2684202194"><ele>0.14</ele><time>2026-09-02T20:46:50Z</time></trkpt><trkpt lat="59.5583009720" lon="31.2684416771"><ele>0.14</ele><time>2026-09-02T20:46:55Z</time></trkpt><trkpt lat="59.5583009720" lon="31.2684202194"><ele>0.14</ele><time>2026-09-02T20:46:58Z</time></trkpt><trkpt lat="59.5583009720" lon="31.2684416771"><ele>0.14</ele><time>2026-09-02T20:47:00Z</time></trkpt><trkpt lat="59.5583009720" lon="31.2684631348"><ele>0.14</ele><time>2026-09-02T20:47:03Z</time></trkpt><trkpt lat="59.5582795143" lon="31.2684631348"><ele>0.14</ele><time>2026-09-02T20:47:05Z</time></trkpt><trkpt lat="59.5582580566" lon="31.2684631348"><ele>0.14</ele><time>2026-09-02T20:47:08Z</time></trkpt><trkpt lat="59.5582580566" lon="31.2684416771"><ele>0.14</ele><time>2026-09-02T20:47:10Z</time></trkpt><trkpt lat="59.5582151413" lon="31.2684416771"><ele>0.14</ele><time>2026-09-02T20:47:13Z</time></trkpt><trkpt lat="59.5581722260" lon="31.2684202194"><ele>0.14</ele><time>2026-09-02T20:47:15Z</time></trkpt><trkpt lat="59.5581507683" lon="31.2684416771"><ele>0.14</ele><time>2026-09-02T20:47:18Z</time></trkpt><trkpt lat="59.5581078529" lon="31.2684416771"><ele>0.14</ele><time>2026-09-02T20:47:20Z</time></trkpt><trkpt lat="59.5580863953" lon="31.2684631348"><ele>0.14</ele><time>2026-09-02T20:47:23Z</time></trkpt><trkpt lat="59.5580863953" lon="31.2684845924"><ele>0.14</ele><time>2026-09-02T20:47:25Z</time></trkpt><trkpt lat="59.5580863953" lon="31.2684845924"><ele>0.14</ele><time>2026-09-02T20:47:28Z</time></trkpt><trkpt lat="59.5580649376" lon="31.2685060501"><ele>0.14</ele><time>2026-09-02T20:47:30Z</time></trkpt><trkpt lat="59.5580220222" lon="31.2684845924"><ele>0.14</ele><time>2026-09-02T20:47:33Z</time></trkpt><trkpt lat="59.5580005646" lon="31.2685060501"><ele>0.14</ele><time>2026-09-02T20:47:35Z</time></trkpt><trkpt lat="59.5580005646" lon="31.2685275078"><ele>0.14</ele><time>2026-09-02T20:47:38Z</time></trkpt><trkpt lat="59.5579791069" lon="31.2685060501"><ele>0.14</ele><time>2026-09-02T20:47:40Z</time></trkpt><trkpt lat="59.5579576492" lon="31.2685060501"><ele>0.14</ele><time>2026-09-02T20:47:43Z</time></trkpt><trkpt lat="59.5579576492" lon="31.2685060501"><ele>0.14</ele><time>2026-09-02T20:47:45Z</time></trkpt><trkpt lat="59.5579361916" lon="31.2684845924"><ele>0.14</ele><time>2026-09-02T20:47:48Z</time></trkpt><trkpt lat="59.5579361916" lon="31.2684631348"><ele>0.14</ele><time>2026-09-02T20:47:50Z</time></trkpt><trkpt lat="59.5579361916" lon="31.2684631348"><ele>0.14</ele><time>2026-09-02T20:47:53Z</time></trkpt><trkpt lat="59.5579361916" lon="31.2684631348"><ele>0.14</ele><time>2026-09-02T20:47:55Z</time></trkpt><trkpt lat="59.5579361916" lon="31.2684416771"><ele>0.14</ele><time>2026-09-02T20:47:58Z</time></trkpt><trkpt lat="59.5579361916" lon="31.2684631348"><ele>0.14</ele><time>2026-09-02T20:48:00Z</time></trkpt><trkpt lat="59.5579147339" lon="31.2684845924"><ele>0.14</ele><time>2026-09-02T20:48:03Z</time></trkpt><trkpt lat="59.5579361916" lon="31.2684845924"><ele>0.14</ele><time>2026-09-02T20:48:05Z</time></trkpt><trkpt lat="59.5579361916" lon="31.2684631348"><ele>0.14</ele><time>2026-09-02T20:48:08Z</time></trkpt><trkpt lat="59.5579361916" lon="31.2684416771"><ele>0.14</ele><time>2026-09-02T20:48:10Z</time></trkpt><trkpt lat="59.5579361916" lon="31.2684416771"><ele>0.14</ele><time>2026-09-02T20:48:13Z</time></trkpt><trkpt lat="59.5579361916" lon="31.2684631348"><ele>0.14</ele><time>2026-09-02T20:48:15Z</time></trkpt><trkpt lat="59.5579576492" lon="31.2684631348"><ele>0.14</ele><time>2026-09-02T20:48:18Z</time></trkpt><trkpt lat="59.5579361916" lon="31.2684631348"><ele>0.14</ele><time>2026-09-02T20:48:20Z</time></trkpt><trkpt lat="59.5578932762" lon="31.2684416771"><ele>0.14</ele><time>2026-09-02T20:48:23Z</time></trkpt><trkpt lat="59.5578718185" lon="31.2684416771"><ele>0.14</ele><time>2026-09-02T20:48:25Z</time></trkpt><trkpt lat="59.5578503609" lon="31.2684631348"><ele>0.14</ele><time>2026-09-02T20:48:28Z</time></trkpt><trkpt lat="59.5578503609" lon="31.2685060501"><ele>0.14</ele><time>2026-09-02T20:48:30Z</time></trkpt><trkpt lat="59.5578503609" lon="31.2685275078"><ele>0.14</ele><time>2026-09-02T20:48:33Z</time></trkpt><trkpt lat="59.5578503609" lon="31.2685275078"><ele>0.14</ele><time>2026-09-02T20:48:35Z</time></trkpt><trkpt lat="59.5578503609" lon="31.2685275078"><ele>0.14</ele><time>2026-09-02T20:48:38Z</time></trkpt><trkpt lat="59.5578503609" lon="31.2685489655"><ele>0.14</ele><time>2026-09-02T20:48:40Z</time></trkpt><trkpt lat="59.5578503609" lon="31.2685704231"><ele>0.14</ele><time>2026-09-02T20:48:43Z</time></trkpt><trkpt lat="59.5578718185" lon="31.2685704231"><ele>0.14</ele><time>2026-09-02T20:48:45Z</time></trkpt><trkpt lat="59.5578718185" lon="31.2685704231"><ele>0.14</ele><time>2026-09-02T20:48:48Z</time></trkpt><trkpt lat="59.5578718185" lon="31.2685704231"><ele>0.14</ele><time>2026-09-02T20:48:50Z</time></trkpt><trkpt lat="59.5578718185" lon="31.2685704231"><ele>0.14</ele><time>2026-09-02T20:48:53Z</time></trkpt><trkpt lat="59.5578718185" lon="31.2685704231"><ele>0.14</ele><time>2026-09-02T20:48:55Z</time></trkpt><trkpt lat="59.5578718185" lon="31.2685704231"><ele>0.14</ele><time>2026-09-02T20:48:58Z</time></trkpt><trkpt lat="59.5578718185" lon="31.2685704231"><ele>0.14</ele><time>2026-09-02T20:49:00Z</time></trkpt><trkpt lat="59.5578718185" lon="31.2686347961"><ele>0.14</ele><time>2026-09-02T20:49:03Z</time></trkpt><trkpt lat="59.5578932762" lon="31.2686777115"><ele>0.14</ele><time>2026-09-02T20:49:05Z</time></trkpt><trkpt lat="59.5578718185" lon="31.2687420845"><ele>0.14</ele><time>2026-09-02T20:49:08Z</time></trkpt><trkpt lat="59.5578718185" lon="31.2687635422"><ele>0.14</ele><time>2026-09-02T20:49:10Z</time></trkpt><trkpt lat="59.5578718185" lon="31.2688064575"><ele>0.14</ele><time>2026-09-02T20:49:13Z</time></trkpt><trkpt lat="59.5578503609" lon="31.2688279152"><ele>0.14</ele><time>2026-09-02T20:49:15Z</time></trkpt><trkpt lat="59.5578289032" lon="31.2688708305"><ele>0.14</ele><time>2026-09-02T20:49:18Z</time></trkpt><trkpt lat="59.5577859879" lon="31.2689137459"><ele>0.14</ele><time>2026-09-02T20:49:20Z</time></trkpt><trkpt lat="59.5577859879" lon="31.2689352036"><ele>0.14</ele><time>2026-09-02T20:49:23Z</time></trkpt><trkpt lat="59.5577645302" lon="31.2689352036"><ele>0.14</ele><time>2026-09-02T20:49:25Z</time></trkpt><trkpt lat="59.5577645302" lon="31.2689352036"><ele>0.14</ele><time>2026-09-02T20:49:28Z</time></trkpt><trkpt lat="59.5577430725" lon="31.2689566612"><ele>0.14</ele><time>2026-09-02T20:49:30Z</time></trkpt><trkpt lat="59.5577645302" lon="31.2689995766"><ele>0.14</ele><time>2026-09-02T20:49:33Z</time></trkpt><trkpt lat="59.5577430725" lon="31.2689995766"><ele>0.14</ele><time>2026-09-02T20:49:35Z</time></trkpt><trkpt lat="59.5577216148" lon="31.2689995766"><ele>0.14</ele><time>2026-09-02T20:49:38Z</time></trkpt><trkpt lat="59.5577216148" lon="31.2689781189"><ele>0.14</ele><time>2026-09-02T20:49:40Z</time></trkpt><trkpt lat="59.5577001572" lon="31.2689995766"><ele>0.14</ele><time>2026-09-02T20:49:43Z</time></trkpt><trkpt lat="59.5576786995" lon="31.2690210342"><ele>0.14</ele><time>2026-09-02T20:49:45Z</time></trkpt><trkpt lat="59.5576572418" lon="31.2690210342"><ele>0.14</ele><time>2026-09-02T20:49:48Z</time></trkpt><trkpt lat="59.5576357841" lon="31.2689995766"><ele>0.14</ele><time>2026-09-02T20:49:50Z</time></trkpt><trkpt lat="59.5576357841" lon="31.2689995766"><ele>0.14</ele><time>2026-09-02T20:49:53Z</time></trkpt><trkpt lat="59.5576357841" lon="31.2689566612"><ele>0.14</ele><time>2026-09-02T20:49:55Z</time></trkpt><trkpt lat="59.5576357841" lon="31.2689137459"><ele>0.14</ele><time>2026-09-02T20:49:58Z</time></trkpt><trkpt lat="59.5576357841" lon="31.2689137459"><ele>0.14</ele><time>2026-09-02T20:50:00Z</time></trkpt><trkpt lat="59.5576143265" lon="31.2689137459"><ele>0.14</ele><time>2026-09-02T20:50:03Z</time></trkpt><trkpt lat="59.5576143265" lon="31.2688922882"><ele>0.14</ele><time>2026-09-02T20:50:05Z</time></trkpt><trkpt lat="59.5576143265" lon="31.2688922882"><ele>0.14</ele><time>2026-09-02T20:50:08Z</time></trkpt><trkpt lat="59.5575928688" lon="31.2688708305"><ele>0.14</ele><time>2026-09-02T20:50:10Z</time></trkpt><trkpt lat="59.5575928688" lon="31.2688493729"><ele>0.14</ele><time>2026-09-02T20:50:13Z</time></trkpt><trkpt lat="59.5575928688" lon="31.2688064575"><ele>0.14</ele><time>2026-09-02T20:50:15Z</time></trkpt><trkpt lat="59.5575928688" lon="31.2688064575"><ele>0.14</ele><time>2026-09-02T20:50:18Z</time></trkpt><trkpt lat="59.5575714111" lon="31.2687635422"><ele>0.14</ele><time>2026-09-02T20:50:20Z</time></trkpt><trkpt lat="59.5575714111" lon="31.2687635422"><ele>0.14</ele><time>2026-09-02T20:50:23Z</time></trkpt><trkpt lat="59.5575499535" lon="31.2687420845"><ele>0.14</ele><time>2026-09-02T20:50:25Z</time></trkpt><trkpt lat="59.5575284958" lon="31.2687420845"><ele>0.14</ele><time>2026-09-02T20:50:28Z</time></trkpt><trkpt lat="59.5575070381" lon="31.2687420845"><ele>0.14</ele><time>2026-09-02T20:50:30Z</time></trkpt><trkpt lat="59.5574855804" lon="31.2687635422"><ele>0.14</ele><time>2026-09-02T20:50:33Z</time></trkpt><trkpt lat="59.5574855804" lon="31.2687635422"><ele>0.14</ele><time>2026-09-02T20:50:35Z</time></trkpt><trkpt lat="59.5574855804" lon="31.2687635422"><ele>0.14</ele><time>2026-09-02T20:50:38Z</time></trkpt><trkpt lat="59.5575070381" lon="31.2687635422"><ele>0.14</ele><time>2026-09-02T20:50:40Z</time></trkpt><trkpt lat="59.5575070381" lon="31.2687206268"><ele>0.14</ele><time>2026-09-02T20:50:43Z</time></trkpt><trkpt lat="59.5575284958" lon="31.2686991692"><ele>0.14</ele><time>2026-09-02T20:50:45Z</time></trkpt><trkpt lat="59.5575284958" lon="31.2686777115"><ele>0.14</ele><time>2026-09-02T20:50:48Z</time></trkpt><trkpt lat="59.5575284958" lon="31.2686562538"><ele>0.14</ele><time>2026-09-02T20:50:50Z</time></trkpt><trkpt lat="59.5575499535" lon="31.2686562538"><ele>0.14</ele><time>2026-09-02T20:50:53Z</time></trkpt><trkpt lat="59.5575284958" lon="31.2686347961"><ele>0.14</ele><time>2026-09-02T20:50:55Z</time></trkpt><trkpt lat="59.5575284958" lon="31.2686133385"><ele>0.14</ele><time>2026-09-02T20:50:58Z</time></trkpt><trkpt lat="59.5575284958" lon="31.2686133385"><ele>0.14</ele><time>2026-09-02T20:51:00Z</time></trkpt><trkpt lat="59.5575499535" lon="31.2685918808"><ele>0.14</ele><time>2026-09-02T20:51:03Z</time></trkpt><trkpt lat="59.5575499535" lon="31.2685918808"><ele>0.14</ele><time>2026-09-02T20:51:05Z</time></trkpt><trkpt lat="59.5575284958" lon="31.2685918808"><ele>0.14</ele><time>2026-09-02T20:51:08Z</time></trkpt><trkpt lat="59.5575284958" lon="31.2686133385"><ele>0.14</ele><time>2026-09-02T20:51:10Z</time></trkpt><trkpt lat="59.5575284958" lon="31.2686347961"><ele>0.14</ele><time>2026-09-02T20:51:13Z</time></trkpt><trkpt lat="59.5575070381" lon="31.2686991692"><ele>0.14</ele><time>2026-09-02T20:51:15Z</time></trkpt><trkpt lat="59.5575070381" lon="31.2687849998"><ele>0.14</ele><time>2026-09-02T20:51:18Z</time></trkpt><trkpt lat="59.5575070381" lon="31.2688493729"><ele>0.14</ele><time>2026-09-02T20:51:20Z</time></trkpt><trkpt lat="59.5574641228" lon="31.2688922882"><ele>0.14</ele><time>2026-09-02T20:51:23Z</time></trkpt><trkpt lat="59.5574212074" lon="31.2689352036"><ele>0.14</ele><time>2026-09-02T20:51:25Z</time></trkpt><trkpt lat="59.5574212074" lon="31.2689566612"><ele>0.14</ele><time>2026-09-02T20:51:28Z</time></trkpt><trkpt lat="59.5574212074" lon="31.2689995766"><ele>0.14</ele><time>2026-09-02T20:51:30Z</time></trkpt><trkpt lat="59.5574212074" lon="31.2690424919"><ele>0.14</ele><time>2026-09-02T20:51:33Z</time></trkpt><trkpt lat="59.5574212074" lon="31.2690424919"><ele>0.14</ele><time>2026-09-02T20:51:35Z</time></trkpt><trkpt lat="59.5573997498" lon="31.2690854073"><ele>0.14</ele><time>2026-09-02T20:51:38Z</time></trkpt><trkpt lat="59.5573782921" lon="31.2691283226"><ele>0.14</ele><time>2026-09-02T20:51:40Z</time></trkpt><trkpt lat="59.5573782921" lon="31.2691497803"><ele>0.14</ele><time>2026-09-02T20:51:43Z</time></trkpt><trkpt lat="59.5573568344" lon="31.2691712379"><ele>0.14</ele><time>2026-09-02T20:51:45Z</time></trkpt><trkpt lat="59.5573782921" lon="31.2692141533"><ele>0.14</ele><time>2026-09-02T20:51:48Z</time></trkpt><trkpt lat="59.5573782921" lon="31.2692785263"><ele>0.14</ele><time>2026-09-02T20:51:50Z</time></trkpt><trkpt lat="59.5573782921" lon="31.2693214417"><ele>0.14</ele><time>2026-09-02T20:51:53Z</time></trkpt><trkpt lat="59.5573568344" lon="31.2693643570"><ele>0.14</ele><time>2026-09-02T20:51:55Z</time></trkpt><trkpt lat="59.5573568344" lon="31.2693643570"><ele>0.14</ele><time>2026-09-02T20:51:58Z</time></trkpt><trkpt lat="59.5573353767" lon="31.2693643570"><ele>0.14</ele><time>2026-09-02T20:52:00Z</time></trkpt><trkpt lat="59.5573139191" lon="31.2693858147"><ele>0.14</ele><time>2026-09-02T20:52:03Z</time></trkpt><trkpt lat="59.5573139191" lon="31.2693643570"><ele>0.14</ele><time>2026-09-02T20:52:05Z</time></trkpt><trkpt lat="59.5573139191" lon="31.2693428993"><ele>0.14</ele><time>2026-09-02T20:52:08Z</time></trkpt><trkpt lat="59.5572924614" lon="31.2693214417"><ele>0.14</ele><time>2026-09-02T20:52:10Z</time></trkpt><trkpt lat="59.5573139191" lon="31.2693428993"><ele>0.14</ele><time>2026-09-02T20:52:13Z</time></trkpt><trkpt lat="59.5573139191" lon="31.2693643570"><ele>0.14</ele><time>2026-09-02T20:52:15Z</time></trkpt><trkpt lat="59.5573568344" lon="31.2694072723"><ele>0.14</ele><time>2026-09-02T20:52:18Z</time></trkpt><trkpt lat="59.5573782921" lon="31.2694287300"><ele>0.14</ele><time>2026-09-02T20:52:20Z</time></trkpt><trkpt lat="59.5573997498" lon="31.2694931030"><ele>0.14</ele><time>2026-09-02T20:52:23Z</time></trkpt><trkpt lat="59.5573782921" lon="31.2695360184"><ele>0.14</ele><time>2026-09-02T20:52:25Z</time></trkpt><trkpt lat="59.5573782921" lon="31.2695574760"><ele>0.14</ele><time>2026-09-02T20:52:28Z</time></trkpt><trkpt lat="59.5573782921" lon="31.2695574760"><ele>0.14</ele><time>2026-09-02T20:52:30Z</time></trkpt><trkpt lat="59.5573568344" lon="31.2695574760"><ele>0.14</ele><time>2026-09-02T20:52:33Z</time></trkpt><trkpt lat="59.5573568344" lon="31.2695789337"><ele>0.14</ele><time>2026-09-02T20:52:35Z</time></trkpt><trkpt lat="59.5573353767" lon="31.2696218491"><ele>0.14</ele><time>2026-09-02T20:52:38Z</time></trkpt><trkpt lat="59.5573139191" lon="31.2696218491"><ele>0.14</ele><time>2026-09-02T20:52:40Z</time></trkpt><trkpt lat="59.5573139191" lon="31.2696218491"><ele>0.14</ele><time>2026-09-02T20:52:43Z</time></trkpt><trkpt lat="59.5572924614" lon="31.2696433067"><ele>0.14</ele><time>2026-09-02T20:52:45Z</time></trkpt><trkpt lat="59.5572710037" lon="31.2696862221"><ele>0.14</ele><time>2026-09-02T20:52:48Z</time></trkpt><trkpt lat="59.5572710037" lon="31.2696647644"><ele>0.14</ele><time>2026-09-02T20:52:50Z</time></trkpt><trkpt lat="59.5572710037" lon="31.2696862221"><ele>0.14</ele><time>2026-09-02T20:52:53Z</time></trkpt><trkpt lat="59.5572495461" lon="31.2696647644"><ele>0.14</ele><time>2026-09-02T20:52:55Z</time></trkpt><trkpt lat="59.5572495461" lon="31.2696647644"><ele>0.14</ele><time>2026-09-02T20:52:58Z</time></trkpt><trkpt lat="59.5572710037" lon="31.2696647644"><ele>0.14</ele><time>2026-09-02T20:53:00Z</time></trkpt><trkpt lat="59.5572495461" lon="31.2696433067"><ele>0.14</ele><time>2026-09-02T20:53:03Z</time></trkpt><trkpt lat="59.5572495461" lon="31.2696433067"><ele>0.14</ele><time>2026-09-02T20:53:05Z</time></trkpt><trkpt lat="59.5572280884" lon="31.2696433067"><ele>0.14</ele><time>2026-09-02T20:53:08Z</time></trkpt><trkpt lat="59.5572495461" lon="31.2696433067"><ele>0.14</ele><time>2026-09-02T20:53:10Z</time></trkpt><trkpt lat="59.5572280884" lon="31.2696647644"><ele>0.14</ele><time>2026-09-02T20:53:13Z</time></trkpt><trkpt lat="59.5572066307" lon="31.2696647644"><ele>0.14</ele><time>2026-09-02T20:53:15Z</time></trkpt><trkpt lat="59.5572066307" lon="31.2697076797"><ele>0.14</ele><time>2026-09-02T20:53:18Z</time></trkpt><trkpt lat="59.5571851730" lon="31.2697076797"><ele>0.14</ele><time>2026-09-02T20:53:20Z</time></trkpt><trkpt lat="59.5571637154" lon="31.2696862221"><ele>0.14</ele><time>2026-09-02T20:53:23Z</time></trkpt><trkpt lat="59.5571637154" lon="31.2696647644"><ele>0.14</ele><time>2026-09-02T20:53:25Z</time></trkpt><trkpt lat="59.5571637154" lon="31.2696647644"><ele>0.14</ele><time>2026-09-02T20:53:28Z</time></trkpt><trkpt lat="59.5571637154" lon="31.2696862221"><ele>0.14</ele><time>2026-09-02T20:53:30Z</time></trkpt><trkpt lat="59.5571637154" lon="31.2697291374"><ele>0.14</ele><time>2026-09-02T20:53:33Z</time></trkpt><trkpt lat="59.5571637154" lon="31.2697720528"><ele>0.14</ele><time>2026-09-02T20:53:35Z</time></trkpt><trkpt lat="59.5571637154" lon="31.2698149681"><ele>0.14</ele><time>2026-09-02T20:53:38Z</time></trkpt><trkpt lat="59.5571637154" lon="31.2698578835"><ele>0.14</ele><time>2026-09-02T20:53:40Z</time></trkpt><trkpt lat="59.5571637154" lon="31.2699007988"><ele>0.14</ele><time>2026-09-02T20:53:43Z</time></trkpt><trkpt lat="59.5571637154" lon="31.2699007988"><ele>0.14</ele><time>2026-09-02T20:53:45Z</time></trkpt><trkpt lat="59.5571637154" lon="31.2699007988"><ele>0.14</ele><time>2026-09-02T20:53:48Z</time></trkpt><trkpt lat="59.5571422577" lon="31.2699007988"><ele>0.14</ele><time>2026-09-02T20:53:50Z</time></trkpt><trkpt lat="59.5571208000" lon="31.2699222565"><ele>0.14</ele><time>2026-09-02T20:53:53Z</time></trkpt><trkpt lat="59.5571208000" lon="31.2699437141"><ele>0.14</ele><time>2026-09-02T20:53:55Z</time></trkpt><trkpt lat="59.5570993423" lon="31.2699866295"><ele>0.14</ele><time>2026-09-02T20:53:58Z</time></trkpt><trkpt lat="59.5570993423" lon="31.2699866295"><ele>0.14</ele><time>2026-09-02T20:54:00Z</time></trkpt><trkpt lat="59.5570993423" lon="31.2699866295"><ele>0.14</ele><time>2026-09-02T20:54:03Z</time></trkpt><trkpt lat="59.5570993423" lon="31.2699866295"><ele>0.14</ele><time>2026-09-02T20:54:05Z</time></trkpt><trkpt lat="59.5571208000" lon="31.2699866295"><ele>0.14</ele><time>2026-09-02T20:54:08Z</time></trkpt><trkpt lat="59.5571422577" lon="31.2700080872"><ele>0.14</ele><time>2026-09-02T20:54:10Z</time></trkpt><trkpt lat="59.5571422577" lon="31.2700510025"><ele>0.14</ele><time>2026-09-02T20:54:13Z</time></trkpt><trkpt lat="59.5571422577" lon="31.2700510025"><ele>0.14</ele><time>2026-09-02T20:54:15Z</time></trkpt><trkpt lat="59.5571422577" lon="31.2700510025"><ele>0.14</ele><time>2026-09-02T20:54:18Z</time></trkpt><trkpt lat="59.5571422577" lon="31.2700510025"><ele>0.14</ele><time>2026-09-02T20:54:20Z</time></trkpt><trkpt lat="59.5571422577" lon="31.2700510025"><ele>0.14</ele><time>2026-09-02T20:54:23Z</time></trkpt><trkpt lat="59.5571422577" lon="31.2700510025"><ele>0.14</ele><time>2026-09-02T20:54:25Z</time></trkpt><trkpt lat="59.5571422577" lon="31.2700510025"><ele>0.14</ele><time>2026-09-02T20:54:28Z</time></trkpt><trkpt lat="59.5571422577" lon="31.2700510025"><ele>0.14</ele><time>2026-09-02T20:54:30Z</time></trkpt><trkpt lat="59.5571422577" lon="31.2700510025"><ele>0.14</ele><time>2026-09-02T20:54:33Z</time></trkpt><trkpt lat="59.5571422577" lon="31.2700510025"><ele>0.14</ele><time>2026-09-02T20:54:35Z</time></trkpt><trkpt lat="59.5571422577" lon="31.2700510025"><ele>0.14</ele><time>2026-09-02T20:54:38Z</time></trkpt><trkpt lat="59.5571422577" lon="31.2700510025"><ele>0.14</ele><time>2026-09-02T20:54:40Z</time></trkpt><trkpt lat="59.5571422577" lon="31.2700510025"><ele>0.14</ele><time>2026-09-02T20:54:43Z</time></trkpt><trkpt lat="59.5571422577" lon="31.2700510025"><ele>0.14</ele><time>2026-09-02T20:54:45Z</time></trkpt><trkpt lat="59.5571422577" lon="31.2700510025"><ele>0.14</ele><time>2026-09-02T20:54:48Z</time></trkpt><trkpt lat="59.5571422577" lon="31.2700510025"><ele>0.14</ele><time>2026-09-02T20:54:50Z</time></trkpt><trkpt lat="59.5571422577" lon="31.2700295448"><ele>0.14</ele><time>2026-09-02T20:54:53Z</time></trkpt><trkpt lat="59.5571422577" lon="31.2700295448"><ele>0.14</ele><time>2026-09-02T20:54:55Z</time></trkpt><trkpt lat="59.5571422577" lon="31.2700295448"><ele>0.14</ele><time>2026-09-02T20:54:58Z</time></trkpt><trkpt lat="59.5571422577" lon="31.2700295448"><ele>0.14</ele><time>2026-09-02T20:55:00Z</time></trkpt><trkpt lat="59.5571422577" lon="31.2700295448"><ele>0.14</ele><time>2026-09-02T20:55:03Z</time></trkpt><trkpt lat="59.5571422577" lon="31.2700295448"><ele>0.14</ele><time>2026-09-02T20:55:05Z</time></trkpt><trkpt lat="59.5571422577" lon="31.2700295448"><ele>0.14</ele><time>2026-09-02T20:55:08Z</time></trkpt><trkpt lat="59.5571422577" lon="31.2700295448"><ele>0.14</ele><time>2026-09-02T20:55:13Z</time></trkpt><trkpt lat="59.5571422577" lon="31.2700295448"><ele>0.14</ele><time>2026-09-02T20:55:15Z</time></trkpt><trkpt lat="59.5571422577" lon="31.2700295448"><ele>0.14</ele><time>2026-09-02T20:55:18Z</time></trkpt><trkpt lat="59.5571422577" lon="31.2700295448"><ele>0.14</ele><time>2026-09-02T20:55:20Z</time></trkpt><trkpt lat="59.5571208000" lon="31.2700510025"><ele>0.14</ele><time>2026-09-02T20:55:23Z</time></trkpt><trkpt lat="59.5571208000" lon="31.2700510025"><ele>0.14</ele><time>2026-09-02T20:55:25Z</time></trkpt><trkpt lat="59.5570778847" lon="31.2700724602"><ele>0.14</ele><time>2026-09-02T20:55:28Z</time></trkpt><trkpt lat="59.5570564270" lon="31.2700724602"><ele>0.14</ele><time>2026-09-02T20:55:30Z</time></trkpt><trkpt lat="59.5570135117" lon="31.2700510025"><ele>0.14</ele><time>2026-09-02T20:55:33Z</time></trkpt><trkpt lat="59.5569920540" lon="31.2700510025"><ele>0.14</ele><time>2026-09-02T20:55:35Z</time></trkpt><trkpt lat="59.5569920540" lon="31.2700510025"><ele>0.14</ele><time>2026-09-02T20:55:38Z</time></trkpt><trkpt lat="59.5569920540" lon="31.2700510025"><ele>0.14</ele><time>2026-09-02T20:55:40Z</time></trkpt><trkpt lat="59.5569705963" lon="31.2699866295"><ele>0.14</ele><time>2026-09-02T20:55:43Z</time></trkpt><trkpt lat="59.5569491386" lon="31.2699651718"><ele>0.14</ele><time>2026-09-02T20:55:45Z</time></trkpt><trkpt lat="59.5569062233" lon="31.2699651718"><ele>0.14</ele><time>2026-09-02T20:55:48Z</time></trkpt><trkpt lat="59.5568847656" lon="31.2699866295"><ele>0.14</ele><time>2026-09-02T20:55:50Z</time></trkpt><trkpt lat="59.5568418503" lon="31.2699866295"><ele>0.14</ele><time>2026-09-02T20:55:53Z</time></trkpt><trkpt lat="59.5568418503" lon="31.2699866295"><ele>0.14</ele><time>2026-09-02T20:55:55Z</time></trkpt><trkpt lat="59.5567989349" lon="31.2700510025"><ele>0.14</ele><time>2026-09-02T20:55:58Z</time></trkpt><trkpt lat="59.5567560196" lon="31.2700939178"><ele>0.14</ele><time>2026-09-02T20:56:00Z</time></trkpt><trkpt lat="59.5567345619" lon="31.2701153755"><ele>0.14</ele><time>2026-09-02T20:56:03Z</time></trkpt><trkpt lat="59.5567345619" lon="31.2701368332"><ele>0.14</ele><time>2026-09-02T20:56:05Z</time></trkpt><trkpt lat="59.5567131042" lon="31.2701153755"><ele>0.14</ele><time>2026-09-02T20:56:08Z</time></trkpt><trkpt lat="59.5566916466" lon="31.2700939178"><ele>0.14</ele><time>2026-09-02T20:56:10Z</time></trkpt><trkpt lat="59.5566916466" lon="31.2700295448"><ele>0.14</ele><time>2026-09-02T20:56:13Z</time></trkpt><trkpt lat="59.5566916466" lon="31.2699437141"><ele>0.14</ele><time>2026-09-02T20:56:15Z</time></trkpt><trkpt lat="59.5566916466" lon="31.2699437141"><ele>0.14</ele><time>2026-09-02T20:56:18Z</time></trkpt><trkpt lat="59.5566916466" lon="31.2699007988"><ele>0.14</ele><time>2026-09-02T20:56:20Z</time></trkpt><trkpt lat="59.5567345619" lon="31.2697935104"><ele>0.14</ele><time>2026-09-02T20:56:23Z</time></trkpt><trkpt lat="59.5567345619" lon="31.2697076797"><ele>0.14</ele><time>2026-09-02T20:56:25Z</time></trkpt><trkpt lat="59.5567131042" lon="31.2696647644"><ele>0.14</ele><time>2026-09-02T20:56:28Z</time></trkpt><trkpt lat="59.5567131042" lon="31.2696433067"><ele>0.14</ele><time>2026-09-02T20:56:30Z</time></trkpt><trkpt lat="59.5567131042" lon="31.2696218491"><ele>0.14</ele><time>2026-09-02T20:56:33Z</time></trkpt><trkpt lat="59.5567345619" lon="31.2695789337"><ele>0.14</ele><time>2026-09-02T20:56:35Z</time></trkpt><trkpt lat="59.5567345619" lon="31.2695360184"><ele>0.14</ele><time>2026-09-02T20:56:38Z</time></trkpt><trkpt lat="59.5567345619" lon="31.2695145607"><ele>0.14</ele><time>2026-09-02T20:56:40Z</time></trkpt><trkpt lat="59.5567345619" lon="31.2694931030"><ele>0.14</ele><time>2026-09-02T20:56:43Z</time></trkpt><trkpt lat="59.5567131042" lon="31.2694931030"><ele>0.14</ele><time>2026-09-02T20:56:45Z</time></trkpt><trkpt lat="59.5567131042" lon="31.2694716454"><ele>0.14</ele><time>2026-09-02T20:56:48Z</time></trkpt><trkpt lat="59.5567345619" lon="31.2694716454"><ele>0.14</ele><time>2026-09-02T20:56:50Z</time></trkpt><trkpt lat="59.5567345619" lon="31.2694716454"><ele>0.14</ele><time>2026-09-02T20:56:53Z</time></trkpt><trkpt lat="59.5567345619" lon="31.2694716454"><ele>0.14</ele><time>2026-09-02T20:56:55Z</time></trkpt><trkpt lat="59.5567345619" lon="31.2694716454"><ele>0.14</ele><time>2026-09-02T20:56:58Z</time></trkpt><trkpt lat="59.5567345619" lon="31.2694716454"><ele>0.14</ele><time>2026-09-02T20:57:00Z</time></trkpt><trkpt lat="59.5567345619" lon="31.2694287300"><ele>0.14</ele><time>2026-09-02T20:57:03Z</time></trkpt><trkpt lat="59.5567345619" lon="31.2693428993"><ele>0.14</ele><time>2026-09-02T20:57:05Z</time></trkpt><trkpt lat="59.5567345619" lon="31.2692141533"><ele>0.14</ele><time>2026-09-02T20:57:08Z</time></trkpt><trkpt lat="59.5567131042" lon="31.2691497803"><ele>0.14</ele><time>2026-09-02T20:57:10Z</time></trkpt><trkpt lat="59.5566701889" lon="31.2690854073"><ele>0.14</ele><time>2026-09-02T20:57:13Z</time></trkpt><trkpt lat="59.5566272736" lon="31.2691068649"><ele>0.14</ele><time>2026-09-02T20:57:15Z</time></trkpt><trkpt lat="59.5566272736" lon="31.2692356110"><ele>0.14</ele><time>2026-09-02T20:57:18Z</time></trkpt><trkpt lat="59.5566058159" lon="31.2692785263"><ele>0.14</ele><time>2026-09-02T20:57:20Z</time></trkpt><trkpt lat="59.5566058159" lon="31.2692570686"><ele>0.14</ele><time>2026-09-02T20:57:23Z</time></trkpt><trkpt lat="59.5565843582" lon="31.2691712379"><ele>0.14</ele><time>2026-09-02T20:57:25Z</time></trkpt><trkpt lat="59.5565843582" lon="31.2690854073"><ele>0.14</ele><time>2026-09-02T20:57:28Z</time></trkpt><trkpt lat="59.5565843582" lon="31.2690210342"><ele>0.14</ele><time>2026-09-02T20:57:30Z</time></trkpt><trkpt lat="59.5565629005" lon="31.2689781189"><ele>0.14</ele><time>2026-09-02T20:57:33Z</time></trkpt><trkpt lat="59.5565414429" lon="31.2689566612"><ele>0.14</ele><time>2026-09-02T20:57:35Z</time></trkpt><trkpt lat="59.5565414429" lon="31.2689137459"><ele>0.14</ele><time>2026-09-02T20:57:38Z</time></trkpt><trkpt lat="59.5565199852" lon="31.2688708305"><ele>0.14</ele><time>2026-09-02T20:57:40Z</time></trkpt><trkpt lat="59.5564985275" lon="31.2687635422"><ele>0.14</ele><time>2026-09-02T20:57:43Z</time></trkpt><trkpt lat="59.5565199852" lon="31.2686991692"><ele>0.14</ele><time>2026-09-02T20:57:45Z</time></trkpt><trkpt lat="59.5565414429" lon="31.2686347961"><ele>0.14</ele><time>2026-09-02T20:57:48Z</time></trkpt><trkpt lat="59.5565629005" lon="31.2685704231"><ele>0.14</ele><time>2026-09-02T20:57:50Z</time></trkpt><trkpt lat="59.5565843582" lon="31.2684845924"><ele>0.14</ele><time>2026-09-02T20:57:53Z</time></trkpt><trkpt lat="59.5565843582" lon="31.2683773041"><ele>0.14</ele><time>2026-09-02T20:57:55Z</time></trkpt><trkpt lat="59.5566058159" lon="31.2682914734"><ele>0.14</ele><time>2026-09-02T20:57:58Z</time></trkpt><trkpt lat="59.5566058159" lon="31.2682485580"><ele>0.14</ele><time>2026-09-02T20:58:00Z</time></trkpt><trkpt lat="59.5566272736" lon="31.2681198120"><ele>0.14</ele><time>2026-09-02T20:58:03Z</time></trkpt><trkpt lat="59.5566272736" lon="31.2680125237"><ele>0.14</ele><time>2026-09-02T20:58:05Z</time></trkpt><trkpt lat="59.5566272736" lon="31.2679696083"><ele>0.14</ele><time>2026-09-02T20:58:08Z</time></trkpt><trkpt lat="59.5566058159" lon="31.2679052353"><ele>0.14</ele><time>2026-09-02T20:58:10Z</time></trkpt><trkpt lat="59.5565414429" lon="31.2678837776"><ele>0.14</ele><time>2026-09-02T20:58:13Z</time></trkpt><trkpt lat="59.5565414429" lon="31.2679266930"><ele>0.14</ele><time>2026-09-02T20:58:15Z</time></trkpt><trkpt lat="59.5565199852" lon="31.2679910660"><ele>0.14</ele><time>2026-09-02T20:58:18Z</time></trkpt><trkpt lat="59.5564985275" lon="31.2680768967"><ele>0.14</ele><time>2026-09-02T20:58:20Z</time></trkpt><trkpt lat="59.5564556122" lon="31.2681198120"><ele>0.14</ele><time>2026-09-02T20:58:23Z</time></trkpt><trkpt lat="59.5564556122" lon="31.2682056427"><ele>0.14</ele><time>2026-09-02T20:58:25Z</time></trkpt><trkpt lat="59.5564770699" lon="31.2682914734"><ele>0.14</ele><time>2026-09-02T20:58:28Z</time></trkpt><trkpt lat="59.5564770699" lon="31.2683987617"><ele>0.14</ele><time>2026-09-02T20:58:30Z</time></trkpt><trkpt lat="59.5565199852" lon="31.2685060501"><ele>0.14</ele><time>2026-09-02T20:58:33Z</time></trkpt><trkpt lat="59.5565199852" lon="31.2685918808"><ele>0.14</ele><time>2026-09-02T20:58:35Z</time></trkpt><trkpt lat="59.5565199852" lon="31.2686991692"><ele>0.14</ele><time>2026-09-02T20:58:38Z</time></trkpt><trkpt lat="59.5565629005" lon="31.2687635422"><ele>0.14</ele><time>2026-09-02T20:58:40Z</time></trkpt><trkpt lat="59.5566058159" lon="31.2688922882"><ele>0.14</ele><time>2026-09-02T20:58:43Z</time></trkpt><trkpt lat="59.5566487312" lon="31.2690210342"><ele>0.14</ele><time>2026-09-02T20:58:45Z</time></trkpt><trkpt lat="59.5566487312" lon="31.2691283226"><ele>0.14</ele><time>2026-09-02T20:58:48Z</time></trkpt><trkpt lat="59.5566272736" lon="31.2692570686"><ele>0.14</ele><time>2026-09-02T20:58:50Z</time></trkpt><trkpt lat="59.5566487312" lon="31.2693858147"><ele>0.14</ele><time>2026-09-02T20:58:53Z</time></trkpt><trkpt lat="59.5566916466" lon="31.2694501877"><ele>0.14</ele><time>2026-09-02T20:58:55Z</time></trkpt><trkpt lat="59.5566701889" lon="31.2694501877"><ele>0.14</ele><time>2026-09-02T20:58:58Z</time></trkpt><trkpt lat="59.5566701889" lon="31.2694716454"><ele>0.14</ele><time>2026-09-02T20:59:00Z</time></trkpt><trkpt lat="59.5566916466" lon="31.2694716454"><ele>0.14</ele><time>2026-09-02T20:59:03Z</time></trkpt><trkpt lat="59.5566916466" lon="31.2694716454"><ele>0.14</ele><time>2026-09-02T20:59:05Z</time></trkpt><trkpt lat="59.5566701889" lon="31.2694716454"><ele>0.14</ele><time>2026-09-02T20:59:08Z</time></trkpt><trkpt lat="59.5566701889" lon="31.2694931030"><ele>0.14</ele><time>2026-09-02T20:59:10Z</time></trkpt><trkpt lat="59.5566701889" lon="31.2695145607"><ele>0.14</ele><time>2026-09-02T20:59:13Z</time></trkpt><trkpt lat="59.5566701889" lon="31.2695145607"><ele>0.14</ele><time>2026-09-02T20:59:15Z</time></trkpt><trkpt lat="59.5566701889" lon="31.2695145607"><ele>0.14</ele><time>2026-09-02T20:59:18Z</time></trkpt><trkpt lat="59.5566701889" lon="31.2695145607"><ele>0.14</ele><time>2026-09-02T20:59:20Z</time></trkpt><trkpt lat="59.5566701889" lon="31.2695145607"><ele>0.14</ele><time>2026-09-02T20:59:23Z</time></trkpt><trkpt lat="59.5566701889" lon="31.2695145607"><ele>0.14</ele><time>2026-09-02T20:59:25Z</time></trkpt><trkpt lat="59.5566701889" lon="31.2695145607"><ele>0.14</ele><time>2026-09-02T20:59:28Z</time></trkpt><trkpt lat="59.5566701889" lon="31.2695145607"><ele>0.14</ele><time>2026-09-02T20:59:30Z</time></trkpt><trkpt lat="59.5566487312" lon="31.2695145607"><ele>0.14</ele><time>2026-09-02T20:59:33Z</time></trkpt><trkpt lat="59.5566272736" lon="31.2695360184"><ele>0.14</ele><time>2026-09-02T20:59:35Z</time></trkpt><trkpt lat="59.5566058159" lon="31.2695360184"><ele>0.14</ele><time>2026-09-02T20:59:38Z</time></trkpt><trkpt lat="59.5566058159" lon="31.2695574760"><ele>0.14</ele><time>2026-09-02T20:59:40Z</time></trkpt><trkpt lat="59.5566058159" lon="31.2695574760"><ele>0.14</ele><time>2026-09-02T20:59:43Z</time></trkpt><trkpt lat="59.5566058159" lon="31.2695574760"><ele>0.14</ele><time>2026-09-02T20:59:45Z</time></trkpt><trkpt lat="59.5566058159" lon="31.2695574760"><ele>0.14</ele><time>2026-09-02T20:59:48Z</time></trkpt><trkpt lat="59.5566058159" lon="31.2695789337"><ele>0.14</ele><time>2026-09-02T20:59:50Z</time></trkpt><trkpt lat="59.5566058159" lon="31.2695789337"><ele>0.14</ele><time>2026-09-02T20:59:53Z</time></trkpt><trkpt lat="59.5566058159" lon="31.2695789337"><ele>0.14</ele><time>2026-09-02T20:59:55Z</time></trkpt><trkpt lat="59.5566058159" lon="31.2696003914"><ele>0.14</ele><time>2026-09-02T20:59:58Z</time></trkpt><trkpt lat="59.5566272736" lon="31.2696218491"><ele>0.14</ele><time>2026-09-02T21:00:00Z</time></trkpt><trkpt lat="59.5566272736" lon="31.2696218491"><ele>0.14</ele><time>2026-09-02T21:00:03Z</time></trkpt><trkpt lat="59.5566487312" lon="31.2696218491"><ele>0.14</ele><time>2026-09-02T21:00:05Z</time></trkpt><trkpt lat="59.5566487312" lon="31.2696218491"><ele>0.14</ele><time>2026-09-02T21:00:08Z</time></trkpt><trkpt lat="59.5566487312" lon="31.2696218491"><ele>0.14</ele><time>2026-09-02T21:00:10Z</time></trkpt><trkpt lat="59.5566701889" lon="31.2696218491"><ele>0.14</ele><time>2026-09-02T21:00:13Z</time></trkpt><trkpt lat="59.5566701889" lon="31.2696218491"><ele>0.14</ele><time>2026-09-02T21:00:15Z</time></trkpt><trkpt lat="59.5566701889" lon="31.2696218491"><ele>0.14</ele><time>2026-09-02T21:00:18Z</time></trkpt><trkpt lat="59.5566701889" lon="31.2696218491"><ele>0.14</ele><time>2026-09-02T21:00:20Z</time></trkpt><trkpt lat="59.5566701889" lon="31.2696003914"><ele>0.14</ele><time>2026-09-02T21:00:23Z</time></trkpt><trkpt lat="59.5566916466" lon="31.2695789337"><ele>0.14</ele><time>2026-09-02T21:00:25Z</time></trkpt><trkpt lat="59.5567131042" lon="31.2695789337"><ele>0.14</ele><time>2026-09-02T21:00:28Z</time></trkpt><trkpt lat="59.5567345619" lon="31.2695789337"><ele>0.14</ele><time>2026-09-02T21:00:30Z</time></trkpt><trkpt lat="59.5567560196" lon="31.2695789337"><ele>0.14</ele><time>2026-09-02T21:00:33Z</time></trkpt><trkpt lat="59.5567560196" lon="31.2696003914"><ele>0.14</ele><time>2026-09-02T21:00:35Z</time></trkpt><trkpt lat="59.5567345619" lon="31.2696003914"><ele>0.14</ele><time>2026-09-02T21:00:38Z</time></trkpt><trkpt lat="59.5567345619" lon="31.2696218491"><ele>0.14</ele><time>2026-09-02T21:00:40Z</time></trkpt><trkpt lat="59.5567345619" lon="31.2696218491"><ele>0.14</ele><time>2026-09-02T21:00:43Z</time></trkpt><trkpt lat="59.5567560196" lon="31.2696647644"><ele>0.14</ele><time>2026-09-02T21:00:45Z</time></trkpt><trkpt lat="59.5567560196" lon="31.2696647644"><ele>0.14</ele><time>2026-09-02T21:00:48Z</time></trkpt><trkpt lat="59.5567560196" lon="31.2696647644"><ele>0.14</ele><time>2026-09-02T21:00:50Z</time></trkpt><trkpt lat="59.5567345619" lon="31.2696647644"><ele>0.14</ele><time>2026-09-02T21:00:53Z</time></trkpt><trkpt lat="59.5567131042" lon="31.2696647644"><ele>0.14</ele><time>2026-09-02T21:00:55Z</time></trkpt><trkpt lat="59.5567131042" lon="31.2696647644"><ele>0.14</ele><time>2026-09-02T21:00:58Z</time></trkpt><trkpt lat="59.5567131042" lon="31.2696433067"><ele>0.14</ele><time>2026-09-02T21:01:00Z</time></trkpt><trkpt lat="59.5567131042" lon="31.2696433067"><ele>0.14</ele><time>2026-09-02T21:01:03Z</time></trkpt><trkpt lat="59.5567131042" lon="31.2696433067"><ele>0.14</ele><time>2026-09-02T21:01:05Z</time></trkpt><trkpt lat="59.5567131042" lon="31.2696218491"><ele>0.14</ele><time>2026-09-02T21:01:08Z</time></trkpt><trkpt lat="59.5567131042" lon="31.2696218491"><ele>0.14</ele><time>2026-09-02T21:01:10Z</time></trkpt><trkpt lat="59.5567131042" lon="31.2696218491"><ele>0.14</ele><time>2026-09-02T21:01:13Z</time></trkpt><trkpt lat="59.5567131042" lon="31.2696218491"><ele>0.14</ele><time>2026-09-02T21:01:15Z</time></trkpt><trkpt lat="59.5567131042" lon="31.2696218491"><ele>0.14</ele><time>2026-09-02T21:01:18Z</time></trkpt><trkpt lat="59.5567131042" lon="31.2696218491"><ele>0.14</ele><time>2026-09-02T21:01:20Z</time></trkpt><trkpt lat="59.5567131042" lon="31.2696218491"><ele>0.14</ele><time>2026-09-02T21:01:23Z</time></trkpt><trkpt lat="59.5567131042" lon="31.2696003914"><ele>0.14</ele><time>2026-09-02T21:01:25Z</time></trkpt><trkpt lat="59.5567131042" lon="31.2696003914"><ele>0.14</ele><time>2026-09-02T21:01:28Z</time></trkpt><trkpt lat="59.5566916466" lon="31.2696003914"><ele>0.14</ele><time>2026-09-02T21:01:30Z</time></trkpt><trkpt lat="59.5567131042" lon="31.2696003914"><ele>0.14</ele><time>2026-09-02T21:01:33Z</time></trkpt><trkpt lat="59.5567131042" lon="31.2696003914"><ele>0.14</ele><time>2026-09-02T21:01:35Z</time></trkpt><trkpt lat="59.5567131042" lon="31.2696003914"><ele>0.14</ele><time>2026-09-02T21:01:38Z</time></trkpt><trkpt lat="59.5567131042" lon="31.2696003914"><ele>0.14</ele><time>2026-09-02T21:01:40Z</time></trkpt><trkpt lat="59.5567131042" lon="31.2696003914"><ele>0.14</ele><time>2026-09-02T21:01:43Z</time></trkpt><trkpt lat="59.5567131042" lon="31.2696003914"><ele>0.14</ele><time>2026-09-02T21:01:45Z</time></trkpt><trkpt lat="59.5567131042" lon="31.2696003914"><ele>0.14</ele><time>2026-09-02T21:01:48Z</time></trkpt><trkpt lat="59.5567131042" lon="31.2696003914"><ele>0.14</ele><time>2026-09-02T21:01:50Z</time></trkpt><trkpt lat="59.5567131042" lon="31.2696003914"><ele>0.14</ele><time>2026-09-02T21:01:53Z</time></trkpt><trkpt lat="59.5567131042" lon="31.2696003914"><ele>0.14</ele><time>2026-09-02T21:01:55Z</time></trkpt><trkpt lat="59.5567131042" lon="31.2696003914"><ele>0.14</ele><time>2026-09-02T21:01:58Z</time></trkpt><trkpt lat="59.5567131042" lon="31.2696003914"><ele>0.14</ele><time>2026-09-02T21:02:00Z</time></trkpt><trkpt lat="59.5567131042" lon="31.2696003914"><ele>0.14</ele><time>2026-09-02T21:02:03Z</time></trkpt><trkpt lat="59.5567131042" lon="31.2696003914"><ele>0.14</ele><time>2026-09-02T21:02:05Z</time></trkpt><trkpt lat="59.5567131042" lon="31.2696003914"><ele>0.14</ele><time>2026-09-02T21:02:08Z</time></trkpt><trkpt lat="59.5567131042" lon="31.2696003914"><ele>0.14</ele><time>2026-09-02T21:02:10Z</time></trkpt><trkpt lat="59.5567131042" lon="31.2696003914"><ele>0.14</ele><time>2026-09-02T21:02:13Z</time></trkpt><trkpt lat="59.5567131042" lon="31.2696003914"><ele>0.14</ele><time>2026-09-02T21:02:15Z</time></trkpt><trkpt lat="59.5567131042" lon="31.2696003914"><ele>0.14</ele><time>2026-09-02T21:02:18Z</time></trkpt><trkpt lat="59.5567131042" lon="31.2696003914"><ele>0.14</ele><time>2026-09-02T21:02:20Z</time></trkpt><trkpt lat="59.5567131042" lon="31.2696003914"><ele>0.14</ele><time>2026-09-02T21:02:23Z</time></trkpt><trkpt lat="59.5567131042" lon="31.2696003914"><ele>0.14</ele><time>2026-09-02T21:02:25Z</time></trkpt><trkpt lat="59.5567131042" lon="31.2696003914"><ele>0.14</ele><time>2026-09-02T21:02:28Z</time></trkpt><trkpt lat="59.5567131042" lon="31.2696003914"><ele>0.14</ele><time>2026-09-02T21:02:30Z</time></trkpt><trkpt lat="59.5567131042" lon="31.2696003914"><ele>0.14</ele><time>2026-09-02T21:02:33Z</time></trkpt><trkpt lat="59.5567131042" lon="31.2696003914"><ele>0.14</ele><time>2026-09-02T21:02:35Z</time></trkpt><trkpt lat="59.5567131042" lon="31.2695789337"><ele>0.14</ele><time>2026-09-02T21:02:38Z</time></trkpt><trkpt lat="59.5567131042" lon="31.2695789337"><ele>0.14</ele><time>2026-09-02T21:02:40Z</time></trkpt><trkpt lat="59.5567345619" lon="31.2695789337"><ele>0.14</ele><time>2026-09-02T21:02:43Z</time></trkpt><trkpt lat="59.5567345619" lon="31.2695789337"><ele>0.14</ele><time>2026-09-02T21:02:45Z</time></trkpt><trkpt lat="59.5567345619" lon="31.2695789337"><ele>0.14</ele><time>2026-09-02T21:02:48Z</time></trkpt><trkpt lat="59.5567345619" lon="31.2695789337"><ele>0.14</ele><time>2026-09-02T21:02:50Z</time></trkpt><trkpt lat="59.5567345619" lon="31.2695574760"><ele>0.14</ele><time>2026-09-02T21:02:53Z</time></trkpt><trkpt lat="59.5567345619" lon="31.2695574760"><ele>0.14</ele><time>2026-09-02T21:02:55Z</time></trkpt><trkpt lat="59.5567345619" lon="31.2695574760"><ele>0.14</ele><time>2026-09-02T21:02:58Z</time></trkpt><trkpt lat="59.5567345619" lon="31.2695574760"><ele>0.14</ele><time>2026-09-02T21:03:00Z</time></trkpt><trkpt lat="59.5567345619" lon="31.2695574760"><ele>0.14</ele><time>2026-09-02T21:03:03Z</time></trkpt><trkpt lat="59.5567345619" lon="31.2695574760"><ele>0.14</ele><time>2026-09-02T21:03:05Z</time></trkpt><trkpt lat="59.5567345619" lon="31.2695574760"><ele>0.14</ele><time>2026-09-02T21:03:08Z</time></trkpt><trkpt lat="59.5567345619" lon="31.2695574760"><ele>0.14</ele><time>2026-09-02T21:03:10Z</time></trkpt><trkpt lat="59.5567345619" lon="31.2695574760"><ele>0.14</ele><time>2026-09-02T21:03:13Z</time></trkpt><trkpt lat="59.5567345619" lon="31.2695574760"><ele>0.14</ele><time>2026-09-02T21:03:15Z</time></trkpt><trkpt lat="59.5567345619" lon="31.2695574760"><ele>0.14</ele><time>2026-09-02T21:03:18Z</time></trkpt><trkpt lat="59.5567345619" lon="31.2695574760"><ele>0.14</ele><time>2026-09-02T21:03:20Z</time></trkpt><trkpt lat="59.5567345619" lon="31.2695574760"><ele>0.14</ele><time>2026-09-02T21:03:23Z</time></trkpt><trkpt lat="59.5567345619" lon="31.2695574760"><ele>0.14</ele><time>2026-09-02T21:03:25Z</time></trkpt><trkpt lat="59.5567345619" lon="31.2695574760"><ele>0.14</ele><time>2026-09-02T21:03:28Z</time></trkpt><trkpt lat="59.5567345619" lon="31.2695574760"><ele>0.14</ele><time>2026-09-02T21:03:30Z</time></trkpt><trkpt lat="59.5567345619" lon="31.2695574760"><ele>0.14</ele><time>2026-09-02T21:03:33Z</time></trkpt><trkpt lat="59.5567345619" lon="31.2695574760"><ele>0.14</ele><time>2026-09-02T21:03:35Z</time></trkpt><trkpt lat="59.5567345619" lon="31.2695574760"><ele>0.14</ele><time>2026-09-02T21:03:38Z</time></trkpt><trkpt lat="59.5567345619" lon="31.2695574760"><ele>0.14</ele><time>2026-09-02T21:03:40Z</time></trkpt><trkpt lat="59.5567560196" lon="31.2695360184"><ele>0.14</ele><time>2026-09-02T21:03:43Z</time></trkpt><trkpt lat="59.5567560196" lon="31.2695145607"><ele>0.14</ele><time>2026-09-02T21:03:45Z</time></trkpt><trkpt lat="59.5567560196" lon="31.2694931030"><ele>0.14</ele><time>2026-09-02T21:03:48Z</time></trkpt><trkpt lat="59.5567560196" lon="31.2694931030"><ele>0.14</ele><time>2026-09-02T21:03:50Z</time></trkpt><trkpt lat="59.5567560196" lon="31.2694716454"><ele>0.14</ele><time>2026-09-02T21:03:53Z</time></trkpt><trkpt lat="59.5567774773" lon="31.2694501877"><ele>0.14</ele><time>2026-09-02T21:03:55Z</time></trkpt><trkpt lat="59.5567774773" lon="31.2694287300"><ele>0.14</ele><time>2026-09-02T21:03:58Z</time></trkpt><trkpt lat="59.5567989349" lon="31.2694072723"><ele>0.14</ele><time>2026-09-02T21:04:00Z</time></trkpt><trkpt lat="59.5567774773" lon="31.2693858147"><ele>0.14</ele><time>2026-09-02T21:04:03Z</time></trkpt><trkpt lat="59.5567989349" lon="31.2693643570"><ele>0.14</ele><time>2026-09-02T21:04:05Z</time></trkpt><trkpt lat="59.5567989349" lon="31.2693428993"><ele>0.14</ele><time>2026-09-02T21:04:08Z</time></trkpt><trkpt lat="59.5567989349" lon="31.2693214417"><ele>0.14</ele><time>2026-09-02T21:04:10Z</time></trkpt><trkpt lat="59.5567989349" lon="31.2692999840"><ele>0.14</ele><time>2026-09-02T21:04:13Z</time></trkpt><trkpt lat="59.5567989349" lon="31.2692570686"><ele>0.14</ele><time>2026-09-02T21:04:15Z</time></trkpt><trkpt lat="59.5567989349" lon="31.2692356110"><ele>0.14</ele><time>2026-09-02T21:04:18Z</time></trkpt><trkpt lat="59.5567989349" lon="31.2692356110"><ele>0.14</ele><time>2026-09-02T21:04:20Z</time></trkpt><trkpt lat="59.5568418503" lon="31.2692356110"><ele>0.14</ele><time>2026-09-02T21:04:23Z</time></trkpt><trkpt lat="59.5568418503" lon="31.2691926956"><ele>0.14</ele><time>2026-09-02T21:04:25Z</time></trkpt><trkpt lat="59.5568633080" lon="31.2691712379"><ele>0.14</ele><time>2026-09-02T21:04:28Z</time></trkpt><trkpt lat="59.5568633080" lon="31.2691497803"><ele>0.14</ele><time>2026-09-02T21:04:30Z</time></trkpt><trkpt lat="59.5568633080" lon="31.2691283226"><ele>0.14</ele><time>2026-09-02T21:04:33Z</time></trkpt><trkpt lat="59.5568847656" lon="31.2691068649"><ele>0.14</ele><time>2026-09-02T21:04:35Z</time></trkpt><trkpt lat="59.5569062233" lon="31.2690639496"><ele>0.14</ele><time>2026-09-02T21:04:38Z</time></trkpt><trkpt lat="59.5569062233" lon="31.2690424919"><ele>0.14</ele><time>2026-09-02T21:04:40Z</time></trkpt><trkpt lat="59.5569062233" lon="31.2690210342"><ele>0.14</ele><time>2026-09-02T21:04:43Z</time></trkpt><trkpt lat="59.5569491386" lon="31.2689781189"><ele>0.14</ele><time>2026-09-02T21:04:45Z</time></trkpt><trkpt lat="59.5569491386" lon="31.2689352036"><ele>0.14</ele><time>2026-09-02T21:04:48Z</time></trkpt><trkpt lat="59.5569705963" lon="31.2689137459"><ele>0.14</ele><time>2026-09-02T21:04:50Z</time></trkpt><trkpt lat="59.5570135117" lon="31.2688922882"><ele>0.14</ele><time>2026-09-02T21:04:53Z</time></trkpt><trkpt lat="59.5570349693" lon="31.2688922882"><ele>0.14</ele><time>2026-09-02T21:04:55Z</time></trkpt><trkpt lat="59.5570349693" lon="31.2688708305"><ele>0.14</ele><time>2026-09-02T21:04:58Z</time></trkpt><trkpt lat="59.5570349693" lon="31.2688064575"><ele>0.14</ele><time>2026-09-02T21:05:00Z</time></trkpt><trkpt lat="59.5570564270" lon="31.2687849998"><ele>0.14</ele><time>2026-09-02T21:05:03Z</time></trkpt><trkpt lat="59.5570564270" lon="31.2687635422"><ele>0.14</ele><time>2026-09-02T21:05:05Z</time></trkpt><trkpt lat="59.5570564270" lon="31.2687420845"><ele>0.14</ele><time>2026-09-02T21:05:08Z</time></trkpt><trkpt lat="59.5570564270" lon="31.2687420845"><ele>0.14</ele><time>2026-09-02T21:05:10Z</time></trkpt><trkpt lat="59.5570564270" lon="31.2687206268"><ele>0.14</ele><time>2026-09-02T21:05:13Z</time></trkpt><trkpt lat="59.5570778847" lon="31.2686991692"><ele>0.14</ele><time>2026-09-02T21:05:15Z</time></trkpt><trkpt lat="59.5570778847" lon="31.2686991692"><ele>0.14</ele><time>2026-09-02T21:05:18Z</time></trkpt><trkpt lat="59.5570778847" lon="31.2686777115"><ele>0.14</ele><time>2026-09-02T21:05:20Z</time></trkpt><trkpt lat="59.5570778847" lon="31.2686777115"><ele>0.14</ele><time>2026-09-02T21:05:23Z</time></trkpt><trkpt lat="59.5570778847" lon="31.2686562538"><ele>0.14</ele><time>2026-09-02T21:05:25Z</time></trkpt><trkpt lat="59.5571208000" lon="31.2686347961"><ele>0.14</ele><time>2026-09-02T21:05:28Z</time></trkpt><trkpt lat="59.5571208000" lon="31.2686133385"><ele>0.14</ele><time>2026-09-02T21:05:30Z</time></trkpt><trkpt lat="59.5571422577" lon="31.2685704231"><ele>0.14</ele><time>2026-09-02T21:05:33Z</time></trkpt><trkpt lat="59.5571637154" lon="31.2685489655"><ele>0.14</ele><time>2026-09-02T21:05:35Z</time></trkpt><trkpt lat="59.5571851730" lon="31.2685060501"><ele>0.14</ele><time>2026-09-02T21:05:38Z</time></trkpt><trkpt lat="59.5571851730" lon="31.2684845924"><ele>0.14</ele><time>2026-09-02T21:05:40Z</time></trkpt><trkpt lat="59.5571851730" lon="31.2684631348"><ele>0.14</ele><time>2026-09-02T21:05:43Z</time></trkpt><trkpt lat="59.5572066307" lon="31.2684416771"><ele>0.14</ele><time>2026-09-02T21:05:45Z</time></trkpt><trkpt lat="59.5572280884" lon="31.2684202194"><ele>0.14</ele><time>2026-09-02T21:05:48Z</time></trkpt><trkpt lat="59.5572280884" lon="31.2683773041"><ele>0.14</ele><time>2026-09-02T21:05:50Z</time></trkpt><trkpt lat="59.5572710037" lon="31.2683343887"><ele>0.14</ele><time>2026-09-02T21:05:53Z</time></trkpt><trkpt lat="59.5572924614" lon="31.2683129311"><ele>0.14</ele><time>2026-09-02T21:05:55Z</time></trkpt><trkpt lat="59.5573139191" lon="31.2683129311"><ele>0.14</ele><time>2026-09-02T21:05:58Z</time></trkpt><trkpt lat="59.5572924614" lon="31.2682914734"><ele>0.14</ele><time>2026-09-02T21:06:00Z</time></trkpt><trkpt lat="59.5573139191" lon="31.2682485580"><ele>0.14</ele><time>2026-09-02T21:06:03Z</time></trkpt><trkpt lat="59.5573139191" lon="31.2682271004"><ele>0.14</ele><time>2026-09-02T21:06:05Z</time></trkpt><trkpt lat="59.5573353767" lon="31.2682056427"><ele>0.14</ele><time>2026-09-02T21:06:08Z</time></trkpt><trkpt lat="59.5573782921" lon="31.2681841850"><ele>0.14</ele><time>2026-09-02T21:06:10Z</time></trkpt><trkpt lat="59.5573997498" lon="31.2681198120"><ele>0.14</ele><time>2026-09-02T21:06:13Z</time></trkpt><trkpt lat="59.5573997498" lon="31.2680983543"><ele>0.14</ele><time>2026-09-02T21:06:15Z</time></trkpt><trkpt lat="59.5573997498" lon="31.2680768967"><ele>0.14</ele><time>2026-09-02T21:06:18Z</time></trkpt><trkpt lat="59.5573997498" lon="31.2680768967"><ele>0.14</ele><time>2026-09-02T21:06:20Z</time></trkpt><trkpt lat="59.5574212074" lon="31.2680554390"><ele>0.14</ele><time>2026-09-02T21:06:23Z</time></trkpt><trkpt lat="59.5574426651" lon="31.2680339813"><ele>0.14</ele><time>2026-09-02T21:06:25Z</time></trkpt><trkpt lat="59.5574855804" lon="31.2679910660"><ele>0.14</ele><time>2026-09-02T21:06:28Z</time></trkpt><trkpt lat="59.5575070381" lon="31.2679696083"><ele>0.14</ele><time>2026-09-02T21:06:30Z</time></trkpt><trkpt lat="59.5575284958" lon="31.2679481506"><ele>0.14</ele><time>2026-09-02T21:06:33Z</time></trkpt><trkpt lat="59.5575499535" lon="31.2679266930"><ele>0.14</ele><time>2026-09-02T21:06:35Z</time></trkpt><trkpt lat="59.5575928688" lon="31.2679052353"><ele>0.14</ele><time>2026-09-02T21:06:38Z</time></trkpt><trkpt lat="59.5576143265" lon="31.2679052353"><ele>0.14</ele><time>2026-09-02T21:06:40Z</time></trkpt><trkpt lat="59.5576357841" lon="31.2679266930"><ele>0.14</ele><time>2026-09-02T21:06:43Z</time></trkpt><trkpt lat="59.5576143265" lon="31.2679052353"><ele>0.14</ele><time>2026-09-02T21:06:45Z</time></trkpt><trkpt lat="59.5576357841" lon="31.2678408623"><ele>0.14</ele><time>2026-09-02T21:06:48Z</time></trkpt><trkpt lat="59.5576143265" lon="31.2677979469"><ele>0.14</ele><time>2026-09-02T21:06:50Z</time></trkpt><trkpt lat="59.5576357841" lon="31.2677550316"><ele>0.14</ele><time>2026-09-02T21:06:53Z</time></trkpt><trkpt lat="59.5576572418" lon="31.2677335739"><ele>0.14</ele><time>2026-09-02T21:06:55Z</time></trkpt><trkpt lat="59.5576572418" lon="31.2677121162"><ele>0.14</ele><time>2026-09-02T21:06:58Z</time></trkpt><trkpt lat="59.5576572418" lon="31.2677121162"><ele>0.14</ele><time>2026-09-02T21:07:00Z</time></trkpt><trkpt lat="59.5576572418" lon="31.2676692009"><ele>0.14</ele><time>2026-09-02T21:07:03Z</time></trkpt><trkpt lat="59.5576572418" lon="31.2676692009"><ele>0.14</ele><time>2026-09-02T21:07:05Z</time></trkpt><trkpt lat="59.5576786995" lon="31.2676477432"><ele>0.14</ele><time>2026-09-02T21:07:08Z</time></trkpt><trkpt lat="59.5576786995" lon="31.2676262856"><ele>0.14</ele><time>2026-09-02T21:07:10Z</time></trkpt><trkpt lat="59.5576786995" lon="31.2676048279"><ele>0.14</ele><time>2026-09-02T21:07:13Z</time></trkpt><trkpt lat="59.5576572418" lon="31.2676262856"><ele>0.14</ele><time>2026-09-02T21:07:15Z</time></trkpt><trkpt lat="59.5576357841" lon="31.2676262856"><ele>0.14</ele><time>2026-09-02T21:07:18Z</time></trkpt><trkpt lat="59.5576357841" lon="31.2676262856"><ele>0.14</ele><time>2026-09-02T21:07:20Z</time></trkpt><trkpt lat="59.5576143265" lon="31.2676048279"><ele>0.14</ele><time>2026-09-02T21:07:23Z</time></trkpt><trkpt lat="59.5575928688" lon="31.2675833702"><ele>0.14</ele><time>2026-09-02T21:07:25Z</time></trkpt><trkpt lat="59.5575714111" lon="31.2675404549"><ele>0.14</ele><time>2026-09-02T21:07:28Z</time></trkpt><trkpt lat="59.5575499535" lon="31.2674760818"><ele>0.14</ele><time>2026-09-02T21:07:30Z</time></trkpt><trkpt lat="59.5575284958" lon="31.2674546242"><ele>0.14</ele><time>2026-09-02T21:07:33Z</time></trkpt><trkpt lat="59.5575284958" lon="31.2674546242"><ele>0.14</ele><time>2026-09-02T21:07:35Z</time></trkpt><trkpt lat="59.5575070381" lon="31.2674117088"><ele>0.14</ele><time>2026-09-02T21:07:38Z</time></trkpt><trkpt lat="59.5575070381" lon="31.2674117088"><ele>0.14</ele><time>2026-09-02T21:07:40Z</time></trkpt><trkpt lat="59.5575284958" lon="31.2673687935"><ele>0.14</ele><time>2026-09-02T21:07:43Z</time></trkpt><trkpt lat="59.5575284958" lon="31.2673473358"><ele>0.14</ele><time>2026-09-02T21:07:45Z</time></trkpt><trkpt lat="59.5575284958" lon="31.2673258781"><ele>0.14</ele><time>2026-09-02T21:07:48Z</time></trkpt><trkpt lat="59.5575499535" lon="31.2673044205"><ele>0.14</ele><time>2026-09-02T21:07:50Z</time></trkpt><trkpt lat="59.5575714111" lon="31.2673258781"><ele>0.14</ele><time>2026-09-02T21:07:53Z</time></trkpt><trkpt lat="59.5575928688" lon="31.2673258781"><ele>0.14</ele><time>2026-09-02T21:07:55Z</time></trkpt><trkpt lat="59.5576143265" lon="31.2673258781"><ele>0.14</ele><time>2026-09-02T21:07:58Z</time></trkpt><trkpt lat="59.5576143265" lon="31.2673687935"><ele>0.14</ele><time>2026-09-02T21:08:00Z</time></trkpt><trkpt lat="59.5576357841" lon="31.2673473358"><ele>0.14</ele><time>2026-09-02T21:08:03Z</time></trkpt><trkpt lat="59.5576572418" lon="31.2673473358"><ele>0.14</ele><time>2026-09-02T21:08:05Z</time></trkpt><trkpt lat="59.5576786995" lon="31.2673473358"><ele>0.14</ele><time>2026-09-02T21:08:08Z</time></trkpt><trkpt lat="59.5577216148" lon="31.2673473358"><ele>0.14</ele><time>2026-09-02T21:08:10Z</time></trkpt><trkpt lat="59.5577645302" lon="31.2673044205"><ele>0.14</ele><time>2026-09-02T21:08:13Z</time></trkpt><trkpt lat="59.5577645302" lon="31.2672829628"><ele>0.14</ele><time>2026-09-02T21:08:15Z</time></trkpt><trkpt lat="59.5577859879" lon="31.2672829628"><ele>0.14</ele><time>2026-09-02T21:08:18Z</time></trkpt><trkpt lat="59.5577859879" lon="31.2672829628"><ele>0.14</ele><time>2026-09-02T21:08:20Z</time></trkpt><trkpt lat="59.5577859879" lon="31.2672829628"><ele>0.14</ele><time>2026-09-02T21:08:23Z</time></trkpt><trkpt lat="59.5577859879" lon="31.2672615051"><ele>0.14</ele><time>2026-09-02T21:08:25Z</time></trkpt><trkpt lat="59.5578074455" lon="31.2672185898"><ele>0.14</ele><time>2026-09-02T21:08:28Z</time></trkpt><trkpt lat="59.5578289032" lon="31.2671971321"><ele>0.14</ele><time>2026-09-02T21:08:30Z</time></trkpt><trkpt lat="59.5578289032" lon="31.2671971321"><ele>0.14</ele><time>2026-09-02T21:08:33Z</time></trkpt><trkpt lat="59.5578289032" lon="31.2671971321"><ele>0.14</ele><time>2026-09-02T21:08:35Z</time></trkpt><trkpt lat="59.5578289032" lon="31.2671971321"><ele>0.14</ele><time>2026-09-02T21:08:38Z</time></trkpt><trkpt lat="59.5578289032" lon="31.2671971321"><ele>0.14</ele><time>2026-09-02T21:08:40Z</time></trkpt><trkpt lat="59.5578289032" lon="31.2672185898"><ele>0.14</ele><time>2026-09-02T21:08:43Z</time></trkpt><trkpt lat="59.5578074455" lon="31.2672185898"><ele>0.14</ele><time>2026-09-02T21:08:45Z</time></trkpt><trkpt lat="59.5577859879" lon="31.2672185898"><ele>0.14</ele><time>2026-09-02T21:08:48Z</time></trkpt><trkpt lat="59.5577859879" lon="31.2671971321"><ele>0.14</ele><time>2026-09-02T21:08:50Z</time></trkpt><trkpt lat="59.5577859879" lon="31.2671756744"><ele>0.14</ele><time>2026-09-02T21:08:53Z</time></trkpt><trkpt lat="59.5577859879" lon="31.2671327591"><ele>0.14</ele><time>2026-09-02T21:08:55Z</time></trkpt><trkpt lat="59.5577859879" lon="31.2671327591"><ele>0.14</ele><time>2026-09-02T21:08:58Z</time></trkpt><trkpt lat="59.5577859879" lon="31.2671113014"><ele>0.14</ele><time>2026-09-02T21:09:00Z</time></trkpt><trkpt lat="59.5577859879" lon="31.2670683861"><ele>0.14</ele><time>2026-09-02T21:09:03Z</time></trkpt><trkpt lat="59.5578074455" lon="31.2670254707"><ele>0.14</ele><time>2026-09-02T21:09:05Z</time></trkpt><trkpt lat="59.5578074455" lon="31.2670040131"><ele>0.14</ele><time>2026-09-02T21:09:08Z</time></trkpt><trkpt lat="59.5578074455" lon="31.2670040131"><ele>0.14</ele><time>2026-09-02T21:09:10Z</time></trkpt><trkpt lat="59.5578074455" lon="31.2669825554"><ele>0.14</ele><time>2026-09-02T21:09:13Z</time></trkpt><trkpt lat="59.5578074455" lon="31.2669610977"><ele>0.14</ele><time>2026-09-02T21:09:15Z</time></trkpt><trkpt lat="59.5578074455" lon="31.2669181824"><ele>0.14</ele><time>2026-09-02T21:09:18Z</time></trkpt><trkpt lat="59.5578289032" lon="31.2668752670"><ele>0.14</ele><time>2026-09-02T21:09:20Z</time></trkpt><trkpt lat="59.5578718185" lon="31.2668538094"><ele>0.14</ele><time>2026-09-02T21:09:23Z</time></trkpt><trkpt lat="59.5578718185" lon="31.2668323517"><ele>0.14</ele><time>2026-09-02T21:09:25Z</time></trkpt><trkpt lat="59.5578289032" lon="31.2667894363"><ele>0.14</ele><time>2026-09-02T21:09:28Z</time></trkpt><trkpt lat="59.5578289032" lon="31.2667894363"><ele>0.14</ele><time>2026-09-02T21:09:30Z</time></trkpt><trkpt lat="59.5578289032" lon="31.2667894363"><ele>0.14</ele><time>2026-09-02T21:09:33Z</time></trkpt><trkpt lat="59.5578289032" lon="31.2667894363"><ele>0.14</ele><time>2026-09-02T21:09:35Z</time></trkpt><trkpt lat="59.5578074455" lon="31.2667894363"><ele>0.14</ele><time>2026-09-02T21:09:38Z</time></trkpt><trkpt lat="59.5578074455" lon="31.2667894363"><ele>0.14</ele><time>2026-09-02T21:09:40Z</time></trkpt><trkpt lat="59.5578289032" lon="31.2667894363"><ele>0.14</ele><time>2026-09-02T21:09:43Z</time></trkpt><trkpt lat="59.5578289032" lon="31.2667894363"><ele>0.14</ele><time>2026-09-02T21:09:45Z</time></trkpt><trkpt lat="59.5578503609" lon="31.2667894363"><ele>0.14</ele><time>2026-09-02T21:09:48Z</time></trkpt><trkpt lat="59.5578718185" lon="31.2667894363"><ele>0.14</ele><time>2026-09-02T21:09:50Z</time></trkpt><trkpt lat="59.5578718185" lon="31.2667894363"><ele>0.14</ele><time>2026-09-02T21:09:53Z</time></trkpt><trkpt lat="59.5578718185" lon="31.2667894363"><ele>0.14</ele><time>2026-09-02T21:09:55Z</time></trkpt><trkpt lat="59.5578718185" lon="31.2667894363"><ele>0.14</ele><time>2026-09-02T21:09:58Z</time></trkpt><trkpt lat="59.5578718185" lon="31.2667894363"><ele>0.14</ele><time>2026-09-02T21:10:00Z</time></trkpt><trkpt lat="59.5578932762" lon="31.2667679787"><ele>0.14</ele><time>2026-09-02T21:10:03Z</time></trkpt><trkpt lat="59.5578718185" lon="31.2667679787"><ele>0.14</ele><time>2026-09-02T21:10:05Z</time></trkpt><trkpt lat="59.5578932762" lon="31.2667679787"><ele>0.14</ele><time>2026-09-02T21:10:08Z</time></trkpt><trkpt lat="59.5578932762" lon="31.2667465210"><ele>0.14</ele><time>2026-09-02T21:10:10Z</time></trkpt><trkpt lat="59.5578718185" lon="31.2667250633"><ele>0.14</ele><time>2026-09-02T21:10:13Z</time></trkpt><trkpt lat="59.5578718185" lon="31.2667036057"><ele>0.14</ele><time>2026-09-02T21:10:15Z</time></trkpt><trkpt lat="59.5578932762" lon="31.2666821480"><ele>0.14</ele><time>2026-09-02T21:10:18Z</time></trkpt><trkpt lat="59.5579361916" lon="31.2667036057"><ele>0.14</ele><time>2026-09-02T21:10:20Z</time></trkpt><trkpt lat="59.5579576492" lon="31.2667036057"><ele>0.14</ele><time>2026-09-02T21:10:23Z</time></trkpt><trkpt lat="59.5579791069" lon="31.2667036057"><ele>0.14</ele><time>2026-09-02T21:10:25Z</time></trkpt><trkpt lat="59.5580434799" lon="31.2667250633"><ele>0.14</ele><time>2026-09-02T21:10:28Z</time></trkpt><trkpt lat="59.5580863953" lon="31.2667465210"><ele>0.14</ele><time>2026-09-02T21:10:30Z</time></trkpt><trkpt lat="59.5581078529" lon="31.2667250633"><ele>0.14</ele><time>2026-09-02T21:10:33Z</time></trkpt><trkpt lat="59.5581078529" lon="31.2667465210"><ele>0.14</ele><time>2026-09-02T21:10:35Z</time></trkpt><trkpt lat="59.5581078529" lon="31.2667250633"><ele>0.14</ele><time>2026-09-02T21:10:38Z</time></trkpt><trkpt lat="59.5581078529" lon="31.2667250633"><ele>0.14</ele><time>2026-09-02T21:10:40Z</time></trkpt><trkpt lat="59.5581293106" lon="31.2666821480"><ele>0.14</ele><time>2026-09-02T21:10:43Z</time></trkpt><trkpt lat="59.5581293106" lon="31.2666821480"><ele>0.14</ele><time>2026-09-02T21:10:45Z</time></trkpt><trkpt lat="59.5581293106" lon="31.2666821480"><ele>0.14</ele><time>2026-09-02T21:10:48Z</time></trkpt><trkpt lat="59.5581293106" lon="31.2666606903"><ele>0.14</ele><time>2026-09-02T21:10:50Z</time></trkpt><trkpt lat="59.5581507683" lon="31.2666606903"><ele>0.14</ele><time>2026-09-02T21:10:53Z</time></trkpt><trkpt lat="59.5581507683" lon="31.2666606903"><ele>0.14</ele><time>2026-09-02T21:10:55Z</time></trkpt><trkpt lat="59.5581507683" lon="31.2666606903"><ele>0.14</ele><time>2026-09-02T21:10:58Z</time></trkpt><trkpt lat="59.5581507683" lon="31.2666606903"><ele>0.14</ele><time>2026-09-02T21:11:00Z</time></trkpt><trkpt lat="59.5581507683" lon="31.2666606903"><ele>0.14</ele><time>2026-09-02T21:11:03Z</time></trkpt><trkpt lat="59.5581507683" lon="31.2666606903"><ele>0.14</ele><time>2026-09-02T21:11:05Z</time></trkpt><trkpt lat="59.5581507683" lon="31.2666606903"><ele>0.14</ele><time>2026-09-02T21:11:08Z</time></trkpt><trkpt lat="59.5581507683" lon="31.2666606903"><ele>0.14</ele><time>2026-09-02T21:11:10Z</time></trkpt><trkpt lat="59.5581507683" lon="31.2666606903"><ele>0.14</ele><time>2026-09-02T21:11:13Z</time></trkpt><trkpt lat="59.5581507683" lon="31.2666606903"><ele>0.14</ele><time>2026-09-02T21:11:15Z</time></trkpt><trkpt lat="59.5581507683" lon="31.2666606903"><ele>0.14</ele><time>2026-09-02T21:11:18Z</time></trkpt><trkpt lat="59.5581507683" lon="31.2666606903"><ele>0.14</ele><time>2026-09-02T21:11:20Z</time></trkpt><trkpt lat="59.5581722260" lon="31.2666606903"><ele>0.14</ele><time>2026-09-02T21:11:23Z</time></trkpt><trkpt lat="59.5581722260" lon="31.2666606903"><ele>0.14</ele><time>2026-09-02T21:11:25Z</time></trkpt><trkpt lat="59.5581722260" lon="31.2666606903"><ele>0.14</ele><time>2026-09-02T21:11:28Z</time></trkpt><trkpt lat="59.5581722260" lon="31.2666606903"><ele>0.14</ele><time>2026-09-02T21:11:30Z</time></trkpt><trkpt lat="59.5581722260" lon="31.2666606903"><ele>0.14</ele><time>2026-09-02T21:11:33Z</time></trkpt><trkpt lat="59.5581722260" lon="31.2666606903"><ele>0.14</ele><time>2026-09-02T21:11:35Z</time></trkpt><trkpt lat="59.5581722260" lon="31.2666606903"><ele>0.14</ele><time>2026-09-02T21:11:38Z</time></trkpt><trkpt lat="59.5581722260" lon="31.2666606903"><ele>0.14</ele><time>2026-09-02T21:11:40Z</time></trkpt><trkpt lat="59.5581722260" lon="31.2666606903"><ele>0.14</ele><time>2026-09-02T21:11:43Z</time></trkpt><trkpt lat="59.5581722260" lon="31.2666606903"><ele>0.14</ele><time>2026-09-02T21:11:45Z</time></trkpt><trkpt lat="59.5581722260" lon="31.2666606903"><ele>0.14</ele><time>2026-09-02T21:11:48Z</time></trkpt><trkpt lat="59.5581722260" lon="31.2666606903"><ele>0.14</ele><time>2026-09-02T21:11:50Z</time></trkpt><trkpt lat="59.5581722260" lon="31.2666606903"><ele>0.14</ele><time>2026-09-02T21:11:53Z</time></trkpt><trkpt lat="59.5581722260" lon="31.2666606903"><ele>0.14</ele><time>2026-09-02T21:11:55Z</time></trkpt><trkpt lat="59.5581936836" lon="31.2666606903"><ele>0.14</ele><time>2026-09-02T21:11:58Z</time></trkpt><trkpt lat="59.5581936836" lon="31.2666606903"><ele>0.14</ele><time>2026-09-02T21:12:00Z</time></trkpt><trkpt lat="59.5581936836" lon="31.2666392326"><ele>0.14</ele><time>2026-09-02T21:12:03Z</time></trkpt><trkpt lat="59.5581936836" lon="31.2666392326"><ele>0.14</ele><time>2026-09-02T21:12:05Z</time></trkpt><trkpt lat="59.5582151413" lon="31.2666392326"><ele>0.14</ele><time>2026-09-02T21:12:08Z</time></trkpt><trkpt lat="59.5582365990" lon="31.2666392326"><ele>0.14</ele><time>2026-09-02T21:12:10Z</time></trkpt><trkpt lat="59.5582580566" lon="31.2666177750"><ele>0.14</ele><time>2026-09-02T21:12:13Z</time></trkpt><trkpt lat="59.5582580566" lon="31.2665748596"><ele>0.14</ele><time>2026-09-02T21:12:15Z</time></trkpt><trkpt lat="59.5582580566" lon="31.2665748596"><ele>0.14</ele><time>2026-09-02T21:12:18Z</time></trkpt><trkpt lat="59.5582580566" lon="31.2665534019"><ele>0.14</ele><time>2026-09-02T21:12:20Z</time></trkpt><trkpt lat="59.5582365990" lon="31.2665319443"><ele>0.14</ele><time>2026-09-02T21:12:23Z</time></trkpt><trkpt lat="59.5582365990" lon="31.2664890289"><ele>0.14</ele><time>2026-09-02T21:12:25Z</time></trkpt><trkpt lat="59.5582795143" lon="31.2664675713"><ele>0.14</ele><time>2026-09-02T21:12:28Z</time></trkpt><trkpt lat="59.5583009720" lon="31.2664461136"><ele>0.14</ele><time>2026-09-02T21:12:30Z</time></trkpt><trkpt lat="59.5583224297" lon="31.2664246559"><ele>0.14</ele><time>2026-09-02T21:12:33Z</time></trkpt><trkpt lat="59.5583224297" lon="31.2663817406"><ele>0.14</ele><time>2026-09-02T21:12:35Z</time></trkpt><trkpt lat="59.5583224297" lon="31.2663817406"><ele>0.14</ele><time>2026-09-02T21:12:38Z</time></trkpt><trkpt lat="59.5583438873" lon="31.2663602829"><ele>0.14</ele><time>2026-09-02T21:12:40Z</time></trkpt><trkpt lat="59.5583653450" lon="31.2663602829"><ele>0.14</ele><time>2026-09-02T21:12:43Z</time></trkpt><trkpt lat="59.5583653450" lon="31.2663602829"><ele>0.14</ele><time>2026-09-02T21:12:45Z</time></trkpt><trkpt lat="59.5583653450" lon="31.2663817406"><ele>0.14</ele><time>2026-09-02T21:12:48Z</time></trkpt><trkpt lat="59.5583653450" lon="31.2663817406"><ele>0.14</ele><time>2026-09-02T21:12:50Z</time></trkpt><trkpt lat="59.5583653450" lon="31.2664031982"><ele>0.14</ele><time>2026-09-02T21:12:53Z</time></trkpt><trkpt lat="59.5584082603" lon="31.2663817406"><ele>0.14</ele><time>2026-09-02T21:12:55Z</time></trkpt><trkpt lat="59.5584297180" lon="31.2663173676"><ele>0.14</ele><time>2026-09-02T21:12:58Z</time></trkpt><trkpt lat="59.5584511757" lon="31.2662315369"><ele>0.14</ele><time>2026-09-02T21:13:00Z</time></trkpt><trkpt lat="59.5584511757" lon="31.2661886215"><ele>0.14</ele><time>2026-09-02T21:13:03Z</time></trkpt><trkpt lat="59.5584726334" lon="31.2661671638"><ele>0.14</ele><time>2026-09-02T21:13:05Z</time></trkpt><trkpt lat="59.5584940910" lon="31.2661457062"><ele>0.14</ele><time>2026-09-02T21:13:08Z</time></trkpt><trkpt lat="59.5585155487" lon="31.2661457062"><ele>0.14</ele><time>2026-09-02T21:13:10Z</time></trkpt><trkpt lat="59.5585370064" lon="31.2661027908"><ele>0.14</ele><time>2026-09-02T21:13:13Z</time></trkpt><trkpt lat="59.5585799217" lon="31.2660813332"><ele>0.14</ele><time>2026-09-02T21:13:15Z</time></trkpt><trkpt lat="59.5586013794" lon="31.2660598755"><ele>0.14</ele><time>2026-09-02T21:13:18Z</time></trkpt><trkpt lat="59.5586013794" lon="31.2660598755"><ele>0.14</ele><time>2026-09-02T21:13:20Z</time></trkpt><trkpt lat="59.5586228371" lon="31.2660384178"><ele>0.14</ele><time>2026-09-02T21:13:23Z</time></trkpt><trkpt lat="59.5586228371" lon="31.2660384178"><ele>0.14</ele><time>2026-09-02T21:13:25Z</time></trkpt><trkpt lat="59.5586442947" lon="31.2659955025"><ele>0.14</ele><time>2026-09-02T21:13:28Z</time></trkpt><trkpt lat="59.5586657524" lon="31.2659740448"><ele>0.14</ele><time>2026-09-02T21:13:30Z</time></trkpt><trkpt lat="59.5586657524" lon="31.2659740448"><ele>0.14</ele><time>2026-09-02T21:13:33Z</time></trkpt><trkpt lat="59.5586872101" lon="31.2659740448"><ele>0.14</ele><time>2026-09-02T21:13:35Z</time></trkpt><trkpt lat="59.5586872101" lon="31.2659740448"><ele>0.14</ele><time>2026-09-02T21:13:38Z</time></trkpt><trkpt lat="59.5586657524" lon="31.2659740448"><ele>0.14</ele><time>2026-09-02T21:13:40Z</time></trkpt><trkpt lat="59.5586657524" lon="31.2659525871"><ele>0.14</ele><time>2026-09-02T21:13:43Z</time></trkpt><trkpt lat="59.5586657524" lon="31.2659311295"><ele>0.14</ele><time>2026-09-02T21:13:45Z</time></trkpt><trkpt lat="59.5586872101" lon="31.2658882141"><ele>0.14</ele><time>2026-09-02T21:13:48Z</time></trkpt><trkpt lat="59.5586872101" lon="31.2658667564"><ele>0.14</ele><time>2026-09-02T21:13:50Z</time></trkpt><trkpt lat="59.5586872101" lon="31.2658238411"><ele>0.14</ele><time>2026-09-02T21:13:53Z</time></trkpt><trkpt lat="59.5586872101" lon="31.2657809258"><ele>0.14</ele><time>2026-09-02T21:13:55Z</time></trkpt><trkpt lat="59.5587086678" lon="31.2657165527"><ele>0.14</ele><time>2026-09-02T21:13:58Z</time></trkpt><trkpt lat="59.5587301254" lon="31.2656950951"><ele>0.14</ele><time>2026-09-02T21:14:00Z</time></trkpt><trkpt lat="59.5587301254" lon="31.2656521797"><ele>0.14</ele><time>2026-09-02T21:14:03Z</time></trkpt><trkpt lat="59.5587301254" lon="31.2656521797"><ele>0.14</ele><time>2026-09-02T21:14:05Z</time></trkpt><trkpt lat="59.5587515831" lon="31.2656521797"><ele>0.14</ele><time>2026-09-02T21:14:08Z</time></trkpt><trkpt lat="59.5587515831" lon="31.2655663490"><ele>0.14</ele><time>2026-09-02T21:14:10Z</time></trkpt><trkpt lat="59.5587515831" lon="31.2655663490"><ele>0.14</ele><time>2026-09-02T21:14:13Z</time></trkpt><trkpt lat="59.5587301254" lon="31.2655663490"><ele>0.14</ele><time>2026-09-02T21:14:15Z</time></trkpt><trkpt lat="59.5587515831" lon="31.2655448914"><ele>0.14</ele><time>2026-09-02T21:14:18Z</time></trkpt><trkpt lat="59.5587515831" lon="31.2655234337"><ele>0.14</ele><time>2026-09-02T21:14:20Z</time></trkpt><trkpt lat="59.5587730408" lon="31.2654376030"><ele>0.14</ele><time>2026-09-02T21:14:23Z</time></trkpt><trkpt lat="59.5587944984" lon="31.2653517723"><ele>0.14</ele><time>2026-09-02T21:14:25Z</time></trkpt><trkpt lat="59.5587944984" lon="31.2653303146"><ele>0.14</ele><time>2026-09-02T21:14:28Z</time></trkpt><trkpt lat="59.5587944984" lon="31.2653088570"><ele>0.14</ele><time>2026-09-02T21:14:30Z</time></trkpt><trkpt lat="59.5588159561" lon="31.2652659416"><ele>0.14</ele><time>2026-09-02T21:14:33Z</time></trkpt><trkpt lat="59.5588159561" lon="31.2652230263"><ele>0.14</ele><time>2026-09-02T21:14:35Z</time></trkpt><trkpt lat="59.5588159561" lon="31.2652659416"><ele>0.14</ele><time>2026-09-02T21:14:38Z</time></trkpt><trkpt lat="59.5588374138" lon="31.2652659416"><ele>0.14</ele><time>2026-09-02T21:14:40Z</time></trkpt><trkpt lat="59.5588588715" lon="31.2652659416"><ele>0.14</ele><time>2026-09-02T21:14:43Z</time></trkpt><trkpt lat="59.5588803291" lon="31.2652873993"><ele>0.14</ele><time>2026-09-02T21:14:45Z</time></trkpt><trkpt lat="59.5588803291" lon="31.2652873993"><ele>0.14</ele><time>2026-09-02T21:14:48Z</time></trkpt><trkpt lat="59.5588803291" lon="31.2652444839"><ele>0.14</ele><time>2026-09-02T21:14:50Z</time></trkpt><trkpt lat="59.5588803291" lon="31.2652015686"><ele>0.14</ele><time>2026-09-02T21:14:53Z</time></trkpt><trkpt lat="59.5588803291" lon="31.2651586533"><ele>0.14</ele><time>2026-09-02T21:14:55Z</time></trkpt><trkpt lat="59.5588588715" lon="31.2651157379"><ele>0.14</ele><time>2026-09-02T21:14:58Z</time></trkpt><trkpt lat="59.5588588715" lon="31.2650942802"><ele>0.14</ele><time>2026-09-02T21:15:00Z</time></trkpt><trkpt lat="59.5588803291" lon="31.2650513649"><ele>0.14</ele><time>2026-09-02T21:15:03Z</time></trkpt><trkpt lat="59.5588803291" lon="31.2650299072"><ele>0.14</ele><time>2026-09-02T21:15:05Z</time></trkpt><trkpt lat="59.5588803291" lon="31.2649869919"><ele>0.14</ele><time>2026-09-02T21:15:08Z</time></trkpt><trkpt lat="59.5588803291" lon="31.2649655342"><ele>0.14</ele><time>2026-09-02T21:15:10Z</time></trkpt><trkpt lat="59.5588803291" lon="31.2649869919"><ele>0.14</ele><time>2026-09-02T21:15:13Z</time></trkpt><trkpt lat="59.5588803291" lon="31.2650084496"><ele>0.14</ele><time>2026-09-02T21:15:15Z</time></trkpt><trkpt lat="59.5588803291" lon="31.2650299072"><ele>0.14</ele><time>2026-09-02T21:15:18Z</time></trkpt><trkpt lat="59.5588588715" lon="31.2650942802"><ele>0.14</ele><time>2026-09-02T21:15:20Z</time></trkpt><trkpt lat="59.5588803291" lon="31.2651157379"><ele>0.14</ele><time>2026-09-02T21:15:23Z</time></trkpt><trkpt lat="59.5588803291" lon="31.2650942802"><ele>0.14</ele><time>2026-09-02T21:15:25Z</time></trkpt><trkpt lat="59.5588588715" lon="31.2651157379"><ele>0.14</ele><time>2026-09-02T21:15:28Z</time></trkpt><trkpt lat="59.5588588715" lon="31.2651371956"><ele>0.14</ele><time>2026-09-02T21:15:30Z</time></trkpt><trkpt lat="59.5588588715" lon="31.2651371956"><ele>0.14</ele><time>2026-09-02T21:15:33Z</time></trkpt><trkpt lat="59.5588374138" lon="31.2652015686"><ele>0.14</ele><time>2026-09-02T21:15:35Z</time></trkpt><trkpt lat="59.5588374138" lon="31.2652230263"><ele>0.14</ele><time>2026-09-02T21:15:38Z</time></trkpt><trkpt lat="59.5588374138" lon="31.2652444839"><ele>0.14</ele><time>2026-09-02T21:15:40Z</time></trkpt><trkpt lat="59.5588374138" lon="31.2652230263"><ele>0.14</ele><time>2026-09-02T21:15:43Z</time></trkpt><trkpt lat="59.5588159561" lon="31.2652015686"><ele>0.14</ele><time>2026-09-02T21:15:45Z</time></trkpt><trkpt lat="59.5588374138" lon="31.2652015686"><ele>0.14</ele><time>2026-09-02T21:15:48Z</time></trkpt><trkpt lat="59.5588374138" lon="31.2652230263"><ele>0.14</ele><time>2026-09-02T21:15:50Z</time></trkpt><trkpt lat="59.5588374138" lon="31.2652230263"><ele>0.14</ele><time>2026-09-02T21:15:53Z</time></trkpt><trkpt lat="59.5588374138" lon="31.2652230263"><ele>0.14</ele><time>2026-09-02T21:15:55Z</time></trkpt><trkpt lat="59.5588374138" lon="31.2652230263"><ele>0.14</ele><time>2026-09-02T21:15:58Z</time></trkpt><trkpt lat="59.5588374138" lon="31.2652230263"><ele>0.14</ele><time>2026-09-02T21:16:00Z</time></trkpt><trkpt lat="59.5588374138" lon="31.2652230263"><ele>0.14</ele><time>2026-09-02T21:16:03Z</time></trkpt><trkpt lat="59.5587944984" lon="31.2651801109"><ele>0.14</ele><time>2026-09-02T21:16:05Z</time></trkpt><trkpt lat="59.5587944984" lon="31.2651157379"><ele>0.14</ele><time>2026-09-02T21:16:08Z</time></trkpt><trkpt lat="59.5587944984" lon="31.2650942802"><ele>0.14</ele><time>2026-09-02T21:16:10Z</time></trkpt><trkpt lat="59.5587730408" lon="31.2650728226"><ele>0.14</ele><time>2026-09-02T21:16:13Z</time></trkpt><trkpt lat="59.5587515831" lon="31.2650728226"><ele>0.14</ele><time>2026-09-02T21:16:15Z</time></trkpt><trkpt lat="59.5587730408" lon="31.2650299072"><ele>0.14</ele><time>2026-09-02T21:16:18Z</time></trkpt><trkpt lat="59.5587730408" lon="31.2649440765"><ele>0.14</ele><time>2026-09-02T21:16:20Z</time></trkpt><trkpt lat="59.5587944984" lon="31.2649011612"><ele>0.14</ele><time>2026-09-02T21:16:23Z</time></trkpt><trkpt lat="59.5587944984" lon="31.2648367882"><ele>0.14</ele><time>2026-09-02T21:16:25Z</time></trkpt><trkpt lat="59.5588159561" lon="31.2647724152"><ele>0.14</ele><time>2026-09-02T21:16:28Z</time></trkpt><trkpt lat="59.5588159561" lon="31.2647080421"><ele>0.14</ele><time>2026-09-02T21:16:30Z</time></trkpt><trkpt lat="59.5588159561" lon="31.2646007538"><ele>0.14</ele><time>2026-09-02T21:16:33Z</time></trkpt><trkpt lat="59.5587730408" lon="31.2645363808"><ele>0.14</ele><time>2026-09-02T21:16:35Z</time></trkpt><trkpt lat="59.5588159561" lon="31.2644720078"><ele>0.14</ele><time>2026-09-02T21:16:38Z</time></trkpt><trkpt lat="59.5588588715" lon="31.2644934654"><ele>0.14</ele><time>2026-09-02T21:16:40Z</time></trkpt><trkpt lat="59.5588803291" lon="31.2645363808"><ele>0.14</ele><time>2026-09-02T21:16:43Z</time></trkpt><trkpt lat="59.5589017868" lon="31.2645792961"><ele>0.14</ele><time>2026-09-02T21:16:45Z</time></trkpt><trkpt lat="59.5589232445" lon="31.2645149231"><ele>0.14</ele><time>2026-09-02T21:16:48Z</time></trkpt><trkpt lat="59.5589447021" lon="31.2644720078"><ele>0.14</ele><time>2026-09-02T21:16:50Z</time></trkpt><trkpt lat="59.5589447021" lon="31.2644290924"><ele>0.14</ele><time>2026-09-02T21:16:53Z</time></trkpt><trkpt lat="59.5589447021" lon="31.2643861771"><ele>0.14</ele><time>2026-09-02T21:16:55Z</time></trkpt><trkpt lat="59.5589661598" lon="31.2643218040"><ele>0.14</ele><time>2026-09-02T21:16:58Z</time></trkpt><trkpt lat="59.5589876175" lon="31.2643003464"><ele>0.14</ele><time>2026-09-02T21:17:00Z</time></trkpt><trkpt lat="59.5590305328" lon="31.2642359734"><ele>0.14</ele><time>2026-09-02T21:17:03Z</time></trkpt><trkpt lat="59.5590519905" lon="31.2642145157"><ele>0.14</ele><time>2026-09-02T21:17:05Z</time></trkpt><trkpt lat="59.5590949059" lon="31.2641930580"><ele>0.14</ele><time>2026-09-02T21:17:08Z</time></trkpt><trkpt lat="59.5590734482" lon="31.2641286850"><ele>0.14</ele><time>2026-09-02T21:17:10Z</time></trkpt><trkpt lat="59.5590519905" lon="31.2641072273"><ele>0.14</ele><time>2026-09-02T21:17:13Z</time></trkpt><trkpt lat="59.5590305328" lon="31.2640643120"><ele>0.14</ele><time>2026-09-02T21:17:15Z</time></trkpt><trkpt lat="59.5590305328" lon="31.2639784813"><ele>0.14</ele><time>2026-09-02T21:17:18Z</time></trkpt><trkpt lat="59.5589876175" lon="31.2639141083"><ele>0.14</ele><time>2026-09-02T21:17:20Z</time></trkpt><trkpt lat="59.5589876175" lon="31.2638497353"><ele>0.14</ele><time>2026-09-02T21:17:23Z</time></trkpt><trkpt lat="59.5589876175" lon="31.2638068199"><ele>0.14</ele><time>2026-09-02T21:17:25Z</time></trkpt><trkpt lat="59.5589876175" lon="31.2637639046"><ele>0.14</ele><time>2026-09-02T21:17:28Z</time></trkpt><trkpt lat="59.5590090752" lon="31.2636995316"><ele>0.14</ele><time>2026-09-02T21:17:30Z</time></trkpt><trkpt lat="59.5590090752" lon="31.2636566162"><ele>0.14</ele><time>2026-09-02T21:17:33Z</time></trkpt><trkpt lat="59.5590090752" lon="31.2636780739"><ele>0.14</ele><time>2026-09-02T21:17:35Z</time></trkpt><trkpt lat="59.5590090752" lon="31.2636566162"><ele>0.14</ele><time>2026-09-02T21:17:38Z</time></trkpt><trkpt lat="59.5589876175" lon="31.2635922432"><ele>0.14</ele><time>2026-09-02T21:17:40Z</time></trkpt><trkpt lat="59.5589876175" lon="31.2634849548"><ele>0.14</ele><time>2026-09-02T21:17:43Z</time></trkpt><trkpt lat="59.5589876175" lon="31.2633991241"><ele>0.14</ele><time>2026-09-02T21:17:45Z</time></trkpt><trkpt lat="59.5590305328" lon="31.2633776665"><ele>0.14</ele><time>2026-09-02T21:17:48Z</time></trkpt><trkpt lat="59.5590519905" lon="31.2633132935"><ele>0.14</ele><time>2026-09-02T21:17:50Z</time></trkpt><trkpt lat="59.5591163635" lon="31.2631845474"><ele>0.14</ele><time>2026-09-02T21:17:53Z</time></trkpt><trkpt lat="59.5591592789" lon="31.2630987167"><ele>0.14</ele><time>2026-09-02T21:17:55Z</time></trkpt><trkpt lat="59.5592021942" lon="31.2630128860"><ele>0.14</ele><time>2026-09-02T21:17:58Z</time></trkpt><trkpt lat="59.5592236519" lon="31.2629485130"><ele>0.14</ele><time>2026-09-02T21:18:00Z</time></trkpt><trkpt lat="59.5592021942" lon="31.2628626823"><ele>0.14</ele><time>2026-09-02T21:18:03Z</time></trkpt><trkpt lat="59.5591807365" lon="31.2627983093"><ele>0.14</ele><time>2026-09-02T21:18:05Z</time></trkpt><trkpt lat="59.5591592789" lon="31.2627768517"><ele>0.14</ele><time>2026-09-02T21:18:08Z</time></trkpt><trkpt lat="59.5591163635" lon="31.2627983093"><ele>0.14</ele><time>2026-09-02T21:18:10Z</time></trkpt><trkpt lat="59.5591163635" lon="31.2628197670"><ele>0.14</ele><time>2026-09-02T21:18:13Z</time></trkpt><trkpt lat="59.5590949059" lon="31.2627768517"><ele>0.14</ele><time>2026-09-02T21:18:15Z</time></trkpt><trkpt lat="59.5590949059" lon="31.2626910210"><ele>0.14</ele><time>2026-09-02T21:18:18Z</time></trkpt><trkpt lat="59.5590734482" lon="31.2626266479"><ele>0.14</ele><time>2026-09-02T21:18:20Z</time></trkpt><trkpt lat="59.5590734482" lon="31.2625837326"><ele>0.14</ele><time>2026-09-02T21:18:23Z</time></trkpt><trkpt lat="59.5590734482" lon="31.2625837326"><ele>0.14</ele><time>2026-09-02T21:18:25Z</time></trkpt><trkpt lat="59.5590734482" lon="31.2625193596"><ele>0.14</ele><time>2026-09-02T21:18:28Z</time></trkpt><trkpt lat="59.5590949059" lon="31.2624979019"><ele>0.14</ele><time>2026-09-02T21:18:30Z</time></trkpt><trkpt lat="59.5591163635" lon="31.2624335289"><ele>0.14</ele><time>2026-09-02T21:18:33Z</time></trkpt><trkpt lat="59.5591163635" lon="31.2623906136"><ele>0.14</ele><time>2026-09-02T21:18:35Z</time></trkpt><trkpt lat="59.5591163635" lon="31.2623047829"><ele>0.14</ele><time>2026-09-02T21:18:38Z</time></trkpt><trkpt lat="59.5591163635" lon="31.2622618675"><ele>0.14</ele><time>2026-09-02T21:18:40Z</time></trkpt><trkpt lat="59.5590734482" lon="31.2622404099"><ele>0.14</ele><time>2026-09-02T21:18:43Z</time></trkpt><trkpt lat="59.5590734482" lon="31.2621760368"><ele>0.14</ele><time>2026-09-02T21:18:45Z</time></trkpt><trkpt lat="59.5590949059" lon="31.2620902061"><ele>0.14</ele><time>2026-09-02T21:18:48Z</time></trkpt><trkpt lat="59.5591163635" lon="31.2619829178"><ele>0.14</ele><time>2026-09-02T21:18:50Z</time></trkpt><trkpt lat="59.5591163635" lon="31.2619614601"><ele>0.14</ele><time>2026-09-02T21:18:53Z</time></trkpt><trkpt lat="59.5591378212" lon="31.2619614601"><ele>0.14</ele><time>2026-09-02T21:18:55Z</time></trkpt><trkpt lat="59.5591807365" lon="31.2619185448"><ele>0.14</ele><time>2026-09-02T21:18:58Z</time></trkpt><trkpt lat="59.5592236519" lon="31.2618756294"><ele>0.14</ele><time>2026-09-02T21:19:00Z</time></trkpt><trkpt lat="59.5592665672" lon="31.2618970871"><ele>0.14</ele><time>2026-09-02T21:19:03Z</time></trkpt><trkpt lat="59.5593094826" lon="31.2618970871"><ele>0.14</ele><time>2026-09-02T21:19:05Z</time></trkpt><trkpt lat="59.5593094826" lon="31.2618970871"><ele>0.14</ele><time>2026-09-02T21:19:08Z</time></trkpt><trkpt lat="59.5593309402" lon="31.2619400024"><ele>0.14</ele><time>2026-09-02T21:19:10Z</time></trkpt><trkpt lat="59.5593094826" lon="31.2619614601"><ele>0.14</ele><time>2026-09-02T21:19:13Z</time></trkpt><trkpt lat="59.5593309402" lon="31.2619614601"><ele>0.14</ele><time>2026-09-02T21:19:15Z</time></trkpt><trkpt lat="59.5593523979" lon="31.2619185448"><ele>0.14</ele><time>2026-09-02T21:19:18Z</time></trkpt><trkpt lat="59.5593738556" lon="31.2619185448"><ele>0.14</ele><time>2026-09-02T21:19:20Z</time></trkpt><trkpt lat="59.5593953133" lon="31.2619400024"><ele>0.14</ele><time>2026-09-02T21:19:23Z</time></trkpt><trkpt lat="59.5594167709" lon="31.2619400024"><ele>0.14</ele><time>2026-09-02T21:19:25Z</time></trkpt><trkpt lat="59.5594167709" lon="31.2620043755"><ele>0.14</ele><time>2026-09-02T21:19:28Z</time></trkpt><trkpt lat="59.5594382286" lon="31.2620258331"><ele>0.14</ele><time>2026-09-02T21:19:30Z</time></trkpt><trkpt lat="59.5595240593" lon="31.2620687485"><ele>0.14</ele><time>2026-09-02T21:19:33Z</time></trkpt><trkpt lat="59.5595455170" lon="31.2621116638"><ele>0.14</ele><time>2026-09-02T21:19:35Z</time></trkpt><trkpt lat="59.5595669746" lon="31.2621974945"><ele>0.14</ele><time>2026-09-02T21:19:38Z</time></trkpt><trkpt lat="59.5595884323" lon="31.2622833252"><ele>0.14</ele><time>2026-09-02T21:19:40Z</time></trkpt><trkpt lat="59.5595884323" lon="31.2623047829"><ele>0.14</ele><time>2026-09-02T21:19:43Z</time></trkpt><trkpt lat="59.5595884323" lon="31.2622618675"><ele>0.14</ele><time>2026-09-02T21:19:45Z</time></trkpt><trkpt lat="59.5595884323" lon="31.2622404099"><ele>0.14</ele><time>2026-09-02T21:19:48Z</time></trkpt><trkpt lat="59.5596098900" lon="31.2622189522"><ele>0.14</ele><time>2026-09-02T21:19:50Z</time></trkpt><trkpt lat="59.5596313477" lon="31.2621974945"><ele>0.14</ele><time>2026-09-02T21:19:53Z</time></trkpt><trkpt lat="59.5596528053" lon="31.2621974945"><ele>0.14</ele><time>2026-09-02T21:19:55Z</time></trkpt><trkpt lat="59.5597171783" lon="31.2622189522"><ele>0.14</ele><time>2026-09-02T21:19:58Z</time></trkpt><trkpt lat="59.5597386360" lon="31.2622618675"><ele>0.14</ele><time>2026-09-02T21:20:00Z</time></trkpt><trkpt lat="59.5597171783" lon="31.2623047829"><ele>0.14</ele><time>2026-09-02T21:20:03Z</time></trkpt><trkpt lat="59.5596957207" lon="31.2623047829"><ele>0.14</ele><time>2026-09-02T21:20:05Z</time></trkpt><trkpt lat="59.5596957207" lon="31.2622618675"><ele>0.14</ele><time>2026-09-02T21:20:08Z</time></trkpt><trkpt lat="59.5597171783" lon="31.2622404099"><ele>0.14</ele><time>2026-09-02T21:20:10Z</time></trkpt><trkpt lat="59.5597171783" lon="31.2622189522"><ele>0.14</ele><time>2026-09-02T21:20:13Z</time></trkpt><trkpt lat="59.5596957207" lon="31.2621974945"><ele>0.14</ele><time>2026-09-02T21:20:15Z</time></trkpt><trkpt lat="59.5596957207" lon="31.2621760368"><ele>0.14</ele><time>2026-09-02T21:20:18Z</time></trkpt><trkpt lat="59.5596957207" lon="31.2621760368"><ele>0.14</ele><time>2026-09-02T21:20:20Z</time></trkpt><trkpt lat="59.5596957207" lon="31.2621760368"><ele>0.14</ele><time>2026-09-02T21:20:23Z</time></trkpt><trkpt lat="59.5596957207" lon="31.2621760368"><ele>0.14</ele><time>2026-09-02T21:20:25Z</time></trkpt><trkpt lat="59.5596957207" lon="31.2621760368"><ele>0.14</ele><time>2026-09-02T21:20:28Z</time></trkpt><trkpt lat="59.5596957207" lon="31.2621760368"><ele>0.14</ele><time>2026-09-02T21:20:30Z</time></trkpt><trkpt lat="59.5597171783" lon="31.2621760368"><ele>0.14</ele><time>2026-09-02T21:20:33Z</time></trkpt><trkpt lat="59.5597171783" lon="31.2621974945"><ele>0.14</ele><time>2026-09-02T21:20:35Z</time></trkpt><trkpt lat="59.5597171783" lon="31.2621760368"><ele>0.14</ele><time>2026-09-02T21:20:38Z</time></trkpt><trkpt lat="59.5597171783" lon="31.2621116638"><ele>0.14</ele><time>2026-09-02T21:20:40Z</time></trkpt><trkpt lat="59.5596957207" lon="31.2620902061"><ele>0.14</ele><time>2026-09-02T21:20:43Z</time></trkpt><trkpt lat="59.5596957207" lon="31.2620472908"><ele>0.14</ele><time>2026-09-02T21:20:45Z</time></trkpt><trkpt lat="59.5596957207" lon="31.2620472908"><ele>0.14</ele><time>2026-09-02T21:20:48Z</time></trkpt><trkpt lat="59.5597171783" lon="31.2620258331"><ele>0.14</ele><time>2026-09-02T21:20:50Z</time></trkpt><trkpt lat="59.5597386360" lon="31.2620472908"><ele>0.14</ele><time>2026-09-02T21:20:53Z</time></trkpt><trkpt lat="59.5597171783" lon="31.2621116638"><ele>0.14</ele><time>2026-09-02T21:20:55Z</time></trkpt><trkpt lat="59.5596957207" lon="31.2621760368"><ele>0.14</ele><time>2026-09-02T21:20:58Z</time></trkpt><trkpt lat="59.5596742630" lon="31.2621974945"><ele>0.14</ele><time>2026-09-02T21:21:00Z</time></trkpt><trkpt lat="59.5596313477" lon="31.2621545792"><ele>0.14</ele><time>2026-09-02T21:21:03Z</time></trkpt><trkpt lat="59.5596313477" lon="31.2621545792"><ele>0.14</ele><time>2026-09-02T21:21:05Z</time></trkpt><trkpt lat="59.5596098900" lon="31.2621331215"><ele>0.14</ele><time>2026-09-02T21:21:08Z</time></trkpt><trkpt lat="59.5596098900" lon="31.2621116638"><ele>0.14</ele><time>2026-09-02T21:21:10Z</time></trkpt><trkpt lat="59.5596098900" lon="31.2620902061"><ele>0.14</ele><time>2026-09-02T21:21:13Z</time></trkpt><trkpt lat="59.5596098900" lon="31.2620687485"><ele>0.14</ele><time>2026-09-02T21:21:15Z</time></trkpt><trkpt lat="59.5596313477" lon="31.2620472908"><ele>0.14</ele><time>2026-09-02T21:21:18Z</time></trkpt><trkpt lat="59.5596528053" lon="31.2620472908"><ele>0.14</ele><time>2026-09-02T21:21:20Z</time></trkpt><trkpt lat="59.5596313477" lon="31.2620472908"><ele>0.14</ele><time>2026-09-02T21:21:23Z</time></trkpt><trkpt lat="59.5595884323" lon="31.2620687485"><ele>0.14</ele><time>2026-09-02T21:21:25Z</time></trkpt><trkpt lat="59.5595884323" lon="31.2620258331"><ele>0.14</ele><time>2026-09-02T21:21:28Z</time></trkpt><trkpt lat="59.5595669746" lon="31.2620472908"><ele>0.14</ele><time>2026-09-02T21:21:30Z</time></trkpt><trkpt lat="59.5595669746" lon="31.2620687485"><ele>0.14</ele><time>2026-09-02T21:21:33Z</time></trkpt><trkpt lat="59.5595669746" lon="31.2621116638"><ele>0.14</ele><time>2026-09-02T21:21:35Z</time></trkpt><trkpt lat="59.5595669746" lon="31.2622189522"><ele>0.14</ele><time>2026-09-02T21:21:38Z</time></trkpt><trkpt lat="59.5595455170" lon="31.2623047829"><ele>0.14</ele><time>2026-09-02T21:21:40Z</time></trkpt><trkpt lat="59.5595026016" lon="31.2624549866"><ele>0.14</ele><time>2026-09-02T21:21:43Z</time></trkpt><trkpt lat="59.5594596863" lon="31.2625837326"><ele>0.14</ele><time>2026-09-02T21:21:45Z</time></trkpt><trkpt lat="59.5594382286" lon="31.2627124786"><ele>0.14</ele><time>2026-09-02T21:21:48Z</time></trkpt><trkpt lat="59.5594811440" lon="31.2627768517"><ele>0.14</ele><time>2026-09-02T21:21:50Z</time></trkpt><trkpt lat="59.5595455170" lon="31.2628626823"><ele>0.14</ele><time>2026-09-02T21:21:53Z</time></trkpt><trkpt lat="59.5595669746" lon="31.2629914284"><ele>0.14</ele><time>2026-09-02T21:21:55Z</time></trkpt><trkpt lat="59.5595669746" lon="31.2631630898"><ele>0.14</ele><time>2026-09-02T21:21:58Z</time></trkpt><trkpt lat="59.5595884323" lon="31.2632703781"><ele>0.14</ele><time>2026-09-02T21:22:00Z</time></trkpt><trkpt lat="59.5595884323" lon="31.2633562088"><ele>0.14</ele><time>2026-09-02T21:22:03Z</time></trkpt><trkpt lat="59.5595669746" lon="31.2634205818"><ele>0.14</ele><time>2026-09-02T21:22:05Z</time></trkpt><trkpt lat="59.5595669746" lon="31.2634849548"><ele>0.14</ele><time>2026-09-02T21:22:08Z</time></trkpt><trkpt lat="59.5595884323" lon="31.2635278702"><ele>0.14</ele><time>2026-09-02T21:22:10Z</time></trkpt><trkpt lat="59.5596528053" lon="31.2635922432"><ele>0.14</ele><time>2026-09-02T21:22:13Z</time></trkpt><trkpt lat="59.5596957207" lon="31.2636566162"><ele>0.14</ele><time>2026-09-02T21:22:15Z</time></trkpt><trkpt lat="59.5597386360" lon="31.2636995316"><ele>0.14</ele><time>2026-09-02T21:22:18Z</time></trkpt><trkpt lat="59.5597600937" lon="31.2637639046"><ele>0.14</ele><time>2026-09-02T21:22:20Z</time></trkpt><trkpt lat="59.5597815514" lon="31.2638282776"><ele>0.14</ele><time>2026-09-02T21:22:23Z</time></trkpt><trkpt lat="59.5597815514" lon="31.2638497353"><ele>0.14</ele><time>2026-09-02T21:22:25Z</time></trkpt><trkpt lat="59.5597815514" lon="31.2638497353"><ele>0.14</ele><time>2026-09-02T21:22:28Z</time></trkpt><trkpt lat="59.5597815514" lon="31.2638497353"><ele>0.14</ele><time>2026-09-02T21:22:30Z</time></trkpt><trkpt lat="59.5598030090" lon="31.2638497353"><ele>0.14</ele><time>2026-09-02T21:22:33Z</time></trkpt><trkpt lat="59.5598244667" lon="31.2638497353"><ele>0.14</ele><time>2026-09-02T21:22:35Z</time></trkpt><trkpt lat="59.5598459244" lon="31.2638068199"><ele>0.14</ele><time>2026-09-02T21:22:38Z</time></trkpt><trkpt lat="59.5598244667" lon="31.2637853622"><ele>0.14</ele><time>2026-09-02T21:22:40Z</time></trkpt><trkpt lat="59.5598459244" lon="31.2637424469"><ele>0.14</ele><time>2026-09-02T21:22:43Z</time></trkpt><trkpt lat="59.5598459244" lon="31.2636995316"><ele>0.14</ele><time>2026-09-02T21:22:45Z</time></trkpt><trkpt lat="59.5598459244" lon="31.2636566162"><ele>0.14</ele><time>2026-09-02T21:22:48Z</time></trkpt><trkpt lat="59.5598459244" lon="31.2635922432"><ele>0.14</ele><time>2026-09-02T21:22:50Z</time></trkpt><trkpt lat="59.5598459244" lon="31.2635278702"><ele>0.14</ele><time>2026-09-02T21:22:53Z</time></trkpt><trkpt lat="59.5598673820" lon="31.2634849548"><ele>0.14</ele><time>2026-09-02T21:22:55Z</time></trkpt><trkpt lat="59.5598244667" lon="31.2634420395"><ele>0.14</ele><time>2026-09-02T21:22:58Z</time></trkpt><trkpt lat="59.5598030090" lon="31.2634205818"><ele>0.14</ele><time>2026-09-02T21:23:00Z</time></trkpt><trkpt lat="59.5597600937" lon="31.2634205818"><ele>0.14</ele><time>2026-09-02T21:23:03Z</time></trkpt><trkpt lat="59.5597386360" lon="31.2634420395"><ele>0.14</ele><time>2026-09-02T21:23:05Z</time></trkpt><trkpt lat="59.5597171783" lon="31.2634420395"><ele>0.14</ele><time>2026-09-02T21:23:08Z</time></trkpt><trkpt lat="59.5597386360" lon="31.2634205818"><ele>0.14</ele><time>2026-09-02T21:23:10Z</time></trkpt><trkpt lat="59.5597815514" lon="31.2633776665"><ele>0.14</ele><time>2026-09-02T21:23:13Z</time></trkpt><trkpt lat="59.5598244667" lon="31.2633991241"><ele>0.14</ele><time>2026-09-02T21:23:15Z</time></trkpt><trkpt lat="59.5598673820" lon="31.2634634972"><ele>0.14</ele><time>2026-09-02T21:23:18Z</time></trkpt><trkpt lat="59.5598673820" lon="31.2635493279"><ele>0.14</ele><time>2026-09-02T21:23:20Z</time></trkpt><trkpt lat="59.5599102974" lon="31.2636351585"><ele>0.14</ele><time>2026-09-02T21:23:23Z</time></trkpt><trkpt lat="59.5599317551" lon="31.2636995316"><ele>0.14</ele><time>2026-09-02T21:23:25Z</time></trkpt><trkpt lat="59.5599532127" lon="31.2637853622"><ele>0.14</ele><time>2026-09-02T21:23:28Z</time></trkpt><trkpt lat="59.5599746704" lon="31.2638497353"><ele>0.14</ele><time>2026-09-02T21:23:30Z</time></trkpt><trkpt lat="59.5600390434" lon="31.2639355659"><ele>0.14</ele><time>2026-09-02T21:23:33Z</time></trkpt><trkpt lat="59.5601248741" lon="31.2639570236"><ele>0.14</ele><time>2026-09-02T21:23:35Z</time></trkpt><trkpt lat="59.5601892471" lon="31.2639570236"><ele>0.14</ele><time>2026-09-02T21:23:38Z</time></trkpt><trkpt lat="59.5602321625" lon="31.2639355659"><ele>0.14</ele><time>2026-09-02T21:23:40Z</time></trkpt><trkpt lat="59.5602107048" lon="31.2638497353"><ele>0.14</ele><time>2026-09-02T21:23:43Z</time></trkpt><trkpt lat="59.5602107048" lon="31.2637424469"><ele>0.14</ele><time>2026-09-02T21:23:45Z</time></trkpt><trkpt lat="59.5601892471" lon="31.2636995316"><ele>0.14</ele><time>2026-09-02T21:23:48Z</time></trkpt><trkpt lat="59.5601677895" lon="31.2636780739"><ele>0.14</ele><time>2026-09-02T21:23:50Z</time></trkpt><trkpt lat="59.5601463318" lon="31.2636780739"><ele>0.14</ele><time>2026-09-02T21:23:53Z</time></trkpt><trkpt lat="59.5601034164" lon="31.2636995316"><ele>0.14</ele><time>2026-09-02T21:23:55Z</time></trkpt><trkpt lat="59.5600605011" lon="31.2636780739"><ele>0.14</ele><time>2026-09-02T21:23:58Z</time></trkpt><trkpt lat="59.5600605011" lon="31.2636566162"><ele>0.14</ele><time>2026-09-02T21:24:00Z</time></trkpt><trkpt lat="59.5600605011" lon="31.2636566162"><ele>0.14</ele><time>2026-09-02T21:24:03Z</time></trkpt><trkpt lat="59.5600605011" lon="31.2636566162"><ele>0.14</ele><time>2026-09-02T21:24:05Z</time></trkpt><trkpt lat="59.5600605011" lon="31.2636566162"><ele>0.14</ele><time>2026-09-02T21:24:08Z</time></trkpt><trkpt lat="59.5600605011" lon="31.2636566162"><ele>0.14</ele><time>2026-09-02T21:24:10Z</time></trkpt><trkpt lat="59.5600605011" lon="31.2636566162"><ele>0.14</ele><time>2026-09-02T21:24:13Z</time></trkpt><trkpt lat="59.5600605011" lon="31.2636566162"><ele>0.14</ele><time>2026-09-02T21:24:15Z</time></trkpt><trkpt lat="59.5600605011" lon="31.2636566162"><ele>0.14</ele><time>2026-09-02T21:24:18Z</time></trkpt><trkpt lat="59.5600605011" lon="31.2636566162"><ele>0.14</ele><time>2026-09-02T21:24:20Z</time></trkpt><trkpt lat="59.5600605011" lon="31.2636566162"><ele>0.14</ele><time>2026-09-02T21:24:23Z</time></trkpt><trkpt lat="59.5600605011" lon="31.2636566162"><ele>0.14</ele><time>2026-09-02T21:24:25Z</time></trkpt><trkpt lat="59.5600605011" lon="31.2636566162"><ele>0.14</ele><time>2026-09-02T21:24:28Z</time></trkpt><trkpt lat="59.5600605011" lon="31.2636566162"><ele>0.14</ele><time>2026-09-02T21:24:30Z</time></trkpt><trkpt lat="59.5600605011" lon="31.2636566162"><ele>0.14</ele><time>2026-09-02T21:24:35Z</time></trkpt><trkpt lat="59.5600605011" lon="31.2636566162"><ele>0.14</ele><time>2026-09-02T21:24:38Z</time></trkpt><trkpt lat="59.5600605011" lon="31.2636566162"><ele>0.14</ele><time>2026-09-02T21:24:40Z</time></trkpt><trkpt lat="59.5600605011" lon="31.2636566162"><ele>0.14</ele><time>2026-09-02T21:24:43Z</time></trkpt><trkpt lat="59.5600605011" lon="31.2636566162"><ele>0.14</ele><time>2026-09-02T21:24:45Z</time></trkpt><trkpt lat="59.5600605011" lon="31.2636351585"><ele>0.14</ele><time>2026-09-02T21:24:48Z</time></trkpt><trkpt lat="59.5600605011" lon="31.2636351585"><ele>0.14</ele><time>2026-09-02T21:24:50Z</time></trkpt><trkpt lat="59.5600605011" lon="31.2636351585"><ele>0.14</ele><time>2026-09-02T21:24:53Z</time></trkpt><trkpt lat="59.5600605011" lon="31.2636351585"><ele>0.14</ele><time>2026-09-02T21:24:55Z</time></trkpt><trkpt lat="59.5600605011" lon="31.2636351585"><ele>0.14</ele><time>2026-09-02T21:24:58Z</time></trkpt><trkpt lat="59.5600605011" lon="31.2636351585"><ele>0.14</ele><time>2026-09-02T21:25:00Z</time></trkpt><trkpt lat="59.5600605011" lon="31.2636351585"><ele>0.14</ele><time>2026-09-02T21:25:03Z</time></trkpt><trkpt lat="59.5600605011" lon="31.2636351585"><ele>0.14</ele><time>2026-09-02T21:25:05Z</time></trkpt><trkpt lat="59.5600605011" lon="31.2636351585"><ele>0.14</ele><time>2026-09-02T21:25:08Z</time></trkpt><trkpt lat="59.5600605011" lon="31.2636351585"><ele>0.14</ele><time>2026-09-02T21:25:10Z</time></trkpt><trkpt lat="59.5600605011" lon="31.2636351585"><ele>0.14</ele><time>2026-09-02T21:25:13Z</time></trkpt><trkpt lat="59.5600605011" lon="31.2636351585"><ele>0.14</ele><time>2026-09-02T21:25:15Z</time></trkpt><trkpt lat="59.5600605011" lon="31.2636351585"><ele>0.14</ele><time>2026-09-02T21:25:18Z</time></trkpt><trkpt lat="59.5600605011" lon="31.2636351585"><ele>0.14</ele><time>2026-09-02T21:25:20Z</time></trkpt><trkpt lat="59.5600605011" lon="31.2636566162"><ele>0.14</ele><time>2026-09-02T21:25:23Z</time></trkpt><trkpt lat="59.5600605011" lon="31.2636566162"><ele>0.14</ele><time>2026-09-02T21:25:25Z</time></trkpt><trkpt lat="59.5600605011" lon="31.2636566162"><ele>0.14</ele><time>2026-09-02T21:25:28Z</time></trkpt><trkpt lat="59.5600605011" lon="31.2636566162"><ele>0.14</ele><time>2026-09-02T21:25:30Z</time></trkpt><trkpt lat="59.5600605011" lon="31.2636566162"><ele>0.14</ele><time>2026-09-02T21:25:33Z</time></trkpt><trkpt lat="59.5600605011" lon="31.2636566162"><ele>0.14</ele><time>2026-09-02T21:25:35Z</time></trkpt><trkpt lat="59.5600605011" lon="31.2636566162"><ele>0.14</ele><time>2026-09-02T21:25:38Z</time></trkpt><trkpt lat="59.5600605011" lon="31.2636566162"><ele>0.14</ele><time>2026-09-02T21:25:40Z</time></trkpt><trkpt lat="59.5600819588" lon="31.2636566162"><ele>0.14</ele><time>2026-09-02T21:25:43Z</time></trkpt><trkpt lat="59.5600819588" lon="31.2636566162"><ele>0.14</ele><time>2026-09-02T21:25:45Z</time></trkpt><trkpt lat="59.5600819588" lon="31.2636566162"><ele>0.14</ele><time>2026-09-02T21:25:48Z</time></trkpt><trkpt lat="59.5600819588" lon="31.2636566162"><ele>0.14</ele><time>2026-09-02T21:25:50Z</time></trkpt><trkpt lat="59.5600819588" lon="31.2636566162"><ele>0.14</ele><time>2026-09-02T21:25:53Z</time></trkpt><trkpt lat="59.5600819588" lon="31.2636566162"><ele>0.14</ele><time>2026-09-02T21:25:55Z</time></trkpt><trkpt lat="59.5600819588" lon="31.2636566162"><ele>0.14</ele><time>2026-09-02T21:25:58Z</time></trkpt><trkpt lat="59.5600819588" lon="31.2636566162"><ele>0.14</ele><time>2026-09-02T21:26:00Z</time></trkpt><trkpt lat="59.5600819588" lon="31.2636566162"><ele>0.14</ele><time>2026-09-02T21:26:03Z</time></trkpt><trkpt lat="59.5600605011" lon="31.2636566162"><ele>0.14</ele><time>2026-09-02T21:26:05Z</time></trkpt><trkpt lat="59.5600605011" lon="31.2636566162"><ele>0.14</ele><time>2026-09-02T21:26:08Z</time></trkpt><trkpt lat="59.5600390434" lon="31.2636351585"><ele>0.14</ele><time>2026-09-02T21:26:10Z</time></trkpt><trkpt lat="59.5600175858" lon="31.2636137009"><ele>0.14</ele><time>2026-09-02T21:26:13Z</time></trkpt><trkpt lat="59.5599961281" lon="31.2635707855"><ele>0.14</ele><time>2026-09-02T21:26:15Z</time></trkpt><trkpt lat="59.5599532127" lon="31.2635278702"><ele>0.14</ele><time>2026-09-02T21:26:18Z</time></trkpt><trkpt lat="59.5599532127" lon="31.2635064125"><ele>0.14</ele><time>2026-09-02T21:26:20Z</time></trkpt><trkpt lat="59.5599317551" lon="31.2634634972"><ele>0.14</ele><time>2026-09-02T21:26:23Z</time></trkpt><trkpt lat="59.5599317551" lon="31.2634205818"><ele>0.14</ele><time>2026-09-02T21:26:25Z</time></trkpt><trkpt lat="59.5599102974" lon="31.2633991241"><ele>0.14</ele><time>2026-09-02T21:26:28Z</time></trkpt><trkpt lat="59.5599102974" lon="31.2633562088"><ele>0.14</ele><time>2026-09-02T21:26:30Z</time></trkpt><trkpt lat="59.5599102974" lon="31.2633132935"><ele>0.14</ele><time>2026-09-02T21:26:33Z</time></trkpt><trkpt lat="59.5598888397" lon="31.2632703781"><ele>0.14</ele><time>2026-09-02T21:26:35Z</time></trkpt><trkpt lat="59.5598888397" lon="31.2632274628"><ele>0.14</ele><time>2026-09-02T21:26:38Z</time></trkpt><trkpt lat="59.5598888397" lon="31.2632274628"><ele>0.14</ele><time>2026-09-02T21:26:40Z</time></trkpt><trkpt lat="59.5598673820" lon="31.2632489204"><ele>0.14</ele><time>2026-09-02T21:26:43Z</time></trkpt><trkpt lat="59.5598459244" lon="31.2632489204"><ele>0.14</ele><time>2026-09-02T21:26:45Z</time></trkpt><trkpt lat="59.5598459244" lon="31.2632274628"><ele>0.14</ele><time>2026-09-02T21:26:48Z</time></trkpt><trkpt lat="59.5598244667" lon="31.2631845474"><ele>0.14</ele><time>2026-09-02T21:26:50Z</time></trkpt><trkpt lat="59.5598244667" lon="31.2631416321"><ele>0.14</ele><time>2026-09-02T21:26:53Z</time></trkpt><trkpt lat="59.5598244667" lon="31.2631201744"><ele>0.14</ele><time>2026-09-02T21:26:55Z</time></trkpt><trkpt lat="59.5598030090" lon="31.2631201744"><ele>0.14</ele><time>2026-09-02T21:26:58Z</time></trkpt><trkpt lat="59.5597815514" lon="31.2630987167"><ele>0.14</ele><time>2026-09-02T21:27:00Z</time></trkpt><trkpt lat="59.5597600937" lon="31.2630987167"><ele>0.14</ele><time>2026-09-02T21:27:03Z</time></trkpt><trkpt lat="59.5597600937" lon="31.2630987167"><ele>0.14</ele><time>2026-09-02T21:27:05Z</time></trkpt><trkpt lat="59.5597386360" lon="31.2630772591"><ele>0.14</ele><time>2026-09-02T21:27:08Z</time></trkpt><trkpt lat="59.5597171783" lon="31.2630772591"><ele>0.14</ele><time>2026-09-02T21:27:10Z</time></trkpt><trkpt lat="59.5597171783" lon="31.2630772591"><ele>0.14</ele><time>2026-09-02T21:27:13Z</time></trkpt><trkpt lat="59.5596957207" lon="31.2630772591"><ele>0.14</ele><time>2026-09-02T21:27:15Z</time></trkpt><trkpt lat="59.5596957207" lon="31.2630558014"><ele>0.14</ele><time>2026-09-02T21:27:18Z</time></trkpt><trkpt lat="59.5596957207" lon="31.2630343437"><ele>0.14</ele><time>2026-09-02T21:27:20Z</time></trkpt><trkpt lat="59.5597171783" lon="31.2630128860"><ele>0.14</ele><time>2026-09-02T21:27:23Z</time></trkpt><trkpt lat="59.5597171783" lon="31.2629914284"><ele>0.14</ele><time>2026-09-02T21:27:25Z</time></trkpt><trkpt lat="59.5596957207" lon="31.2629699707"><ele>0.14</ele><time>2026-09-02T21:27:28Z</time></trkpt><trkpt lat="59.5596957207" lon="31.2629485130"><ele>0.14</ele><time>2026-09-02T21:27:30Z</time></trkpt><trkpt lat="59.5596742630" lon="31.2629699707"><ele>0.14</ele><time>2026-09-02T21:27:33Z</time></trkpt><trkpt lat="59.5596742630" lon="31.2629699707"><ele>0.14</ele><time>2026-09-02T21:27:35Z</time></trkpt><trkpt lat="59.5596742630" lon="31.2629699707"><ele>0.14</ele><time>2026-09-02T21:27:38Z</time></trkpt><trkpt lat="59.5596742630" lon="31.2629699707"><ele>0.14</ele><time>2026-09-02T21:27:40Z</time></trkpt><trkpt lat="59.5596742630" lon="31.2629699707"><ele>0.14</ele><time>2026-09-02T21:27:43Z</time></trkpt><trkpt lat="59.5596742630" lon="31.2629699707"><ele>0.14</ele><time>2026-09-02T21:27:45Z</time></trkpt><trkpt lat="59.5596742630" lon="31.2629485130"><ele>0.14</ele><time>2026-09-02T21:27:48Z</time></trkpt><trkpt lat="59.5596742630" lon="31.2629485130"><ele>0.14</ele><time>2026-09-02T21:27:50Z</time></trkpt><trkpt lat="59.5596742630" lon="31.2629485130"><ele>0.14</ele><time>2026-09-02T21:27:53Z</time></trkpt><trkpt lat="59.5596742630" lon="31.2629270554"><ele>0.14</ele><time>2026-09-02T21:27:55Z</time></trkpt><trkpt lat="59.5596742630" lon="31.2629055977"><ele>0.14</ele><time>2026-09-02T21:27:58Z</time></trkpt><trkpt lat="59.5596742630" lon="31.2628841400"><ele>0.14</ele><time>2026-09-02T21:28:00Z</time></trkpt><trkpt lat="59.5596742630" lon="31.2628626823"><ele>0.14</ele><time>2026-09-02T21:28:03Z</time></trkpt><trkpt lat="59.5596742630" lon="31.2628626823"><ele>0.14</ele><time>2026-09-02T21:28:05Z</time></trkpt><trkpt lat="59.5596742630" lon="31.2628412247"><ele>0.14</ele><time>2026-09-02T21:28:08Z</time></trkpt><trkpt lat="59.5596957207" lon="31.2628197670"><ele>0.14</ele><time>2026-09-02T21:28:10Z</time></trkpt><trkpt lat="59.5596957207" lon="31.2627768517"><ele>0.14</ele><time>2026-09-02T21:28:13Z</time></trkpt><trkpt lat="59.5596957207" lon="31.2627339363"><ele>0.14</ele><time>2026-09-02T21:28:15Z</time></trkpt><trkpt lat="59.5596957207" lon="31.2627124786"><ele>0.14</ele><time>2026-09-02T21:28:18Z</time></trkpt><trkpt lat="59.5596957207" lon="31.2626695633"><ele>0.14</ele><time>2026-09-02T21:28:20Z</time></trkpt><trkpt lat="59.5596742630" lon="31.2626695633"><ele>0.14</ele><time>2026-09-02T21:28:23Z</time></trkpt><trkpt lat="59.5596742630" lon="31.2626481056"><ele>0.14</ele><time>2026-09-02T21:28:25Z</time></trkpt><trkpt lat="59.5596528053" lon="31.2626481056"><ele>0.14</ele><time>2026-09-02T21:28:28Z</time></trkpt><trkpt lat="59.5596313477" lon="31.2626481056"><ele>0.14</ele><time>2026-09-02T21:28:30Z</time></trkpt><trkpt lat="59.5596313477" lon="31.2626695633"><ele>0.14</ele><time>2026-09-02T21:28:33Z</time></trkpt><trkpt lat="59.5596313477" lon="31.2626266479"><ele>0.14</ele><time>2026-09-02T21:28:35Z</time></trkpt><trkpt lat="59.5596313477" lon="31.2626266479"><ele>0.14</ele><time>2026-09-02T21:28:38Z</time></trkpt><trkpt lat="59.5596098900" lon="31.2626481056"><ele>0.14</ele><time>2026-09-02T21:28:40Z</time></trkpt><trkpt lat="59.5596313477" lon="31.2626051903"><ele>0.14</ele><time>2026-09-02T21:28:43Z</time></trkpt><trkpt lat="59.5596313477" lon="31.2625837326"><ele>0.14</ele><time>2026-09-02T21:28:45Z</time></trkpt><trkpt lat="59.5596313477" lon="31.2625837326"><ele>0.14</ele><time>2026-09-02T21:28:48Z</time></trkpt><trkpt lat="59.5596313477" lon="31.2625837326"><ele>0.14</ele><time>2026-09-02T21:28:50Z</time></trkpt><trkpt lat="59.5596098900" lon="31.2625837326"><ele>0.14</ele><time>2026-09-02T21:28:53Z</time></trkpt><trkpt lat="59.5596098900" lon="31.2626051903"><ele>0.14</ele><time>2026-09-02T21:28:55Z</time></trkpt><trkpt lat="59.5595884323" lon="31.2625837326"><ele>0.14</ele><time>2026-09-02T21:28:58Z</time></trkpt><trkpt lat="59.5595884323" lon="31.2625622749"><ele>0.14</ele><time>2026-09-02T21:29:00Z</time></trkpt><trkpt lat="59.5596098900" lon="31.2625408173"><ele>0.14</ele><time>2026-09-02T21:29:03Z</time></trkpt><trkpt lat="59.5596098900" lon="31.2625837326"><ele>0.14</ele><time>2026-09-02T21:29:05Z</time></trkpt><trkpt lat="59.5596313477" lon="31.2626266479"><ele>0.14</ele><time>2026-09-02T21:29:08Z</time></trkpt><trkpt lat="59.5596528053" lon="31.2626695633"><ele>0.14</ele><time>2026-09-02T21:29:10Z</time></trkpt><trkpt lat="59.5596742630" lon="31.2626266479"><ele>0.14</ele><time>2026-09-02T21:29:13Z</time></trkpt><trkpt lat="59.5596957207" lon="31.2625837326"><ele>0.14</ele><time>2026-09-02T21:29:15Z</time></trkpt><trkpt lat="59.5597386360" lon="31.2626051903"><ele>0.14</ele><time>2026-09-02T21:29:18Z</time></trkpt><trkpt lat="59.5597600937" lon="31.2626051903"><ele>0.14</ele><time>2026-09-02T21:29:20Z</time></trkpt><trkpt lat="59.5597600937" lon="31.2626266479"><ele>0.14</ele><time>2026-09-02T21:29:23Z</time></trkpt><trkpt lat="59.5597171783" lon="31.2626481056"><ele>0.14</ele><time>2026-09-02T21:29:25Z</time></trkpt><trkpt lat="59.5596742630" lon="31.2626695633"><ele>0.14</ele><time>2026-09-02T21:29:28Z</time></trkpt><trkpt lat="59.5596742630" lon="31.2627124786"><ele>0.14</ele><time>2026-09-02T21:29:30Z</time></trkpt><trkpt lat="59.5596742630" lon="31.2627339363"><ele>0.14</ele><time>2026-09-02T21:29:33Z</time></trkpt><trkpt lat="59.5596742630" lon="31.2627768517"><ele>0.14</ele><time>2026-09-02T21:29:35Z</time></trkpt><trkpt lat="59.5596528053" lon="31.2628197670"><ele>0.14</ele><time>2026-09-02T21:29:38Z</time></trkpt><trkpt lat="59.5596313477" lon="31.2629055977"><ele>0.14</ele><time>2026-09-02T21:29:40Z</time></trkpt><trkpt lat="59.5595884323" lon="31.2629699707"><ele>0.14</ele><time>2026-09-02T21:29:43Z</time></trkpt><trkpt lat="59.5595455170" lon="31.2629699707"><ele>0.14</ele><time>2026-09-02T21:29:45Z</time></trkpt><trkpt lat="59.5595026016" lon="31.2629699707"><ele>0.14</ele><time>2026-09-02T21:29:48Z</time></trkpt><trkpt lat="59.5595026016" lon="31.2629914284"><ele>0.14</ele><time>2026-09-02T21:29:50Z</time></trkpt><trkpt lat="59.5595026016" lon="31.2630772591"><ele>0.14</ele><time>2026-09-02T21:29:53Z</time></trkpt><trkpt lat="59.5594811440" lon="31.2631201744"><ele>0.14</ele><time>2026-09-02T21:29:55Z</time></trkpt><trkpt lat="59.5594596863" lon="31.2631845474"><ele>0.14</ele><time>2026-09-02T21:29:58Z</time></trkpt><trkpt lat="59.5594596863" lon="31.2632060051"><ele>0.14</ele><time>2026-09-02T21:30:00Z</time></trkpt><trkpt lat="59.5594596863" lon="31.2632703781"><ele>0.14</ele><time>2026-09-02T21:30:03Z</time></trkpt><trkpt lat="59.5594382286" lon="31.2633132935"><ele>0.14</ele><time>2026-09-02T21:30:05Z</time></trkpt><trkpt lat="59.5594167709" lon="31.2633347511"><ele>0.14</ele><time>2026-09-02T21:30:08Z</time></trkpt><trkpt lat="59.5593738556" lon="31.2633347511"><ele>0.14</ele><time>2026-09-02T21:30:10Z</time></trkpt><trkpt lat="59.5593309402" lon="31.2633347511"><ele>0.14</ele><time>2026-09-02T21:30:13Z</time></trkpt><trkpt lat="59.5593094826" lon="31.2633776665"><ele>0.14</ele><time>2026-09-02T21:30:15Z</time></trkpt><trkpt lat="59.5592665672" lon="31.2634205818"><ele>0.14</ele><time>2026-09-02T21:30:18Z</time></trkpt><trkpt lat="59.5592451096" lon="31.2634205818"><ele>0.14</ele><time>2026-09-02T21:30:20Z</time></trkpt><trkpt lat="59.5592236519" lon="31.2634634972"><ele>0.14</ele><time>2026-09-02T21:30:23Z</time></trkpt><trkpt lat="59.5592021942" lon="31.2634634972"><ele>0.14</ele><time>2026-09-02T21:30:25Z</time></trkpt><trkpt lat="59.5592021942" lon="31.2634420395"><ele>0.14</ele><time>2026-09-02T21:30:28Z</time></trkpt><trkpt lat="59.5592021942" lon="31.2634205818"><ele>0.14</ele><time>2026-09-02T21:30:30Z</time></trkpt><trkpt lat="59.5591592789" lon="31.2633776665"><ele>0.14</ele><time>2026-09-02T21:30:33Z</time></trkpt><trkpt lat="59.5591378212" lon="31.2633776665"><ele>0.14</ele><time>2026-09-02T21:30:35Z</time></trkpt><trkpt lat="59.5591378212" lon="31.2633991241"><ele>0.14</ele><time>2026-09-02T21:30:38Z</time></trkpt><trkpt lat="59.5591378212" lon="31.2634205818"><ele>0.14</ele><time>2026-09-02T21:30:40Z</time></trkpt><trkpt lat="59.5591163635" lon="31.2634205818"><ele>0.14</ele><time>2026-09-02T21:30:43Z</time></trkpt><trkpt lat="59.5590949059" lon="31.2634634972"><ele>0.14</ele><time>2026-09-02T21:30:45Z</time></trkpt><trkpt lat="59.5590949059" lon="31.2634849548"><ele>0.14</ele><time>2026-09-02T21:30:48Z</time></trkpt><trkpt lat="59.5590734482" lon="31.2635278702"><ele>0.14</ele><time>2026-09-02T21:30:50Z</time></trkpt><trkpt lat="59.5590519905" lon="31.2635707855"><ele>0.14</ele><time>2026-09-02T21:30:53Z</time></trkpt><trkpt lat="59.5590090752" lon="31.2635922432"><ele>0.14</ele><time>2026-09-02T21:30:55Z</time></trkpt><trkpt lat="59.5589447021" lon="31.2636780739"><ele>0.14</ele><time>2026-09-02T21:30:58Z</time></trkpt><trkpt lat="59.5589232445" lon="31.2637424469"><ele>0.14</ele><time>2026-09-02T21:31:00Z</time></trkpt><trkpt lat="59.5589447021" lon="31.2637853622"><ele>0.14</ele><time>2026-09-02T21:31:03Z</time></trkpt><trkpt lat="59.5589447021" lon="31.2638497353"><ele>0.14</ele><time>2026-09-02T21:31:05Z</time></trkpt><trkpt lat="59.5589447021" lon="31.2638711929"><ele>0.14</ele><time>2026-09-02T21:31:08Z</time></trkpt><trkpt lat="59.5589447021" lon="31.2639141083"><ele>0.14</ele><time>2026-09-02T21:31:10Z</time></trkpt><trkpt lat="59.5589232445" lon="31.2639570236"><ele>0.14</ele><time>2026-09-02T21:31:13Z</time></trkpt><trkpt lat="59.5589232445" lon="31.2639784813"><ele>0.14</ele><time>2026-09-02T21:31:15Z</time></trkpt><trkpt lat="59.5589447021" lon="31.2639999390"><ele>0.14</ele><time>2026-09-02T21:31:18Z</time></trkpt><trkpt lat="59.5589447021" lon="31.2640213966"><ele>0.14</ele><time>2026-09-02T21:31:20Z</time></trkpt><trkpt lat="59.5589447021" lon="31.2640213966"><ele>0.14</ele><time>2026-09-02T21:31:23Z</time></trkpt><trkpt lat="59.5589661598" lon="31.2639999390"><ele>0.14</ele><time>2026-09-02T21:31:25Z</time></trkpt><trkpt lat="59.5589661598" lon="31.2639999390"><ele>0.14</ele><time>2026-09-02T21:31:28Z</time></trkpt><trkpt lat="59.5589447021" lon="31.2640213966"><ele>0.14</ele><time>2026-09-02T21:31:30Z</time></trkpt><trkpt lat="59.5589447021" lon="31.2640428543"><ele>0.14</ele><time>2026-09-02T21:31:33Z</time></trkpt><trkpt lat="59.5589447021" lon="31.2640643120"><ele>0.14</ele><time>2026-09-02T21:31:35Z</time></trkpt><trkpt lat="59.5589447021" lon="31.2641072273"><ele>0.14</ele><time>2026-09-02T21:31:38Z</time></trkpt><trkpt lat="59.5589447021" lon="31.2641501427"><ele>0.14</ele><time>2026-09-02T21:31:40Z</time></trkpt><trkpt lat="59.5589447021" lon="31.2641716003"><ele>0.14</ele><time>2026-09-02T21:31:43Z</time></trkpt><trkpt lat="59.5589661598" lon="31.2641930580"><ele>0.14</ele><time>2026-09-02T21:31:45Z</time></trkpt><trkpt lat="59.5589661598" lon="31.2642359734"><ele>0.14</ele><time>2026-09-02T21:31:48Z</time></trkpt><trkpt lat="59.5589661598" lon="31.2643432617"><ele>0.14</ele><time>2026-09-02T21:31:50Z</time></trkpt><trkpt lat="59.5589447021" lon="31.2644505501"><ele>0.14</ele><time>2026-09-02T21:31:53Z</time></trkpt><trkpt lat="59.5589232445" lon="31.2644720078"><ele>0.14</ele><time>2026-09-02T21:31:55Z</time></trkpt><trkpt lat="59.5588803291" lon="31.2644505501"><ele>0.14</ele><time>2026-09-02T21:31:58Z</time></trkpt><trkpt lat="59.5588374138" lon="31.2643861771"><ele>0.14</ele><time>2026-09-02T21:32:00Z</time></trkpt><trkpt lat="59.5588159561" lon="31.2643218040"><ele>0.14</ele><time>2026-09-02T21:32:03Z</time></trkpt><trkpt lat="59.5588159561" lon="31.2642788887"><ele>0.14</ele><time>2026-09-02T21:32:05Z</time></trkpt><trkpt lat="59.5588159561" lon="31.2642574310"><ele>0.14</ele><time>2026-09-02T21:32:08Z</time></trkpt><trkpt lat="59.5588159561" lon="31.2642788887"><ele>0.14</ele><time>2026-09-02T21:32:10Z</time></trkpt><trkpt lat="59.5588159561" lon="31.2643003464"><ele>0.14</ele><time>2026-09-02T21:32:13Z</time></trkpt><trkpt lat="59.5588374138" lon="31.2643003464"><ele>0.14</ele><time>2026-09-02T21:32:15Z</time></trkpt><trkpt lat="59.5587944984" lon="31.2643003464"><ele>0.14</ele><time>2026-09-02T21:32:18Z</time></trkpt><trkpt lat="59.5587730408" lon="31.2643218040"><ele>0.14</ele><time>2026-09-02T21:32:20Z</time></trkpt><trkpt lat="59.5587730408" lon="31.2643432617"><ele>0.14</ele><time>2026-09-02T21:32:23Z</time></trkpt><trkpt lat="59.5587730408" lon="31.2643432617"><ele>0.14</ele><time>2026-09-02T21:32:25Z</time></trkpt><trkpt lat="59.5587301254" lon="31.2643218040"><ele>0.14</ele><time>2026-09-02T21:32:28Z</time></trkpt><trkpt lat="59.5587086678" lon="31.2643003464"><ele>0.14</ele><time>2026-09-02T21:32:30Z</time></trkpt><trkpt lat="59.5587086678" lon="31.2642359734"><ele>0.14</ele><time>2026-09-02T21:32:33Z</time></trkpt><trkpt lat="59.5587086678" lon="31.2641716003"><ele>0.14</ele><time>2026-09-02T21:32:35Z</time></trkpt><trkpt lat="59.5587086678" lon="31.2640857697"><ele>0.14</ele><time>2026-09-02T21:32:38Z</time></trkpt><trkpt lat="59.5587086678" lon="31.2640428543"><ele>0.14</ele><time>2026-09-02T21:32:40Z</time></trkpt><trkpt lat="59.5586872101" lon="31.2639999390"><ele>0.14</ele><time>2026-09-02T21:32:43Z</time></trkpt><trkpt lat="59.5586872101" lon="31.2639784813"><ele>0.14</ele><time>2026-09-02T21:32:45Z</time></trkpt><trkpt lat="59.5587086678" lon="31.2639355659"><ele>0.14</ele><time>2026-09-02T21:32:48Z</time></trkpt><trkpt lat="59.5587086678" lon="31.2639570236"><ele>0.14</ele><time>2026-09-02T21:32:50Z</time></trkpt><trkpt lat="59.5586872101" lon="31.2639784813"><ele>0.14</ele><time>2026-09-02T21:32:53Z</time></trkpt><trkpt lat="59.5586657524" lon="31.2640213966"><ele>0.14</ele><time>2026-09-02T21:32:55Z</time></trkpt><trkpt lat="59.5586872101" lon="31.2640643120"><ele>0.14</ele><time>2026-09-02T21:32:58Z</time></trkpt><trkpt lat="59.5587301254" lon="31.2641501427"><ele>0.14</ele><time>2026-09-02T21:33:00Z</time></trkpt><trkpt lat="59.5587301254" lon="31.2643432617"><ele>0.14</ele><time>2026-09-02T21:33:03Z</time></trkpt><trkpt lat="59.5587515831" lon="31.2644505501"><ele>0.14</ele><time>2026-09-02T21:33:05Z</time></trkpt><trkpt lat="59.5586872101" lon="31.2645792961"><ele>0.14</ele><time>2026-09-02T21:33:08Z</time></trkpt><trkpt lat="59.5586228371" lon="31.2646222115"><ele>0.14</ele><time>2026-09-02T21:33:10Z</time></trkpt><trkpt lat="59.5586442947" lon="31.2646651268"><ele>0.14</ele><time>2026-09-02T21:33:13Z</time></trkpt><trkpt lat="59.5586442947" lon="31.2647938728"><ele>0.14</ele><time>2026-09-02T21:33:15Z</time></trkpt><trkpt lat="59.5586657524" lon="31.2649226189"><ele>0.14</ele><time>2026-09-02T21:33:18Z</time></trkpt><trkpt lat="59.5586872101" lon="31.2650513649"><ele>0.14</ele><time>2026-09-02T21:33:20Z</time></trkpt><trkpt lat="59.5586657524" lon="31.2652015686"><ele>0.14</ele><time>2026-09-02T21:33:23Z</time></trkpt><trkpt lat="59.5586442947" lon="31.2652444839"><ele>0.14</ele><time>2026-09-02T21:33:25Z</time></trkpt><trkpt lat="59.5586013794" lon="31.2653517723"><ele>0.14</ele><time>2026-09-02T21:33:28Z</time></trkpt><trkpt lat="59.5585370064" lon="31.2653946877"><ele>0.14</ele><time>2026-09-02T21:33:30Z</time></trkpt><trkpt lat="59.5584940910" lon="31.2655019760"><ele>0.14</ele><time>2026-09-02T21:33:33Z</time></trkpt><trkpt lat="59.5584726334" lon="31.2656307220"><ele>0.14</ele><time>2026-09-02T21:33:35Z</time></trkpt><trkpt lat="59.5584511757" lon="31.2657594681"><ele>0.14</ele><time>2026-09-02T21:33:38Z</time></trkpt><trkpt lat="59.5584082603" lon="31.2658882141"><ele>0.14</ele><time>2026-09-02T21:33:40Z</time></trkpt><trkpt lat="59.5583868027" lon="31.2660598755"><ele>0.14</ele><time>2026-09-02T21:33:43Z</time></trkpt><trkpt lat="59.5583868027" lon="31.2661027908"><ele>0.14</ele><time>2026-09-02T21:33:45Z</time></trkpt><trkpt lat="59.5583868027" lon="31.2661242485"><ele>0.14</ele><time>2026-09-02T21:33:48Z</time></trkpt><trkpt lat="59.5584297180" lon="31.2661242485"><ele>0.14</ele><time>2026-09-02T21:33:50Z</time></trkpt><trkpt lat="59.5584511757" lon="31.2660813332"><ele>0.14</ele><time>2026-09-02T21:33:53Z</time></trkpt><trkpt lat="59.5584297180" lon="31.2660169601"><ele>0.14</ele><time>2026-09-02T21:33:55Z</time></trkpt><trkpt lat="59.5584082603" lon="31.2660384178"><ele>0.14</ele><time>2026-09-02T21:33:58Z</time></trkpt><trkpt lat="59.5583868027" lon="31.2660598755"><ele>0.14</ele><time>2026-09-02T21:34:00Z</time></trkpt><trkpt lat="59.5583438873" lon="31.2661242485"><ele>0.14</ele><time>2026-09-02T21:34:03Z</time></trkpt><trkpt lat="59.5583009720" lon="31.2660813332"><ele>0.14</ele><time>2026-09-02T21:34:05Z</time></trkpt><trkpt lat="59.5583009720" lon="31.2660169601"><ele>0.14</ele><time>2026-09-02T21:34:08Z</time></trkpt><trkpt lat="59.5583224297" lon="31.2659955025"><ele>0.14</ele><time>2026-09-02T21:34:10Z</time></trkpt><trkpt lat="59.5583653450" lon="31.2660598755"><ele>0.14</ele><time>2026-09-02T21:34:13Z</time></trkpt><trkpt lat="59.5583653450" lon="31.2660598755"><ele>0.14</ele><time>2026-09-02T21:34:15Z</time></trkpt><trkpt lat="59.5583653450" lon="31.2660598755"><ele>0.14</ele><time>2026-09-02T21:34:18Z</time></trkpt><trkpt lat="59.5583653450" lon="31.2660598755"><ele>0.14</ele><time>2026-09-02T21:34:20Z</time></trkpt><trkpt lat="59.5583653450" lon="31.2660598755"><ele>0.14</ele><time>2026-09-02T21:34:23Z</time></trkpt><trkpt lat="59.5583653450" lon="31.2660813332"><ele>0.14</ele><time>2026-09-02T21:34:25Z</time></trkpt><trkpt lat="59.5583438873" lon="31.2660598755"><ele>0.14</ele><time>2026-09-02T21:34:28Z</time></trkpt><trkpt lat="59.5583224297" lon="31.2660169601"><ele>0.14</ele><time>2026-09-02T21:34:30Z</time></trkpt><trkpt lat="59.5583224297" lon="31.2659525871"><ele>0.14</ele><time>2026-09-02T21:34:33Z</time></trkpt><trkpt lat="59.5583224297" lon="31.2659096718"><ele>0.14</ele><time>2026-09-02T21:34:35Z</time></trkpt><trkpt lat="59.5583009720" lon="31.2658452988"><ele>0.14</ele><time>2026-09-02T21:34:38Z</time></trkpt><trkpt lat="59.5583009720" lon="31.2657594681"><ele>0.14</ele><time>2026-09-02T21:34:40Z</time></trkpt><trkpt lat="59.5583009720" lon="31.2656307220"><ele>0.14</ele><time>2026-09-02T21:34:43Z</time></trkpt><trkpt lat="59.5583009720" lon="31.2656307220"><ele>0.14</ele><time>2026-09-02T21:34:45Z</time></trkpt><trkpt lat="59.5582795143" lon="31.2656307220"><ele>0.14</ele><time>2026-09-02T21:34:48Z</time></trkpt><trkpt lat="59.5582795143" lon="31.2656092644"><ele>0.14</ele><time>2026-09-02T21:34:50Z</time></trkpt><trkpt lat="59.5582795143" lon="31.2656092644"><ele>0.14</ele><time>2026-09-02T21:34:53Z</time></trkpt><trkpt lat="59.5582795143" lon="31.2656092644"><ele>0.14</ele><time>2026-09-02T21:34:55Z</time></trkpt><trkpt lat="59.5582795143" lon="31.2656092644"><ele>0.14</ele><time>2026-09-02T21:34:58Z</time></trkpt><trkpt lat="59.5582795143" lon="31.2656092644"><ele>0.14</ele><time>2026-09-02T21:35:00Z</time></trkpt><trkpt lat="59.5582795143" lon="31.2656092644"><ele>0.14</ele><time>2026-09-02T21:35:03Z</time></trkpt><trkpt lat="59.5582795143" lon="31.2656092644"><ele>0.14</ele><time>2026-09-02T21:35:05Z</time></trkpt><trkpt lat="59.5582795143" lon="31.2656092644"><ele>0.14</ele><time>2026-09-02T21:35:08Z</time></trkpt><trkpt lat="59.5582795143" lon="31.2656092644"><ele>0.14</ele><time>2026-09-02T21:35:10Z</time></trkpt><trkpt lat="59.5582795143" lon="31.2656092644"><ele>0.14</ele><time>2026-09-02T21:35:13Z</time></trkpt><trkpt lat="59.5582795143" lon="31.2655878067"><ele>0.14</ele><time>2026-09-02T21:35:15Z</time></trkpt><trkpt lat="59.5582795143" lon="31.2655878067"><ele>0.14</ele><time>2026-09-02T21:35:18Z</time></trkpt><trkpt lat="59.5582795143" lon="31.2655663490"><ele>0.14</ele><time>2026-09-02T21:35:20Z</time></trkpt><trkpt lat="59.5582795143" lon="31.2655663490"><ele>0.14</ele><time>2026-09-02T21:35:23Z</time></trkpt><trkpt lat="59.5582795143" lon="31.2655663490"><ele>0.14</ele><time>2026-09-02T21:35:25Z</time></trkpt><trkpt lat="59.5582795143" lon="31.2655448914"><ele>0.14</ele><time>2026-09-02T21:35:28Z</time></trkpt><trkpt lat="59.5582580566" lon="31.2655448914"><ele>0.14</ele><time>2026-09-02T21:35:30Z</time></trkpt><trkpt lat="59.5582580566" lon="31.2655448914"><ele>0.14</ele><time>2026-09-02T21:35:33Z</time></trkpt><trkpt lat="59.5582580566" lon="31.2655448914"><ele>0.14</ele><time>2026-09-02T21:35:35Z</time></trkpt><trkpt lat="59.5582580566" lon="31.2655448914"><ele>0.14</ele><time>2026-09-02T21:35:38Z</time></trkpt><trkpt lat="59.5582580566" lon="31.2655448914"><ele>0.14</ele><time>2026-09-02T21:35:40Z</time></trkpt><trkpt lat="59.5582580566" lon="31.2655234337"><ele>0.14</ele><time>2026-09-02T21:35:43Z</time></trkpt><trkpt lat="59.5582580566" lon="31.2655234337"><ele>0.14</ele><time>2026-09-02T21:35:45Z</time></trkpt><trkpt lat="59.5582580566" lon="31.2655019760"><ele>0.14</ele><time>2026-09-02T21:35:48Z</time></trkpt><trkpt lat="59.5582365990" lon="31.2655019760"><ele>0.14</ele><time>2026-09-02T21:35:50Z</time></trkpt><trkpt lat="59.5582365990" lon="31.2655019760"><ele>0.14</ele><time>2026-09-02T21:35:53Z</time></trkpt><trkpt lat="59.5582365990" lon="31.2655019760"><ele>0.14</ele><time>2026-09-02T21:35:55Z</time></trkpt><trkpt lat="59.5582365990" lon="31.2655019760"><ele>0.14</ele><time>2026-09-02T21:35:58Z</time></trkpt><trkpt lat="59.5582365990" lon="31.2655019760"><ele>0.14</ele><time>2026-09-02T21:36:00Z</time></trkpt><trkpt lat="59.5582365990" lon="31.2655019760"><ele>0.14</ele><time>2026-09-02T21:36:03Z</time></trkpt><trkpt lat="59.5582365990" lon="31.2655019760"><ele>0.14</ele><time>2026-09-02T21:36:05Z</time></trkpt><trkpt lat="59.5582151413" lon="31.2654805183"><ele>0.14</ele><time>2026-09-02T21:36:08Z</time></trkpt><trkpt lat="59.5581936836" lon="31.2654590607"><ele>0.14</ele><time>2026-09-02T21:36:10Z</time></trkpt><trkpt lat="59.5581507683" lon="31.2654590607"><ele>0.14</ele><time>2026-09-02T21:36:13Z</time></trkpt><trkpt lat="59.5581507683" lon="31.2655019760"><ele>0.14</ele><time>2026-09-02T21:36:15Z</time></trkpt><trkpt lat="59.5581507683" lon="31.2655234337"><ele>0.14</ele><time>2026-09-02T21:36:18Z</time></trkpt><trkpt lat="59.5581507683" lon="31.2655663490"><ele>0.14</ele><time>2026-09-02T21:36:20Z</time></trkpt><trkpt lat="59.5581722260" lon="31.2656307220"><ele>0.14</ele><time>2026-09-02T21:36:23Z</time></trkpt><trkpt lat="59.5581936836" lon="31.2657165527"><ele>0.14</ele><time>2026-09-02T21:36:25Z</time></trkpt><trkpt lat="59.5582151413" lon="31.2658023834"><ele>0.14</ele><time>2026-09-02T21:36:28Z</time></trkpt><trkpt lat="59.5582151413" lon="31.2658667564"><ele>0.14</ele><time>2026-09-02T21:36:30Z</time></trkpt><trkpt lat="59.5582151413" lon="31.2659311295"><ele>0.14</ele><time>2026-09-02T21:36:33Z</time></trkpt><trkpt lat="59.5582151413" lon="31.2659740448"><ele>0.14</ele><time>2026-09-02T21:36:35Z</time></trkpt><trkpt lat="59.5582151413" lon="31.2660384178"><ele>0.14</ele><time>2026-09-02T21:36:38Z</time></trkpt><trkpt lat="59.5582151413" lon="31.2661027908"><ele>0.14</ele><time>2026-09-02T21:36:40Z</time></trkpt><trkpt lat="59.5581936836" lon="31.2661027908"><ele>0.14</ele><time>2026-09-02T21:36:43Z</time></trkpt><trkpt lat="59.5581936836" lon="31.2661457062"><ele>0.14</ele><time>2026-09-02T21:36:45Z</time></trkpt><trkpt lat="59.5581936836" lon="31.2661671638"><ele>0.14</ele><time>2026-09-02T21:36:48Z</time></trkpt><trkpt lat="59.5582151413" lon="31.2662315369"><ele>0.14</ele><time>2026-09-02T21:36:50Z</time></trkpt><trkpt lat="59.5582151413" lon="31.2662744522"><ele>0.14</ele><time>2026-09-02T21:36:53Z</time></trkpt><trkpt lat="59.5582151413" lon="31.2662959099"><ele>0.14</ele><time>2026-09-02T21:36:55Z</time></trkpt><trkpt lat="59.5581936836" lon="31.2663388252"><ele>0.14</ele><time>2026-09-02T21:36:58Z</time></trkpt><trkpt lat="59.5581936836" lon="31.2663817406"><ele>0.14</ele><time>2026-09-02T21:37:00Z</time></trkpt><trkpt lat="59.5581936836" lon="31.2664031982"><ele>0.14</ele><time>2026-09-02T21:37:03Z</time></trkpt><trkpt lat="59.5581936836" lon="31.2663817406"><ele>0.14</ele><time>2026-09-02T21:37:05Z</time></trkpt><trkpt lat="59.5581936836" lon="31.2664031982"><ele>0.14</ele><time>2026-09-02T21:37:08Z</time></trkpt><trkpt lat="59.5582151413" lon="31.2664031982"><ele>0.14</ele><time>2026-09-02T21:37:10Z</time></trkpt><trkpt lat="59.5582365990" lon="31.2663817406"><ele>0.14</ele><time>2026-09-02T21:37:13Z</time></trkpt><trkpt lat="59.5582580566" lon="31.2663602829"><ele>0.14</ele><time>2026-09-02T21:37:15Z</time></trkpt><trkpt lat="59.5582365990" lon="31.2663817406"><ele>0.14</ele><time>2026-09-02T21:37:18Z</time></trkpt><trkpt lat="59.5582795143" lon="31.2664246559"><ele>0.14</ele><time>2026-09-02T21:37:20Z</time></trkpt><trkpt lat="59.5583224297" lon="31.2664031982"><ele>0.14</ele><time>2026-09-02T21:37:23Z</time></trkpt><trkpt lat="59.5583653450" lon="31.2663602829"><ele>0.14</ele><time>2026-09-02T21:37:25Z</time></trkpt><trkpt lat="59.5583653450" lon="31.2663388252"><ele>0.14</ele><time>2026-09-02T21:37:28Z</time></trkpt><trkpt lat="59.5583868027" lon="31.2662959099"><ele>0.14</ele><time>2026-09-02T21:37:30Z</time></trkpt><trkpt lat="59.5583868027" lon="31.2662100792"><ele>0.14</ele><time>2026-09-02T21:37:33Z</time></trkpt><trkpt lat="59.5583868027" lon="31.2661671638"><ele>0.14</ele><time>2026-09-02T21:37:35Z</time></trkpt><trkpt lat="59.5583653450" lon="31.2661457062"><ele>0.14</ele><time>2026-09-02T21:37:38Z</time></trkpt><trkpt lat="59.5583653450" lon="31.2661457062"><ele>0.14</ele><time>2026-09-02T21:37:40Z</time></trkpt><trkpt lat="59.5583438873" lon="31.2661457062"><ele>0.14</ele><time>2026-09-02T21:37:43Z</time></trkpt><trkpt lat="59.5583438873" lon="31.2661457062"><ele>0.14</ele><time>2026-09-02T21:37:45Z</time></trkpt><trkpt lat="59.5583224297" lon="31.2661457062"><ele>0.14</ele><time>2026-09-02T21:37:48Z</time></trkpt><trkpt lat="59.5583224297" lon="31.2661671638"><ele>0.14</ele><time>2026-09-02T21:37:50Z</time></trkpt><trkpt lat="59.5583009720" lon="31.2661457062"><ele>0.14</ele><time>2026-09-02T21:37:53Z</time></trkpt><trkpt lat="59.5582795143" lon="31.2661457062"><ele>0.14</ele><time>2026-09-02T21:37:55Z</time></trkpt><trkpt lat="59.5582795143" lon="31.2661671638"><ele>0.14</ele><time>2026-09-02T21:37:58Z</time></trkpt><trkpt lat="59.5582795143" lon="31.2661671638"><ele>0.14</ele><time>2026-09-02T21:38:00Z</time></trkpt><trkpt lat="59.5582580566" lon="31.2661457062"><ele>0.14</ele><time>2026-09-02T21:38:03Z</time></trkpt><trkpt lat="59.5582580566" lon="31.2661242485"><ele>0.14</ele><time>2026-09-02T21:38:05Z</time></trkpt><trkpt lat="59.5582365990" lon="31.2661027908"><ele>0.14</ele><time>2026-09-02T21:38:08Z</time></trkpt><trkpt lat="59.5582365990" lon="31.2661242485"><ele>0.14</ele><time>2026-09-02T21:38:10Z</time></trkpt><trkpt lat="59.5582151413" lon="31.2661242485"><ele>0.14</ele><time>2026-09-02T21:38:13Z</time></trkpt><trkpt lat="59.5581936836" lon="31.2660598755"><ele>0.14</ele><time>2026-09-02T21:38:15Z</time></trkpt><trkpt lat="59.5581507683" lon="31.2660384178"><ele>0.14</ele><time>2026-09-02T21:38:18Z</time></trkpt><trkpt lat="59.5581293106" lon="31.2660384178"><ele>0.14</ele><time>2026-09-02T21:38:20Z</time></trkpt><trkpt lat="59.5580863953" lon="31.2660598755"><ele>0.14</ele><time>2026-09-02T21:38:23Z</time></trkpt><trkpt lat="59.5580434799" lon="31.2660384178"><ele>0.14</ele><time>2026-09-02T21:38:25Z</time></trkpt><trkpt lat="59.5580005646" lon="31.2660169601"><ele>0.14</ele><time>2026-09-02T21:38:28Z</time></trkpt><trkpt lat="59.5579576492" lon="31.2660384178"><ele>0.14</ele><time>2026-09-02T21:38:30Z</time></trkpt><trkpt lat="59.5579576492" lon="31.2660813332"><ele>0.14</ele><time>2026-09-02T21:38:33Z</time></trkpt><trkpt lat="59.5579576492" lon="31.2661242485"><ele>0.14</ele><time>2026-09-02T21:38:35Z</time></trkpt><trkpt lat="59.5579361916" lon="31.2661886215"><ele>0.14</ele><time>2026-09-02T21:38:38Z</time></trkpt><trkpt lat="59.5579361916" lon="31.2662315369"><ele>0.14</ele><time>2026-09-02T21:38:40Z</time></trkpt><trkpt lat="59.5578932762" lon="31.2662315369"><ele>0.14</ele><time>2026-09-02T21:38:43Z</time></trkpt><trkpt lat="59.5578289032" lon="31.2662315369"><ele>0.14</ele><time>2026-09-02T21:38:45Z</time></trkpt><trkpt lat="59.5577859879" lon="31.2662744522"><ele>0.14</ele><time>2026-09-02T21:38:48Z</time></trkpt><trkpt lat="59.5577859879" lon="31.2662744522"><ele>0.14</ele><time>2026-09-02T21:38:50Z</time></trkpt><trkpt lat="59.5577859879" lon="31.2663388252"><ele>0.14</ele><time>2026-09-02T21:38:53Z</time></trkpt><trkpt lat="59.5577859879" lon="31.2664031982"><ele>0.14</ele><time>2026-09-02T21:38:55Z</time></trkpt><trkpt lat="59.5577430725" lon="31.2664890289"><ele>0.14</ele><time>2026-09-02T21:38:58Z</time></trkpt><trkpt lat="59.5577216148" lon="31.2665104866"><ele>0.14</ele><time>2026-09-02T21:39:00Z</time></trkpt><trkpt lat="59.5577216148" lon="31.2665319443"><ele>0.14</ele><time>2026-09-02T21:39:03Z</time></trkpt><trkpt lat="59.5577216148" lon="31.2665534019"><ele>0.14</ele><time>2026-09-02T21:39:05Z</time></trkpt><trkpt lat="59.5577001572" lon="31.2665534019"><ele>0.14</ele><time>2026-09-02T21:39:08Z</time></trkpt><trkpt lat="59.5576786995" lon="31.2665748596"><ele>0.14</ele><time>2026-09-02T21:39:10Z</time></trkpt><trkpt lat="59.5576786995" lon="31.2665963173"><ele>0.14</ele><time>2026-09-02T21:39:13Z</time></trkpt><trkpt lat="59.5576572418" lon="31.2665963173"><ele>0.14</ele><time>2026-09-02T21:39:15Z</time></trkpt><trkpt lat="59.5576357841" lon="31.2665963173"><ele>0.14</ele><time>2026-09-02T21:39:18Z</time></trkpt><trkpt lat="59.5576143265" lon="31.2665748596"><ele>0.14</ele><time>2026-09-02T21:39:20Z</time></trkpt><trkpt lat="59.5576143265" lon="31.2665748596"><ele>0.14</ele><time>2026-09-02T21:39:23Z</time></trkpt><trkpt lat="59.5576357841" lon="31.2665748596"><ele>0.14</ele><time>2026-09-02T21:39:25Z</time></trkpt><trkpt lat="59.5576143265" lon="31.2665748596"><ele>0.14</ele><time>2026-09-02T21:39:28Z</time></trkpt><trkpt lat="59.5576143265" lon="31.2665963173"><ele>0.14</ele><time>2026-09-02T21:39:30Z</time></trkpt><trkpt lat="59.5575928688" lon="31.2665748596"><ele>0.14</ele><time>2026-09-02T21:39:33Z</time></trkpt><trkpt lat="59.5575714111" lon="31.2665748596"><ele>0.14</ele><time>2026-09-02T21:39:35Z</time></trkpt><trkpt lat="59.5575499535" lon="31.2665963173"><ele>0.14</ele><time>2026-09-02T21:39:38Z</time></trkpt><trkpt lat="59.5575499535" lon="31.2666177750"><ele>0.14</ele><time>2026-09-02T21:39:40Z</time></trkpt><trkpt lat="59.5575284958" lon="31.2666606903"><ele>0.14</ele><time>2026-09-02T21:39:43Z</time></trkpt><trkpt lat="59.5575070381" lon="31.2667250633"><ele>0.14</ele><time>2026-09-02T21:39:45Z</time></trkpt><trkpt lat="59.5574641228" lon="31.2667894363"><ele>0.14</ele><time>2026-09-02T21:39:48Z</time></trkpt><trkpt lat="59.5574641228" lon="31.2667894363"><ele>0.14</ele><time>2026-09-02T21:39:50Z</time></trkpt><trkpt lat="59.5574426651" lon="31.2668108940"><ele>0.14</ele><time>2026-09-02T21:39:53Z</time></trkpt><trkpt lat="59.5574426651" lon="31.2668323517"><ele>0.14</ele><time>2026-09-02T21:39:55Z</time></trkpt><trkpt lat="59.5574212074" lon="31.2668967247"><ele>0.14</ele><time>2026-09-02T21:39:58Z</time></trkpt><trkpt lat="59.5574212074" lon="31.2669181824"><ele>0.14</ele><time>2026-09-02T21:40:00Z</time></trkpt><trkpt lat="59.5573997498" lon="31.2669610977"><ele>0.14</ele><time>2026-09-02T21:40:03Z</time></trkpt><trkpt lat="59.5573997498" lon="31.2669825554"><ele>0.14</ele><time>2026-09-02T21:40:05Z</time></trkpt><trkpt lat="59.5573997498" lon="31.2670254707"><ele>0.14</ele><time>2026-09-02T21:40:08Z</time></trkpt><trkpt lat="59.5573997498" lon="31.2670898438"><ele>0.14</ele><time>2026-09-02T21:40:10Z</time></trkpt><trkpt lat="59.5573782921" lon="31.2670898438"><ele>0.14</ele><time>2026-09-02T21:40:13Z</time></trkpt><trkpt lat="59.5573568344" lon="31.2670898438"><ele>0.14</ele><time>2026-09-02T21:40:15Z</time></trkpt><trkpt lat="59.5573353767" lon="31.2671327591"><ele>0.14</ele><time>2026-09-02T21:40:18Z</time></trkpt><trkpt lat="59.5573353767" lon="31.2671542168"><ele>0.14</ele><time>2026-09-02T21:40:20Z</time></trkpt><trkpt lat="59.5573139191" lon="31.2671756744"><ele>0.14</ele><time>2026-09-02T21:40:23Z</time></trkpt><trkpt lat="59.5573139191" lon="31.2671971321"><ele>0.14</ele><time>2026-09-02T21:40:25Z</time></trkpt><trkpt lat="59.5572924614" lon="31.2672400475"><ele>0.14</ele><time>2026-09-02T21:40:28Z</time></trkpt><trkpt lat="59.5572710037" lon="31.2672829628"><ele>0.14</ele><time>2026-09-02T21:40:30Z</time></trkpt><trkpt lat="59.5572710037" lon="31.2673044205"><ele>0.14</ele><time>2026-09-02T21:40:33Z</time></trkpt><trkpt lat="59.5572495461" lon="31.2673473358"><ele>0.14</ele><time>2026-09-02T21:40:35Z</time></trkpt><trkpt lat="59.5572495461" lon="31.2673902512"><ele>0.14</ele><time>2026-09-02T21:40:38Z</time></trkpt><trkpt lat="59.5572710037" lon="31.2674331665"><ele>0.14</ele><time>2026-09-02T21:40:40Z</time></trkpt><trkpt lat="59.5572710037" lon="31.2674331665"><ele>0.14</ele><time>2026-09-02T21:40:43Z</time></trkpt><trkpt lat="59.5572495461" lon="31.2674331665"><ele>0.14</ele><time>2026-09-02T21:40:45Z</time></trkpt><trkpt lat="59.5572280884" lon="31.2674331665"><ele>0.14</ele><time>2026-09-02T21:40:48Z</time></trkpt><trkpt lat="59.5572066307" lon="31.2674117088"><ele>0.14</ele><time>2026-09-02T21:40:50Z</time></trkpt><trkpt lat="59.5572066307" lon="31.2674117088"><ele>0.14</ele><time>2026-09-02T21:40:53Z</time></trkpt><trkpt lat="59.5571851730" lon="31.2673902512"><ele>0.14</ele><time>2026-09-02T21:40:55Z</time></trkpt><trkpt lat="59.5571637154" lon="31.2674117088"><ele>0.14</ele><time>2026-09-02T21:40:58Z</time></trkpt><trkpt lat="59.5571637154" lon="31.2674117088"><ele>0.14</ele><time>2026-09-02T21:41:00Z</time></trkpt><trkpt lat="59.5571637154" lon="31.2674331665"><ele>0.14</ele><time>2026-09-02T21:41:03Z</time></trkpt><trkpt lat="59.5571422577" lon="31.2674331665"><ele>0.14</ele><time>2026-09-02T21:41:05Z</time></trkpt><trkpt lat="59.5571637154" lon="31.2674546242"><ele>0.14</ele><time>2026-09-02T21:41:08Z</time></trkpt><trkpt lat="59.5571637154" lon="31.2674331665"><ele>0.14</ele><time>2026-09-02T21:41:10Z</time></trkpt><trkpt lat="59.5571422577" lon="31.2674331665"><ele>0.14</ele><time>2026-09-02T21:41:13Z</time></trkpt><trkpt lat="59.5571422577" lon="31.2674117088"><ele>0.14</ele><time>2026-09-02T21:41:15Z</time></trkpt><trkpt lat="59.5571422577" lon="31.2674117088"><ele>0.14</ele><time>2026-09-02T21:41:18Z</time></trkpt><trkpt lat="59.5571422577" lon="31.2673902512"><ele>0.14</ele><time>2026-09-02T21:41:20Z</time></trkpt><trkpt lat="59.5571422577" lon="31.2673902512"><ele>0.14</ele><time>2026-09-02T21:41:23Z</time></trkpt><trkpt lat="59.5571422577" lon="31.2673902512"><ele>0.14</ele><time>2026-09-02T21:41:25Z</time></trkpt><trkpt lat="59.5571208000" lon="31.2673902512"><ele>0.14</ele><time>2026-09-02T21:41:28Z</time></trkpt><trkpt lat="59.5571208000" lon="31.2673902512"><ele>0.14</ele><time>2026-09-02T21:41:30Z</time></trkpt><trkpt lat="59.5571208000" lon="31.2673902512"><ele>0.14</ele><time>2026-09-02T21:41:33Z</time></trkpt><trkpt lat="59.5571208000" lon="31.2673902512"><ele>0.14</ele><time>2026-09-02T21:41:35Z</time></trkpt><trkpt lat="59.5571208000" lon="31.2673902512"><ele>0.14</ele><time>2026-09-02T21:41:38Z</time></trkpt><trkpt lat="59.5571208000" lon="31.2673902512"><ele>0.14</ele><time>2026-09-02T21:41:40Z</time></trkpt><trkpt lat="59.5571422577" lon="31.2673902512"><ele>0.14</ele><time>2026-09-02T21:41:43Z</time></trkpt><trkpt lat="59.5571422577" lon="31.2673902512"><ele>0.14</ele><time>2026-09-02T21:41:45Z</time></trkpt><trkpt lat="59.5571422577" lon="31.2673902512"><ele>0.14</ele><time>2026-09-02T21:41:48Z</time></trkpt><trkpt lat="59.5571422577" lon="31.2673902512"><ele>0.14</ele><time>2026-09-02T21:41:50Z</time></trkpt><trkpt lat="59.5571422577" lon="31.2673902512"><ele>0.14</ele><time>2026-09-02T21:41:53Z</time></trkpt><trkpt lat="59.5570993423" lon="31.2674117088"><ele>0.14</ele><time>2026-09-02T21:41:55Z</time></trkpt><trkpt lat="59.5570564270" lon="31.2674546242"><ele>0.14</ele><time>2026-09-02T21:41:58Z</time></trkpt><trkpt lat="59.5570564270" lon="31.2674975395"><ele>0.14</ele><time>2026-09-02T21:42:00Z</time></trkpt><trkpt lat="59.5570349693" lon="31.2675404549"><ele>0.14</ele><time>2026-09-02T21:42:03Z</time></trkpt><trkpt lat="59.5570349693" lon="31.2675619125"><ele>0.14</ele><time>2026-09-02T21:42:05Z</time></trkpt><trkpt lat="59.5570349693" lon="31.2676048279"><ele>0.14</ele><time>2026-09-02T21:42:08Z</time></trkpt><trkpt lat="59.5570135117" lon="31.2676262856"><ele>0.14</ele><time>2026-09-02T21:42:10Z</time></trkpt><trkpt lat="59.5570135117" lon="31.2676477432"><ele>0.14</ele><time>2026-09-02T21:42:13Z</time></trkpt><trkpt lat="59.5570135117" lon="31.2676262856"><ele>0.14</ele><time>2026-09-02T21:42:15Z</time></trkpt><trkpt lat="59.5570135117" lon="31.2676048279"><ele>0.14</ele><time>2026-09-02T21:42:18Z</time></trkpt><trkpt lat="59.5569920540" lon="31.2676048279"><ele>0.14</ele><time>2026-09-02T21:42:20Z</time></trkpt><trkpt lat="59.5569920540" lon="31.2676477432"><ele>0.14</ele><time>2026-09-02T21:42:23Z</time></trkpt><trkpt lat="59.5569705963" lon="31.2676692009"><ele>0.14</ele><time>2026-09-02T21:42:25Z</time></trkpt><trkpt lat="59.5569705963" lon="31.2677121162"><ele>0.14</ele><time>2026-09-02T21:42:28Z</time></trkpt><trkpt lat="59.5569491386" lon="31.2677335739"><ele>0.14</ele><time>2026-09-02T21:42:30Z</time></trkpt><trkpt lat="59.5569491386" lon="31.2677764893"><ele>0.14</ele><time>2026-09-02T21:42:33Z</time></trkpt><trkpt lat="59.5569276810" lon="31.2677979469"><ele>0.14</ele><time>2026-09-02T21:42:35Z</time></trkpt><trkpt lat="59.5569276810" lon="31.2677979469"><ele>0.14</ele><time>2026-09-02T21:42:38Z</time></trkpt><trkpt lat="59.5569062233" lon="31.2678194046"><ele>0.14</ele><time>2026-09-02T21:42:40Z</time></trkpt><trkpt lat="59.5569062233" lon="31.2678408623"><ele>0.14</ele><time>2026-09-02T21:42:43Z</time></trkpt><trkpt lat="59.5569062233" lon="31.2678837776"><ele>0.14</ele><time>2026-09-02T21:42:45Z</time></trkpt><trkpt lat="59.5568633080" lon="31.2679052353"><ele>0.14</ele><time>2026-09-02T21:42:48Z</time></trkpt><trkpt lat="59.5568633080" lon="31.2679266930"><ele>0.14</ele><time>2026-09-02T21:42:50Z</time></trkpt><trkpt lat="59.5568633080" lon="31.2679481506"><ele>0.14</ele><time>2026-09-02T21:42:53Z</time></trkpt><trkpt lat="59.5568633080" lon="31.2679696083"><ele>0.14</ele><time>2026-09-02T21:42:55Z</time></trkpt><trkpt lat="59.5568418503" lon="31.2680125237"><ele>0.14</ele><time>2026-09-02T21:42:58Z</time></trkpt><trkpt lat="59.5568203926" lon="31.2680554390"><ele>0.14</ele><time>2026-09-02T21:43:00Z</time></trkpt><trkpt lat="59.5567989349" lon="31.2680983543"><ele>0.14</ele><time>2026-09-02T21:43:03Z</time></trkpt><trkpt lat="59.5567560196" lon="31.2681412697"><ele>0.14</ele><time>2026-09-02T21:43:05Z</time></trkpt><trkpt lat="59.5567560196" lon="31.2681841850"><ele>0.14</ele><time>2026-09-02T21:43:08Z</time></trkpt><trkpt lat="59.5567345619" lon="31.2681198120"><ele>0.14</ele><time>2026-09-02T21:43:10Z</time></trkpt><trkpt lat="59.5567345619" lon="31.2680983543"><ele>0.14</ele><time>2026-09-02T21:43:13Z</time></trkpt><trkpt lat="59.5567345619" lon="31.2681198120"><ele>0.14</ele><time>2026-09-02T21:43:15Z</time></trkpt><trkpt lat="59.5567131042" lon="31.2681627274"><ele>0.14</ele><time>2026-09-02T21:43:18Z</time></trkpt><trkpt lat="59.5566916466" lon="31.2681841850"><ele>0.14</ele><time>2026-09-02T21:43:20Z</time></trkpt><trkpt lat="59.5566916466" lon="31.2681627274"><ele>0.14</ele><time>2026-09-02T21:43:23Z</time></trkpt><trkpt lat="59.5566916466" lon="31.2681627274"><ele>0.14</ele><time>2026-09-02T21:43:25Z</time></trkpt><trkpt lat="59.5566916466" lon="31.2681627274"><ele>0.14</ele><time>2026-09-02T21:43:28Z</time></trkpt><trkpt lat="59.5566916466" lon="31.2681627274"><ele>0.14</ele><time>2026-09-02T21:43:30Z</time></trkpt><trkpt lat="59.5566701889" lon="31.2682271004"><ele>0.14</ele><time>2026-09-02T21:43:33Z</time></trkpt><trkpt lat="59.5566272736" lon="31.2682485580"><ele>0.14</ele><time>2026-09-02T21:43:35Z</time></trkpt><trkpt lat="59.5565843582" lon="31.2682914734"><ele>0.14</ele><time>2026-09-02T21:43:38Z</time></trkpt><trkpt lat="59.5565843582" lon="31.2683343887"><ele>0.14</ele><time>2026-09-02T21:43:40Z</time></trkpt><trkpt lat="59.5565414429" lon="31.2683558464"><ele>0.14</ele><time>2026-09-02T21:43:43Z</time></trkpt><trkpt lat="59.5564985275" lon="31.2684202194"><ele>0.14</ele><time>2026-09-02T21:43:45Z</time></trkpt><trkpt lat="59.5564770699" lon="31.2685060501"><ele>0.14</ele><time>2026-09-02T21:43:48Z</time></trkpt><trkpt lat="59.5564556122" lon="31.2685704231"><ele>0.14</ele><time>2026-09-02T21:43:50Z</time></trkpt><trkpt lat="59.5564341545" lon="31.2686347961"><ele>0.14</ele><time>2026-09-02T21:43:53Z</time></trkpt><trkpt lat="59.5564126968" lon="31.2686562538"><ele>0.14</ele><time>2026-09-02T21:43:55Z</time></trkpt><trkpt lat="59.5563912392" lon="31.2686991692"><ele>0.14</ele><time>2026-09-02T21:43:58Z</time></trkpt><trkpt lat="59.5563912392" lon="31.2687206268"><ele>0.14</ele><time>2026-09-02T21:44:00Z</time></trkpt><trkpt lat="59.5563483238" lon="31.2687420845"><ele>0.14</ele><time>2026-09-02T21:44:03Z</time></trkpt><trkpt lat="59.5563483238" lon="31.2687420845"><ele>0.14</ele><time>2026-09-02T21:44:05Z</time></trkpt><trkpt lat="59.5563483238" lon="31.2687420845"><ele>0.14</ele><time>2026-09-02T21:44:08Z</time></trkpt><trkpt lat="59.5563483238" lon="31.2687420845"><ele>0.14</ele><time>2026-09-02T21:44:10Z</time></trkpt><trkpt lat="59.5563483238" lon="31.2687420845"><ele>0.14</ele><time>2026-09-02T21:44:13Z</time></trkpt><trkpt lat="59.5563483238" lon="31.2687420845"><ele>0.14</ele><time>2026-09-02T21:44:15Z</time></trkpt><trkpt lat="59.5563483238" lon="31.2687420845"><ele>0.14</ele><time>2026-09-02T21:44:18Z</time></trkpt><trkpt lat="59.5563483238" lon="31.2687420845"><ele>0.14</ele><time>2026-09-02T21:44:20Z</time></trkpt><trkpt lat="59.5563483238" lon="31.2687420845"><ele>0.14</ele><time>2026-09-02T21:44:23Z</time></trkpt><trkpt lat="59.5563483238" lon="31.2687420845"><ele>0.14</ele><time>2026-09-02T21:44:25Z</time></trkpt><trkpt lat="59.5563483238" lon="31.2687420845"><ele>0.14</ele><time>2026-09-02T21:44:28Z</time></trkpt><trkpt lat="59.5563483238" lon="31.2687420845"><ele>0.14</ele><time>2026-09-02T21:44:30Z</time></trkpt><trkpt lat="59.5563483238" lon="31.2687420845"><ele>0.14</ele><time>2026-09-02T21:44:33Z</time></trkpt><trkpt lat="59.5563268661" lon="31.2687420845"><ele>0.14</ele><time>2026-09-02T21:44:35Z</time></trkpt><trkpt lat="59.5563268661" lon="31.2687420845"><ele>0.14</ele><time>2026-09-02T21:44:38Z</time></trkpt><trkpt lat="59.5563483238" lon="31.2687206268"><ele>0.14</ele><time>2026-09-02T21:44:40Z</time></trkpt><trkpt lat="59.5563483238" lon="31.2686991692"><ele>0.14</ele><time>2026-09-02T21:44:43Z</time></trkpt><trkpt lat="59.5563483238" lon="31.2686991692"><ele>0.14</ele><time>2026-09-02T21:44:45Z</time></trkpt><trkpt lat="59.5563483238" lon="31.2686991692"><ele>0.14</ele><time>2026-09-02T21:44:48Z</time></trkpt><trkpt lat="59.5563483238" lon="31.2686991692"><ele>0.14</ele><time>2026-09-02T21:44:50Z</time></trkpt><trkpt lat="59.5563483238" lon="31.2686991692"><ele>0.14</ele><time>2026-09-02T21:44:53Z</time></trkpt><trkpt lat="59.5563483238" lon="31.2686991692"><ele>0.14</ele><time>2026-09-02T21:44:55Z</time></trkpt><trkpt lat="59.5563483238" lon="31.2686991692"><ele>0.14</ele><time>2026-09-02T21:44:58Z</time></trkpt><trkpt lat="59.5563483238" lon="31.2686991692"><ele>0.14</ele><time>2026-09-02T21:45:00Z</time></trkpt><trkpt lat="59.5563483238" lon="31.2686991692"><ele>0.14</ele><time>2026-09-02T21:45:03Z</time></trkpt><trkpt lat="59.5563483238" lon="31.2686991692"><ele>0.14</ele><time>2026-09-02T21:45:05Z</time></trkpt><trkpt lat="59.5563483238" lon="31.2686991692"><ele>0.14</ele><time>2026-09-02T21:45:08Z</time></trkpt><trkpt lat="59.5563483238" lon="31.2686991692"><ele>0.14</ele><time>2026-09-02T21:45:10Z</time></trkpt><trkpt lat="59.5563483238" lon="31.2686991692"><ele>0.14</ele><time>2026-09-02T21:45:13Z</time></trkpt><trkpt lat="59.5563483238" lon="31.2686991692"><ele>0.14</ele><time>2026-09-02T21:45:15Z</time></trkpt><trkpt lat="59.5563483238" lon="31.2686991692"><ele>0.14</ele><time>2026-09-02T21:45:18Z</time></trkpt><trkpt lat="59.5563483238" lon="31.2686991692"><ele>0.14</ele><time>2026-09-02T21:45:20Z</time></trkpt><trkpt lat="59.5563483238" lon="31.2686991692"><ele>0.14</ele><time>2026-09-02T21:45:23Z</time></trkpt><trkpt lat="59.5563483238" lon="31.2686991692"><ele>0.14</ele><time>2026-09-02T21:45:25Z</time></trkpt><trkpt lat="59.5563483238" lon="31.2686991692"><ele>0.14</ele><time>2026-09-02T21:45:28Z</time></trkpt><trkpt lat="59.5563483238" lon="31.2686777115"><ele>0.14</ele><time>2026-09-02T21:45:30Z</time></trkpt><trkpt lat="59.5563697815" lon="31.2686347961"><ele>0.14</ele><time>2026-09-02T21:45:33Z</time></trkpt><trkpt lat="59.5563697815" lon="31.2685918808"><ele>0.14</ele><time>2026-09-02T21:45:35Z</time></trkpt><trkpt lat="59.5563912392" lon="31.2685489655"><ele>0.14</ele><time>2026-09-02T21:45:38Z</time></trkpt><trkpt lat="59.5563912392" lon="31.2685275078"><ele>0.14</ele><time>2026-09-02T21:45:40Z</time></trkpt><trkpt lat="59.5563912392" lon="31.2684845924"><ele>0.14</ele><time>2026-09-02T21:45:43Z</time></trkpt><trkpt lat="59.5564126968" lon="31.2683987617"><ele>0.14</ele><time>2026-09-02T21:45:45Z</time></trkpt><trkpt lat="59.5563912392" lon="31.2682700157"><ele>0.14</ele><time>2026-09-02T21:45:48Z</time></trkpt><trkpt lat="59.5563912392" lon="31.2681841850"><ele>0.14</ele><time>2026-09-02T21:45:50Z</time></trkpt><trkpt lat="59.5564126968" lon="31.2681627274"><ele>0.14</ele><time>2026-09-02T21:45:53Z</time></trkpt><trkpt lat="59.5564126968" lon="31.2681412697"><ele>0.14</ele><time>2026-09-02T21:45:55Z</time></trkpt><trkpt lat="59.5564126968" lon="31.2681412697"><ele>0.14</ele><time>2026-09-02T21:45:58Z</time></trkpt><trkpt lat="59.5564126968" lon="31.2681198120"><ele>0.14</ele><time>2026-09-02T21:46:00Z</time></trkpt><trkpt lat="59.5563912392" lon="31.2680983543"><ele>0.14</ele><time>2026-09-02T21:46:03Z</time></trkpt><trkpt lat="59.5563483238" lon="31.2680125237"><ele>0.14</ele><time>2026-09-02T21:46:05Z</time></trkpt><trkpt lat="59.5563268661" lon="31.2680125237"><ele>0.14</ele><time>2026-09-02T21:46:08Z</time></trkpt><trkpt lat="59.5563268661" lon="31.2680339813"><ele>0.14</ele><time>2026-09-02T21:46:10Z</time></trkpt><trkpt lat="59.5563268661" lon="31.2679910660"><ele>0.14</ele><time>2026-09-02T21:46:13Z</time></trkpt><trkpt lat="59.5563268661" lon="31.2679052353"><ele>0.14</ele><time>2026-09-02T21:46:15Z</time></trkpt><trkpt lat="59.5563483238" lon="31.2677979469"><ele>0.14</ele><time>2026-09-02T21:46:18Z</time></trkpt><trkpt lat="59.5563697815" lon="31.2677121162"><ele>0.14</ele><time>2026-09-02T21:46:20Z</time></trkpt><trkpt lat="59.5563912392" lon="31.2676692009"><ele>0.14</ele><time>2026-09-02T21:46:23Z</time></trkpt><trkpt lat="59.5564126968" lon="31.2676262856"><ele>0.14</ele><time>2026-09-02T21:46:25Z</time></trkpt><trkpt lat="59.5564341545" lon="31.2675619125"><ele>0.14</ele><time>2026-09-02T21:46:28Z</time></trkpt><trkpt lat="59.5564556122" lon="31.2675404549"><ele>0.14</ele><time>2026-09-02T21:46:30Z</time></trkpt><trkpt lat="59.5564556122" lon="31.2674975395"><ele>0.14</ele><time>2026-09-02T21:46:33Z</time></trkpt><trkpt lat="59.5564556122" lon="31.2674760818"><ele>0.14</ele><time>2026-09-02T21:46:35Z</time></trkpt><trkpt lat="59.5564341545" lon="31.2674546242"><ele>0.14</ele><time>2026-09-02T21:46:38Z</time></trkpt><trkpt lat="59.5564341545" lon="31.2673902512"><ele>0.14</ele><time>2026-09-02T21:46:40Z</time></trkpt><trkpt lat="59.5564126968" lon="31.2673473358"><ele>0.14</ele><time>2026-09-02T21:46:43Z</time></trkpt><trkpt lat="59.5564126968" lon="31.2673258781"><ele>0.14</ele><time>2026-09-02T21:46:45Z</time></trkpt><trkpt lat="59.5564341545" lon="31.2673258781"><ele>0.14</ele><time>2026-09-02T21:46:48Z</time></trkpt><trkpt lat="59.5564341545" lon="31.2673258781"><ele>0.14</ele><time>2026-09-02T21:46:50Z</time></trkpt><trkpt lat="59.5564556122" lon="31.2673258781"><ele>0.14</ele><time>2026-09-02T21:46:53Z</time></trkpt><trkpt lat="59.5564985275" lon="31.2673044205"><ele>0.14</ele><time>2026-09-02T21:46:55Z</time></trkpt><trkpt lat="59.5564985275" lon="31.2673044205"><ele>0.14</ele><time>2026-09-02T21:46:58Z</time></trkpt><trkpt lat="59.5564985275" lon="31.2673044205"><ele>0.14</ele><time>2026-09-02T21:47:00Z</time></trkpt><trkpt lat="59.5564770699" lon="31.2673044205"><ele>0.14</ele><time>2026-09-02T21:47:03Z</time></trkpt><trkpt lat="59.5564556122" lon="31.2673044205"><ele>0.14</ele><time>2026-09-02T21:47:05Z</time></trkpt><trkpt lat="59.5564556122" lon="31.2673044205"><ele>0.14</ele><time>2026-09-02T21:47:08Z</time></trkpt><trkpt lat="59.5564556122" lon="31.2673044205"><ele>0.14</ele><time>2026-09-02T21:47:10Z</time></trkpt><trkpt lat="59.5564556122" lon="31.2673044205"><ele>0.14</ele><time>2026-09-02T21:47:13Z</time></trkpt><trkpt lat="59.5564556122" lon="31.2673044205"><ele>0.14</ele><time>2026-09-02T21:47:15Z</time></trkpt><trkpt lat="59.5564556122" lon="31.2673044205"><ele>0.14</ele><time>2026-09-02T21:47:18Z</time></trkpt><trkpt lat="59.5564556122" lon="31.2673044205"><ele>0.14</ele><time>2026-09-02T21:47:20Z</time></trkpt><trkpt lat="59.5564556122" lon="31.2673044205"><ele>0.14</ele><time>2026-09-02T21:47:23Z</time></trkpt><trkpt lat="59.5564556122" lon="31.2673044205"><ele>0.14</ele><time>2026-09-02T21:47:25Z</time></trkpt><trkpt lat="59.5564556122" lon="31.2673044205"><ele>0.14</ele><time>2026-09-02T21:47:28Z</time></trkpt><trkpt lat="59.5564556122" lon="31.2673044205"><ele>0.14</ele><time>2026-09-02T21:47:30Z</time></trkpt><trkpt lat="59.5564556122" lon="31.2673044205"><ele>0.14</ele><time>2026-09-02T21:47:33Z</time></trkpt><trkpt lat="59.5564556122" lon="31.2673044205"><ele>0.14</ele><time>2026-09-02T21:47:35Z</time></trkpt><trkpt lat="59.5564556122" lon="31.2673044205"><ele>0.14</ele><time>2026-09-02T21:47:38Z</time></trkpt><trkpt lat="59.5564556122" lon="31.2672615051"><ele>0.14</ele><time>2026-09-02T21:47:40Z</time></trkpt><trkpt lat="59.5564556122" lon="31.2671756744"><ele>0.14</ele><time>2026-09-02T21:47:43Z</time></trkpt><trkpt lat="59.5564556122" lon="31.2671327591"><ele>0.14</ele><time>2026-09-02T21:47:45Z</time></trkpt><trkpt lat="59.5564770699" lon="31.2671327591"><ele>0.14</ele><time>2026-09-02T21:47:48Z</time></trkpt><trkpt lat="59.5565199852" lon="31.2671756744"><ele>0.14</ele><time>2026-09-02T21:47:50Z</time></trkpt><trkpt lat="59.5565414429" lon="31.2672185898"><ele>0.14</ele><time>2026-09-02T21:47:53Z</time></trkpt><trkpt lat="59.5565414429" lon="31.2672400475"><ele>0.14</ele><time>2026-09-02T21:47:55Z</time></trkpt><trkpt lat="59.5565629005" lon="31.2672400475"><ele>0.14</ele><time>2026-09-02T21:47:58Z</time></trkpt><trkpt lat="59.5565629005" lon="31.2672400475"><ele>0.14</ele><time>2026-09-02T21:48:00Z</time></trkpt><trkpt lat="59.5565629005" lon="31.2672400475"><ele>0.14</ele><time>2026-09-02T21:48:03Z</time></trkpt><trkpt lat="59.5565414429" lon="31.2672400475"><ele>0.14</ele><time>2026-09-02T21:48:05Z</time></trkpt><trkpt lat="59.5565414429" lon="31.2672400475"><ele>0.14</ele><time>2026-09-02T21:48:08Z</time></trkpt><trkpt lat="59.5565414429" lon="31.2672400475"><ele>0.14</ele><time>2026-09-02T21:48:10Z</time></trkpt><trkpt lat="59.5565629005" lon="31.2672400475"><ele>0.14</ele><time>2026-09-02T21:48:13Z</time></trkpt><trkpt lat="59.5565629005" lon="31.2672400475"><ele>0.14</ele><time>2026-09-02T21:48:15Z</time></trkpt><trkpt lat="59.5565414429" lon="31.2672185898"><ele>0.14</ele><time>2026-09-02T21:48:18Z</time></trkpt><trkpt lat="59.5565629005" lon="31.2671971321"><ele>0.14</ele><time>2026-09-02T21:48:20Z</time></trkpt><trkpt lat="59.5565629005" lon="31.2671971321"><ele>0.14</ele><time>2026-09-02T21:48:23Z</time></trkpt><trkpt lat="59.5565629005" lon="31.2672185898"><ele>0.14</ele><time>2026-09-02T21:48:25Z</time></trkpt><trkpt lat="59.5565629005" lon="31.2672185898"><ele>0.14</ele><time>2026-09-02T21:48:28Z</time></trkpt><trkpt lat="59.5565629005" lon="31.2672185898"><ele>0.14</ele><time>2026-09-02T21:48:30Z</time></trkpt><trkpt lat="59.5565629005" lon="31.2672185898"><ele>0.14</ele><time>2026-09-02T21:48:33Z</time></trkpt><trkpt lat="59.5565629005" lon="31.2672185898"><ele>0.14</ele><time>2026-09-02T21:48:35Z</time></trkpt><trkpt lat="59.5565629005" lon="31.2672185898"><ele>0.14</ele><time>2026-09-02T21:48:38Z</time></trkpt><trkpt lat="59.5565843582" lon="31.2672185898"><ele>0.14</ele><time>2026-09-02T21:48:40Z</time></trkpt><trkpt lat="59.5565629005" lon="31.2672185898"><ele>0.14</ele><time>2026-09-02T21:48:43Z</time></trkpt><trkpt lat="59.5565843582" lon="31.2672185898"><ele>0.14</ele><time>2026-09-02T21:48:45Z</time></trkpt><trkpt lat="59.5565843582" lon="31.2672185898"><ele>0.14</ele><time>2026-09-02T21:48:48Z</time></trkpt><trkpt lat="59.5565843582" lon="31.2672185898"><ele>0.14</ele><time>2026-09-02T21:48:50Z</time></trkpt><trkpt lat="59.5565843582" lon="31.2672185898"><ele>0.14</ele><time>2026-09-02T21:48:53Z</time></trkpt><trkpt lat="59.5565843582" lon="31.2672185898"><ele>0.14</ele><time>2026-09-02T21:48:55Z</time></trkpt><trkpt lat="59.5565843582" lon="31.2672185898"><ele>0.14</ele><time>2026-09-02T21:48:58Z</time></trkpt><trkpt lat="59.5565843582" lon="31.2672185898"><ele>0.14</ele><time>2026-09-02T21:49:00Z</time></trkpt><trkpt lat="59.5565843582" lon="31.2672185898"><ele>0.14</ele><time>2026-09-02T21:49:03Z</time></trkpt><trkpt lat="59.5565843582" lon="31.2672400475"><ele>0.14</ele><time>2026-09-02T21:49:05Z</time></trkpt><trkpt lat="59.5565843582" lon="31.2672400475"><ele>0.14</ele><time>2026-09-02T21:49:08Z</time></trkpt><trkpt lat="59.5565843582" lon="31.2672400475"><ele>0.14</ele><time>2026-09-02T21:49:10Z</time></trkpt><trkpt lat="59.5565843582" lon="31.2672400475"><ele>0.14</ele><time>2026-09-02T21:49:13Z</time></trkpt><trkpt lat="59.5565843582" lon="31.2672400475"><ele>0.14</ele><time>2026-09-02T21:49:15Z</time></trkpt><trkpt lat="59.5565843582" lon="31.2672400475"><ele>0.14</ele><time>2026-09-02T21:49:18Z</time></trkpt><trkpt lat="59.5565843582" lon="31.2672400475"><ele>0.14</ele><time>2026-09-02T21:49:20Z</time></trkpt><trkpt lat="59.5565843582" lon="31.2672400475"><ele>0.14</ele><time>2026-09-02T21:49:23Z</time></trkpt><trkpt lat="59.5565843582" lon="31.2672400475"><ele>0.14</ele><time>2026-09-02T21:49:25Z</time></trkpt><trkpt lat="59.5565843582" lon="31.2672400475"><ele>0.14</ele><time>2026-09-02T21:49:28Z</time></trkpt><trkpt lat="59.5565843582" lon="31.2672400475"><ele>0.14</ele><time>2026-09-02T21:49:30Z</time></trkpt><trkpt lat="59.5565629005" lon="31.2672185898"><ele>0.14</ele><time>2026-09-02T21:49:33Z</time></trkpt><trkpt lat="59.5565629005" lon="31.2672185898"><ele>0.14</ele><time>2026-09-02T21:49:35Z</time></trkpt><trkpt lat="59.5565629005" lon="31.2671971321"><ele>0.14</ele><time>2026-09-02T21:49:38Z</time></trkpt><trkpt lat="59.5565414429" lon="31.2671971321"><ele>0.14</ele><time>2026-09-02T21:49:40Z</time></trkpt><trkpt lat="59.5565414429" lon="31.2671971321"><ele>0.14</ele><time>2026-09-02T21:49:43Z</time></trkpt><trkpt lat="59.5565414429" lon="31.2671971321"><ele>0.14</ele><time>2026-09-02T21:49:45Z</time></trkpt><trkpt lat="59.5565414429" lon="31.2671971321"><ele>0.14</ele><time>2026-09-02T21:49:48Z</time></trkpt><trkpt lat="59.5565414429" lon="31.2671971321"><ele>0.14</ele><time>2026-09-02T21:49:50Z</time></trkpt><trkpt lat="59.5565414429" lon="31.2671971321"><ele>0.14</ele><time>2026-09-02T21:49:53Z</time></trkpt><trkpt lat="59.5565414429" lon="31.2671971321"><ele>0.14</ele><time>2026-09-02T21:49:55Z</time></trkpt><trkpt lat="59.5565414429" lon="31.2671971321"><ele>0.14</ele><time>2026-09-02T21:49:58Z</time></trkpt><trkpt lat="59.5565414429" lon="31.2671971321"><ele>0.14</ele><time>2026-09-02T21:50:00Z</time></trkpt><trkpt lat="59.5565199852" lon="31.2671971321"><ele>0.14</ele><time>2026-09-02T21:50:03Z</time></trkpt><trkpt lat="59.5564985275" lon="31.2671542168"><ele>0.14</ele><time>2026-09-02T21:50:05Z</time></trkpt><trkpt lat="59.5564556122" lon="31.2670898438"><ele>0.14</ele><time>2026-09-02T21:50:08Z</time></trkpt><trkpt lat="59.5564556122" lon="31.2670469284"><ele>0.14</ele><time>2026-09-02T21:50:10Z</time></trkpt><trkpt lat="59.5564341545" lon="31.2670469284"><ele>0.14</ele><time>2026-09-02T21:50:13Z</time></trkpt><trkpt lat="59.5564341545" lon="31.2670469284"><ele>0.14</ele><time>2026-09-02T21:50:15Z</time></trkpt><trkpt lat="59.5564341545" lon="31.2670469284"><ele>0.14</ele><time>2026-09-02T21:50:18Z</time></trkpt><trkpt lat="59.5564341545" lon="31.2670469284"><ele>0.14</ele><time>2026-09-02T21:50:20Z</time></trkpt><trkpt lat="59.5564341545" lon="31.2670469284"><ele>0.14</ele><time>2026-09-02T21:50:23Z</time></trkpt><trkpt lat="59.5564770699" lon="31.2670683861"><ele>0.14</ele><time>2026-09-02T21:50:25Z</time></trkpt><trkpt lat="59.5564985275" lon="31.2671113014"><ele>0.14</ele><time>2026-09-02T21:50:28Z</time></trkpt><trkpt lat="59.5564985275" lon="31.2671756744"><ele>0.14</ele><time>2026-09-02T21:50:30Z</time></trkpt><trkpt lat="59.5564985275" lon="31.2672400475"><ele>0.14</ele><time>2026-09-02T21:50:33Z</time></trkpt><trkpt lat="59.5564985275" lon="31.2672185898"><ele>0.14</ele><time>2026-09-02T21:50:35Z</time></trkpt><trkpt lat="59.5565414429" lon="31.2672185898"><ele>0.14</ele><time>2026-09-02T21:50:38Z</time></trkpt><trkpt lat="59.5565629005" lon="31.2672185898"><ele>0.14</ele><time>2026-09-02T21:50:40Z</time></trkpt><trkpt lat="59.5565843582" lon="31.2671971321"><ele>0.14</ele><time>2026-09-02T21:50:43Z</time></trkpt><trkpt lat="59.5566272736" lon="31.2671327591"><ele>0.14</ele><time>2026-09-02T21:50:45Z</time></trkpt><trkpt lat="59.5566701889" lon="31.2670683861"><ele>0.14</ele><time>2026-09-02T21:50:48Z</time></trkpt><trkpt lat="59.5567131042" lon="31.2670254707"><ele>0.14</ele><time>2026-09-02T21:50:50Z</time></trkpt><trkpt lat="59.5567345619" lon="31.2670254707"><ele>0.14</ele><time>2026-09-02T21:50:53Z</time></trkpt><trkpt lat="59.5567560196" lon="31.2670040131"><ele>0.14</ele><time>2026-09-02T21:50:55Z</time></trkpt><trkpt lat="59.5567774773" lon="31.2670040131"><ele>0.14</ele><time>2026-09-02T21:50:58Z</time></trkpt><trkpt lat="59.5567774773" lon="31.2670040131"><ele>0.14</ele><time>2026-09-02T21:51:00Z</time></trkpt><trkpt lat="59.5568203926" lon="31.2669825554"><ele>0.14</ele><time>2026-09-02T21:51:03Z</time></trkpt><trkpt lat="59.5568203926" lon="31.2669825554"><ele>0.14</ele><time>2026-09-02T21:51:05Z</time></trkpt><trkpt lat="59.5568203926" lon="31.2669825554"><ele>0.14</ele><time>2026-09-02T21:51:08Z</time></trkpt><trkpt lat="59.5568418503" lon="31.2669610977"><ele>0.14</ele><time>2026-09-02T21:51:10Z</time></trkpt><trkpt lat="59.5568633080" lon="31.2669396400"><ele>0.14</ele><time>2026-09-02T21:51:13Z</time></trkpt><trkpt lat="59.5568633080" lon="31.2669396400"><ele>0.14</ele><time>2026-09-02T21:51:15Z</time></trkpt><trkpt lat="59.5568847656" lon="31.2669396400"><ele>0.14</ele><time>2026-09-02T21:51:18Z</time></trkpt><trkpt lat="59.5568633080" lon="31.2669396400"><ele>0.14</ele><time>2026-09-02T21:51:20Z</time></trkpt><trkpt lat="59.5568633080" lon="31.2668967247"><ele>0.14</ele><time>2026-09-02T21:51:23Z</time></trkpt><trkpt lat="59.5568633080" lon="31.2668967247"><ele>0.14</ele><time>2026-09-02T21:51:25Z</time></trkpt><trkpt lat="59.5568633080" lon="31.2668967247"><ele>0.14</ele><time>2026-09-02T21:51:28Z</time></trkpt><trkpt lat="59.5568633080" lon="31.2668967247"><ele>0.14</ele><time>2026-09-02T21:51:30Z</time></trkpt><trkpt lat="59.5568633080" lon="31.2668967247"><ele>0.14</ele><time>2026-09-02T21:51:33Z</time></trkpt><trkpt lat="59.5568203926" lon="31.2668108940"><ele>0.14</ele><time>2026-09-02T21:51:35Z</time></trkpt><trkpt lat="59.5567774773" lon="31.2667465210"><ele>0.14</ele><time>2026-09-02T21:51:38Z</time></trkpt><trkpt lat="59.5567560196" lon="31.2666821480"><ele>0.14</ele><time>2026-09-02T21:51:40Z</time></trkpt><trkpt lat="59.5567131042" lon="31.2665963173"><ele>0.14</ele><time>2026-09-02T21:51:43Z</time></trkpt><trkpt lat="59.5566916466" lon="31.2665748596"><ele>0.14</ele><time>2026-09-02T21:51:45Z</time></trkpt><trkpt lat="59.5567131042" lon="31.2665534019"><ele>0.14</ele><time>2026-09-02T21:51:48Z</time></trkpt><trkpt lat="59.5567131042" lon="31.2665534019"><ele>0.14</ele><time>2026-09-02T21:51:50Z</time></trkpt><trkpt lat="59.5567345619" lon="31.2665319443"><ele>0.14</ele><time>2026-09-02T21:51:53Z</time></trkpt><trkpt lat="59.5567345619" lon="31.2665104866"><ele>0.14</ele><time>2026-09-02T21:51:55Z</time></trkpt><trkpt lat="59.5567774773" lon="31.2664675713"><ele>0.14</ele><time>2026-09-02T21:51:58Z</time></trkpt><trkpt lat="59.5567774773" lon="31.2664675713"><ele>0.14</ele><time>2026-09-02T21:52:00Z</time></trkpt><trkpt lat="59.5567774773" lon="31.2664675713"><ele>0.14</ele><time>2026-09-02T21:52:03Z</time></trkpt><trkpt lat="59.5567774773" lon="31.2664675713"><ele>0.14</ele><time>2026-09-02T21:52:05Z</time></trkpt><trkpt lat="59.5567774773" lon="31.2664675713"><ele>0.14</ele><time>2026-09-02T21:52:08Z</time></trkpt><trkpt lat="59.5567774773" lon="31.2664675713"><ele>0.14</ele><time>2026-09-02T21:52:10Z</time></trkpt><trkpt lat="59.5567774773" lon="31.2664890289"><ele>0.14</ele><time>2026-09-02T21:52:13Z</time></trkpt><trkpt lat="59.5567774773" lon="31.2664890289"><ele>0.14</ele><time>2026-09-02T21:52:15Z</time></trkpt><trkpt lat="59.5567774773" lon="31.2665104866"><ele>0.14</ele><time>2026-09-02T21:52:18Z</time></trkpt><trkpt lat="59.5567774773" lon="31.2665104866"><ele>0.14</ele><time>2026-09-02T21:52:20Z</time></trkpt><trkpt lat="59.5567774773" lon="31.2665104866"><ele>0.14</ele><time>2026-09-02T21:52:23Z</time></trkpt><trkpt lat="59.5567774773" lon="31.2665104866"><ele>0.14</ele><time>2026-09-02T21:52:25Z</time></trkpt><trkpt lat="59.5567774773" lon="31.2665104866"><ele>0.14</ele><time>2026-09-02T21:52:28Z</time></trkpt><trkpt lat="59.5567774773" lon="31.2665104866"><ele>0.14</ele><time>2026-09-02T21:52:30Z</time></trkpt><trkpt lat="59.5567560196" lon="31.2665104866"><ele>0.14</ele><time>2026-09-02T21:52:33Z</time></trkpt><trkpt lat="59.5567560196" lon="31.2665319443"><ele>0.14</ele><time>2026-09-02T21:52:35Z</time></trkpt><trkpt lat="59.5567560196" lon="31.2665963173"><ele>0.14</ele><time>2026-09-02T21:52:38Z</time></trkpt><trkpt lat="59.5567560196" lon="31.2666392326"><ele>0.14</ele><time>2026-09-02T21:52:40Z</time></trkpt><trkpt lat="59.5567774773" lon="31.2667250633"><ele>0.14</ele><time>2026-09-02T21:52:43Z</time></trkpt><trkpt lat="59.5567774773" lon="31.2667679787"><ele>0.14</ele><time>2026-09-02T21:52:45Z</time></trkpt><trkpt lat="59.5567774773" lon="31.2667894363"><ele>0.14</ele><time>2026-09-02T21:52:48Z</time></trkpt><trkpt lat="59.5567774773" lon="31.2667894363"><ele>0.14</ele><time>2026-09-02T21:52:50Z</time></trkpt><trkpt lat="59.5567989349" lon="31.2668323517"><ele>0.14</ele><time>2026-09-02T21:52:53Z</time></trkpt><trkpt lat="59.5568418503" lon="31.2668323517"><ele>0.14</ele><time>2026-09-02T21:52:55Z</time></trkpt><trkpt lat="59.5568418503" lon="31.2668323517"><ele>0.14</ele><time>2026-09-02T21:52:58Z</time></trkpt><trkpt lat="59.5568418503" lon="31.2668108940"><ele>0.14</ele><time>2026-09-02T21:53:00Z</time></trkpt><trkpt lat="59.5568633080" lon="31.2668323517"><ele>0.14</ele><time>2026-09-02T21:53:03Z</time></trkpt><trkpt lat="59.5568633080" lon="31.2668538094"><ele>0.14</ele><time>2026-09-02T21:53:05Z</time></trkpt><trkpt lat="59.5568847656" lon="31.2668752670"><ele>0.14</ele><time>2026-09-02T21:53:08Z</time></trkpt><trkpt lat="59.5569062233" lon="31.2669181824"><ele>0.14</ele><time>2026-09-02T21:53:10Z</time></trkpt><trkpt lat="59.5569276810" lon="31.2669396400"><ele>0.14</ele><time>2026-09-02T21:53:13Z</time></trkpt><trkpt lat="59.5569491386" lon="31.2669610977"><ele>0.14</ele><time>2026-09-02T21:53:15Z</time></trkpt><trkpt lat="59.5569705963" lon="31.2669825554"><ele>0.14</ele><time>2026-09-02T21:53:18Z</time></trkpt><trkpt lat="59.5569705963" lon="31.2669825554"><ele>0.14</ele><time>2026-09-02T21:53:20Z</time></trkpt><trkpt lat="59.5569705963" lon="31.2669825554"><ele>0.14</ele><time>2026-09-02T21:53:23Z</time></trkpt><trkpt lat="59.5569705963" lon="31.2669825554"><ele>0.14</ele><time>2026-09-02T21:53:25Z</time></trkpt><trkpt lat="59.5569705963" lon="31.2669825554"><ele>0.14</ele><time>2026-09-02T21:53:28Z</time></trkpt><trkpt lat="59.5569705963" lon="31.2669610977"><ele>0.14</ele><time>2026-09-02T21:53:30Z</time></trkpt><trkpt lat="59.5569705963" lon="31.2669610977"><ele>0.14</ele><time>2026-09-02T21:53:33Z</time></trkpt><trkpt lat="59.5569705963" lon="31.2669181824"><ele>0.14</ele><time>2026-09-02T21:53:35Z</time></trkpt><trkpt lat="59.5569920540" lon="31.2669181824"><ele>0.14</ele><time>2026-09-02T21:53:38Z</time></trkpt><trkpt lat="59.5569920540" lon="31.2668967247"><ele>0.14</ele><time>2026-09-02T21:53:40Z</time></trkpt><trkpt lat="59.5569920540" lon="31.2668967247"><ele>0.14</ele><time>2026-09-02T21:53:43Z</time></trkpt><trkpt lat="59.5570135117" lon="31.2668752670"><ele>0.14</ele><time>2026-09-02T21:53:45Z</time></trkpt><trkpt lat="59.5570135117" lon="31.2668967247"><ele>0.14</ele><time>2026-09-02T21:53:48Z</time></trkpt><trkpt lat="59.5570564270" lon="31.2669181824"><ele>0.14</ele><time>2026-09-02T21:53:50Z</time></trkpt><trkpt lat="59.5570778847" lon="31.2669181824"><ele>0.14</ele><time>2026-09-02T21:53:53Z</time></trkpt><trkpt lat="59.5570778847" lon="31.2668967247"><ele>0.14</ele><time>2026-09-02T21:53:55Z</time></trkpt><trkpt lat="59.5570778847" lon="31.2668967247"><ele>0.14</ele><time>2026-09-02T21:53:58Z</time></trkpt><trkpt lat="59.5570778847" lon="31.2668967247"><ele>0.14</ele><time>2026-09-02T21:54:00Z</time></trkpt><trkpt lat="59.5570993423" lon="31.2668752670"><ele>0.14</ele><time>2026-09-02T21:54:03Z</time></trkpt><trkpt lat="59.5570993423" lon="31.2668967247"><ele>0.14</ele><time>2026-09-02T21:54:05Z</time></trkpt><trkpt lat="59.5570993423" lon="31.2668967247"><ele>0.14</ele><time>2026-09-02T21:54:08Z</time></trkpt><trkpt lat="59.5570993423" lon="31.2668967247"><ele>0.14</ele><time>2026-09-02T21:54:10Z</time></trkpt><trkpt lat="59.5571208000" lon="31.2668752670"><ele>0.14</ele><time>2026-09-02T21:54:13Z</time></trkpt><trkpt lat="59.5571422577" lon="31.2668538094"><ele>0.14</ele><time>2026-09-02T21:54:15Z</time></trkpt><trkpt lat="59.5571422577" lon="31.2668538094"><ele>0.14</ele><time>2026-09-02T21:54:18Z</time></trkpt><trkpt lat="59.5571422577" lon="31.2668323517"><ele>0.14</ele><time>2026-09-02T21:54:20Z</time></trkpt><trkpt lat="59.5571208000" lon="31.2667894363"><ele>0.14</ele><time>2026-09-02T21:54:23Z</time></trkpt><trkpt lat="59.5571208000" lon="31.2667679787"><ele>0.14</ele><time>2026-09-02T21:54:25Z</time></trkpt><trkpt lat="59.5571422577" lon="31.2667679787"><ele>0.14</ele><time>2026-09-02T21:54:30Z</time></trkpt><trkpt lat="59.5571637154" lon="31.2667679787"><ele>0.14</ele><time>2026-09-02T21:54:33Z</time></trkpt><trkpt lat="59.5571637154" lon="31.2667679787"><ele>0.14</ele><time>2026-09-02T21:54:35Z</time></trkpt><trkpt lat="59.5571851730" lon="31.2667894363"><ele>0.14</ele><time>2026-09-02T21:54:38Z</time></trkpt><trkpt lat="59.5571851730" lon="31.2667894363"><ele>0.14</ele><time>2026-09-02T21:54:40Z</time></trkpt><trkpt lat="59.5571851730" lon="31.2668108940"><ele>0.14</ele><time>2026-09-02T21:54:43Z</time></trkpt><trkpt lat="59.5572066307" lon="31.2667894363"><ele>0.14</ele><time>2026-09-02T21:54:45Z</time></trkpt><trkpt lat="59.5572066307" lon="31.2667894363"><ele>0.14</ele><time>2026-09-02T21:54:48Z</time></trkpt><trkpt lat="59.5571851730" lon="31.2667679787"><ele>0.14</ele><time>2026-09-02T21:54:50Z</time></trkpt><trkpt lat="59.5571851730" lon="31.2667465210"><ele>0.14</ele><time>2026-09-02T21:54:53Z</time></trkpt><trkpt lat="59.5571851730" lon="31.2667036057"><ele>0.14</ele><time>2026-09-02T21:54:55Z</time></trkpt><trkpt lat="59.5571851730" lon="31.2666606903"><ele>0.14</ele><time>2026-09-02T21:54:58Z</time></trkpt><trkpt lat="59.5571851730" lon="31.2666392326"><ele>0.14</ele><time>2026-09-02T21:55:00Z</time></trkpt><trkpt lat="59.5571851730" lon="31.2666177750"><ele>0.14</ele><time>2026-09-02T21:55:03Z</time></trkpt><trkpt lat="59.5571851730" lon="31.2665963173"><ele>0.14</ele><time>2026-09-02T21:55:05Z</time></trkpt><trkpt lat="59.5571851730" lon="31.2665534019"><ele>0.14</ele><time>2026-09-02T21:55:08Z</time></trkpt><trkpt lat="59.5571851730" lon="31.2665319443"><ele>0.14</ele><time>2026-09-02T21:55:10Z</time></trkpt><trkpt lat="59.5571851730" lon="31.2665104866"><ele>0.14</ele><time>2026-09-02T21:55:13Z</time></trkpt><trkpt lat="59.5572066307" lon="31.2664890289"><ele>0.14</ele><time>2026-09-02T21:55:15Z</time></trkpt><trkpt lat="59.5571851730" lon="31.2664890289"><ele>0.14</ele><time>2026-09-02T21:55:18Z</time></trkpt><trkpt lat="59.5571851730" lon="31.2664675713"><ele>0.14</ele><time>2026-09-02T21:55:20Z</time></trkpt><trkpt lat="59.5571637154" lon="31.2664675713"><ele>0.14</ele><time>2026-09-02T21:55:23Z</time></trkpt><trkpt lat="59.5571422577" lon="31.2664246559"><ele>0.14</ele><time>2026-09-02T21:55:25Z</time></trkpt><trkpt lat="59.5571208000" lon="31.2663817406"><ele>0.14</ele><time>2026-09-02T21:55:28Z</time></trkpt><trkpt lat="59.5571208000" lon="31.2663388252"><ele>0.14</ele><time>2026-09-02T21:55:30Z</time></trkpt><trkpt lat="59.5571208000" lon="31.2662744522"><ele>0.14</ele><time>2026-09-02T21:55:33Z</time></trkpt><trkpt lat="59.5571208000" lon="31.2662529945"><ele>0.14</ele><time>2026-09-02T21:55:35Z</time></trkpt><trkpt lat="59.5571208000" lon="31.2661671638"><ele>0.14</ele><time>2026-09-02T21:55:38Z</time></trkpt><trkpt lat="59.5571208000" lon="31.2661027908"><ele>0.14</ele><time>2026-09-02T21:55:40Z</time></trkpt><trkpt lat="59.5571208000" lon="31.2661027908"><ele>0.14</ele><time>2026-09-02T21:55:43Z</time></trkpt><trkpt lat="59.5571422577" lon="31.2661027908"><ele>0.14</ele><time>2026-09-02T21:55:45Z</time></trkpt><trkpt lat="59.5571208000" lon="31.2660384178"><ele>0.14</ele><time>2026-09-02T21:55:48Z</time></trkpt><trkpt lat="59.5571208000" lon="31.2660169601"><ele>0.14</ele><time>2026-09-02T21:55:50Z</time></trkpt><trkpt lat="59.5571422577" lon="31.2660169601"><ele>0.14</ele><time>2026-09-02T21:55:53Z</time></trkpt><trkpt lat="59.5571637154" lon="31.2659740448"><ele>0.14</ele><time>2026-09-02T21:55:55Z</time></trkpt><trkpt lat="59.5571637154" lon="31.2659740448"><ele>0.14</ele><time>2026-09-02T21:55:58Z</time></trkpt><trkpt lat="59.5571637154" lon="31.2659525871"><ele>0.14</ele><time>2026-09-02T21:56:00Z</time></trkpt><trkpt lat="59.5571637154" lon="31.2659096718"><ele>0.14</ele><time>2026-09-02T21:56:03Z</time></trkpt><trkpt lat="59.5571637154" lon="31.2658667564"><ele>0.14</ele><time>2026-09-02T21:56:05Z</time></trkpt><trkpt lat="59.5571637154" lon="31.2658452988"><ele>0.14</ele><time>2026-09-02T21:56:08Z</time></trkpt><trkpt lat="59.5571851730" lon="31.2658238411"><ele>0.14</ele><time>2026-09-02T21:56:10Z</time></trkpt><trkpt lat="59.5572066307" lon="31.2657594681"><ele>0.14</ele><time>2026-09-02T21:56:13Z</time></trkpt><trkpt lat="59.5572280884" lon="31.2657594681"><ele>0.14</ele><time>2026-09-02T21:56:15Z</time></trkpt><trkpt lat="59.5572495461" lon="31.2657380104"><ele>0.14</ele><time>2026-09-02T21:56:18Z</time></trkpt><trkpt lat="59.5572495461" lon="31.2657380104"><ele>0.14</ele><time>2026-09-02T21:56:20Z</time></trkpt><trkpt lat="59.5572710037" lon="31.2657165527"><ele>0.14</ele><time>2026-09-02T21:56:23Z</time></trkpt><trkpt lat="59.5572710037" lon="31.2656950951"><ele>0.14</ele><time>2026-09-02T21:56:25Z</time></trkpt><trkpt lat="59.5572710037" lon="31.2656736374"><ele>0.14</ele><time>2026-09-02T21:56:28Z</time></trkpt><trkpt lat="59.5572710037" lon="31.2656736374"><ele>0.14</ele><time>2026-09-02T21:56:30Z</time></trkpt><trkpt lat="59.5572924614" lon="31.2656521797"><ele>0.14</ele><time>2026-09-02T21:56:33Z</time></trkpt><trkpt lat="59.5573139191" lon="31.2656521797"><ele>0.14</ele><time>2026-09-02T21:56:35Z</time></trkpt><trkpt lat="59.5573353767" lon="31.2656307220"><ele>0.14</ele><time>2026-09-02T21:56:38Z</time></trkpt><trkpt lat="59.5573353767" lon="31.2656092644"><ele>0.14</ele><time>2026-09-02T21:56:40Z</time></trkpt><trkpt lat="59.5573353767" lon="31.2655878067"><ele>0.14</ele><time>2026-09-02T21:56:43Z</time></trkpt><trkpt lat="59.5573353767" lon="31.2655663490"><ele>0.14</ele><time>2026-09-02T21:56:45Z</time></trkpt><trkpt lat="59.5573353767" lon="31.2655663490"><ele>0.14</ele><time>2026-09-02T21:56:48Z</time></trkpt><trkpt lat="59.5573353767" lon="31.2655663490"><ele>0.14</ele><time>2026-09-02T21:56:50Z</time></trkpt><trkpt lat="59.5573782921" lon="31.2655878067"><ele>0.14</ele><time>2026-09-02T21:56:53Z</time></trkpt><trkpt lat="59.5573997498" lon="31.2656092644"><ele>0.14</ele><time>2026-09-02T21:56:55Z</time></trkpt><trkpt lat="59.5573997498" lon="31.2656092644"><ele>0.14</ele><time>2026-09-02T21:56:58Z</time></trkpt><trkpt lat="59.5574212074" lon="31.2656307220"><ele>0.14</ele><time>2026-09-02T21:57:00Z</time></trkpt><trkpt lat="59.5574212074" lon="31.2656307220"><ele>0.14</ele><time>2026-09-02T21:57:03Z</time></trkpt><trkpt lat="59.5574212074" lon="31.2656092644"><ele>0.14</ele><time>2026-09-02T21:57:05Z</time></trkpt><trkpt lat="59.5574426651" lon="31.2656092644"><ele>0.14</ele><time>2026-09-02T21:57:08Z</time></trkpt><trkpt lat="59.5574641228" lon="31.2655878067"><ele>0.14</ele><time>2026-09-02T21:57:10Z</time></trkpt><trkpt lat="59.5574641228" lon="31.2655448914"><ele>0.14</ele><time>2026-09-02T21:57:13Z</time></trkpt><trkpt lat="59.5574426651" lon="31.2655448914"><ele>0.14</ele><time>2026-09-02T21:57:15Z</time></trkpt><trkpt lat="59.5574426651" lon="31.2655448914"><ele>0.14</ele><time>2026-09-02T21:57:18Z</time></trkpt><trkpt lat="59.5574212074" lon="31.2655448914"><ele>0.14</ele><time>2026-09-02T21:57:20Z</time></trkpt><trkpt lat="59.5574212074" lon="31.2655019760"><ele>0.14</ele><time>2026-09-02T21:57:23Z</time></trkpt><trkpt lat="59.5574212074" lon="31.2654590607"><ele>0.14</ele><time>2026-09-02T21:57:25Z</time></trkpt><trkpt lat="59.5574426651" lon="31.2654376030"><ele>0.14</ele><time>2026-09-02T21:57:28Z</time></trkpt><trkpt lat="59.5574426651" lon="31.2654590607"><ele>0.14</ele><time>2026-09-02T21:57:30Z</time></trkpt><trkpt lat="59.5574426651" lon="31.2654161453"><ele>0.14</ele><time>2026-09-02T21:57:33Z</time></trkpt><trkpt lat="59.5574212074" lon="31.2654161453"><ele>0.14</ele><time>2026-09-02T21:57:35Z</time></trkpt><trkpt lat="59.5574212074" lon="31.2654161453"><ele>0.14</ele><time>2026-09-02T21:57:38Z</time></trkpt><trkpt lat="59.5574212074" lon="31.2653946877"><ele>0.14</ele><time>2026-09-02T21:57:40Z</time></trkpt><trkpt lat="59.5573997498" lon="31.2653946877"><ele>0.14</ele><time>2026-09-02T21:57:43Z</time></trkpt><trkpt lat="59.5574212074" lon="31.2654161453"><ele>0.14</ele><time>2026-09-02T21:57:45Z</time></trkpt><trkpt lat="59.5573997498" lon="31.2654161453"><ele>0.14</ele><time>2026-09-02T21:57:48Z</time></trkpt><trkpt lat="59.5574212074" lon="31.2654161453"><ele>0.14</ele><time>2026-09-02T21:57:50Z</time></trkpt><trkpt lat="59.5573997498" lon="31.2654161453"><ele>0.14</ele><time>2026-09-02T21:57:53Z</time></trkpt><trkpt lat="59.5573997498" lon="31.2653946877"><ele>0.14</ele><time>2026-09-02T21:57:55Z</time></trkpt><trkpt lat="59.5574212074" lon="31.2653517723"><ele>0.14</ele><time>2026-09-02T21:57:58Z</time></trkpt><trkpt lat="59.5574426651" lon="31.2653303146"><ele>0.14</ele><time>2026-09-02T21:58:00Z</time></trkpt><trkpt lat="59.5574426651" lon="31.2653088570"><ele>0.14</ele><time>2026-09-02T21:58:03Z</time></trkpt><trkpt lat="59.5574426651" lon="31.2652873993"><ele>0.14</ele><time>2026-09-02T21:58:05Z</time></trkpt><trkpt lat="59.5574641228" lon="31.2652444839"><ele>0.14</ele><time>2026-09-02T21:58:08Z</time></trkpt><trkpt lat="59.5574641228" lon="31.2652230263"><ele>0.14</ele><time>2026-09-02T21:58:10Z</time></trkpt><trkpt lat="59.5574641228" lon="31.2652015686"><ele>0.14</ele><time>2026-09-02T21:58:13Z</time></trkpt><trkpt lat="59.5574641228" lon="31.2651801109"><ele>0.14</ele><time>2026-09-02T21:58:15Z</time></trkpt><trkpt lat="59.5574641228" lon="31.2651371956"><ele>0.14</ele><time>2026-09-02T21:58:18Z</time></trkpt><trkpt lat="59.5574855804" lon="31.2651371956"><ele>0.14</ele><time>2026-09-02T21:58:20Z</time></trkpt><trkpt lat="59.5575284958" lon="31.2651586533"><ele>0.14</ele><time>2026-09-02T21:58:23Z</time></trkpt><trkpt lat="59.5575499535" lon="31.2651801109"><ele>0.14</ele><time>2026-09-02T21:58:25Z</time></trkpt><trkpt lat="59.5575714111" lon="31.2651801109"><ele>0.14</ele><time>2026-09-02T21:58:28Z</time></trkpt><trkpt lat="59.5576143265" lon="31.2651371956"><ele>0.14</ele><time>2026-09-02T21:58:30Z</time></trkpt><trkpt lat="59.5576357841" lon="31.2651157379"><ele>0.14</ele><time>2026-09-02T21:58:33Z</time></trkpt><trkpt lat="59.5576572418" lon="31.2650728226"><ele>0.14</ele><time>2026-09-02T21:58:35Z</time></trkpt><trkpt lat="59.5577001572" lon="31.2650728226"><ele>0.14</ele><time>2026-09-02T21:58:38Z</time></trkpt><trkpt lat="59.5577216148" lon="31.2650513649"><ele>0.14</ele><time>2026-09-02T21:58:40Z</time></trkpt><trkpt lat="59.5577216148" lon="31.2650299072"><ele>0.14</ele><time>2026-09-02T21:58:43Z</time></trkpt><trkpt lat="59.5577216148" lon="31.2650299072"><ele>0.14</ele><time>2026-09-02T21:58:45Z</time></trkpt><trkpt lat="59.5577430725" lon="31.2649869919"><ele>0.14</ele><time>2026-09-02T21:58:48Z</time></trkpt><trkpt lat="59.5577645302" lon="31.2649869919"><ele>0.14</ele><time>2026-09-02T21:58:50Z</time></trkpt><trkpt lat="59.5577645302" lon="31.2649655342"><ele>0.14</ele><time>2026-09-02T21:58:53Z</time></trkpt><trkpt lat="59.5577859879" lon="31.2649440765"><ele>0.14</ele><time>2026-09-02T21:58:55Z</time></trkpt><trkpt lat="59.5577859879" lon="31.2649226189"><ele>0.14</ele><time>2026-09-02T21:58:58Z</time></trkpt><trkpt lat="59.5578074455" lon="31.2649011612"><ele>0.14</ele><time>2026-09-02T21:59:00Z</time></trkpt><trkpt lat="59.5578289032" lon="31.2649011612"><ele>0.14</ele><time>2026-09-02T21:59:03Z</time></trkpt><trkpt lat="59.5578289032" lon="31.2648797035"><ele>0.14</ele><time>2026-09-02T21:59:05Z</time></trkpt><trkpt lat="59.5578503609" lon="31.2648797035"><ele>0.14</ele><time>2026-09-02T21:59:08Z</time></trkpt><trkpt lat="59.5578718185" lon="31.2648797035"><ele>0.14</ele><time>2026-09-02T21:59:10Z</time></trkpt><trkpt lat="59.5578718185" lon="31.2648582458"><ele>0.14</ele><time>2026-09-02T21:59:13Z</time></trkpt><trkpt lat="59.5578718185" lon="31.2648582458"><ele>0.14</ele><time>2026-09-02T21:59:15Z</time></trkpt><trkpt lat="59.5578932762" lon="31.2648367882"><ele>0.14</ele><time>2026-09-02T21:59:18Z</time></trkpt><trkpt lat="59.5578932762" lon="31.2647938728"><ele>0.14</ele><time>2026-09-02T21:59:20Z</time></trkpt><trkpt lat="59.5579147339" lon="31.2647724152"><ele>0.14</ele><time>2026-09-02T21:59:23Z</time></trkpt><trkpt lat="59.5579147339" lon="31.2647509575"><ele>0.14</ele><time>2026-09-02T21:59:25Z</time></trkpt><trkpt lat="59.5579147339" lon="31.2647294998"><ele>0.14</ele><time>2026-09-02T21:59:28Z</time></trkpt><trkpt lat="59.5579147339" lon="31.2647294998"><ele>0.14</ele><time>2026-09-02T21:59:30Z</time></trkpt><trkpt lat="59.5579361916" lon="31.2646865845"><ele>0.14</ele><time>2026-09-02T21:59:33Z</time></trkpt><trkpt lat="59.5579576492" lon="31.2646651268"><ele>0.14</ele><time>2026-09-02T21:59:35Z</time></trkpt><trkpt lat="59.5579791069" lon="31.2646436691"><ele>0.14</ele><time>2026-09-02T21:59:38Z</time></trkpt><trkpt lat="59.5579791069" lon="31.2646222115"><ele>0.14</ele><time>2026-09-02T21:59:40Z</time></trkpt><trkpt lat="59.5580005646" lon="31.2645792961"><ele>0.14</ele><time>2026-09-02T21:59:43Z</time></trkpt><trkpt lat="59.5580220222" lon="31.2645578384"><ele>0.14</ele><time>2026-09-02T21:59:45Z</time></trkpt><trkpt lat="59.5580434799" lon="31.2645792961"><ele>0.14</ele><time>2026-09-02T21:59:48Z</time></trkpt><trkpt lat="59.5580434799" lon="31.2645792961"><ele>0.14</ele><time>2026-09-02T21:59:50Z</time></trkpt><trkpt lat="59.5580649376" lon="31.2645792961"><ele>0.14</ele><time>2026-09-02T21:59:53Z</time></trkpt><trkpt lat="59.5580649376" lon="31.2645578384"><ele>0.14</ele><time>2026-09-02T21:59:55Z</time></trkpt><trkpt lat="59.5580863953" lon="31.2645363808"><ele>0.14</ele><time>2026-09-02T21:59:58Z</time></trkpt><trkpt lat="59.5581078529" lon="31.2645149231"><ele>0.14</ele><time>2026-09-02T22:00:00Z</time></trkpt><trkpt lat="59.5581078529" lon="31.2645149231"><ele>0.14</ele><time>2026-09-02T22:00:03Z</time></trkpt><trkpt lat="59.5581293106" lon="31.2644934654"><ele>0.14</ele><time>2026-09-02T22:00:05Z</time></trkpt><trkpt lat="59.5581722260" lon="31.2644505501"><ele>0.14</ele><time>2026-09-02T22:00:08Z</time></trkpt><trkpt lat="59.5581507683" lon="31.2644290924"><ele>0.14</ele><time>2026-09-02T22:00:10Z</time></trkpt><trkpt lat="59.5581507683" lon="31.2643647194"><ele>0.14</ele><time>2026-09-02T22:00:13Z</time></trkpt><trkpt lat="59.5581293106" lon="31.2643432617"><ele>0.14</ele><time>2026-09-02T22:00:15Z</time></trkpt><trkpt lat="59.5581293106" lon="31.2643218040"><ele>0.14</ele><time>2026-09-02T22:00:18Z</time></trkpt><trkpt lat="59.5581293106" lon="31.2643003464"><ele>0.14</ele><time>2026-09-02T22:00:20Z</time></trkpt><trkpt lat="59.5581293106" lon="31.2642788887"><ele>0.14</ele><time>2026-09-02T22:00:23Z</time></trkpt><trkpt lat="59.5581507683" lon="31.2642359734"><ele>0.14</ele><time>2026-09-02T22:00:25Z</time></trkpt><trkpt lat="59.5581507683" lon="31.2642145157"><ele>0.14</ele><time>2026-09-02T22:00:28Z</time></trkpt><trkpt lat="59.5581507683" lon="31.2642145157"><ele>0.14</ele><time>2026-09-02T22:00:30Z</time></trkpt><trkpt lat="59.5581507683" lon="31.2641930580"><ele>0.14</ele><time>2026-09-02T22:00:33Z</time></trkpt><trkpt lat="59.5581722260" lon="31.2641716003"><ele>0.14</ele><time>2026-09-02T22:00:35Z</time></trkpt><trkpt lat="59.5581936836" lon="31.2641716003"><ele>0.14</ele><time>2026-09-02T22:00:38Z</time></trkpt><trkpt lat="59.5581936836" lon="31.2641501427"><ele>0.14</ele><time>2026-09-02T22:00:40Z</time></trkpt><trkpt lat="59.5581936836" lon="31.2641286850"><ele>0.14</ele><time>2026-09-02T22:00:43Z</time></trkpt><trkpt lat="59.5582151413" lon="31.2641072273"><ele>0.14</ele><time>2026-09-02T22:00:45Z</time></trkpt><trkpt lat="59.5582151413" lon="31.2641286850"><ele>0.14</ele><time>2026-09-02T22:00:48Z</time></trkpt><trkpt lat="59.5582365990" lon="31.2641716003"><ele>0.14</ele><time>2026-09-02T22:00:50Z</time></trkpt><trkpt lat="59.5582365990" lon="31.2641716003"><ele>0.14</ele><time>2026-09-02T22:00:53Z</time></trkpt><trkpt lat="59.5582365990" lon="31.2641716003"><ele>0.14</ele><time>2026-09-02T22:00:55Z</time></trkpt><trkpt lat="59.5582365990" lon="31.2641716003"><ele>0.14</ele><time>2026-09-02T22:00:58Z</time></trkpt><trkpt lat="59.5582365990" lon="31.2641716003"><ele>0.14</ele><time>2026-09-02T22:01:00Z</time></trkpt><trkpt lat="59.5582365990" lon="31.2641716003"><ele>0.14</ele><time>2026-09-02T22:01:03Z</time></trkpt><trkpt lat="59.5582365990" lon="31.2641716003"><ele>0.14</ele><time>2026-09-02T22:01:05Z</time></trkpt><trkpt lat="59.5582365990" lon="31.2641716003"><ele>0.14</ele><time>2026-09-02T22:01:08Z</time></trkpt><trkpt lat="59.5582365990" lon="31.2641716003"><ele>0.14</ele><time>2026-09-02T22:01:10Z</time></trkpt><trkpt lat="59.5582365990" lon="31.2641716003"><ele>0.14</ele><time>2026-09-02T22:01:13Z</time></trkpt><trkpt lat="59.5582365990" lon="31.2641716003"><ele>0.14</ele><time>2026-09-02T22:01:15Z</time></trkpt><trkpt lat="59.5582365990" lon="31.2641716003"><ele>0.14</ele><time>2026-09-02T22:01:18Z</time></trkpt><trkpt lat="59.5582365990" lon="31.2641716003"><ele>0.14</ele><time>2026-09-02T22:01:20Z</time></trkpt><trkpt lat="59.5582365990" lon="31.2641716003"><ele>0.14</ele><time>2026-09-02T22:01:23Z</time></trkpt><trkpt lat="59.5582365990" lon="31.2641716003"><ele>0.14</ele><time>2026-09-02T22:01:25Z</time></trkpt><trkpt lat="59.5582365990" lon="31.2641501427"><ele>0.14</ele><time>2026-09-02T22:01:28Z</time></trkpt><trkpt lat="59.5582365990" lon="31.2641501427"><ele>0.14</ele><time>2026-09-02T22:01:30Z</time></trkpt><trkpt lat="59.5582580566" lon="31.2641501427"><ele>0.14</ele><time>2026-09-02T22:01:33Z</time></trkpt><trkpt lat="59.5582580566" lon="31.2641501427"><ele>0.14</ele><time>2026-09-02T22:01:35Z</time></trkpt><trkpt lat="59.5582580566" lon="31.2641501427"><ele>0.14</ele><time>2026-09-02T22:01:38Z</time></trkpt><trkpt lat="59.5582580566" lon="31.2641501427"><ele>0.14</ele><time>2026-09-02T22:01:40Z</time></trkpt><trkpt lat="59.5582580566" lon="31.2641501427"><ele>0.14</ele><time>2026-09-02T22:01:43Z</time></trkpt><trkpt lat="59.5582580566" lon="31.2641501427"><ele>0.14</ele><time>2026-09-02T22:01:45Z</time></trkpt><trkpt lat="59.5582580566" lon="31.2641501427"><ele>0.14</ele><time>2026-09-02T22:01:48Z</time></trkpt><trkpt lat="59.5582580566" lon="31.2641501427"><ele>0.14</ele><time>2026-09-02T22:01:50Z</time></trkpt><trkpt lat="59.5582580566" lon="31.2641501427"><ele>0.14</ele><time>2026-09-02T22:01:53Z</time></trkpt><trkpt lat="59.5582580566" lon="31.2641501427"><ele>0.14</ele><time>2026-09-02T22:01:55Z</time></trkpt><trkpt lat="59.5582580566" lon="31.2641501427"><ele>0.14</ele><time>2026-09-02T22:01:58Z</time></trkpt><trkpt lat="59.5582580566" lon="31.2641501427"><ele>0.14</ele><time>2026-09-02T22:02:00Z</time></trkpt><trkpt lat="59.5582580566" lon="31.2641501427"><ele>0.14</ele><time>2026-09-02T22:02:03Z</time></trkpt><trkpt lat="59.5582580566" lon="31.2641501427"><ele>0.14</ele><time>2026-09-02T22:02:05Z</time></trkpt><trkpt lat="59.5582580566" lon="31.2641501427"><ele>0.14</ele><time>2026-09-02T22:02:08Z</time></trkpt><trkpt lat="59.5582580566" lon="31.2641501427"><ele>0.14</ele><time>2026-09-02T22:02:10Z</time></trkpt><trkpt lat="59.5582580566" lon="31.2641501427"><ele>0.14</ele><time>2026-09-02T22:02:13Z</time></trkpt><trkpt lat="59.5582580566" lon="31.2641501427"><ele>0.14</ele><time>2026-09-02T22:02:15Z</time></trkpt><trkpt lat="59.5582580566" lon="31.2641501427"><ele>0.14</ele><time>2026-09-02T22:02:18Z</time></trkpt><trkpt lat="59.5582580566" lon="31.2641501427"><ele>0.14</ele><time>2026-09-02T22:02:20Z</time></trkpt><trkpt lat="59.5582580566" lon="31.2641501427"><ele>0.14</ele><time>2026-09-02T22:02:23Z</time></trkpt><trkpt lat="59.5582580566" lon="31.2641501427"><ele>0.14</ele><time>2026-09-02T22:02:25Z</time></trkpt><trkpt lat="59.5582580566" lon="31.2641501427"><ele>0.14</ele><time>2026-09-02T22:02:28Z</time></trkpt><trkpt lat="59.5582580566" lon="31.2641501427"><ele>0.14</ele><time>2026-09-02T22:02:30Z</time></trkpt><trkpt lat="59.5582795143" lon="31.2641501427"><ele>0.14</ele><time>2026-09-02T22:02:33Z</time></trkpt><trkpt lat="59.5582795143" lon="31.2641501427"><ele>0.14</ele><time>2026-09-02T22:02:35Z</time></trkpt><trkpt lat="59.5582795143" lon="31.2641501427"><ele>0.14</ele><time>2026-09-02T22:02:38Z</time></trkpt><trkpt lat="59.5582795143" lon="31.2641501427"><ele>0.14</ele><time>2026-09-02T22:02:40Z</time></trkpt><trkpt lat="59.5582795143" lon="31.2641501427"><ele>0.14</ele><time>2026-09-02T22:02:43Z</time></trkpt><trkpt lat="59.5582795143" lon="31.2641501427"><ele>0.14</ele><time>2026-09-02T22:02:45Z</time></trkpt><trkpt lat="59.5582795143" lon="31.2641286850"><ele>0.14</ele><time>2026-09-02T22:02:48Z</time></trkpt><trkpt lat="59.5583009720" lon="31.2641286850"><ele>0.14</ele><time>2026-09-02T22:02:50Z</time></trkpt><trkpt lat="59.5583868027" lon="31.2641072273"><ele>0.14</ele><time>2026-09-02T22:02:53Z</time></trkpt><trkpt lat="59.5584297180" lon="31.2640857697"><ele>0.14</ele><time>2026-09-02T22:02:55Z</time></trkpt><trkpt lat="59.5584726334" lon="31.2640428543"><ele>0.14</ele><time>2026-09-02T22:02:58Z</time></trkpt><trkpt lat="59.5584940910" lon="31.2640213966"><ele>0.14</ele><time>2026-09-02T22:03:00Z</time></trkpt><trkpt lat="59.5584940910" lon="31.2639999390"><ele>0.14</ele><time>2026-09-02T22:03:03Z</time></trkpt><trkpt lat="59.5585155487" lon="31.2639570236"><ele>0.14</ele><time>2026-09-02T22:03:05Z</time></trkpt><trkpt lat="59.5585155487" lon="31.2639355659"><ele>0.14</ele><time>2026-09-02T22:03:08Z</time></trkpt><trkpt lat="59.5585155487" lon="31.2639355659"><ele>0.14</ele><time>2026-09-02T22:03:10Z</time></trkpt><trkpt lat="59.5584940910" lon="31.2639355659"><ele>0.14</ele><time>2026-09-02T22:03:13Z</time></trkpt><trkpt lat="59.5584940910" lon="31.2639141083"><ele>0.14</ele><time>2026-09-02T22:03:15Z</time></trkpt><trkpt lat="59.5585155487" lon="31.2638497353"><ele>0.14</ele><time>2026-09-02T22:03:18Z</time></trkpt><trkpt lat="59.5585155487" lon="31.2638068199"><ele>0.14</ele><time>2026-09-02T22:03:20Z</time></trkpt><trkpt lat="59.5585155487" lon="31.2637853622"><ele>0.14</ele><time>2026-09-02T22:03:23Z</time></trkpt><trkpt lat="59.5585155487" lon="31.2637424469"><ele>0.14</ele><time>2026-09-02T22:03:25Z</time></trkpt><trkpt lat="59.5585155487" lon="31.2636780739"><ele>0.14</ele><time>2026-09-02T22:03:28Z</time></trkpt><trkpt lat="59.5585155487" lon="31.2636351585"><ele>0.14</ele><time>2026-09-02T22:03:30Z</time></trkpt><trkpt lat="59.5585155487" lon="31.2636137009"><ele>0.14</ele><time>2026-09-02T22:03:33Z</time></trkpt><trkpt lat="59.5585155487" lon="31.2635707855"><ele>0.14</ele><time>2026-09-02T22:03:35Z</time></trkpt><trkpt lat="59.5585370064" lon="31.2635707855"><ele>0.14</ele><time>2026-09-02T22:03:38Z</time></trkpt><trkpt lat="59.5585370064" lon="31.2635493279"><ele>0.14</ele><time>2026-09-02T22:03:40Z</time></trkpt><trkpt lat="59.5585370064" lon="31.2635278702"><ele>0.14</ele><time>2026-09-02T22:03:43Z</time></trkpt><trkpt lat="59.5585370064" lon="31.2635064125"><ele>0.14</ele><time>2026-09-02T22:03:45Z</time></trkpt><trkpt lat="59.5585370064" lon="31.2634849548"><ele>0.14</ele><time>2026-09-02T22:03:48Z</time></trkpt><trkpt lat="59.5585584641" lon="31.2634634972"><ele>0.14</ele><time>2026-09-02T22:03:50Z</time></trkpt><trkpt lat="59.5585584641" lon="31.2634420395"><ele>0.14</ele><time>2026-09-02T22:03:53Z</time></trkpt><trkpt lat="59.5585584641" lon="31.2634420395"><ele>0.14</ele><time>2026-09-02T22:03:55Z</time></trkpt><trkpt lat="59.5585799217" lon="31.2634205818"><ele>0.14</ele><time>2026-09-02T22:03:58Z</time></trkpt><trkpt lat="59.5585799217" lon="31.2634205818"><ele>0.14</ele><time>2026-09-02T22:04:00Z</time></trkpt><trkpt lat="59.5585799217" lon="31.2634420395"><ele>0.14</ele><time>2026-09-02T22:04:03Z</time></trkpt><trkpt lat="59.5585799217" lon="31.2634420395"><ele>0.14</ele><time>2026-09-02T22:04:05Z</time></trkpt><trkpt lat="59.5585584641" lon="31.2634420395"><ele>0.14</ele><time>2026-09-02T22:04:08Z</time></trkpt><trkpt lat="59.5585584641" lon="31.2634420395"><ele>0.14</ele><time>2026-09-02T22:04:10Z</time></trkpt><trkpt lat="59.5585370064" lon="31.2634420395"><ele>0.14</ele><time>2026-09-02T22:04:13Z</time></trkpt><trkpt lat="59.5585155487" lon="31.2634205818"><ele>0.14</ele><time>2026-09-02T22:04:15Z</time></trkpt><trkpt lat="59.5585155487" lon="31.2633991241"><ele>0.14</ele><time>2026-09-02T22:04:18Z</time></trkpt><trkpt lat="59.5585155487" lon="31.2633991241"><ele>0.14</ele><time>2026-09-02T22:04:20Z</time></trkpt><trkpt lat="59.5585155487" lon="31.2634205818"><ele>0.14</ele><time>2026-09-02T22:04:23Z</time></trkpt><trkpt lat="59.5585155487" lon="31.2634205818"><ele>0.14</ele><time>2026-09-02T22:04:25Z</time></trkpt><trkpt lat="59.5585155487" lon="31.2634420395"><ele>0.14</ele><time>2026-09-02T22:04:28Z</time></trkpt><trkpt lat="59.5585155487" lon="31.2634634972"><ele>0.14</ele><time>2026-09-02T22:04:30Z</time></trkpt><trkpt lat="59.5585370064" lon="31.2634634972"><ele>0.14</ele><time>2026-09-02T22:04:33Z</time></trkpt><trkpt lat="59.5585155487" lon="31.2634849548"><ele>0.14</ele><time>2026-09-02T22:04:35Z</time></trkpt><trkpt lat="59.5585370064" lon="31.2634849548"><ele>0.14</ele><time>2026-09-02T22:04:38Z</time></trkpt><trkpt lat="59.5585155487" lon="31.2635064125"><ele>0.14</ele><time>2026-09-02T22:04:40Z</time></trkpt><trkpt lat="59.5585155487" lon="31.2635064125"><ele>0.14</ele><time>2026-09-02T22:04:43Z</time></trkpt><trkpt lat="59.5584940910" lon="31.2635064125"><ele>0.14</ele><time>2026-09-02T22:04:45Z</time></trkpt><trkpt lat="59.5584940910" lon="31.2635064125"><ele>0.14</ele><time>2026-09-02T22:04:48Z</time></trkpt><trkpt lat="59.5584940910" lon="31.2635064125"><ele>0.14</ele><time>2026-09-02T22:04:50Z</time></trkpt><trkpt lat="59.5584940910" lon="31.2635064125"><ele>0.14</ele><time>2026-09-02T22:04:53Z</time></trkpt><trkpt lat="59.5584940910" lon="31.2635064125"><ele>0.14</ele><time>2026-09-02T22:04:55Z</time></trkpt><trkpt lat="59.5584940910" lon="31.2635064125"><ele>0.14</ele><time>2026-09-02T22:04:58Z</time></trkpt><trkpt lat="59.5584940910" lon="31.2635278702"><ele>0.14</ele><time>2026-09-02T22:05:00Z</time></trkpt><trkpt lat="59.5584940910" lon="31.2635278702"><ele>0.14</ele><time>2026-09-02T22:05:03Z</time></trkpt><trkpt lat="59.5584940910" lon="31.2635278702"><ele>0.14</ele><time>2026-09-02T22:05:05Z</time></trkpt><trkpt lat="59.5584940910" lon="31.2635278702"><ele>0.14</ele><time>2026-09-02T22:05:08Z</time></trkpt><trkpt lat="59.5584940910" lon="31.2635278702"><ele>0.14</ele><time>2026-09-02T22:05:10Z</time></trkpt><trkpt lat="59.5584940910" lon="31.2635278702"><ele>0.14</ele><time>2026-09-02T22:05:13Z</time></trkpt><trkpt lat="59.5585155487" lon="31.2635278702"><ele>0.14</ele><time>2026-09-02T22:05:15Z</time></trkpt><trkpt lat="59.5585155487" lon="31.2635278702"><ele>0.14</ele><time>2026-09-02T22:05:18Z</time></trkpt><trkpt lat="59.5585155487" lon="31.2635278702"><ele>0.14</ele><time>2026-09-02T22:05:20Z</time></trkpt><trkpt lat="59.5585155487" lon="31.2635278702"><ele>0.14</ele><time>2026-09-02T22:05:23Z</time></trkpt><trkpt lat="59.5585370064" lon="31.2635278702"><ele>0.14</ele><time>2026-09-02T22:05:25Z</time></trkpt><trkpt lat="59.5585584641" lon="31.2635064125"><ele>0.14</ele><time>2026-09-02T22:05:28Z</time></trkpt><trkpt lat="59.5585584641" lon="31.2635064125"><ele>0.14</ele><time>2026-09-02T22:05:30Z</time></trkpt><trkpt lat="59.5585584641" lon="31.2634849548"><ele>0.14</ele><time>2026-09-02T22:05:33Z</time></trkpt><trkpt lat="59.5586013794" lon="31.2634849548"><ele>0.14</ele><time>2026-09-02T22:05:35Z</time></trkpt><trkpt lat="59.5586442947" lon="31.2634849548"><ele>0.14</ele><time>2026-09-02T22:05:38Z</time></trkpt><trkpt lat="59.5586657524" lon="31.2635064125"><ele>0.14</ele><time>2026-09-02T22:05:40Z</time></trkpt><trkpt lat="59.5587086678" lon="31.2635064125"><ele>0.14</ele><time>2026-09-02T22:05:43Z</time></trkpt><trkpt lat="59.5587086678" lon="31.2635064125"><ele>0.14</ele><time>2026-09-02T22:05:45Z</time></trkpt><trkpt lat="59.5587086678" lon="31.2635064125"><ele>0.14</ele><time>2026-09-02T22:05:48Z</time></trkpt><trkpt lat="59.5586872101" lon="31.2635064125"><ele>0.14</ele><time>2026-09-02T22:05:50Z</time></trkpt><trkpt lat="59.5587086678" lon="31.2635278702"><ele>0.14</ele><time>2026-09-02T22:05:53Z</time></trkpt><trkpt lat="59.5587086678" lon="31.2635493279"><ele>0.14</ele><time>2026-09-02T22:05:55Z</time></trkpt><trkpt lat="59.5586872101" lon="31.2635493279"><ele>0.14</ele><time>2026-09-02T22:05:58Z</time></trkpt><trkpt lat="59.5586872101" lon="31.2635707855"><ele>0.14</ele><time>2026-09-02T22:06:00Z</time></trkpt><trkpt lat="59.5587086678" lon="31.2635922432"><ele>0.14</ele><time>2026-09-02T22:06:03Z</time></trkpt><trkpt lat="59.5586872101" lon="31.2635493279"><ele>0.14</ele><time>2026-09-02T22:06:05Z</time></trkpt><trkpt lat="59.5587086678" lon="31.2635278702"><ele>0.14</ele><time>2026-09-02T22:06:08Z</time></trkpt><trkpt lat="59.5587515831" lon="31.2635278702"><ele>0.14</ele><time>2026-09-02T22:06:10Z</time></trkpt><trkpt lat="59.5587515831" lon="31.2635278702"><ele>0.14</ele><time>2026-09-02T22:06:13Z</time></trkpt><trkpt lat="59.5587730408" lon="31.2635278702"><ele>0.14</ele><time>2026-09-02T22:06:15Z</time></trkpt><trkpt lat="59.5587944984" lon="31.2635064125"><ele>0.14</ele><time>2026-09-02T22:06:18Z</time></trkpt><trkpt lat="59.5588159561" lon="31.2635064125"><ele>0.14</ele><time>2026-09-02T22:06:20Z</time></trkpt><trkpt lat="59.5588374138" lon="31.2634634972"><ele>0.14</ele><time>2026-09-02T22:06:23Z</time></trkpt><trkpt lat="59.5588374138" lon="31.2634420395"><ele>0.14</ele><time>2026-09-02T22:06:25Z</time></trkpt><trkpt lat="59.5588159561" lon="31.2634634972"><ele>0.14</ele><time>2026-09-02T22:06:28Z</time></trkpt><trkpt lat="59.5588159561" lon="31.2634634972"><ele>0.14</ele><time>2026-09-02T22:06:30Z</time></trkpt><trkpt lat="59.5588159561" lon="31.2634420395"><ele>0.14</ele><time>2026-09-02T22:06:33Z</time></trkpt><trkpt lat="59.5588159561" lon="31.2634205818"><ele>0.14</ele><time>2026-09-02T22:06:35Z</time></trkpt><trkpt lat="59.5588588715" lon="31.2633347511"><ele>0.14</ele><time>2026-09-02T22:06:38Z</time></trkpt><trkpt lat="59.5588803291" lon="31.2632489204"><ele>0.14</ele><time>2026-09-02T22:06:40Z</time></trkpt><trkpt lat="59.5589017868" lon="31.2631845474"><ele>0.14</ele><time>2026-09-02T22:06:43Z</time></trkpt><trkpt lat="59.5589232445" lon="31.2631845474"><ele>0.14</ele><time>2026-09-02T22:06:45Z</time></trkpt><trkpt lat="59.5589232445" lon="31.2631416321"><ele>0.14</ele><time>2026-09-02T22:06:48Z</time></trkpt><trkpt lat="59.5589447021" lon="31.2630987167"><ele>0.14</ele><time>2026-09-02T22:06:50Z</time></trkpt><trkpt lat="59.5589661598" lon="31.2630987167"><ele>0.14</ele><time>2026-09-02T22:06:53Z</time></trkpt><trkpt lat="59.5590090752" lon="31.2630987167"><ele>0.14</ele><time>2026-09-02T22:06:55Z</time></trkpt><trkpt lat="59.5590090752" lon="31.2630772591"><ele>0.14</ele><time>2026-09-02T22:06:58Z</time></trkpt><trkpt lat="59.5590305328" lon="31.2630128860"><ele>0.14</ele><time>2026-09-02T22:07:00Z</time></trkpt><trkpt lat="59.5590519905" lon="31.2630128860"><ele>0.14</ele><time>2026-09-02T22:07:03Z</time></trkpt><trkpt lat="59.5590519905" lon="31.2629914284"><ele>0.14</ele><time>2026-09-02T22:07:05Z</time></trkpt><trkpt lat="59.5590734482" lon="31.2629485130"><ele>0.14</ele><time>2026-09-02T22:07:08Z</time></trkpt><trkpt lat="59.5590949059" lon="31.2629270554"><ele>0.14</ele><time>2026-09-02T22:07:10Z</time></trkpt><trkpt lat="59.5591378212" lon="31.2628412247"><ele>0.14</ele><time>2026-09-02T22:07:13Z</time></trkpt><trkpt lat="59.5591807365" lon="31.2627553940"><ele>0.14</ele><time>2026-09-02T22:07:15Z</time></trkpt><trkpt lat="59.5592021942" lon="31.2626910210"><ele>0.14</ele><time>2026-09-02T22:07:18Z</time></trkpt><trkpt lat="59.5591807365" lon="31.2626266479"><ele>0.14</ele><time>2026-09-02T22:07:20Z</time></trkpt><trkpt lat="59.5591592789" lon="31.2626051903"><ele>0.14</ele><time>2026-09-02T22:07:23Z</time></trkpt><trkpt lat="59.5591592789" lon="31.2625837326"><ele>0.14</ele><time>2026-09-02T22:07:25Z</time></trkpt><trkpt lat="59.5591378212" lon="31.2625837326"><ele>0.14</ele><time>2026-09-02T22:07:28Z</time></trkpt><trkpt lat="59.5591378212" lon="31.2625837326"><ele>0.14</ele><time>2026-09-02T22:07:30Z</time></trkpt><trkpt lat="59.5591378212" lon="31.2625622749"><ele>0.14</ele><time>2026-09-02T22:07:33Z</time></trkpt><trkpt lat="59.5591592789" lon="31.2625408173"><ele>0.14</ele><time>2026-09-02T22:07:35Z</time></trkpt><trkpt lat="59.5591592789" lon="31.2625193596"><ele>0.14</ele><time>2026-09-02T22:07:38Z</time></trkpt><trkpt lat="59.5591378212" lon="31.2625193596"><ele>0.14</ele><time>2026-09-02T22:07:40Z</time></trkpt><trkpt lat="59.5591592789" lon="31.2624979019"><ele>0.14</ele><time>2026-09-02T22:07:43Z</time></trkpt><trkpt lat="59.5591807365" lon="31.2624549866"><ele>0.14</ele><time>2026-09-02T22:07:45Z</time></trkpt><trkpt lat="59.5591807365" lon="31.2624335289"><ele>0.14</ele><time>2026-09-02T22:07:48Z</time></trkpt><trkpt lat="59.5591592789" lon="31.2623906136"><ele>0.14</ele><time>2026-09-02T22:07:50Z</time></trkpt><trkpt lat="59.5591807365" lon="31.2623691559"><ele>0.14</ele><time>2026-09-02T22:07:53Z</time></trkpt><trkpt lat="59.5592021942" lon="31.2623047829"><ele>0.14</ele><time>2026-09-02T22:07:55Z</time></trkpt><trkpt lat="59.5592236519" lon="31.2622404099"><ele>0.14</ele><time>2026-09-02T22:07:58Z</time></trkpt><trkpt lat="59.5592451096" lon="31.2622189522"><ele>0.14</ele><time>2026-09-02T22:08:00Z</time></trkpt><trkpt lat="59.5592451096" lon="31.2621760368"><ele>0.14</ele><time>2026-09-02T22:08:03Z</time></trkpt><trkpt lat="59.5592665672" lon="31.2621116638"><ele>0.14</ele><time>2026-09-02T22:08:05Z</time></trkpt><trkpt lat="59.5592665672" lon="31.2620902061"><ele>0.14</ele><time>2026-09-02T22:08:08Z</time></trkpt><trkpt lat="59.5592880249" lon="31.2620472908"><ele>0.14</ele><time>2026-09-02T22:08:10Z</time></trkpt><trkpt lat="59.5593094826" lon="31.2620472908"><ele>0.14</ele><time>2026-09-02T22:08:13Z</time></trkpt><trkpt lat="59.5593094826" lon="31.2620687485"><ele>0.14</ele><time>2026-09-02T22:08:15Z</time></trkpt><trkpt lat="59.5593523979" lon="31.2620687485"><ele>0.14</ele><time>2026-09-02T22:08:18Z</time></trkpt><trkpt lat="59.5593738556" lon="31.2620472908"><ele>0.14</ele><time>2026-09-02T22:08:20Z</time></trkpt><trkpt lat="59.5593738556" lon="31.2620472908"><ele>0.14</ele><time>2026-09-02T22:08:23Z</time></trkpt><trkpt lat="59.5593523979" lon="31.2620472908"><ele>0.14</ele><time>2026-09-02T22:08:25Z</time></trkpt><trkpt lat="59.5593523979" lon="31.2620472908"><ele>0.14</ele><time>2026-09-02T22:08:28Z</time></trkpt><trkpt lat="59.5593738556" lon="31.2620258331"><ele>0.14</ele><time>2026-09-02T22:08:30Z</time></trkpt><trkpt lat="59.5593953133" lon="31.2620258331"><ele>0.14</ele><time>2026-09-02T22:08:33Z</time></trkpt><trkpt lat="59.5594382286" lon="31.2620258331"><ele>0.14</ele><time>2026-09-02T22:08:35Z</time></trkpt><trkpt lat="59.5594382286" lon="31.2620258331"><ele>0.14</ele><time>2026-09-02T22:08:38Z</time></trkpt><trkpt lat="59.5594596863" lon="31.2620472908"><ele>0.14</ele><time>2026-09-02T22:08:40Z</time></trkpt><trkpt lat="59.5594811440" lon="31.2621116638"><ele>0.14</ele><time>2026-09-02T22:08:43Z</time></trkpt><trkpt lat="59.5595026016" lon="31.2621760368"><ele>0.14</ele><time>2026-09-02T22:08:45Z</time></trkpt><trkpt lat="59.5595669746" lon="31.2622404099"><ele>0.14</ele><time>2026-09-02T22:08:48Z</time></trkpt><trkpt lat="59.5595884323" lon="31.2622833252"><ele>0.14</ele><time>2026-09-02T22:08:50Z</time></trkpt><trkpt lat="59.5595669746" lon="31.2623476982"><ele>0.14</ele><time>2026-09-02T22:08:53Z</time></trkpt><trkpt lat="59.5595455170" lon="31.2623691559"><ele>0.14</ele><time>2026-09-02T22:08:55Z</time></trkpt><trkpt lat="59.5595240593" lon="31.2623906136"><ele>0.14</ele><time>2026-09-02T22:08:58Z</time></trkpt><trkpt lat="59.5595240593" lon="31.2624120712"><ele>0.14</ele><time>2026-09-02T22:09:00Z</time></trkpt><trkpt lat="59.5595240593" lon="31.2624335289"><ele>0.14</ele><time>2026-09-02T22:09:03Z</time></trkpt><trkpt lat="59.5595026016" lon="31.2624549866"><ele>0.14</ele><time>2026-09-02T22:09:05Z</time></trkpt><trkpt lat="59.5595026016" lon="31.2624549866"><ele>0.14</ele><time>2026-09-02T22:09:08Z</time></trkpt><trkpt lat="59.5595026016" lon="31.2624549866"><ele>0.14</ele><time>2026-09-02T22:09:10Z</time></trkpt><trkpt lat="59.5595026016" lon="31.2624335289"><ele>0.14</ele><time>2026-09-02T22:09:13Z</time></trkpt><trkpt lat="59.5595026016" lon="31.2624335289"><ele>0.14</ele><time>2026-09-02T22:09:15Z</time></trkpt><trkpt lat="59.5594811440" lon="31.2624335289"><ele>0.14</ele><time>2026-09-02T22:09:18Z</time></trkpt><trkpt lat="59.5594811440" lon="31.2624335289"><ele>0.14</ele><time>2026-09-02T22:09:20Z</time></trkpt><trkpt lat="59.5594811440" lon="31.2624120712"><ele>0.14</ele><time>2026-09-02T22:09:23Z</time></trkpt><trkpt lat="59.5594596863" lon="31.2623906136"><ele>0.14</ele><time>2026-09-02T22:09:25Z</time></trkpt><trkpt lat="59.5594596863" lon="31.2623906136"><ele>0.14</ele><time>2026-09-02T22:09:28Z</time></trkpt><trkpt lat="59.5594596863" lon="31.2623906136"><ele>0.14</ele><time>2026-09-02T22:09:30Z</time></trkpt><trkpt lat="59.5594596863" lon="31.2624120712"><ele>0.14</ele><time>2026-09-02T22:09:33Z</time></trkpt><trkpt lat="59.5594596863" lon="31.2624120712"><ele>0.14</ele><time>2026-09-02T22:09:35Z</time></trkpt><trkpt lat="59.5594596863" lon="31.2624120712"><ele>0.14</ele><time>2026-09-02T22:09:38Z</time></trkpt><trkpt lat="59.5594596863" lon="31.2624335289"><ele>0.14</ele><time>2026-09-02T22:09:40Z</time></trkpt><trkpt lat="59.5594596863" lon="31.2624549866"><ele>0.14</ele><time>2026-09-02T22:09:43Z</time></trkpt><trkpt lat="59.5594596863" lon="31.2624335289"><ele>0.14</ele><time>2026-09-02T22:09:45Z</time></trkpt><trkpt lat="59.5594596863" lon="31.2624335289"><ele>0.14</ele><time>2026-09-02T22:09:48Z</time></trkpt><trkpt lat="59.5594596863" lon="31.2624335289"><ele>0.14</ele><time>2026-09-02T22:09:50Z</time></trkpt><trkpt lat="59.5594811440" lon="31.2624335289"><ele>0.14</ele><time>2026-09-02T22:09:53Z</time></trkpt><trkpt lat="59.5594811440" lon="31.2624549866"><ele>0.14</ele><time>2026-09-02T22:09:55Z</time></trkpt><trkpt lat="59.5594811440" lon="31.2624764442"><ele>0.14</ele><time>2026-09-02T22:09:58Z</time></trkpt><trkpt lat="59.5595026016" lon="31.2624764442"><ele>0.14</ele><time>2026-09-02T22:10:00Z</time></trkpt><trkpt lat="59.5595026016" lon="31.2624549866"><ele>0.14</ele><time>2026-09-02T22:10:03Z</time></trkpt><trkpt lat="59.5595026016" lon="31.2624549866"><ele>0.14</ele><time>2026-09-02T22:10:05Z</time></trkpt><trkpt lat="59.5595026016" lon="31.2624120712"><ele>0.14</ele><time>2026-09-02T22:10:08Z</time></trkpt><trkpt lat="59.5595026016" lon="31.2623691559"><ele>0.14</ele><time>2026-09-02T22:10:10Z</time></trkpt><trkpt lat="59.5594811440" lon="31.2623476982"><ele>0.14</ele><time>2026-09-02T22:10:13Z</time></trkpt><trkpt lat="59.5594382286" lon="31.2623262405"><ele>0.14</ele><time>2026-09-02T22:10:15Z</time></trkpt><trkpt lat="59.5594167709" lon="31.2623262405"><ele>0.14</ele><time>2026-09-02T22:10:18Z</time></trkpt><trkpt lat="59.5594167709" lon="31.2623476982"><ele>0.14</ele><time>2026-09-02T22:10:20Z</time></trkpt><trkpt lat="59.5594167709" lon="31.2623476982"><ele>0.14</ele><time>2026-09-02T22:10:23Z</time></trkpt><trkpt lat="59.5593953133" lon="31.2623476982"><ele>0.14</ele><time>2026-09-02T22:10:25Z</time></trkpt><trkpt lat="59.5593738556" lon="31.2623262405"><ele>0.14</ele><time>2026-09-02T22:10:28Z</time></trkpt><trkpt lat="59.5593523979" lon="31.2622618675"><ele>0.14</ele><time>2026-09-02T22:10:30Z</time></trkpt><trkpt lat="59.5593094826" lon="31.2621974945"><ele>0.14</ele><time>2026-09-02T22:10:33Z</time></trkpt><trkpt lat="59.5592880249" lon="31.2621116638"><ele>0.14</ele><time>2026-09-02T22:10:35Z</time></trkpt><trkpt lat="59.5592451096" lon="31.2620472908"><ele>0.14</ele><time>2026-09-02T22:10:38Z</time></trkpt><trkpt lat="59.5592236519" lon="31.2620043755"><ele>0.14</ele><time>2026-09-02T22:10:40Z</time></trkpt><trkpt lat="59.5592236519" lon="31.2619614601"><ele>0.14</ele><time>2026-09-02T22:10:43Z</time></trkpt><trkpt lat="59.5592236519" lon="31.2618970871"><ele>0.14</ele><time>2026-09-02T22:10:45Z</time></trkpt><trkpt lat="59.5592236519" lon="31.2618970871"><ele>0.14</ele><time>2026-09-02T22:10:48Z</time></trkpt><trkpt lat="59.5592021942" lon="31.2618970871"><ele>0.14</ele><time>2026-09-02T22:10:50Z</time></trkpt><trkpt lat="59.5591807365" lon="31.2618970871"><ele>0.14</ele><time>2026-09-02T22:10:53Z</time></trkpt><trkpt lat="59.5591807365" lon="31.2618756294"><ele>0.14</ele><time>2026-09-02T22:10:55Z</time></trkpt><trkpt lat="59.5591592789" lon="31.2617897987"><ele>0.14</ele><time>2026-09-02T22:10:58Z</time></trkpt><trkpt lat="59.5591592789" lon="31.2617683411"><ele>0.14</ele><time>2026-09-02T22:11:00Z</time></trkpt><trkpt lat="59.5591592789" lon="31.2617254257"><ele>0.14</ele><time>2026-09-02T22:11:03Z</time></trkpt><trkpt lat="59.5591378212" lon="31.2617254257"><ele>0.14</ele><time>2026-09-02T22:11:05Z</time></trkpt><trkpt lat="59.5591163635" lon="31.2617254257"><ele>0.14</ele><time>2026-09-02T22:11:08Z</time></trkpt><trkpt lat="59.5590949059" lon="31.2617468834"><ele>0.14</ele><time>2026-09-02T22:11:10Z</time></trkpt><trkpt lat="59.5590519905" lon="31.2617254257"><ele>0.14</ele><time>2026-09-02T22:11:13Z</time></trkpt><trkpt lat="59.5590305328" lon="31.2616610527"><ele>0.14</ele><time>2026-09-02T22:11:15Z</time></trkpt><trkpt lat="59.5590305328" lon="31.2615537643"><ele>0.14</ele><time>2026-09-02T22:11:18Z</time></trkpt><trkpt lat="59.5590519905" lon="31.2615108490"><ele>0.14</ele><time>2026-09-02T22:11:20Z</time></trkpt><trkpt lat="59.5590519905" lon="31.2615323067"><ele>0.14</ele><time>2026-09-02T22:11:23Z</time></trkpt><trkpt lat="59.5590734482" lon="31.2615537643"><ele>0.14</ele><time>2026-09-02T22:11:25Z</time></trkpt><trkpt lat="59.5590734482" lon="31.2615537643"><ele>0.14</ele><time>2026-09-02T22:11:28Z</time></trkpt><trkpt lat="59.5590734482" lon="31.2615752220"><ele>0.14</ele><time>2026-09-02T22:11:30Z</time></trkpt><trkpt lat="59.5590734482" lon="31.2615752220"><ele>0.14</ele><time>2026-09-02T22:11:33Z</time></trkpt><trkpt lat="59.5590734482" lon="31.2615752220"><ele>0.14</ele><time>2026-09-02T22:11:35Z</time></trkpt><trkpt lat="59.5590734482" lon="31.2615752220"><ele>0.14</ele><time>2026-09-02T22:11:38Z</time></trkpt><trkpt lat="59.5590734482" lon="31.2615752220"><ele>0.14</ele><time>2026-09-02T22:11:40Z</time></trkpt><trkpt lat="59.5590734482" lon="31.2615752220"><ele>0.14</ele><time>2026-09-02T22:11:43Z</time></trkpt><trkpt lat="59.5590734482" lon="31.2615752220"><ele>0.14</ele><time>2026-09-02T22:11:45Z</time></trkpt><trkpt lat="59.5590734482" lon="31.2615537643"><ele>0.14</ele><time>2026-09-02T22:11:48Z</time></trkpt><trkpt lat="59.5590734482" lon="31.2615537643"><ele>0.14</ele><time>2026-09-02T22:11:50Z</time></trkpt><trkpt lat="59.5590734482" lon="31.2615537643"><ele>0.14</ele><time>2026-09-02T22:11:53Z</time></trkpt><trkpt lat="59.5590734482" lon="31.2615537643"><ele>0.14</ele><time>2026-09-02T22:11:55Z</time></trkpt><trkpt lat="59.5590734482" lon="31.2615752220"><ele>0.14</ele><time>2026-09-02T22:11:58Z</time></trkpt><trkpt lat="59.5590734482" lon="31.2615752220"><ele>0.14</ele><time>2026-09-02T22:12:00Z</time></trkpt><trkpt lat="59.5590519905" lon="31.2615752220"><ele>0.14</ele><time>2026-09-02T22:12:03Z</time></trkpt><trkpt lat="59.5590519905" lon="31.2615752220"><ele>0.14</ele><time>2026-09-02T22:12:05Z</time></trkpt><trkpt lat="59.5590519905" lon="31.2615752220"><ele>0.14</ele><time>2026-09-02T22:12:08Z</time></trkpt><trkpt lat="59.5590519905" lon="31.2615752220"><ele>0.14</ele><time>2026-09-02T22:12:10Z</time></trkpt><trkpt lat="59.5590519905" lon="31.2615752220"><ele>0.14</ele><time>2026-09-02T22:12:13Z</time></trkpt><trkpt lat="59.5590519905" lon="31.2615752220"><ele>0.14</ele><time>2026-09-02T22:12:15Z</time></trkpt><trkpt lat="59.5590519905" lon="31.2615752220"><ele>0.14</ele><time>2026-09-02T22:12:18Z</time></trkpt><trkpt lat="59.5590519905" lon="31.2615752220"><ele>0.14</ele><time>2026-09-02T22:12:20Z</time></trkpt><trkpt lat="59.5590519905" lon="31.2615752220"><ele>0.14</ele><time>2026-09-02T22:12:23Z</time></trkpt><trkpt lat="59.5590519905" lon="31.2615752220"><ele>0.14</ele><time>2026-09-02T22:12:25Z</time></trkpt><trkpt lat="59.5590519905" lon="31.2615752220"><ele>0.14</ele><time>2026-09-02T22:12:28Z</time></trkpt><trkpt lat="59.5590519905" lon="31.2615752220"><ele>0.14</ele><time>2026-09-02T22:12:30Z</time></trkpt><trkpt lat="59.5590734482" lon="31.2615752220"><ele>0.14</ele><time>2026-09-02T22:12:33Z</time></trkpt><trkpt lat="59.5590734482" lon="31.2615752220"><ele>0.14</ele><time>2026-09-02T22:12:35Z</time></trkpt><trkpt lat="59.5590734482" lon="31.2615752220"><ele>0.14</ele><time>2026-09-02T22:12:38Z</time></trkpt><trkpt lat="59.5590734482" lon="31.2615752220"><ele>0.14</ele><time>2026-09-02T22:12:40Z</time></trkpt><trkpt lat="59.5590734482" lon="31.2615752220"><ele>0.14</ele><time>2026-09-02T22:12:43Z</time></trkpt><trkpt lat="59.5590734482" lon="31.2615752220"><ele>0.14</ele><time>2026-09-02T22:12:45Z</time></trkpt><trkpt lat="59.5590734482" lon="31.2615752220"><ele>0.14</ele><time>2026-09-02T22:12:48Z</time></trkpt><trkpt lat="59.5590734482" lon="31.2615752220"><ele>0.14</ele><time>2026-09-02T22:12:50Z</time></trkpt><trkpt lat="59.5590734482" lon="31.2615752220"><ele>0.14</ele><time>2026-09-02T22:12:53Z</time></trkpt><trkpt lat="59.5590734482" lon="31.2615752220"><ele>0.14</ele><time>2026-09-02T22:12:55Z</time></trkpt><trkpt lat="59.5590734482" lon="31.2615752220"><ele>0.14</ele><time>2026-09-02T22:12:58Z</time></trkpt><trkpt lat="59.5590734482" lon="31.2615752220"><ele>0.14</ele><time>2026-09-02T22:13:00Z</time></trkpt><trkpt lat="59.5590734482" lon="31.2615752220"><ele>0.14</ele><time>2026-09-02T22:13:03Z</time></trkpt><trkpt lat="59.5590734482" lon="31.2615537643"><ele>0.14</ele><time>2026-09-02T22:13:05Z</time></trkpt><trkpt lat="59.5590734482" lon="31.2615537643"><ele>0.14</ele><time>2026-09-02T22:13:08Z</time></trkpt><trkpt lat="59.5590734482" lon="31.2615537643"><ele>0.14</ele><time>2026-09-02T22:13:10Z</time></trkpt><trkpt lat="59.5590734482" lon="31.2615537643"><ele>0.14</ele><time>2026-09-02T22:13:13Z</time></trkpt><trkpt lat="59.5590734482" lon="31.2615537643"><ele>0.14</ele><time>2026-09-02T22:13:15Z</time></trkpt><trkpt lat="59.5590734482" lon="31.2615537643"><ele>0.14</ele><time>2026-09-02T22:13:18Z</time></trkpt><trkpt lat="59.5590734482" lon="31.2615537643"><ele>0.14</ele><time>2026-09-02T22:13:20Z</time></trkpt><trkpt lat="59.5590734482" lon="31.2615537643"><ele>0.14</ele><time>2026-09-02T22:13:23Z</time></trkpt><trkpt lat="59.5590734482" lon="31.2615537643"><ele>0.14</ele><time>2026-09-02T22:13:25Z</time></trkpt><trkpt lat="59.5590734482" lon="31.2615537643"><ele>0.14</ele><time>2026-09-02T22:13:28Z</time></trkpt><trkpt lat="59.5590734482" lon="31.2615537643"><ele>0.14</ele><time>2026-09-02T22:13:30Z</time></trkpt><trkpt lat="59.5590734482" lon="31.2615537643"><ele>0.14</ele><time>2026-09-02T22:13:33Z</time></trkpt><trkpt lat="59.5590734482" lon="31.2615537643"><ele>0.14</ele><time>2026-09-02T22:13:35Z</time></trkpt><trkpt lat="59.5590734482" lon="31.2615537643"><ele>0.14</ele><time>2026-09-02T22:13:38Z</time></trkpt><trkpt lat="59.5590519905" lon="31.2615537643"><ele>0.14</ele><time>2026-09-02T22:13:40Z</time></trkpt><trkpt lat="59.5590519905" lon="31.2615537643"><ele>0.14</ele><time>2026-09-02T22:13:43Z</time></trkpt><trkpt lat="59.5590519905" lon="31.2615537643"><ele>0.14</ele><time>2026-09-02T22:13:45Z</time></trkpt><trkpt lat="59.5590519905" lon="31.2615537643"><ele>0.14</ele><time>2026-09-02T22:13:48Z</time></trkpt><trkpt lat="59.5590519905" lon="31.2615537643"><ele>0.14</ele><time>2026-09-02T22:13:50Z</time></trkpt><trkpt lat="59.5590519905" lon="31.2615537643"><ele>0.14</ele><time>2026-09-02T22:13:53Z</time></trkpt><trkpt lat="59.5590519905" lon="31.2615323067"><ele>0.14</ele><time>2026-09-02T22:13:55Z</time></trkpt><trkpt lat="59.5590519905" lon="31.2615323067"><ele>0.14</ele><time>2026-09-02T22:13:58Z</time></trkpt><trkpt lat="59.5590519905" lon="31.2615323067"><ele>0.14</ele><time>2026-09-02T22:14:00Z</time></trkpt><trkpt lat="59.5590734482" lon="31.2615323067"><ele>0.14</ele><time>2026-09-02T22:14:03Z</time></trkpt><trkpt lat="59.5590734482" lon="31.2615108490"><ele>0.14</ele><time>2026-09-02T22:14:05Z</time></trkpt><trkpt lat="59.5590734482" lon="31.2614893913"><ele>0.14</ele><time>2026-09-02T22:14:08Z</time></trkpt><trkpt lat="59.5590734482" lon="31.2614893913"><ele>0.14</ele><time>2026-09-02T22:14:10Z</time></trkpt><trkpt lat="59.5590734482" lon="31.2614679337"><ele>0.14</ele><time>2026-09-02T22:14:13Z</time></trkpt><trkpt lat="59.5590734482" lon="31.2614679337"><ele>0.14</ele><time>2026-09-02T22:14:15Z</time></trkpt><trkpt lat="59.5590734482" lon="31.2614679337"><ele>0.14</ele><time>2026-09-02T22:14:18Z</time></trkpt><trkpt lat="59.5590734482" lon="31.2614679337"><ele>0.14</ele><time>2026-09-02T22:14:20Z</time></trkpt><trkpt lat="59.5590734482" lon="31.2614679337"><ele>0.14</ele><time>2026-09-02T22:14:23Z</time></trkpt><trkpt lat="59.5590734482" lon="31.2614679337"><ele>0.14</ele><time>2026-09-02T22:14:25Z</time></trkpt><trkpt lat="59.5590519905" lon="31.2614679337"><ele>0.14</ele><time>2026-09-02T22:14:28Z</time></trkpt><trkpt lat="59.5590519905" lon="31.2614679337"><ele>0.14</ele><time>2026-09-02T22:14:30Z</time></trkpt><trkpt lat="59.5590519905" lon="31.2614679337"><ele>0.14</ele><time>2026-09-02T22:14:33Z</time></trkpt><trkpt lat="59.5590519905" lon="31.2614679337"><ele>0.14</ele><time>2026-09-02T22:14:35Z</time></trkpt><trkpt lat="59.5590305328" lon="31.2614679337"><ele>0.14</ele><time>2026-09-02T22:14:38Z</time></trkpt><trkpt lat="59.5590305328" lon="31.2614893913"><ele>0.14</ele><time>2026-09-02T22:14:40Z</time></trkpt><trkpt lat="59.5590305328" lon="31.2614893913"><ele>0.14</ele><time>2026-09-02T22:14:43Z</time></trkpt><trkpt lat="59.5590305328" lon="31.2614893913"><ele>0.14</ele><time>2026-09-02T22:14:45Z</time></trkpt><trkpt lat="59.5590305328" lon="31.2614893913"><ele>0.14</ele><time>2026-09-02T22:14:48Z</time></trkpt><trkpt lat="59.5590305328" lon="31.2614893913"><ele>0.14</ele><time>2026-09-02T22:14:50Z</time></trkpt><trkpt lat="59.5590305328" lon="31.2614893913"><ele>0.14</ele><time>2026-09-02T22:14:53Z</time></trkpt><trkpt lat="59.5590305328" lon="31.2614893913"><ele>0.14</ele><time>2026-09-02T22:14:55Z</time></trkpt><trkpt lat="59.5590305328" lon="31.2615108490"><ele>0.14</ele><time>2026-09-02T22:14:58Z</time></trkpt><trkpt lat="59.5590305328" lon="31.2615108490"><ele>0.14</ele><time>2026-09-02T22:15:00Z</time></trkpt><trkpt lat="59.5590305328" lon="31.2615108490"><ele>0.14</ele><time>2026-09-02T22:15:03Z</time></trkpt><trkpt lat="59.5590090752" lon="31.2615752220"><ele>0.14</ele><time>2026-09-02T22:15:05Z</time></trkpt><trkpt lat="59.5589876175" lon="31.2617039680"><ele>0.14</ele><time>2026-09-02T22:15:08Z</time></trkpt><trkpt lat="59.5589661598" lon="31.2617897987"><ele>0.14</ele><time>2026-09-02T22:15:10Z</time></trkpt><trkpt lat="59.5589661598" lon="31.2618970871"><ele>0.14</ele><time>2026-09-02T22:15:13Z</time></trkpt><trkpt lat="59.5589661598" lon="31.2618970871"><ele>0.14</ele><time>2026-09-02T22:15:15Z</time></trkpt><trkpt lat="59.5589661598" lon="31.2619185448"><ele>0.14</ele><time>2026-09-02T22:15:18Z</time></trkpt><trkpt lat="59.5589661598" lon="31.2619185448"><ele>0.14</ele><time>2026-09-02T22:15:20Z</time></trkpt><trkpt lat="59.5589661598" lon="31.2619400024"><ele>0.14</ele><time>2026-09-02T22:15:23Z</time></trkpt><trkpt lat="59.5589661598" lon="31.2619400024"><ele>0.14</ele><time>2026-09-02T22:15:25Z</time></trkpt><trkpt lat="59.5589447021" lon="31.2619829178"><ele>0.14</ele><time>2026-09-02T22:15:28Z</time></trkpt><trkpt lat="59.5589232445" lon="31.2619829178"><ele>0.14</ele><time>2026-09-02T22:15:30Z</time></trkpt><trkpt lat="59.5589017868" lon="31.2620043755"><ele>0.14</ele><time>2026-09-02T22:15:33Z</time></trkpt><trkpt lat="59.5589017868" lon="31.2620258331"><ele>0.14</ele><time>2026-09-02T22:15:35Z</time></trkpt><trkpt lat="59.5589017868" lon="31.2620258331"><ele>0.14</ele><time>2026-09-02T22:15:38Z</time></trkpt><trkpt lat="59.5588803291" lon="31.2620472908"><ele>0.14</ele><time>2026-09-02T22:15:40Z</time></trkpt><trkpt lat="59.5588588715" lon="31.2620687485"><ele>0.14</ele><time>2026-09-02T22:15:43Z</time></trkpt><trkpt lat="59.5588159561" lon="31.2621116638"><ele>0.14</ele><time>2026-09-02T22:15:45Z</time></trkpt><trkpt lat="59.5587944984" lon="31.2621331215"><ele>0.14</ele><time>2026-09-02T22:15:48Z</time></trkpt><trkpt lat="59.5587730408" lon="31.2621760368"><ele>0.14</ele><time>2026-09-02T22:15:50Z</time></trkpt><trkpt lat="59.5587301254" lon="31.2622404099"><ele>0.14</ele><time>2026-09-02T22:15:53Z</time></trkpt><trkpt lat="59.5586872101" lon="31.2622833252"><ele>0.14</ele><time>2026-09-02T22:15:55Z</time></trkpt><trkpt lat="59.5586872101" lon="31.2622833252"><ele>0.14</ele><time>2026-09-02T22:15:58Z</time></trkpt><trkpt lat="59.5586872101" lon="31.2623047829"><ele>0.14</ele><time>2026-09-02T22:16:00Z</time></trkpt><trkpt lat="59.5586657524" lon="31.2623047829"><ele>0.14</ele><time>2026-09-02T22:16:03Z</time></trkpt><trkpt lat="59.5586442947" lon="31.2623262405"><ele>0.14</ele><time>2026-09-02T22:16:05Z</time></trkpt><trkpt lat="59.5586442947" lon="31.2623476982"><ele>0.14</ele><time>2026-09-02T22:16:08Z</time></trkpt><trkpt lat="59.5586442947" lon="31.2623691559"><ele>0.14</ele><time>2026-09-02T22:16:10Z</time></trkpt><trkpt lat="59.5586442947" lon="31.2624120712"><ele>0.14</ele><time>2026-09-02T22:16:13Z</time></trkpt><trkpt lat="59.5586442947" lon="31.2624120712"><ele>0.14</ele><time>2026-09-02T22:16:15Z</time></trkpt><trkpt lat="59.5586442947" lon="31.2624549866"><ele>0.14</ele><time>2026-09-02T22:16:18Z</time></trkpt><trkpt lat="59.5586013794" lon="31.2625193596"><ele>0.14</ele><time>2026-09-02T22:16:20Z</time></trkpt><trkpt lat="59.5585799217" lon="31.2625408173"><ele>0.14</ele><time>2026-09-02T22:16:23Z</time></trkpt><trkpt lat="59.5585799217" lon="31.2625408173"><ele>0.14</ele><time>2026-09-02T22:16:25Z</time></trkpt><trkpt lat="59.5585799217" lon="31.2625408173"><ele>0.14</ele><time>2026-09-02T22:16:28Z</time></trkpt><trkpt lat="59.5585799217" lon="31.2625408173"><ele>0.14</ele><time>2026-09-02T22:16:30Z</time></trkpt><trkpt lat="59.5585799217" lon="31.2625408173"><ele>0.14</ele><time>2026-09-02T22:16:33Z</time></trkpt><trkpt lat="59.5585584641" lon="31.2625622749"><ele>0.14</ele><time>2026-09-02T22:16:35Z</time></trkpt><trkpt lat="59.5585584641" lon="31.2626051903"><ele>0.14</ele><time>2026-09-02T22:16:38Z</time></trkpt><trkpt lat="59.5585584641" lon="31.2626266479"><ele>0.14</ele><time>2026-09-02T22:16:40Z</time></trkpt><trkpt lat="59.5585584641" lon="31.2626481056"><ele>0.14</ele><time>2026-09-02T22:16:43Z</time></trkpt><trkpt lat="59.5585370064" lon="31.2626481056"><ele>0.14</ele><time>2026-09-02T22:16:45Z</time></trkpt><trkpt lat="59.5585370064" lon="31.2626481056"><ele>0.14</ele><time>2026-09-02T22:16:48Z</time></trkpt><trkpt lat="59.5585155487" lon="31.2626266479"><ele>0.14</ele><time>2026-09-02T22:16:50Z</time></trkpt><trkpt lat="59.5585155487" lon="31.2626266479"><ele>0.14</ele><time>2026-09-02T22:16:53Z</time></trkpt><trkpt lat="59.5585155487" lon="31.2626051903"><ele>0.14</ele><time>2026-09-02T22:16:55Z</time></trkpt><trkpt lat="59.5585370064" lon="31.2626051903"><ele>0.14</ele><time>2026-09-02T22:16:58Z</time></trkpt><trkpt lat="59.5585155487" lon="31.2626266479"><ele>0.14</ele><time>2026-09-02T22:17:00Z</time></trkpt><trkpt lat="59.5584940910" lon="31.2626695633"><ele>0.14</ele><time>2026-09-02T22:17:03Z</time></trkpt><trkpt lat="59.5584940910" lon="31.2626910210"><ele>0.14</ele><time>2026-09-02T22:17:05Z</time></trkpt><trkpt lat="59.5584940910" lon="31.2627124786"><ele>0.14</ele><time>2026-09-02T22:17:08Z</time></trkpt><trkpt lat="59.5584940910" lon="31.2627339363"><ele>0.14</ele><time>2026-09-02T22:17:10Z</time></trkpt><trkpt lat="59.5584940910" lon="31.2627553940"><ele>0.14</ele><time>2026-09-02T22:17:13Z</time></trkpt><trkpt lat="59.5584940910" lon="31.2627983093"><ele>0.14</ele><time>2026-09-02T22:17:15Z</time></trkpt><trkpt lat="59.5584726334" lon="31.2628197670"><ele>0.14</ele><time>2026-09-02T22:17:18Z</time></trkpt><trkpt lat="59.5584726334" lon="31.2628197670"><ele>0.14</ele><time>2026-09-02T22:17:20Z</time></trkpt><trkpt lat="59.5584726334" lon="31.2628412247"><ele>0.14</ele><time>2026-09-02T22:17:23Z</time></trkpt><trkpt lat="59.5584511757" lon="31.2628841400"><ele>0.14</ele><time>2026-09-02T22:17:25Z</time></trkpt><trkpt lat="59.5584511757" lon="31.2628841400"><ele>0.14</ele><time>2026-09-02T22:17:28Z</time></trkpt><trkpt lat="59.5584511757" lon="31.2629270554"><ele>0.14</ele><time>2026-09-02T22:17:30Z</time></trkpt><trkpt lat="59.5584511757" lon="31.2629914284"><ele>0.14</ele><time>2026-09-02T22:17:33Z</time></trkpt><trkpt lat="59.5584511757" lon="31.2630128860"><ele>0.14</ele><time>2026-09-02T22:17:35Z</time></trkpt><trkpt lat="59.5584511757" lon="31.2630558014"><ele>0.14</ele><time>2026-09-02T22:17:38Z</time></trkpt><trkpt lat="59.5584297180" lon="31.2630772591"><ele>0.14</ele><time>2026-09-02T22:17:40Z</time></trkpt><trkpt lat="59.5583868027" lon="31.2630987167"><ele>0.14</ele><time>2026-09-02T22:17:43Z</time></trkpt><trkpt lat="59.5583653450" lon="31.2631416321"><ele>0.14</ele><time>2026-09-02T22:17:45Z</time></trkpt><trkpt lat="59.5583224297" lon="31.2631630898"><ele>0.14</ele><time>2026-09-02T22:17:48Z</time></trkpt><trkpt lat="59.5583224297" lon="31.2631630898"><ele>0.14</ele><time>2026-09-02T22:17:50Z</time></trkpt><trkpt lat="59.5583224297" lon="31.2631630898"><ele>0.14</ele><time>2026-09-02T22:17:53Z</time></trkpt><trkpt lat="59.5582795143" lon="31.2631630898"><ele>0.14</ele><time>2026-09-02T22:17:55Z</time></trkpt><trkpt lat="59.5582795143" lon="31.2631630898"><ele>0.14</ele><time>2026-09-02T22:17:58Z</time></trkpt><trkpt lat="59.5582795143" lon="31.2631845474"><ele>0.14</ele><time>2026-09-02T22:18:00Z</time></trkpt><trkpt lat="59.5582795143" lon="31.2632060051"><ele>0.14</ele><time>2026-09-02T22:18:03Z</time></trkpt><trkpt lat="59.5582580566" lon="31.2632274628"><ele>0.14</ele><time>2026-09-02T22:18:05Z</time></trkpt><trkpt lat="59.5582365990" lon="31.2632489204"><ele>0.14</ele><time>2026-09-02T22:18:08Z</time></trkpt><trkpt lat="59.5582580566" lon="31.2632703781"><ele>0.14</ele><time>2026-09-02T22:18:10Z</time></trkpt><trkpt lat="59.5582365990" lon="31.2633132935"><ele>0.14</ele><time>2026-09-02T22:18:13Z</time></trkpt><trkpt lat="59.5582151413" lon="31.2633132935"><ele>0.14</ele><time>2026-09-02T22:18:15Z</time></trkpt><trkpt lat="59.5581936836" lon="31.2633562088"><ele>0.14</ele><time>2026-09-02T22:18:18Z</time></trkpt><trkpt lat="59.5581722260" lon="31.2633562088"><ele>0.14</ele><time>2026-09-02T22:18:20Z</time></trkpt><trkpt lat="59.5581293106" lon="31.2633991241"><ele>0.14</ele><time>2026-09-02T22:18:23Z</time></trkpt><trkpt lat="59.5581078529" lon="31.2633991241"><ele>0.14</ele><time>2026-09-02T22:18:25Z</time></trkpt><trkpt lat="59.5581293106" lon="31.2634205818"><ele>0.14</ele><time>2026-09-02T22:18:28Z</time></trkpt><trkpt lat="59.5581293106" lon="31.2634205818"><ele>0.14</ele><time>2026-09-02T22:18:30Z</time></trkpt><trkpt lat="59.5581078529" lon="31.2634634972"><ele>0.14</ele><time>2026-09-02T22:18:33Z</time></trkpt><trkpt lat="59.5580863953" lon="31.2634849548"><ele>0.14</ele><time>2026-09-02T22:18:35Z</time></trkpt><trkpt lat="59.5580863953" lon="31.2634849548"><ele>0.14</ele><time>2026-09-02T22:18:38Z</time></trkpt><trkpt lat="59.5580863953" lon="31.2634849548"><ele>0.14</ele><time>2026-09-02T22:18:40Z</time></trkpt><trkpt lat="59.5580434799" lon="31.2635064125"><ele>0.14</ele><time>2026-09-02T22:18:43Z</time></trkpt><trkpt lat="59.5580434799" lon="31.2635278702"><ele>0.14</ele><time>2026-09-02T22:18:45Z</time></trkpt><trkpt lat="59.5580220222" lon="31.2635493279"><ele>0.14</ele><time>2026-09-02T22:18:48Z</time></trkpt><trkpt lat="59.5579791069" lon="31.2635922432"><ele>0.14</ele><time>2026-09-02T22:18:50Z</time></trkpt><trkpt lat="59.5579361916" lon="31.2636137009"><ele>0.14</ele><time>2026-09-02T22:18:53Z</time></trkpt><trkpt lat="59.5579361916" lon="31.2635922432"><ele>0.14</ele><time>2026-09-02T22:18:55Z</time></trkpt><trkpt lat="59.5579361916" lon="31.2635922432"><ele>0.14</ele><time>2026-09-02T22:18:58Z</time></trkpt><trkpt lat="59.5579361916" lon="31.2635922432"><ele>0.14</ele><time>2026-09-02T22:19:00Z</time></trkpt><trkpt lat="59.5579361916" lon="31.2635922432"><ele>0.14</ele><time>2026-09-02T22:19:03Z</time></trkpt><trkpt lat="59.5579147339" lon="31.2636351585"><ele>0.14</ele><time>2026-09-02T22:19:05Z</time></trkpt><trkpt lat="59.5578932762" lon="31.2636780739"><ele>0.14</ele><time>2026-09-02T22:19:08Z</time></trkpt><trkpt lat="59.5578718185" lon="31.2636995316"><ele>0.14</ele><time>2026-09-02T22:19:10Z</time></trkpt><trkpt lat="59.5578718185" lon="31.2636995316"><ele>0.14</ele><time>2026-09-02T22:19:13Z</time></trkpt><trkpt lat="59.5578503609" lon="31.2637209892"><ele>0.14</ele><time>2026-09-02T22:19:15Z</time></trkpt><trkpt lat="59.5578289032" lon="31.2637639046"><ele>0.14</ele><time>2026-09-02T22:19:18Z</time></trkpt><trkpt lat="59.5578289032" lon="31.2637853622"><ele>0.14</ele><time>2026-09-02T22:19:20Z</time></trkpt><trkpt lat="59.5578289032" lon="31.2637853622"><ele>0.14</ele><time>2026-09-02T22:19:23Z</time></trkpt><trkpt lat="59.5577859879" lon="31.2637853622"><ele>0.14</ele><time>2026-09-02T22:19:25Z</time></trkpt><trkpt lat="59.5577859879" lon="31.2638497353"><ele>0.14</ele><time>2026-09-02T22:19:28Z</time></trkpt><trkpt lat="59.5577645302" lon="31.2638711929"><ele>0.14</ele><time>2026-09-02T22:19:30Z</time></trkpt><trkpt lat="59.5577859879" lon="31.2639141083"><ele>0.14</ele><time>2026-09-02T22:19:33Z</time></trkpt><trkpt lat="59.5577859879" lon="31.2639570236"><ele>0.14</ele><time>2026-09-02T22:19:35Z</time></trkpt><trkpt lat="59.5577859879" lon="31.2639784813"><ele>0.14</ele><time>2026-09-02T22:19:38Z</time></trkpt><trkpt lat="59.5577645302" lon="31.2640428543"><ele>0.14</ele><time>2026-09-02T22:19:40Z</time></trkpt><trkpt lat="59.5577430725" lon="31.2641286850"><ele>0.14</ele><time>2026-09-02T22:19:43Z</time></trkpt><trkpt lat="59.5577216148" lon="31.2641716003"><ele>0.14</ele><time>2026-09-02T22:19:45Z</time></trkpt><trkpt lat="59.5577216148" lon="31.2642145157"><ele>0.14</ele><time>2026-09-02T22:19:48Z</time></trkpt><trkpt lat="59.5577001572" lon="31.2642359734"><ele>0.14</ele><time>2026-09-02T22:19:50Z</time></trkpt><trkpt lat="59.5576786995" lon="31.2642788887"><ele>0.14</ele><time>2026-09-02T22:19:53Z</time></trkpt><trkpt lat="59.5576786995" lon="31.2642788887"><ele>0.14</ele><time>2026-09-02T22:19:55Z</time></trkpt><trkpt lat="59.5576572418" lon="31.2642788887"><ele>0.14</ele><time>2026-09-02T22:19:58Z</time></trkpt><trkpt lat="59.5576572418" lon="31.2642788887"><ele>0.14</ele><time>2026-09-02T22:20:00Z</time></trkpt><trkpt lat="59.5576572418" lon="31.2643003464"><ele>0.14</ele><time>2026-09-02T22:20:03Z</time></trkpt><trkpt lat="59.5576357841" lon="31.2643218040"><ele>0.14</ele><time>2026-09-02T22:20:05Z</time></trkpt><trkpt lat="59.5576143265" lon="31.2643647194"><ele>0.14</ele><time>2026-09-02T22:20:08Z</time></trkpt><trkpt lat="59.5576143265" lon="31.2643861771"><ele>0.14</ele><time>2026-09-02T22:20:10Z</time></trkpt><trkpt lat="59.5576143265" lon="31.2643647194"><ele>0.14</ele><time>2026-09-02T22:20:13Z</time></trkpt><trkpt lat="59.5576357841" lon="31.2643432617"><ele>0.14</ele><time>2026-09-02T22:20:15Z</time></trkpt><trkpt lat="59.5576357841" lon="31.2643432617"><ele>0.14</ele><time>2026-09-02T22:20:18Z</time></trkpt><trkpt lat="59.5576357841" lon="31.2643432617"><ele>0.14</ele><time>2026-09-02T22:20:20Z</time></trkpt><trkpt lat="59.5576143265" lon="31.2643647194"><ele>0.14</ele><time>2026-09-02T22:20:23Z</time></trkpt><trkpt lat="59.5576143265" lon="31.2643647194"><ele>0.14</ele><time>2026-09-02T22:20:25Z</time></trkpt><trkpt lat="59.5576143265" lon="31.2643647194"><ele>0.14</ele><time>2026-09-02T22:20:28Z</time></trkpt><trkpt lat="59.5576143265" lon="31.2643647194"><ele>0.14</ele><time>2026-09-02T22:20:30Z</time></trkpt><trkpt lat="59.5576143265" lon="31.2643647194"><ele>0.14</ele><time>2026-09-02T22:20:33Z</time></trkpt><trkpt lat="59.5576143265" lon="31.2643647194"><ele>0.14</ele><time>2026-09-02T22:20:35Z</time></trkpt><trkpt lat="59.5576143265" lon="31.2643647194"><ele>0.14</ele><time>2026-09-02T22:20:38Z</time></trkpt><trkpt lat="59.5576143265" lon="31.2643647194"><ele>0.14</ele><time>2026-09-02T22:20:40Z</time></trkpt><trkpt lat="59.5576143265" lon="31.2643647194"><ele>0.14</ele><time>2026-09-02T22:20:43Z</time></trkpt><trkpt lat="59.5576143265" lon="31.2643647194"><ele>0.14</ele><time>2026-09-02T22:20:45Z</time></trkpt><trkpt lat="59.5576143265" lon="31.2643647194"><ele>0.14</ele><time>2026-09-02T22:20:48Z</time></trkpt><trkpt lat="59.5576143265" lon="31.2643647194"><ele>0.14</ele><time>2026-09-02T22:20:50Z</time></trkpt><trkpt lat="59.5576143265" lon="31.2643432617"><ele>0.14</ele><time>2026-09-02T22:20:53Z</time></trkpt><trkpt lat="59.5576143265" lon="31.2643432617"><ele>0.14</ele><time>2026-09-02T22:20:55Z</time></trkpt><trkpt lat="59.5576143265" lon="31.2643432617"><ele>0.14</ele><time>2026-09-02T22:20:58Z</time></trkpt><trkpt lat="59.5576143265" lon="31.2643432617"><ele>0.14</ele><time>2026-09-02T22:21:00Z</time></trkpt><trkpt lat="59.5576143265" lon="31.2643432617"><ele>0.14</ele><time>2026-09-02T22:21:03Z</time></trkpt><trkpt lat="59.5576143265" lon="31.2643432617"><ele>0.14</ele><time>2026-09-02T22:21:05Z</time></trkpt><trkpt lat="59.5576143265" lon="31.2643432617"><ele>0.14</ele><time>2026-09-02T22:21:08Z</time></trkpt><trkpt lat="59.5576357841" lon="31.2643432617"><ele>0.14</ele><time>2026-09-02T22:21:10Z</time></trkpt><trkpt lat="59.5576357841" lon="31.2643432617"><ele>0.14</ele><time>2026-09-02T22:21:13Z</time></trkpt><trkpt lat="59.5576357841" lon="31.2643432617"><ele>0.14</ele><time>2026-09-02T22:21:15Z</time></trkpt><trkpt lat="59.5576357841" lon="31.2643432617"><ele>0.14</ele><time>2026-09-02T22:21:18Z</time></trkpt><trkpt lat="59.5576357841" lon="31.2643432617"><ele>0.14</ele><time>2026-09-02T22:21:20Z</time></trkpt><trkpt lat="59.5576357841" lon="31.2643432617"><ele>0.14</ele><time>2026-09-02T22:21:23Z</time></trkpt><trkpt lat="59.5576357841" lon="31.2643432617"><ele>0.14</ele><time>2026-09-02T22:21:25Z</time></trkpt><trkpt lat="59.5576357841" lon="31.2643432617"><ele>0.14</ele><time>2026-09-02T22:21:28Z</time></trkpt><trkpt lat="59.5576357841" lon="31.2643432617"><ele>0.14</ele><time>2026-09-02T22:21:30Z</time></trkpt><trkpt lat="59.5576357841" lon="31.2643432617"><ele>0.14</ele><time>2026-09-02T22:21:33Z</time></trkpt><trkpt lat="59.5576357841" lon="31.2643432617"><ele>0.14</ele><time>2026-09-02T22:21:35Z</time></trkpt><trkpt lat="59.5576143265" lon="31.2643432617"><ele>0.14</ele><time>2026-09-02T22:21:38Z</time></trkpt><trkpt lat="59.5576143265" lon="31.2643647194"><ele>0.14</ele><time>2026-09-02T22:21:40Z</time></trkpt><trkpt lat="59.5576143265" lon="31.2643647194"><ele>0.14</ele><time>2026-09-02T22:21:43Z</time></trkpt><trkpt lat="59.5576143265" lon="31.2643861771"><ele>0.14</ele><time>2026-09-02T22:21:45Z</time></trkpt><trkpt lat="59.5575928688" lon="31.2644290924"><ele>0.14</ele><time>2026-09-02T22:21:48Z</time></trkpt><trkpt lat="59.5575928688" lon="31.2644290924"><ele>0.14</ele><time>2026-09-02T22:21:50Z</time></trkpt><trkpt lat="59.5575714111" lon="31.2644720078"><ele>0.14</ele><time>2026-09-02T22:21:53Z</time></trkpt><trkpt lat="59.5575714111" lon="31.2644934654"><ele>0.14</ele><time>2026-09-02T22:21:55Z</time></trkpt><trkpt lat="59.5575714111" lon="31.2645363808"><ele>0.14</ele><time>2026-09-02T22:21:58Z</time></trkpt><trkpt lat="59.5575714111" lon="31.2645363808"><ele>0.14</ele><time>2026-09-02T22:22:00Z</time></trkpt><trkpt lat="59.5575499535" lon="31.2645578384"><ele>0.14</ele><time>2026-09-02T22:22:03Z</time></trkpt><trkpt lat="59.5575499535" lon="31.2645792961"><ele>0.14</ele><time>2026-09-02T22:22:05Z</time></trkpt><trkpt lat="59.5575499535" lon="31.2646222115"><ele>0.14</ele><time>2026-09-02T22:22:08Z</time></trkpt><trkpt lat="59.5575284958" lon="31.2646436691"><ele>0.14</ele><time>2026-09-02T22:22:10Z</time></trkpt><trkpt lat="59.5575284958" lon="31.2646651268"><ele>0.14</ele><time>2026-09-02T22:22:13Z</time></trkpt><trkpt lat="59.5575070381" lon="31.2646865845"><ele>0.14</ele><time>2026-09-02T22:22:15Z</time></trkpt><trkpt lat="59.5574855804" lon="31.2647294998"><ele>0.14</ele><time>2026-09-02T22:22:18Z</time></trkpt><trkpt lat="59.5574426651" lon="31.2647724152"><ele>0.14</ele><time>2026-09-02T22:22:20Z</time></trkpt><trkpt lat="59.5573997498" lon="31.2647938728"><ele>0.14</ele><time>2026-09-02T22:22:23Z</time></trkpt><trkpt lat="59.5573782921" lon="31.2647938728"><ele>0.14</ele><time>2026-09-02T22:22:25Z</time></trkpt><trkpt lat="59.5573568344" lon="31.2648153305"><ele>0.14</ele><time>2026-09-02T22:22:28Z</time></trkpt><trkpt lat="59.5573353767" lon="31.2648367882"><ele>0.14</ele><time>2026-09-02T22:22:30Z</time></trkpt><trkpt lat="59.5573139191" lon="31.2648797035"><ele>0.14</ele><time>2026-09-02T22:22:33Z</time></trkpt><trkpt lat="59.5573139191" lon="31.2649011612"><ele>0.14</ele><time>2026-09-02T22:22:35Z</time></trkpt><trkpt lat="59.5573139191" lon="31.2649011612"><ele>0.14</ele><time>2026-09-02T22:22:38Z</time></trkpt><trkpt lat="59.5573139191" lon="31.2649226189"><ele>0.14</ele><time>2026-09-02T22:22:40Z</time></trkpt><trkpt lat="59.5572924614" lon="31.2649440765"><ele>0.14</ele><time>2026-09-02T22:22:43Z</time></trkpt><trkpt lat="59.5572924614" lon="31.2649869919"><ele>0.14</ele><time>2026-09-02T22:22:45Z</time></trkpt><trkpt lat="59.5572710037" lon="31.2650084496"><ele>0.14</ele><time>2026-09-02T22:22:48Z</time></trkpt><trkpt lat="59.5572495461" lon="31.2650299072"><ele>0.14</ele><time>2026-09-02T22:22:50Z</time></trkpt><trkpt lat="59.5571851730" lon="31.2650728226"><ele>0.14</ele><time>2026-09-02T22:22:53Z</time></trkpt><trkpt lat="59.5571422577" lon="31.2650942802"><ele>0.14</ele><time>2026-09-02T22:22:55Z</time></trkpt><trkpt lat="59.5570993423" lon="31.2651371956"><ele>0.14</ele><time>2026-09-02T22:22:58Z</time></trkpt><trkpt lat="59.5570993423" lon="31.2651371956"><ele>0.14</ele><time>2026-09-02T22:23:00Z</time></trkpt><trkpt lat="59.5571208000" lon="31.2651371956"><ele>0.14</ele><time>2026-09-02T22:23:03Z</time></trkpt><trkpt lat="59.5571208000" lon="31.2651586533"><ele>0.14</ele><time>2026-09-02T22:23:05Z</time></trkpt><trkpt lat="59.5570993423" lon="31.2651801109"><ele>0.14</ele><time>2026-09-02T22:23:08Z</time></trkpt><trkpt lat="59.5570993423" lon="31.2652015686"><ele>0.14</ele><time>2026-09-02T22:23:10Z</time></trkpt><trkpt lat="59.5570993423" lon="31.2652015686"><ele>0.14</ele><time>2026-09-02T22:23:13Z</time></trkpt><trkpt lat="59.5570993423" lon="31.2652230263"><ele>0.14</ele><time>2026-09-02T22:23:15Z</time></trkpt><trkpt lat="59.5570778847" lon="31.2652659416"><ele>0.14</ele><time>2026-09-02T22:23:18Z</time></trkpt><trkpt lat="59.5570564270" lon="31.2653088570"><ele>0.14</ele><time>2026-09-02T22:23:20Z</time></trkpt><trkpt lat="59.5570564270" lon="31.2653088570"><ele>0.14</ele><time>2026-09-02T22:23:23Z</time></trkpt><trkpt lat="59.5570564270" lon="31.2653088570"><ele>0.14</ele><time>2026-09-02T22:23:25Z</time></trkpt><trkpt lat="59.5570349693" lon="31.2653088570"><ele>0.14</ele><time>2026-09-02T22:23:28Z</time></trkpt><trkpt lat="59.5570349693" lon="31.2653303146"><ele>0.14</ele><time>2026-09-02T22:23:30Z</time></trkpt><trkpt lat="59.5570349693" lon="31.2653088570"><ele>0.14</ele><time>2026-09-02T22:23:33Z</time></trkpt><trkpt lat="59.5570349693" lon="31.2653303146"><ele>0.14</ele><time>2026-09-02T22:23:35Z</time></trkpt><trkpt lat="59.5569920540" lon="31.2653946877"><ele>0.14</ele><time>2026-09-02T22:23:38Z</time></trkpt><trkpt lat="59.5569491386" lon="31.2654376030"><ele>0.14</ele><time>2026-09-02T22:23:40Z</time></trkpt><trkpt lat="59.5569491386" lon="31.2654376030"><ele>0.14</ele><time>2026-09-02T22:23:43Z</time></trkpt><trkpt lat="59.5569491386" lon="31.2654590607"><ele>0.14</ele><time>2026-09-02T22:23:45Z</time></trkpt><trkpt lat="59.5569491386" lon="31.2654805183"><ele>0.14</ele><time>2026-09-02T22:23:48Z</time></trkpt><trkpt lat="59.5569491386" lon="31.2655234337"><ele>0.14</ele><time>2026-09-02T22:23:50Z</time></trkpt><trkpt lat="59.5569491386" lon="31.2655448914"><ele>0.14</ele><time>2026-09-02T22:23:53Z</time></trkpt><trkpt lat="59.5569276810" lon="31.2655878067"><ele>0.14</ele><time>2026-09-02T22:23:55Z</time></trkpt><trkpt lat="59.5569276810" lon="31.2655878067"><ele>0.14</ele><time>2026-09-02T22:23:58Z</time></trkpt><trkpt lat="59.5569062233" lon="31.2656307220"><ele>0.14</ele><time>2026-09-02T22:24:00Z</time></trkpt><trkpt lat="59.5569062233" lon="31.2656521797"><ele>0.14</ele><time>2026-09-02T22:24:03Z</time></trkpt><trkpt lat="59.5569062233" lon="31.2656521797"><ele>0.14</ele><time>2026-09-02T22:24:05Z</time></trkpt><trkpt lat="59.5568633080" lon="31.2656736374"><ele>0.14</ele><time>2026-09-02T22:24:08Z</time></trkpt><trkpt lat="59.5568633080" lon="31.2656736374"><ele>0.14</ele><time>2026-09-02T22:24:10Z</time></trkpt><trkpt lat="59.5568418503" lon="31.2656950951"><ele>0.14</ele><time>2026-09-02T22:24:13Z</time></trkpt><trkpt lat="59.5568418503" lon="31.2657165527"><ele>0.14</ele><time>2026-09-02T22:24:15Z</time></trkpt><trkpt lat="59.5568418503" lon="31.2657165527"><ele>0.14</ele><time>2026-09-02T22:24:18Z</time></trkpt><trkpt lat="59.5568203926" lon="31.2657594681"><ele>0.14</ele><time>2026-09-02T22:24:20Z</time></trkpt><trkpt lat="59.5568203926" lon="31.2657594681"><ele>0.14</ele><time>2026-09-02T22:24:23Z</time></trkpt><trkpt lat="59.5568203926" lon="31.2657594681"><ele>0.14</ele><time>2026-09-02T22:24:25Z</time></trkpt><trkpt lat="59.5568203926" lon="31.2657809258"><ele>0.14</ele><time>2026-09-02T22:24:28Z</time></trkpt><trkpt lat="59.5567774773" lon="31.2658238411"><ele>0.14</ele><time>2026-09-02T22:24:30Z</time></trkpt><trkpt lat="59.5567560196" lon="31.2658667564"><ele>0.14</ele><time>2026-09-02T22:24:33Z</time></trkpt><trkpt lat="59.5567345619" lon="31.2658882141"><ele>0.14</ele><time>2026-09-02T22:24:35Z</time></trkpt><trkpt lat="59.5567345619" lon="31.2659096718"><ele>0.14</ele><time>2026-09-02T22:24:38Z</time></trkpt><trkpt lat="59.5567345619" lon="31.2659311295"><ele>0.14</ele><time>2026-09-02T22:24:40Z</time></trkpt><trkpt lat="59.5567345619" lon="31.2659525871"><ele>0.14</ele><time>2026-09-02T22:24:43Z</time></trkpt><trkpt lat="59.5567131042" lon="31.2659525871"><ele>0.14</ele><time>2026-09-02T22:24:45Z</time></trkpt><trkpt lat="59.5567131042" lon="31.2659525871"><ele>0.14</ele><time>2026-09-02T22:24:48Z</time></trkpt><trkpt lat="59.5567131042" lon="31.2659311295"><ele>0.14</ele><time>2026-09-02T22:24:50Z</time></trkpt><trkpt lat="59.5566701889" lon="31.2659311295"><ele>0.14</ele><time>2026-09-02T22:24:53Z</time></trkpt><trkpt lat="59.5566701889" lon="31.2659311295"><ele>0.14</ele><time>2026-09-02T22:24:55Z</time></trkpt><trkpt lat="59.5566701889" lon="31.2659525871"><ele>0.14</ele><time>2026-09-02T22:24:58Z</time></trkpt><trkpt lat="59.5566487312" lon="31.2659525871"><ele>0.14</ele><time>2026-09-02T22:25:00Z</time></trkpt><trkpt lat="59.5566487312" lon="31.2659525871"><ele>0.14</ele><time>2026-09-02T22:25:03Z</time></trkpt><trkpt lat="59.5566487312" lon="31.2659525871"><ele>0.14</ele><time>2026-09-02T22:25:05Z</time></trkpt><trkpt lat="59.5566487312" lon="31.2659525871"><ele>0.14</ele><time>2026-09-02T22:25:08Z</time></trkpt><trkpt lat="59.5566701889" lon="31.2659311295"><ele>0.14</ele><time>2026-09-02T22:25:10Z</time></trkpt><trkpt lat="59.5566487312" lon="31.2659311295"><ele>0.14</ele><time>2026-09-02T22:25:13Z</time></trkpt><trkpt lat="59.5566272736" lon="31.2659311295"><ele>0.14</ele><time>2026-09-02T22:25:15Z</time></trkpt><trkpt lat="59.5566058159" lon="31.2659525871"><ele>0.14</ele><time>2026-09-02T22:25:18Z</time></trkpt><trkpt lat="59.5566272736" lon="31.2659740448"><ele>0.14</ele><time>2026-09-02T22:25:20Z</time></trkpt><trkpt lat="59.5566272736" lon="31.2659740448"><ele>0.14</ele><time>2026-09-02T22:25:23Z</time></trkpt><trkpt lat="59.5566058159" lon="31.2660169601"><ele>0.14</ele><time>2026-09-02T22:25:25Z</time></trkpt><trkpt lat="59.5566058159" lon="31.2660384178"><ele>0.14</ele><time>2026-09-02T22:25:28Z</time></trkpt><trkpt lat="59.5565843582" lon="31.2660598755"><ele>0.14</ele><time>2026-09-02T22:25:30Z</time></trkpt><trkpt lat="59.5565843582" lon="31.2660813332"><ele>0.14</ele><time>2026-09-02T22:25:33Z</time></trkpt><trkpt lat="59.5565843582" lon="31.2661027908"><ele>0.14</ele><time>2026-09-02T22:25:35Z</time></trkpt><trkpt lat="59.5565629005" lon="31.2661027908"><ele>0.14</ele><time>2026-09-02T22:25:38Z</time></trkpt><trkpt lat="59.5565629005" lon="31.2661027908"><ele>0.14</ele><time>2026-09-02T22:25:40Z</time></trkpt><trkpt lat="59.5565629005" lon="31.2660813332"><ele>0.14</ele><time>2026-09-02T22:25:43Z</time></trkpt><trkpt lat="59.5565629005" lon="31.2661027908"><ele>0.14</ele><time>2026-09-02T22:25:45Z</time></trkpt><trkpt lat="59.5565414429" lon="31.2661242485"><ele>0.14</ele><time>2026-09-02T22:25:48Z</time></trkpt><trkpt lat="59.5565414429" lon="31.2661242485"><ele>0.14</ele><time>2026-09-02T22:25:50Z</time></trkpt><trkpt lat="59.5564985275" lon="31.2661242485"><ele>0.14</ele><time>2026-09-02T22:25:53Z</time></trkpt><trkpt lat="59.5564985275" lon="31.2661242485"><ele>0.14</ele><time>2026-09-02T22:25:55Z</time></trkpt><trkpt lat="59.5564985275" lon="31.2661027908"><ele>0.14</ele><time>2026-09-02T22:25:58Z</time></trkpt><trkpt lat="59.5564770699" lon="31.2661242485"><ele>0.14</ele><time>2026-09-02T22:26:00Z</time></trkpt><trkpt lat="59.5564556122" lon="31.2661457062"><ele>0.14</ele><time>2026-09-02T22:26:03Z</time></trkpt><trkpt lat="59.5564556122" lon="31.2661457062"><ele>0.14</ele><time>2026-09-02T22:26:05Z</time></trkpt><trkpt lat="59.5564341545" lon="31.2661457062"><ele>0.14</ele><time>2026-09-02T22:26:08Z</time></trkpt><trkpt lat="59.5564126968" lon="31.2661671638"><ele>0.14</ele><time>2026-09-02T22:26:10Z</time></trkpt><trkpt lat="59.5564126968" lon="31.2661886215"><ele>0.14</ele><time>2026-09-02T22:26:13Z</time></trkpt><trkpt lat="59.5564126968" lon="31.2662100792"><ele>0.14</ele><time>2026-09-02T22:26:15Z</time></trkpt><trkpt lat="59.5563912392" lon="31.2662529945"><ele>0.14</ele><time>2026-09-02T22:26:18Z</time></trkpt><trkpt lat="59.5564126968" lon="31.2662744522"><ele>0.14</ele><time>2026-09-02T22:26:20Z</time></trkpt><trkpt lat="59.5564126968" lon="31.2663173676"><ele>0.14</ele><time>2026-09-02T22:26:23Z</time></trkpt><trkpt lat="59.5564126968" lon="31.2663173676"><ele>0.14</ele><time>2026-09-02T22:26:25Z</time></trkpt><trkpt lat="59.5564126968" lon="31.2663173676"><ele>0.14</ele><time>2026-09-02T22:26:28Z</time></trkpt><trkpt lat="59.5563912392" lon="31.2663173676"><ele>0.14</ele><time>2026-09-02T22:26:30Z</time></trkpt><trkpt lat="59.5563912392" lon="31.2663173676"><ele>0.14</ele><time>2026-09-02T22:26:33Z</time></trkpt><trkpt lat="59.5563912392" lon="31.2663173676"><ele>0.14</ele><time>2026-09-02T22:26:35Z</time></trkpt><trkpt lat="59.5563912392" lon="31.2662959099"><ele>0.14</ele><time>2026-09-02T22:26:38Z</time></trkpt><trkpt lat="59.5563912392" lon="31.2662744522"><ele>0.14</ele><time>2026-09-02T22:26:40Z</time></trkpt><trkpt lat="59.5563697815" lon="31.2662529945"><ele>0.14</ele><time>2026-09-02T22:26:43Z</time></trkpt><trkpt lat="59.5563697815" lon="31.2662315369"><ele>0.14</ele><time>2026-09-02T22:26:45Z</time></trkpt><trkpt lat="59.5563483238" lon="31.2662100792"><ele>0.14</ele><time>2026-09-02T22:26:48Z</time></trkpt><trkpt lat="59.5563483238" lon="31.2661457062"><ele>0.14</ele><time>2026-09-02T22:26:50Z</time></trkpt><trkpt lat="59.5563483238" lon="31.2661242485"><ele>0.14</ele><time>2026-09-02T22:26:53Z</time></trkpt><trkpt lat="59.5563483238" lon="31.2661242485"><ele>0.14</ele><time>2026-09-02T22:26:55Z</time></trkpt><trkpt lat="59.5563268661" lon="31.2661886215"><ele>0.14</ele><time>2026-09-02T22:26:58Z</time></trkpt><trkpt lat="59.5563268661" lon="31.2662959099"><ele>0.14</ele><time>2026-09-02T22:27:00Z</time></trkpt><trkpt lat="59.5563054085" lon="31.2663602829"><ele>0.14</ele><time>2026-09-02T22:27:03Z</time></trkpt><trkpt lat="59.5562624931" lon="31.2664031982"><ele>0.14</ele><time>2026-09-02T22:27:05Z</time></trkpt><trkpt lat="59.5562839508" lon="31.2664461136"><ele>0.14</ele><time>2026-09-02T22:27:08Z</time></trkpt><trkpt lat="59.5562624931" lon="31.2664031982"><ele>0.14</ele><time>2026-09-02T22:27:10Z</time></trkpt><trkpt lat="59.5563054085" lon="31.2663388252"><ele>0.14</ele><time>2026-09-02T22:27:13Z</time></trkpt><trkpt lat="59.5563054085" lon="31.2663602829"><ele>0.14</ele><time>2026-09-02T22:27:15Z</time></trkpt><trkpt lat="59.5563054085" lon="31.2663602829"><ele>0.14</ele><time>2026-09-02T22:27:18Z</time></trkpt><trkpt lat="59.5563054085" lon="31.2663602829"><ele>0.14</ele><time>2026-09-02T22:27:20Z</time></trkpt><trkpt lat="59.5563054085" lon="31.2663602829"><ele>0.14</ele><time>2026-09-02T22:27:23Z</time></trkpt><trkpt lat="59.5563054085" lon="31.2663602829"><ele>0.14</ele><time>2026-09-02T22:27:25Z</time></trkpt><trkpt lat="59.5562839508" lon="31.2663602829"><ele>0.14</ele><time>2026-09-02T22:27:28Z</time></trkpt><trkpt lat="59.5562839508" lon="31.2663602829"><ele>0.14</ele><time>2026-09-02T22:27:30Z</time></trkpt><trkpt lat="59.5562839508" lon="31.2662744522"><ele>0.14</ele><time>2026-09-02T22:27:33Z</time></trkpt><trkpt lat="59.5562839508" lon="31.2662100792"><ele>0.14</ele><time>2026-09-02T22:27:35Z</time></trkpt><trkpt lat="59.5562839508" lon="31.2661886215"><ele>0.14</ele><time>2026-09-02T22:27:38Z</time></trkpt><trkpt lat="59.5562839508" lon="31.2661671638"><ele>0.14</ele><time>2026-09-02T22:27:40Z</time></trkpt><trkpt lat="59.5562839508" lon="31.2661671638"><ele>0.14</ele><time>2026-09-02T22:27:43Z</time></trkpt><trkpt lat="59.5562839508" lon="31.2661457062"><ele>0.14</ele><time>2026-09-02T22:27:45Z</time></trkpt><trkpt lat="59.5562839508" lon="31.2660384178"><ele>0.14</ele><time>2026-09-02T22:27:48Z</time></trkpt><trkpt lat="59.5562839508" lon="31.2659525871"><ele>0.14</ele><time>2026-09-02T22:27:50Z</time></trkpt><trkpt lat="59.5563054085" lon="31.2659096718"><ele>0.14</ele><time>2026-09-02T22:27:53Z</time></trkpt><trkpt lat="59.5563268661" lon="31.2658238411"><ele>0.14</ele><time>2026-09-02T22:27:55Z</time></trkpt><trkpt lat="59.5563268661" lon="31.2657380104"><ele>0.14</ele><time>2026-09-02T22:27:58Z</time></trkpt><trkpt lat="59.5563483238" lon="31.2656736374"><ele>0.14</ele><time>2026-09-02T22:28:00Z</time></trkpt><trkpt lat="59.5563483238" lon="31.2656521797"><ele>0.14</ele><time>2026-09-02T22:28:03Z</time></trkpt><trkpt lat="59.5563483238" lon="31.2655878067"><ele>0.14</ele><time>2026-09-02T22:28:05Z</time></trkpt><trkpt lat="59.5563483238" lon="31.2655234337"><ele>0.14</ele><time>2026-09-02T22:28:08Z</time></trkpt><trkpt lat="59.5563483238" lon="31.2654161453"><ele>0.14</ele><time>2026-09-02T22:28:10Z</time></trkpt><trkpt lat="59.5563483238" lon="31.2652873993"><ele>0.14</ele><time>2026-09-02T22:28:13Z</time></trkpt><trkpt lat="59.5563483238" lon="31.2651801109"><ele>0.14</ele><time>2026-09-02T22:28:15Z</time></trkpt><trkpt lat="59.5563483238" lon="31.2651157379"><ele>0.14</ele><time>2026-09-02T22:28:18Z</time></trkpt><trkpt lat="59.5563483238" lon="31.2651157379"><ele>0.14</ele><time>2026-09-02T22:28:20Z</time></trkpt><trkpt lat="59.5563483238" lon="31.2650942802"><ele>0.14</ele><time>2026-09-02T22:28:23Z</time></trkpt><trkpt lat="59.5563483238" lon="31.2650942802"><ele>0.14</ele><time>2026-09-02T22:28:25Z</time></trkpt><trkpt lat="59.5563483238" lon="31.2650942802"><ele>0.14</ele><time>2026-09-02T22:28:28Z</time></trkpt><trkpt lat="59.5563483238" lon="31.2650942802"><ele>0.14</ele><time>2026-09-02T22:28:30Z</time></trkpt><trkpt lat="59.5563483238" lon="31.2650728226"><ele>0.14</ele><time>2026-09-02T22:28:33Z</time></trkpt><trkpt lat="59.5563483238" lon="31.2650728226"><ele>0.14</ele><time>2026-09-02T22:28:35Z</time></trkpt><trkpt lat="59.5563483238" lon="31.2650728226"><ele>0.14</ele><time>2026-09-02T22:28:38Z</time></trkpt><trkpt lat="59.5563483238" lon="31.2650513649"><ele>0.14</ele><time>2026-09-02T22:28:40Z</time></trkpt><trkpt lat="59.5563483238" lon="31.2650084496"><ele>0.14</ele><time>2026-09-02T22:28:43Z</time></trkpt><trkpt lat="59.5563268661" lon="31.2649869919"><ele>0.14</ele><time>2026-09-02T22:28:45Z</time></trkpt><trkpt lat="59.5563268661" lon="31.2649226189"><ele>0.14</ele><time>2026-09-02T22:28:48Z</time></trkpt><trkpt lat="59.5563268661" lon="31.2648797035"><ele>0.14</ele><time>2026-09-02T22:28:50Z</time></trkpt><trkpt lat="59.5563268661" lon="31.2648797035"><ele>0.14</ele><time>2026-09-02T22:28:53Z</time></trkpt><trkpt lat="59.5563483238" lon="31.2648367882"><ele>0.14</ele><time>2026-09-02T22:28:55Z</time></trkpt><trkpt lat="59.5563483238" lon="31.2647938728"><ele>0.14</ele><time>2026-09-02T22:28:58Z</time></trkpt><trkpt lat="59.5563697815" lon="31.2647938728"><ele>0.14</ele><time>2026-09-02T22:29:00Z</time></trkpt><trkpt lat="59.5563483238" lon="31.2647294998"><ele>0.14</ele><time>2026-09-02T22:29:03Z</time></trkpt><trkpt lat="59.5563697815" lon="31.2647294998"><ele>0.14</ele><time>2026-09-02T22:29:05Z</time></trkpt><trkpt lat="59.5563697815" lon="31.2647294998"><ele>0.14</ele><time>2026-09-02T22:29:08Z</time></trkpt><trkpt lat="59.5563483238" lon="31.2647294998"><ele>0.14</ele><time>2026-09-02T22:29:10Z</time></trkpt><trkpt lat="59.5563483238" lon="31.2647294998"><ele>0.14</ele><time>2026-09-02T22:29:13Z</time></trkpt><trkpt lat="59.5563483238" lon="31.2647294998"><ele>0.14</ele><time>2026-09-02T22:29:15Z</time></trkpt><trkpt lat="59.5563483238" lon="31.2647294998"><ele>0.14</ele><time>2026-09-02T22:29:18Z</time></trkpt><trkpt lat="59.5563483238" lon="31.2647294998"><ele>0.14</ele><time>2026-09-02T22:29:20Z</time></trkpt><trkpt lat="59.5563697815" lon="31.2647294998"><ele>0.14</ele><time>2026-09-02T22:29:23Z</time></trkpt><trkpt lat="59.5563697815" lon="31.2647294998"><ele>0.14</ele><time>2026-09-02T22:29:25Z</time></trkpt><trkpt lat="59.5563697815" lon="31.2647294998"><ele>0.14</ele><time>2026-09-02T22:29:28Z</time></trkpt><trkpt lat="59.5563697815" lon="31.2647294998"><ele>0.14</ele><time>2026-09-02T22:29:30Z</time></trkpt><trkpt lat="59.5563697815" lon="31.2647724152"><ele>0.14</ele><time>2026-09-02T22:29:33Z</time></trkpt><trkpt lat="59.5563912392" lon="31.2648153305"><ele>0.14</ele><time>2026-09-02T22:29:35Z</time></trkpt><trkpt lat="59.5564126968" lon="31.2648797035"><ele>0.14</ele><time>2026-09-02T22:29:38Z</time></trkpt><trkpt lat="59.5564126968" lon="31.2649011612"><ele>0.14</ele><time>2026-09-02T22:29:40Z</time></trkpt><trkpt lat="59.5563912392" lon="31.2648797035"><ele>0.14</ele><time>2026-09-02T22:29:43Z</time></trkpt><trkpt lat="59.5563912392" lon="31.2648797035"><ele>0.14</ele><time>2026-09-02T22:29:45Z</time></trkpt><trkpt lat="59.5564126968" lon="31.2649226189"><ele>0.14</ele><time>2026-09-02T22:29:48Z</time></trkpt><trkpt lat="59.5564126968" lon="31.2649226189"><ele>0.14</ele><time>2026-09-02T22:29:50Z</time></trkpt><trkpt lat="59.5564126968" lon="31.2649440765"><ele>0.14</ele><time>2026-09-02T22:29:53Z</time></trkpt><trkpt lat="59.5564126968" lon="31.2649440765"><ele>0.14</ele><time>2026-09-02T22:29:55Z</time></trkpt><trkpt lat="59.5564126968" lon="31.2649440765"><ele>0.14</ele><time>2026-09-02T22:29:58Z</time></trkpt><trkpt lat="59.5564341545" lon="31.2649440765"><ele>0.14</ele><time>2026-09-02T22:30:00Z</time></trkpt><trkpt lat="59.5564341545" lon="31.2649226189"><ele>0.14</ele><time>2026-09-02T22:30:03Z</time></trkpt><trkpt lat="59.5564341545" lon="31.2649226189"><ele>0.14</ele><time>2026-09-02T22:30:05Z</time></trkpt><trkpt lat="59.5564556122" lon="31.2649011612"><ele>0.14</ele><time>2026-09-02T22:30:08Z</time></trkpt><trkpt lat="59.5564556122" lon="31.2648797035"><ele>0.14</ele><time>2026-09-02T22:30:10Z</time></trkpt><trkpt lat="59.5564770699" lon="31.2648582458"><ele>0.14</ele><time>2026-09-02T22:30:13Z</time></trkpt><trkpt lat="59.5564770699" lon="31.2648582458"><ele>0.14</ele><time>2026-09-02T22:30:15Z</time></trkpt><trkpt lat="59.5564770699" lon="31.2648367882"><ele>0.14</ele><time>2026-09-02T22:30:18Z</time></trkpt><trkpt lat="59.5564985275" lon="31.2648153305"><ele>0.14</ele><time>2026-09-02T22:30:20Z</time></trkpt><trkpt lat="59.5565199852" lon="31.2647938728"><ele>0.14</ele><time>2026-09-02T22:30:23Z</time></trkpt><trkpt lat="59.5565199852" lon="31.2647938728"><ele>0.14</ele><time>2026-09-02T22:30:25Z</time></trkpt><trkpt lat="59.5565199852" lon="31.2647938728"><ele>0.14</ele><time>2026-09-02T22:30:28Z</time></trkpt><trkpt lat="59.5565414429" lon="31.2647938728"><ele>0.14</ele><time>2026-09-02T22:30:30Z</time></trkpt><trkpt lat="59.5565629005" lon="31.2647509575"><ele>0.14</ele><time>2026-09-02T22:30:33Z</time></trkpt><trkpt lat="59.5565629005" lon="31.2647080421"><ele>0.14</ele><time>2026-09-02T22:30:35Z</time></trkpt><trkpt lat="59.5565629005" lon="31.2646865845"><ele>0.14</ele><time>2026-09-02T22:30:38Z</time></trkpt><trkpt lat="59.5565843582" lon="31.2646651268"><ele>0.14</ele><time>2026-09-02T22:30:40Z</time></trkpt><trkpt lat="59.5565843582" lon="31.2646222115"><ele>0.14</ele><time>2026-09-02T22:30:43Z</time></trkpt><trkpt lat="59.5565843582" lon="31.2646007538"><ele>0.14</ele><time>2026-09-02T22:30:45Z</time></trkpt><trkpt lat="59.5566272736" lon="31.2645363808"><ele>0.14</ele><time>2026-09-02T22:30:48Z</time></trkpt><trkpt lat="59.5566487312" lon="31.2644934654"><ele>0.14</ele><time>2026-09-02T22:30:50Z</time></trkpt><trkpt lat="59.5566701889" lon="31.2644505501"><ele>0.14</ele><time>2026-09-02T22:30:53Z</time></trkpt><trkpt lat="59.5566701889" lon="31.2644290924"><ele>0.14</ele><time>2026-09-02T22:30:55Z</time></trkpt><trkpt lat="59.5566701889" lon="31.2644290924"><ele>0.14</ele><time>2026-09-02T22:30:58Z</time></trkpt><trkpt lat="59.5566487312" lon="31.2644076347"><ele>0.14</ele><time>2026-09-02T22:31:00Z</time></trkpt><trkpt lat="59.5566701889" lon="31.2643647194"><ele>0.14</ele><time>2026-09-02T22:31:03Z</time></trkpt><trkpt lat="59.5566487312" lon="31.2643218040"><ele>0.14</ele><time>2026-09-02T22:31:05Z</time></trkpt><trkpt lat="59.5566701889" lon="31.2642788887"><ele>0.14</ele><time>2026-09-02T22:31:08Z</time></trkpt><trkpt lat="59.5566701889" lon="31.2642788887"><ele>0.14</ele><time>2026-09-02T22:31:10Z</time></trkpt><trkpt lat="59.5566916466" lon="31.2642574310"><ele>0.14</ele><time>2026-09-02T22:31:13Z</time></trkpt><trkpt lat="59.5566916466" lon="31.2642359734"><ele>0.14</ele><time>2026-09-02T22:31:15Z</time></trkpt><trkpt lat="59.5567131042" lon="31.2642145157"><ele>0.14</ele><time>2026-09-02T22:31:18Z</time></trkpt><trkpt lat="59.5567345619" lon="31.2642145157"><ele>0.14</ele><time>2026-09-02T22:31:20Z</time></trkpt><trkpt lat="59.5567560196" lon="31.2641501427"><ele>0.14</ele><time>2026-09-02T22:31:23Z</time></trkpt><trkpt lat="59.5567560196" lon="31.2641286850"><ele>0.14</ele><time>2026-09-02T22:31:25Z</time></trkpt><trkpt lat="59.5567774773" lon="31.2641072273"><ele>0.14</ele><time>2026-09-02T22:31:28Z</time></trkpt><trkpt lat="59.5567774773" lon="31.2640857697"><ele>0.14</ele><time>2026-09-02T22:31:30Z</time></trkpt><trkpt lat="59.5567989349" lon="31.2640857697"><ele>0.14</ele><time>2026-09-02T22:31:33Z</time></trkpt><trkpt lat="59.5567989349" lon="31.2640643120"><ele>0.14</ele><time>2026-09-02T22:31:35Z</time></trkpt><trkpt lat="59.5567989349" lon="31.2640857697"><ele>0.14</ele><time>2026-09-02T22:31:38Z</time></trkpt><trkpt lat="59.5567989349" lon="31.2640857697"><ele>0.14</ele><time>2026-09-02T22:31:40Z</time></trkpt><trkpt lat="59.5568203926" lon="31.2640643120"><ele>0.14</ele><time>2026-09-02T22:31:43Z</time></trkpt><trkpt lat="59.5568203926" lon="31.2640213966"><ele>0.14</ele><time>2026-09-02T22:31:45Z</time></trkpt><trkpt lat="59.5568418503" lon="31.2639784813"><ele>0.14</ele><time>2026-09-02T22:31:48Z</time></trkpt><trkpt lat="59.5568847656" lon="31.2639355659"><ele>0.14</ele><time>2026-09-02T22:31:50Z</time></trkpt><trkpt lat="59.5569062233" lon="31.2638926506"><ele>0.14</ele><time>2026-09-02T22:31:53Z</time></trkpt><trkpt lat="59.5569276810" lon="31.2638497353"><ele>0.14</ele><time>2026-09-02T22:31:55Z</time></trkpt><trkpt lat="59.5569491386" lon="31.2638068199"><ele>0.14</ele><time>2026-09-02T22:31:58Z</time></trkpt><trkpt lat="59.5569705963" lon="31.2637639046"><ele>0.14</ele><time>2026-09-02T22:32:00Z</time></trkpt><trkpt lat="59.5569705963" lon="31.2637424469"><ele>0.14</ele><time>2026-09-02T22:32:03Z</time></trkpt><trkpt lat="59.5569920540" lon="31.2637209892"><ele>0.14</ele><time>2026-09-02T22:32:05Z</time></trkpt><trkpt lat="59.5570135117" lon="31.2636995316"><ele>0.14</ele><time>2026-09-02T22:32:08Z</time></trkpt><trkpt lat="59.5570135117" lon="31.2636995316"><ele>0.14</ele><time>2026-09-02T22:32:10Z</time></trkpt><trkpt lat="59.5570349693" lon="31.2636995316"><ele>0.14</ele><time>2026-09-02T22:32:13Z</time></trkpt><trkpt lat="59.5570349693" lon="31.2636780739"><ele>0.14</ele><time>2026-09-02T22:32:15Z</time></trkpt><trkpt lat="59.5570778847" lon="31.2636351585"><ele>0.14</ele><time>2026-09-02T22:32:18Z</time></trkpt><trkpt lat="59.5570778847" lon="31.2636137009"><ele>0.14</ele><time>2026-09-02T22:32:20Z</time></trkpt><trkpt lat="59.5570993423" lon="31.2636137009"><ele>0.14</ele><time>2026-09-02T22:32:23Z</time></trkpt><trkpt lat="59.5571208000" lon="31.2636351585"><ele>0.14</ele><time>2026-09-02T22:32:25Z</time></trkpt><trkpt lat="59.5571208000" lon="31.2636137009"><ele>0.14</ele><time>2026-09-02T22:32:28Z</time></trkpt><trkpt lat="59.5571208000" lon="31.2636351585"><ele>0.14</ele><time>2026-09-02T22:32:30Z</time></trkpt><trkpt lat="59.5571208000" lon="31.2635922432"><ele>0.14</ele><time>2026-09-02T22:32:33Z</time></trkpt><trkpt lat="59.5571208000" lon="31.2635922432"><ele>0.14</ele><time>2026-09-02T22:32:35Z</time></trkpt><trkpt lat="59.5571208000" lon="31.2635707855"><ele>0.14</ele><time>2026-09-02T22:32:38Z</time></trkpt><trkpt lat="59.5571422577" lon="31.2635493279"><ele>0.14</ele><time>2026-09-02T22:32:40Z</time></trkpt><trkpt lat="59.5571637154" lon="31.2635278702"><ele>0.14</ele><time>2026-09-02T22:32:43Z</time></trkpt><trkpt lat="59.5571851730" lon="31.2634849548"><ele>0.14</ele><time>2026-09-02T22:32:45Z</time></trkpt><trkpt lat="59.5571851730" lon="31.2634420395"><ele>0.14</ele><time>2026-09-02T22:32:48Z</time></trkpt><trkpt lat="59.5572066307" lon="31.2634205818"><ele>0.14</ele><time>2026-09-02T22:32:50Z</time></trkpt><trkpt lat="59.5572280884" lon="31.2633776665"><ele>0.14</ele><time>2026-09-02T22:32:53Z</time></trkpt><trkpt lat="59.5572495461" lon="31.2633562088"><ele>0.14</ele><time>2026-09-02T22:32:55Z</time></trkpt><trkpt lat="59.5572710037" lon="31.2632703781"><ele>0.14</ele><time>2026-09-02T22:32:58Z</time></trkpt><trkpt lat="59.5572924614" lon="31.2631630898"><ele>0.14</ele><time>2026-09-02T22:33:00Z</time></trkpt><trkpt lat="59.5572924614" lon="31.2631201744"><ele>0.14</ele><time>2026-09-02T22:33:03Z</time></trkpt><trkpt lat="59.5572924614" lon="31.2631201744"><ele>0.14</ele><time>2026-09-02T22:33:05Z</time></trkpt><trkpt lat="59.5572924614" lon="31.2631201744"><ele>0.14</ele><time>2026-09-02T22:33:08Z</time></trkpt><trkpt lat="59.5572710037" lon="31.2630772591"><ele>0.14</ele><time>2026-09-02T22:33:10Z</time></trkpt><trkpt lat="59.5572710037" lon="31.2630558014"><ele>0.14</ele><time>2026-09-02T22:33:13Z</time></trkpt><trkpt lat="59.5572710037" lon="31.2629914284"><ele>0.14</ele><time>2026-09-02T22:33:15Z</time></trkpt><trkpt lat="59.5572710037" lon="31.2629485130"><ele>0.14</ele><time>2026-09-02T22:33:18Z</time></trkpt><trkpt lat="59.5572710037" lon="31.2628841400"><ele>0.14</ele><time>2026-09-02T22:33:20Z</time></trkpt><trkpt lat="59.5572710037" lon="31.2627983093"><ele>0.14</ele><time>2026-09-02T22:33:23Z</time></trkpt><trkpt lat="59.5572710037" lon="31.2627339363"><ele>0.14</ele><time>2026-09-02T22:33:25Z</time></trkpt><trkpt lat="59.5572495461" lon="31.2627124786"><ele>0.14</ele><time>2026-09-02T22:33:28Z</time></trkpt><trkpt lat="59.5572710037" lon="31.2626910210"><ele>0.14</ele><time>2026-09-02T22:33:30Z</time></trkpt><trkpt lat="59.5572924614" lon="31.2626695633"><ele>0.14</ele><time>2026-09-02T22:33:33Z</time></trkpt><trkpt lat="59.5573139191" lon="31.2626481056"><ele>0.14</ele><time>2026-09-02T22:33:35Z</time></trkpt><trkpt lat="59.5572924614" lon="31.2625622749"><ele>0.14</ele><time>2026-09-02T22:33:38Z</time></trkpt><trkpt lat="59.5572710037" lon="31.2624764442"><ele>0.14</ele><time>2026-09-02T22:33:40Z</time></trkpt><trkpt lat="59.5572710037" lon="31.2624335289"><ele>0.14</ele><time>2026-09-02T22:33:43Z</time></trkpt><trkpt lat="59.5572710037" lon="31.2623906136"><ele>0.14</ele><time>2026-09-02T22:33:45Z</time></trkpt><trkpt lat="59.5572710037" lon="31.2623476982"><ele>0.14</ele><time>2026-09-02T22:33:48Z</time></trkpt><trkpt lat="59.5572495461" lon="31.2623476982"><ele>0.14</ele><time>2026-09-02T22:33:50Z</time></trkpt><trkpt lat="59.5572710037" lon="31.2623262405"><ele>0.14</ele><time>2026-09-02T22:33:53Z</time></trkpt><trkpt lat="59.5572924614" lon="31.2622833252"><ele>0.14</ele><time>2026-09-02T22:33:55Z</time></trkpt><trkpt lat="59.5573139191" lon="31.2622618675"><ele>0.14</ele><time>2026-09-02T22:33:58Z</time></trkpt><trkpt lat="59.5573353767" lon="31.2622189522"><ele>0.14</ele><time>2026-09-02T22:34:00Z</time></trkpt><trkpt lat="59.5573782921" lon="31.2621760368"><ele>0.14</ele><time>2026-09-02T22:34:03Z</time></trkpt><trkpt lat="59.5573997498" lon="31.2621331215"><ele>0.14</ele><time>2026-09-02T22:34:05Z</time></trkpt><trkpt lat="59.5574641228" lon="31.2620902061"><ele>0.14</ele><time>2026-09-02T22:34:08Z</time></trkpt><trkpt lat="59.5574641228" lon="31.2620902061"><ele>0.14</ele><time>2026-09-02T22:34:10Z</time></trkpt><trkpt lat="59.5574641228" lon="31.2620472908"><ele>0.14</ele><time>2026-09-02T22:34:13Z</time></trkpt><trkpt lat="59.5574641228" lon="31.2620472908"><ele>0.14</ele><time>2026-09-02T22:34:15Z</time></trkpt><trkpt lat="59.5574641228" lon="31.2620472908"><ele>0.14</ele><time>2026-09-02T22:34:18Z</time></trkpt><trkpt lat="59.5574855804" lon="31.2620258331"><ele>0.14</ele><time>2026-09-02T22:34:20Z</time></trkpt><trkpt lat="59.5575499535" lon="31.2619614601"><ele>0.14</ele><time>2026-09-02T22:34:23Z</time></trkpt><trkpt lat="59.5575714111" lon="31.2619400024"><ele>0.14</ele><time>2026-09-02T22:34:25Z</time></trkpt><trkpt lat="59.5575928688" lon="31.2618970871"><ele>0.14</ele><time>2026-09-02T22:34:28Z</time></trkpt><trkpt lat="59.5576357841" lon="31.2618756294"><ele>0.14</ele><time>2026-09-02T22:34:30Z</time></trkpt><trkpt lat="59.5577001572" lon="31.2618112564"><ele>0.14</ele><time>2026-09-02T22:34:33Z</time></trkpt><trkpt lat="59.5577001572" lon="31.2617897987"><ele>0.14</ele><time>2026-09-02T22:34:35Z</time></trkpt><trkpt lat="59.5577001572" lon="31.2617897987"><ele>0.14</ele><time>2026-09-02T22:34:38Z</time></trkpt><trkpt lat="59.5577001572" lon="31.2617897987"><ele>0.14</ele><time>2026-09-02T22:34:40Z</time></trkpt><trkpt lat="59.5577216148" lon="31.2617897987"><ele>0.14</ele><time>2026-09-02T22:34:43Z</time></trkpt><trkpt lat="59.5577430725" lon="31.2617468834"><ele>0.14</ele><time>2026-09-02T22:34:45Z</time></trkpt><trkpt lat="59.5577645302" lon="31.2616825104"><ele>0.14</ele><time>2026-09-02T22:34:48Z</time></trkpt><trkpt lat="59.5578074455" lon="31.2616395950"><ele>0.14</ele><time>2026-09-02T22:34:50Z</time></trkpt><trkpt lat="59.5578289032" lon="31.2616181374"><ele>0.14</ele><time>2026-09-02T22:34:53Z</time></trkpt><trkpt lat="59.5578503609" lon="31.2616395950"><ele>0.14</ele><time>2026-09-02T22:34:55Z</time></trkpt><trkpt lat="59.5578718185" lon="31.2616825104"><ele>0.14</ele><time>2026-09-02T22:34:58Z</time></trkpt><trkpt lat="59.5578932762" lon="31.2617683411"><ele>0.14</ele><time>2026-09-02T22:35:00Z</time></trkpt><trkpt lat="59.5579147339" lon="31.2618327141"><ele>0.14</ele><time>2026-09-02T22:35:03Z</time></trkpt><trkpt lat="59.5579361916" lon="31.2618756294"><ele>0.14</ele><time>2026-09-02T22:35:05Z</time></trkpt><trkpt lat="59.5580005646" lon="31.2618756294"><ele>0.14</ele><time>2026-09-02T22:35:08Z</time></trkpt><trkpt lat="59.5580434799" lon="31.2618970871"><ele>0.14</ele><time>2026-09-02T22:35:10Z</time></trkpt><trkpt lat="59.5581078529" lon="31.2619185448"><ele>0.14</ele><time>2026-09-02T22:35:13Z</time></trkpt><trkpt lat="59.5581293106" lon="31.2618970871"><ele>0.14</ele><time>2026-09-02T22:35:15Z</time></trkpt><trkpt lat="59.5581722260" lon="31.2618970871"><ele>0.14</ele><time>2026-09-02T22:35:18Z</time></trkpt><trkpt lat="59.5582151413" lon="31.2619185448"><ele>0.14</ele><time>2026-09-02T22:35:20Z</time></trkpt><trkpt lat="59.5582580566" lon="31.2619400024"><ele>0.14</ele><time>2026-09-02T22:35:23Z</time></trkpt><trkpt lat="59.5582580566" lon="31.2620043755"><ele>0.14</ele><time>2026-09-02T22:35:25Z</time></trkpt><trkpt lat="59.5583009720" lon="31.2620687485"><ele>0.14</ele><time>2026-09-02T22:35:28Z</time></trkpt><trkpt lat="59.5583438873" lon="31.2621331215"><ele>0.14</ele><time>2026-09-02T22:35:30Z</time></trkpt><trkpt lat="59.5583653450" lon="31.2621545792"><ele>0.14</ele><time>2026-09-02T22:35:33Z</time></trkpt><trkpt lat="59.5583653450" lon="31.2621545792"><ele>0.14</ele><time>2026-09-02T22:35:35Z</time></trkpt><trkpt lat="59.5583438873" lon="31.2621545792"><ele>0.14</ele><time>2026-09-02T22:35:38Z</time></trkpt><trkpt lat="59.5583224297" lon="31.2621331215"><ele>0.14</ele><time>2026-09-02T22:35:40Z</time></trkpt><trkpt lat="59.5583009720" lon="31.2621545792"><ele>0.14</ele><time>2026-09-02T22:35:43Z</time></trkpt><trkpt lat="59.5582580566" lon="31.2621545792"><ele>0.14</ele><time>2026-09-02T22:35:45Z</time></trkpt><trkpt lat="59.5582151413" lon="31.2621331215"><ele>0.14</ele><time>2026-09-02T22:35:48Z</time></trkpt><trkpt lat="59.5581722260" lon="31.2621545792"><ele>0.14</ele><time>2026-09-02T22:35:50Z</time></trkpt><trkpt lat="59.5581507683" lon="31.2621974945"><ele>0.14</ele><time>2026-09-02T22:35:53Z</time></trkpt><trkpt lat="59.5581078529" lon="31.2622189522"><ele>0.14</ele><time>2026-09-02T22:35:55Z</time></trkpt><trkpt lat="59.5580649376" lon="31.2622404099"><ele>0.14</ele><time>2026-09-02T22:35:58Z</time></trkpt><trkpt lat="59.5580649376" lon="31.2622404099"><ele>0.14</ele><time>2026-09-02T22:36:00Z</time></trkpt><trkpt lat="59.5580220222" lon="31.2622189522"><ele>0.14</ele><time>2026-09-02T22:36:03Z</time></trkpt><trkpt lat="59.5580220222" lon="31.2622404099"><ele>0.14</ele><time>2026-09-02T22:36:05Z</time></trkpt><trkpt lat="59.5580220222" lon="31.2622404099"><ele>0.14</ele><time>2026-09-02T22:36:08Z</time></trkpt><trkpt lat="59.5580220222" lon="31.2622404099"><ele>0.14</ele><time>2026-09-02T22:36:10Z</time></trkpt><trkpt lat="59.5580220222" lon="31.2622404099"><ele>0.14</ele><time>2026-09-02T22:36:13Z</time></trkpt><trkpt lat="59.5580220222" lon="31.2622404099"><ele>0.14</ele><time>2026-09-02T22:36:15Z</time></trkpt><trkpt lat="59.5580220222" lon="31.2622404099"><ele>0.14</ele><time>2026-09-02T22:36:18Z</time></trkpt><trkpt lat="59.5580220222" lon="31.2622404099"><ele>0.14</ele><time>2026-09-02T22:36:20Z</time></trkpt><trkpt lat="59.5580220222" lon="31.2622404099"><ele>0.14</ele><time>2026-09-02T22:36:23Z</time></trkpt><trkpt lat="59.5580220222" lon="31.2622404099"><ele>0.14</ele><time>2026-09-02T22:36:25Z</time></trkpt><trkpt lat="59.5580220222" lon="31.2622404099"><ele>0.14</ele><time>2026-09-02T22:36:28Z</time></trkpt><trkpt lat="59.5580220222" lon="31.2622404099"><ele>0.14</ele><time>2026-09-02T22:36:30Z</time></trkpt><trkpt lat="59.5580220222" lon="31.2622404099"><ele>0.14</ele><time>2026-09-02T22:36:33Z</time></trkpt><trkpt lat="59.5580220222" lon="31.2622404099"><ele>0.14</ele><time>2026-09-02T22:36:35Z</time></trkpt><trkpt lat="59.5580220222" lon="31.2622404099"><ele>0.14</ele><time>2026-09-02T22:36:38Z</time></trkpt><trkpt lat="59.5580220222" lon="31.2622404099"><ele>0.14</ele><time>2026-09-02T22:36:40Z</time></trkpt><trkpt lat="59.5580434799" lon="31.2622404099"><ele>0.14</ele><time>2026-09-02T22:36:43Z</time></trkpt><trkpt lat="59.5580434799" lon="31.2622404099"><ele>0.14</ele><time>2026-09-02T22:36:45Z</time></trkpt><trkpt lat="59.5580434799" lon="31.2622404099"><ele>0.14</ele><time>2026-09-02T22:36:48Z</time></trkpt><trkpt lat="59.5580434799" lon="31.2622404099"><ele>0.14</ele><time>2026-09-02T22:36:50Z</time></trkpt><trkpt lat="59.5580434799" lon="31.2622404099"><ele>0.14</ele><time>2026-09-02T22:36:53Z</time></trkpt><trkpt lat="59.5580434799" lon="31.2622404099"><ele>0.14</ele><time>2026-09-02T22:36:55Z</time></trkpt><trkpt lat="59.5580434799" lon="31.2622404099"><ele>0.14</ele><time>2026-09-02T22:36:58Z</time></trkpt><trkpt lat="59.5580434799" lon="31.2622404099"><ele>0.14</ele><time>2026-09-02T22:37:00Z</time></trkpt><trkpt lat="59.5580434799" lon="31.2622404099"><ele>0.14</ele><time>2026-09-02T22:37:03Z</time></trkpt><trkpt lat="59.5580434799" lon="31.2622404099"><ele>0.14</ele><time>2026-09-02T22:37:05Z</time></trkpt><trkpt lat="59.5580434799" lon="31.2622404099"><ele>0.14</ele><time>2026-09-02T22:37:08Z</time></trkpt><trkpt lat="59.5580434799" lon="31.2622404099"><ele>0.14</ele><time>2026-09-02T22:37:10Z</time></trkpt><trkpt lat="59.5580434799" lon="31.2622404099"><ele>0.14</ele><time>2026-09-02T22:37:13Z</time></trkpt><trkpt lat="59.5580434799" lon="31.2622404099"><ele>0.14</ele><time>2026-09-02T22:37:15Z</time></trkpt><trkpt lat="59.5580220222" lon="31.2622404099"><ele>0.14</ele><time>2026-09-02T22:37:18Z</time></trkpt><trkpt lat="59.5580220222" lon="31.2622404099"><ele>0.14</ele><time>2026-09-02T22:37:20Z</time></trkpt><trkpt lat="59.5580220222" lon="31.2622404099"><ele>0.14</ele><time>2026-09-02T22:37:23Z</time></trkpt><trkpt lat="59.5580220222" lon="31.2622404099"><ele>0.14</ele><time>2026-09-02T22:37:25Z</time></trkpt><trkpt lat="59.5580220222" lon="31.2622404099"><ele>0.14</ele><time>2026-09-02T22:37:28Z</time></trkpt><trkpt lat="59.5580220222" lon="31.2622404099"><ele>0.14</ele><time>2026-09-02T22:37:30Z</time></trkpt><trkpt lat="59.5580220222" lon="31.2622404099"><ele>0.14</ele><time>2026-09-02T22:37:33Z</time></trkpt><trkpt lat="59.5580220222" lon="31.2622618675"><ele>0.14</ele><time>2026-09-02T22:37:35Z</time></trkpt><trkpt lat="59.5580220222" lon="31.2622618675"><ele>0.14</ele><time>2026-09-02T22:37:38Z</time></trkpt><trkpt lat="59.5580220222" lon="31.2622618675"><ele>0.14</ele><time>2026-09-02T22:37:40Z</time></trkpt><trkpt lat="59.5580220222" lon="31.2622618675"><ele>0.14</ele><time>2026-09-02T22:37:43Z</time></trkpt><trkpt lat="59.5580220222" lon="31.2622618675"><ele>0.14</ele><time>2026-09-02T22:37:45Z</time></trkpt><trkpt lat="59.5580220222" lon="31.2622404099"><ele>0.14</ele><time>2026-09-02T22:37:48Z</time></trkpt><trkpt lat="59.5580220222" lon="31.2622404099"><ele>0.14</ele><time>2026-09-02T22:37:50Z</time></trkpt><trkpt lat="59.5580220222" lon="31.2622404099"><ele>0.14</ele><time>2026-09-02T22:37:53Z</time></trkpt><trkpt lat="59.5580220222" lon="31.2622404099"><ele>0.14</ele><time>2026-09-02T22:37:55Z</time></trkpt><trkpt lat="59.5580220222" lon="31.2622404099"><ele>0.14</ele><time>2026-09-02T22:37:58Z</time></trkpt><trkpt lat="59.5580220222" lon="31.2622404099"><ele>0.14</ele><time>2026-09-02T22:38:00Z</time></trkpt><trkpt lat="59.5580220222" lon="31.2621974945"><ele>0.14</ele><time>2026-09-02T22:38:03Z</time></trkpt><trkpt lat="59.5580220222" lon="31.2621974945"><ele>0.14</ele><time>2026-09-02T22:38:05Z</time></trkpt><trkpt lat="59.5580220222" lon="31.2621545792"><ele>0.14</ele><time>2026-09-02T22:38:08Z</time></trkpt><trkpt lat="59.5580220222" lon="31.2621545792"><ele>0.14</ele><time>2026-09-02T22:38:10Z</time></trkpt><trkpt lat="59.5580434799" lon="31.2621331215"><ele>0.14</ele><time>2026-09-02T22:38:13Z</time></trkpt><trkpt lat="59.5580434799" lon="31.2621116638"><ele>0.14</ele><time>2026-09-02T22:38:15Z</time></trkpt><trkpt lat="59.5580434799" lon="31.2620902061"><ele>0.14</ele><time>2026-09-02T22:38:18Z</time></trkpt><trkpt lat="59.5580649376" lon="31.2620902061"><ele>0.14</ele><time>2026-09-02T22:38:20Z</time></trkpt><trkpt lat="59.5580649376" lon="31.2620472908"><ele>0.14</ele><time>2026-09-02T22:38:23Z</time></trkpt><trkpt lat="59.5580649376" lon="31.2620472908"><ele>0.14</ele><time>2026-09-02T22:38:25Z</time></trkpt><trkpt lat="59.5580649376" lon="31.2620043755"><ele>0.14</ele><time>2026-09-02T22:38:28Z</time></trkpt><trkpt lat="59.5580649376" lon="31.2619829178"><ele>0.14</ele><time>2026-09-02T22:38:30Z</time></trkpt><trkpt lat="59.5580649376" lon="31.2619614601"><ele>0.14</ele><time>2026-09-02T22:38:33Z</time></trkpt><trkpt lat="59.5580649376" lon="31.2619400024"><ele>0.14</ele><time>2026-09-02T22:38:35Z</time></trkpt><trkpt lat="59.5580863953" lon="31.2619185448"><ele>0.14</ele><time>2026-09-02T22:38:38Z</time></trkpt><trkpt lat="59.5580863953" lon="31.2618970871"><ele>0.14</ele><time>2026-09-02T22:38:40Z</time></trkpt><trkpt lat="59.5580863953" lon="31.2618756294"><ele>0.14</ele><time>2026-09-02T22:38:43Z</time></trkpt><trkpt lat="59.5581078529" lon="31.2618541718"><ele>0.14</ele><time>2026-09-02T22:38:45Z</time></trkpt><trkpt lat="59.5581078529" lon="31.2618327141"><ele>0.14</ele><time>2026-09-02T22:38:48Z</time></trkpt><trkpt lat="59.5581293106" lon="31.2618327141"><ele>0.14</ele><time>2026-09-02T22:38:50Z</time></trkpt><trkpt lat="59.5581722260" lon="31.2617468834"><ele>0.14</ele><time>2026-09-02T22:38:53Z</time></trkpt><trkpt lat="59.5581936836" lon="31.2617039680"><ele>0.14</ele><time>2026-09-02T22:38:55Z</time></trkpt><trkpt lat="59.5582365990" lon="31.2616181374"><ele>0.14</ele><time>2026-09-02T22:38:58Z</time></trkpt><trkpt lat="59.5582580566" lon="31.2615323067"><ele>0.14</ele><time>2026-09-02T22:39:00Z</time></trkpt><trkpt lat="59.5582795143" lon="31.2615323067"><ele>0.14</ele><time>2026-09-02T22:39:03Z</time></trkpt><trkpt lat="59.5582580566" lon="31.2615323067"><ele>0.14</ele><time>2026-09-02T22:39:05Z</time></trkpt><trkpt lat="59.5582795143" lon="31.2615108490"><ele>0.14</ele><time>2026-09-02T22:39:08Z</time></trkpt><trkpt lat="59.5582795143" lon="31.2614893913"><ele>0.14</ele><time>2026-09-02T22:39:10Z</time></trkpt><trkpt lat="59.5582795143" lon="31.2615108490"><ele>0.14</ele><time>2026-09-02T22:39:13Z</time></trkpt><trkpt lat="59.5583009720" lon="31.2614893913"><ele>0.14</ele><time>2026-09-02T22:39:15Z</time></trkpt><trkpt lat="59.5583438873" lon="31.2614464760"><ele>0.14</ele><time>2026-09-02T22:39:18Z</time></trkpt><trkpt lat="59.5583868027" lon="31.2613821030"><ele>0.14</ele><time>2026-09-02T22:39:20Z</time></trkpt><trkpt lat="59.5583868027" lon="31.2613391876"><ele>0.14</ele><time>2026-09-02T22:39:23Z</time></trkpt><trkpt lat="59.5584082603" lon="31.2612962723"><ele>0.14</ele><time>2026-09-02T22:39:25Z</time></trkpt><trkpt lat="59.5584297180" lon="31.2612748146"><ele>0.14</ele><time>2026-09-02T22:39:28Z</time></trkpt><trkpt lat="59.5584511757" lon="31.2612318993"><ele>0.14</ele><time>2026-09-02T22:39:30Z</time></trkpt><trkpt lat="59.5584726334" lon="31.2611889839"><ele>0.14</ele><time>2026-09-02T22:39:33Z</time></trkpt><trkpt lat="59.5584940910" lon="31.2611889839"><ele>0.14</ele><time>2026-09-02T22:39:35Z</time></trkpt><trkpt lat="59.5585370064" lon="31.2611675262"><ele>0.14</ele><time>2026-09-02T22:39:38Z</time></trkpt><trkpt lat="59.5585370064" lon="31.2611460686"><ele>0.14</ele><time>2026-09-02T22:39:40Z</time></trkpt><trkpt lat="59.5585155487" lon="31.2611246109"><ele>0.14</ele><time>2026-09-02T22:39:43Z</time></trkpt><trkpt lat="59.5585155487" lon="31.2611246109"><ele>0.14</ele><time>2026-09-02T22:39:45Z</time></trkpt><trkpt lat="59.5585155487" lon="31.2611460686"><ele>0.14</ele><time>2026-09-02T22:39:48Z</time></trkpt><trkpt lat="59.5584940910" lon="31.2611246109"><ele>0.14</ele><time>2026-09-02T22:39:50Z</time></trkpt><trkpt lat="59.5584726334" lon="31.2611031532"><ele>0.14</ele><time>2026-09-02T22:39:53Z</time></trkpt><trkpt lat="59.5584511757" lon="31.2610816956"><ele>0.14</ele><time>2026-09-02T22:39:55Z</time></trkpt><trkpt lat="59.5584511757" lon="31.2610602379"><ele>0.14</ele><time>2026-09-02T22:39:58Z</time></trkpt><trkpt lat="59.5584726334" lon="31.2610173225"><ele>0.14</ele><time>2026-09-02T22:40:00Z</time></trkpt><trkpt lat="59.5584726334" lon="31.2609529495"><ele>0.14</ele><time>2026-09-02T22:40:03Z</time></trkpt><trkpt lat="59.5584940910" lon="31.2609100342"><ele>0.14</ele><time>2026-09-02T22:40:05Z</time></trkpt><trkpt lat="59.5585155487" lon="31.2609100342"><ele>0.14</ele><time>2026-09-02T22:40:08Z</time></trkpt><trkpt lat="59.5585155487" lon="31.2608885765"><ele>0.14</ele><time>2026-09-02T22:40:10Z</time></trkpt><trkpt lat="59.5585155487" lon="31.2608671188"><ele>0.14</ele><time>2026-09-02T22:40:13Z</time></trkpt><trkpt lat="59.5585155487" lon="31.2608456612"><ele>0.14</ele><time>2026-09-02T22:40:15Z</time></trkpt><trkpt lat="59.5585370064" lon="31.2608242035"><ele>0.14</ele><time>2026-09-02T22:40:18Z</time></trkpt><trkpt lat="59.5585799217" lon="31.2608027458"><ele>0.14</ele><time>2026-09-02T22:40:20Z</time></trkpt><trkpt lat="59.5586013794" lon="31.2607812881"><ele>0.14</ele><time>2026-09-02T22:40:23Z</time></trkpt><trkpt lat="59.5586228371" lon="31.2607598305"><ele>0.14</ele><time>2026-09-02T22:40:25Z</time></trkpt><trkpt lat="59.5586657524" lon="31.2607383728"><ele>0.14</ele><time>2026-09-02T22:40:28Z</time></trkpt><trkpt lat="59.5586872101" lon="31.2607169151"><ele>0.14</ele><time>2026-09-02T22:40:30Z</time></trkpt><trkpt lat="59.5587086678" lon="31.2606954575"><ele>0.14</ele><time>2026-09-02T22:40:33Z</time></trkpt><trkpt lat="59.5587301254" lon="31.2606739998"><ele>0.14</ele><time>2026-09-02T22:40:35Z</time></trkpt><trkpt lat="59.5587301254" lon="31.2606525421"><ele>0.14</ele><time>2026-09-02T22:40:38Z</time></trkpt><trkpt lat="59.5587301254" lon="31.2606525421"><ele>0.14</ele><time>2026-09-02T22:40:40Z</time></trkpt><trkpt lat="59.5587301254" lon="31.2606310844"><ele>0.14</ele><time>2026-09-02T22:40:43Z</time></trkpt><trkpt lat="59.5587515831" lon="31.2606310844"><ele>0.14</ele><time>2026-09-02T22:40:45Z</time></trkpt><trkpt lat="59.5587515831" lon="31.2606525421"><ele>0.14</ele><time>2026-09-02T22:40:48Z</time></trkpt><trkpt lat="59.5587730408" lon="31.2606739998"><ele>0.14</ele><time>2026-09-02T22:40:50Z</time></trkpt><trkpt lat="59.5587730408" lon="31.2606525421"><ele>0.14</ele><time>2026-09-02T22:40:53Z</time></trkpt><trkpt lat="59.5587730408" lon="31.2606525421"><ele>0.14</ele><time>2026-09-02T22:40:55Z</time></trkpt><trkpt lat="59.5587730408" lon="31.2606525421"><ele>0.14</ele><time>2026-09-02T22:40:58Z</time></trkpt><trkpt lat="59.5587944984" lon="31.2606525421"><ele>0.14</ele><time>2026-09-02T22:41:00Z</time></trkpt><trkpt lat="59.5587944984" lon="31.2606525421"><ele>0.14</ele><time>2026-09-02T22:41:03Z</time></trkpt><trkpt lat="59.5587730408" lon="31.2606310844"><ele>0.14</ele><time>2026-09-02T22:41:05Z</time></trkpt><trkpt lat="59.5587730408" lon="31.2606310844"><ele>0.14</ele><time>2026-09-02T22:41:08Z</time></trkpt><trkpt lat="59.5587730408" lon="31.2606310844"><ele>0.14</ele><time>2026-09-02T22:41:10Z</time></trkpt><trkpt lat="59.5587730408" lon="31.2606310844"><ele>0.14</ele><time>2026-09-02T22:41:13Z</time></trkpt><trkpt lat="59.5587730408" lon="31.2606310844"><ele>0.14</ele><time>2026-09-02T22:41:15Z</time></trkpt><trkpt lat="59.5587730408" lon="31.2606310844"><ele>0.14</ele><time>2026-09-02T22:41:18Z</time></trkpt><trkpt lat="59.5587730408" lon="31.2606310844"><ele>0.14</ele><time>2026-09-02T22:41:20Z</time></trkpt><trkpt lat="59.5587730408" lon="31.2606310844"><ele>0.14</ele><time>2026-09-02T22:41:23Z</time></trkpt><trkpt lat="59.5587730408" lon="31.2606310844"><ele>0.14</ele><time>2026-09-02T22:41:25Z</time></trkpt><trkpt lat="59.5587730408" lon="31.2606310844"><ele>0.14</ele><time>2026-09-02T22:41:28Z</time></trkpt><trkpt lat="59.5587730408" lon="31.2606310844"><ele>0.14</ele><time>2026-09-02T22:41:30Z</time></trkpt><trkpt lat="59.5587730408" lon="31.2606310844"><ele>0.14</ele><time>2026-09-02T22:41:33Z</time></trkpt><trkpt lat="59.5587730408" lon="31.2606310844"><ele>0.14</ele><time>2026-09-02T22:41:35Z</time></trkpt><trkpt lat="59.5587730408" lon="31.2606310844"><ele>0.14</ele><time>2026-09-02T22:41:38Z</time></trkpt><trkpt lat="59.5587730408" lon="31.2606310844"><ele>0.14</ele><time>2026-09-02T22:41:40Z</time></trkpt><trkpt lat="59.5587730408" lon="31.2606310844"><ele>0.14</ele><time>2026-09-02T22:41:43Z</time></trkpt><trkpt lat="59.5587730408" lon="31.2606310844"><ele>0.14</ele><time>2026-09-02T22:41:45Z</time></trkpt><trkpt lat="59.5587730408" lon="31.2606310844"><ele>0.14</ele><time>2026-09-02T22:41:48Z</time></trkpt><trkpt lat="59.5587730408" lon="31.2606310844"><ele>0.14</ele><time>2026-09-02T22:41:50Z</time></trkpt><trkpt lat="59.5587730408" lon="31.2606310844"><ele>0.14</ele><time>2026-09-02T22:41:53Z</time></trkpt><trkpt lat="59.5587730408" lon="31.2606310844"><ele>0.14</ele><time>2026-09-02T22:41:55Z</time></trkpt><trkpt lat="59.5587730408" lon="31.2606310844"><ele>0.14</ele><time>2026-09-02T22:41:58Z</time></trkpt><trkpt lat="59.5587730408" lon="31.2606310844"><ele>0.14</ele><time>2026-09-02T22:42:00Z</time></trkpt><trkpt lat="59.5587730408" lon="31.2606310844"><ele>0.14</ele><time>2026-09-02T22:42:03Z</time></trkpt><trkpt lat="59.5587730408" lon="31.2606310844"><ele>0.14</ele><time>2026-09-02T22:42:05Z</time></trkpt><trkpt lat="59.5587730408" lon="31.2606525421"><ele>0.14</ele><time>2026-09-02T22:42:08Z</time></trkpt><trkpt lat="59.5587730408" lon="31.2606525421"><ele>0.14</ele><time>2026-09-02T22:42:10Z</time></trkpt><trkpt lat="59.5587730408" lon="31.2606525421"><ele>0.14</ele><time>2026-09-02T22:42:13Z</time></trkpt><trkpt lat="59.5587730408" lon="31.2606525421"><ele>0.14</ele><time>2026-09-02T22:42:15Z</time></trkpt><trkpt lat="59.5587730408" lon="31.2606525421"><ele>0.14</ele><time>2026-09-02T22:42:18Z</time></trkpt><trkpt lat="59.5587730408" lon="31.2606525421"><ele>0.14</ele><time>2026-09-02T22:42:20Z</time></trkpt><trkpt lat="59.5587730408" lon="31.2606525421"><ele>0.14</ele><time>2026-09-02T22:42:23Z</time></trkpt><trkpt lat="59.5587730408" lon="31.2606525421"><ele>0.14</ele><time>2026-09-02T22:42:25Z</time></trkpt><trkpt lat="59.5587730408" lon="31.2606525421"><ele>0.14</ele><time>2026-09-02T22:42:28Z</time></trkpt><trkpt lat="59.5587730408" lon="31.2606525421"><ele>0.14</ele><time>2026-09-02T22:42:30Z</time></trkpt><trkpt lat="59.5587730408" lon="31.2606525421"><ele>0.14</ele><time>2026-09-02T22:42:33Z</time></trkpt><trkpt lat="59.5587730408" lon="31.2606525421"><ele>0.14</ele><time>2026-09-02T22:42:35Z</time></trkpt><trkpt lat="59.5587730408" lon="31.2606525421"><ele>0.14</ele><time>2026-09-02T22:42:38Z</time></trkpt><trkpt lat="59.5587730408" lon="31.2606525421"><ele>0.14</ele><time>2026-09-02T22:42:40Z</time></trkpt><trkpt lat="59.5587730408" lon="31.2606525421"><ele>0.14</ele><time>2026-09-02T22:42:43Z</time></trkpt><trkpt lat="59.5587730408" lon="31.2606525421"><ele>0.14</ele><time>2026-09-02T22:42:45Z</time></trkpt><trkpt lat="59.5587730408" lon="31.2606525421"><ele>0.14</ele><time>2026-09-02T22:42:48Z</time></trkpt><trkpt lat="59.5587730408" lon="31.2606525421"><ele>0.14</ele><time>2026-09-02T22:42:50Z</time></trkpt><trkpt lat="59.5587730408" lon="31.2606525421"><ele>0.14</ele><time>2026-09-02T22:42:53Z</time></trkpt><trkpt lat="59.5587730408" lon="31.2606525421"><ele>0.14</ele><time>2026-09-02T22:42:55Z</time></trkpt><trkpt lat="59.5587730408" lon="31.2606525421"><ele>0.14</ele><time>2026-09-02T22:42:58Z</time></trkpt><trkpt lat="59.5587730408" lon="31.2606525421"><ele>0.14</ele><time>2026-09-02T22:43:00Z</time></trkpt><trkpt lat="59.5587730408" lon="31.2606525421"><ele>0.14</ele><time>2026-09-02T22:43:03Z</time></trkpt><trkpt lat="59.5587730408" lon="31.2606525421"><ele>0.14</ele><time>2026-09-02T22:43:05Z</time></trkpt><trkpt lat="59.5587944984" lon="31.2606525421"><ele>0.14</ele><time>2026-09-02T22:43:08Z</time></trkpt><trkpt lat="59.5587944984" lon="31.2606525421"><ele>0.14</ele><time>2026-09-02T22:43:10Z</time></trkpt><trkpt lat="59.5587944984" lon="31.2606310844"><ele>0.14</ele><time>2026-09-02T22:43:13Z</time></trkpt><trkpt lat="59.5588159561" lon="31.2606310844"><ele>0.14</ele><time>2026-09-02T22:43:15Z</time></trkpt><trkpt lat="59.5588159561" lon="31.2606310844"><ele>0.14</ele><time>2026-09-02T22:43:18Z</time></trkpt><trkpt lat="59.5588159561" lon="31.2606096268"><ele>0.14</ele><time>2026-09-02T22:43:20Z</time></trkpt><trkpt lat="59.5588159561" lon="31.2606096268"><ele>0.14</ele><time>2026-09-02T22:43:23Z</time></trkpt><trkpt lat="59.5588159561" lon="31.2606096268"><ele>0.14</ele><time>2026-09-02T22:43:25Z</time></trkpt><trkpt lat="59.5588159561" lon="31.2606096268"><ele>0.14</ele><time>2026-09-02T22:43:28Z</time></trkpt><trkpt lat="59.5588159561" lon="31.2606096268"><ele>0.14</ele><time>2026-09-02T22:43:30Z</time></trkpt><trkpt lat="59.5588159561" lon="31.2606096268"><ele>0.14</ele><time>2026-09-02T22:43:33Z</time></trkpt><trkpt lat="59.5588159561" lon="31.2606096268"><ele>0.14</ele><time>2026-09-02T22:43:35Z</time></trkpt><trkpt lat="59.5588159561" lon="31.2606096268"><ele>0.14</ele><time>2026-09-02T22:43:38Z</time></trkpt><trkpt lat="59.5588159561" lon="31.2606310844"><ele>0.14</ele><time>2026-09-02T22:43:40Z</time></trkpt><trkpt lat="59.5587944984" lon="31.2606310844"><ele>0.14</ele><time>2026-09-02T22:43:43Z</time></trkpt><trkpt lat="59.5587515831" lon="31.2606954575"><ele>0.14</ele><time>2026-09-02T22:43:45Z</time></trkpt><trkpt lat="59.5587301254" lon="31.2607169151"><ele>0.14</ele><time>2026-09-02T22:43:48Z</time></trkpt><trkpt lat="59.5586872101" lon="31.2607383728"><ele>0.14</ele><time>2026-09-02T22:43:50Z</time></trkpt><trkpt lat="59.5586228371" lon="31.2607598305"><ele>0.14</ele><time>2026-09-02T22:43:53Z</time></trkpt><trkpt lat="59.5586013794" lon="31.2607383728"><ele>0.14</ele><time>2026-09-02T22:43:55Z</time></trkpt><trkpt lat="59.5586013794" lon="31.2607812881"><ele>0.14</ele><time>2026-09-02T22:43:58Z</time></trkpt><trkpt lat="59.5585799217" lon="31.2608456612"><ele>0.14</ele><time>2026-09-02T22:44:00Z</time></trkpt><trkpt lat="59.5585370064" lon="31.2608671188"><ele>0.14</ele><time>2026-09-02T22:44:03Z</time></trkpt><trkpt lat="59.5585370064" lon="31.2608671188"><ele>0.14</ele><time>2026-09-02T22:44:05Z</time></trkpt><trkpt lat="59.5584940910" lon="31.2608671188"><ele>0.14</ele><time>2026-09-02T22:44:08Z</time></trkpt><trkpt lat="59.5584726334" lon="31.2608456612"><ele>0.14</ele><time>2026-09-02T22:44:10Z</time></trkpt><trkpt lat="59.5584511757" lon="31.2608242035"><ele>0.14</ele><time>2026-09-02T22:44:13Z</time></trkpt><trkpt lat="59.5584297180" lon="31.2608027458"><ele>0.14</ele><time>2026-09-02T22:44:15Z</time></trkpt><trkpt lat="59.5584082603" lon="31.2607598305"><ele>0.14</ele><time>2026-09-02T22:44:18Z</time></trkpt><trkpt lat="59.5584082603" lon="31.2607598305"><ele>0.14</ele><time>2026-09-02T22:44:20Z</time></trkpt><trkpt lat="59.5583868027" lon="31.2607383728"><ele>0.14</ele><time>2026-09-02T22:44:23Z</time></trkpt><trkpt lat="59.5583653450" lon="31.2606954575"><ele>0.14</ele><time>2026-09-02T22:44:25Z</time></trkpt><trkpt lat="59.5583438873" lon="31.2606954575"><ele>0.14</ele><time>2026-09-02T22:44:28Z</time></trkpt><trkpt lat="59.5583438873" lon="31.2607383728"><ele>0.14</ele><time>2026-09-02T22:44:30Z</time></trkpt><trkpt lat="59.5583009720" lon="31.2607812881"><ele>0.14</ele><time>2026-09-02T22:44:33Z</time></trkpt><trkpt lat="59.5582580566" lon="31.2608027458"><ele>0.14</ele><time>2026-09-02T22:44:35Z</time></trkpt><trkpt lat="59.5582580566" lon="31.2607812881"><ele>0.14</ele><time>2026-09-02T22:44:38Z</time></trkpt><trkpt lat="59.5582580566" lon="31.2607812881"><ele>0.14</ele><time>2026-09-02T22:44:40Z</time></trkpt><trkpt lat="59.5582580566" lon="31.2607812881"><ele>0.14</ele><time>2026-09-02T22:44:43Z</time></trkpt><trkpt lat="59.5582365990" lon="31.2607812881"><ele>0.14</ele><time>2026-09-02T22:44:45Z</time></trkpt><trkpt lat="59.5581936836" lon="31.2608027458"><ele>0.14</ele><time>2026-09-02T22:44:48Z</time></trkpt><trkpt lat="59.5581507683" lon="31.2608242035"><ele>0.14</ele><time>2026-09-02T22:44:50Z</time></trkpt><trkpt lat="59.5581293106" lon="31.2608456612"><ele>0.14</ele><time>2026-09-02T22:44:53Z</time></trkpt><trkpt lat="59.5581078529" lon="31.2608671188"><ele>0.14</ele><time>2026-09-02T22:44:55Z</time></trkpt><trkpt lat="59.5581078529" lon="31.2608671188"><ele>0.14</ele><time>2026-09-02T22:44:58Z</time></trkpt><trkpt lat="59.5580863953" lon="31.2608456612"><ele>0.14</ele><time>2026-09-02T22:45:00Z</time></trkpt><trkpt lat="59.5580649376" lon="31.2608456612"><ele>0.14</ele><time>2026-09-02T22:45:03Z</time></trkpt><trkpt lat="59.5580434799" lon="31.2608242035"><ele>0.14</ele><time>2026-09-02T22:45:05Z</time></trkpt><trkpt lat="59.5580220222" lon="31.2608242035"><ele>0.14</ele><time>2026-09-02T22:45:08Z</time></trkpt><trkpt lat="59.5580005646" lon="31.2608027458"><ele>0.14</ele><time>2026-09-02T22:45:10Z</time></trkpt><trkpt lat="59.5579791069" lon="31.2607812881"><ele>0.14</ele><time>2026-09-02T22:45:13Z</time></trkpt><trkpt lat="59.5579791069" lon="31.2608242035"><ele>0.14</ele><time>2026-09-02T22:45:15Z</time></trkpt><trkpt lat="59.5579791069" lon="31.2608671188"><ele>0.14</ele><time>2026-09-02T22:45:18Z</time></trkpt><trkpt lat="59.5579791069" lon="31.2609100342"><ele>0.14</ele><time>2026-09-02T22:45:20Z</time></trkpt><trkpt lat="59.5579576492" lon="31.2609529495"><ele>0.14</ele><time>2026-09-02T22:45:23Z</time></trkpt><trkpt lat="59.5579576492" lon="31.2609529495"><ele>0.14</ele><time>2026-09-02T22:45:25Z</time></trkpt><trkpt lat="59.5579361916" lon="31.2609314919"><ele>0.14</ele><time>2026-09-02T22:45:28Z</time></trkpt><trkpt lat="59.5579361916" lon="31.2609529495"><ele>0.14</ele><time>2026-09-02T22:45:30Z</time></trkpt><trkpt lat="59.5579147339" lon="31.2609958649"><ele>0.14</ele><time>2026-09-02T22:45:33Z</time></trkpt><trkpt lat="59.5579147339" lon="31.2609958649"><ele>0.14</ele><time>2026-09-02T22:45:35Z</time></trkpt><trkpt lat="59.5578932762" lon="31.2610173225"><ele>0.14</ele><time>2026-09-02T22:45:38Z</time></trkpt><trkpt lat="59.5578718185" lon="31.2610173225"><ele>0.14</ele><time>2026-09-02T22:45:40Z</time></trkpt><trkpt lat="59.5578718185" lon="31.2610387802"><ele>0.14</ele><time>2026-09-02T22:45:43Z</time></trkpt><trkpt lat="59.5578503609" lon="31.2610387802"><ele>0.14</ele><time>2026-09-02T22:45:45Z</time></trkpt><trkpt lat="59.5578503609" lon="31.2610602379"><ele>0.14</ele><time>2026-09-02T22:45:48Z</time></trkpt><trkpt lat="59.5578503609" lon="31.2610816956"><ele>0.14</ele><time>2026-09-02T22:45:50Z</time></trkpt><trkpt lat="59.5578289032" lon="31.2610602379"><ele>0.14</ele><time>2026-09-02T22:45:53Z</time></trkpt><trkpt lat="59.5578289032" lon="31.2610816956"><ele>0.14</ele><time>2026-09-02T22:45:55Z</time></trkpt><trkpt lat="59.5578289032" lon="31.2610602379"><ele>0.14</ele><time>2026-09-02T22:45:58Z</time></trkpt><trkpt lat="59.5578289032" lon="31.2610602379"><ele>0.14</ele><time>2026-09-02T22:46:00Z</time></trkpt><trkpt lat="59.5578074455" lon="31.2610602379"><ele>0.14</ele><time>2026-09-02T22:46:03Z</time></trkpt><trkpt lat="59.5578074455" lon="31.2610387802"><ele>0.14</ele><time>2026-09-02T22:46:05Z</time></trkpt><trkpt lat="59.5578074455" lon="31.2610387802"><ele>0.14</ele><time>2026-09-02T22:46:08Z</time></trkpt><trkpt lat="59.5578074455" lon="31.2610387802"><ele>0.14</ele><time>2026-09-02T22:46:10Z</time></trkpt><trkpt lat="59.5577645302" lon="31.2610602379"><ele>0.14</ele><time>2026-09-02T22:46:13Z</time></trkpt><trkpt lat="59.5577430725" lon="31.2610602379"><ele>0.14</ele><time>2026-09-02T22:46:15Z</time></trkpt><trkpt lat="59.5577216148" lon="31.2611031532"><ele>0.14</ele><time>2026-09-02T22:46:18Z</time></trkpt><trkpt lat="59.5577216148" lon="31.2611246109"><ele>0.14</ele><time>2026-09-02T22:46:20Z</time></trkpt><trkpt lat="59.5576786995" lon="31.2611460686"><ele>0.14</ele><time>2026-09-02T22:46:23Z</time></trkpt><trkpt lat="59.5576786995" lon="31.2611675262"><ele>0.14</ele><time>2026-09-02T22:46:25Z</time></trkpt><trkpt lat="59.5576786995" lon="31.2612104416"><ele>0.14</ele><time>2026-09-02T22:46:28Z</time></trkpt><trkpt lat="59.5576572418" lon="31.2612318993"><ele>0.14</ele><time>2026-09-02T22:46:30Z</time></trkpt><trkpt lat="59.5576572418" lon="31.2612533569"><ele>0.14</ele><time>2026-09-02T22:46:33Z</time></trkpt><trkpt lat="59.5576572418" lon="31.2612533569"><ele>0.14</ele><time>2026-09-02T22:46:35Z</time></trkpt><trkpt lat="59.5576357841" lon="31.2612748146"><ele>0.14</ele><time>2026-09-02T22:46:38Z</time></trkpt><trkpt lat="59.5576357841" lon="31.2612748146"><ele>0.14</ele><time>2026-09-02T22:46:40Z</time></trkpt><trkpt lat="59.5576357841" lon="31.2612748146"><ele>0.14</ele><time>2026-09-02T22:46:43Z</time></trkpt><trkpt lat="59.5576357841" lon="31.2612748146"><ele>0.14</ele><time>2026-09-02T22:46:45Z</time></trkpt><trkpt lat="59.5576357841" lon="31.2613177299"><ele>0.14</ele><time>2026-09-02T22:46:48Z</time></trkpt><trkpt lat="59.5576357841" lon="31.2613177299"><ele>0.14</ele><time>2026-09-02T22:46:50Z</time></trkpt><trkpt lat="59.5576357841" lon="31.2613391876"><ele>0.14</ele><time>2026-09-02T22:46:53Z</time></trkpt><trkpt lat="59.5576357841" lon="31.2613606453"><ele>0.14</ele><time>2026-09-02T22:46:55Z</time></trkpt><trkpt lat="59.5576357841" lon="31.2613821030"><ele>0.14</ele><time>2026-09-02T22:46:58Z</time></trkpt><trkpt lat="59.5576357841" lon="31.2613821030"><ele>0.14</ele><time>2026-09-02T22:47:00Z</time></trkpt><trkpt lat="59.5576357841" lon="31.2613821030"><ele>0.14</ele><time>2026-09-02T22:47:03Z</time></trkpt><trkpt lat="59.5576357841" lon="31.2613821030"><ele>0.14</ele><time>2026-09-02T22:47:05Z</time></trkpt><trkpt lat="59.5576357841" lon="31.2614035606"><ele>0.14</ele><time>2026-09-02T22:47:08Z</time></trkpt><trkpt lat="59.5576572418" lon="31.2614250183"><ele>0.14</ele><time>2026-09-02T22:47:10Z</time></trkpt><trkpt lat="59.5576572418" lon="31.2614464760"><ele>0.14</ele><time>2026-09-02T22:47:13Z</time></trkpt><trkpt lat="59.5576572418" lon="31.2614464760"><ele>0.14</ele><time>2026-09-02T22:47:15Z</time></trkpt><trkpt lat="59.5576786995" lon="31.2614250183"><ele>0.14</ele><time>2026-09-02T22:47:18Z</time></trkpt><trkpt lat="59.5577001572" lon="31.2614250183"><ele>0.14</ele><time>2026-09-02T22:47:20Z</time></trkpt><trkpt lat="59.5577001572" lon="31.2614464760"><ele>0.14</ele><time>2026-09-02T22:47:23Z</time></trkpt><trkpt lat="59.5577001572" lon="31.2614464760"><ele>0.14</ele><time>2026-09-02T22:47:25Z</time></trkpt><trkpt lat="59.5577001572" lon="31.2614679337"><ele>0.14</ele><time>2026-09-02T22:47:28Z</time></trkpt><trkpt lat="59.5577001572" lon="31.2615108490"><ele>0.14</ele><time>2026-09-02T22:47:30Z</time></trkpt><trkpt lat="59.5576786995" lon="31.2615966797"><ele>0.14</ele><time>2026-09-02T22:47:33Z</time></trkpt><trkpt lat="59.5576572418" lon="31.2616395950"><ele>0.14</ele><time>2026-09-02T22:47:35Z</time></trkpt><trkpt lat="59.5576357841" lon="31.2616610527"><ele>0.14</ele><time>2026-09-02T22:47:38Z</time></trkpt><trkpt lat="59.5576357841" lon="31.2616825104"><ele>0.14</ele><time>2026-09-02T22:47:40Z</time></trkpt><trkpt lat="59.5576357841" lon="31.2616825104"><ele>0.14</ele><time>2026-09-02T22:47:43Z</time></trkpt><trkpt lat="59.5576357841" lon="31.2617254257"><ele>0.14</ele><time>2026-09-02T22:47:45Z</time></trkpt><trkpt lat="59.5575928688" lon="31.2617468834"><ele>0.14</ele><time>2026-09-02T22:47:48Z</time></trkpt><trkpt lat="59.5575714111" lon="31.2617897987"><ele>0.14</ele><time>2026-09-02T22:47:50Z</time></trkpt><trkpt lat="59.5575714111" lon="31.2618541718"><ele>0.14</ele><time>2026-09-02T22:47:53Z</time></trkpt><trkpt lat="59.5575499535" lon="31.2618970871"><ele>0.14</ele><time>2026-09-02T22:47:55Z</time></trkpt><trkpt lat="59.5575284958" lon="31.2619185448"><ele>0.14</ele><time>2026-09-02T22:47:58Z</time></trkpt><trkpt lat="59.5575070381" lon="31.2619185448"><ele>0.14</ele><time>2026-09-02T22:48:00Z</time></trkpt><trkpt lat="59.5575070381" lon="31.2619400024"><ele>0.14</ele><time>2026-09-02T22:48:03Z</time></trkpt><trkpt lat="59.5574855804" lon="31.2619400024"><ele>0.14</ele><time>2026-09-02T22:48:05Z</time></trkpt><trkpt lat="59.5574641228" lon="31.2619185448"><ele>0.14</ele><time>2026-09-02T22:48:08Z</time></trkpt><trkpt lat="59.5574641228" lon="31.2619400024"><ele>0.14</ele><time>2026-09-02T22:48:10Z</time></trkpt><trkpt lat="59.5574641228" lon="31.2619400024"><ele>0.14</ele><time>2026-09-02T22:48:13Z</time></trkpt><trkpt lat="59.5574641228" lon="31.2619185448"><ele>0.14</ele><time>2026-09-02T22:48:15Z</time></trkpt><trkpt lat="59.5574426651" lon="31.2619614601"><ele>0.14</ele><time>2026-09-02T22:48:18Z</time></trkpt><trkpt lat="59.5574212074" lon="31.2619829178"><ele>0.14</ele><time>2026-09-02T22:48:20Z</time></trkpt><trkpt lat="59.5573997498" lon="31.2619614601"><ele>0.14</ele><time>2026-09-02T22:48:23Z</time></trkpt><trkpt lat="59.5573997498" lon="31.2619400024"><ele>0.14</ele><time>2026-09-02T22:48:25Z</time></trkpt><trkpt lat="59.5573997498" lon="31.2619185448"><ele>0.14</ele><time>2026-09-02T22:48:28Z</time></trkpt><trkpt lat="59.5573782921" lon="31.2619400024"><ele>0.14</ele><time>2026-09-02T22:48:30Z</time></trkpt><trkpt lat="59.5573782921" lon="31.2619829178"><ele>0.14</ele><time>2026-09-02T22:48:33Z</time></trkpt><trkpt lat="59.5573353767" lon="31.2620472908"><ele>0.14</ele><time>2026-09-02T22:48:35Z</time></trkpt><trkpt lat="59.5573139191" lon="31.2620258331"><ele>0.14</ele><time>2026-09-02T22:48:38Z</time></trkpt><trkpt lat="59.5573139191" lon="31.2620472908"><ele>0.14</ele><time>2026-09-02T22:48:40Z</time></trkpt><trkpt lat="59.5572924614" lon="31.2620687485"><ele>0.14</ele><time>2026-09-02T22:48:43Z</time></trkpt><trkpt lat="59.5572710037" lon="31.2620687485"><ele>0.14</ele><time>2026-09-02T22:48:45Z</time></trkpt><trkpt lat="59.5572495461" lon="31.2620902061"><ele>0.14</ele><time>2026-09-02T22:48:48Z</time></trkpt><trkpt lat="59.5572495461" lon="31.2620902061"><ele>0.14</ele><time>2026-09-02T22:48:50Z</time></trkpt><trkpt lat="59.5572495461" lon="31.2620902061"><ele>0.14</ele><time>2026-09-02T22:48:53Z</time></trkpt><trkpt lat="59.5572495461" lon="31.2620687485"><ele>0.14</ele><time>2026-09-02T22:48:55Z</time></trkpt><trkpt lat="59.5572280884" lon="31.2620687485"><ele>0.14</ele><time>2026-09-02T22:48:58Z</time></trkpt><trkpt lat="59.5572280884" lon="31.2620472908"><ele>0.14</ele><time>2026-09-02T22:49:00Z</time></trkpt><trkpt lat="59.5572066307" lon="31.2620472908"><ele>0.14</ele><time>2026-09-02T22:49:03Z</time></trkpt><trkpt lat="59.5572066307" lon="31.2620258331"><ele>0.14</ele><time>2026-09-02T22:49:05Z</time></trkpt><trkpt lat="59.5572066307" lon="31.2620472908"><ele>0.14</ele><time>2026-09-02T22:49:08Z</time></trkpt><trkpt lat="59.5572066307" lon="31.2620472908"><ele>0.14</ele><time>2026-09-02T22:49:10Z</time></trkpt><trkpt lat="59.5571851730" lon="31.2620687485"><ele>0.14</ele><time>2026-09-02T22:49:13Z</time></trkpt><trkpt lat="59.5571851730" lon="31.2620902061"><ele>0.14</ele><time>2026-09-02T22:49:15Z</time></trkpt><trkpt lat="59.5571422577" lon="31.2621116638"><ele>0.14</ele><time>2026-09-02T22:49:18Z</time></trkpt><trkpt lat="59.5571208000" lon="31.2621116638"><ele>0.14</ele><time>2026-09-02T22:49:20Z</time></trkpt><trkpt lat="59.5571208000" lon="31.2620902061"><ele>0.14</ele><time>2026-09-02T22:49:23Z</time></trkpt><trkpt lat="59.5570993423" lon="31.2620902061"><ele>0.14</ele><time>2026-09-02T22:49:25Z</time></trkpt><trkpt lat="59.5570778847" lon="31.2621116638"><ele>0.14</ele><time>2026-09-02T22:49:28Z</time></trkpt><trkpt lat="59.5570564270" lon="31.2621545792"><ele>0.14</ele><time>2026-09-02T22:49:30Z</time></trkpt><trkpt lat="59.5570349693" lon="31.2621760368"><ele>0.14</ele><time>2026-09-02T22:49:33Z</time></trkpt><trkpt lat="59.5570135117" lon="31.2621760368"><ele>0.14</ele><time>2026-09-02T22:49:35Z</time></trkpt><trkpt lat="59.5569920540" lon="31.2621760368"><ele>0.14</ele><time>2026-09-02T22:49:38Z</time></trkpt><trkpt lat="59.5569920540" lon="31.2621974945"><ele>0.14</ele><time>2026-09-02T22:49:40Z</time></trkpt><trkpt lat="59.5569491386" lon="31.2622189522"><ele>0.14</ele><time>2026-09-02T22:49:43Z</time></trkpt><trkpt lat="59.5569276810" lon="31.2622404099"><ele>0.14</ele><time>2026-09-02T22:49:45Z</time></trkpt><trkpt lat="59.5569276810" lon="31.2622404099"><ele>0.14</ele><time>2026-09-02T22:49:48Z</time></trkpt><trkpt lat="59.5569276810" lon="31.2622189522"><ele>0.14</ele><time>2026-09-02T22:49:50Z</time></trkpt><trkpt lat="59.5569062233" lon="31.2622189522"><ele>0.14</ele><time>2026-09-02T22:49:53Z</time></trkpt><trkpt lat="59.5569062233" lon="31.2622189522"><ele>0.14</ele><time>2026-09-02T22:49:55Z</time></trkpt><trkpt lat="59.5569062233" lon="31.2622189522"><ele>0.14</ele><time>2026-09-02T22:49:58Z</time></trkpt><trkpt lat="59.5569062233" lon="31.2622189522"><ele>0.14</ele><time>2026-09-02T22:50:00Z</time></trkpt><trkpt lat="59.5569062233" lon="31.2622189522"><ele>0.14</ele><time>2026-09-02T22:50:03Z</time></trkpt><trkpt lat="59.5569062233" lon="31.2622404099"><ele>0.14</ele><time>2026-09-02T22:50:05Z</time></trkpt><trkpt lat="59.5568847656" lon="31.2622833252"><ele>0.14</ele><time>2026-09-02T22:50:08Z</time></trkpt><trkpt lat="59.5568633080" lon="31.2623047829"><ele>0.14</ele><time>2026-09-02T22:50:10Z</time></trkpt><trkpt lat="59.5568633080" lon="31.2623047829"><ele>0.14</ele><time>2026-09-02T22:50:13Z</time></trkpt><trkpt lat="59.5568418503" lon="31.2623262405"><ele>0.14</ele><time>2026-09-02T22:50:15Z</time></trkpt><trkpt lat="59.5568418503" lon="31.2623476982"><ele>0.14</ele><time>2026-09-02T22:50:18Z</time></trkpt><trkpt lat="59.5568418503" lon="31.2623691559"><ele>0.14</ele><time>2026-09-02T22:50:20Z</time></trkpt><trkpt lat="59.5568203926" lon="31.2624120712"><ele>0.14</ele><time>2026-09-02T22:50:23Z</time></trkpt><trkpt lat="59.5568203926" lon="31.2624335289"><ele>0.14</ele><time>2026-09-02T22:50:25Z</time></trkpt><trkpt lat="59.5567989349" lon="31.2624549866"><ele>0.14</ele><time>2026-09-02T22:50:28Z</time></trkpt><trkpt lat="59.5567774773" lon="31.2624764442"><ele>0.14</ele><time>2026-09-02T22:50:30Z</time></trkpt><trkpt lat="59.5567560196" lon="31.2625193596"><ele>0.14</ele><time>2026-09-02T22:50:33Z</time></trkpt><trkpt lat="59.5567560196" lon="31.2625622749"><ele>0.14</ele><time>2026-09-02T22:50:35Z</time></trkpt><trkpt lat="59.5567345619" lon="31.2625837326"><ele>0.14</ele><time>2026-09-02T22:50:38Z</time></trkpt><trkpt lat="59.5567345619" lon="31.2626266479"><ele>0.14</ele><time>2026-09-02T22:50:40Z</time></trkpt><trkpt lat="59.5567345619" lon="31.2626695633"><ele>0.14</ele><time>2026-09-02T22:50:43Z</time></trkpt><trkpt lat="59.5567345619" lon="31.2627124786"><ele>0.14</ele><time>2026-09-02T22:50:45Z</time></trkpt><trkpt lat="59.5567345619" lon="31.2627124786"><ele>0.14</ele><time>2026-09-02T22:50:48Z</time></trkpt><trkpt lat="59.5567345619" lon="31.2627339363"><ele>0.14</ele><time>2026-09-02T22:50:50Z</time></trkpt><trkpt lat="59.5567131042" lon="31.2627553940"><ele>0.14</ele><time>2026-09-02T22:50:53Z</time></trkpt><trkpt lat="59.5567131042" lon="31.2627983093"><ele>0.14</ele><time>2026-09-02T22:50:55Z</time></trkpt><trkpt lat="59.5567131042" lon="31.2627983093"><ele>0.14</ele><time>2026-09-02T22:50:58Z</time></trkpt><trkpt lat="59.5567131042" lon="31.2627983093"><ele>0.14</ele><time>2026-09-02T22:51:00Z</time></trkpt><trkpt lat="59.5566916466" lon="31.2628412247"><ele>0.14</ele><time>2026-09-02T22:51:03Z</time></trkpt><trkpt lat="59.5566916466" lon="31.2628841400"><ele>0.14</ele><time>2026-09-02T22:51:05Z</time></trkpt><trkpt lat="59.5566701889" lon="31.2629055977"><ele>0.14</ele><time>2026-09-02T22:51:08Z</time></trkpt><trkpt lat="59.5566487312" lon="31.2629270554"><ele>0.14</ele><time>2026-09-02T22:51:10Z</time></trkpt><trkpt lat="59.5566058159" lon="31.2629485130"><ele>0.14</ele><time>2026-09-02T22:51:13Z</time></trkpt><trkpt lat="59.5565843582" lon="31.2629914284"><ele>0.14</ele><time>2026-09-02T22:51:15Z</time></trkpt><trkpt lat="59.5565629005" lon="31.2629914284"><ele>0.14</ele><time>2026-09-02T22:51:18Z</time></trkpt><trkpt lat="59.5565629005" lon="31.2629914284"><ele>0.14</ele><time>2026-09-02T22:51:20Z</time></trkpt><trkpt lat="59.5565414429" lon="31.2629914284"><ele>0.14</ele><time>2026-09-02T22:51:23Z</time></trkpt><trkpt lat="59.5565414429" lon="31.2630128860"><ele>0.14</ele><time>2026-09-02T22:51:25Z</time></trkpt><trkpt lat="59.5565414429" lon="31.2630343437"><ele>0.14</ele><time>2026-09-02T22:51:28Z</time></trkpt><trkpt lat="59.5565414429" lon="31.2630343437"><ele>0.14</ele><time>2026-09-02T22:51:30Z</time></trkpt><trkpt lat="59.5565414429" lon="31.2630343437"><ele>0.14</ele><time>2026-09-02T22:51:33Z</time></trkpt><trkpt lat="59.5565414429" lon="31.2630343437"><ele>0.14</ele><time>2026-09-02T22:51:35Z</time></trkpt><trkpt lat="59.5565414429" lon="31.2630343437"><ele>0.14</ele><time>2026-09-02T22:51:38Z</time></trkpt><trkpt lat="59.5565414429" lon="31.2630343437"><ele>0.14</ele><time>2026-09-02T22:51:40Z</time></trkpt><trkpt lat="59.5565414429" lon="31.2630343437"><ele>0.14</ele><time>2026-09-02T22:51:43Z</time></trkpt><trkpt lat="59.5565414429" lon="31.2630343437"><ele>0.14</ele><time>2026-09-02T22:51:45Z</time></trkpt><trkpt lat="59.5565414429" lon="31.2630343437"><ele>0.14</ele><time>2026-09-02T22:51:48Z</time></trkpt><trkpt lat="59.5565199852" lon="31.2630558014"><ele>0.14</ele><time>2026-09-02T22:51:50Z</time></trkpt><trkpt lat="59.5565199852" lon="31.2630772591"><ele>0.14</ele><time>2026-09-02T22:51:53Z</time></trkpt><trkpt lat="59.5565199852" lon="31.2630772591"><ele>0.14</ele><time>2026-09-02T22:51:55Z</time></trkpt><trkpt lat="59.5565199852" lon="31.2630772591"><ele>0.14</ele><time>2026-09-02T22:51:58Z</time></trkpt><trkpt lat="59.5565199852" lon="31.2630772591"><ele>0.14</ele><time>2026-09-02T22:52:00Z</time></trkpt><trkpt lat="59.5565199852" lon="31.2630772591"><ele>0.14</ele><time>2026-09-02T22:52:03Z</time></trkpt><trkpt lat="59.5565199852" lon="31.2630772591"><ele>0.14</ele><time>2026-09-02T22:52:05Z</time></trkpt><trkpt lat="59.5565199852" lon="31.2630772591"><ele>0.14</ele><time>2026-09-02T22:52:08Z</time></trkpt><trkpt lat="59.5565199852" lon="31.2630772591"><ele>0.14</ele><time>2026-09-02T22:52:10Z</time></trkpt><trkpt lat="59.5565199852" lon="31.2630558014"><ele>0.14</ele><time>2026-09-02T22:52:13Z</time></trkpt><trkpt lat="59.5565199852" lon="31.2630558014"><ele>0.14</ele><time>2026-09-02T22:52:15Z</time></trkpt><trkpt lat="59.5565199852" lon="31.2630558014"><ele>0.14</ele><time>2026-09-02T22:52:18Z</time></trkpt><trkpt lat="59.5565199852" lon="31.2630558014"><ele>0.14</ele><time>2026-09-02T22:52:20Z</time></trkpt><trkpt lat="59.5565199852" lon="31.2630128860"><ele>0.14</ele><time>2026-09-02T22:52:23Z</time></trkpt><trkpt lat="59.5565199852" lon="31.2629485130"><ele>0.14</ele><time>2026-09-02T22:52:25Z</time></trkpt><trkpt lat="59.5565199852" lon="31.2628841400"><ele>0.14</ele><time>2026-09-02T22:52:28Z</time></trkpt><trkpt lat="59.5565414429" lon="31.2628626823"><ele>0.14</ele><time>2026-09-02T22:52:30Z</time></trkpt><trkpt lat="59.5565414429" lon="31.2628626823"><ele>0.14</ele><time>2026-09-02T22:52:33Z</time></trkpt><trkpt lat="59.5565414429" lon="31.2628626823"><ele>0.14</ele><time>2026-09-02T22:52:35Z</time></trkpt><trkpt lat="59.5565414429" lon="31.2628626823"><ele>0.14</ele><time>2026-09-02T22:52:38Z</time></trkpt><trkpt lat="59.5565199852" lon="31.2627983093"><ele>0.14</ele><time>2026-09-02T22:52:40Z</time></trkpt><trkpt lat="59.5565199852" lon="31.2627768517"><ele>0.14</ele><time>2026-09-02T22:52:43Z</time></trkpt><trkpt lat="59.5565199852" lon="31.2627768517"><ele>0.14</ele><time>2026-09-02T22:52:45Z</time></trkpt><trkpt lat="59.5565199852" lon="31.2627553940"><ele>0.14</ele><time>2026-09-02T22:52:48Z</time></trkpt><trkpt lat="59.5564985275" lon="31.2627339363"><ele>0.14</ele><time>2026-09-02T22:52:50Z</time></trkpt><trkpt lat="59.5564770699" lon="31.2627124786"><ele>0.14</ele><time>2026-09-02T22:52:53Z</time></trkpt><trkpt lat="59.5564770699" lon="31.2626910210"><ele>0.14</ele><time>2026-09-02T22:52:55Z</time></trkpt><trkpt lat="59.5564770699" lon="31.2626695633"><ele>0.14</ele><time>2026-09-02T22:52:58Z</time></trkpt><trkpt lat="59.5564770699" lon="31.2626695633"><ele>0.14</ele><time>2026-09-02T22:53:00Z</time></trkpt><trkpt lat="59.5564556122" lon="31.2626695633"><ele>0.14</ele><time>2026-09-02T22:53:03Z</time></trkpt><trkpt lat="59.5564556122" lon="31.2626266479"><ele>0.14</ele><time>2026-09-02T22:53:05Z</time></trkpt><trkpt lat="59.5564556122" lon="31.2625837326"><ele>0.14</ele><time>2026-09-02T22:53:08Z</time></trkpt><trkpt lat="59.5564556122" lon="31.2625408173"><ele>0.14</ele><time>2026-09-02T22:53:10Z</time></trkpt><trkpt lat="59.5564770699" lon="31.2624979019"><ele>0.14</ele><time>2026-09-02T22:53:13Z</time></trkpt><trkpt lat="59.5564770699" lon="31.2624979019"><ele>0.14</ele><time>2026-09-02T22:53:15Z</time></trkpt><trkpt lat="59.5564770699" lon="31.2624979019"><ele>0.14</ele><time>2026-09-02T22:53:18Z</time></trkpt><trkpt lat="59.5564770699" lon="31.2624979019"><ele>0.14</ele><time>2026-09-02T22:53:20Z</time></trkpt><trkpt lat="59.5564770699" lon="31.2624764442"><ele>0.14</ele><time>2026-09-02T22:53:23Z</time></trkpt><trkpt lat="59.5564985275" lon="31.2624549866"><ele>0.14</ele><time>2026-09-02T22:53:25Z</time></trkpt><trkpt lat="59.5565199852" lon="31.2623906136"><ele>0.14</ele><time>2026-09-02T22:53:28Z</time></trkpt><trkpt lat="59.5565199852" lon="31.2623691559"><ele>0.14</ele><time>2026-09-02T22:53:30Z</time></trkpt><trkpt lat="59.5565199852" lon="31.2623691559"><ele>0.14</ele><time>2026-09-02T22:53:33Z</time></trkpt><trkpt lat="59.5565199852" lon="31.2623262405"><ele>0.14</ele><time>2026-09-02T22:53:35Z</time></trkpt><trkpt lat="59.5565199852" lon="31.2623262405"><ele>0.14</ele><time>2026-09-02T22:53:38Z</time></trkpt><trkpt lat="59.5565199852" lon="31.2623047829"><ele>0.14</ele><time>2026-09-02T22:53:40Z</time></trkpt><trkpt lat="59.5565199852" lon="31.2623047829"><ele>0.14</ele><time>2026-09-02T22:53:43Z</time></trkpt><trkpt lat="59.5565414429" lon="31.2622618675"><ele>0.14</ele><time>2026-09-02T22:53:45Z</time></trkpt><trkpt lat="59.5565629005" lon="31.2620902061"><ele>0.14</ele><time>2026-09-02T22:53:48Z</time></trkpt><trkpt lat="59.5565843582" lon="31.2620043755"><ele>0.14</ele><time>2026-09-02T22:53:50Z</time></trkpt><trkpt lat="59.5565843582" lon="31.2619400024"><ele>0.14</ele><time>2026-09-02T22:53:53Z</time></trkpt><trkpt lat="59.5566058159" lon="31.2618970871"><ele>0.14</ele><time>2026-09-02T22:53:55Z</time></trkpt><trkpt lat="59.5566272736" lon="31.2618327141"><ele>0.14</ele><time>2026-09-02T22:53:58Z</time></trkpt><trkpt lat="59.5566272736" lon="31.2617683411"><ele>0.14</ele><time>2026-09-02T22:54:00Z</time></trkpt><trkpt lat="59.5566272736" lon="31.2617039680"><ele>0.14</ele><time>2026-09-02T22:54:03Z</time></trkpt><trkpt lat="59.5566272736" lon="31.2616610527"><ele>0.14</ele><time>2026-09-02T22:54:05Z</time></trkpt><trkpt lat="59.5566272736" lon="31.2616825104"><ele>0.14</ele><time>2026-09-02T22:54:08Z</time></trkpt><trkpt lat="59.5566487312" lon="31.2616825104"><ele>0.14</ele><time>2026-09-02T22:54:10Z</time></trkpt><trkpt lat="59.5566487312" lon="31.2616610527"><ele>0.14</ele><time>2026-09-02T22:54:13Z</time></trkpt><trkpt lat="59.5566272736" lon="31.2615966797"><ele>0.14</ele><time>2026-09-02T22:54:15Z</time></trkpt><trkpt lat="59.5566487312" lon="31.2614679337"><ele>0.14</ele><time>2026-09-02T22:54:18Z</time></trkpt><trkpt lat="59.5566701889" lon="31.2613821030"><ele>0.14</ele><time>2026-09-02T22:54:20Z</time></trkpt><trkpt lat="59.5566701889" lon="31.2613177299"><ele>0.14</ele><time>2026-09-02T22:54:23Z</time></trkpt><trkpt lat="59.5566916466" lon="31.2612748146"><ele>0.14</ele><time>2026-09-02T22:54:25Z</time></trkpt><trkpt lat="59.5566916466" lon="31.2612318993"><ele>0.14</ele><time>2026-09-02T22:54:28Z</time></trkpt><trkpt lat="59.5566916466" lon="31.2612104416"><ele>0.14</ele><time>2026-09-02T22:54:30Z</time></trkpt><trkpt lat="59.5567131042" lon="31.2611889839"><ele>0.14</ele><time>2026-09-02T22:54:33Z</time></trkpt><trkpt lat="59.5567131042" lon="31.2611460686"><ele>0.14</ele><time>2026-09-02T22:54:35Z</time></trkpt><trkpt lat="59.5567131042" lon="31.2611031532"><ele>0.14</ele><time>2026-09-02T22:54:38Z</time></trkpt><trkpt lat="59.5567345619" lon="31.2610387802"><ele>0.14</ele><time>2026-09-02T22:54:40Z</time></trkpt><trkpt lat="59.5567560196" lon="31.2610387802"><ele>0.14</ele><time>2026-09-02T22:54:43Z</time></trkpt><trkpt lat="59.5567345619" lon="31.2610602379"><ele>0.14</ele><time>2026-09-02T22:54:45Z</time></trkpt><trkpt lat="59.5567560196" lon="31.2610602379"><ele>0.14</ele><time>2026-09-02T22:54:48Z</time></trkpt><trkpt lat="59.5567560196" lon="31.2610387802"><ele>0.14</ele><time>2026-09-02T22:54:50Z</time></trkpt><trkpt lat="59.5567560196" lon="31.2608242035"><ele>0.14</ele><time>2026-09-02T22:54:53Z</time></trkpt><trkpt lat="59.5567560196" lon="31.2606525421"><ele>0.14</ele><time>2026-09-02T22:54:55Z</time></trkpt><trkpt lat="59.5567345619" lon="31.2605667114"><ele>0.14</ele><time>2026-09-02T22:54:58Z</time></trkpt><trkpt lat="59.5567345619" lon="31.2605237961"><ele>0.14</ele><time>2026-09-02T22:55:00Z</time></trkpt><trkpt lat="59.5567131042" lon="31.2605237961"><ele>0.14</ele><time>2026-09-02T22:55:03Z</time></trkpt><trkpt lat="59.5566916466" lon="31.2604808807"><ele>0.14</ele><time>2026-09-02T22:55:05Z</time></trkpt><trkpt lat="59.5566916466" lon="31.2604594231"><ele>0.14</ele><time>2026-09-02T22:55:08Z</time></trkpt><trkpt lat="59.5566916466" lon="31.2604594231"><ele>0.14</ele><time>2026-09-02T22:55:10Z</time></trkpt><trkpt lat="59.5566916466" lon="31.2604594231"><ele>0.14</ele><time>2026-09-02T22:55:13Z</time></trkpt><trkpt lat="59.5566487312" lon="31.2603950500"><ele>0.14</ele><time>2026-09-02T22:55:15Z</time></trkpt><trkpt lat="59.5566272736" lon="31.2603306770"><ele>0.14</ele><time>2026-09-02T22:55:18Z</time></trkpt><trkpt lat="59.5566058159" lon="31.2602663040"><ele>0.14</ele><time>2026-09-02T22:55:20Z</time></trkpt><trkpt lat="59.5565629005" lon="31.2602233887"><ele>0.14</ele><time>2026-09-02T22:55:23Z</time></trkpt><trkpt lat="59.5565414429" lon="31.2601590157"><ele>0.14</ele><time>2026-09-02T22:55:25Z</time></trkpt><trkpt lat="59.5565414429" lon="31.2601590157"><ele>0.14</ele><time>2026-09-02T22:55:28Z</time></trkpt><trkpt lat="59.5565414429" lon="31.2601161003"><ele>0.14</ele><time>2026-09-02T22:55:30Z</time></trkpt><trkpt lat="59.5565199852" lon="31.2600302696"><ele>0.14</ele><time>2026-09-02T22:55:33Z</time></trkpt><trkpt lat="59.5565199852" lon="31.2599873543"><ele>0.14</ele><time>2026-09-02T22:55:35Z</time></trkpt><trkpt lat="59.5565199852" lon="31.2599444389"><ele>0.14</ele><time>2026-09-02T22:55:38Z</time></trkpt><trkpt lat="59.5565199852" lon="31.2599658966"><ele>0.14</ele><time>2026-09-02T22:55:40Z</time></trkpt><trkpt lat="59.5565199852" lon="31.2599658966"><ele>0.14</ele><time>2026-09-02T22:55:43Z</time></trkpt><trkpt lat="59.5565199852" lon="31.2599873543"><ele>0.14</ele><time>2026-09-02T22:55:45Z</time></trkpt><trkpt lat="59.5565199852" lon="31.2599873543"><ele>0.14</ele><time>2026-09-02T22:55:48Z</time></trkpt><trkpt lat="59.5565199852" lon="31.2599873543"><ele>0.14</ele><time>2026-09-02T22:55:50Z</time></trkpt><trkpt lat="59.5565199852" lon="31.2599873543"><ele>0.14</ele><time>2026-09-02T22:55:53Z</time></trkpt><trkpt lat="59.5565199852" lon="31.2599873543"><ele>0.14</ele><time>2026-09-02T22:55:55Z</time></trkpt><trkpt lat="59.5565199852" lon="31.2599873543"><ele>0.14</ele><time>2026-09-02T22:55:58Z</time></trkpt><trkpt lat="59.5565199852" lon="31.2599873543"><ele>0.14</ele><time>2026-09-02T22:56:00Z</time></trkpt><trkpt lat="59.5565199852" lon="31.2599873543"><ele>0.14</ele><time>2026-09-02T22:56:03Z</time></trkpt><trkpt lat="59.5565199852" lon="31.2599658966"><ele>0.14</ele><time>2026-09-02T22:56:05Z</time></trkpt><trkpt lat="59.5565199852" lon="31.2599658966"><ele>0.14</ele><time>2026-09-02T22:56:08Z</time></trkpt><trkpt lat="59.5565199852" lon="31.2599444389"><ele>0.14</ele><time>2026-09-02T22:56:10Z</time></trkpt><trkpt lat="59.5565199852" lon="31.2599229813"><ele>0.14</ele><time>2026-09-02T22:56:13Z</time></trkpt><trkpt lat="59.5565414429" lon="31.2599015236"><ele>0.14</ele><time>2026-09-02T22:56:15Z</time></trkpt><trkpt lat="59.5565629005" lon="31.2598800659"><ele>0.14</ele><time>2026-09-02T22:56:18Z</time></trkpt><trkpt lat="59.5565629005" lon="31.2598800659"><ele>0.14</ele><time>2026-09-02T22:56:20Z</time></trkpt><trkpt lat="59.5565629005" lon="31.2598586082"><ele>0.14</ele><time>2026-09-02T22:56:23Z</time></trkpt><trkpt lat="59.5565629005" lon="31.2598371506"><ele>0.14</ele><time>2026-09-02T22:56:25Z</time></trkpt><trkpt lat="59.5565843582" lon="31.2598156929"><ele>0.14</ele><time>2026-09-02T22:56:28Z</time></trkpt><trkpt lat="59.5565843582" lon="31.2598156929"><ele>0.14</ele><time>2026-09-02T22:56:30Z</time></trkpt><trkpt lat="59.5566058159" lon="31.2597942352"><ele>0.14</ele><time>2026-09-02T22:56:33Z</time></trkpt><trkpt lat="59.5566272736" lon="31.2597727776"><ele>0.14</ele><time>2026-09-02T22:56:35Z</time></trkpt><trkpt lat="59.5566272736" lon="31.2597513199"><ele>0.14</ele><time>2026-09-02T22:56:38Z</time></trkpt><trkpt lat="59.5566487312" lon="31.2597513199"><ele>0.14</ele><time>2026-09-02T22:56:40Z</time></trkpt></trkseg></trk></gpx>